<?xml version="1.0" encoding="UTF-8" standalone="no" ?>
<gpx xmlns="http://www.topografix.com/GPX/1/1" xmlns:xsi="http://www.w3.org/2001/XMLSchema-instance" xsi:schemaLocation="http://www.topografix.com/GPX/1/1 http://www.topografix.com/GPX/1/1/gpx.xsd" version="1.1" creator="VisuGPX - https://www.visugpx.com">
  <metadata>
    <name>Vence / St Jeannet</name>
    <desc><![CDATA[Départ Vence, montée par chemin des salles, col de Venc, descente par sentier du Sillage vers la rivière La Cagne, puis direction le Castelet et la ruine du château du Castelet. Quelques passages entre Lière de blanc et castelet où il faut pousser le vélo sur des cailloux en montée naturellement. Passage un peu barbant.
Descente du château vers Saint Jeannet  assez technique, enduro un peu engagé ( marche en enrochement, virage en épingle avec marche). Pas de souci pour qui sait faire un nose-turn
Retour sur Vence via la route..]]></desc>
  </metadata>
  <trk>
    <name><![CDATA[Vence VTT électrique]]></name>
    <trkseg>
      <trkpt lat="43.71629" lon="7.07972">
        <ele>285.79998779297</ele>
        <time>2023-08-02T06:25:21.000Z</time>
      </trkpt>
      <trkpt lat="43.71631" lon="7.07982">
        <ele>286.20001220703</ele>
        <time>2023-08-02T06:25:22.000Z</time>
      </trkpt>
      <trkpt lat="43.71632" lon="7.07981">
        <ele>286.20001220703</ele>
        <time>2023-08-02T06:25:23.000Z</time>
      </trkpt>
      <trkpt lat="43.71635" lon="7.07978">
        <ele>286.20001220703</ele>
        <time>2023-08-02T06:25:24.000Z</time>
      </trkpt>
      <trkpt lat="43.71634" lon="7.07977">
        <ele>286.20001220703</ele>
        <time>2023-08-02T06:25:25.000Z</time>
      </trkpt>
      <trkpt lat="43.71633" lon="7.07976">
        <ele>286.20001220703</ele>
        <time>2023-08-02T06:25:26.000Z</time>
      </trkpt>
      <trkpt lat="43.71633" lon="7.07976">
        <ele>286.20001220703</ele>
        <time>2023-08-02T06:25:27.000Z</time>
      </trkpt>
      <trkpt lat="43.71633" lon="7.07976">
        <ele>286</ele>
        <time>2023-08-02T06:25:28.000Z</time>
      </trkpt>
      <trkpt lat="43.71633" lon="7.07976">
        <ele>286</ele>
        <time>2023-08-02T06:25:29.000Z</time>
      </trkpt>
      <trkpt lat="43.71633" lon="7.07975">
        <ele>286</ele>
        <time>2023-08-02T06:25:30.000Z</time>
      </trkpt>
      <trkpt lat="43.71634" lon="7.07975">
        <ele>286</ele>
        <time>2023-08-02T06:25:31.000Z</time>
      </trkpt>
      <trkpt lat="43.71633" lon="7.07975">
        <ele>285.79998779297</ele>
        <time>2023-08-02T06:25:32.000Z</time>
      </trkpt>
      <trkpt lat="43.71632" lon="7.07975">
        <ele>285.79998779297</ele>
        <time>2023-08-02T06:25:33.000Z</time>
      </trkpt>
      <trkpt lat="43.71632" lon="7.07974">
        <ele>285.79998779297</ele>
        <time>2023-08-02T06:25:34.000Z</time>
      </trkpt>
      <trkpt lat="43.71631" lon="7.07974">
        <ele>285.79998779297</ele>
        <time>2023-08-02T06:25:35.000Z</time>
      </trkpt>
      <trkpt lat="43.71631" lon="7.07974">
        <ele>285.79998779297</ele>
        <time>2023-08-02T06:25:36.000Z</time>
      </trkpt>
      <trkpt lat="43.71632" lon="7.07974">
        <ele>285.60000610352</ele>
        <time>2023-08-02T06:25:37.000Z</time>
      </trkpt>
      <trkpt lat="43.71632" lon="7.07974">
        <ele>285.60000610352</ele>
        <time>2023-08-02T06:25:38.000Z</time>
      </trkpt>
      <trkpt lat="43.71632" lon="7.07974">
        <ele>285.60000610352</ele>
        <time>2023-08-02T06:25:39.000Z</time>
      </trkpt>
      <trkpt lat="43.71632" lon="7.07974">
        <ele>285.60000610352</ele>
        <time>2023-08-02T06:25:40.000Z</time>
      </trkpt>
      <trkpt lat="43.71632" lon="7.07974">
        <ele>285.60000610352</ele>
        <time>2023-08-02T06:25:41.000Z</time>
      </trkpt>
      <trkpt lat="43.71632" lon="7.07974">
        <ele>285.39999389648</ele>
        <time>2023-08-02T06:25:42.000Z</time>
      </trkpt>
      <trkpt lat="43.71632" lon="7.07974">
        <ele>285.39999389648</ele>
        <time>2023-08-02T06:25:43.000Z</time>
      </trkpt>
      <trkpt lat="43.71632" lon="7.07974">
        <ele>285.39999389648</ele>
        <time>2023-08-02T06:25:44.000Z</time>
      </trkpt>
      <trkpt lat="43.71632" lon="7.07974">
        <ele>285.39999389648</ele>
        <time>2023-08-02T06:25:45.000Z</time>
      </trkpt>
      <trkpt lat="43.71632" lon="7.07974">
        <ele>285.39999389648</ele>
        <time>2023-08-02T06:25:46.000Z</time>
      </trkpt>
      <trkpt lat="43.71632" lon="7.07974">
        <ele>285.20001220703</ele>
        <time>2023-08-02T06:25:47.000Z</time>
      </trkpt>
      <trkpt lat="43.71632" lon="7.07974">
        <ele>285.20001220703</ele>
        <time>2023-08-02T06:25:48.000Z</time>
      </trkpt>
      <trkpt lat="43.71632" lon="7.07974">
        <ele>285.20001220703</ele>
        <time>2023-08-02T06:25:49.000Z</time>
      </trkpt>
      <trkpt lat="43.71632" lon="7.07974">
        <ele>285.20001220703</ele>
        <time>2023-08-02T06:25:50.000Z</time>
      </trkpt>
      <trkpt lat="43.71632" lon="7.07974">
        <ele>285</ele>
        <time>2023-08-02T06:25:51.000Z</time>
      </trkpt>
      <trkpt lat="43.71632" lon="7.07974">
        <ele>285</ele>
        <time>2023-08-02T06:25:52.000Z</time>
      </trkpt>
      <trkpt lat="43.71632" lon="7.07974">
        <ele>285</ele>
        <time>2023-08-02T06:25:53.000Z</time>
      </trkpt>
      <trkpt lat="43.71632" lon="7.07974">
        <ele>285</ele>
        <time>2023-08-02T06:25:54.000Z</time>
      </trkpt>
      <trkpt lat="43.71632" lon="7.07974">
        <ele>285</ele>
        <time>2023-08-02T06:25:55.000Z</time>
      </trkpt>
      <trkpt lat="43.71632" lon="7.07974">
        <ele>285</ele>
        <time>2023-08-02T06:25:56.000Z</time>
      </trkpt>
      <trkpt lat="43.71632" lon="7.07974">
        <ele>285</ele>
        <time>2023-08-02T06:25:57.000Z</time>
      </trkpt>
      <trkpt lat="43.71632" lon="7.07974">
        <ele>285</ele>
        <time>2023-08-02T06:25:58.000Z</time>
      </trkpt>
      <trkpt lat="43.71632" lon="7.07974">
        <ele>285</ele>
        <time>2023-08-02T06:25:59.000Z</time>
      </trkpt>
      <trkpt lat="43.71632" lon="7.07974">
        <ele>285</ele>
        <time>2023-08-02T06:26:00.000Z</time>
      </trkpt>
      <trkpt lat="43.71632" lon="7.07974">
        <ele>284.79998779297</ele>
        <time>2023-08-02T06:26:01.000Z</time>
      </trkpt>
      <trkpt lat="43.71632" lon="7.07974">
        <ele>284.79998779297</ele>
        <time>2023-08-02T06:26:02.000Z</time>
      </trkpt>
      <trkpt lat="43.71632" lon="7.07974">
        <ele>284.79998779297</ele>
        <time>2023-08-02T06:26:03.000Z</time>
      </trkpt>
      <trkpt lat="43.71632" lon="7.07974">
        <ele>284.79998779297</ele>
        <time>2023-08-02T06:26:04.000Z</time>
      </trkpt>
      <trkpt lat="43.71632" lon="7.07974">
        <ele>284.79998779297</ele>
        <time>2023-08-02T06:26:05.000Z</time>
      </trkpt>
      <trkpt lat="43.71632" lon="7.07974">
        <ele>284.79998779297</ele>
        <time>2023-08-02T06:26:06.000Z</time>
      </trkpt>
      <trkpt lat="43.71632" lon="7.07974">
        <ele>284.79998779297</ele>
        <time>2023-08-02T06:26:07.000Z</time>
      </trkpt>
      <trkpt lat="43.71632" lon="7.07974">
        <ele>284.79998779297</ele>
        <time>2023-08-02T06:26:08.000Z</time>
      </trkpt>
      <trkpt lat="43.71632" lon="7.07974">
        <ele>284.60000610352</ele>
        <time>2023-08-02T06:26:09.000Z</time>
      </trkpt>
      <trkpt lat="43.71632" lon="7.07974">
        <ele>284.60000610352</ele>
        <time>2023-08-02T06:26:10.000Z</time>
      </trkpt>
      <trkpt lat="43.71632" lon="7.07974">
        <ele>284.60000610352</ele>
        <time>2023-08-02T06:26:11.000Z</time>
      </trkpt>
      <trkpt lat="43.71632" lon="7.07974">
        <ele>284.60000610352</ele>
        <time>2023-08-02T06:26:12.000Z</time>
      </trkpt>
      <trkpt lat="43.71632" lon="7.07974">
        <ele>284.60000610352</ele>
        <time>2023-08-02T06:26:13.000Z</time>
      </trkpt>
      <trkpt lat="43.71632" lon="7.07974">
        <ele>284.60000610352</ele>
        <time>2023-08-02T06:26:14.000Z</time>
      </trkpt>
      <trkpt lat="43.71632" lon="7.07974">
        <ele>284.60000610352</ele>
        <time>2023-08-02T06:26:15.000Z</time>
      </trkpt>
      <trkpt lat="43.71632" lon="7.07974">
        <ele>284.60000610352</ele>
        <time>2023-08-02T06:26:16.000Z</time>
      </trkpt>
      <trkpt lat="43.71632" lon="7.07974">
        <ele>284.39999389648</ele>
        <time>2023-08-02T06:26:17.000Z</time>
      </trkpt>
      <trkpt lat="43.71632" lon="7.07974">
        <ele>284.39999389648</ele>
        <time>2023-08-02T06:26:18.000Z</time>
      </trkpt>
      <trkpt lat="43.71632" lon="7.07974">
        <ele>284.39999389648</ele>
        <time>2023-08-02T06:26:19.000Z</time>
      </trkpt>
      <trkpt lat="43.71632" lon="7.07974">
        <ele>284.39999389648</ele>
        <time>2023-08-02T06:26:20.000Z</time>
      </trkpt>
      <trkpt lat="43.71632" lon="7.07974">
        <ele>284.39999389648</ele>
        <time>2023-08-02T06:26:21.000Z</time>
      </trkpt>
      <trkpt lat="43.71632" lon="7.07974">
        <ele>284.39999389648</ele>
        <time>2023-08-02T06:26:22.000Z</time>
      </trkpt>
      <trkpt lat="43.71631" lon="7.07974">
        <ele>284.39999389648</ele>
        <time>2023-08-02T06:26:23.000Z</time>
      </trkpt>
      <trkpt lat="43.71631" lon="7.07974">
        <ele>284.39999389648</ele>
        <time>2023-08-02T06:26:24.000Z</time>
      </trkpt>
      <trkpt lat="43.71631" lon="7.07974">
        <ele>284.39999389648</ele>
        <time>2023-08-02T06:26:25.000Z</time>
      </trkpt>
      <trkpt lat="43.71631" lon="7.07974">
        <ele>284.39999389648</ele>
        <time>2023-08-02T06:26:26.000Z</time>
      </trkpt>
      <trkpt lat="43.71631" lon="7.07974">
        <ele>284.39999389648</ele>
        <time>2023-08-02T06:26:27.000Z</time>
      </trkpt>
      <trkpt lat="43.71631" lon="7.07974">
        <ele>284.39999389648</ele>
        <time>2023-08-02T06:26:28.000Z</time>
      </trkpt>
      <trkpt lat="43.71631" lon="7.07974">
        <ele>284.39999389648</ele>
        <time>2023-08-02T06:26:29.000Z</time>
      </trkpt>
      <trkpt lat="43.71631" lon="7.07974">
        <ele>284.39999389648</ele>
        <time>2023-08-02T06:26:30.000Z</time>
      </trkpt>
      <trkpt lat="43.71631" lon="7.07974">
        <ele>284.39999389648</ele>
        <time>2023-08-02T06:26:31.000Z</time>
      </trkpt>
      <trkpt lat="43.71631" lon="7.07974">
        <ele>284.39999389648</ele>
        <time>2023-08-02T06:26:32.000Z</time>
      </trkpt>
      <trkpt lat="43.71632" lon="7.07974">
        <ele>284.39999389648</ele>
        <time>2023-08-02T06:26:33.000Z</time>
      </trkpt>
      <trkpt lat="43.71632" lon="7.07974">
        <ele>284.39999389648</ele>
        <time>2023-08-02T06:26:34.000Z</time>
      </trkpt>
      <trkpt lat="43.71632" lon="7.07974">
        <ele>284.39999389648</ele>
        <time>2023-08-02T06:26:35.000Z</time>
      </trkpt>
      <trkpt lat="43.71632" lon="7.07974">
        <ele>284.39999389648</ele>
        <time>2023-08-02T06:26:36.000Z</time>
      </trkpt>
      <trkpt lat="43.71632" lon="7.07974">
        <ele>284.39999389648</ele>
        <time>2023-08-02T06:26:37.000Z</time>
      </trkpt>
      <trkpt lat="43.71632" lon="7.07974">
        <ele>284.39999389648</ele>
        <time>2023-08-02T06:26:38.000Z</time>
      </trkpt>
      <trkpt lat="43.71632" lon="7.07974">
        <ele>284.39999389648</ele>
        <time>2023-08-02T06:26:39.000Z</time>
      </trkpt>
      <trkpt lat="43.71632" lon="7.07974">
        <ele>284.39999389648</ele>
        <time>2023-08-02T06:26:40.000Z</time>
      </trkpt>
      <trkpt lat="43.71632" lon="7.07974">
        <ele>284.39999389648</ele>
        <time>2023-08-02T06:26:41.000Z</time>
      </trkpt>
      <trkpt lat="43.71632" lon="7.07974">
        <ele>284.39999389648</ele>
        <time>2023-08-02T06:26:42.000Z</time>
      </trkpt>
      <trkpt lat="43.71632" lon="7.07974">
        <ele>284.39999389648</ele>
        <time>2023-08-02T06:26:43.000Z</time>
      </trkpt>
      <trkpt lat="43.71632" lon="7.07974">
        <ele>284.39999389648</ele>
        <time>2023-08-02T06:26:44.000Z</time>
      </trkpt>
      <trkpt lat="43.71632" lon="7.07974">
        <ele>284.39999389648</ele>
        <time>2023-08-02T06:26:45.000Z</time>
      </trkpt>
      <trkpt lat="43.71632" lon="7.07974">
        <ele>284.39999389648</ele>
        <time>2023-08-02T06:26:46.000Z</time>
      </trkpt>
      <trkpt lat="43.71632" lon="7.07974">
        <ele>284.39999389648</ele>
        <time>2023-08-02T06:26:47.000Z</time>
      </trkpt>
      <trkpt lat="43.71632" lon="7.07974">
        <ele>284.39999389648</ele>
        <time>2023-08-02T06:26:48.000Z</time>
      </trkpt>
      <trkpt lat="43.71632" lon="7.07974">
        <ele>284.39999389648</ele>
        <time>2023-08-02T06:26:49.000Z</time>
      </trkpt>
      <trkpt lat="43.71632" lon="7.07974">
        <ele>284.39999389648</ele>
        <time>2023-08-02T06:26:50.000Z</time>
      </trkpt>
      <trkpt lat="43.71632" lon="7.07974">
        <ele>284.39999389648</ele>
        <time>2023-08-02T06:26:51.000Z</time>
      </trkpt>
      <trkpt lat="43.71632" lon="7.07974">
        <ele>284.39999389648</ele>
        <time>2023-08-02T06:26:52.000Z</time>
      </trkpt>
      <trkpt lat="43.71632" lon="7.07974">
        <ele>284.39999389648</ele>
        <time>2023-08-02T06:26:53.000Z</time>
      </trkpt>
      <trkpt lat="43.71632" lon="7.07974">
        <ele>284.39999389648</ele>
        <time>2023-08-02T06:26:54.000Z</time>
      </trkpt>
      <trkpt lat="43.71632" lon="7.07974">
        <ele>284.39999389648</ele>
        <time>2023-08-02T06:26:55.000Z</time>
      </trkpt>
      <trkpt lat="43.71632" lon="7.07974">
        <ele>284.39999389648</ele>
        <time>2023-08-02T06:26:56.000Z</time>
      </trkpt>
      <trkpt lat="43.71632" lon="7.07974">
        <ele>284.39999389648</ele>
        <time>2023-08-02T06:26:57.000Z</time>
      </trkpt>
      <trkpt lat="43.71632" lon="7.07974">
        <ele>284.39999389648</ele>
        <time>2023-08-02T06:26:58.000Z</time>
      </trkpt>
      <trkpt lat="43.71632" lon="7.07974">
        <ele>284.39999389648</ele>
        <time>2023-08-02T06:26:59.000Z</time>
      </trkpt>
      <trkpt lat="43.71632" lon="7.07974">
        <ele>284.39999389648</ele>
        <time>2023-08-02T06:27:00.000Z</time>
      </trkpt>
      <trkpt lat="43.71632" lon="7.07974">
        <ele>284.39999389648</ele>
        <time>2023-08-02T06:27:01.000Z</time>
      </trkpt>
      <trkpt lat="43.71632" lon="7.07974">
        <ele>284.39999389648</ele>
        <time>2023-08-02T06:27:02.000Z</time>
      </trkpt>
      <trkpt lat="43.71632" lon="7.07974">
        <ele>284.39999389648</ele>
        <time>2023-08-02T06:27:03.000Z</time>
      </trkpt>
      <trkpt lat="43.71632" lon="7.07974">
        <ele>284.39999389648</ele>
        <time>2023-08-02T06:27:04.000Z</time>
      </trkpt>
      <trkpt lat="43.71632" lon="7.07974">
        <ele>284.39999389648</ele>
        <time>2023-08-02T06:27:05.000Z</time>
      </trkpt>
      <trkpt lat="43.71632" lon="7.07974">
        <ele>284.39999389648</ele>
        <time>2023-08-02T06:27:06.000Z</time>
      </trkpt>
      <trkpt lat="43.71632" lon="7.07974">
        <ele>284.39999389648</ele>
        <time>2023-08-02T06:27:07.000Z</time>
      </trkpt>
      <trkpt lat="43.71632" lon="7.07974">
        <ele>284.39999389648</ele>
        <time>2023-08-02T06:27:08.000Z</time>
      </trkpt>
      <trkpt lat="43.71632" lon="7.07974">
        <ele>284.39999389648</ele>
        <time>2023-08-02T06:27:09.000Z</time>
      </trkpt>
      <trkpt lat="43.71632" lon="7.07974">
        <ele>284.39999389648</ele>
        <time>2023-08-02T06:27:10.000Z</time>
      </trkpt>
      <trkpt lat="43.71632" lon="7.07974">
        <ele>284.39999389648</ele>
        <time>2023-08-02T06:27:11.000Z</time>
      </trkpt>
      <trkpt lat="43.71632" lon="7.07974">
        <ele>284.39999389648</ele>
        <time>2023-08-02T06:27:12.000Z</time>
      </trkpt>
      <trkpt lat="43.71632" lon="7.07974">
        <ele>284.39999389648</ele>
        <time>2023-08-02T06:27:13.000Z</time>
      </trkpt>
      <trkpt lat="43.71632" lon="7.07974">
        <ele>284.39999389648</ele>
        <time>2023-08-02T06:27:14.000Z</time>
      </trkpt>
      <trkpt lat="43.71632" lon="7.07974">
        <ele>284.39999389648</ele>
        <time>2023-08-02T06:27:15.000Z</time>
      </trkpt>
      <trkpt lat="43.71632" lon="7.07974">
        <ele>284.39999389648</ele>
        <time>2023-08-02T06:27:16.000Z</time>
      </trkpt>
      <trkpt lat="43.71632" lon="7.07974">
        <ele>284.39999389648</ele>
        <time>2023-08-02T06:27:17.000Z</time>
      </trkpt>
      <trkpt lat="43.71632" lon="7.07974">
        <ele>284.39999389648</ele>
        <time>2023-08-02T06:27:18.000Z</time>
      </trkpt>
      <trkpt lat="43.71632" lon="7.07974">
        <ele>284.39999389648</ele>
        <time>2023-08-02T06:27:19.000Z</time>
      </trkpt>
      <trkpt lat="43.71632" lon="7.07974">
        <ele>284.39999389648</ele>
        <time>2023-08-02T06:27:20.000Z</time>
      </trkpt>
      <trkpt lat="43.71631" lon="7.07974">
        <ele>284.39999389648</ele>
        <time>2023-08-02T06:27:21.000Z</time>
      </trkpt>
      <trkpt lat="43.71631" lon="7.07974">
        <ele>284.39999389648</ele>
        <time>2023-08-02T06:27:22.000Z</time>
      </trkpt>
      <trkpt lat="43.71631" lon="7.07974">
        <ele>284.39999389648</ele>
        <time>2023-08-02T06:27:23.000Z</time>
      </trkpt>
      <trkpt lat="43.71631" lon="7.07974">
        <ele>284.39999389648</ele>
        <time>2023-08-02T06:27:24.000Z</time>
      </trkpt>
      <trkpt lat="43.71631" lon="7.07974">
        <ele>284.39999389648</ele>
        <time>2023-08-02T06:27:25.000Z</time>
      </trkpt>
      <trkpt lat="43.71631" lon="7.07974">
        <ele>284.39999389648</ele>
        <time>2023-08-02T06:27:26.000Z</time>
      </trkpt>
      <trkpt lat="43.71631" lon="7.07974">
        <ele>284.39999389648</ele>
        <time>2023-08-02T06:27:27.000Z</time>
      </trkpt>
      <trkpt lat="43.71631" lon="7.07974">
        <ele>284.39999389648</ele>
        <time>2023-08-02T06:27:28.000Z</time>
      </trkpt>
      <trkpt lat="43.71631" lon="7.07974">
        <ele>284.39999389648</ele>
        <time>2023-08-02T06:27:29.000Z</time>
      </trkpt>
      <trkpt lat="43.71631" lon="7.07974">
        <ele>284.39999389648</ele>
        <time>2023-08-02T06:27:30.000Z</time>
      </trkpt>
      <trkpt lat="43.71631" lon="7.07974">
        <ele>284.39999389648</ele>
        <time>2023-08-02T06:27:31.000Z</time>
      </trkpt>
      <trkpt lat="43.71631" lon="7.07974">
        <ele>284.39999389648</ele>
        <time>2023-08-02T06:27:32.000Z</time>
      </trkpt>
      <trkpt lat="43.71631" lon="7.07974">
        <ele>284.39999389648</ele>
        <time>2023-08-02T06:27:33.000Z</time>
      </trkpt>
      <trkpt lat="43.71631" lon="7.07974">
        <ele>284.39999389648</ele>
        <time>2023-08-02T06:27:34.000Z</time>
      </trkpt>
      <trkpt lat="43.71631" lon="7.07974">
        <ele>284.39999389648</ele>
        <time>2023-08-02T06:27:35.000Z</time>
      </trkpt>
      <trkpt lat="43.71631" lon="7.07974">
        <ele>284.39999389648</ele>
        <time>2023-08-02T06:27:36.000Z</time>
      </trkpt>
      <trkpt lat="43.71631" lon="7.07974">
        <ele>284.39999389648</ele>
        <time>2023-08-02T06:27:37.000Z</time>
      </trkpt>
      <trkpt lat="43.71631" lon="7.07974">
        <ele>284.39999389648</ele>
        <time>2023-08-02T06:27:38.000Z</time>
      </trkpt>
      <trkpt lat="43.71631" lon="7.07974">
        <ele>284.39999389648</ele>
        <time>2023-08-02T06:27:39.000Z</time>
      </trkpt>
      <trkpt lat="43.71631" lon="7.07974">
        <ele>284.39999389648</ele>
        <time>2023-08-02T06:27:40.000Z</time>
      </trkpt>
      <trkpt lat="43.71631" lon="7.07974">
        <ele>284.39999389648</ele>
        <time>2023-08-02T06:27:41.000Z</time>
      </trkpt>
      <trkpt lat="43.71631" lon="7.07974">
        <ele>284.39999389648</ele>
        <time>2023-08-02T06:27:42.000Z</time>
      </trkpt>
      <trkpt lat="43.71631" lon="7.07974">
        <ele>284.39999389648</ele>
        <time>2023-08-02T06:27:43.000Z</time>
      </trkpt>
      <trkpt lat="43.71631" lon="7.07974">
        <ele>284.39999389648</ele>
        <time>2023-08-02T06:27:44.000Z</time>
      </trkpt>
      <trkpt lat="43.71631" lon="7.07974">
        <ele>284.39999389648</ele>
        <time>2023-08-02T06:27:45.000Z</time>
      </trkpt>
      <trkpt lat="43.71631" lon="7.07974">
        <ele>284.39999389648</ele>
        <time>2023-08-02T06:27:46.000Z</time>
      </trkpt>
      <trkpt lat="43.71631" lon="7.07974">
        <ele>284.39999389648</ele>
        <time>2023-08-02T06:27:47.000Z</time>
      </trkpt>
      <trkpt lat="43.71631" lon="7.07974">
        <ele>284.39999389648</ele>
        <time>2023-08-02T06:27:48.000Z</time>
      </trkpt>
      <trkpt lat="43.71631" lon="7.07974">
        <ele>284.39999389648</ele>
        <time>2023-08-02T06:27:49.000Z</time>
      </trkpt>
      <trkpt lat="43.71632" lon="7.07974">
        <ele>284.39999389648</ele>
        <time>2023-08-02T06:27:50.000Z</time>
      </trkpt>
      <trkpt lat="43.71632" lon="7.07974">
        <ele>284.39999389648</ele>
        <time>2023-08-02T06:27:51.000Z</time>
      </trkpt>
      <trkpt lat="43.71632" lon="7.07974">
        <ele>284.39999389648</ele>
        <time>2023-08-02T06:27:52.000Z</time>
      </trkpt>
      <trkpt lat="43.71632" lon="7.07974">
        <ele>284.39999389648</ele>
        <time>2023-08-02T06:27:53.000Z</time>
      </trkpt>
      <trkpt lat="43.71632" lon="7.07974">
        <ele>284.39999389648</ele>
        <time>2023-08-02T06:27:54.000Z</time>
      </trkpt>
      <trkpt lat="43.71632" lon="7.07974">
        <ele>284.39999389648</ele>
        <time>2023-08-02T06:27:55.000Z</time>
      </trkpt>
      <trkpt lat="43.71632" lon="7.07974">
        <ele>284.39999389648</ele>
        <time>2023-08-02T06:27:56.000Z</time>
      </trkpt>
      <trkpt lat="43.71632" lon="7.07974">
        <ele>284.39999389648</ele>
        <time>2023-08-02T06:27:57.000Z</time>
      </trkpt>
      <trkpt lat="43.71632" lon="7.07974">
        <ele>284.39999389648</ele>
        <time>2023-08-02T06:27:58.000Z</time>
      </trkpt>
      <trkpt lat="43.71632" lon="7.07974">
        <ele>284.39999389648</ele>
        <time>2023-08-02T06:27:59.000Z</time>
      </trkpt>
      <trkpt lat="43.71632" lon="7.07974">
        <ele>284.39999389648</ele>
        <time>2023-08-02T06:28:00.000Z</time>
      </trkpt>
      <trkpt lat="43.71632" lon="7.07974">
        <ele>284.39999389648</ele>
        <time>2023-08-02T06:28:01.000Z</time>
      </trkpt>
      <trkpt lat="43.71632" lon="7.07974">
        <ele>284.39999389648</ele>
        <time>2023-08-02T06:28:02.000Z</time>
      </trkpt>
      <trkpt lat="43.71632" lon="7.07974">
        <ele>284.39999389648</ele>
        <time>2023-08-02T06:28:03.000Z</time>
      </trkpt>
      <trkpt lat="43.71632" lon="7.07974">
        <ele>284.39999389648</ele>
        <time>2023-08-02T06:28:04.000Z</time>
      </trkpt>
      <trkpt lat="43.71632" lon="7.07974">
        <ele>284.39999389648</ele>
        <time>2023-08-02T06:28:05.000Z</time>
      </trkpt>
      <trkpt lat="43.71632" lon="7.07974">
        <ele>284.39999389648</ele>
        <time>2023-08-02T06:28:06.000Z</time>
      </trkpt>
      <trkpt lat="43.71632" lon="7.07974">
        <ele>284.39999389648</ele>
        <time>2023-08-02T06:28:07.000Z</time>
      </trkpt>
      <trkpt lat="43.71632" lon="7.07974">
        <ele>284.39999389648</ele>
        <time>2023-08-02T06:28:08.000Z</time>
      </trkpt>
      <trkpt lat="43.71631" lon="7.07974">
        <ele>284.39999389648</ele>
        <time>2023-08-02T06:28:09.000Z</time>
      </trkpt>
      <trkpt lat="43.71631" lon="7.07974">
        <ele>284.39999389648</ele>
        <time>2023-08-02T06:28:10.000Z</time>
      </trkpt>
      <trkpt lat="43.71631" lon="7.07974">
        <ele>284.39999389648</ele>
        <time>2023-08-02T06:28:11.000Z</time>
      </trkpt>
      <trkpt lat="43.71631" lon="7.07974">
        <ele>284.39999389648</ele>
        <time>2023-08-02T06:28:12.000Z</time>
      </trkpt>
      <trkpt lat="43.71631" lon="7.07974">
        <ele>284.39999389648</ele>
        <time>2023-08-02T06:28:13.000Z</time>
      </trkpt>
      <trkpt lat="43.71631" lon="7.07974">
        <ele>284.39999389648</ele>
        <time>2023-08-02T06:28:14.000Z</time>
      </trkpt>
      <trkpt lat="43.71631" lon="7.07974">
        <ele>284.39999389648</ele>
        <time>2023-08-02T06:28:15.000Z</time>
      </trkpt>
      <trkpt lat="43.71631" lon="7.07974">
        <ele>284.39999389648</ele>
        <time>2023-08-02T06:28:16.000Z</time>
      </trkpt>
      <trkpt lat="43.71631" lon="7.07974">
        <ele>284.39999389648</ele>
        <time>2023-08-02T06:28:17.000Z</time>
      </trkpt>
      <trkpt lat="43.71631" lon="7.07974">
        <ele>284.39999389648</ele>
        <time>2023-08-02T06:28:18.000Z</time>
      </trkpt>
      <trkpt lat="43.71631" lon="7.07974">
        <ele>284.39999389648</ele>
        <time>2023-08-02T06:28:19.000Z</time>
      </trkpt>
      <trkpt lat="43.7163" lon="7.07976">
        <ele>284.39999389648</ele>
        <time>2023-08-02T06:28:20.000Z</time>
      </trkpt>
      <trkpt lat="43.7163" lon="7.07976">
        <ele>284.39999389648</ele>
        <time>2023-08-02T06:28:21.000Z</time>
      </trkpt>
      <trkpt lat="43.7163" lon="7.07977">
        <ele>284.39999389648</ele>
        <time>2023-08-02T06:28:22.000Z</time>
      </trkpt>
      <trkpt lat="43.7163" lon="7.07977">
        <ele>284.39999389648</ele>
        <time>2023-08-02T06:28:23.000Z</time>
      </trkpt>
      <trkpt lat="43.7163" lon="7.07977">
        <ele>284.39999389648</ele>
        <time>2023-08-02T06:28:24.000Z</time>
      </trkpt>
      <trkpt lat="43.7163" lon="7.07977">
        <ele>284.39999389648</ele>
        <time>2023-08-02T06:28:25.000Z</time>
      </trkpt>
      <trkpt lat="43.71631" lon="7.07977">
        <ele>284.39999389648</ele>
        <time>2023-08-02T06:28:26.000Z</time>
      </trkpt>
      <trkpt lat="43.71632" lon="7.07977">
        <ele>284.39999389648</ele>
        <time>2023-08-02T06:28:27.000Z</time>
      </trkpt>
      <trkpt lat="43.71632" lon="7.07978">
        <ele>284.39999389648</ele>
        <time>2023-08-02T06:28:28.000Z</time>
      </trkpt>
      <trkpt lat="43.71633" lon="7.07978">
        <ele>284.39999389648</ele>
        <time>2023-08-02T06:28:29.000Z</time>
      </trkpt>
      <trkpt lat="43.71632" lon="7.07977">
        <ele>284.39999389648</ele>
        <time>2023-08-02T06:28:30.000Z</time>
      </trkpt>
      <trkpt lat="43.71632" lon="7.07977">
        <ele>284.39999389648</ele>
        <time>2023-08-02T06:28:31.000Z</time>
      </trkpt>
      <trkpt lat="43.71633" lon="7.07977">
        <ele>284.39999389648</ele>
        <time>2023-08-02T06:28:32.000Z</time>
      </trkpt>
      <trkpt lat="43.71634" lon="7.07978">
        <ele>284.39999389648</ele>
        <time>2023-08-02T06:28:33.000Z</time>
      </trkpt>
      <trkpt lat="43.71635" lon="7.07979">
        <ele>284.39999389648</ele>
        <time>2023-08-02T06:28:34.000Z</time>
      </trkpt>
      <trkpt lat="43.71635" lon="7.07982">
        <ele>284.39999389648</ele>
        <time>2023-08-02T06:28:35.000Z</time>
      </trkpt>
      <trkpt lat="43.71636" lon="7.07985">
        <ele>284.60000610352</ele>
        <time>2023-08-02T06:28:36.000Z</time>
      </trkpt>
      <trkpt lat="43.71636" lon="7.07987">
        <ele>284.60000610352</ele>
        <time>2023-08-02T06:28:37.000Z</time>
      </trkpt>
      <trkpt lat="43.71636" lon="7.07989">
        <ele>284.60000610352</ele>
        <time>2023-08-02T06:28:38.000Z</time>
      </trkpt>
      <trkpt lat="43.71636" lon="7.07992">
        <ele>284.79998779297</ele>
        <time>2023-08-02T06:28:39.000Z</time>
      </trkpt>
      <trkpt lat="43.71635" lon="7.07995">
        <ele>285</ele>
        <time>2023-08-02T06:28:40.000Z</time>
      </trkpt>
      <trkpt lat="43.71634" lon="7.07997">
        <ele>285.39999389648</ele>
        <time>2023-08-02T06:28:41.000Z</time>
      </trkpt>
      <trkpt lat="43.71634" lon="7.08">
        <ele>285.79998779297</ele>
        <time>2023-08-02T06:28:42.000Z</time>
      </trkpt>
      <trkpt lat="43.71634" lon="7.08003">
        <ele>286.20001220703</ele>
        <time>2023-08-02T06:28:43.000Z</time>
      </trkpt>
      <trkpt lat="43.71634" lon="7.08006">
        <ele>286.60000610352</ele>
        <time>2023-08-02T06:28:44.000Z</time>
      </trkpt>
      <trkpt lat="43.71634" lon="7.08009">
        <ele>287</ele>
        <time>2023-08-02T06:28:45.000Z</time>
      </trkpt>
      <trkpt lat="43.71635" lon="7.08013">
        <ele>287.20001220703</ele>
        <time>2023-08-02T06:28:46.000Z</time>
      </trkpt>
      <trkpt lat="43.71636" lon="7.08016">
        <ele>287.39999389648</ele>
        <time>2023-08-02T06:28:47.000Z</time>
      </trkpt>
      <trkpt lat="43.71637" lon="7.08018">
        <ele>287.79998779297</ele>
        <time>2023-08-02T06:28:48.000Z</time>
      </trkpt>
      <trkpt lat="43.71637" lon="7.08021">
        <ele>288</ele>
        <time>2023-08-02T06:28:49.000Z</time>
      </trkpt>
      <trkpt lat="43.71638" lon="7.08023">
        <ele>288.20001220703</ele>
        <time>2023-08-02T06:28:50.000Z</time>
      </trkpt>
      <trkpt lat="43.71639" lon="7.08025">
        <ele>288.39999389648</ele>
        <time>2023-08-02T06:28:51.000Z</time>
      </trkpt>
      <trkpt lat="43.71639" lon="7.08027">
        <ele>288.60000610352</ele>
        <time>2023-08-02T06:28:52.000Z</time>
      </trkpt>
      <trkpt lat="43.71639" lon="7.08029">
        <ele>288.79998779297</ele>
        <time>2023-08-02T06:28:53.000Z</time>
      </trkpt>
      <trkpt lat="43.71639" lon="7.08031">
        <ele>289.20001220703</ele>
        <time>2023-08-02T06:28:54.000Z</time>
      </trkpt>
      <trkpt lat="43.71639" lon="7.08033">
        <ele>289.20001220703</ele>
        <time>2023-08-02T06:28:55.000Z</time>
      </trkpt>
      <trkpt lat="43.71639" lon="7.08033">
        <ele>289.20001220703</ele>
        <time>2023-08-02T06:28:56.000Z</time>
      </trkpt>
      <trkpt lat="43.71639" lon="7.08034">
        <ele>289.20001220703</ele>
        <time>2023-08-02T06:28:57.000Z</time>
      </trkpt>
      <trkpt lat="43.71639" lon="7.08034">
        <ele>289.39999389648</ele>
        <time>2023-08-02T06:28:58.000Z</time>
      </trkpt>
      <trkpt lat="43.71639" lon="7.08034">
        <ele>289.39999389648</ele>
        <time>2023-08-02T06:28:59.000Z</time>
      </trkpt>
      <trkpt lat="43.71639" lon="7.08034">
        <ele>289.39999389648</ele>
        <time>2023-08-02T06:29:00.000Z</time>
      </trkpt>
      <trkpt lat="43.71639" lon="7.08034">
        <ele>289.39999389648</ele>
        <time>2023-08-02T06:29:01.000Z</time>
      </trkpt>
      <trkpt lat="43.71639" lon="7.08034">
        <ele>289.39999389648</ele>
        <time>2023-08-02T06:29:02.000Z</time>
      </trkpt>
      <trkpt lat="43.71639" lon="7.08034">
        <ele>289.39999389648</ele>
        <time>2023-08-02T06:29:03.000Z</time>
      </trkpt>
      <trkpt lat="43.71639" lon="7.08034">
        <ele>289.39999389648</ele>
        <time>2023-08-02T06:29:04.000Z</time>
      </trkpt>
      <trkpt lat="43.71639" lon="7.08034">
        <ele>289.39999389648</ele>
        <time>2023-08-02T06:29:05.000Z</time>
      </trkpt>
      <trkpt lat="43.71639" lon="7.08034">
        <ele>289.39999389648</ele>
        <time>2023-08-02T06:29:06.000Z</time>
      </trkpt>
      <trkpt lat="43.71639" lon="7.08034">
        <ele>289.60000610352</ele>
        <time>2023-08-02T06:29:07.000Z</time>
      </trkpt>
      <trkpt lat="43.71639" lon="7.08034">
        <ele>289.60000610352</ele>
        <time>2023-08-02T06:29:08.000Z</time>
      </trkpt>
      <trkpt lat="43.71639" lon="7.08034">
        <ele>289.60000610352</ele>
        <time>2023-08-02T06:29:09.000Z</time>
      </trkpt>
      <trkpt lat="43.71639" lon="7.08034">
        <ele>289.60000610352</ele>
        <time>2023-08-02T06:29:10.000Z</time>
      </trkpt>
      <trkpt lat="43.71639" lon="7.08033">
        <ele>289.60000610352</ele>
        <time>2023-08-02T06:29:11.000Z</time>
      </trkpt>
      <trkpt lat="43.71639" lon="7.08033">
        <ele>289.60000610352</ele>
        <time>2023-08-02T06:29:12.000Z</time>
      </trkpt>
      <trkpt lat="43.71639" lon="7.08033">
        <ele>289.60000610352</ele>
        <time>2023-08-02T06:29:13.000Z</time>
      </trkpt>
      <trkpt lat="43.71639" lon="7.08033">
        <ele>289.60000610352</ele>
        <time>2023-08-02T06:29:14.000Z</time>
      </trkpt>
      <trkpt lat="43.71639" lon="7.08033">
        <ele>289.60000610352</ele>
        <time>2023-08-02T06:29:15.000Z</time>
      </trkpt>
      <trkpt lat="43.71639" lon="7.08033">
        <ele>289.60000610352</ele>
        <time>2023-08-02T06:29:16.000Z</time>
      </trkpt>
      <trkpt lat="43.71639" lon="7.08033">
        <ele>289.79998779297</ele>
        <time>2023-08-02T06:29:17.000Z</time>
      </trkpt>
      <trkpt lat="43.71639" lon="7.08033">
        <ele>289.79998779297</ele>
        <time>2023-08-02T06:29:18.000Z</time>
      </trkpt>
      <trkpt lat="43.71639" lon="7.08033">
        <ele>289.79998779297</ele>
        <time>2023-08-02T06:29:19.000Z</time>
      </trkpt>
      <trkpt lat="43.71639" lon="7.08033">
        <ele>289.79998779297</ele>
        <time>2023-08-02T06:29:20.000Z</time>
      </trkpt>
      <trkpt lat="43.71639" lon="7.08033">
        <ele>289.79998779297</ele>
        <time>2023-08-02T06:29:21.000Z</time>
      </trkpt>
      <trkpt lat="43.71639" lon="7.08033">
        <ele>289.79998779297</ele>
        <time>2023-08-02T06:29:22.000Z</time>
      </trkpt>
      <trkpt lat="43.71639" lon="7.08033">
        <ele>290</ele>
        <time>2023-08-02T06:29:23.000Z</time>
      </trkpt>
      <trkpt lat="43.71639" lon="7.08033">
        <ele>290</ele>
        <time>2023-08-02T06:29:24.000Z</time>
      </trkpt>
      <trkpt lat="43.7164" lon="7.08032">
        <ele>290</ele>
        <time>2023-08-02T06:29:25.000Z</time>
      </trkpt>
      <trkpt lat="43.7164" lon="7.08032">
        <ele>290</ele>
        <time>2023-08-02T06:29:26.000Z</time>
      </trkpt>
      <trkpt lat="43.7164" lon="7.08032">
        <ele>290.20001220703</ele>
        <time>2023-08-02T06:29:27.000Z</time>
      </trkpt>
      <trkpt lat="43.7164" lon="7.08032">
        <ele>290.20001220703</ele>
        <time>2023-08-02T06:29:28.000Z</time>
      </trkpt>
      <trkpt lat="43.7164" lon="7.08033">
        <ele>290.20001220703</ele>
        <time>2023-08-02T06:29:29.000Z</time>
      </trkpt>
      <trkpt lat="43.7164" lon="7.08035">
        <ele>290.20001220703</ele>
        <time>2023-08-02T06:29:30.000Z</time>
      </trkpt>
      <trkpt lat="43.7164" lon="7.08036">
        <ele>290.20001220703</ele>
        <time>2023-08-02T06:29:31.000Z</time>
      </trkpt>
      <trkpt lat="43.71641" lon="7.08037">
        <ele>290.20001220703</ele>
        <time>2023-08-02T06:29:32.000Z</time>
      </trkpt>
      <trkpt lat="43.71642" lon="7.08039">
        <ele>290.20001220703</ele>
        <time>2023-08-02T06:29:33.000Z</time>
      </trkpt>
      <trkpt lat="43.71643" lon="7.0804">
        <ele>290.20001220703</ele>
        <time>2023-08-02T06:29:34.000Z</time>
      </trkpt>
      <trkpt lat="43.71644" lon="7.08042">
        <ele>290.20001220703</ele>
        <time>2023-08-02T06:29:35.000Z</time>
      </trkpt>
      <trkpt lat="43.71646" lon="7.08044">
        <ele>290.20001220703</ele>
        <time>2023-08-02T06:29:36.000Z</time>
      </trkpt>
      <trkpt lat="43.71647" lon="7.08047">
        <ele>290.20001220703</ele>
        <time>2023-08-02T06:29:37.000Z</time>
      </trkpt>
      <trkpt lat="43.71649" lon="7.0805">
        <ele>290.20001220703</ele>
        <time>2023-08-02T06:29:38.000Z</time>
      </trkpt>
      <trkpt lat="43.7165" lon="7.08052">
        <ele>290.20001220703</ele>
        <time>2023-08-02T06:29:39.000Z</time>
      </trkpt>
      <trkpt lat="43.71651" lon="7.08055">
        <ele>290.20001220703</ele>
        <time>2023-08-02T06:29:40.000Z</time>
      </trkpt>
      <trkpt lat="43.71652" lon="7.08057">
        <ele>290.20001220703</ele>
        <time>2023-08-02T06:29:41.000Z</time>
      </trkpt>
      <trkpt lat="43.71654" lon="7.0806">
        <ele>290.39999389648</ele>
        <time>2023-08-02T06:29:42.000Z</time>
      </trkpt>
      <trkpt lat="43.71655" lon="7.08062">
        <ele>290.39999389648</ele>
        <time>2023-08-02T06:29:43.000Z</time>
      </trkpt>
      <trkpt lat="43.71656" lon="7.08065">
        <ele>290.39999389648</ele>
        <time>2023-08-02T06:29:44.000Z</time>
      </trkpt>
      <trkpt lat="43.71657" lon="7.08067">
        <ele>290.60000610352</ele>
        <time>2023-08-02T06:29:45.000Z</time>
      </trkpt>
      <trkpt lat="43.71658" lon="7.0807">
        <ele>290.79998779297</ele>
        <time>2023-08-02T06:29:46.000Z</time>
      </trkpt>
      <trkpt lat="43.71659" lon="7.08073">
        <ele>290.79998779297</ele>
        <time>2023-08-02T06:29:47.000Z</time>
      </trkpt>
      <trkpt lat="43.7166" lon="7.08075">
        <ele>291</ele>
        <time>2023-08-02T06:29:48.000Z</time>
      </trkpt>
      <trkpt lat="43.71661" lon="7.08078">
        <ele>291.20001220703</ele>
        <time>2023-08-02T06:29:49.000Z</time>
      </trkpt>
      <trkpt lat="43.71662" lon="7.0808">
        <ele>291.20001220703</ele>
        <time>2023-08-02T06:29:50.000Z</time>
      </trkpt>
      <trkpt lat="43.71664" lon="7.08083">
        <ele>291.20001220703</ele>
        <time>2023-08-02T06:29:51.000Z</time>
      </trkpt>
      <trkpt lat="43.71665" lon="7.08085">
        <ele>291.39999389648</ele>
        <time>2023-08-02T06:29:52.000Z</time>
      </trkpt>
      <trkpt lat="43.71666" lon="7.08088">
        <ele>291.39999389648</ele>
        <time>2023-08-02T06:29:53.000Z</time>
      </trkpt>
      <trkpt lat="43.71666" lon="7.0809">
        <ele>291.39999389648</ele>
        <time>2023-08-02T06:29:54.000Z</time>
      </trkpt>
      <trkpt lat="43.71667" lon="7.08092">
        <ele>291.39999389648</ele>
        <time>2023-08-02T06:29:55.000Z</time>
      </trkpt>
      <trkpt lat="43.71668" lon="7.08094">
        <ele>293</ele>
        <time>2023-08-02T06:29:56.000Z</time>
      </trkpt>
      <trkpt lat="43.71669" lon="7.08096">
        <ele>293.20001220703</ele>
        <time>2023-08-02T06:29:57.000Z</time>
      </trkpt>
      <trkpt lat="43.7167" lon="7.08098">
        <ele>293.39999389648</ele>
        <time>2023-08-02T06:29:58.000Z</time>
      </trkpt>
      <trkpt lat="43.71671" lon="7.08101">
        <ele>293.39999389648</ele>
        <time>2023-08-02T06:29:59.000Z</time>
      </trkpt>
      <trkpt lat="43.71672" lon="7.08102">
        <ele>293.39999389648</ele>
        <time>2023-08-02T06:30:00.000Z</time>
      </trkpt>
      <trkpt lat="43.71673" lon="7.08105">
        <ele>294</ele>
        <time>2023-08-02T06:30:01.000Z</time>
      </trkpt>
      <trkpt lat="43.71673" lon="7.08107">
        <ele>294.20001220703</ele>
        <time>2023-08-02T06:30:02.000Z</time>
      </trkpt>
      <trkpt lat="43.71674" lon="7.08109">
        <ele>294.39999389648</ele>
        <time>2023-08-02T06:30:03.000Z</time>
      </trkpt>
      <trkpt lat="43.71675" lon="7.08111">
        <ele>294.39999389648</ele>
        <time>2023-08-02T06:30:04.000Z</time>
      </trkpt>
      <trkpt lat="43.71674" lon="7.08114">
        <ele>294.60000610352</ele>
        <time>2023-08-02T06:30:05.000Z</time>
      </trkpt>
      <trkpt lat="43.71673" lon="7.08116">
        <ele>294.60000610352</ele>
        <time>2023-08-02T06:30:06.000Z</time>
      </trkpt>
      <trkpt lat="43.71672" lon="7.08119">
        <ele>295</ele>
        <time>2023-08-02T06:30:07.000Z</time>
      </trkpt>
      <trkpt lat="43.71671" lon="7.08121">
        <ele>295.20001220703</ele>
        <time>2023-08-02T06:30:08.000Z</time>
      </trkpt>
      <trkpt lat="43.71671" lon="7.08123">
        <ele>295.60000610352</ele>
        <time>2023-08-02T06:30:09.000Z</time>
      </trkpt>
      <trkpt lat="43.7167" lon="7.08126">
        <ele>295.79998779297</ele>
        <time>2023-08-02T06:30:10.000Z</time>
      </trkpt>
      <trkpt lat="43.7167" lon="7.08128">
        <ele>295.79998779297</ele>
        <time>2023-08-02T06:30:11.000Z</time>
      </trkpt>
      <trkpt lat="43.71671" lon="7.0813">
        <ele>296</ele>
        <time>2023-08-02T06:30:12.000Z</time>
      </trkpt>
      <trkpt lat="43.71672" lon="7.08132">
        <ele>296.20001220703</ele>
        <time>2023-08-02T06:30:13.000Z</time>
      </trkpt>
      <trkpt lat="43.71673" lon="7.08133">
        <ele>296.39999389648</ele>
        <time>2023-08-02T06:30:14.000Z</time>
      </trkpt>
      <trkpt lat="43.71674" lon="7.08134">
        <ele>296.39999389648</ele>
        <time>2023-08-02T06:30:15.000Z</time>
      </trkpt>
      <trkpt lat="43.71675" lon="7.08136">
        <ele>296.60000610352</ele>
        <time>2023-08-02T06:30:16.000Z</time>
      </trkpt>
      <trkpt lat="43.71676" lon="7.08138">
        <ele>296.79998779297</ele>
        <time>2023-08-02T06:30:17.000Z</time>
      </trkpt>
      <trkpt lat="43.71677" lon="7.08139">
        <ele>297.20001220703</ele>
        <time>2023-08-02T06:30:18.000Z</time>
      </trkpt>
      <trkpt lat="43.71678" lon="7.0814">
        <ele>297.39999389648</ele>
        <time>2023-08-02T06:30:19.000Z</time>
      </trkpt>
      <trkpt lat="43.71679" lon="7.08142">
        <ele>297.60000610352</ele>
        <time>2023-08-02T06:30:20.000Z</time>
      </trkpt>
      <trkpt lat="43.71681" lon="7.08143">
        <ele>298</ele>
        <time>2023-08-02T06:30:21.000Z</time>
      </trkpt>
      <trkpt lat="43.71682" lon="7.08146">
        <ele>298.39999389648</ele>
        <time>2023-08-02T06:30:22.000Z</time>
      </trkpt>
      <trkpt lat="43.71683" lon="7.08148">
        <ele>298.79998779297</ele>
        <time>2023-08-02T06:30:23.000Z</time>
      </trkpt>
      <trkpt lat="43.71684" lon="7.0815">
        <ele>299.20001220703</ele>
        <time>2023-08-02T06:30:24.000Z</time>
      </trkpt>
      <trkpt lat="43.71685" lon="7.08152">
        <ele>299.60000610352</ele>
        <time>2023-08-02T06:30:25.000Z</time>
      </trkpt>
      <trkpt lat="43.71686" lon="7.08154">
        <ele>300</ele>
        <time>2023-08-02T06:30:26.000Z</time>
      </trkpt>
      <trkpt lat="43.71687" lon="7.08156">
        <ele>300.39999389648</ele>
        <time>2023-08-02T06:30:27.000Z</time>
      </trkpt>
      <trkpt lat="43.71689" lon="7.08158">
        <ele>300.39999389648</ele>
        <time>2023-08-02T06:30:28.000Z</time>
      </trkpt>
      <trkpt lat="43.7169" lon="7.08159">
        <ele>300.79998779297</ele>
        <time>2023-08-02T06:30:29.000Z</time>
      </trkpt>
      <trkpt lat="43.71692" lon="7.0816">
        <ele>301.20001220703</ele>
        <time>2023-08-02T06:30:30.000Z</time>
      </trkpt>
      <trkpt lat="43.71693" lon="7.08162">
        <ele>301.60000610352</ele>
        <time>2023-08-02T06:30:31.000Z</time>
      </trkpt>
      <trkpt lat="43.71694" lon="7.08163">
        <ele>302.20001220703</ele>
        <time>2023-08-02T06:30:32.000Z</time>
      </trkpt>
      <trkpt lat="43.71695" lon="7.08165">
        <ele>302.60000610352</ele>
        <time>2023-08-02T06:30:33.000Z</time>
      </trkpt>
      <trkpt lat="43.71696" lon="7.08166">
        <ele>303.20001220703</ele>
        <time>2023-08-02T06:30:34.000Z</time>
      </trkpt>
      <trkpt lat="43.71697" lon="7.08167">
        <ele>303.79998779297</ele>
        <time>2023-08-02T06:30:35.000Z</time>
      </trkpt>
      <trkpt lat="43.71698" lon="7.08169">
        <ele>303.79998779297</ele>
        <time>2023-08-02T06:30:36.000Z</time>
      </trkpt>
      <trkpt lat="43.71699" lon="7.08169">
        <ele>303.79998779297</ele>
        <time>2023-08-02T06:30:37.000Z</time>
      </trkpt>
      <trkpt lat="43.71701" lon="7.08169">
        <ele>304</ele>
        <time>2023-08-02T06:30:38.000Z</time>
      </trkpt>
      <trkpt lat="43.71702" lon="7.08169">
        <ele>304.20001220703</ele>
        <time>2023-08-02T06:30:39.000Z</time>
      </trkpt>
      <trkpt lat="43.71703" lon="7.0817">
        <ele>304.20001220703</ele>
        <time>2023-08-02T06:30:40.000Z</time>
      </trkpt>
      <trkpt lat="43.71704" lon="7.08171">
        <ele>304.60000610352</ele>
        <time>2023-08-02T06:30:41.000Z</time>
      </trkpt>
      <trkpt lat="43.71706" lon="7.08173">
        <ele>305.20001220703</ele>
        <time>2023-08-02T06:30:42.000Z</time>
      </trkpt>
      <trkpt lat="43.71707" lon="7.08175">
        <ele>305.39999389648</ele>
        <time>2023-08-02T06:30:43.000Z</time>
      </trkpt>
      <trkpt lat="43.71708" lon="7.08177">
        <ele>305.79998779297</ele>
        <time>2023-08-02T06:30:44.000Z</time>
      </trkpt>
      <trkpt lat="43.71709" lon="7.0818">
        <ele>306.20001220703</ele>
        <time>2023-08-02T06:30:45.000Z</time>
      </trkpt>
      <trkpt lat="43.71711" lon="7.08182">
        <ele>306.60000610352</ele>
        <time>2023-08-02T06:30:46.000Z</time>
      </trkpt>
      <trkpt lat="43.71711" lon="7.08185">
        <ele>307</ele>
        <time>2023-08-02T06:30:47.000Z</time>
      </trkpt>
      <trkpt lat="43.71712" lon="7.08187">
        <ele>307.39999389648</ele>
        <time>2023-08-02T06:30:48.000Z</time>
      </trkpt>
      <trkpt lat="43.71713" lon="7.08189">
        <ele>307.60000610352</ele>
        <time>2023-08-02T06:30:49.000Z</time>
      </trkpt>
      <trkpt lat="43.71715" lon="7.0819">
        <ele>308</ele>
        <time>2023-08-02T06:30:50.000Z</time>
      </trkpt>
      <trkpt lat="43.71716" lon="7.08193">
        <ele>308</ele>
        <time>2023-08-02T06:30:51.000Z</time>
      </trkpt>
      <trkpt lat="43.71718" lon="7.08195">
        <ele>308.20001220703</ele>
        <time>2023-08-02T06:30:52.000Z</time>
      </trkpt>
      <trkpt lat="43.71719" lon="7.08197">
        <ele>308.79998779297</ele>
        <time>2023-08-02T06:30:53.000Z</time>
      </trkpt>
      <trkpt lat="43.71719" lon="7.082">
        <ele>309.20001220703</ele>
        <time>2023-08-02T06:30:54.000Z</time>
      </trkpt>
      <trkpt lat="43.71721" lon="7.08202">
        <ele>309.60000610352</ele>
        <time>2023-08-02T06:30:55.000Z</time>
      </trkpt>
      <trkpt lat="43.71722" lon="7.08203">
        <ele>309.79998779297</ele>
        <time>2023-08-02T06:30:56.000Z</time>
      </trkpt>
      <trkpt lat="43.71723" lon="7.08205">
        <ele>310.20001220703</ele>
        <time>2023-08-02T06:30:57.000Z</time>
      </trkpt>
      <trkpt lat="43.71723" lon="7.08207">
        <ele>310.60000610352</ele>
        <time>2023-08-02T06:30:58.000Z</time>
      </trkpt>
      <trkpt lat="43.71724" lon="7.0821">
        <ele>310.79998779297</ele>
        <time>2023-08-02T06:30:59.000Z</time>
      </trkpt>
      <trkpt lat="43.71725" lon="7.08213">
        <ele>311.20001220703</ele>
        <time>2023-08-02T06:31:00.000Z</time>
      </trkpt>
      <trkpt lat="43.71726" lon="7.08215">
        <ele>311.60000610352</ele>
        <time>2023-08-02T06:31:01.000Z</time>
      </trkpt>
      <trkpt lat="43.71727" lon="7.08217">
        <ele>311.79998779297</ele>
        <time>2023-08-02T06:31:02.000Z</time>
      </trkpt>
      <trkpt lat="43.71729" lon="7.08219">
        <ele>312.20001220703</ele>
        <time>2023-08-02T06:31:03.000Z</time>
      </trkpt>
      <trkpt lat="43.7173" lon="7.08221">
        <ele>312.39999389648</ele>
        <time>2023-08-02T06:31:04.000Z</time>
      </trkpt>
      <trkpt lat="43.71731" lon="7.08223">
        <ele>312.79998779297</ele>
        <time>2023-08-02T06:31:05.000Z</time>
      </trkpt>
      <trkpt lat="43.71732" lon="7.08226">
        <ele>313.20001220703</ele>
        <time>2023-08-02T06:31:06.000Z</time>
      </trkpt>
      <trkpt lat="43.71734" lon="7.08229">
        <ele>313.39999389648</ele>
        <time>2023-08-02T06:31:07.000Z</time>
      </trkpt>
      <trkpt lat="43.71735" lon="7.08232">
        <ele>313.79998779297</ele>
        <time>2023-08-02T06:31:08.000Z</time>
      </trkpt>
      <trkpt lat="43.71736" lon="7.08236">
        <ele>314</ele>
        <time>2023-08-02T06:31:09.000Z</time>
      </trkpt>
      <trkpt lat="43.71738" lon="7.08239">
        <ele>314.39999389648</ele>
        <time>2023-08-02T06:31:10.000Z</time>
      </trkpt>
      <trkpt lat="43.71739" lon="7.08242">
        <ele>315</ele>
        <time>2023-08-02T06:31:11.000Z</time>
      </trkpt>
      <trkpt lat="43.7174" lon="7.08246">
        <ele>315.20001220703</ele>
        <time>2023-08-02T06:31:12.000Z</time>
      </trkpt>
      <trkpt lat="43.71741" lon="7.08248">
        <ele>315.60000610352</ele>
        <time>2023-08-02T06:31:13.000Z</time>
      </trkpt>
      <trkpt lat="43.71743" lon="7.08252">
        <ele>315.60000610352</ele>
        <time>2023-08-02T06:31:14.000Z</time>
      </trkpt>
      <trkpt lat="43.71744" lon="7.08255">
        <ele>315.79998779297</ele>
        <time>2023-08-02T06:31:15.000Z</time>
      </trkpt>
      <trkpt lat="43.71746" lon="7.08259">
        <ele>316.39999389648</ele>
        <time>2023-08-02T06:31:16.000Z</time>
      </trkpt>
      <trkpt lat="43.71747" lon="7.08263">
        <ele>316.79998779297</ele>
        <time>2023-08-02T06:31:17.000Z</time>
      </trkpt>
      <trkpt lat="43.71749" lon="7.08266">
        <ele>317.39999389648</ele>
        <time>2023-08-02T06:31:18.000Z</time>
      </trkpt>
      <trkpt lat="43.7175" lon="7.0827">
        <ele>318</ele>
        <time>2023-08-02T06:31:19.000Z</time>
      </trkpt>
      <trkpt lat="43.7175" lon="7.08274">
        <ele>318.39999389648</ele>
        <time>2023-08-02T06:31:20.000Z</time>
      </trkpt>
      <trkpt lat="43.7175" lon="7.08278">
        <ele>318.79998779297</ele>
        <time>2023-08-02T06:31:21.000Z</time>
      </trkpt>
      <trkpt lat="43.71749" lon="7.08282">
        <ele>319.39999389648</ele>
        <time>2023-08-02T06:31:22.000Z</time>
      </trkpt>
      <trkpt lat="43.71748" lon="7.08286">
        <ele>319.79998779297</ele>
        <time>2023-08-02T06:31:23.000Z</time>
      </trkpt>
      <trkpt lat="43.71746" lon="7.08289">
        <ele>320</ele>
        <time>2023-08-02T06:31:24.000Z</time>
      </trkpt>
      <trkpt lat="43.71744" lon="7.08292">
        <ele>320.39999389648</ele>
        <time>2023-08-02T06:31:25.000Z</time>
      </trkpt>
      <trkpt lat="43.71742" lon="7.08296">
        <ele>320.60000610352</ele>
        <time>2023-08-02T06:31:26.000Z</time>
      </trkpt>
      <trkpt lat="43.7174" lon="7.083">
        <ele>320.79998779297</ele>
        <time>2023-08-02T06:31:27.000Z</time>
      </trkpt>
      <trkpt lat="43.71738" lon="7.08304">
        <ele>321</ele>
        <time>2023-08-02T06:31:28.000Z</time>
      </trkpt>
      <trkpt lat="43.71736" lon="7.08307">
        <ele>321.20001220703</ele>
        <time>2023-08-02T06:31:29.000Z</time>
      </trkpt>
      <trkpt lat="43.71735" lon="7.08311">
        <ele>321.39999389648</ele>
        <time>2023-08-02T06:31:30.000Z</time>
      </trkpt>
      <trkpt lat="43.71733" lon="7.08315">
        <ele>321.39999389648</ele>
        <time>2023-08-02T06:31:31.000Z</time>
      </trkpt>
      <trkpt lat="43.71732" lon="7.08318">
        <ele>321.60000610352</ele>
        <time>2023-08-02T06:31:32.000Z</time>
      </trkpt>
      <trkpt lat="43.71731" lon="7.08322">
        <ele>321.79998779297</ele>
        <time>2023-08-02T06:31:33.000Z</time>
      </trkpt>
      <trkpt lat="43.7173" lon="7.08326">
        <ele>322.60000610352</ele>
        <time>2023-08-02T06:31:34.000Z</time>
      </trkpt>
      <trkpt lat="43.7173" lon="7.08331">
        <ele>322.79998779297</ele>
        <time>2023-08-02T06:31:35.000Z</time>
      </trkpt>
      <trkpt lat="43.71729" lon="7.08335">
        <ele>322.79998779297</ele>
        <time>2023-08-02T06:31:36.000Z</time>
      </trkpt>
      <trkpt lat="43.71728" lon="7.08339">
        <ele>322.79998779297</ele>
        <time>2023-08-02T06:31:37.000Z</time>
      </trkpt>
      <trkpt lat="43.71726" lon="7.08342">
        <ele>323</ele>
        <time>2023-08-02T06:31:38.000Z</time>
      </trkpt>
      <trkpt lat="43.71723" lon="7.08345">
        <ele>323.20001220703</ele>
        <time>2023-08-02T06:31:39.000Z</time>
      </trkpt>
      <trkpt lat="43.71721" lon="7.08349">
        <ele>323.20001220703</ele>
        <time>2023-08-02T06:31:40.000Z</time>
      </trkpt>
      <trkpt lat="43.71719" lon="7.08353">
        <ele>323.39999389648</ele>
        <time>2023-08-02T06:31:41.000Z</time>
      </trkpt>
      <trkpt lat="43.71717" lon="7.08357">
        <ele>323.60000610352</ele>
        <time>2023-08-02T06:31:42.000Z</time>
      </trkpt>
      <trkpt lat="43.71714" lon="7.08361">
        <ele>323.60000610352</ele>
        <time>2023-08-02T06:31:43.000Z</time>
      </trkpt>
      <trkpt lat="43.71712" lon="7.08365">
        <ele>323.60000610352</ele>
        <time>2023-08-02T06:31:44.000Z</time>
      </trkpt>
      <trkpt lat="43.71709" lon="7.08369">
        <ele>323.60000610352</ele>
        <time>2023-08-02T06:31:45.000Z</time>
      </trkpt>
      <trkpt lat="43.71707" lon="7.08374">
        <ele>323.60000610352</ele>
        <time>2023-08-02T06:31:46.000Z</time>
      </trkpt>
      <trkpt lat="43.71705" lon="7.08378">
        <ele>323.60000610352</ele>
        <time>2023-08-02T06:31:47.000Z</time>
      </trkpt>
      <trkpt lat="43.71702" lon="7.08383">
        <ele>323.39999389648</ele>
        <time>2023-08-02T06:31:48.000Z</time>
      </trkpt>
      <trkpt lat="43.717" lon="7.08387">
        <ele>323.39999389648</ele>
        <time>2023-08-02T06:31:49.000Z</time>
      </trkpt>
      <trkpt lat="43.71698" lon="7.08391">
        <ele>323.39999389648</ele>
        <time>2023-08-02T06:31:50.000Z</time>
      </trkpt>
      <trkpt lat="43.71695" lon="7.08395">
        <ele>323.39999389648</ele>
        <time>2023-08-02T06:31:51.000Z</time>
      </trkpt>
      <trkpt lat="43.71693" lon="7.08399">
        <ele>323.39999389648</ele>
        <time>2023-08-02T06:31:52.000Z</time>
      </trkpt>
      <trkpt lat="43.7169" lon="7.08404">
        <ele>323.20001220703</ele>
        <time>2023-08-02T06:31:53.000Z</time>
      </trkpt>
      <trkpt lat="43.71689" lon="7.0841">
        <ele>323.20001220703</ele>
        <time>2023-08-02T06:31:54.000Z</time>
      </trkpt>
      <trkpt lat="43.71689" lon="7.08415">
        <ele>323</ele>
        <time>2023-08-02T06:31:55.000Z</time>
      </trkpt>
      <trkpt lat="43.71688" lon="7.08421">
        <ele>323</ele>
        <time>2023-08-02T06:31:56.000Z</time>
      </trkpt>
      <trkpt lat="43.71689" lon="7.08426">
        <ele>323</ele>
        <time>2023-08-02T06:31:57.000Z</time>
      </trkpt>
      <trkpt lat="43.7169" lon="7.08432">
        <ele>323</ele>
        <time>2023-08-02T06:31:58.000Z</time>
      </trkpt>
      <trkpt lat="43.71691" lon="7.08438">
        <ele>323</ele>
        <time>2023-08-02T06:31:59.000Z</time>
      </trkpt>
      <trkpt lat="43.71691" lon="7.08443">
        <ele>323</ele>
        <time>2023-08-02T06:32:00.000Z</time>
      </trkpt>
      <trkpt lat="43.71692" lon="7.08449">
        <ele>323</ele>
        <time>2023-08-02T06:32:01.000Z</time>
      </trkpt>
      <trkpt lat="43.71693" lon="7.08454">
        <ele>323</ele>
        <time>2023-08-02T06:32:02.000Z</time>
      </trkpt>
      <trkpt lat="43.71695" lon="7.0846">
        <ele>323</ele>
        <time>2023-08-02T06:32:03.000Z</time>
      </trkpt>
      <trkpt lat="43.71696" lon="7.08464">
        <ele>323</ele>
        <time>2023-08-02T06:32:04.000Z</time>
      </trkpt>
      <trkpt lat="43.71697" lon="7.08469">
        <ele>323</ele>
        <time>2023-08-02T06:32:05.000Z</time>
      </trkpt>
      <trkpt lat="43.71698" lon="7.08473">
        <ele>323</ele>
        <time>2023-08-02T06:32:06.000Z</time>
      </trkpt>
      <trkpt lat="43.71699" lon="7.08476">
        <ele>323</ele>
        <time>2023-08-02T06:32:07.000Z</time>
      </trkpt>
      <trkpt lat="43.71701" lon="7.08478">
        <ele>323.20001220703</ele>
        <time>2023-08-02T06:32:08.000Z</time>
      </trkpt>
      <trkpt lat="43.71702" lon="7.08479">
        <ele>323.20001220703</ele>
        <time>2023-08-02T06:32:09.000Z</time>
      </trkpt>
      <trkpt lat="43.71705" lon="7.08478">
        <ele>323.20001220703</ele>
        <time>2023-08-02T06:32:10.000Z</time>
      </trkpt>
      <trkpt lat="43.71708" lon="7.08479">
        <ele>323.39999389648</ele>
        <time>2023-08-02T06:32:11.000Z</time>
      </trkpt>
      <trkpt lat="43.71711" lon="7.0848">
        <ele>323.39999389648</ele>
        <time>2023-08-02T06:32:12.000Z</time>
      </trkpt>
      <trkpt lat="43.71716" lon="7.0848">
        <ele>323.39999389648</ele>
        <time>2023-08-02T06:32:13.000Z</time>
      </trkpt>
      <trkpt lat="43.7172" lon="7.08479">
        <ele>323.39999389648</ele>
        <time>2023-08-02T06:32:14.000Z</time>
      </trkpt>
      <trkpt lat="43.71725" lon="7.08477">
        <ele>323.39999389648</ele>
        <time>2023-08-02T06:32:15.000Z</time>
      </trkpt>
      <trkpt lat="43.71728" lon="7.08476">
        <ele>323.39999389648</ele>
        <time>2023-08-02T06:32:16.000Z</time>
      </trkpt>
      <trkpt lat="43.71732" lon="7.08475">
        <ele>323.39999389648</ele>
        <time>2023-08-02T06:32:17.000Z</time>
      </trkpt>
      <trkpt lat="43.71736" lon="7.08474">
        <ele>323.60000610352</ele>
        <time>2023-08-02T06:32:18.000Z</time>
      </trkpt>
      <trkpt lat="43.7174" lon="7.08472">
        <ele>323.60000610352</ele>
        <time>2023-08-02T06:32:19.000Z</time>
      </trkpt>
      <trkpt lat="43.71744" lon="7.08469">
        <ele>323.60000610352</ele>
        <time>2023-08-02T06:32:20.000Z</time>
      </trkpt>
      <trkpt lat="43.71748" lon="7.08468">
        <ele>323.60000610352</ele>
        <time>2023-08-02T06:32:21.000Z</time>
      </trkpt>
      <trkpt lat="43.71751" lon="7.08466">
        <ele>323.60000610352</ele>
        <time>2023-08-02T06:32:22.000Z</time>
      </trkpt>
      <trkpt lat="43.71755" lon="7.08464">
        <ele>323.60000610352</ele>
        <time>2023-08-02T06:32:23.000Z</time>
      </trkpt>
      <trkpt lat="43.7176" lon="7.08462">
        <ele>323.79998779297</ele>
        <time>2023-08-02T06:32:24.000Z</time>
      </trkpt>
      <trkpt lat="43.71764" lon="7.0846">
        <ele>323.79998779297</ele>
        <time>2023-08-02T06:32:25.000Z</time>
      </trkpt>
      <trkpt lat="43.71768" lon="7.08458">
        <ele>323.79998779297</ele>
        <time>2023-08-02T06:32:26.000Z</time>
      </trkpt>
      <trkpt lat="43.71773" lon="7.08457">
        <ele>323.79998779297</ele>
        <time>2023-08-02T06:32:27.000Z</time>
      </trkpt>
      <trkpt lat="43.71778" lon="7.08454">
        <ele>323.79998779297</ele>
        <time>2023-08-02T06:32:28.000Z</time>
      </trkpt>
      <trkpt lat="43.71782" lon="7.08452">
        <ele>323.79998779297</ele>
        <time>2023-08-02T06:32:29.000Z</time>
      </trkpt>
      <trkpt lat="43.71787" lon="7.0845">
        <ele>323.79998779297</ele>
        <time>2023-08-02T06:32:30.000Z</time>
      </trkpt>
      <trkpt lat="43.71791" lon="7.08448">
        <ele>323.79998779297</ele>
        <time>2023-08-02T06:32:31.000Z</time>
      </trkpt>
      <trkpt lat="43.71795" lon="7.08446">
        <ele>323.79998779297</ele>
        <time>2023-08-02T06:32:32.000Z</time>
      </trkpt>
      <trkpt lat="43.71799" lon="7.08444">
        <ele>323.79998779297</ele>
        <time>2023-08-02T06:32:33.000Z</time>
      </trkpt>
      <trkpt lat="43.71803" lon="7.08442">
        <ele>323.79998779297</ele>
        <time>2023-08-02T06:32:34.000Z</time>
      </trkpt>
      <trkpt lat="43.71808" lon="7.0844">
        <ele>323.79998779297</ele>
        <time>2023-08-02T06:32:35.000Z</time>
      </trkpt>
      <trkpt lat="43.71813" lon="7.08438">
        <ele>323.79998779297</ele>
        <time>2023-08-02T06:32:36.000Z</time>
      </trkpt>
      <trkpt lat="43.71818" lon="7.08436">
        <ele>323.79998779297</ele>
        <time>2023-08-02T06:32:37.000Z</time>
      </trkpt>
      <trkpt lat="43.71822" lon="7.08434">
        <ele>323.79998779297</ele>
        <time>2023-08-02T06:32:38.000Z</time>
      </trkpt>
      <trkpt lat="43.71826" lon="7.08432">
        <ele>323.79998779297</ele>
        <time>2023-08-02T06:32:39.000Z</time>
      </trkpt>
      <trkpt lat="43.71831" lon="7.0843">
        <ele>323.79998779297</ele>
        <time>2023-08-02T06:32:40.000Z</time>
      </trkpt>
      <trkpt lat="43.71836" lon="7.08429">
        <ele>323.79998779297</ele>
        <time>2023-08-02T06:32:41.000Z</time>
      </trkpt>
      <trkpt lat="43.71841" lon="7.08429">
        <ele>323.79998779297</ele>
        <time>2023-08-02T06:32:42.000Z</time>
      </trkpt>
      <trkpt lat="43.71846" lon="7.08428">
        <ele>323.79998779297</ele>
        <time>2023-08-02T06:32:43.000Z</time>
      </trkpt>
      <trkpt lat="43.7185" lon="7.08428">
        <ele>323.79998779297</ele>
        <time>2023-08-02T06:32:44.000Z</time>
      </trkpt>
      <trkpt lat="43.71855" lon="7.08428">
        <ele>323.79998779297</ele>
        <time>2023-08-02T06:32:45.000Z</time>
      </trkpt>
      <trkpt lat="43.71859" lon="7.08429">
        <ele>323.79998779297</ele>
        <time>2023-08-02T06:32:46.000Z</time>
      </trkpt>
      <trkpt lat="43.71863" lon="7.0843">
        <ele>323.79998779297</ele>
        <time>2023-08-02T06:32:47.000Z</time>
      </trkpt>
      <trkpt lat="43.71867" lon="7.08431">
        <ele>324.20001220703</ele>
        <time>2023-08-02T06:32:48.000Z</time>
      </trkpt>
      <trkpt lat="43.71872" lon="7.08433">
        <ele>324.20001220703</ele>
        <time>2023-08-02T06:32:49.000Z</time>
      </trkpt>
      <trkpt lat="43.71876" lon="7.08434">
        <ele>324.20001220703</ele>
        <time>2023-08-02T06:32:50.000Z</time>
      </trkpt>
      <trkpt lat="43.71881" lon="7.08435">
        <ele>324.39999389648</ele>
        <time>2023-08-02T06:32:51.000Z</time>
      </trkpt>
      <trkpt lat="43.71884" lon="7.08437">
        <ele>324.39999389648</ele>
        <time>2023-08-02T06:32:52.000Z</time>
      </trkpt>
      <trkpt lat="43.71888" lon="7.08439">
        <ele>324.60000610352</ele>
        <time>2023-08-02T06:32:53.000Z</time>
      </trkpt>
      <trkpt lat="43.71892" lon="7.0844">
        <ele>325</ele>
        <time>2023-08-02T06:32:54.000Z</time>
      </trkpt>
      <trkpt lat="43.71896" lon="7.08442">
        <ele>325.39999389648</ele>
        <time>2023-08-02T06:32:55.000Z</time>
      </trkpt>
      <trkpt lat="43.719" lon="7.08444">
        <ele>325.39999389648</ele>
        <time>2023-08-02T06:32:56.000Z</time>
      </trkpt>
      <trkpt lat="43.71904" lon="7.08446">
        <ele>325.79998779297</ele>
        <time>2023-08-02T06:32:57.000Z</time>
      </trkpt>
      <trkpt lat="43.71908" lon="7.08448">
        <ele>326</ele>
        <time>2023-08-02T06:32:58.000Z</time>
      </trkpt>
      <trkpt lat="43.71912" lon="7.08451">
        <ele>326.39999389648</ele>
        <time>2023-08-02T06:32:59.000Z</time>
      </trkpt>
      <trkpt lat="43.71916" lon="7.08453">
        <ele>327</ele>
        <time>2023-08-02T06:33:00.000Z</time>
      </trkpt>
      <trkpt lat="43.71919" lon="7.08456">
        <ele>327.39999389648</ele>
        <time>2023-08-02T06:33:01.000Z</time>
      </trkpt>
      <trkpt lat="43.71923" lon="7.08458">
        <ele>327.60000610352</ele>
        <time>2023-08-02T06:33:02.000Z</time>
      </trkpt>
      <trkpt lat="43.71927" lon="7.0846">
        <ele>328</ele>
        <time>2023-08-02T06:33:03.000Z</time>
      </trkpt>
      <trkpt lat="43.71931" lon="7.08462">
        <ele>328</ele>
        <time>2023-08-02T06:33:04.000Z</time>
      </trkpt>
      <trkpt lat="43.71935" lon="7.08463">
        <ele>328.20001220703</ele>
        <time>2023-08-02T06:33:05.000Z</time>
      </trkpt>
      <trkpt lat="43.71938" lon="7.08464">
        <ele>328.39999389648</ele>
        <time>2023-08-02T06:33:06.000Z</time>
      </trkpt>
      <trkpt lat="43.71941" lon="7.08466">
        <ele>328.60000610352</ele>
        <time>2023-08-02T06:33:07.000Z</time>
      </trkpt>
      <trkpt lat="43.71945" lon="7.08467">
        <ele>328.79998779297</ele>
        <time>2023-08-02T06:33:08.000Z</time>
      </trkpt>
      <trkpt lat="43.71949" lon="7.08469">
        <ele>328.79998779297</ele>
        <time>2023-08-02T06:33:09.000Z</time>
      </trkpt>
      <trkpt lat="43.71953" lon="7.08472">
        <ele>328.79998779297</ele>
        <time>2023-08-02T06:33:10.000Z</time>
      </trkpt>
      <trkpt lat="43.71957" lon="7.08475">
        <ele>329.20001220703</ele>
        <time>2023-08-02T06:33:11.000Z</time>
      </trkpt>
      <trkpt lat="43.71961" lon="7.08476">
        <ele>329.20001220703</ele>
        <time>2023-08-02T06:33:12.000Z</time>
      </trkpt>
      <trkpt lat="43.71965" lon="7.08478">
        <ele>329.20001220703</ele>
        <time>2023-08-02T06:33:13.000Z</time>
      </trkpt>
      <trkpt lat="43.71969" lon="7.0848">
        <ele>329.39999389648</ele>
        <time>2023-08-02T06:33:14.000Z</time>
      </trkpt>
      <trkpt lat="43.71973" lon="7.08482">
        <ele>329.39999389648</ele>
        <time>2023-08-02T06:33:15.000Z</time>
      </trkpt>
      <trkpt lat="43.71977" lon="7.08483">
        <ele>329.60000610352</ele>
        <time>2023-08-02T06:33:16.000Z</time>
      </trkpt>
      <trkpt lat="43.71981" lon="7.08483">
        <ele>329.79998779297</ele>
        <time>2023-08-02T06:33:17.000Z</time>
      </trkpt>
      <trkpt lat="43.71985" lon="7.08482">
        <ele>329.79998779297</ele>
        <time>2023-08-02T06:33:18.000Z</time>
      </trkpt>
      <trkpt lat="43.71989" lon="7.08481">
        <ele>329.79998779297</ele>
        <time>2023-08-02T06:33:19.000Z</time>
      </trkpt>
      <trkpt lat="43.71993" lon="7.08478">
        <ele>329.79998779297</ele>
        <time>2023-08-02T06:33:20.000Z</time>
      </trkpt>
      <trkpt lat="43.71997" lon="7.08474">
        <ele>329.79998779297</ele>
        <time>2023-08-02T06:33:21.000Z</time>
      </trkpt>
      <trkpt lat="43.72" lon="7.0847">
        <ele>330</ele>
        <time>2023-08-02T06:33:22.000Z</time>
      </trkpt>
      <trkpt lat="43.72002" lon="7.08465">
        <ele>330</ele>
        <time>2023-08-02T06:33:23.000Z</time>
      </trkpt>
      <trkpt lat="43.72005" lon="7.08461">
        <ele>330.20001220703</ele>
        <time>2023-08-02T06:33:24.000Z</time>
      </trkpt>
      <trkpt lat="43.72008" lon="7.08457">
        <ele>330.20001220703</ele>
        <time>2023-08-02T06:33:25.000Z</time>
      </trkpt>
      <trkpt lat="43.72011" lon="7.08452">
        <ele>330.39999389648</ele>
        <time>2023-08-02T06:33:26.000Z</time>
      </trkpt>
      <trkpt lat="43.72013" lon="7.08448">
        <ele>330.39999389648</ele>
        <time>2023-08-02T06:33:27.000Z</time>
      </trkpt>
      <trkpt lat="43.72016" lon="7.08445">
        <ele>331</ele>
        <time>2023-08-02T06:33:28.000Z</time>
      </trkpt>
      <trkpt lat="43.72018" lon="7.08441">
        <ele>331.20001220703</ele>
        <time>2023-08-02T06:33:29.000Z</time>
      </trkpt>
      <trkpt lat="43.72021" lon="7.08437">
        <ele>331.60000610352</ele>
        <time>2023-08-02T06:33:30.000Z</time>
      </trkpt>
      <trkpt lat="43.72023" lon="7.08435">
        <ele>332</ele>
        <time>2023-08-02T06:33:31.000Z</time>
      </trkpt>
      <trkpt lat="43.72027" lon="7.08432">
        <ele>332.39999389648</ele>
        <time>2023-08-02T06:33:32.000Z</time>
      </trkpt>
      <trkpt lat="43.7203" lon="7.08429">
        <ele>332.39999389648</ele>
        <time>2023-08-02T06:33:33.000Z</time>
      </trkpt>
      <trkpt lat="43.72033" lon="7.08426">
        <ele>332.79998779297</ele>
        <time>2023-08-02T06:33:34.000Z</time>
      </trkpt>
      <trkpt lat="43.72036" lon="7.08424">
        <ele>333.20001220703</ele>
        <time>2023-08-02T06:33:35.000Z</time>
      </trkpt>
      <trkpt lat="43.72039" lon="7.08422">
        <ele>333.39999389648</ele>
        <time>2023-08-02T06:33:36.000Z</time>
      </trkpt>
      <trkpt lat="43.72042" lon="7.08419">
        <ele>333.60000610352</ele>
        <time>2023-08-02T06:33:37.000Z</time>
      </trkpt>
      <trkpt lat="43.72045" lon="7.08417">
        <ele>334</ele>
        <time>2023-08-02T06:33:38.000Z</time>
      </trkpt>
      <trkpt lat="43.72048" lon="7.08415">
        <ele>334.39999389648</ele>
        <time>2023-08-02T06:33:39.000Z</time>
      </trkpt>
      <trkpt lat="43.72052" lon="7.08413">
        <ele>334.79998779297</ele>
        <time>2023-08-02T06:33:40.000Z</time>
      </trkpt>
      <trkpt lat="43.72055" lon="7.08411">
        <ele>335.20001220703</ele>
        <time>2023-08-02T06:33:41.000Z</time>
      </trkpt>
      <trkpt lat="43.72058" lon="7.08408">
        <ele>335.60000610352</ele>
        <time>2023-08-02T06:33:42.000Z</time>
      </trkpt>
      <trkpt lat="43.72062" lon="7.08406">
        <ele>336</ele>
        <time>2023-08-02T06:33:43.000Z</time>
      </trkpt>
      <trkpt lat="43.72065" lon="7.08404">
        <ele>336.20001220703</ele>
        <time>2023-08-02T06:33:44.000Z</time>
      </trkpt>
      <trkpt lat="43.72068" lon="7.08401">
        <ele>336.60000610352</ele>
        <time>2023-08-02T06:33:45.000Z</time>
      </trkpt>
      <trkpt lat="43.7207" lon="7.08396">
        <ele>336.79998779297</ele>
        <time>2023-08-02T06:33:46.000Z</time>
      </trkpt>
      <trkpt lat="43.72071" lon="7.08392">
        <ele>337</ele>
        <time>2023-08-02T06:33:47.000Z</time>
      </trkpt>
      <trkpt lat="43.72073" lon="7.08387">
        <ele>337.20001220703</ele>
        <time>2023-08-02T06:33:48.000Z</time>
      </trkpt>
      <trkpt lat="43.72075" lon="7.08383">
        <ele>337.39999389648</ele>
        <time>2023-08-02T06:33:49.000Z</time>
      </trkpt>
      <trkpt lat="43.72077" lon="7.08379">
        <ele>337.60000610352</ele>
        <time>2023-08-02T06:33:50.000Z</time>
      </trkpt>
      <trkpt lat="43.7208" lon="7.08377">
        <ele>337.60000610352</ele>
        <time>2023-08-02T06:33:51.000Z</time>
      </trkpt>
      <trkpt lat="43.72083" lon="7.08376">
        <ele>337.79998779297</ele>
        <time>2023-08-02T06:33:52.000Z</time>
      </trkpt>
      <trkpt lat="43.72086" lon="7.08373">
        <ele>338.20001220703</ele>
        <time>2023-08-02T06:33:53.000Z</time>
      </trkpt>
      <trkpt lat="43.7209" lon="7.08371">
        <ele>338.60000610352</ele>
        <time>2023-08-02T06:33:54.000Z</time>
      </trkpt>
      <trkpt lat="43.72093" lon="7.08369">
        <ele>339</ele>
        <time>2023-08-02T06:33:55.000Z</time>
      </trkpt>
      <trkpt lat="43.72096" lon="7.08367">
        <ele>339</ele>
        <time>2023-08-02T06:33:56.000Z</time>
      </trkpt>
      <trkpt lat="43.72099" lon="7.08365">
        <ele>339.20001220703</ele>
        <time>2023-08-02T06:33:57.000Z</time>
      </trkpt>
      <trkpt lat="43.72102" lon="7.08363">
        <ele>339.60000610352</ele>
        <time>2023-08-02T06:33:58.000Z</time>
      </trkpt>
      <trkpt lat="43.72105" lon="7.08362">
        <ele>340.20001220703</ele>
        <time>2023-08-02T06:33:59.000Z</time>
      </trkpt>
      <trkpt lat="43.72108" lon="7.08361">
        <ele>340.60000610352</ele>
        <time>2023-08-02T06:34:00.000Z</time>
      </trkpt>
      <trkpt lat="43.72112" lon="7.08361">
        <ele>341.20001220703</ele>
        <time>2023-08-02T06:34:01.000Z</time>
      </trkpt>
      <trkpt lat="43.72115" lon="7.08361">
        <ele>341.39999389648</ele>
        <time>2023-08-02T06:34:02.000Z</time>
      </trkpt>
      <trkpt lat="43.72119" lon="7.08359">
        <ele>341.79998779297</ele>
        <time>2023-08-02T06:34:03.000Z</time>
      </trkpt>
      <trkpt lat="43.72121" lon="7.08356">
        <ele>342.20001220703</ele>
        <time>2023-08-02T06:34:04.000Z</time>
      </trkpt>
      <trkpt lat="43.72124" lon="7.08353">
        <ele>342.39999389648</ele>
        <time>2023-08-02T06:34:05.000Z</time>
      </trkpt>
      <trkpt lat="43.72127" lon="7.08351">
        <ele>342.79998779297</ele>
        <time>2023-08-02T06:34:06.000Z</time>
      </trkpt>
      <trkpt lat="43.72131" lon="7.08349">
        <ele>343</ele>
        <time>2023-08-02T06:34:07.000Z</time>
      </trkpt>
      <trkpt lat="43.72134" lon="7.08348">
        <ele>343.20001220703</ele>
        <time>2023-08-02T06:34:08.000Z</time>
      </trkpt>
      <trkpt lat="43.72137" lon="7.08346">
        <ele>343.60000610352</ele>
        <time>2023-08-02T06:34:09.000Z</time>
      </trkpt>
      <trkpt lat="43.7214" lon="7.08344">
        <ele>343.79998779297</ele>
        <time>2023-08-02T06:34:10.000Z</time>
      </trkpt>
      <trkpt lat="43.72143" lon="7.08341">
        <ele>344</ele>
        <time>2023-08-02T06:34:11.000Z</time>
      </trkpt>
      <trkpt lat="43.72145" lon="7.08339">
        <ele>344.20001220703</ele>
        <time>2023-08-02T06:34:12.000Z</time>
      </trkpt>
      <trkpt lat="43.72148" lon="7.08336">
        <ele>344.60000610352</ele>
        <time>2023-08-02T06:34:13.000Z</time>
      </trkpt>
      <trkpt lat="43.72151" lon="7.08334">
        <ele>344.79998779297</ele>
        <time>2023-08-02T06:34:14.000Z</time>
      </trkpt>
      <trkpt lat="43.72155" lon="7.08331">
        <ele>345.20001220703</ele>
        <time>2023-08-02T06:34:15.000Z</time>
      </trkpt>
      <trkpt lat="43.72158" lon="7.08329">
        <ele>345.39999389648</ele>
        <time>2023-08-02T06:34:16.000Z</time>
      </trkpt>
      <trkpt lat="43.72162" lon="7.08328">
        <ele>345.79998779297</ele>
        <time>2023-08-02T06:34:17.000Z</time>
      </trkpt>
      <trkpt lat="43.72165" lon="7.08326">
        <ele>345.79998779297</ele>
        <time>2023-08-02T06:34:18.000Z</time>
      </trkpt>
      <trkpt lat="43.72168" lon="7.08324">
        <ele>346.20001220703</ele>
        <time>2023-08-02T06:34:19.000Z</time>
      </trkpt>
      <trkpt lat="43.72172" lon="7.08322">
        <ele>346.20001220703</ele>
        <time>2023-08-02T06:34:20.000Z</time>
      </trkpt>
      <trkpt lat="43.72176" lon="7.08322">
        <ele>346.60000610352</ele>
        <time>2023-08-02T06:34:21.000Z</time>
      </trkpt>
      <trkpt lat="43.72179" lon="7.08321">
        <ele>346.79998779297</ele>
        <time>2023-08-02T06:34:22.000Z</time>
      </trkpt>
      <trkpt lat="43.72181" lon="7.08319">
        <ele>347.20001220703</ele>
        <time>2023-08-02T06:34:23.000Z</time>
      </trkpt>
      <trkpt lat="43.72183" lon="7.08317">
        <ele>347.39999389648</ele>
        <time>2023-08-02T06:34:24.000Z</time>
      </trkpt>
      <trkpt lat="43.72185" lon="7.08315">
        <ele>347.60000610352</ele>
        <time>2023-08-02T06:34:25.000Z</time>
      </trkpt>
      <trkpt lat="43.72187" lon="7.08313">
        <ele>347.79998779297</ele>
        <time>2023-08-02T06:34:26.000Z</time>
      </trkpt>
      <trkpt lat="43.7219" lon="7.08311">
        <ele>348</ele>
        <time>2023-08-02T06:34:27.000Z</time>
      </trkpt>
      <trkpt lat="43.72194" lon="7.08309">
        <ele>348.39999389648</ele>
        <time>2023-08-02T06:34:28.000Z</time>
      </trkpt>
      <trkpt lat="43.72197" lon="7.08307">
        <ele>348.60000610352</ele>
        <time>2023-08-02T06:34:29.000Z</time>
      </trkpt>
      <trkpt lat="43.722" lon="7.08305">
        <ele>348.79998779297</ele>
        <time>2023-08-02T06:34:30.000Z</time>
      </trkpt>
      <trkpt lat="43.72202" lon="7.08303">
        <ele>349.20001220703</ele>
        <time>2023-08-02T06:34:31.000Z</time>
      </trkpt>
      <trkpt lat="43.72205" lon="7.083">
        <ele>349.39999389648</ele>
        <time>2023-08-02T06:34:32.000Z</time>
      </trkpt>
      <trkpt lat="43.72208" lon="7.08296">
        <ele>349.60000610352</ele>
        <time>2023-08-02T06:34:33.000Z</time>
      </trkpt>
      <trkpt lat="43.7221" lon="7.08293">
        <ele>349.79998779297</ele>
        <time>2023-08-02T06:34:34.000Z</time>
      </trkpt>
      <trkpt lat="43.72212" lon="7.08291">
        <ele>350.20001220703</ele>
        <time>2023-08-02T06:34:35.000Z</time>
      </trkpt>
      <trkpt lat="43.72216" lon="7.08289">
        <ele>350.39999389648</ele>
        <time>2023-08-02T06:34:36.000Z</time>
      </trkpt>
      <trkpt lat="43.72219" lon="7.08287">
        <ele>350.60000610352</ele>
        <time>2023-08-02T06:34:37.000Z</time>
      </trkpt>
      <trkpt lat="43.72222" lon="7.08286">
        <ele>351</ele>
        <time>2023-08-02T06:34:38.000Z</time>
      </trkpt>
      <trkpt lat="43.72226" lon="7.08284">
        <ele>351.20001220703</ele>
        <time>2023-08-02T06:34:39.000Z</time>
      </trkpt>
      <trkpt lat="43.7223" lon="7.08282">
        <ele>351.60000610352</ele>
        <time>2023-08-02T06:34:40.000Z</time>
      </trkpt>
      <trkpt lat="43.72233" lon="7.0828">
        <ele>352</ele>
        <time>2023-08-02T06:34:41.000Z</time>
      </trkpt>
      <trkpt lat="43.72236" lon="7.08277">
        <ele>352.20001220703</ele>
        <time>2023-08-02T06:34:42.000Z</time>
      </trkpt>
      <trkpt lat="43.72239" lon="7.08274">
        <ele>352.20001220703</ele>
        <time>2023-08-02T06:34:43.000Z</time>
      </trkpt>
      <trkpt lat="43.72243" lon="7.08272">
        <ele>352.79998779297</ele>
        <time>2023-08-02T06:34:44.000Z</time>
      </trkpt>
      <trkpt lat="43.72246" lon="7.0827">
        <ele>353.20001220703</ele>
        <time>2023-08-02T06:34:45.000Z</time>
      </trkpt>
      <trkpt lat="43.72249" lon="7.08267">
        <ele>353.79998779297</ele>
        <time>2023-08-02T06:34:46.000Z</time>
      </trkpt>
      <trkpt lat="43.72252" lon="7.08265">
        <ele>354.20001220703</ele>
        <time>2023-08-02T06:34:47.000Z</time>
      </trkpt>
      <trkpt lat="43.72255" lon="7.08264">
        <ele>354.60000610352</ele>
        <time>2023-08-02T06:34:48.000Z</time>
      </trkpt>
      <trkpt lat="43.72259" lon="7.08262">
        <ele>355</ele>
        <time>2023-08-02T06:34:49.000Z</time>
      </trkpt>
      <trkpt lat="43.72262" lon="7.08262">
        <ele>355.39999389648</ele>
        <time>2023-08-02T06:34:50.000Z</time>
      </trkpt>
      <trkpt lat="43.72265" lon="7.0826">
        <ele>355.79998779297</ele>
        <time>2023-08-02T06:34:51.000Z</time>
      </trkpt>
      <trkpt lat="43.72268" lon="7.08259">
        <ele>356.39999389648</ele>
        <time>2023-08-02T06:34:52.000Z</time>
      </trkpt>
      <trkpt lat="43.72271" lon="7.08258">
        <ele>356.79998779297</ele>
        <time>2023-08-02T06:34:53.000Z</time>
      </trkpt>
      <trkpt lat="43.72275" lon="7.08257">
        <ele>357.20001220703</ele>
        <time>2023-08-02T06:34:54.000Z</time>
      </trkpt>
      <trkpt lat="43.72278" lon="7.08257">
        <ele>357.60000610352</ele>
        <time>2023-08-02T06:34:55.000Z</time>
      </trkpt>
      <trkpt lat="43.7228" lon="7.08258">
        <ele>357.79998779297</ele>
        <time>2023-08-02T06:34:56.000Z</time>
      </trkpt>
      <trkpt lat="43.72282" lon="7.08259">
        <ele>358.20001220703</ele>
        <time>2023-08-02T06:34:57.000Z</time>
      </trkpt>
      <trkpt lat="43.72282" lon="7.0826">
        <ele>358.60000610352</ele>
        <time>2023-08-02T06:34:58.000Z</time>
      </trkpt>
      <trkpt lat="43.72283" lon="7.08261">
        <ele>359</ele>
        <time>2023-08-02T06:34:59.000Z</time>
      </trkpt>
      <trkpt lat="43.72283" lon="7.08262">
        <ele>359</ele>
        <time>2023-08-02T06:35:00.000Z</time>
      </trkpt>
      <trkpt lat="43.72284" lon="7.08264">
        <ele>359.20001220703</ele>
        <time>2023-08-02T06:35:01.000Z</time>
      </trkpt>
      <trkpt lat="43.72286" lon="7.08267">
        <ele>359.20001220703</ele>
        <time>2023-08-02T06:35:02.000Z</time>
      </trkpt>
      <trkpt lat="43.72288" lon="7.0827">
        <ele>359.20001220703</ele>
        <time>2023-08-02T06:35:03.000Z</time>
      </trkpt>
      <trkpt lat="43.72291" lon="7.08273">
        <ele>359.20001220703</ele>
        <time>2023-08-02T06:35:04.000Z</time>
      </trkpt>
      <trkpt lat="43.72294" lon="7.08275">
        <ele>359.20001220703</ele>
        <time>2023-08-02T06:35:05.000Z</time>
      </trkpt>
      <trkpt lat="43.72298" lon="7.08277">
        <ele>359.20001220703</ele>
        <time>2023-08-02T06:35:06.000Z</time>
      </trkpt>
      <trkpt lat="43.72302" lon="7.08278">
        <ele>359.20001220703</ele>
        <time>2023-08-02T06:35:07.000Z</time>
      </trkpt>
      <trkpt lat="43.72306" lon="7.08277">
        <ele>359.20001220703</ele>
        <time>2023-08-02T06:35:08.000Z</time>
      </trkpt>
      <trkpt lat="43.72309" lon="7.08274">
        <ele>359.39999389648</ele>
        <time>2023-08-02T06:35:09.000Z</time>
      </trkpt>
      <trkpt lat="43.72312" lon="7.08272">
        <ele>359.39999389648</ele>
        <time>2023-08-02T06:35:10.000Z</time>
      </trkpt>
      <trkpt lat="43.72315" lon="7.08272">
        <ele>359.39999389648</ele>
        <time>2023-08-02T06:35:11.000Z</time>
      </trkpt>
      <trkpt lat="43.72318" lon="7.08273">
        <ele>359.39999389648</ele>
        <time>2023-08-02T06:35:12.000Z</time>
      </trkpt>
      <trkpt lat="43.72322" lon="7.08274">
        <ele>359.39999389648</ele>
        <time>2023-08-02T06:35:13.000Z</time>
      </trkpt>
      <trkpt lat="43.72326" lon="7.08277">
        <ele>359.60000610352</ele>
        <time>2023-08-02T06:35:14.000Z</time>
      </trkpt>
      <trkpt lat="43.72328" lon="7.08281">
        <ele>359.60000610352</ele>
        <time>2023-08-02T06:35:15.000Z</time>
      </trkpt>
      <trkpt lat="43.72328" lon="7.08286">
        <ele>359.60000610352</ele>
        <time>2023-08-02T06:35:16.000Z</time>
      </trkpt>
      <trkpt lat="43.72328" lon="7.08291">
        <ele>359.79998779297</ele>
        <time>2023-08-02T06:35:17.000Z</time>
      </trkpt>
      <trkpt lat="43.72327" lon="7.08298">
        <ele>359.79998779297</ele>
        <time>2023-08-02T06:35:18.000Z</time>
      </trkpt>
      <trkpt lat="43.72328" lon="7.08304">
        <ele>359.79998779297</ele>
        <time>2023-08-02T06:35:19.000Z</time>
      </trkpt>
      <trkpt lat="43.72329" lon="7.0831">
        <ele>359.79998779297</ele>
        <time>2023-08-02T06:35:20.000Z</time>
      </trkpt>
      <trkpt lat="43.7233" lon="7.08315">
        <ele>359.79998779297</ele>
        <time>2023-08-02T06:35:21.000Z</time>
      </trkpt>
      <trkpt lat="43.72331" lon="7.0832">
        <ele>359.79998779297</ele>
        <time>2023-08-02T06:35:22.000Z</time>
      </trkpt>
      <trkpt lat="43.72333" lon="7.08326">
        <ele>359.79998779297</ele>
        <time>2023-08-02T06:35:23.000Z</time>
      </trkpt>
      <trkpt lat="43.72335" lon="7.08331">
        <ele>359.79998779297</ele>
        <time>2023-08-02T06:35:24.000Z</time>
      </trkpt>
      <trkpt lat="43.72337" lon="7.08336">
        <ele>359.79998779297</ele>
        <time>2023-08-02T06:35:25.000Z</time>
      </trkpt>
      <trkpt lat="43.7234" lon="7.0834">
        <ele>359.79998779297</ele>
        <time>2023-08-02T06:35:26.000Z</time>
      </trkpt>
      <trkpt lat="43.72343" lon="7.08345">
        <ele>359.79998779297</ele>
        <time>2023-08-02T06:35:27.000Z</time>
      </trkpt>
      <trkpt lat="43.72347" lon="7.08349">
        <ele>359.79998779297</ele>
        <time>2023-08-02T06:35:28.000Z</time>
      </trkpt>
      <trkpt lat="43.72351" lon="7.08352">
        <ele>359.79998779297</ele>
        <time>2023-08-02T06:35:29.000Z</time>
      </trkpt>
      <trkpt lat="43.72355" lon="7.08356">
        <ele>359.79998779297</ele>
        <time>2023-08-02T06:35:30.000Z</time>
      </trkpt>
      <trkpt lat="43.72359" lon="7.08358">
        <ele>359.60000610352</ele>
        <time>2023-08-02T06:35:31.000Z</time>
      </trkpt>
      <trkpt lat="43.72364" lon="7.08361">
        <ele>359.39999389648</ele>
        <time>2023-08-02T06:35:32.000Z</time>
      </trkpt>
      <trkpt lat="43.72369" lon="7.08363">
        <ele>359.39999389648</ele>
        <time>2023-08-02T06:35:33.000Z</time>
      </trkpt>
      <trkpt lat="43.72373" lon="7.08364">
        <ele>359.20001220703</ele>
        <time>2023-08-02T06:35:34.000Z</time>
      </trkpt>
      <trkpt lat="43.72379" lon="7.08364">
        <ele>359.20001220703</ele>
        <time>2023-08-02T06:35:35.000Z</time>
      </trkpt>
      <trkpt lat="43.72384" lon="7.08364">
        <ele>359</ele>
        <time>2023-08-02T06:35:36.000Z</time>
      </trkpt>
      <trkpt lat="43.72389" lon="7.08363">
        <ele>359</ele>
        <time>2023-08-02T06:35:37.000Z</time>
      </trkpt>
      <trkpt lat="43.72395" lon="7.08361">
        <ele>358.79998779297</ele>
        <time>2023-08-02T06:35:38.000Z</time>
      </trkpt>
      <trkpt lat="43.724" lon="7.08359">
        <ele>358.60000610352</ele>
        <time>2023-08-02T06:35:39.000Z</time>
      </trkpt>
      <trkpt lat="43.72406" lon="7.08356">
        <ele>358.60000610352</ele>
        <time>2023-08-02T06:35:40.000Z</time>
      </trkpt>
      <trkpt lat="43.72412" lon="7.08352">
        <ele>358.39999389648</ele>
        <time>2023-08-02T06:35:41.000Z</time>
      </trkpt>
      <trkpt lat="43.72418" lon="7.08348">
        <ele>358.39999389648</ele>
        <time>2023-08-02T06:35:42.000Z</time>
      </trkpt>
      <trkpt lat="43.72423" lon="7.08345">
        <ele>358.20001220703</ele>
        <time>2023-08-02T06:35:43.000Z</time>
      </trkpt>
      <trkpt lat="43.72429" lon="7.08341">
        <ele>358</ele>
        <time>2023-08-02T06:35:44.000Z</time>
      </trkpt>
      <trkpt lat="43.72435" lon="7.08337">
        <ele>357.79998779297</ele>
        <time>2023-08-02T06:35:45.000Z</time>
      </trkpt>
      <trkpt lat="43.72441" lon="7.08334">
        <ele>357.60000610352</ele>
        <time>2023-08-02T06:35:46.000Z</time>
      </trkpt>
      <trkpt lat="43.72447" lon="7.08334">
        <ele>357.39999389648</ele>
        <time>2023-08-02T06:35:47.000Z</time>
      </trkpt>
      <trkpt lat="43.72453" lon="7.08335">
        <ele>357.39999389648</ele>
        <time>2023-08-02T06:35:48.000Z</time>
      </trkpt>
      <trkpt lat="43.7246" lon="7.0834">
        <ele>357.20001220703</ele>
        <time>2023-08-02T06:35:49.000Z</time>
      </trkpt>
      <trkpt lat="43.72465" lon="7.08347">
        <ele>357.20001220703</ele>
        <time>2023-08-02T06:35:50.000Z</time>
      </trkpt>
      <trkpt lat="43.72469" lon="7.08355">
        <ele>356.79998779297</ele>
        <time>2023-08-02T06:35:51.000Z</time>
      </trkpt>
      <trkpt lat="43.72472" lon="7.08364">
        <ele>356.79998779297</ele>
        <time>2023-08-02T06:35:52.000Z</time>
      </trkpt>
      <trkpt lat="43.72472" lon="7.08374">
        <ele>356.79998779297</ele>
        <time>2023-08-02T06:35:53.000Z</time>
      </trkpt>
      <trkpt lat="43.72472" lon="7.08383">
        <ele>356.60000610352</ele>
        <time>2023-08-02T06:35:54.000Z</time>
      </trkpt>
      <trkpt lat="43.7247" lon="7.08392">
        <ele>356.20001220703</ele>
        <time>2023-08-02T06:35:55.000Z</time>
      </trkpt>
      <trkpt lat="43.72468" lon="7.08401">
        <ele>356</ele>
        <time>2023-08-02T06:35:56.000Z</time>
      </trkpt>
      <trkpt lat="43.72466" lon="7.0841">
        <ele>355.79998779297</ele>
        <time>2023-08-02T06:35:57.000Z</time>
      </trkpt>
      <trkpt lat="43.72465" lon="7.08419">
        <ele>355.60000610352</ele>
        <time>2023-08-02T06:35:58.000Z</time>
      </trkpt>
      <trkpt lat="43.72463" lon="7.08428">
        <ele>355.39999389648</ele>
        <time>2023-08-02T06:35:59.000Z</time>
      </trkpt>
      <trkpt lat="43.72461" lon="7.08436">
        <ele>355.20001220703</ele>
        <time>2023-08-02T06:36:00.000Z</time>
      </trkpt>
      <trkpt lat="43.72459" lon="7.08444">
        <ele>355.20001220703</ele>
        <time>2023-08-02T06:36:01.000Z</time>
      </trkpt>
      <trkpt lat="43.72457" lon="7.08452">
        <ele>355</ele>
        <time>2023-08-02T06:36:02.000Z</time>
      </trkpt>
      <trkpt lat="43.72455" lon="7.08461">
        <ele>354.79998779297</ele>
        <time>2023-08-02T06:36:03.000Z</time>
      </trkpt>
      <trkpt lat="43.72453" lon="7.08469">
        <ele>354.79998779297</ele>
        <time>2023-08-02T06:36:04.000Z</time>
      </trkpt>
      <trkpt lat="43.72451" lon="7.08477">
        <ele>354.60000610352</ele>
        <time>2023-08-02T06:36:05.000Z</time>
      </trkpt>
      <trkpt lat="43.7245" lon="7.08484">
        <ele>354.60000610352</ele>
        <time>2023-08-02T06:36:06.000Z</time>
      </trkpt>
      <trkpt lat="43.72448" lon="7.08492">
        <ele>354.39999389648</ele>
        <time>2023-08-02T06:36:07.000Z</time>
      </trkpt>
      <trkpt lat="43.72446" lon="7.085">
        <ele>354.39999389648</ele>
        <time>2023-08-02T06:36:08.000Z</time>
      </trkpt>
      <trkpt lat="43.72445" lon="7.08508">
        <ele>354.39999389648</ele>
        <time>2023-08-02T06:36:09.000Z</time>
      </trkpt>
      <trkpt lat="43.72443" lon="7.08515">
        <ele>354.20001220703</ele>
        <time>2023-08-02T06:36:10.000Z</time>
      </trkpt>
      <trkpt lat="43.72441" lon="7.08522">
        <ele>354.20001220703</ele>
        <time>2023-08-02T06:36:11.000Z</time>
      </trkpt>
      <trkpt lat="43.7244" lon="7.08529">
        <ele>354</ele>
        <time>2023-08-02T06:36:12.000Z</time>
      </trkpt>
      <trkpt lat="43.72439" lon="7.08536">
        <ele>353.60000610352</ele>
        <time>2023-08-02T06:36:13.000Z</time>
      </trkpt>
      <trkpt lat="43.72437" lon="7.08544">
        <ele>353.60000610352</ele>
        <time>2023-08-02T06:36:14.000Z</time>
      </trkpt>
      <trkpt lat="43.72436" lon="7.08552">
        <ele>353.60000610352</ele>
        <time>2023-08-02T06:36:15.000Z</time>
      </trkpt>
      <trkpt lat="43.72434" lon="7.0856">
        <ele>353.60000610352</ele>
        <time>2023-08-02T06:36:16.000Z</time>
      </trkpt>
      <trkpt lat="43.72433" lon="7.08567">
        <ele>353.60000610352</ele>
        <time>2023-08-02T06:36:17.000Z</time>
      </trkpt>
      <trkpt lat="43.72432" lon="7.08575">
        <ele>353.39999389648</ele>
        <time>2023-08-02T06:36:18.000Z</time>
      </trkpt>
      <trkpt lat="43.72431" lon="7.08583">
        <ele>353.20001220703</ele>
        <time>2023-08-02T06:36:19.000Z</time>
      </trkpt>
      <trkpt lat="43.72432" lon="7.0859">
        <ele>353</ele>
        <time>2023-08-02T06:36:20.000Z</time>
      </trkpt>
      <trkpt lat="43.72432" lon="7.08598">
        <ele>353</ele>
        <time>2023-08-02T06:36:21.000Z</time>
      </trkpt>
      <trkpt lat="43.72433" lon="7.08605">
        <ele>352.79998779297</ele>
        <time>2023-08-02T06:36:22.000Z</time>
      </trkpt>
      <trkpt lat="43.72434" lon="7.08613">
        <ele>352.60000610352</ele>
        <time>2023-08-02T06:36:23.000Z</time>
      </trkpt>
      <trkpt lat="43.72435" lon="7.0862">
        <ele>352.39999389648</ele>
        <time>2023-08-02T06:36:24.000Z</time>
      </trkpt>
      <trkpt lat="43.72437" lon="7.08628">
        <ele>352.39999389648</ele>
        <time>2023-08-02T06:36:25.000Z</time>
      </trkpt>
      <trkpt lat="43.72438" lon="7.08636">
        <ele>352.20001220703</ele>
        <time>2023-08-02T06:36:26.000Z</time>
      </trkpt>
      <trkpt lat="43.7244" lon="7.08643">
        <ele>352.20001220703</ele>
        <time>2023-08-02T06:36:27.000Z</time>
      </trkpt>
      <trkpt lat="43.72442" lon="7.08651">
        <ele>352</ele>
        <time>2023-08-02T06:36:28.000Z</time>
      </trkpt>
      <trkpt lat="43.72445" lon="7.08658">
        <ele>352</ele>
        <time>2023-08-02T06:36:29.000Z</time>
      </trkpt>
      <trkpt lat="43.72448" lon="7.08664">
        <ele>351.79998779297</ele>
        <time>2023-08-02T06:36:30.000Z</time>
      </trkpt>
      <trkpt lat="43.72451" lon="7.0867">
        <ele>351.60000610352</ele>
        <time>2023-08-02T06:36:31.000Z</time>
      </trkpt>
      <trkpt lat="43.72455" lon="7.08675">
        <ele>351.60000610352</ele>
        <time>2023-08-02T06:36:32.000Z</time>
      </trkpt>
      <trkpt lat="43.7246" lon="7.0868">
        <ele>351.39999389648</ele>
        <time>2023-08-02T06:36:33.000Z</time>
      </trkpt>
      <trkpt lat="43.72466" lon="7.08684">
        <ele>351.39999389648</ele>
        <time>2023-08-02T06:36:34.000Z</time>
      </trkpt>
      <trkpt lat="43.72471" lon="7.08688">
        <ele>351.39999389648</ele>
        <time>2023-08-02T06:36:35.000Z</time>
      </trkpt>
      <trkpt lat="43.72477" lon="7.08691">
        <ele>351.20001220703</ele>
        <time>2023-08-02T06:36:36.000Z</time>
      </trkpt>
      <trkpt lat="43.72483" lon="7.08694">
        <ele>351</ele>
        <time>2023-08-02T06:36:37.000Z</time>
      </trkpt>
      <trkpt lat="43.72489" lon="7.08696">
        <ele>350.79998779297</ele>
        <time>2023-08-02T06:36:38.000Z</time>
      </trkpt>
      <trkpt lat="43.72496" lon="7.08697">
        <ele>350.39999389648</ele>
        <time>2023-08-02T06:36:39.000Z</time>
      </trkpt>
      <trkpt lat="43.72502" lon="7.08698">
        <ele>350.39999389648</ele>
        <time>2023-08-02T06:36:40.000Z</time>
      </trkpt>
      <trkpt lat="43.72508" lon="7.087">
        <ele>350.39999389648</ele>
        <time>2023-08-02T06:36:41.000Z</time>
      </trkpt>
      <trkpt lat="43.72515" lon="7.08702">
        <ele>350</ele>
        <time>2023-08-02T06:36:42.000Z</time>
      </trkpt>
      <trkpt lat="43.72521" lon="7.08703">
        <ele>349.79998779297</ele>
        <time>2023-08-02T06:36:43.000Z</time>
      </trkpt>
      <trkpt lat="43.72528" lon="7.08704">
        <ele>349.79998779297</ele>
        <time>2023-08-02T06:36:44.000Z</time>
      </trkpt>
      <trkpt lat="43.72534" lon="7.08706">
        <ele>349.39999389648</ele>
        <time>2023-08-02T06:36:45.000Z</time>
      </trkpt>
      <trkpt lat="43.7254" lon="7.08708">
        <ele>349.20001220703</ele>
        <time>2023-08-02T06:36:46.000Z</time>
      </trkpt>
      <trkpt lat="43.72547" lon="7.08709">
        <ele>349.20001220703</ele>
        <time>2023-08-02T06:36:47.000Z</time>
      </trkpt>
      <trkpt lat="43.72554" lon="7.0871">
        <ele>348.79998779297</ele>
        <time>2023-08-02T06:36:48.000Z</time>
      </trkpt>
      <trkpt lat="43.7256" lon="7.08712">
        <ele>348.79998779297</ele>
        <time>2023-08-02T06:36:49.000Z</time>
      </trkpt>
      <trkpt lat="43.72567" lon="7.08714">
        <ele>348.60000610352</ele>
        <time>2023-08-02T06:36:50.000Z</time>
      </trkpt>
      <trkpt lat="43.72573" lon="7.08716">
        <ele>348.39999389648</ele>
        <time>2023-08-02T06:36:51.000Z</time>
      </trkpt>
      <trkpt lat="43.72579" lon="7.08718">
        <ele>348.39999389648</ele>
        <time>2023-08-02T06:36:52.000Z</time>
      </trkpt>
      <trkpt lat="43.72585" lon="7.08719">
        <ele>348.20001220703</ele>
        <time>2023-08-02T06:36:53.000Z</time>
      </trkpt>
      <trkpt lat="43.72592" lon="7.08721">
        <ele>348</ele>
        <time>2023-08-02T06:36:54.000Z</time>
      </trkpt>
      <trkpt lat="43.72598" lon="7.08722">
        <ele>348</ele>
        <time>2023-08-02T06:36:55.000Z</time>
      </trkpt>
      <trkpt lat="43.72605" lon="7.08724">
        <ele>347.79998779297</ele>
        <time>2023-08-02T06:36:56.000Z</time>
      </trkpt>
      <trkpt lat="43.72611" lon="7.08725">
        <ele>347.60000610352</ele>
        <time>2023-08-02T06:36:57.000Z</time>
      </trkpt>
      <trkpt lat="43.72618" lon="7.08727">
        <ele>347.39999389648</ele>
        <time>2023-08-02T06:36:58.000Z</time>
      </trkpt>
      <trkpt lat="43.72624" lon="7.08727">
        <ele>347.39999389648</ele>
        <time>2023-08-02T06:36:59.000Z</time>
      </trkpt>
      <trkpt lat="43.72631" lon="7.08726">
        <ele>347.20001220703</ele>
        <time>2023-08-02T06:37:00.000Z</time>
      </trkpt>
      <trkpt lat="43.72637" lon="7.08725">
        <ele>347</ele>
        <time>2023-08-02T06:37:01.000Z</time>
      </trkpt>
      <trkpt lat="43.72643" lon="7.08722">
        <ele>347</ele>
        <time>2023-08-02T06:37:02.000Z</time>
      </trkpt>
      <trkpt lat="43.72649" lon="7.0872">
        <ele>347</ele>
        <time>2023-08-02T06:37:03.000Z</time>
      </trkpt>
      <trkpt lat="43.72655" lon="7.08717">
        <ele>346.79998779297</ele>
        <time>2023-08-02T06:37:04.000Z</time>
      </trkpt>
      <trkpt lat="43.72662" lon="7.08712">
        <ele>346.79998779297</ele>
        <time>2023-08-02T06:37:05.000Z</time>
      </trkpt>
      <trkpt lat="43.72669" lon="7.08709">
        <ele>346.60000610352</ele>
        <time>2023-08-02T06:37:06.000Z</time>
      </trkpt>
      <trkpt lat="43.72675" lon="7.08706">
        <ele>346.39999389648</ele>
        <time>2023-08-02T06:37:07.000Z</time>
      </trkpt>
      <trkpt lat="43.72682" lon="7.08704">
        <ele>346.20001220703</ele>
        <time>2023-08-02T06:37:08.000Z</time>
      </trkpt>
      <trkpt lat="43.72689" lon="7.08701">
        <ele>346</ele>
        <time>2023-08-02T06:37:09.000Z</time>
      </trkpt>
      <trkpt lat="43.72695" lon="7.08699">
        <ele>345.79998779297</ele>
        <time>2023-08-02T06:37:10.000Z</time>
      </trkpt>
      <trkpt lat="43.72702" lon="7.08697">
        <ele>345.60000610352</ele>
        <time>2023-08-02T06:37:11.000Z</time>
      </trkpt>
      <trkpt lat="43.72709" lon="7.08695">
        <ele>345.39999389648</ele>
        <time>2023-08-02T06:37:12.000Z</time>
      </trkpt>
      <trkpt lat="43.72715" lon="7.08693">
        <ele>345.20001220703</ele>
        <time>2023-08-02T06:37:13.000Z</time>
      </trkpt>
      <trkpt lat="43.72722" lon="7.08692">
        <ele>345.20001220703</ele>
        <time>2023-08-02T06:37:14.000Z</time>
      </trkpt>
      <trkpt lat="43.72728" lon="7.08691">
        <ele>345.20001220703</ele>
        <time>2023-08-02T06:37:15.000Z</time>
      </trkpt>
      <trkpt lat="43.72736" lon="7.08689">
        <ele>345</ele>
        <time>2023-08-02T06:37:16.000Z</time>
      </trkpt>
      <trkpt lat="43.72742" lon="7.08688">
        <ele>344.79998779297</ele>
        <time>2023-08-02T06:37:17.000Z</time>
      </trkpt>
      <trkpt lat="43.7275" lon="7.08685">
        <ele>344.39999389648</ele>
        <time>2023-08-02T06:37:18.000Z</time>
      </trkpt>
      <trkpt lat="43.72757" lon="7.08685">
        <ele>344</ele>
        <time>2023-08-02T06:37:19.000Z</time>
      </trkpt>
      <trkpt lat="43.72764" lon="7.08687">
        <ele>344</ele>
        <time>2023-08-02T06:37:20.000Z</time>
      </trkpt>
      <trkpt lat="43.7277" lon="7.08692">
        <ele>343.79998779297</ele>
        <time>2023-08-02T06:37:21.000Z</time>
      </trkpt>
      <trkpt lat="43.72774" lon="7.08699">
        <ele>343.79998779297</ele>
        <time>2023-08-02T06:37:22.000Z</time>
      </trkpt>
      <trkpt lat="43.72778" lon="7.08707">
        <ele>343.79998779297</ele>
        <time>2023-08-02T06:37:23.000Z</time>
      </trkpt>
      <trkpt lat="43.7278" lon="7.08716">
        <ele>343.39999389648</ele>
        <time>2023-08-02T06:37:24.000Z</time>
      </trkpt>
      <trkpt lat="43.72781" lon="7.08726">
        <ele>343.39999389648</ele>
        <time>2023-08-02T06:37:25.000Z</time>
      </trkpt>
      <trkpt lat="43.72781" lon="7.08736">
        <ele>343.39999389648</ele>
        <time>2023-08-02T06:37:26.000Z</time>
      </trkpt>
      <trkpt lat="43.7278" lon="7.08744">
        <ele>343.39999389648</ele>
        <time>2023-08-02T06:37:27.000Z</time>
      </trkpt>
      <trkpt lat="43.72779" lon="7.08752">
        <ele>343.39999389648</ele>
        <time>2023-08-02T06:37:28.000Z</time>
      </trkpt>
      <trkpt lat="43.72777" lon="7.0876">
        <ele>343.39999389648</ele>
        <time>2023-08-02T06:37:29.000Z</time>
      </trkpt>
      <trkpt lat="43.72776" lon="7.08769">
        <ele>343.39999389648</ele>
        <time>2023-08-02T06:37:30.000Z</time>
      </trkpt>
      <trkpt lat="43.72774" lon="7.08777">
        <ele>343.60000610352</ele>
        <time>2023-08-02T06:37:31.000Z</time>
      </trkpt>
      <trkpt lat="43.72772" lon="7.08784">
        <ele>343.60000610352</ele>
        <time>2023-08-02T06:37:32.000Z</time>
      </trkpt>
      <trkpt lat="43.72771" lon="7.08792">
        <ele>343.60000610352</ele>
        <time>2023-08-02T06:37:33.000Z</time>
      </trkpt>
      <trkpt lat="43.72769" lon="7.088">
        <ele>343.60000610352</ele>
        <time>2023-08-02T06:37:34.000Z</time>
      </trkpt>
      <trkpt lat="43.72766" lon="7.08807">
        <ele>343.60000610352</ele>
        <time>2023-08-02T06:37:35.000Z</time>
      </trkpt>
      <trkpt lat="43.72764" lon="7.08815">
        <ele>343.60000610352</ele>
        <time>2023-08-02T06:37:36.000Z</time>
      </trkpt>
      <trkpt lat="43.72761" lon="7.08821">
        <ele>343.60000610352</ele>
        <time>2023-08-02T06:37:37.000Z</time>
      </trkpt>
      <trkpt lat="43.72757" lon="7.08827">
        <ele>343.60000610352</ele>
        <time>2023-08-02T06:37:38.000Z</time>
      </trkpt>
      <trkpt lat="43.72754" lon="7.08831">
        <ele>343.39999389648</ele>
        <time>2023-08-02T06:37:39.000Z</time>
      </trkpt>
      <trkpt lat="43.7275" lon="7.08835">
        <ele>343.39999389648</ele>
        <time>2023-08-02T06:37:40.000Z</time>
      </trkpt>
      <trkpt lat="43.72747" lon="7.08839">
        <ele>343.60000610352</ele>
        <time>2023-08-02T06:37:41.000Z</time>
      </trkpt>
      <trkpt lat="43.72743" lon="7.08844">
        <ele>343.60000610352</ele>
        <time>2023-08-02T06:37:42.000Z</time>
      </trkpt>
      <trkpt lat="43.72739" lon="7.08848">
        <ele>343.60000610352</ele>
        <time>2023-08-02T06:37:43.000Z</time>
      </trkpt>
      <trkpt lat="43.72735" lon="7.08853">
        <ele>343.60000610352</ele>
        <time>2023-08-02T06:37:44.000Z</time>
      </trkpt>
      <trkpt lat="43.72731" lon="7.08857">
        <ele>343.60000610352</ele>
        <time>2023-08-02T06:37:45.000Z</time>
      </trkpt>
      <trkpt lat="43.72727" lon="7.08861">
        <ele>343.60000610352</ele>
        <time>2023-08-02T06:37:46.000Z</time>
      </trkpt>
      <trkpt lat="43.72723" lon="7.08866">
        <ele>343.79998779297</ele>
        <time>2023-08-02T06:37:47.000Z</time>
      </trkpt>
      <trkpt lat="43.72719" lon="7.08871">
        <ele>343.79998779297</ele>
        <time>2023-08-02T06:37:48.000Z</time>
      </trkpt>
      <trkpt lat="43.72714" lon="7.08876">
        <ele>343.79998779297</ele>
        <time>2023-08-02T06:37:49.000Z</time>
      </trkpt>
      <trkpt lat="43.72709" lon="7.08881">
        <ele>343.79998779297</ele>
        <time>2023-08-02T06:37:50.000Z</time>
      </trkpt>
      <trkpt lat="43.72704" lon="7.08885">
        <ele>343.79998779297</ele>
        <time>2023-08-02T06:37:51.000Z</time>
      </trkpt>
      <trkpt lat="43.727" lon="7.0889">
        <ele>344</ele>
        <time>2023-08-02T06:37:52.000Z</time>
      </trkpt>
      <trkpt lat="43.72695" lon="7.08895">
        <ele>344</ele>
        <time>2023-08-02T06:37:53.000Z</time>
      </trkpt>
      <trkpt lat="43.72691" lon="7.089">
        <ele>344</ele>
        <time>2023-08-02T06:37:54.000Z</time>
      </trkpt>
      <trkpt lat="43.72686" lon="7.08905">
        <ele>344</ele>
        <time>2023-08-02T06:37:55.000Z</time>
      </trkpt>
      <trkpt lat="43.72682" lon="7.08911">
        <ele>344</ele>
        <time>2023-08-02T06:37:56.000Z</time>
      </trkpt>
      <trkpt lat="43.72679" lon="7.08916">
        <ele>344</ele>
        <time>2023-08-02T06:37:57.000Z</time>
      </trkpt>
      <trkpt lat="43.72676" lon="7.08922">
        <ele>344</ele>
        <time>2023-08-02T06:37:58.000Z</time>
      </trkpt>
      <trkpt lat="43.72674" lon="7.0893">
        <ele>344</ele>
        <time>2023-08-02T06:37:59.000Z</time>
      </trkpt>
      <trkpt lat="43.72672" lon="7.08937">
        <ele>344</ele>
        <time>2023-08-02T06:38:00.000Z</time>
      </trkpt>
      <trkpt lat="43.72671" lon="7.08945">
        <ele>344</ele>
        <time>2023-08-02T06:38:01.000Z</time>
      </trkpt>
      <trkpt lat="43.7267" lon="7.08953">
        <ele>344</ele>
        <time>2023-08-02T06:38:02.000Z</time>
      </trkpt>
      <trkpt lat="43.7267" lon="7.0896">
        <ele>344</ele>
        <time>2023-08-02T06:38:03.000Z</time>
      </trkpt>
      <trkpt lat="43.72671" lon="7.08968">
        <ele>344</ele>
        <time>2023-08-02T06:38:04.000Z</time>
      </trkpt>
      <trkpt lat="43.72672" lon="7.08975">
        <ele>344</ele>
        <time>2023-08-02T06:38:05.000Z</time>
      </trkpt>
      <trkpt lat="43.72674" lon="7.08984">
        <ele>343.79998779297</ele>
        <time>2023-08-02T06:38:06.000Z</time>
      </trkpt>
      <trkpt lat="43.72675" lon="7.08992">
        <ele>343.79998779297</ele>
        <time>2023-08-02T06:38:07.000Z</time>
      </trkpt>
      <trkpt lat="43.72676" lon="7.09001">
        <ele>343.60000610352</ele>
        <time>2023-08-02T06:38:08.000Z</time>
      </trkpt>
      <trkpt lat="43.72677" lon="7.0901">
        <ele>343.60000610352</ele>
        <time>2023-08-02T06:38:09.000Z</time>
      </trkpt>
      <trkpt lat="43.72676" lon="7.09018">
        <ele>343.60000610352</ele>
        <time>2023-08-02T06:38:10.000Z</time>
      </trkpt>
      <trkpt lat="43.72673" lon="7.09026">
        <ele>343.60000610352</ele>
        <time>2023-08-02T06:38:11.000Z</time>
      </trkpt>
      <trkpt lat="43.72669" lon="7.09033">
        <ele>343.60000610352</ele>
        <time>2023-08-02T06:38:12.000Z</time>
      </trkpt>
      <trkpt lat="43.72665" lon="7.09038">
        <ele>343.60000610352</ele>
        <time>2023-08-02T06:38:13.000Z</time>
      </trkpt>
      <trkpt lat="43.7266" lon="7.09043">
        <ele>343.60000610352</ele>
        <time>2023-08-02T06:38:14.000Z</time>
      </trkpt>
      <trkpt lat="43.72655" lon="7.09048">
        <ele>343.60000610352</ele>
        <time>2023-08-02T06:38:15.000Z</time>
      </trkpt>
      <trkpt lat="43.72651" lon="7.09053">
        <ele>343.79998779297</ele>
        <time>2023-08-02T06:38:16.000Z</time>
      </trkpt>
      <trkpt lat="43.72646" lon="7.09057">
        <ele>343.79998779297</ele>
        <time>2023-08-02T06:38:17.000Z</time>
      </trkpt>
      <trkpt lat="43.72642" lon="7.09062">
        <ele>343.79998779297</ele>
        <time>2023-08-02T06:38:18.000Z</time>
      </trkpt>
      <trkpt lat="43.72637" lon="7.09068">
        <ele>343.79998779297</ele>
        <time>2023-08-02T06:38:19.000Z</time>
      </trkpt>
      <trkpt lat="43.72633" lon="7.09073">
        <ele>344</ele>
        <time>2023-08-02T06:38:20.000Z</time>
      </trkpt>
      <trkpt lat="43.72629" lon="7.09078">
        <ele>344</ele>
        <time>2023-08-02T06:38:21.000Z</time>
      </trkpt>
      <trkpt lat="43.72625" lon="7.09083">
        <ele>344</ele>
        <time>2023-08-02T06:38:22.000Z</time>
      </trkpt>
      <trkpt lat="43.72621" lon="7.09088">
        <ele>344</ele>
        <time>2023-08-02T06:38:23.000Z</time>
      </trkpt>
      <trkpt lat="43.72616" lon="7.09092">
        <ele>344</ele>
        <time>2023-08-02T06:38:24.000Z</time>
      </trkpt>
      <trkpt lat="43.72611" lon="7.09097">
        <ele>344.20001220703</ele>
        <time>2023-08-02T06:38:25.000Z</time>
      </trkpt>
      <trkpt lat="43.72607" lon="7.09102">
        <ele>344.20001220703</ele>
        <time>2023-08-02T06:38:26.000Z</time>
      </trkpt>
      <trkpt lat="43.72602" lon="7.09106">
        <ele>344</ele>
        <time>2023-08-02T06:38:27.000Z</time>
      </trkpt>
      <trkpt lat="43.72597" lon="7.09111">
        <ele>344</ele>
        <time>2023-08-02T06:38:28.000Z</time>
      </trkpt>
      <trkpt lat="43.72593" lon="7.09116">
        <ele>344</ele>
        <time>2023-08-02T06:38:29.000Z</time>
      </trkpt>
      <trkpt lat="43.72589" lon="7.09122">
        <ele>344</ele>
        <time>2023-08-02T06:38:30.000Z</time>
      </trkpt>
      <trkpt lat="43.72585" lon="7.09128">
        <ele>344</ele>
        <time>2023-08-02T06:38:31.000Z</time>
      </trkpt>
      <trkpt lat="43.72581" lon="7.09134">
        <ele>343.79998779297</ele>
        <time>2023-08-02T06:38:32.000Z</time>
      </trkpt>
      <trkpt lat="43.72577" lon="7.0914">
        <ele>343.60000610352</ele>
        <time>2023-08-02T06:38:33.000Z</time>
      </trkpt>
      <trkpt lat="43.72573" lon="7.09146">
        <ele>343.60000610352</ele>
        <time>2023-08-02T06:38:34.000Z</time>
      </trkpt>
      <trkpt lat="43.7257" lon="7.09153">
        <ele>343.60000610352</ele>
        <time>2023-08-02T06:38:35.000Z</time>
      </trkpt>
      <trkpt lat="43.72566" lon="7.09159">
        <ele>343.60000610352</ele>
        <time>2023-08-02T06:38:36.000Z</time>
      </trkpt>
      <trkpt lat="43.72562" lon="7.09165">
        <ele>343.39999389648</ele>
        <time>2023-08-02T06:38:37.000Z</time>
      </trkpt>
      <trkpt lat="43.72559" lon="7.09172">
        <ele>343.39999389648</ele>
        <time>2023-08-02T06:38:38.000Z</time>
      </trkpt>
      <trkpt lat="43.72557" lon="7.09178">
        <ele>343.20001220703</ele>
        <time>2023-08-02T06:38:39.000Z</time>
      </trkpt>
      <trkpt lat="43.72554" lon="7.09185">
        <ele>343.20001220703</ele>
        <time>2023-08-02T06:38:40.000Z</time>
      </trkpt>
      <trkpt lat="43.72552" lon="7.09192">
        <ele>343</ele>
        <time>2023-08-02T06:38:41.000Z</time>
      </trkpt>
      <trkpt lat="43.7255" lon="7.09199">
        <ele>343</ele>
        <time>2023-08-02T06:38:42.000Z</time>
      </trkpt>
      <trkpt lat="43.72548" lon="7.09205">
        <ele>343</ele>
        <time>2023-08-02T06:38:43.000Z</time>
      </trkpt>
      <trkpt lat="43.72546" lon="7.09212">
        <ele>343</ele>
        <time>2023-08-02T06:38:44.000Z</time>
      </trkpt>
      <trkpt lat="43.72545" lon="7.09218">
        <ele>343</ele>
        <time>2023-08-02T06:38:45.000Z</time>
      </trkpt>
      <trkpt lat="43.72544" lon="7.09224">
        <ele>342.79998779297</ele>
        <time>2023-08-02T06:38:46.000Z</time>
      </trkpt>
      <trkpt lat="43.72543" lon="7.0923">
        <ele>342.79998779297</ele>
        <time>2023-08-02T06:38:47.000Z</time>
      </trkpt>
      <trkpt lat="43.72542" lon="7.09236">
        <ele>343</ele>
        <time>2023-08-02T06:38:48.000Z</time>
      </trkpt>
      <trkpt lat="43.72541" lon="7.09242">
        <ele>343</ele>
        <time>2023-08-02T06:38:49.000Z</time>
      </trkpt>
      <trkpt lat="43.72541" lon="7.09249">
        <ele>342.79998779297</ele>
        <time>2023-08-02T06:38:50.000Z</time>
      </trkpt>
      <trkpt lat="43.7254" lon="7.09256">
        <ele>342.79998779297</ele>
        <time>2023-08-02T06:38:51.000Z</time>
      </trkpt>
      <trkpt lat="43.7254" lon="7.09263">
        <ele>342.79998779297</ele>
        <time>2023-08-02T06:38:52.000Z</time>
      </trkpt>
      <trkpt lat="43.72541" lon="7.09271">
        <ele>342.60000610352</ele>
        <time>2023-08-02T06:38:53.000Z</time>
      </trkpt>
      <trkpt lat="43.72542" lon="7.09278">
        <ele>342.39999389648</ele>
        <time>2023-08-02T06:38:54.000Z</time>
      </trkpt>
      <trkpt lat="43.72543" lon="7.09285">
        <ele>342.20001220703</ele>
        <time>2023-08-02T06:38:55.000Z</time>
      </trkpt>
      <trkpt lat="43.72544" lon="7.09292">
        <ele>342</ele>
        <time>2023-08-02T06:38:56.000Z</time>
      </trkpt>
      <trkpt lat="43.72545" lon="7.093">
        <ele>342</ele>
        <time>2023-08-02T06:38:57.000Z</time>
      </trkpt>
      <trkpt lat="43.72547" lon="7.09307">
        <ele>342</ele>
        <time>2023-08-02T06:38:58.000Z</time>
      </trkpt>
      <trkpt lat="43.72548" lon="7.09314">
        <ele>341.79998779297</ele>
        <time>2023-08-02T06:38:59.000Z</time>
      </trkpt>
      <trkpt lat="43.7255" lon="7.09321">
        <ele>341.79998779297</ele>
        <time>2023-08-02T06:39:00.000Z</time>
      </trkpt>
      <trkpt lat="43.72552" lon="7.09328">
        <ele>341.79998779297</ele>
        <time>2023-08-02T06:39:01.000Z</time>
      </trkpt>
      <trkpt lat="43.72553" lon="7.09335">
        <ele>341.79998779297</ele>
        <time>2023-08-02T06:39:02.000Z</time>
      </trkpt>
      <trkpt lat="43.72555" lon="7.09342">
        <ele>341.79998779297</ele>
        <time>2023-08-02T06:39:03.000Z</time>
      </trkpt>
      <trkpt lat="43.72557" lon="7.09348">
        <ele>341.79998779297</ele>
        <time>2023-08-02T06:39:04.000Z</time>
      </trkpt>
      <trkpt lat="43.72559" lon="7.09353">
        <ele>341.60000610352</ele>
        <time>2023-08-02T06:39:05.000Z</time>
      </trkpt>
      <trkpt lat="43.72561" lon="7.09356">
        <ele>341.39999389648</ele>
        <time>2023-08-02T06:39:06.000Z</time>
      </trkpt>
      <trkpt lat="43.72563" lon="7.09358">
        <ele>341.39999389648</ele>
        <time>2023-08-02T06:39:07.000Z</time>
      </trkpt>
      <trkpt lat="43.72566" lon="7.09358">
        <ele>341.39999389648</ele>
        <time>2023-08-02T06:39:08.000Z</time>
      </trkpt>
      <trkpt lat="43.72569" lon="7.09357">
        <ele>341.39999389648</ele>
        <time>2023-08-02T06:39:09.000Z</time>
      </trkpt>
      <trkpt lat="43.72571" lon="7.09355">
        <ele>341.20001220703</ele>
        <time>2023-08-02T06:39:10.000Z</time>
      </trkpt>
      <trkpt lat="43.72572" lon="7.09352">
        <ele>341.20001220703</ele>
        <time>2023-08-02T06:39:11.000Z</time>
      </trkpt>
      <trkpt lat="43.72573" lon="7.0935">
        <ele>341.20001220703</ele>
        <time>2023-08-02T06:39:12.000Z</time>
      </trkpt>
      <trkpt lat="43.72575" lon="7.09348">
        <ele>341.39999389648</ele>
        <time>2023-08-02T06:39:13.000Z</time>
      </trkpt>
      <trkpt lat="43.72576" lon="7.09346">
        <ele>341.79998779297</ele>
        <time>2023-08-02T06:39:14.000Z</time>
      </trkpt>
      <trkpt lat="43.72578" lon="7.09344">
        <ele>342</ele>
        <time>2023-08-02T06:39:15.000Z</time>
      </trkpt>
      <trkpt lat="43.7258" lon="7.09341">
        <ele>342.39999389648</ele>
        <time>2023-08-02T06:39:16.000Z</time>
      </trkpt>
      <trkpt lat="43.72581" lon="7.09339">
        <ele>342.79998779297</ele>
        <time>2023-08-02T06:39:17.000Z</time>
      </trkpt>
      <trkpt lat="43.72583" lon="7.09336">
        <ele>343.20001220703</ele>
        <time>2023-08-02T06:39:18.000Z</time>
      </trkpt>
      <trkpt lat="43.72585" lon="7.09334">
        <ele>343.60000610352</ele>
        <time>2023-08-02T06:39:19.000Z</time>
      </trkpt>
      <trkpt lat="43.72587" lon="7.09332">
        <ele>344.20001220703</ele>
        <time>2023-08-02T06:39:20.000Z</time>
      </trkpt>
      <trkpt lat="43.72588" lon="7.09329">
        <ele>344.60000610352</ele>
        <time>2023-08-02T06:39:21.000Z</time>
      </trkpt>
      <trkpt lat="43.72589" lon="7.09326">
        <ele>345.20001220703</ele>
        <time>2023-08-02T06:39:22.000Z</time>
      </trkpt>
      <trkpt lat="43.72591" lon="7.09324">
        <ele>345.20001220703</ele>
        <time>2023-08-02T06:39:23.000Z</time>
      </trkpt>
      <trkpt lat="43.72593" lon="7.09322">
        <ele>345.39999389648</ele>
        <time>2023-08-02T06:39:24.000Z</time>
      </trkpt>
      <trkpt lat="43.72595" lon="7.0932">
        <ele>346</ele>
        <time>2023-08-02T06:39:25.000Z</time>
      </trkpt>
      <trkpt lat="43.72597" lon="7.09318">
        <ele>346.60000610352</ele>
        <time>2023-08-02T06:39:26.000Z</time>
      </trkpt>
      <trkpt lat="43.72599" lon="7.09316">
        <ele>347.20001220703</ele>
        <time>2023-08-02T06:39:27.000Z</time>
      </trkpt>
      <trkpt lat="43.726" lon="7.09314">
        <ele>347.60000610352</ele>
        <time>2023-08-02T06:39:28.000Z</time>
      </trkpt>
      <trkpt lat="43.72602" lon="7.09312">
        <ele>348</ele>
        <time>2023-08-02T06:39:29.000Z</time>
      </trkpt>
      <trkpt lat="43.72603" lon="7.0931">
        <ele>348.39999389648</ele>
        <time>2023-08-02T06:39:30.000Z</time>
      </trkpt>
      <trkpt lat="43.72605" lon="7.09308">
        <ele>349</ele>
        <time>2023-08-02T06:39:31.000Z</time>
      </trkpt>
      <trkpt lat="43.72606" lon="7.09305">
        <ele>349.79998779297</ele>
        <time>2023-08-02T06:39:32.000Z</time>
      </trkpt>
      <trkpt lat="43.72608" lon="7.09303">
        <ele>350.39999389648</ele>
        <time>2023-08-02T06:39:33.000Z</time>
      </trkpt>
      <trkpt lat="43.7261" lon="7.09301">
        <ele>350.79998779297</ele>
        <time>2023-08-02T06:39:34.000Z</time>
      </trkpt>
      <trkpt lat="43.72612" lon="7.09299">
        <ele>351.20001220703</ele>
        <time>2023-08-02T06:39:35.000Z</time>
      </trkpt>
      <trkpt lat="43.72613" lon="7.09297">
        <ele>351.79998779297</ele>
        <time>2023-08-02T06:39:36.000Z</time>
      </trkpt>
      <trkpt lat="43.72615" lon="7.09296">
        <ele>352.20001220703</ele>
        <time>2023-08-02T06:39:37.000Z</time>
      </trkpt>
      <trkpt lat="43.72616" lon="7.09294">
        <ele>352.60000610352</ele>
        <time>2023-08-02T06:39:38.000Z</time>
      </trkpt>
      <trkpt lat="43.72618" lon="7.09292">
        <ele>353</ele>
        <time>2023-08-02T06:39:39.000Z</time>
      </trkpt>
      <trkpt lat="43.72619" lon="7.0929">
        <ele>353.60000610352</ele>
        <time>2023-08-02T06:39:40.000Z</time>
      </trkpt>
      <trkpt lat="43.72621" lon="7.09288">
        <ele>354</ele>
        <time>2023-08-02T06:39:41.000Z</time>
      </trkpt>
      <trkpt lat="43.72623" lon="7.09286">
        <ele>354.79998779297</ele>
        <time>2023-08-02T06:39:42.000Z</time>
      </trkpt>
      <trkpt lat="43.72625" lon="7.09284">
        <ele>355</ele>
        <time>2023-08-02T06:39:43.000Z</time>
      </trkpt>
      <trkpt lat="43.72627" lon="7.09282">
        <ele>355.79998779297</ele>
        <time>2023-08-02T06:39:44.000Z</time>
      </trkpt>
      <trkpt lat="43.72629" lon="7.0928">
        <ele>356.20001220703</ele>
        <time>2023-08-02T06:39:45.000Z</time>
      </trkpt>
      <trkpt lat="43.72631" lon="7.09279">
        <ele>356.20001220703</ele>
        <time>2023-08-02T06:39:46.000Z</time>
      </trkpt>
      <trkpt lat="43.72633" lon="7.09277">
        <ele>356.79998779297</ele>
        <time>2023-08-02T06:39:47.000Z</time>
      </trkpt>
      <trkpt lat="43.72634" lon="7.09275">
        <ele>357.20001220703</ele>
        <time>2023-08-02T06:39:48.000Z</time>
      </trkpt>
      <trkpt lat="43.72637" lon="7.09275">
        <ele>357.79998779297</ele>
        <time>2023-08-02T06:39:49.000Z</time>
      </trkpt>
      <trkpt lat="43.72639" lon="7.09274">
        <ele>358.39999389648</ele>
        <time>2023-08-02T06:39:50.000Z</time>
      </trkpt>
      <trkpt lat="43.72642" lon="7.09275">
        <ele>358.79998779297</ele>
        <time>2023-08-02T06:39:51.000Z</time>
      </trkpt>
      <trkpt lat="43.72644" lon="7.09275">
        <ele>359.39999389648</ele>
        <time>2023-08-02T06:39:52.000Z</time>
      </trkpt>
      <trkpt lat="43.72646" lon="7.09275">
        <ele>359.79998779297</ele>
        <time>2023-08-02T06:39:53.000Z</time>
      </trkpt>
      <trkpt lat="43.72648" lon="7.09275">
        <ele>360.39999389648</ele>
        <time>2023-08-02T06:39:54.000Z</time>
      </trkpt>
      <trkpt lat="43.7265" lon="7.09275">
        <ele>360.79998779297</ele>
        <time>2023-08-02T06:39:55.000Z</time>
      </trkpt>
      <trkpt lat="43.72652" lon="7.09274">
        <ele>361.39999389648</ele>
        <time>2023-08-02T06:39:56.000Z</time>
      </trkpt>
      <trkpt lat="43.72654" lon="7.09275">
        <ele>362</ele>
        <time>2023-08-02T06:39:57.000Z</time>
      </trkpt>
      <trkpt lat="43.72657" lon="7.09275">
        <ele>362.39999389648</ele>
        <time>2023-08-02T06:39:58.000Z</time>
      </trkpt>
      <trkpt lat="43.72659" lon="7.09275">
        <ele>362.79998779297</ele>
        <time>2023-08-02T06:39:59.000Z</time>
      </trkpt>
      <trkpt lat="43.72662" lon="7.09275">
        <ele>363.60000610352</ele>
        <time>2023-08-02T06:40:00.000Z</time>
      </trkpt>
      <trkpt lat="43.72664" lon="7.09275">
        <ele>364.20001220703</ele>
        <time>2023-08-02T06:40:01.000Z</time>
      </trkpt>
      <trkpt lat="43.72666" lon="7.09274">
        <ele>364.60000610352</ele>
        <time>2023-08-02T06:40:02.000Z</time>
      </trkpt>
      <trkpt lat="43.72668" lon="7.09274">
        <ele>365</ele>
        <time>2023-08-02T06:40:03.000Z</time>
      </trkpt>
      <trkpt lat="43.7267" lon="7.09274">
        <ele>365.60000610352</ele>
        <time>2023-08-02T06:40:04.000Z</time>
      </trkpt>
      <trkpt lat="43.72671" lon="7.09274">
        <ele>366.20001220703</ele>
        <time>2023-08-02T06:40:05.000Z</time>
      </trkpt>
      <trkpt lat="43.72673" lon="7.09274">
        <ele>366.79998779297</ele>
        <time>2023-08-02T06:40:06.000Z</time>
      </trkpt>
      <trkpt lat="43.72675" lon="7.09275">
        <ele>367.39999389648</ele>
        <time>2023-08-02T06:40:07.000Z</time>
      </trkpt>
      <trkpt lat="43.72678" lon="7.09275">
        <ele>368</ele>
        <time>2023-08-02T06:40:08.000Z</time>
      </trkpt>
      <trkpt lat="43.72679" lon="7.09275">
        <ele>368.60000610352</ele>
        <time>2023-08-02T06:40:09.000Z</time>
      </trkpt>
      <trkpt lat="43.72681" lon="7.09275">
        <ele>368.60000610352</ele>
        <time>2023-08-02T06:40:10.000Z</time>
      </trkpt>
      <trkpt lat="43.72684" lon="7.09275">
        <ele>369.20001220703</ele>
        <time>2023-08-02T06:40:11.000Z</time>
      </trkpt>
      <trkpt lat="43.72686" lon="7.09275">
        <ele>369.60000610352</ele>
        <time>2023-08-02T06:40:12.000Z</time>
      </trkpt>
      <trkpt lat="43.72688" lon="7.09276">
        <ele>370.20001220703</ele>
        <time>2023-08-02T06:40:13.000Z</time>
      </trkpt>
      <trkpt lat="43.72691" lon="7.09276">
        <ele>370.60000610352</ele>
        <time>2023-08-02T06:40:14.000Z</time>
      </trkpt>
      <trkpt lat="43.72693" lon="7.09276">
        <ele>371</ele>
        <time>2023-08-02T06:40:15.000Z</time>
      </trkpt>
      <trkpt lat="43.72696" lon="7.09276">
        <ele>371.39999389648</ele>
        <time>2023-08-02T06:40:16.000Z</time>
      </trkpt>
      <trkpt lat="43.72698" lon="7.09276">
        <ele>371.79998779297</ele>
        <time>2023-08-02T06:40:17.000Z</time>
      </trkpt>
      <trkpt lat="43.727" lon="7.09276">
        <ele>372.39999389648</ele>
        <time>2023-08-02T06:40:18.000Z</time>
      </trkpt>
      <trkpt lat="43.72702" lon="7.09275">
        <ele>373</ele>
        <time>2023-08-02T06:40:19.000Z</time>
      </trkpt>
      <trkpt lat="43.72705" lon="7.09274">
        <ele>373.39999389648</ele>
        <time>2023-08-02T06:40:20.000Z</time>
      </trkpt>
      <trkpt lat="43.72706" lon="7.09274">
        <ele>373.79998779297</ele>
        <time>2023-08-02T06:40:21.000Z</time>
      </trkpt>
      <trkpt lat="43.72708" lon="7.09273">
        <ele>374.20001220703</ele>
        <time>2023-08-02T06:40:22.000Z</time>
      </trkpt>
      <trkpt lat="43.7271" lon="7.09271">
        <ele>374.60000610352</ele>
        <time>2023-08-02T06:40:23.000Z</time>
      </trkpt>
      <trkpt lat="43.72712" lon="7.0927">
        <ele>375</ele>
        <time>2023-08-02T06:40:24.000Z</time>
      </trkpt>
      <trkpt lat="43.72714" lon="7.09268">
        <ele>375.39999389648</ele>
        <time>2023-08-02T06:40:25.000Z</time>
      </trkpt>
      <trkpt lat="43.72716" lon="7.09267">
        <ele>375.79998779297</ele>
        <time>2023-08-02T06:40:26.000Z</time>
      </trkpt>
      <trkpt lat="43.72717" lon="7.09266">
        <ele>376</ele>
        <time>2023-08-02T06:40:27.000Z</time>
      </trkpt>
      <trkpt lat="43.72719" lon="7.09264">
        <ele>376.60000610352</ele>
        <time>2023-08-02T06:40:28.000Z</time>
      </trkpt>
      <trkpt lat="43.7272" lon="7.09262">
        <ele>376.79998779297</ele>
        <time>2023-08-02T06:40:29.000Z</time>
      </trkpt>
      <trkpt lat="43.72722" lon="7.09261">
        <ele>377.20001220703</ele>
        <time>2023-08-02T06:40:30.000Z</time>
      </trkpt>
      <trkpt lat="43.72724" lon="7.0926">
        <ele>377.60000610352</ele>
        <time>2023-08-02T06:40:31.000Z</time>
      </trkpt>
      <trkpt lat="43.72726" lon="7.09259">
        <ele>378.20001220703</ele>
        <time>2023-08-02T06:40:32.000Z</time>
      </trkpt>
      <trkpt lat="43.72727" lon="7.09259">
        <ele>378.20001220703</ele>
        <time>2023-08-02T06:40:33.000Z</time>
      </trkpt>
      <trkpt lat="43.72729" lon="7.09258">
        <ele>378.79998779297</ele>
        <time>2023-08-02T06:40:34.000Z</time>
      </trkpt>
      <trkpt lat="43.72731" lon="7.09256">
        <ele>379.20001220703</ele>
        <time>2023-08-02T06:40:35.000Z</time>
      </trkpt>
      <trkpt lat="43.72733" lon="7.09255">
        <ele>379.60000610352</ele>
        <time>2023-08-02T06:40:36.000Z</time>
      </trkpt>
      <trkpt lat="43.72734" lon="7.09254">
        <ele>380</ele>
        <time>2023-08-02T06:40:37.000Z</time>
      </trkpt>
      <trkpt lat="43.72736" lon="7.09254">
        <ele>380.39999389648</ele>
        <time>2023-08-02T06:40:38.000Z</time>
      </trkpt>
      <trkpt lat="43.72738" lon="7.09255">
        <ele>381</ele>
        <time>2023-08-02T06:40:39.000Z</time>
      </trkpt>
      <trkpt lat="43.7274" lon="7.09256">
        <ele>381.20001220703</ele>
        <time>2023-08-02T06:40:40.000Z</time>
      </trkpt>
      <trkpt lat="43.72741" lon="7.09257">
        <ele>381.60000610352</ele>
        <time>2023-08-02T06:40:41.000Z</time>
      </trkpt>
      <trkpt lat="43.72744" lon="7.09258">
        <ele>381.79998779297</ele>
        <time>2023-08-02T06:40:42.000Z</time>
      </trkpt>
      <trkpt lat="43.72746" lon="7.09258">
        <ele>382</ele>
        <time>2023-08-02T06:40:43.000Z</time>
      </trkpt>
      <trkpt lat="43.72748" lon="7.09259">
        <ele>382.39999389648</ele>
        <time>2023-08-02T06:40:44.000Z</time>
      </trkpt>
      <trkpt lat="43.72751" lon="7.0926">
        <ele>383</ele>
        <time>2023-08-02T06:40:45.000Z</time>
      </trkpt>
      <trkpt lat="43.72753" lon="7.0926">
        <ele>383.39999389648</ele>
        <time>2023-08-02T06:40:46.000Z</time>
      </trkpt>
      <trkpt lat="43.72755" lon="7.0926">
        <ele>383.79998779297</ele>
        <time>2023-08-02T06:40:47.000Z</time>
      </trkpt>
      <trkpt lat="43.72758" lon="7.09261">
        <ele>384.20001220703</ele>
        <time>2023-08-02T06:40:48.000Z</time>
      </trkpt>
      <trkpt lat="43.7276" lon="7.09262">
        <ele>384.60000610352</ele>
        <time>2023-08-02T06:40:49.000Z</time>
      </trkpt>
      <trkpt lat="43.72762" lon="7.09262">
        <ele>385</ele>
        <time>2023-08-02T06:40:50.000Z</time>
      </trkpt>
      <trkpt lat="43.72765" lon="7.09263">
        <ele>385.60000610352</ele>
        <time>2023-08-02T06:40:51.000Z</time>
      </trkpt>
      <trkpt lat="43.72767" lon="7.09263">
        <ele>385.79998779297</ele>
        <time>2023-08-02T06:40:52.000Z</time>
      </trkpt>
      <trkpt lat="43.72769" lon="7.09263">
        <ele>386.39999389648</ele>
        <time>2023-08-02T06:40:53.000Z</time>
      </trkpt>
      <trkpt lat="43.72771" lon="7.09264">
        <ele>386.79998779297</ele>
        <time>2023-08-02T06:40:54.000Z</time>
      </trkpt>
      <trkpt lat="43.72773" lon="7.09265">
        <ele>387.20001220703</ele>
        <time>2023-08-02T06:40:55.000Z</time>
      </trkpt>
      <trkpt lat="43.72775" lon="7.09266">
        <ele>387.79998779297</ele>
        <time>2023-08-02T06:40:56.000Z</time>
      </trkpt>
      <trkpt lat="43.72776" lon="7.09266">
        <ele>387.79998779297</ele>
        <time>2023-08-02T06:40:57.000Z</time>
      </trkpt>
      <trkpt lat="43.72778" lon="7.09266">
        <ele>388.20001220703</ele>
        <time>2023-08-02T06:40:58.000Z</time>
      </trkpt>
      <trkpt lat="43.7278" lon="7.09266">
        <ele>388.60000610352</ele>
        <time>2023-08-02T06:40:59.000Z</time>
      </trkpt>
      <trkpt lat="43.72782" lon="7.09267">
        <ele>389</ele>
        <time>2023-08-02T06:41:00.000Z</time>
      </trkpt>
      <trkpt lat="43.72785" lon="7.09267">
        <ele>389.39999389648</ele>
        <time>2023-08-02T06:41:01.000Z</time>
      </trkpt>
      <trkpt lat="43.72787" lon="7.09268">
        <ele>389.79998779297</ele>
        <time>2023-08-02T06:41:02.000Z</time>
      </trkpt>
      <trkpt lat="43.72789" lon="7.09268">
        <ele>390.20001220703</ele>
        <time>2023-08-02T06:41:03.000Z</time>
      </trkpt>
      <trkpt lat="43.72791" lon="7.09269">
        <ele>390.39999389648</ele>
        <time>2023-08-02T06:41:04.000Z</time>
      </trkpt>
      <trkpt lat="43.72793" lon="7.09269">
        <ele>390.79998779297</ele>
        <time>2023-08-02T06:41:05.000Z</time>
      </trkpt>
      <trkpt lat="43.72795" lon="7.0927">
        <ele>391.20001220703</ele>
        <time>2023-08-02T06:41:06.000Z</time>
      </trkpt>
      <trkpt lat="43.72798" lon="7.0927">
        <ele>391.60000610352</ele>
        <time>2023-08-02T06:41:07.000Z</time>
      </trkpt>
      <trkpt lat="43.728" lon="7.0927">
        <ele>391.79998779297</ele>
        <time>2023-08-02T06:41:08.000Z</time>
      </trkpt>
      <trkpt lat="43.72801" lon="7.0927">
        <ele>392.39999389648</ele>
        <time>2023-08-02T06:41:09.000Z</time>
      </trkpt>
      <trkpt lat="43.72804" lon="7.09271">
        <ele>392.79998779297</ele>
        <time>2023-08-02T06:41:10.000Z</time>
      </trkpt>
      <trkpt lat="43.72806" lon="7.09271">
        <ele>393.20001220703</ele>
        <time>2023-08-02T06:41:11.000Z</time>
      </trkpt>
      <trkpt lat="43.72808" lon="7.09271">
        <ele>393.60000610352</ele>
        <time>2023-08-02T06:41:12.000Z</time>
      </trkpt>
      <trkpt lat="43.7281" lon="7.09272">
        <ele>394</ele>
        <time>2023-08-02T06:41:13.000Z</time>
      </trkpt>
      <trkpt lat="43.72813" lon="7.09273">
        <ele>394.20001220703</ele>
        <time>2023-08-02T06:41:14.000Z</time>
      </trkpt>
      <trkpt lat="43.72814" lon="7.09273">
        <ele>394.60000610352</ele>
        <time>2023-08-02T06:41:15.000Z</time>
      </trkpt>
      <trkpt lat="43.72816" lon="7.09274">
        <ele>395</ele>
        <time>2023-08-02T06:41:16.000Z</time>
      </trkpt>
      <trkpt lat="43.72818" lon="7.09274">
        <ele>395.39999389648</ele>
        <time>2023-08-02T06:41:17.000Z</time>
      </trkpt>
      <trkpt lat="43.72821" lon="7.09275">
        <ele>395.79998779297</ele>
        <time>2023-08-02T06:41:18.000Z</time>
      </trkpt>
      <trkpt lat="43.72822" lon="7.09275">
        <ele>396.20001220703</ele>
        <time>2023-08-02T06:41:19.000Z</time>
      </trkpt>
      <trkpt lat="43.72825" lon="7.09275">
        <ele>396.20001220703</ele>
        <time>2023-08-02T06:41:20.000Z</time>
      </trkpt>
      <trkpt lat="43.72826" lon="7.09275">
        <ele>396.60000610352</ele>
        <time>2023-08-02T06:41:21.000Z</time>
      </trkpt>
      <trkpt lat="43.72828" lon="7.09275">
        <ele>397</ele>
        <time>2023-08-02T06:41:22.000Z</time>
      </trkpt>
      <trkpt lat="43.72831" lon="7.09275">
        <ele>397.39999389648</ele>
        <time>2023-08-02T06:41:23.000Z</time>
      </trkpt>
      <trkpt lat="43.72833" lon="7.09275">
        <ele>397.79998779297</ele>
        <time>2023-08-02T06:41:24.000Z</time>
      </trkpt>
      <trkpt lat="43.72835" lon="7.09274">
        <ele>398.20001220703</ele>
        <time>2023-08-02T06:41:25.000Z</time>
      </trkpt>
      <trkpt lat="43.72837" lon="7.09273">
        <ele>398.79998779297</ele>
        <time>2023-08-02T06:41:26.000Z</time>
      </trkpt>
      <trkpt lat="43.72839" lon="7.09272">
        <ele>399.20001220703</ele>
        <time>2023-08-02T06:41:27.000Z</time>
      </trkpt>
      <trkpt lat="43.72841" lon="7.0927">
        <ele>399.60000610352</ele>
        <time>2023-08-02T06:41:28.000Z</time>
      </trkpt>
      <trkpt lat="43.72842" lon="7.09269">
        <ele>400.20001220703</ele>
        <time>2023-08-02T06:41:29.000Z</time>
      </trkpt>
      <trkpt lat="43.72844" lon="7.09268">
        <ele>400.60000610352</ele>
        <time>2023-08-02T06:41:30.000Z</time>
      </trkpt>
      <trkpt lat="43.72846" lon="7.09268">
        <ele>401</ele>
        <time>2023-08-02T06:41:31.000Z</time>
      </trkpt>
      <trkpt lat="43.72848" lon="7.09268">
        <ele>401.20001220703</ele>
        <time>2023-08-02T06:41:32.000Z</time>
      </trkpt>
      <trkpt lat="43.7285" lon="7.09269">
        <ele>401.60000610352</ele>
        <time>2023-08-02T06:41:33.000Z</time>
      </trkpt>
      <trkpt lat="43.72852" lon="7.09269">
        <ele>401.79998779297</ele>
        <time>2023-08-02T06:41:34.000Z</time>
      </trkpt>
      <trkpt lat="43.72854" lon="7.09269">
        <ele>402.20001220703</ele>
        <time>2023-08-02T06:41:35.000Z</time>
      </trkpt>
      <trkpt lat="43.72856" lon="7.0927">
        <ele>402.39999389648</ele>
        <time>2023-08-02T06:41:36.000Z</time>
      </trkpt>
      <trkpt lat="43.72857" lon="7.0927">
        <ele>402.79998779297</ele>
        <time>2023-08-02T06:41:37.000Z</time>
      </trkpt>
      <trkpt lat="43.72859" lon="7.0927">
        <ele>403</ele>
        <time>2023-08-02T06:41:38.000Z</time>
      </trkpt>
      <trkpt lat="43.72861" lon="7.0927">
        <ele>403.39999389648</ele>
        <time>2023-08-02T06:41:39.000Z</time>
      </trkpt>
      <trkpt lat="43.72863" lon="7.09269">
        <ele>403.79998779297</ele>
        <time>2023-08-02T06:41:40.000Z</time>
      </trkpt>
      <trkpt lat="43.72865" lon="7.09269">
        <ele>404.20001220703</ele>
        <time>2023-08-02T06:41:41.000Z</time>
      </trkpt>
      <trkpt lat="43.72867" lon="7.09268">
        <ele>404.60000610352</ele>
        <time>2023-08-02T06:41:42.000Z</time>
      </trkpt>
      <trkpt lat="43.72869" lon="7.09267">
        <ele>405</ele>
        <time>2023-08-02T06:41:43.000Z</time>
      </trkpt>
      <trkpt lat="43.7287" lon="7.09266">
        <ele>405</ele>
        <time>2023-08-02T06:41:44.000Z</time>
      </trkpt>
      <trkpt lat="43.72873" lon="7.09265">
        <ele>405.20001220703</ele>
        <time>2023-08-02T06:41:45.000Z</time>
      </trkpt>
      <trkpt lat="43.72874" lon="7.09265">
        <ele>405.39999389648</ele>
        <time>2023-08-02T06:41:46.000Z</time>
      </trkpt>
      <trkpt lat="43.72876" lon="7.09265">
        <ele>405.79998779297</ele>
        <time>2023-08-02T06:41:47.000Z</time>
      </trkpt>
      <trkpt lat="43.72877" lon="7.09264">
        <ele>406.39999389648</ele>
        <time>2023-08-02T06:41:48.000Z</time>
      </trkpt>
      <trkpt lat="43.72879" lon="7.09263">
        <ele>407</ele>
        <time>2023-08-02T06:41:49.000Z</time>
      </trkpt>
      <trkpt lat="43.7288" lon="7.09263">
        <ele>407.39999389648</ele>
        <time>2023-08-02T06:41:50.000Z</time>
      </trkpt>
      <trkpt lat="43.72881" lon="7.09263">
        <ele>408</ele>
        <time>2023-08-02T06:41:51.000Z</time>
      </trkpt>
      <trkpt lat="43.72882" lon="7.09262">
        <ele>408.20001220703</ele>
        <time>2023-08-02T06:41:52.000Z</time>
      </trkpt>
      <trkpt lat="43.72883" lon="7.09262">
        <ele>408.60000610352</ele>
        <time>2023-08-02T06:41:53.000Z</time>
      </trkpt>
      <trkpt lat="43.72884" lon="7.09262">
        <ele>408.60000610352</ele>
        <time>2023-08-02T06:41:54.000Z</time>
      </trkpt>
      <trkpt lat="43.72885" lon="7.09262">
        <ele>408.60000610352</ele>
        <time>2023-08-02T06:41:55.000Z</time>
      </trkpt>
      <trkpt lat="43.72886" lon="7.09262">
        <ele>408.60000610352</ele>
        <time>2023-08-02T06:41:56.000Z</time>
      </trkpt>
      <trkpt lat="43.72887" lon="7.09261">
        <ele>408.60000610352</ele>
        <time>2023-08-02T06:41:57.000Z</time>
      </trkpt>
      <trkpt lat="43.72889" lon="7.09259">
        <ele>408.60000610352</ele>
        <time>2023-08-02T06:41:58.000Z</time>
      </trkpt>
      <trkpt lat="43.7289" lon="7.09258">
        <ele>408.79998779297</ele>
        <time>2023-08-02T06:41:59.000Z</time>
      </trkpt>
      <trkpt lat="43.72892" lon="7.09256">
        <ele>408.79998779297</ele>
        <time>2023-08-02T06:42:00.000Z</time>
      </trkpt>
      <trkpt lat="43.72894" lon="7.09255">
        <ele>408.79998779297</ele>
        <time>2023-08-02T06:42:01.000Z</time>
      </trkpt>
      <trkpt lat="43.72895" lon="7.09253">
        <ele>408.79998779297</ele>
        <time>2023-08-02T06:42:02.000Z</time>
      </trkpt>
      <trkpt lat="43.72896" lon="7.09251">
        <ele>409</ele>
        <time>2023-08-02T06:42:03.000Z</time>
      </trkpt>
      <trkpt lat="43.72897" lon="7.09249">
        <ele>409.39999389648</ele>
        <time>2023-08-02T06:42:04.000Z</time>
      </trkpt>
      <trkpt lat="43.72899" lon="7.09248">
        <ele>409.60000610352</ele>
        <time>2023-08-02T06:42:05.000Z</time>
      </trkpt>
      <trkpt lat="43.729" lon="7.09246">
        <ele>410</ele>
        <time>2023-08-02T06:42:06.000Z</time>
      </trkpt>
      <trkpt lat="43.72902" lon="7.09245">
        <ele>410</ele>
        <time>2023-08-02T06:42:07.000Z</time>
      </trkpt>
      <trkpt lat="43.72904" lon="7.09244">
        <ele>410.20001220703</ele>
        <time>2023-08-02T06:42:08.000Z</time>
      </trkpt>
      <trkpt lat="43.72905" lon="7.09242">
        <ele>410.60000610352</ele>
        <time>2023-08-02T06:42:09.000Z</time>
      </trkpt>
      <trkpt lat="43.72906" lon="7.09241">
        <ele>410.79998779297</ele>
        <time>2023-08-02T06:42:10.000Z</time>
      </trkpt>
      <trkpt lat="43.72906" lon="7.09239">
        <ele>411</ele>
        <time>2023-08-02T06:42:11.000Z</time>
      </trkpt>
      <trkpt lat="43.72905" lon="7.09241">
        <ele>411.20001220703</ele>
        <time>2023-08-02T06:42:12.000Z</time>
      </trkpt>
      <trkpt lat="43.72905" lon="7.09241">
        <ele>411.20001220703</ele>
        <time>2023-08-02T06:42:13.000Z</time>
      </trkpt>
      <trkpt lat="43.72904" lon="7.09242">
        <ele>411.60000610352</ele>
        <time>2023-08-02T06:42:14.000Z</time>
      </trkpt>
      <trkpt lat="43.72903" lon="7.09243">
        <ele>411.60000610352</ele>
        <time>2023-08-02T06:42:15.000Z</time>
      </trkpt>
      <trkpt lat="43.72902" lon="7.09245">
        <ele>411.60000610352</ele>
        <time>2023-08-02T06:42:16.000Z</time>
      </trkpt>
      <trkpt lat="43.72901" lon="7.09247">
        <ele>411.60000610352</ele>
        <time>2023-08-02T06:42:17.000Z</time>
      </trkpt>
      <trkpt lat="43.72898" lon="7.0925">
        <ele>411.60000610352</ele>
        <time>2023-08-02T06:42:18.000Z</time>
      </trkpt>
      <trkpt lat="43.72895" lon="7.09253">
        <ele>411.39999389648</ele>
        <time>2023-08-02T06:42:19.000Z</time>
      </trkpt>
      <trkpt lat="43.72893" lon="7.09255">
        <ele>411.20001220703</ele>
        <time>2023-08-02T06:42:20.000Z</time>
      </trkpt>
      <trkpt lat="43.72893" lon="7.09258">
        <ele>411</ele>
        <time>2023-08-02T06:42:21.000Z</time>
      </trkpt>
      <trkpt lat="43.72894" lon="7.09263">
        <ele>410.79998779297</ele>
        <time>2023-08-02T06:42:22.000Z</time>
      </trkpt>
      <trkpt lat="43.72897" lon="7.09266">
        <ele>410.39999389648</ele>
        <time>2023-08-02T06:42:23.000Z</time>
      </trkpt>
      <trkpt lat="43.72899" lon="7.09268">
        <ele>410</ele>
        <time>2023-08-02T06:42:24.000Z</time>
      </trkpt>
      <trkpt lat="43.72902" lon="7.09268">
        <ele>410</ele>
        <time>2023-08-02T06:42:25.000Z</time>
      </trkpt>
      <trkpt lat="43.72905" lon="7.09269">
        <ele>409.39999389648</ele>
        <time>2023-08-02T06:42:26.000Z</time>
      </trkpt>
      <trkpt lat="43.72908" lon="7.0927">
        <ele>409</ele>
        <time>2023-08-02T06:42:27.000Z</time>
      </trkpt>
      <trkpt lat="43.72911" lon="7.09272">
        <ele>408.79998779297</ele>
        <time>2023-08-02T06:42:28.000Z</time>
      </trkpt>
      <trkpt lat="43.72914" lon="7.09273">
        <ele>408.79998779297</ele>
        <time>2023-08-02T06:42:29.000Z</time>
      </trkpt>
      <trkpt lat="43.72918" lon="7.09274">
        <ele>408.79998779297</ele>
        <time>2023-08-02T06:42:30.000Z</time>
      </trkpt>
      <trkpt lat="43.72921" lon="7.09276">
        <ele>408.79998779297</ele>
        <time>2023-08-02T06:42:31.000Z</time>
      </trkpt>
      <trkpt lat="43.72923" lon="7.09278">
        <ele>408.79998779297</ele>
        <time>2023-08-02T06:42:32.000Z</time>
      </trkpt>
      <trkpt lat="43.72925" lon="7.09281">
        <ele>408.79998779297</ele>
        <time>2023-08-02T06:42:33.000Z</time>
      </trkpt>
      <trkpt lat="43.72928" lon="7.09284">
        <ele>408.79998779297</ele>
        <time>2023-08-02T06:42:34.000Z</time>
      </trkpt>
      <trkpt lat="43.7293" lon="7.09287">
        <ele>408.79998779297</ele>
        <time>2023-08-02T06:42:35.000Z</time>
      </trkpt>
      <trkpt lat="43.72933" lon="7.09289">
        <ele>408.79998779297</ele>
        <time>2023-08-02T06:42:36.000Z</time>
      </trkpt>
      <trkpt lat="43.72935" lon="7.09291">
        <ele>408.79998779297</ele>
        <time>2023-08-02T06:42:37.000Z</time>
      </trkpt>
      <trkpt lat="43.72938" lon="7.09294">
        <ele>408.79998779297</ele>
        <time>2023-08-02T06:42:38.000Z</time>
      </trkpt>
      <trkpt lat="43.7294" lon="7.09297">
        <ele>409</ele>
        <time>2023-08-02T06:42:39.000Z</time>
      </trkpt>
      <trkpt lat="43.72943" lon="7.093">
        <ele>409</ele>
        <time>2023-08-02T06:42:40.000Z</time>
      </trkpt>
      <trkpt lat="43.72945" lon="7.09303">
        <ele>409.20001220703</ele>
        <time>2023-08-02T06:42:41.000Z</time>
      </trkpt>
      <trkpt lat="43.72947" lon="7.09307">
        <ele>409.20001220703</ele>
        <time>2023-08-02T06:42:42.000Z</time>
      </trkpt>
      <trkpt lat="43.7295" lon="7.0931">
        <ele>409.20001220703</ele>
        <time>2023-08-02T06:42:43.000Z</time>
      </trkpt>
      <trkpt lat="43.72952" lon="7.09313">
        <ele>409.39999389648</ele>
        <time>2023-08-02T06:42:44.000Z</time>
      </trkpt>
      <trkpt lat="43.72954" lon="7.09316">
        <ele>409.39999389648</ele>
        <time>2023-08-02T06:42:45.000Z</time>
      </trkpt>
      <trkpt lat="43.72957" lon="7.09319">
        <ele>409.39999389648</ele>
        <time>2023-08-02T06:42:46.000Z</time>
      </trkpt>
      <trkpt lat="43.72959" lon="7.09322">
        <ele>409.60000610352</ele>
        <time>2023-08-02T06:42:47.000Z</time>
      </trkpt>
      <trkpt lat="43.72961" lon="7.09325">
        <ele>409.60000610352</ele>
        <time>2023-08-02T06:42:48.000Z</time>
      </trkpt>
      <trkpt lat="43.72963" lon="7.09328">
        <ele>409.79998779297</ele>
        <time>2023-08-02T06:42:49.000Z</time>
      </trkpt>
      <trkpt lat="43.72965" lon="7.09332">
        <ele>409.79998779297</ele>
        <time>2023-08-02T06:42:50.000Z</time>
      </trkpt>
      <trkpt lat="43.72967" lon="7.09335">
        <ele>409.79998779297</ele>
        <time>2023-08-02T06:42:51.000Z</time>
      </trkpt>
      <trkpt lat="43.72969" lon="7.09339">
        <ele>409.79998779297</ele>
        <time>2023-08-02T06:42:52.000Z</time>
      </trkpt>
      <trkpt lat="43.72971" lon="7.09343">
        <ele>410</ele>
        <time>2023-08-02T06:42:53.000Z</time>
      </trkpt>
      <trkpt lat="43.72973" lon="7.09346">
        <ele>410</ele>
        <time>2023-08-02T06:42:54.000Z</time>
      </trkpt>
      <trkpt lat="43.72975" lon="7.09351">
        <ele>410</ele>
        <time>2023-08-02T06:42:55.000Z</time>
      </trkpt>
      <trkpt lat="43.72976" lon="7.09355">
        <ele>410</ele>
        <time>2023-08-02T06:42:56.000Z</time>
      </trkpt>
      <trkpt lat="43.72977" lon="7.09359">
        <ele>410</ele>
        <time>2023-08-02T06:42:57.000Z</time>
      </trkpt>
      <trkpt lat="43.72979" lon="7.09363">
        <ele>410</ele>
        <time>2023-08-02T06:42:58.000Z</time>
      </trkpt>
      <trkpt lat="43.7298" lon="7.09367">
        <ele>410</ele>
        <time>2023-08-02T06:42:59.000Z</time>
      </trkpt>
      <trkpt lat="43.7298" lon="7.09372">
        <ele>410</ele>
        <time>2023-08-02T06:43:00.000Z</time>
      </trkpt>
      <trkpt lat="43.72981" lon="7.09377">
        <ele>410</ele>
        <time>2023-08-02T06:43:01.000Z</time>
      </trkpt>
      <trkpt lat="43.72981" lon="7.09383">
        <ele>410</ele>
        <time>2023-08-02T06:43:02.000Z</time>
      </trkpt>
      <trkpt lat="43.7298" lon="7.09388">
        <ele>410</ele>
        <time>2023-08-02T06:43:03.000Z</time>
      </trkpt>
      <trkpt lat="43.7298" lon="7.09393">
        <ele>410</ele>
        <time>2023-08-02T06:43:04.000Z</time>
      </trkpt>
      <trkpt lat="43.7298" lon="7.09398">
        <ele>410</ele>
        <time>2023-08-02T06:43:05.000Z</time>
      </trkpt>
      <trkpt lat="43.7298" lon="7.09403">
        <ele>410</ele>
        <time>2023-08-02T06:43:06.000Z</time>
      </trkpt>
      <trkpt lat="43.7298" lon="7.09407">
        <ele>410</ele>
        <time>2023-08-02T06:43:07.000Z</time>
      </trkpt>
      <trkpt lat="43.72981" lon="7.09411">
        <ele>410</ele>
        <time>2023-08-02T06:43:08.000Z</time>
      </trkpt>
      <trkpt lat="43.72981" lon="7.09415">
        <ele>409.79998779297</ele>
        <time>2023-08-02T06:43:09.000Z</time>
      </trkpt>
      <trkpt lat="43.72982" lon="7.09419">
        <ele>410</ele>
        <time>2023-08-02T06:43:10.000Z</time>
      </trkpt>
      <trkpt lat="43.72982" lon="7.09422">
        <ele>410</ele>
        <time>2023-08-02T06:43:11.000Z</time>
      </trkpt>
      <trkpt lat="43.72982" lon="7.09425">
        <ele>410</ele>
        <time>2023-08-02T06:43:12.000Z</time>
      </trkpt>
      <trkpt lat="43.72982" lon="7.09428">
        <ele>410</ele>
        <time>2023-08-02T06:43:13.000Z</time>
      </trkpt>
      <trkpt lat="43.72982" lon="7.09429">
        <ele>409.79998779297</ele>
        <time>2023-08-02T06:43:14.000Z</time>
      </trkpt>
      <trkpt lat="43.72982" lon="7.0943">
        <ele>409.79998779297</ele>
        <time>2023-08-02T06:43:15.000Z</time>
      </trkpt>
      <trkpt lat="43.72982" lon="7.0943">
        <ele>409.79998779297</ele>
        <time>2023-08-02T06:43:16.000Z</time>
      </trkpt>
      <trkpt lat="43.72982" lon="7.0943">
        <ele>409.79998779297</ele>
        <time>2023-08-02T06:43:17.000Z</time>
      </trkpt>
      <trkpt lat="43.72982" lon="7.0943">
        <ele>409.79998779297</ele>
        <time>2023-08-02T06:43:18.000Z</time>
      </trkpt>
      <trkpt lat="43.72982" lon="7.0943">
        <ele>409.79998779297</ele>
        <time>2023-08-02T06:43:19.000Z</time>
      </trkpt>
      <trkpt lat="43.72982" lon="7.0943">
        <ele>409.79998779297</ele>
        <time>2023-08-02T06:43:20.000Z</time>
      </trkpt>
      <trkpt lat="43.72982" lon="7.0943">
        <ele>409.79998779297</ele>
        <time>2023-08-02T06:43:21.000Z</time>
      </trkpt>
      <trkpt lat="43.72982" lon="7.0943">
        <ele>409.79998779297</ele>
        <time>2023-08-02T06:43:22.000Z</time>
      </trkpt>
      <trkpt lat="43.72982" lon="7.0943">
        <ele>409.79998779297</ele>
        <time>2023-08-02T06:43:23.000Z</time>
      </trkpt>
      <trkpt lat="43.72982" lon="7.0943">
        <ele>409.60000610352</ele>
        <time>2023-08-02T06:43:24.000Z</time>
      </trkpt>
      <trkpt lat="43.72982" lon="7.0943">
        <ele>409.60000610352</ele>
        <time>2023-08-02T06:43:25.000Z</time>
      </trkpt>
      <trkpt lat="43.72982" lon="7.0943">
        <ele>409.60000610352</ele>
        <time>2023-08-02T06:43:26.000Z</time>
      </trkpt>
      <trkpt lat="43.72982" lon="7.0943">
        <ele>409.79998779297</ele>
        <time>2023-08-02T06:43:27.000Z</time>
      </trkpt>
      <trkpt lat="43.72982" lon="7.0943">
        <ele>409.79998779297</ele>
        <time>2023-08-02T06:43:28.000Z</time>
      </trkpt>
      <trkpt lat="43.72982" lon="7.0943">
        <ele>409.79998779297</ele>
        <time>2023-08-02T06:43:29.000Z</time>
      </trkpt>
      <trkpt lat="43.72982" lon="7.0943">
        <ele>409.79998779297</ele>
        <time>2023-08-02T06:43:30.000Z</time>
      </trkpt>
      <trkpt lat="43.72982" lon="7.0943">
        <ele>409.79998779297</ele>
        <time>2023-08-02T06:43:31.000Z</time>
      </trkpt>
      <trkpt lat="43.72982" lon="7.0943">
        <ele>409.79998779297</ele>
        <time>2023-08-02T06:43:32.000Z</time>
      </trkpt>
      <trkpt lat="43.72982" lon="7.0943">
        <ele>409.79998779297</ele>
        <time>2023-08-02T06:43:33.000Z</time>
      </trkpt>
      <trkpt lat="43.72982" lon="7.0943">
        <ele>409.79998779297</ele>
        <time>2023-08-02T06:43:34.000Z</time>
      </trkpt>
      <trkpt lat="43.72982" lon="7.0943">
        <ele>409.60000610352</ele>
        <time>2023-08-02T06:43:35.000Z</time>
      </trkpt>
      <trkpt lat="43.72982" lon="7.0943">
        <ele>409.60000610352</ele>
        <time>2023-08-02T06:43:36.000Z</time>
      </trkpt>
      <trkpt lat="43.72982" lon="7.0943">
        <ele>409.60000610352</ele>
        <time>2023-08-02T06:43:37.000Z</time>
      </trkpt>
      <trkpt lat="43.72982" lon="7.0943">
        <ele>409.60000610352</ele>
        <time>2023-08-02T06:43:38.000Z</time>
      </trkpt>
      <trkpt lat="43.72982" lon="7.0943">
        <ele>409.60000610352</ele>
        <time>2023-08-02T06:43:39.000Z</time>
      </trkpt>
      <trkpt lat="43.72982" lon="7.0943">
        <ele>409.60000610352</ele>
        <time>2023-08-02T06:43:40.000Z</time>
      </trkpt>
      <trkpt lat="43.72982" lon="7.0943">
        <ele>409.60000610352</ele>
        <time>2023-08-02T06:43:41.000Z</time>
      </trkpt>
      <trkpt lat="43.72982" lon="7.0943">
        <ele>409.60000610352</ele>
        <time>2023-08-02T06:43:42.000Z</time>
      </trkpt>
      <trkpt lat="43.72982" lon="7.0943">
        <ele>409.60000610352</ele>
        <time>2023-08-02T06:43:43.000Z</time>
      </trkpt>
      <trkpt lat="43.72982" lon="7.0943">
        <ele>409.60000610352</ele>
        <time>2023-08-02T06:43:44.000Z</time>
      </trkpt>
      <trkpt lat="43.72982" lon="7.0943">
        <ele>409.60000610352</ele>
        <time>2023-08-02T06:43:45.000Z</time>
      </trkpt>
      <trkpt lat="43.72982" lon="7.0943">
        <ele>409.79998779297</ele>
        <time>2023-08-02T06:43:46.000Z</time>
      </trkpt>
      <trkpt lat="43.72982" lon="7.0943">
        <ele>409.79998779297</ele>
        <time>2023-08-02T06:43:47.000Z</time>
      </trkpt>
      <trkpt lat="43.72982" lon="7.0943">
        <ele>409.79998779297</ele>
        <time>2023-08-02T06:43:48.000Z</time>
      </trkpt>
      <trkpt lat="43.72982" lon="7.0943">
        <ele>409.79998779297</ele>
        <time>2023-08-02T06:43:49.000Z</time>
      </trkpt>
      <trkpt lat="43.72982" lon="7.0943">
        <ele>409.79998779297</ele>
        <time>2023-08-02T06:43:50.000Z</time>
      </trkpt>
      <trkpt lat="43.72982" lon="7.0943">
        <ele>409.60000610352</ele>
        <time>2023-08-02T06:43:51.000Z</time>
      </trkpt>
      <trkpt lat="43.72982" lon="7.0943">
        <ele>409.60000610352</ele>
        <time>2023-08-02T06:43:52.000Z</time>
      </trkpt>
      <trkpt lat="43.72982" lon="7.0943">
        <ele>409.60000610352</ele>
        <time>2023-08-02T06:43:53.000Z</time>
      </trkpt>
      <trkpt lat="43.72982" lon="7.0943">
        <ele>409.60000610352</ele>
        <time>2023-08-02T06:43:54.000Z</time>
      </trkpt>
      <trkpt lat="43.72982" lon="7.0943">
        <ele>409.60000610352</ele>
        <time>2023-08-02T06:43:55.000Z</time>
      </trkpt>
      <trkpt lat="43.72982" lon="7.0943">
        <ele>409.79998779297</ele>
        <time>2023-08-02T06:43:56.000Z</time>
      </trkpt>
      <trkpt lat="43.72982" lon="7.0943">
        <ele>409.79998779297</ele>
        <time>2023-08-02T06:43:57.000Z</time>
      </trkpt>
      <trkpt lat="43.72982" lon="7.0943">
        <ele>409.79998779297</ele>
        <time>2023-08-02T06:43:58.000Z</time>
      </trkpt>
      <trkpt lat="43.72982" lon="7.0943">
        <ele>409.79998779297</ele>
        <time>2023-08-02T06:43:59.000Z</time>
      </trkpt>
      <trkpt lat="43.72982" lon="7.0943">
        <ele>410</ele>
        <time>2023-08-02T06:44:00.000Z</time>
      </trkpt>
      <trkpt lat="43.72982" lon="7.0943">
        <ele>409.79998779297</ele>
        <time>2023-08-02T06:44:01.000Z</time>
      </trkpt>
      <trkpt lat="43.72982" lon="7.0943">
        <ele>409.79998779297</ele>
        <time>2023-08-02T06:44:02.000Z</time>
      </trkpt>
      <trkpt lat="43.72982" lon="7.0943">
        <ele>409.79998779297</ele>
        <time>2023-08-02T06:44:03.000Z</time>
      </trkpt>
      <trkpt lat="43.72982" lon="7.0943">
        <ele>409.79998779297</ele>
        <time>2023-08-02T06:44:04.000Z</time>
      </trkpt>
      <trkpt lat="43.72982" lon="7.0943">
        <ele>410</ele>
        <time>2023-08-02T06:44:05.000Z</time>
      </trkpt>
      <trkpt lat="43.72982" lon="7.09429">
        <ele>410</ele>
        <time>2023-08-02T06:44:06.000Z</time>
      </trkpt>
      <trkpt lat="43.72982" lon="7.09429">
        <ele>410</ele>
        <time>2023-08-02T06:44:07.000Z</time>
      </trkpt>
      <trkpt lat="43.72981" lon="7.0943">
        <ele>410</ele>
        <time>2023-08-02T06:44:08.000Z</time>
      </trkpt>
      <trkpt lat="43.72981" lon="7.09431">
        <ele>410</ele>
        <time>2023-08-02T06:44:09.000Z</time>
      </trkpt>
      <trkpt lat="43.72981" lon="7.09432">
        <ele>409.79998779297</ele>
        <time>2023-08-02T06:44:10.000Z</time>
      </trkpt>
      <trkpt lat="43.72981" lon="7.09433">
        <ele>409.79998779297</ele>
        <time>2023-08-02T06:44:11.000Z</time>
      </trkpt>
      <trkpt lat="43.7298" lon="7.09434">
        <ele>409.79998779297</ele>
        <time>2023-08-02T06:44:12.000Z</time>
      </trkpt>
      <trkpt lat="43.7298" lon="7.09434">
        <ele>409.79998779297</ele>
        <time>2023-08-02T06:44:13.000Z</time>
      </trkpt>
      <trkpt lat="43.72979" lon="7.09435">
        <ele>409.79998779297</ele>
        <time>2023-08-02T06:44:14.000Z</time>
      </trkpt>
      <trkpt lat="43.72978" lon="7.09436">
        <ele>409.79998779297</ele>
        <time>2023-08-02T06:44:15.000Z</time>
      </trkpt>
      <trkpt lat="43.72977" lon="7.09437">
        <ele>409.79998779297</ele>
        <time>2023-08-02T06:44:16.000Z</time>
      </trkpt>
      <trkpt lat="43.72977" lon="7.09439">
        <ele>409.79998779297</ele>
        <time>2023-08-02T06:44:17.000Z</time>
      </trkpt>
      <trkpt lat="43.72976" lon="7.09442">
        <ele>409.79998779297</ele>
        <time>2023-08-02T06:44:18.000Z</time>
      </trkpt>
      <trkpt lat="43.72974" lon="7.09445">
        <ele>410</ele>
        <time>2023-08-02T06:44:19.000Z</time>
      </trkpt>
      <trkpt lat="43.72973" lon="7.09449">
        <ele>410</ele>
        <time>2023-08-02T06:44:20.000Z</time>
      </trkpt>
      <trkpt lat="43.72971" lon="7.09452">
        <ele>410</ele>
        <time>2023-08-02T06:44:21.000Z</time>
      </trkpt>
      <trkpt lat="43.72968" lon="7.09455">
        <ele>410</ele>
        <time>2023-08-02T06:44:22.000Z</time>
      </trkpt>
      <trkpt lat="43.72966" lon="7.09459">
        <ele>410</ele>
        <time>2023-08-02T06:44:23.000Z</time>
      </trkpt>
      <trkpt lat="43.72964" lon="7.09463">
        <ele>410</ele>
        <time>2023-08-02T06:44:24.000Z</time>
      </trkpt>
      <trkpt lat="43.72962" lon="7.09467">
        <ele>409.79998779297</ele>
        <time>2023-08-02T06:44:25.000Z</time>
      </trkpt>
      <trkpt lat="43.7296" lon="7.09471">
        <ele>409.79998779297</ele>
        <time>2023-08-02T06:44:26.000Z</time>
      </trkpt>
      <trkpt lat="43.72958" lon="7.09476">
        <ele>409.79998779297</ele>
        <time>2023-08-02T06:44:27.000Z</time>
      </trkpt>
      <trkpt lat="43.72956" lon="7.09481">
        <ele>409.60000610352</ele>
        <time>2023-08-02T06:44:28.000Z</time>
      </trkpt>
      <trkpt lat="43.72955" lon="7.09486">
        <ele>409.60000610352</ele>
        <time>2023-08-02T06:44:29.000Z</time>
      </trkpt>
      <trkpt lat="43.72954" lon="7.09491">
        <ele>409.39999389648</ele>
        <time>2023-08-02T06:44:30.000Z</time>
      </trkpt>
      <trkpt lat="43.72953" lon="7.09496">
        <ele>409.39999389648</ele>
        <time>2023-08-02T06:44:31.000Z</time>
      </trkpt>
      <trkpt lat="43.72953" lon="7.09502">
        <ele>409.39999389648</ele>
        <time>2023-08-02T06:44:32.000Z</time>
      </trkpt>
      <trkpt lat="43.72954" lon="7.09507">
        <ele>409.39999389648</ele>
        <time>2023-08-02T06:44:33.000Z</time>
      </trkpt>
      <trkpt lat="43.72955" lon="7.09512">
        <ele>409.39999389648</ele>
        <time>2023-08-02T06:44:34.000Z</time>
      </trkpt>
      <trkpt lat="43.72956" lon="7.09518">
        <ele>409.60000610352</ele>
        <time>2023-08-02T06:44:35.000Z</time>
      </trkpt>
      <trkpt lat="43.72957" lon="7.09523">
        <ele>409.60000610352</ele>
        <time>2023-08-02T06:44:36.000Z</time>
      </trkpt>
      <trkpt lat="43.72958" lon="7.09528">
        <ele>409.60000610352</ele>
        <time>2023-08-02T06:44:37.000Z</time>
      </trkpt>
      <trkpt lat="43.72959" lon="7.09533">
        <ele>409.60000610352</ele>
        <time>2023-08-02T06:44:38.000Z</time>
      </trkpt>
      <trkpt lat="43.7296" lon="7.09537">
        <ele>409.79998779297</ele>
        <time>2023-08-02T06:44:39.000Z</time>
      </trkpt>
      <trkpt lat="43.72959" lon="7.09542">
        <ele>409.79998779297</ele>
        <time>2023-08-02T06:44:40.000Z</time>
      </trkpt>
      <trkpt lat="43.72959" lon="7.09548">
        <ele>410</ele>
        <time>2023-08-02T06:44:41.000Z</time>
      </trkpt>
      <trkpt lat="43.72959" lon="7.09553">
        <ele>410.20001220703</ele>
        <time>2023-08-02T06:44:42.000Z</time>
      </trkpt>
      <trkpt lat="43.72959" lon="7.09559">
        <ele>410.39999389648</ele>
        <time>2023-08-02T06:44:43.000Z</time>
      </trkpt>
      <trkpt lat="43.72959" lon="7.09565">
        <ele>410.39999389648</ele>
        <time>2023-08-02T06:44:44.000Z</time>
      </trkpt>
      <trkpt lat="43.72959" lon="7.0957">
        <ele>410.39999389648</ele>
        <time>2023-08-02T06:44:45.000Z</time>
      </trkpt>
      <trkpt lat="43.72958" lon="7.09576">
        <ele>410.39999389648</ele>
        <time>2023-08-02T06:44:46.000Z</time>
      </trkpt>
      <trkpt lat="43.72958" lon="7.09582">
        <ele>410.39999389648</ele>
        <time>2023-08-02T06:44:47.000Z</time>
      </trkpt>
      <trkpt lat="43.72958" lon="7.09588">
        <ele>410.39999389648</ele>
        <time>2023-08-02T06:44:48.000Z</time>
      </trkpt>
      <trkpt lat="43.72958" lon="7.09595">
        <ele>410.39999389648</ele>
        <time>2023-08-02T06:44:49.000Z</time>
      </trkpt>
      <trkpt lat="43.72958" lon="7.09601">
        <ele>410.39999389648</ele>
        <time>2023-08-02T06:44:50.000Z</time>
      </trkpt>
      <trkpt lat="43.72958" lon="7.09607">
        <ele>410.39999389648</ele>
        <time>2023-08-02T06:44:51.000Z</time>
      </trkpt>
      <trkpt lat="43.72958" lon="7.09614">
        <ele>410.20001220703</ele>
        <time>2023-08-02T06:44:52.000Z</time>
      </trkpt>
      <trkpt lat="43.72959" lon="7.0962">
        <ele>410.20001220703</ele>
        <time>2023-08-02T06:44:53.000Z</time>
      </trkpt>
      <trkpt lat="43.72959" lon="7.09626">
        <ele>410.20001220703</ele>
        <time>2023-08-02T06:44:54.000Z</time>
      </trkpt>
      <trkpt lat="43.72959" lon="7.09633">
        <ele>409.79998779297</ele>
        <time>2023-08-02T06:44:55.000Z</time>
      </trkpt>
      <trkpt lat="43.72958" lon="7.0964">
        <ele>409.79998779297</ele>
        <time>2023-08-02T06:44:56.000Z</time>
      </trkpt>
      <trkpt lat="43.72957" lon="7.09648">
        <ele>409.60000610352</ele>
        <time>2023-08-02T06:44:57.000Z</time>
      </trkpt>
      <trkpt lat="43.72956" lon="7.09655">
        <ele>409.60000610352</ele>
        <time>2023-08-02T06:44:58.000Z</time>
      </trkpt>
      <trkpt lat="43.72954" lon="7.09661">
        <ele>409.60000610352</ele>
        <time>2023-08-02T06:44:59.000Z</time>
      </trkpt>
      <trkpt lat="43.72953" lon="7.09667">
        <ele>409.60000610352</ele>
        <time>2023-08-02T06:45:00.000Z</time>
      </trkpt>
      <trkpt lat="43.72952" lon="7.09674">
        <ele>409.60000610352</ele>
        <time>2023-08-02T06:45:01.000Z</time>
      </trkpt>
      <trkpt lat="43.72951" lon="7.0968">
        <ele>409.79998779297</ele>
        <time>2023-08-02T06:45:02.000Z</time>
      </trkpt>
      <trkpt lat="43.72949" lon="7.09686">
        <ele>409.79998779297</ele>
        <time>2023-08-02T06:45:03.000Z</time>
      </trkpt>
      <trkpt lat="43.72947" lon="7.09692">
        <ele>410</ele>
        <time>2023-08-02T06:45:04.000Z</time>
      </trkpt>
      <trkpt lat="43.72945" lon="7.09698">
        <ele>410</ele>
        <time>2023-08-02T06:45:05.000Z</time>
      </trkpt>
      <trkpt lat="43.72944" lon="7.09704">
        <ele>410.20001220703</ele>
        <time>2023-08-02T06:45:06.000Z</time>
      </trkpt>
      <trkpt lat="43.72942" lon="7.0971">
        <ele>410.20001220703</ele>
        <time>2023-08-02T06:45:07.000Z</time>
      </trkpt>
      <trkpt lat="43.7294" lon="7.09715">
        <ele>410.20001220703</ele>
        <time>2023-08-02T06:45:08.000Z</time>
      </trkpt>
      <trkpt lat="43.72937" lon="7.09719">
        <ele>410.20001220703</ele>
        <time>2023-08-02T06:45:09.000Z</time>
      </trkpt>
      <trkpt lat="43.72935" lon="7.09724">
        <ele>410.39999389648</ele>
        <time>2023-08-02T06:45:10.000Z</time>
      </trkpt>
      <trkpt lat="43.72934" lon="7.0973">
        <ele>410.60000610352</ele>
        <time>2023-08-02T06:45:11.000Z</time>
      </trkpt>
      <trkpt lat="43.72932" lon="7.09735">
        <ele>410.79998779297</ele>
        <time>2023-08-02T06:45:12.000Z</time>
      </trkpt>
      <trkpt lat="43.7293" lon="7.09741">
        <ele>410.79998779297</ele>
        <time>2023-08-02T06:45:13.000Z</time>
      </trkpt>
      <trkpt lat="43.72928" lon="7.09746">
        <ele>410.79998779297</ele>
        <time>2023-08-02T06:45:14.000Z</time>
      </trkpt>
      <trkpt lat="43.72926" lon="7.09752">
        <ele>411</ele>
        <time>2023-08-02T06:45:15.000Z</time>
      </trkpt>
      <trkpt lat="43.72925" lon="7.09758">
        <ele>411</ele>
        <time>2023-08-02T06:45:16.000Z</time>
      </trkpt>
      <trkpt lat="43.72923" lon="7.09763">
        <ele>411</ele>
        <time>2023-08-02T06:45:17.000Z</time>
      </trkpt>
      <trkpt lat="43.72921" lon="7.09769">
        <ele>411</ele>
        <time>2023-08-02T06:45:18.000Z</time>
      </trkpt>
      <trkpt lat="43.72918" lon="7.09774">
        <ele>411.20001220703</ele>
        <time>2023-08-02T06:45:19.000Z</time>
      </trkpt>
      <trkpt lat="43.72916" lon="7.0978">
        <ele>411.20001220703</ele>
        <time>2023-08-02T06:45:20.000Z</time>
      </trkpt>
      <trkpt lat="43.72913" lon="7.09785">
        <ele>411.20001220703</ele>
        <time>2023-08-02T06:45:21.000Z</time>
      </trkpt>
      <trkpt lat="43.72911" lon="7.09791">
        <ele>411.20001220703</ele>
        <time>2023-08-02T06:45:22.000Z</time>
      </trkpt>
      <trkpt lat="43.72908" lon="7.09796">
        <ele>411.20001220703</ele>
        <time>2023-08-02T06:45:23.000Z</time>
      </trkpt>
      <trkpt lat="43.72905" lon="7.09802">
        <ele>411.20001220703</ele>
        <time>2023-08-02T06:45:24.000Z</time>
      </trkpt>
      <trkpt lat="43.72903" lon="7.09808">
        <ele>411.20001220703</ele>
        <time>2023-08-02T06:45:25.000Z</time>
      </trkpt>
      <trkpt lat="43.729" lon="7.09814">
        <ele>411.20001220703</ele>
        <time>2023-08-02T06:45:26.000Z</time>
      </trkpt>
      <trkpt lat="43.72898" lon="7.09821">
        <ele>411.20001220703</ele>
        <time>2023-08-02T06:45:27.000Z</time>
      </trkpt>
      <trkpt lat="43.72896" lon="7.09827">
        <ele>411.20001220703</ele>
        <time>2023-08-02T06:45:28.000Z</time>
      </trkpt>
      <trkpt lat="43.72893" lon="7.09833">
        <ele>411.20001220703</ele>
        <time>2023-08-02T06:45:29.000Z</time>
      </trkpt>
      <trkpt lat="43.72892" lon="7.09839">
        <ele>411</ele>
        <time>2023-08-02T06:45:30.000Z</time>
      </trkpt>
      <trkpt lat="43.7289" lon="7.09846">
        <ele>411</ele>
        <time>2023-08-02T06:45:31.000Z</time>
      </trkpt>
      <trkpt lat="43.72888" lon="7.09852">
        <ele>411</ele>
        <time>2023-08-02T06:45:32.000Z</time>
      </trkpt>
      <trkpt lat="43.72887" lon="7.09859">
        <ele>411</ele>
        <time>2023-08-02T06:45:33.000Z</time>
      </trkpt>
      <trkpt lat="43.72885" lon="7.09865">
        <ele>411</ele>
        <time>2023-08-02T06:45:34.000Z</time>
      </trkpt>
      <trkpt lat="43.72883" lon="7.09871">
        <ele>411</ele>
        <time>2023-08-02T06:45:35.000Z</time>
      </trkpt>
      <trkpt lat="43.72881" lon="7.09877">
        <ele>411</ele>
        <time>2023-08-02T06:45:36.000Z</time>
      </trkpt>
      <trkpt lat="43.7288" lon="7.09883">
        <ele>411</ele>
        <time>2023-08-02T06:45:37.000Z</time>
      </trkpt>
      <trkpt lat="43.72879" lon="7.09889">
        <ele>411.20001220703</ele>
        <time>2023-08-02T06:45:38.000Z</time>
      </trkpt>
      <trkpt lat="43.72878" lon="7.09895">
        <ele>411.20001220703</ele>
        <time>2023-08-02T06:45:39.000Z</time>
      </trkpt>
      <trkpt lat="43.72878" lon="7.09901">
        <ele>411.20001220703</ele>
        <time>2023-08-02T06:45:40.000Z</time>
      </trkpt>
      <trkpt lat="43.72879" lon="7.09906">
        <ele>411.39999389648</ele>
        <time>2023-08-02T06:45:41.000Z</time>
      </trkpt>
      <trkpt lat="43.7288" lon="7.09912">
        <ele>411.39999389648</ele>
        <time>2023-08-02T06:45:42.000Z</time>
      </trkpt>
      <trkpt lat="43.72882" lon="7.09918">
        <ele>411.39999389648</ele>
        <time>2023-08-02T06:45:43.000Z</time>
      </trkpt>
      <trkpt lat="43.72883" lon="7.09924">
        <ele>411.60000610352</ele>
        <time>2023-08-02T06:45:44.000Z</time>
      </trkpt>
      <trkpt lat="43.72884" lon="7.0993">
        <ele>411.60000610352</ele>
        <time>2023-08-02T06:45:45.000Z</time>
      </trkpt>
      <trkpt lat="43.72886" lon="7.09936">
        <ele>411.60000610352</ele>
        <time>2023-08-02T06:45:46.000Z</time>
      </trkpt>
      <trkpt lat="43.72887" lon="7.09942">
        <ele>411.60000610352</ele>
        <time>2023-08-02T06:45:47.000Z</time>
      </trkpt>
      <trkpt lat="43.72889" lon="7.09948">
        <ele>411.60000610352</ele>
        <time>2023-08-02T06:45:48.000Z</time>
      </trkpt>
      <trkpt lat="43.7289" lon="7.09955">
        <ele>411.60000610352</ele>
        <time>2023-08-02T06:45:49.000Z</time>
      </trkpt>
      <trkpt lat="43.72892" lon="7.09961">
        <ele>411.60000610352</ele>
        <time>2023-08-02T06:45:50.000Z</time>
      </trkpt>
      <trkpt lat="43.72894" lon="7.09967">
        <ele>411.39999389648</ele>
        <time>2023-08-02T06:45:51.000Z</time>
      </trkpt>
      <trkpt lat="43.72897" lon="7.09973">
        <ele>411.39999389648</ele>
        <time>2023-08-02T06:45:52.000Z</time>
      </trkpt>
      <trkpt lat="43.729" lon="7.09978">
        <ele>411.39999389648</ele>
        <time>2023-08-02T06:45:53.000Z</time>
      </trkpt>
      <trkpt lat="43.72902" lon="7.09984">
        <ele>411.39999389648</ele>
        <time>2023-08-02T06:45:54.000Z</time>
      </trkpt>
      <trkpt lat="43.72905" lon="7.09989">
        <ele>411.39999389648</ele>
        <time>2023-08-02T06:45:55.000Z</time>
      </trkpt>
      <trkpt lat="43.72909" lon="7.09994">
        <ele>411.39999389648</ele>
        <time>2023-08-02T06:45:56.000Z</time>
      </trkpt>
      <trkpt lat="43.72912" lon="7.1">
        <ele>411.39999389648</ele>
        <time>2023-08-02T06:45:57.000Z</time>
      </trkpt>
      <trkpt lat="43.72915" lon="7.10005">
        <ele>411.20001220703</ele>
        <time>2023-08-02T06:45:58.000Z</time>
      </trkpt>
      <trkpt lat="43.72918" lon="7.10011">
        <ele>411.20001220703</ele>
        <time>2023-08-02T06:45:59.000Z</time>
      </trkpt>
      <trkpt lat="43.72921" lon="7.10016">
        <ele>411.20001220703</ele>
        <time>2023-08-02T06:46:00.000Z</time>
      </trkpt>
      <trkpt lat="43.72925" lon="7.1002">
        <ele>411.20001220703</ele>
        <time>2023-08-02T06:46:01.000Z</time>
      </trkpt>
      <trkpt lat="43.72928" lon="7.10024">
        <ele>411.20001220703</ele>
        <time>2023-08-02T06:46:02.000Z</time>
      </trkpt>
      <trkpt lat="43.72931" lon="7.10029">
        <ele>411.20001220703</ele>
        <time>2023-08-02T06:46:03.000Z</time>
      </trkpt>
      <trkpt lat="43.72935" lon="7.10034">
        <ele>411.20001220703</ele>
        <time>2023-08-02T06:46:04.000Z</time>
      </trkpt>
      <trkpt lat="43.72938" lon="7.10039">
        <ele>411.20001220703</ele>
        <time>2023-08-02T06:46:05.000Z</time>
      </trkpt>
      <trkpt lat="43.72942" lon="7.10044">
        <ele>411.20001220703</ele>
        <time>2023-08-02T06:46:06.000Z</time>
      </trkpt>
      <trkpt lat="43.72946" lon="7.10048">
        <ele>411.20001220703</ele>
        <time>2023-08-02T06:46:07.000Z</time>
      </trkpt>
      <trkpt lat="43.7295" lon="7.10052">
        <ele>411.20001220703</ele>
        <time>2023-08-02T06:46:08.000Z</time>
      </trkpt>
      <trkpt lat="43.72954" lon="7.10056">
        <ele>411.20001220703</ele>
        <time>2023-08-02T06:46:09.000Z</time>
      </trkpt>
      <trkpt lat="43.72957" lon="7.1006">
        <ele>411</ele>
        <time>2023-08-02T06:46:10.000Z</time>
      </trkpt>
      <trkpt lat="43.72961" lon="7.10064">
        <ele>411</ele>
        <time>2023-08-02T06:46:11.000Z</time>
      </trkpt>
      <trkpt lat="43.72965" lon="7.10068">
        <ele>411</ele>
        <time>2023-08-02T06:46:12.000Z</time>
      </trkpt>
      <trkpt lat="43.72969" lon="7.10072">
        <ele>411.20001220703</ele>
        <time>2023-08-02T06:46:13.000Z</time>
      </trkpt>
      <trkpt lat="43.72973" lon="7.10075">
        <ele>411.20001220703</ele>
        <time>2023-08-02T06:46:14.000Z</time>
      </trkpt>
      <trkpt lat="43.72976" lon="7.10078">
        <ele>411.20001220703</ele>
        <time>2023-08-02T06:46:15.000Z</time>
      </trkpt>
      <trkpt lat="43.72981" lon="7.10081">
        <ele>411.20001220703</ele>
        <time>2023-08-02T06:46:16.000Z</time>
      </trkpt>
      <trkpt lat="43.72985" lon="7.10085">
        <ele>411.20001220703</ele>
        <time>2023-08-02T06:46:17.000Z</time>
      </trkpt>
      <trkpt lat="43.72989" lon="7.10088">
        <ele>411.20001220703</ele>
        <time>2023-08-02T06:46:18.000Z</time>
      </trkpt>
      <trkpt lat="43.72993" lon="7.10091">
        <ele>411.20001220703</ele>
        <time>2023-08-02T06:46:19.000Z</time>
      </trkpt>
      <trkpt lat="43.72997" lon="7.10095">
        <ele>411.20001220703</ele>
        <time>2023-08-02T06:46:20.000Z</time>
      </trkpt>
      <trkpt lat="43.73002" lon="7.10098">
        <ele>411.20001220703</ele>
        <time>2023-08-02T06:46:21.000Z</time>
      </trkpt>
      <trkpt lat="43.73006" lon="7.10102">
        <ele>411.20001220703</ele>
        <time>2023-08-02T06:46:22.000Z</time>
      </trkpt>
      <trkpt lat="43.7301" lon="7.10105">
        <ele>411.20001220703</ele>
        <time>2023-08-02T06:46:23.000Z</time>
      </trkpt>
      <trkpt lat="43.73014" lon="7.10108">
        <ele>411.20001220703</ele>
        <time>2023-08-02T06:46:24.000Z</time>
      </trkpt>
      <trkpt lat="43.73018" lon="7.10111">
        <ele>411.20001220703</ele>
        <time>2023-08-02T06:46:25.000Z</time>
      </trkpt>
      <trkpt lat="43.73022" lon="7.10115">
        <ele>411.20001220703</ele>
        <time>2023-08-02T06:46:26.000Z</time>
      </trkpt>
      <trkpt lat="43.73026" lon="7.10118">
        <ele>411.20001220703</ele>
        <time>2023-08-02T06:46:27.000Z</time>
      </trkpt>
      <trkpt lat="43.73031" lon="7.10121">
        <ele>411</ele>
        <time>2023-08-02T06:46:28.000Z</time>
      </trkpt>
      <trkpt lat="43.73035" lon="7.10124">
        <ele>411</ele>
        <time>2023-08-02T06:46:29.000Z</time>
      </trkpt>
      <trkpt lat="43.73039" lon="7.10127">
        <ele>411</ele>
        <time>2023-08-02T06:46:30.000Z</time>
      </trkpt>
      <trkpt lat="43.73043" lon="7.10131">
        <ele>411</ele>
        <time>2023-08-02T06:46:31.000Z</time>
      </trkpt>
      <trkpt lat="43.73045" lon="7.10135">
        <ele>410.79998779297</ele>
        <time>2023-08-02T06:46:32.000Z</time>
      </trkpt>
      <trkpt lat="43.73048" lon="7.10139">
        <ele>410.79998779297</ele>
        <time>2023-08-02T06:46:33.000Z</time>
      </trkpt>
      <trkpt lat="43.73051" lon="7.10144">
        <ele>410.79998779297</ele>
        <time>2023-08-02T06:46:34.000Z</time>
      </trkpt>
      <trkpt lat="43.73053" lon="7.10148">
        <ele>410.79998779297</ele>
        <time>2023-08-02T06:46:35.000Z</time>
      </trkpt>
      <trkpt lat="43.73056" lon="7.10153">
        <ele>410.79998779297</ele>
        <time>2023-08-02T06:46:36.000Z</time>
      </trkpt>
      <trkpt lat="43.73058" lon="7.10157">
        <ele>410.79998779297</ele>
        <time>2023-08-02T06:46:37.000Z</time>
      </trkpt>
      <trkpt lat="43.73061" lon="7.10162">
        <ele>410.79998779297</ele>
        <time>2023-08-02T06:46:38.000Z</time>
      </trkpt>
      <trkpt lat="43.73064" lon="7.10166">
        <ele>410.79998779297</ele>
        <time>2023-08-02T06:46:39.000Z</time>
      </trkpt>
      <trkpt lat="43.73067" lon="7.1017">
        <ele>410.79998779297</ele>
        <time>2023-08-02T06:46:40.000Z</time>
      </trkpt>
      <trkpt lat="43.7307" lon="7.10174">
        <ele>411</ele>
        <time>2023-08-02T06:46:41.000Z</time>
      </trkpt>
      <trkpt lat="43.73072" lon="7.10178">
        <ele>411</ele>
        <time>2023-08-02T06:46:42.000Z</time>
      </trkpt>
      <trkpt lat="43.73076" lon="7.10182">
        <ele>411.20001220703</ele>
        <time>2023-08-02T06:46:43.000Z</time>
      </trkpt>
      <trkpt lat="43.73079" lon="7.10186">
        <ele>411.20001220703</ele>
        <time>2023-08-02T06:46:44.000Z</time>
      </trkpt>
      <trkpt lat="43.73083" lon="7.10189">
        <ele>411.20001220703</ele>
        <time>2023-08-02T06:46:45.000Z</time>
      </trkpt>
      <trkpt lat="43.73086" lon="7.10192">
        <ele>411.20001220703</ele>
        <time>2023-08-02T06:46:46.000Z</time>
      </trkpt>
      <trkpt lat="43.73091" lon="7.10194">
        <ele>411.20001220703</ele>
        <time>2023-08-02T06:46:47.000Z</time>
      </trkpt>
      <trkpt lat="43.73095" lon="7.10197">
        <ele>411.20001220703</ele>
        <time>2023-08-02T06:46:48.000Z</time>
      </trkpt>
      <trkpt lat="43.731" lon="7.10198">
        <ele>411.20001220703</ele>
        <time>2023-08-02T06:46:49.000Z</time>
      </trkpt>
      <trkpt lat="43.73104" lon="7.10199">
        <ele>411.20001220703</ele>
        <time>2023-08-02T06:46:50.000Z</time>
      </trkpt>
      <trkpt lat="43.73109" lon="7.102">
        <ele>411.20001220703</ele>
        <time>2023-08-02T06:46:51.000Z</time>
      </trkpt>
      <trkpt lat="43.73114" lon="7.102">
        <ele>411.20001220703</ele>
        <time>2023-08-02T06:46:52.000Z</time>
      </trkpt>
      <trkpt lat="43.73118" lon="7.102">
        <ele>411.20001220703</ele>
        <time>2023-08-02T06:46:53.000Z</time>
      </trkpt>
      <trkpt lat="43.73123" lon="7.10199">
        <ele>411.20001220703</ele>
        <time>2023-08-02T06:46:54.000Z</time>
      </trkpt>
      <trkpt lat="43.73128" lon="7.10199">
        <ele>411</ele>
        <time>2023-08-02T06:46:55.000Z</time>
      </trkpt>
      <trkpt lat="43.73132" lon="7.10199">
        <ele>410.79998779297</ele>
        <time>2023-08-02T06:46:56.000Z</time>
      </trkpt>
      <trkpt lat="43.73137" lon="7.10199">
        <ele>410.79998779297</ele>
        <time>2023-08-02T06:46:57.000Z</time>
      </trkpt>
      <trkpt lat="43.73142" lon="7.10199">
        <ele>410.60000610352</ele>
        <time>2023-08-02T06:46:58.000Z</time>
      </trkpt>
      <trkpt lat="43.73146" lon="7.10199">
        <ele>410.60000610352</ele>
        <time>2023-08-02T06:46:59.000Z</time>
      </trkpt>
      <trkpt lat="43.73151" lon="7.10199">
        <ele>410.60000610352</ele>
        <time>2023-08-02T06:47:00.000Z</time>
      </trkpt>
      <trkpt lat="43.73156" lon="7.102">
        <ele>410.79998779297</ele>
        <time>2023-08-02T06:47:01.000Z</time>
      </trkpt>
      <trkpt lat="43.73161" lon="7.102">
        <ele>410.79998779297</ele>
        <time>2023-08-02T06:47:02.000Z</time>
      </trkpt>
      <trkpt lat="43.73165" lon="7.102">
        <ele>411</ele>
        <time>2023-08-02T06:47:03.000Z</time>
      </trkpt>
      <trkpt lat="43.7317" lon="7.102">
        <ele>411</ele>
        <time>2023-08-02T06:47:04.000Z</time>
      </trkpt>
      <trkpt lat="43.73175" lon="7.10201">
        <ele>411</ele>
        <time>2023-08-02T06:47:05.000Z</time>
      </trkpt>
      <trkpt lat="43.7318" lon="7.10202">
        <ele>411</ele>
        <time>2023-08-02T06:47:06.000Z</time>
      </trkpt>
      <trkpt lat="43.73184" lon="7.10204">
        <ele>411</ele>
        <time>2023-08-02T06:47:07.000Z</time>
      </trkpt>
      <trkpt lat="43.73189" lon="7.10208">
        <ele>411</ele>
        <time>2023-08-02T06:47:08.000Z</time>
      </trkpt>
      <trkpt lat="43.73192" lon="7.10213">
        <ele>411</ele>
        <time>2023-08-02T06:47:09.000Z</time>
      </trkpt>
      <trkpt lat="43.73196" lon="7.10217">
        <ele>410.79998779297</ele>
        <time>2023-08-02T06:47:10.000Z</time>
      </trkpt>
      <trkpt lat="43.73199" lon="7.10221">
        <ele>410.79998779297</ele>
        <time>2023-08-02T06:47:11.000Z</time>
      </trkpt>
      <trkpt lat="43.73202" lon="7.10226">
        <ele>411</ele>
        <time>2023-08-02T06:47:12.000Z</time>
      </trkpt>
      <trkpt lat="43.73205" lon="7.1023">
        <ele>411</ele>
        <time>2023-08-02T06:47:13.000Z</time>
      </trkpt>
      <trkpt lat="43.73208" lon="7.10234">
        <ele>411</ele>
        <time>2023-08-02T06:47:14.000Z</time>
      </trkpt>
      <trkpt lat="43.73211" lon="7.10238">
        <ele>411</ele>
        <time>2023-08-02T06:47:15.000Z</time>
      </trkpt>
      <trkpt lat="43.73214" lon="7.10243">
        <ele>411</ele>
        <time>2023-08-02T06:47:16.000Z</time>
      </trkpt>
      <trkpt lat="43.73217" lon="7.10247">
        <ele>411</ele>
        <time>2023-08-02T06:47:17.000Z</time>
      </trkpt>
      <trkpt lat="43.7322" lon="7.10252">
        <ele>411</ele>
        <time>2023-08-02T06:47:18.000Z</time>
      </trkpt>
      <trkpt lat="43.73224" lon="7.10257">
        <ele>411</ele>
        <time>2023-08-02T06:47:19.000Z</time>
      </trkpt>
      <trkpt lat="43.73228" lon="7.10262">
        <ele>411</ele>
        <time>2023-08-02T06:47:20.000Z</time>
      </trkpt>
      <trkpt lat="43.73232" lon="7.10267">
        <ele>410.79998779297</ele>
        <time>2023-08-02T06:47:21.000Z</time>
      </trkpt>
      <trkpt lat="43.73236" lon="7.10272">
        <ele>410.60000610352</ele>
        <time>2023-08-02T06:47:22.000Z</time>
      </trkpt>
      <trkpt lat="43.7324" lon="7.10277">
        <ele>410.20001220703</ele>
        <time>2023-08-02T06:47:23.000Z</time>
      </trkpt>
      <trkpt lat="43.73245" lon="7.10282">
        <ele>409.79998779297</ele>
        <time>2023-08-02T06:47:24.000Z</time>
      </trkpt>
      <trkpt lat="43.73249" lon="7.10288">
        <ele>409.20001220703</ele>
        <time>2023-08-02T06:47:25.000Z</time>
      </trkpt>
      <trkpt lat="43.73252" lon="7.10296">
        <ele>408.79998779297</ele>
        <time>2023-08-02T06:47:26.000Z</time>
      </trkpt>
      <trkpt lat="43.73255" lon="7.10302">
        <ele>408.20001220703</ele>
        <time>2023-08-02T06:47:27.000Z</time>
      </trkpt>
      <trkpt lat="43.73258" lon="7.10308">
        <ele>407.60000610352</ele>
        <time>2023-08-02T06:47:28.000Z</time>
      </trkpt>
      <trkpt lat="43.73261" lon="7.10311">
        <ele>406.60000610352</ele>
        <time>2023-08-02T06:47:29.000Z</time>
      </trkpt>
      <trkpt lat="43.73264" lon="7.10314">
        <ele>406.60000610352</ele>
        <time>2023-08-02T06:47:30.000Z</time>
      </trkpt>
      <trkpt lat="43.73267" lon="7.10317">
        <ele>406.60000610352</ele>
        <time>2023-08-02T06:47:31.000Z</time>
      </trkpt>
      <trkpt lat="43.73269" lon="7.1032">
        <ele>406.60000610352</ele>
        <time>2023-08-02T06:47:32.000Z</time>
      </trkpt>
      <trkpt lat="43.73272" lon="7.10323">
        <ele>406.79998779297</ele>
        <time>2023-08-02T06:47:33.000Z</time>
      </trkpt>
      <trkpt lat="43.73275" lon="7.10325">
        <ele>407.39999389648</ele>
        <time>2023-08-02T06:47:34.000Z</time>
      </trkpt>
      <trkpt lat="43.73278" lon="7.10328">
        <ele>407.79998779297</ele>
        <time>2023-08-02T06:47:35.000Z</time>
      </trkpt>
      <trkpt lat="43.73281" lon="7.1033">
        <ele>408.20001220703</ele>
        <time>2023-08-02T06:47:36.000Z</time>
      </trkpt>
      <trkpt lat="43.73283" lon="7.10332">
        <ele>408.60000610352</ele>
        <time>2023-08-02T06:47:37.000Z</time>
      </trkpt>
      <trkpt lat="43.73286" lon="7.10334">
        <ele>408.60000610352</ele>
        <time>2023-08-02T06:47:38.000Z</time>
      </trkpt>
      <trkpt lat="43.73288" lon="7.10335">
        <ele>409</ele>
        <time>2023-08-02T06:47:39.000Z</time>
      </trkpt>
      <trkpt lat="43.7329" lon="7.10335">
        <ele>409.60000610352</ele>
        <time>2023-08-02T06:47:40.000Z</time>
      </trkpt>
      <trkpt lat="43.73292" lon="7.10333">
        <ele>409.79998779297</ele>
        <time>2023-08-02T06:47:41.000Z</time>
      </trkpt>
      <trkpt lat="43.73294" lon="7.1033">
        <ele>410.20001220703</ele>
        <time>2023-08-02T06:47:42.000Z</time>
      </trkpt>
      <trkpt lat="43.73294" lon="7.10327">
        <ele>410.79998779297</ele>
        <time>2023-08-02T06:47:43.000Z</time>
      </trkpt>
      <trkpt lat="43.73293" lon="7.10324">
        <ele>411</ele>
        <time>2023-08-02T06:47:44.000Z</time>
      </trkpt>
      <trkpt lat="43.7329" lon="7.10323">
        <ele>411.20001220703</ele>
        <time>2023-08-02T06:47:45.000Z</time>
      </trkpt>
      <trkpt lat="43.73287" lon="7.10321">
        <ele>411.60000610352</ele>
        <time>2023-08-02T06:47:46.000Z</time>
      </trkpt>
      <trkpt lat="43.73285" lon="7.1032">
        <ele>411.79998779297</ele>
        <time>2023-08-02T06:47:47.000Z</time>
      </trkpt>
      <trkpt lat="43.73282" lon="7.10318">
        <ele>412.20001220703</ele>
        <time>2023-08-02T06:47:48.000Z</time>
      </trkpt>
      <trkpt lat="43.7328" lon="7.10316">
        <ele>412.20001220703</ele>
        <time>2023-08-02T06:47:49.000Z</time>
      </trkpt>
      <trkpt lat="43.73278" lon="7.10313">
        <ele>412.39999389648</ele>
        <time>2023-08-02T06:47:50.000Z</time>
      </trkpt>
      <trkpt lat="43.73277" lon="7.10311">
        <ele>412.60000610352</ele>
        <time>2023-08-02T06:47:51.000Z</time>
      </trkpt>
      <trkpt lat="43.73275" lon="7.10309">
        <ele>413</ele>
        <time>2023-08-02T06:47:52.000Z</time>
      </trkpt>
      <trkpt lat="43.73274" lon="7.10307">
        <ele>413.39999389648</ele>
        <time>2023-08-02T06:47:53.000Z</time>
      </trkpt>
      <trkpt lat="43.73272" lon="7.10304">
        <ele>413.60000610352</ele>
        <time>2023-08-02T06:47:54.000Z</time>
      </trkpt>
      <trkpt lat="43.73271" lon="7.10302">
        <ele>414</ele>
        <time>2023-08-02T06:47:55.000Z</time>
      </trkpt>
      <trkpt lat="43.7327" lon="7.10299">
        <ele>414.39999389648</ele>
        <time>2023-08-02T06:47:56.000Z</time>
      </trkpt>
      <trkpt lat="43.73268" lon="7.10297">
        <ele>414.60000610352</ele>
        <time>2023-08-02T06:47:57.000Z</time>
      </trkpt>
      <trkpt lat="43.73266" lon="7.10294">
        <ele>415</ele>
        <time>2023-08-02T06:47:58.000Z</time>
      </trkpt>
      <trkpt lat="43.73265" lon="7.10292">
        <ele>415.20001220703</ele>
        <time>2023-08-02T06:47:59.000Z</time>
      </trkpt>
      <trkpt lat="43.73263" lon="7.10288">
        <ele>415.60000610352</ele>
        <time>2023-08-02T06:48:00.000Z</time>
      </trkpt>
      <trkpt lat="43.73261" lon="7.10285">
        <ele>416</ele>
        <time>2023-08-02T06:48:01.000Z</time>
      </trkpt>
      <trkpt lat="43.73259" lon="7.10282">
        <ele>416</ele>
        <time>2023-08-02T06:48:02.000Z</time>
      </trkpt>
      <trkpt lat="43.73258" lon="7.10279">
        <ele>416</ele>
        <time>2023-08-02T06:48:03.000Z</time>
      </trkpt>
      <trkpt lat="43.73257" lon="7.10276">
        <ele>416.39999389648</ele>
        <time>2023-08-02T06:48:04.000Z</time>
      </trkpt>
      <trkpt lat="43.73255" lon="7.10273">
        <ele>416.79998779297</ele>
        <time>2023-08-02T06:48:05.000Z</time>
      </trkpt>
      <trkpt lat="43.73253" lon="7.1027">
        <ele>416.79998779297</ele>
        <time>2023-08-02T06:48:06.000Z</time>
      </trkpt>
      <trkpt lat="43.73252" lon="7.10267">
        <ele>417.20001220703</ele>
        <time>2023-08-02T06:48:07.000Z</time>
      </trkpt>
      <trkpt lat="43.73254" lon="7.10264">
        <ele>417.60000610352</ele>
        <time>2023-08-02T06:48:08.000Z</time>
      </trkpt>
      <trkpt lat="43.73257" lon="7.10263">
        <ele>417.79998779297</ele>
        <time>2023-08-02T06:48:09.000Z</time>
      </trkpt>
      <trkpt lat="43.73258" lon="7.10266">
        <ele>418</ele>
        <time>2023-08-02T06:48:10.000Z</time>
      </trkpt>
      <trkpt lat="43.7326" lon="7.10269">
        <ele>418.20001220703</ele>
        <time>2023-08-02T06:48:11.000Z</time>
      </trkpt>
      <trkpt lat="43.73261" lon="7.10272">
        <ele>418.60000610352</ele>
        <time>2023-08-02T06:48:12.000Z</time>
      </trkpt>
      <trkpt lat="43.73263" lon="7.10274">
        <ele>418.79998779297</ele>
        <time>2023-08-02T06:48:13.000Z</time>
      </trkpt>
      <trkpt lat="43.73265" lon="7.10277">
        <ele>419.20001220703</ele>
        <time>2023-08-02T06:48:14.000Z</time>
      </trkpt>
      <trkpt lat="43.73267" lon="7.10279">
        <ele>419.39999389648</ele>
        <time>2023-08-02T06:48:15.000Z</time>
      </trkpt>
      <trkpt lat="43.73269" lon="7.10281">
        <ele>419.79998779297</ele>
        <time>2023-08-02T06:48:16.000Z</time>
      </trkpt>
      <trkpt lat="43.73271" lon="7.10282">
        <ele>420.20001220703</ele>
        <time>2023-08-02T06:48:17.000Z</time>
      </trkpt>
      <trkpt lat="43.73273" lon="7.10284">
        <ele>420.60000610352</ele>
        <time>2023-08-02T06:48:18.000Z</time>
      </trkpt>
      <trkpt lat="43.73276" lon="7.10286">
        <ele>421</ele>
        <time>2023-08-02T06:48:19.000Z</time>
      </trkpt>
      <trkpt lat="43.73278" lon="7.10288">
        <ele>421.20001220703</ele>
        <time>2023-08-02T06:48:20.000Z</time>
      </trkpt>
      <trkpt lat="43.7328" lon="7.1029">
        <ele>421.79998779297</ele>
        <time>2023-08-02T06:48:21.000Z</time>
      </trkpt>
      <trkpt lat="43.73282" lon="7.10292">
        <ele>422.20001220703</ele>
        <time>2023-08-02T06:48:22.000Z</time>
      </trkpt>
      <trkpt lat="43.73284" lon="7.10293">
        <ele>422.60000610352</ele>
        <time>2023-08-02T06:48:23.000Z</time>
      </trkpt>
      <trkpt lat="43.73287" lon="7.10293">
        <ele>422.79998779297</ele>
        <time>2023-08-02T06:48:24.000Z</time>
      </trkpt>
      <trkpt lat="43.7329" lon="7.10292">
        <ele>423.20001220703</ele>
        <time>2023-08-02T06:48:25.000Z</time>
      </trkpt>
      <trkpt lat="43.73292" lon="7.10291">
        <ele>423.20001220703</ele>
        <time>2023-08-02T06:48:26.000Z</time>
      </trkpt>
      <trkpt lat="43.73294" lon="7.1029">
        <ele>423.39999389648</ele>
        <time>2023-08-02T06:48:27.000Z</time>
      </trkpt>
      <trkpt lat="43.73297" lon="7.10289">
        <ele>423.79998779297</ele>
        <time>2023-08-02T06:48:28.000Z</time>
      </trkpt>
      <trkpt lat="43.73299" lon="7.10288">
        <ele>424</ele>
        <time>2023-08-02T06:48:29.000Z</time>
      </trkpt>
      <trkpt lat="43.73301" lon="7.10288">
        <ele>424.20001220703</ele>
        <time>2023-08-02T06:48:30.000Z</time>
      </trkpt>
      <trkpt lat="43.73303" lon="7.10288">
        <ele>424.60000610352</ele>
        <time>2023-08-02T06:48:31.000Z</time>
      </trkpt>
      <trkpt lat="43.73306" lon="7.10287">
        <ele>424.79998779297</ele>
        <time>2023-08-02T06:48:32.000Z</time>
      </trkpt>
      <trkpt lat="43.73309" lon="7.10286">
        <ele>425</ele>
        <time>2023-08-02T06:48:33.000Z</time>
      </trkpt>
      <trkpt lat="43.73311" lon="7.10285">
        <ele>425</ele>
        <time>2023-08-02T06:48:34.000Z</time>
      </trkpt>
      <trkpt lat="43.73314" lon="7.10285">
        <ele>425.20001220703</ele>
        <time>2023-08-02T06:48:35.000Z</time>
      </trkpt>
      <trkpt lat="43.73316" lon="7.10284">
        <ele>425.60000610352</ele>
        <time>2023-08-02T06:48:36.000Z</time>
      </trkpt>
      <trkpt lat="43.73318" lon="7.10283">
        <ele>425.79998779297</ele>
        <time>2023-08-02T06:48:37.000Z</time>
      </trkpt>
      <trkpt lat="43.7332" lon="7.10283">
        <ele>426</ele>
        <time>2023-08-02T06:48:38.000Z</time>
      </trkpt>
      <trkpt lat="43.73323" lon="7.10283">
        <ele>426.20001220703</ele>
        <time>2023-08-02T06:48:39.000Z</time>
      </trkpt>
      <trkpt lat="43.73326" lon="7.10282">
        <ele>426.79998779297</ele>
        <time>2023-08-02T06:48:40.000Z</time>
      </trkpt>
      <trkpt lat="43.73327" lon="7.10282">
        <ele>427</ele>
        <time>2023-08-02T06:48:41.000Z</time>
      </trkpt>
      <trkpt lat="43.7333" lon="7.10282">
        <ele>427.20001220703</ele>
        <time>2023-08-02T06:48:42.000Z</time>
      </trkpt>
      <trkpt lat="43.73333" lon="7.10281">
        <ele>427.39999389648</ele>
        <time>2023-08-02T06:48:43.000Z</time>
      </trkpt>
      <trkpt lat="43.73335" lon="7.1028">
        <ele>428</ele>
        <time>2023-08-02T06:48:44.000Z</time>
      </trkpt>
      <trkpt lat="43.73337" lon="7.1028">
        <ele>428.39999389648</ele>
        <time>2023-08-02T06:48:45.000Z</time>
      </trkpt>
      <trkpt lat="43.7334" lon="7.10281">
        <ele>428.60000610352</ele>
        <time>2023-08-02T06:48:46.000Z</time>
      </trkpt>
      <trkpt lat="43.73342" lon="7.1028">
        <ele>429</ele>
        <time>2023-08-02T06:48:47.000Z</time>
      </trkpt>
      <trkpt lat="43.73345" lon="7.10279">
        <ele>429</ele>
        <time>2023-08-02T06:48:48.000Z</time>
      </trkpt>
      <trkpt lat="43.73348" lon="7.10278">
        <ele>429</ele>
        <time>2023-08-02T06:48:49.000Z</time>
      </trkpt>
      <trkpt lat="43.73351" lon="7.10277">
        <ele>429.20001220703</ele>
        <time>2023-08-02T06:48:50.000Z</time>
      </trkpt>
      <trkpt lat="43.73353" lon="7.10277">
        <ele>429.79998779297</ele>
        <time>2023-08-02T06:48:51.000Z</time>
      </trkpt>
      <trkpt lat="43.73356" lon="7.10276">
        <ele>430</ele>
        <time>2023-08-02T06:48:52.000Z</time>
      </trkpt>
      <trkpt lat="43.73359" lon="7.10276">
        <ele>430.39999389648</ele>
        <time>2023-08-02T06:48:53.000Z</time>
      </trkpt>
      <trkpt lat="43.73362" lon="7.10275">
        <ele>430.79998779297</ele>
        <time>2023-08-02T06:48:54.000Z</time>
      </trkpt>
      <trkpt lat="43.73364" lon="7.10274">
        <ele>431.20001220703</ele>
        <time>2023-08-02T06:48:55.000Z</time>
      </trkpt>
      <trkpt lat="43.73367" lon="7.10273">
        <ele>431.39999389648</ele>
        <time>2023-08-02T06:48:56.000Z</time>
      </trkpt>
      <trkpt lat="43.73369" lon="7.10272">
        <ele>431.79998779297</ele>
        <time>2023-08-02T06:48:57.000Z</time>
      </trkpt>
      <trkpt lat="43.73371" lon="7.10272">
        <ele>432.20001220703</ele>
        <time>2023-08-02T06:48:58.000Z</time>
      </trkpt>
      <trkpt lat="43.73373" lon="7.10271">
        <ele>432.60000610352</ele>
        <time>2023-08-02T06:48:59.000Z</time>
      </trkpt>
      <trkpt lat="43.73374" lon="7.10271">
        <ele>432.79998779297</ele>
        <time>2023-08-02T06:49:00.000Z</time>
      </trkpt>
      <trkpt lat="43.73376" lon="7.10271">
        <ele>433.20001220703</ele>
        <time>2023-08-02T06:49:01.000Z</time>
      </trkpt>
      <trkpt lat="43.73377" lon="7.10271">
        <ele>433.39999389648</ele>
        <time>2023-08-02T06:49:02.000Z</time>
      </trkpt>
      <trkpt lat="43.73377" lon="7.10271">
        <ele>433.79998779297</ele>
        <time>2023-08-02T06:49:03.000Z</time>
      </trkpt>
      <trkpt lat="43.73377" lon="7.10271">
        <ele>434</ele>
        <time>2023-08-02T06:49:04.000Z</time>
      </trkpt>
      <trkpt lat="43.73377" lon="7.10271">
        <ele>434.20001220703</ele>
        <time>2023-08-02T06:49:05.000Z</time>
      </trkpt>
      <trkpt lat="43.73377" lon="7.10271">
        <ele>434.20001220703</ele>
        <time>2023-08-02T06:49:06.000Z</time>
      </trkpt>
      <trkpt lat="43.73377" lon="7.10271">
        <ele>434.20001220703</ele>
        <time>2023-08-02T06:49:07.000Z</time>
      </trkpt>
      <trkpt lat="43.73377" lon="7.10271">
        <ele>434.39999389648</ele>
        <time>2023-08-02T06:49:08.000Z</time>
      </trkpt>
      <trkpt lat="43.73377" lon="7.10271">
        <ele>434.39999389648</ele>
        <time>2023-08-02T06:49:09.000Z</time>
      </trkpt>
      <trkpt lat="43.73377" lon="7.10271">
        <ele>434.39999389648</ele>
        <time>2023-08-02T06:49:10.000Z</time>
      </trkpt>
      <trkpt lat="43.73377" lon="7.10271">
        <ele>434.39999389648</ele>
        <time>2023-08-02T06:49:11.000Z</time>
      </trkpt>
      <trkpt lat="43.73377" lon="7.10271">
        <ele>434.60000610352</ele>
        <time>2023-08-02T06:49:12.000Z</time>
      </trkpt>
      <trkpt lat="43.73377" lon="7.10271">
        <ele>434.60000610352</ele>
        <time>2023-08-02T06:49:13.000Z</time>
      </trkpt>
      <trkpt lat="43.73377" lon="7.10271">
        <ele>434.60000610352</ele>
        <time>2023-08-02T06:49:14.000Z</time>
      </trkpt>
      <trkpt lat="43.73377" lon="7.10271">
        <ele>434.79998779297</ele>
        <time>2023-08-02T06:49:15.000Z</time>
      </trkpt>
      <trkpt lat="43.73377" lon="7.10271">
        <ele>434.60000610352</ele>
        <time>2023-08-02T06:49:16.000Z</time>
      </trkpt>
      <trkpt lat="43.73377" lon="7.10271">
        <ele>434.79998779297</ele>
        <time>2023-08-02T06:49:17.000Z</time>
      </trkpt>
      <trkpt lat="43.73377" lon="7.10271">
        <ele>434.79998779297</ele>
        <time>2023-08-02T06:49:18.000Z</time>
      </trkpt>
      <trkpt lat="43.73377" lon="7.10271">
        <ele>434.79998779297</ele>
        <time>2023-08-02T06:49:19.000Z</time>
      </trkpt>
      <trkpt lat="43.73377" lon="7.10271">
        <ele>434.60000610352</ele>
        <time>2023-08-02T06:49:20.000Z</time>
      </trkpt>
      <trkpt lat="43.73377" lon="7.10271">
        <ele>434.39999389648</ele>
        <time>2023-08-02T06:49:21.000Z</time>
      </trkpt>
      <trkpt lat="43.73377" lon="7.10271">
        <ele>434.39999389648</ele>
        <time>2023-08-02T06:49:22.000Z</time>
      </trkpt>
      <trkpt lat="43.73377" lon="7.10271">
        <ele>434.60000610352</ele>
        <time>2023-08-02T06:49:23.000Z</time>
      </trkpt>
      <trkpt lat="43.73377" lon="7.10271">
        <ele>434.20001220703</ele>
        <time>2023-08-02T06:49:24.000Z</time>
      </trkpt>
      <trkpt lat="43.73377" lon="7.10271">
        <ele>434.20001220703</ele>
        <time>2023-08-02T06:49:25.000Z</time>
      </trkpt>
      <trkpt lat="43.73377" lon="7.10271">
        <ele>434.20001220703</ele>
        <time>2023-08-02T06:49:26.000Z</time>
      </trkpt>
      <trkpt lat="43.73377" lon="7.10271">
        <ele>434.20001220703</ele>
        <time>2023-08-02T06:49:27.000Z</time>
      </trkpt>
      <trkpt lat="43.73377" lon="7.10271">
        <ele>434.20001220703</ele>
        <time>2023-08-02T06:49:28.000Z</time>
      </trkpt>
      <trkpt lat="43.73377" lon="7.10271">
        <ele>434.39999389648</ele>
        <time>2023-08-02T06:49:29.000Z</time>
      </trkpt>
      <trkpt lat="43.73377" lon="7.10271">
        <ele>434.39999389648</ele>
        <time>2023-08-02T06:49:30.000Z</time>
      </trkpt>
      <trkpt lat="43.73377" lon="7.10271">
        <ele>434.39999389648</ele>
        <time>2023-08-02T06:49:31.000Z</time>
      </trkpt>
      <trkpt lat="43.73377" lon="7.10271">
        <ele>434.39999389648</ele>
        <time>2023-08-02T06:49:32.000Z</time>
      </trkpt>
      <trkpt lat="43.73377" lon="7.10271">
        <ele>434.39999389648</ele>
        <time>2023-08-02T06:49:33.000Z</time>
      </trkpt>
      <trkpt lat="43.73377" lon="7.10271">
        <ele>434.39999389648</ele>
        <time>2023-08-02T06:49:34.000Z</time>
      </trkpt>
      <trkpt lat="43.73377" lon="7.10271">
        <ele>434.39999389648</ele>
        <time>2023-08-02T06:49:35.000Z</time>
      </trkpt>
      <trkpt lat="43.73377" lon="7.10271">
        <ele>434.39999389648</ele>
        <time>2023-08-02T06:49:36.000Z</time>
      </trkpt>
      <trkpt lat="43.73377" lon="7.10271">
        <ele>434.39999389648</ele>
        <time>2023-08-02T06:49:37.000Z</time>
      </trkpt>
      <trkpt lat="43.73377" lon="7.10271">
        <ele>434.39999389648</ele>
        <time>2023-08-02T06:49:38.000Z</time>
      </trkpt>
      <trkpt lat="43.73377" lon="7.10271">
        <ele>434.39999389648</ele>
        <time>2023-08-02T06:49:39.000Z</time>
      </trkpt>
      <trkpt lat="43.73377" lon="7.10271">
        <ele>434.20001220703</ele>
        <time>2023-08-02T06:49:40.000Z</time>
      </trkpt>
      <trkpt lat="43.73377" lon="7.10271">
        <ele>434.20001220703</ele>
        <time>2023-08-02T06:49:41.000Z</time>
      </trkpt>
      <trkpt lat="43.73377" lon="7.10271">
        <ele>434.20001220703</ele>
        <time>2023-08-02T06:49:42.000Z</time>
      </trkpt>
      <trkpt lat="43.73377" lon="7.10271">
        <ele>434.20001220703</ele>
        <time>2023-08-02T06:49:43.000Z</time>
      </trkpt>
      <trkpt lat="43.73377" lon="7.10271">
        <ele>434.39999389648</ele>
        <time>2023-08-02T06:49:44.000Z</time>
      </trkpt>
      <trkpt lat="43.73377" lon="7.10271">
        <ele>434.39999389648</ele>
        <time>2023-08-02T06:49:45.000Z</time>
      </trkpt>
      <trkpt lat="43.73377" lon="7.10271">
        <ele>434.39999389648</ele>
        <time>2023-08-02T06:49:46.000Z</time>
      </trkpt>
      <trkpt lat="43.73377" lon="7.10271">
        <ele>434.60000610352</ele>
        <time>2023-08-02T06:49:47.000Z</time>
      </trkpt>
      <trkpt lat="43.73377" lon="7.10271">
        <ele>434.60000610352</ele>
        <time>2023-08-02T06:49:48.000Z</time>
      </trkpt>
      <trkpt lat="43.73377" lon="7.10271">
        <ele>434.60000610352</ele>
        <time>2023-08-02T06:49:49.000Z</time>
      </trkpt>
      <trkpt lat="43.73377" lon="7.10271">
        <ele>434.60000610352</ele>
        <time>2023-08-02T06:49:50.000Z</time>
      </trkpt>
      <trkpt lat="43.73377" lon="7.10271">
        <ele>434.60000610352</ele>
        <time>2023-08-02T06:49:51.000Z</time>
      </trkpt>
      <trkpt lat="43.73377" lon="7.10271">
        <ele>434.60000610352</ele>
        <time>2023-08-02T06:49:52.000Z</time>
      </trkpt>
      <trkpt lat="43.73377" lon="7.10271">
        <ele>434.60000610352</ele>
        <time>2023-08-02T06:49:53.000Z</time>
      </trkpt>
      <trkpt lat="43.73377" lon="7.10271">
        <ele>434.39999389648</ele>
        <time>2023-08-02T06:49:54.000Z</time>
      </trkpt>
      <trkpt lat="43.73377" lon="7.10271">
        <ele>434.39999389648</ele>
        <time>2023-08-02T06:49:55.000Z</time>
      </trkpt>
      <trkpt lat="43.73377" lon="7.10271">
        <ele>434.39999389648</ele>
        <time>2023-08-02T06:49:56.000Z</time>
      </trkpt>
      <trkpt lat="43.73377" lon="7.10271">
        <ele>434.39999389648</ele>
        <time>2023-08-02T06:49:57.000Z</time>
      </trkpt>
      <trkpt lat="43.73377" lon="7.10271">
        <ele>434.39999389648</ele>
        <time>2023-08-02T06:49:58.000Z</time>
      </trkpt>
      <trkpt lat="43.73377" lon="7.10271">
        <ele>434.39999389648</ele>
        <time>2023-08-02T06:49:59.000Z</time>
      </trkpt>
      <trkpt lat="43.73377" lon="7.10271">
        <ele>434.39999389648</ele>
        <time>2023-08-02T06:50:00.000Z</time>
      </trkpt>
      <trkpt lat="43.73377" lon="7.10271">
        <ele>434.39999389648</ele>
        <time>2023-08-02T06:50:01.000Z</time>
      </trkpt>
      <trkpt lat="43.73377" lon="7.10271">
        <ele>434.39999389648</ele>
        <time>2023-08-02T06:50:02.000Z</time>
      </trkpt>
      <trkpt lat="43.73377" lon="7.10271">
        <ele>434.39999389648</ele>
        <time>2023-08-02T06:50:03.000Z</time>
      </trkpt>
      <trkpt lat="43.73377" lon="7.10271">
        <ele>434.39999389648</ele>
        <time>2023-08-02T06:50:04.000Z</time>
      </trkpt>
      <trkpt lat="43.73377" lon="7.10271">
        <ele>434.60000610352</ele>
        <time>2023-08-02T06:50:05.000Z</time>
      </trkpt>
      <trkpt lat="43.73377" lon="7.10271">
        <ele>434.60000610352</ele>
        <time>2023-08-02T06:50:06.000Z</time>
      </trkpt>
      <trkpt lat="43.73377" lon="7.10271">
        <ele>434.60000610352</ele>
        <time>2023-08-02T06:50:07.000Z</time>
      </trkpt>
      <trkpt lat="43.73377" lon="7.10271">
        <ele>434.60000610352</ele>
        <time>2023-08-02T06:50:08.000Z</time>
      </trkpt>
      <trkpt lat="43.73377" lon="7.10271">
        <ele>434.60000610352</ele>
        <time>2023-08-02T06:50:09.000Z</time>
      </trkpt>
      <trkpt lat="43.73377" lon="7.10271">
        <ele>434.60000610352</ele>
        <time>2023-08-02T06:50:10.000Z</time>
      </trkpt>
      <trkpt lat="43.73377" lon="7.10271">
        <ele>434.60000610352</ele>
        <time>2023-08-02T06:50:11.000Z</time>
      </trkpt>
      <trkpt lat="43.73377" lon="7.10271">
        <ele>434.79998779297</ele>
        <time>2023-08-02T06:50:12.000Z</time>
      </trkpt>
      <trkpt lat="43.73377" lon="7.10271">
        <ele>434.79998779297</ele>
        <time>2023-08-02T06:50:13.000Z</time>
      </trkpt>
      <trkpt lat="43.73377" lon="7.10271">
        <ele>435</ele>
        <time>2023-08-02T06:50:14.000Z</time>
      </trkpt>
      <trkpt lat="43.73377" lon="7.10271">
        <ele>435</ele>
        <time>2023-08-02T06:50:15.000Z</time>
      </trkpt>
      <trkpt lat="43.73377" lon="7.10271">
        <ele>435</ele>
        <time>2023-08-02T06:50:16.000Z</time>
      </trkpt>
      <trkpt lat="43.73377" lon="7.10271">
        <ele>435</ele>
        <time>2023-08-02T06:50:17.000Z</time>
      </trkpt>
      <trkpt lat="43.73377" lon="7.10271">
        <ele>435</ele>
        <time>2023-08-02T06:50:18.000Z</time>
      </trkpt>
      <trkpt lat="43.73377" lon="7.10271">
        <ele>435</ele>
        <time>2023-08-02T06:50:19.000Z</time>
      </trkpt>
      <trkpt lat="43.73377" lon="7.10271">
        <ele>435</ele>
        <time>2023-08-02T06:50:20.000Z</time>
      </trkpt>
      <trkpt lat="43.73377" lon="7.10271">
        <ele>435</ele>
        <time>2023-08-02T06:50:21.000Z</time>
      </trkpt>
      <trkpt lat="43.73377" lon="7.10271">
        <ele>434.79998779297</ele>
        <time>2023-08-02T06:50:22.000Z</time>
      </trkpt>
      <trkpt lat="43.73377" lon="7.10271">
        <ele>434.79998779297</ele>
        <time>2023-08-02T06:50:23.000Z</time>
      </trkpt>
      <trkpt lat="43.73377" lon="7.10271">
        <ele>435</ele>
        <time>2023-08-02T06:50:24.000Z</time>
      </trkpt>
      <trkpt lat="43.73377" lon="7.10271">
        <ele>435</ele>
        <time>2023-08-02T06:50:25.000Z</time>
      </trkpt>
      <trkpt lat="43.73377" lon="7.10271">
        <ele>435</ele>
        <time>2023-08-02T06:50:26.000Z</time>
      </trkpt>
      <trkpt lat="43.73377" lon="7.10271">
        <ele>434.79998779297</ele>
        <time>2023-08-02T06:50:27.000Z</time>
      </trkpt>
      <trkpt lat="43.73377" lon="7.10271">
        <ele>434.79998779297</ele>
        <time>2023-08-02T06:50:28.000Z</time>
      </trkpt>
      <trkpt lat="43.73377" lon="7.10271">
        <ele>434.79998779297</ele>
        <time>2023-08-02T06:50:29.000Z</time>
      </trkpt>
      <trkpt lat="43.73377" lon="7.10271">
        <ele>434.79998779297</ele>
        <time>2023-08-02T06:50:30.000Z</time>
      </trkpt>
      <trkpt lat="43.73377" lon="7.10271">
        <ele>435</ele>
        <time>2023-08-02T06:50:31.000Z</time>
      </trkpt>
      <trkpt lat="43.73377" lon="7.10271">
        <ele>434.79998779297</ele>
        <time>2023-08-02T06:50:32.000Z</time>
      </trkpt>
      <trkpt lat="43.73377" lon="7.10271">
        <ele>434.79998779297</ele>
        <time>2023-08-02T06:50:33.000Z</time>
      </trkpt>
      <trkpt lat="43.73377" lon="7.10271">
        <ele>434.79998779297</ele>
        <time>2023-08-02T06:50:34.000Z</time>
      </trkpt>
      <trkpt lat="43.73377" lon="7.10271">
        <ele>434.79998779297</ele>
        <time>2023-08-02T06:50:35.000Z</time>
      </trkpt>
      <trkpt lat="43.73377" lon="7.10271">
        <ele>434.79998779297</ele>
        <time>2023-08-02T06:50:36.000Z</time>
      </trkpt>
      <trkpt lat="43.73377" lon="7.10271">
        <ele>434.79998779297</ele>
        <time>2023-08-02T06:50:37.000Z</time>
      </trkpt>
      <trkpt lat="43.73377" lon="7.10271">
        <ele>434.79998779297</ele>
        <time>2023-08-02T06:50:38.000Z</time>
      </trkpt>
      <trkpt lat="43.73377" lon="7.10271">
        <ele>435</ele>
        <time>2023-08-02T06:50:39.000Z</time>
      </trkpt>
      <trkpt lat="43.73377" lon="7.10271">
        <ele>435</ele>
        <time>2023-08-02T06:50:40.000Z</time>
      </trkpt>
      <trkpt lat="43.73377" lon="7.10271">
        <ele>435.20001220703</ele>
        <time>2023-08-02T06:50:41.000Z</time>
      </trkpt>
      <trkpt lat="43.73377" lon="7.10271">
        <ele>435.20001220703</ele>
        <time>2023-08-02T06:50:42.000Z</time>
      </trkpt>
      <trkpt lat="43.73377" lon="7.10271">
        <ele>435.39999389648</ele>
        <time>2023-08-02T06:50:43.000Z</time>
      </trkpt>
      <trkpt lat="43.73377" lon="7.10271">
        <ele>435.20001220703</ele>
        <time>2023-08-02T06:50:44.000Z</time>
      </trkpt>
      <trkpt lat="43.73377" lon="7.10271">
        <ele>435.20001220703</ele>
        <time>2023-08-02T06:50:45.000Z</time>
      </trkpt>
      <trkpt lat="43.73377" lon="7.10271">
        <ele>435.20001220703</ele>
        <time>2023-08-02T06:50:46.000Z</time>
      </trkpt>
      <trkpt lat="43.73377" lon="7.10271">
        <ele>435.20001220703</ele>
        <time>2023-08-02T06:50:47.000Z</time>
      </trkpt>
      <trkpt lat="43.73377" lon="7.10271">
        <ele>435.20001220703</ele>
        <time>2023-08-02T06:50:48.000Z</time>
      </trkpt>
      <trkpt lat="43.73377" lon="7.10271">
        <ele>435.20001220703</ele>
        <time>2023-08-02T06:50:49.000Z</time>
      </trkpt>
      <trkpt lat="43.73377" lon="7.10271">
        <ele>435.20001220703</ele>
        <time>2023-08-02T06:50:50.000Z</time>
      </trkpt>
      <trkpt lat="43.73377" lon="7.10271">
        <ele>435.20001220703</ele>
        <time>2023-08-02T06:50:51.000Z</time>
      </trkpt>
      <trkpt lat="43.73377" lon="7.10271">
        <ele>435.20001220703</ele>
        <time>2023-08-02T06:50:52.000Z</time>
      </trkpt>
      <trkpt lat="43.73377" lon="7.10271">
        <ele>435.39999389648</ele>
        <time>2023-08-02T06:50:53.000Z</time>
      </trkpt>
      <trkpt lat="43.73377" lon="7.10271">
        <ele>435.39999389648</ele>
        <time>2023-08-02T06:50:54.000Z</time>
      </trkpt>
      <trkpt lat="43.73377" lon="7.10271">
        <ele>435.39999389648</ele>
        <time>2023-08-02T06:50:55.000Z</time>
      </trkpt>
      <trkpt lat="43.73377" lon="7.10271">
        <ele>435.39999389648</ele>
        <time>2023-08-02T06:50:56.000Z</time>
      </trkpt>
      <trkpt lat="43.73377" lon="7.10271">
        <ele>435.39999389648</ele>
        <time>2023-08-02T06:50:57.000Z</time>
      </trkpt>
      <trkpt lat="43.73377" lon="7.10271">
        <ele>435.20001220703</ele>
        <time>2023-08-02T06:50:58.000Z</time>
      </trkpt>
      <trkpt lat="43.73377" lon="7.10271">
        <ele>435.20001220703</ele>
        <time>2023-08-02T06:50:59.000Z</time>
      </trkpt>
      <trkpt lat="43.73377" lon="7.10271">
        <ele>435.20001220703</ele>
        <time>2023-08-02T06:51:00.000Z</time>
      </trkpt>
      <trkpt lat="43.73377" lon="7.10271">
        <ele>435.20001220703</ele>
        <time>2023-08-02T06:51:01.000Z</time>
      </trkpt>
      <trkpt lat="43.73377" lon="7.10271">
        <ele>435.20001220703</ele>
        <time>2023-08-02T06:51:02.000Z</time>
      </trkpt>
      <trkpt lat="43.73377" lon="7.10272">
        <ele>435.20001220703</ele>
        <time>2023-08-02T06:51:03.000Z</time>
      </trkpt>
      <trkpt lat="43.73377" lon="7.10272">
        <ele>435.39999389648</ele>
        <time>2023-08-02T06:51:04.000Z</time>
      </trkpt>
      <trkpt lat="43.73377" lon="7.10272">
        <ele>435.60000610352</ele>
        <time>2023-08-02T06:51:05.000Z</time>
      </trkpt>
      <trkpt lat="43.73377" lon="7.10272">
        <ele>435.60000610352</ele>
        <time>2023-08-02T06:51:06.000Z</time>
      </trkpt>
      <trkpt lat="43.73377" lon="7.10272">
        <ele>435.60000610352</ele>
        <time>2023-08-02T06:51:07.000Z</time>
      </trkpt>
      <trkpt lat="43.73377" lon="7.10272">
        <ele>435.60000610352</ele>
        <time>2023-08-02T06:51:08.000Z</time>
      </trkpt>
      <trkpt lat="43.73377" lon="7.10271">
        <ele>435.60000610352</ele>
        <time>2023-08-02T06:51:09.000Z</time>
      </trkpt>
      <trkpt lat="43.73377" lon="7.10271">
        <ele>435.60000610352</ele>
        <time>2023-08-02T06:51:10.000Z</time>
      </trkpt>
      <trkpt lat="43.73377" lon="7.10271">
        <ele>435.60000610352</ele>
        <time>2023-08-02T06:51:11.000Z</time>
      </trkpt>
      <trkpt lat="43.73377" lon="7.10271">
        <ele>435.39999389648</ele>
        <time>2023-08-02T06:51:12.000Z</time>
      </trkpt>
      <trkpt lat="43.73377" lon="7.10271">
        <ele>435.39999389648</ele>
        <time>2023-08-02T06:51:13.000Z</time>
      </trkpt>
      <trkpt lat="43.73377" lon="7.10271">
        <ele>435.39999389648</ele>
        <time>2023-08-02T06:51:14.000Z</time>
      </trkpt>
      <trkpt lat="43.73377" lon="7.10271">
        <ele>435.39999389648</ele>
        <time>2023-08-02T06:51:15.000Z</time>
      </trkpt>
      <trkpt lat="43.73377" lon="7.10271">
        <ele>435.60000610352</ele>
        <time>2023-08-02T06:51:16.000Z</time>
      </trkpt>
      <trkpt lat="43.73377" lon="7.10271">
        <ele>435.60000610352</ele>
        <time>2023-08-02T06:51:17.000Z</time>
      </trkpt>
      <trkpt lat="43.73377" lon="7.10271">
        <ele>435.60000610352</ele>
        <time>2023-08-02T06:51:18.000Z</time>
      </trkpt>
      <trkpt lat="43.73377" lon="7.10271">
        <ele>435.60000610352</ele>
        <time>2023-08-02T06:51:19.000Z</time>
      </trkpt>
      <trkpt lat="43.73377" lon="7.10271">
        <ele>435.60000610352</ele>
        <time>2023-08-02T06:51:20.000Z</time>
      </trkpt>
      <trkpt lat="43.73377" lon="7.10271">
        <ele>435.79998779297</ele>
        <time>2023-08-02T06:51:21.000Z</time>
      </trkpt>
      <trkpt lat="43.73378" lon="7.1027">
        <ele>435.79998779297</ele>
        <time>2023-08-02T06:51:22.000Z</time>
      </trkpt>
      <trkpt lat="43.73379" lon="7.10269">
        <ele>435.60000610352</ele>
        <time>2023-08-02T06:51:23.000Z</time>
      </trkpt>
      <trkpt lat="43.73379" lon="7.10269">
        <ele>435.60000610352</ele>
        <time>2023-08-02T06:51:24.000Z</time>
      </trkpt>
      <trkpt lat="43.73379" lon="7.10269">
        <ele>435.79998779297</ele>
        <time>2023-08-02T06:51:25.000Z</time>
      </trkpt>
      <trkpt lat="43.73379" lon="7.10269">
        <ele>436</ele>
        <time>2023-08-02T06:51:26.000Z</time>
      </trkpt>
      <trkpt lat="43.73379" lon="7.10269">
        <ele>436.20001220703</ele>
        <time>2023-08-02T06:51:27.000Z</time>
      </trkpt>
      <trkpt lat="43.73379" lon="7.10266">
        <ele>436.20001220703</ele>
        <time>2023-08-02T06:51:28.000Z</time>
      </trkpt>
      <trkpt lat="43.73378" lon="7.10266">
        <ele>436.20001220703</ele>
        <time>2023-08-02T06:51:29.000Z</time>
      </trkpt>
      <trkpt lat="43.73377" lon="7.10264">
        <ele>436.20001220703</ele>
        <time>2023-08-02T06:51:30.000Z</time>
      </trkpt>
      <trkpt lat="43.73375" lon="7.10263">
        <ele>436.20001220703</ele>
        <time>2023-08-02T06:51:31.000Z</time>
      </trkpt>
      <trkpt lat="43.73373" lon="7.1026">
        <ele>436.20001220703</ele>
        <time>2023-08-02T06:51:32.000Z</time>
      </trkpt>
      <trkpt lat="43.7337" lon="7.10258">
        <ele>436.20001220703</ele>
        <time>2023-08-02T06:51:33.000Z</time>
      </trkpt>
      <trkpt lat="43.73367" lon="7.10257">
        <ele>436.20001220703</ele>
        <time>2023-08-02T06:51:34.000Z</time>
      </trkpt>
      <trkpt lat="43.73364" lon="7.10256">
        <ele>436.20001220703</ele>
        <time>2023-08-02T06:51:35.000Z</time>
      </trkpt>
      <trkpt lat="43.73362" lon="7.10255">
        <ele>436.39999389648</ele>
        <time>2023-08-02T06:51:36.000Z</time>
      </trkpt>
      <trkpt lat="43.7336" lon="7.10254">
        <ele>436.39999389648</ele>
        <time>2023-08-02T06:51:37.000Z</time>
      </trkpt>
      <trkpt lat="43.73358" lon="7.10253">
        <ele>436.39999389648</ele>
        <time>2023-08-02T06:51:38.000Z</time>
      </trkpt>
      <trkpt lat="43.73356" lon="7.10252">
        <ele>437.20001220703</ele>
        <time>2023-08-02T06:51:39.000Z</time>
      </trkpt>
      <trkpt lat="43.73353" lon="7.1025">
        <ele>437.20001220703</ele>
        <time>2023-08-02T06:51:40.000Z</time>
      </trkpt>
      <trkpt lat="43.73351" lon="7.10249">
        <ele>437.20001220703</ele>
        <time>2023-08-02T06:51:41.000Z</time>
      </trkpt>
      <trkpt lat="43.73349" lon="7.10248">
        <ele>437.60000610352</ele>
        <time>2023-08-02T06:51:42.000Z</time>
      </trkpt>
      <trkpt lat="43.73347" lon="7.10246">
        <ele>438.20001220703</ele>
        <time>2023-08-02T06:51:43.000Z</time>
      </trkpt>
      <trkpt lat="43.73346" lon="7.10244">
        <ele>438.60000610352</ele>
        <time>2023-08-02T06:51:44.000Z</time>
      </trkpt>
      <trkpt lat="43.73344" lon="7.10241">
        <ele>439</ele>
        <time>2023-08-02T06:51:45.000Z</time>
      </trkpt>
      <trkpt lat="43.73342" lon="7.10239">
        <ele>439.39999389648</ele>
        <time>2023-08-02T06:51:46.000Z</time>
      </trkpt>
      <trkpt lat="43.73341" lon="7.10237">
        <ele>439.79998779297</ele>
        <time>2023-08-02T06:51:47.000Z</time>
      </trkpt>
      <trkpt lat="43.73339" lon="7.10234">
        <ele>440.39999389648</ele>
        <time>2023-08-02T06:51:48.000Z</time>
      </trkpt>
      <trkpt lat="43.73338" lon="7.10231">
        <ele>440.79998779297</ele>
        <time>2023-08-02T06:51:49.000Z</time>
      </trkpt>
      <trkpt lat="43.73337" lon="7.10229">
        <ele>441.20001220703</ele>
        <time>2023-08-02T06:51:50.000Z</time>
      </trkpt>
      <trkpt lat="43.73336" lon="7.10225">
        <ele>441.60000610352</ele>
        <time>2023-08-02T06:51:51.000Z</time>
      </trkpt>
      <trkpt lat="43.73334" lon="7.10222">
        <ele>442.20001220703</ele>
        <time>2023-08-02T06:51:52.000Z</time>
      </trkpt>
      <trkpt lat="43.73333" lon="7.10218">
        <ele>442.60000610352</ele>
        <time>2023-08-02T06:51:53.000Z</time>
      </trkpt>
      <trkpt lat="43.73331" lon="7.10214">
        <ele>443</ele>
        <time>2023-08-02T06:51:54.000Z</time>
      </trkpt>
      <trkpt lat="43.7333" lon="7.10211">
        <ele>443</ele>
        <time>2023-08-02T06:51:55.000Z</time>
      </trkpt>
      <trkpt lat="43.73328" lon="7.10208">
        <ele>443.39999389648</ele>
        <time>2023-08-02T06:51:56.000Z</time>
      </trkpt>
      <trkpt lat="43.73327" lon="7.10204">
        <ele>443.60000610352</ele>
        <time>2023-08-02T06:51:57.000Z</time>
      </trkpt>
      <trkpt lat="43.73326" lon="7.10201">
        <ele>443.79998779297</ele>
        <time>2023-08-02T06:51:58.000Z</time>
      </trkpt>
      <trkpt lat="43.73324" lon="7.10197">
        <ele>443.79998779297</ele>
        <time>2023-08-02T06:51:59.000Z</time>
      </trkpt>
      <trkpt lat="43.73323" lon="7.10194">
        <ele>444</ele>
        <time>2023-08-02T06:52:00.000Z</time>
      </trkpt>
      <trkpt lat="43.73322" lon="7.10191">
        <ele>444.20001220703</ele>
        <time>2023-08-02T06:52:01.000Z</time>
      </trkpt>
      <trkpt lat="43.73322" lon="7.10186">
        <ele>444.20001220703</ele>
        <time>2023-08-02T06:52:02.000Z</time>
      </trkpt>
      <trkpt lat="43.73321" lon="7.10183">
        <ele>444.20001220703</ele>
        <time>2023-08-02T06:52:03.000Z</time>
      </trkpt>
      <trkpt lat="43.73319" lon="7.10179">
        <ele>444.39999389648</ele>
        <time>2023-08-02T06:52:04.000Z</time>
      </trkpt>
      <trkpt lat="43.73318" lon="7.10176">
        <ele>444.39999389648</ele>
        <time>2023-08-02T06:52:05.000Z</time>
      </trkpt>
      <trkpt lat="43.73317" lon="7.10172">
        <ele>444.79998779297</ele>
        <time>2023-08-02T06:52:06.000Z</time>
      </trkpt>
      <trkpt lat="43.73315" lon="7.10169">
        <ele>444.79998779297</ele>
        <time>2023-08-02T06:52:07.000Z</time>
      </trkpt>
      <trkpt lat="43.73314" lon="7.10165">
        <ele>444.79998779297</ele>
        <time>2023-08-02T06:52:08.000Z</time>
      </trkpt>
      <trkpt lat="43.73313" lon="7.10161">
        <ele>445</ele>
        <time>2023-08-02T06:52:09.000Z</time>
      </trkpt>
      <trkpt lat="43.73312" lon="7.10157">
        <ele>445.20001220703</ele>
        <time>2023-08-02T06:52:10.000Z</time>
      </trkpt>
      <trkpt lat="43.73311" lon="7.10153">
        <ele>445.39999389648</ele>
        <time>2023-08-02T06:52:11.000Z</time>
      </trkpt>
      <trkpt lat="43.73309" lon="7.1015">
        <ele>445.60000610352</ele>
        <time>2023-08-02T06:52:12.000Z</time>
      </trkpt>
      <trkpt lat="43.73308" lon="7.10146">
        <ele>445.79998779297</ele>
        <time>2023-08-02T06:52:13.000Z</time>
      </trkpt>
      <trkpt lat="43.73307" lon="7.10142">
        <ele>445.79998779297</ele>
        <time>2023-08-02T06:52:14.000Z</time>
      </trkpt>
      <trkpt lat="43.73305" lon="7.10138">
        <ele>446.20001220703</ele>
        <time>2023-08-02T06:52:15.000Z</time>
      </trkpt>
      <trkpt lat="43.73304" lon="7.10134">
        <ele>446.20001220703</ele>
        <time>2023-08-02T06:52:16.000Z</time>
      </trkpt>
      <trkpt lat="43.73302" lon="7.10131">
        <ele>446.60000610352</ele>
        <time>2023-08-02T06:52:17.000Z</time>
      </trkpt>
      <trkpt lat="43.733" lon="7.10127">
        <ele>446.60000610352</ele>
        <time>2023-08-02T06:52:18.000Z</time>
      </trkpt>
      <trkpt lat="43.73298" lon="7.10123">
        <ele>446.79998779297</ele>
        <time>2023-08-02T06:52:19.000Z</time>
      </trkpt>
      <trkpt lat="43.73296" lon="7.10119">
        <ele>446.79998779297</ele>
        <time>2023-08-02T06:52:20.000Z</time>
      </trkpt>
      <trkpt lat="43.73294" lon="7.10116">
        <ele>447</ele>
        <time>2023-08-02T06:52:21.000Z</time>
      </trkpt>
      <trkpt lat="43.73291" lon="7.10112">
        <ele>447.39999389648</ele>
        <time>2023-08-02T06:52:22.000Z</time>
      </trkpt>
      <trkpt lat="43.73288" lon="7.10108">
        <ele>447.39999389648</ele>
        <time>2023-08-02T06:52:23.000Z</time>
      </trkpt>
      <trkpt lat="43.73286" lon="7.10105">
        <ele>447.39999389648</ele>
        <time>2023-08-02T06:52:24.000Z</time>
      </trkpt>
      <trkpt lat="43.73282" lon="7.10102">
        <ele>447.60000610352</ele>
        <time>2023-08-02T06:52:25.000Z</time>
      </trkpt>
      <trkpt lat="43.73279" lon="7.10098">
        <ele>447.60000610352</ele>
        <time>2023-08-02T06:52:26.000Z</time>
      </trkpt>
      <trkpt lat="43.73276" lon="7.10094">
        <ele>447.79998779297</ele>
        <time>2023-08-02T06:52:27.000Z</time>
      </trkpt>
      <trkpt lat="43.73273" lon="7.1009">
        <ele>447.79998779297</ele>
        <time>2023-08-02T06:52:28.000Z</time>
      </trkpt>
      <trkpt lat="43.7327" lon="7.10085">
        <ele>447.79998779297</ele>
        <time>2023-08-02T06:52:29.000Z</time>
      </trkpt>
      <trkpt lat="43.73266" lon="7.10081">
        <ele>447.79998779297</ele>
        <time>2023-08-02T06:52:30.000Z</time>
      </trkpt>
      <trkpt lat="43.73263" lon="7.10076">
        <ele>447.79998779297</ele>
        <time>2023-08-02T06:52:31.000Z</time>
      </trkpt>
      <trkpt lat="43.7326" lon="7.10071">
        <ele>447.79998779297</ele>
        <time>2023-08-02T06:52:32.000Z</time>
      </trkpt>
      <trkpt lat="43.73257" lon="7.10065">
        <ele>447.79998779297</ele>
        <time>2023-08-02T06:52:33.000Z</time>
      </trkpt>
      <trkpt lat="43.73255" lon="7.10059">
        <ele>447.79998779297</ele>
        <time>2023-08-02T06:52:34.000Z</time>
      </trkpt>
      <trkpt lat="43.73253" lon="7.10053">
        <ele>447.79998779297</ele>
        <time>2023-08-02T06:52:35.000Z</time>
      </trkpt>
      <trkpt lat="43.73252" lon="7.10047">
        <ele>447.60000610352</ele>
        <time>2023-08-02T06:52:36.000Z</time>
      </trkpt>
      <trkpt lat="43.7325" lon="7.10041">
        <ele>447.60000610352</ele>
        <time>2023-08-02T06:52:37.000Z</time>
      </trkpt>
      <trkpt lat="43.73247" lon="7.10035">
        <ele>447.60000610352</ele>
        <time>2023-08-02T06:52:38.000Z</time>
      </trkpt>
      <trkpt lat="43.73243" lon="7.1003">
        <ele>447.60000610352</ele>
        <time>2023-08-02T06:52:39.000Z</time>
      </trkpt>
      <trkpt lat="43.73239" lon="7.10027">
        <ele>447.60000610352</ele>
        <time>2023-08-02T06:52:40.000Z</time>
      </trkpt>
      <trkpt lat="43.73235" lon="7.10024">
        <ele>447.79998779297</ele>
        <time>2023-08-02T06:52:41.000Z</time>
      </trkpt>
      <trkpt lat="43.73231" lon="7.10021">
        <ele>448</ele>
        <time>2023-08-02T06:52:42.000Z</time>
      </trkpt>
      <trkpt lat="43.73228" lon="7.10017">
        <ele>448.20001220703</ele>
        <time>2023-08-02T06:52:43.000Z</time>
      </trkpt>
      <trkpt lat="43.73225" lon="7.10014">
        <ele>448.79998779297</ele>
        <time>2023-08-02T06:52:44.000Z</time>
      </trkpt>
      <trkpt lat="43.73222" lon="7.10011">
        <ele>449</ele>
        <time>2023-08-02T06:52:45.000Z</time>
      </trkpt>
      <trkpt lat="43.73219" lon="7.10008">
        <ele>449.60000610352</ele>
        <time>2023-08-02T06:52:46.000Z</time>
      </trkpt>
      <trkpt lat="43.73217" lon="7.10005">
        <ele>450</ele>
        <time>2023-08-02T06:52:47.000Z</time>
      </trkpt>
      <trkpt lat="43.73214" lon="7.10002">
        <ele>450.79998779297</ele>
        <time>2023-08-02T06:52:48.000Z</time>
      </trkpt>
      <trkpt lat="43.73211" lon="7.09999">
        <ele>451</ele>
        <time>2023-08-02T06:52:49.000Z</time>
      </trkpt>
      <trkpt lat="43.73208" lon="7.09997">
        <ele>451.79998779297</ele>
        <time>2023-08-02T06:52:50.000Z</time>
      </trkpt>
      <trkpt lat="43.73205" lon="7.09996">
        <ele>452.39999389648</ele>
        <time>2023-08-02T06:52:51.000Z</time>
      </trkpt>
      <trkpt lat="43.73202" lon="7.09995">
        <ele>452.39999389648</ele>
        <time>2023-08-02T06:52:52.000Z</time>
      </trkpt>
      <trkpt lat="43.73198" lon="7.09994">
        <ele>452.79998779297</ele>
        <time>2023-08-02T06:52:53.000Z</time>
      </trkpt>
      <trkpt lat="43.73195" lon="7.09993">
        <ele>453.20001220703</ele>
        <time>2023-08-02T06:52:54.000Z</time>
      </trkpt>
      <trkpt lat="43.73192" lon="7.09992">
        <ele>454</ele>
        <time>2023-08-02T06:52:55.000Z</time>
      </trkpt>
      <trkpt lat="43.73189" lon="7.09993">
        <ele>454.60000610352</ele>
        <time>2023-08-02T06:52:56.000Z</time>
      </trkpt>
      <trkpt lat="43.73186" lon="7.09993">
        <ele>455</ele>
        <time>2023-08-02T06:52:57.000Z</time>
      </trkpt>
      <trkpt lat="43.73183" lon="7.09992">
        <ele>455.60000610352</ele>
        <time>2023-08-02T06:52:58.000Z</time>
      </trkpt>
      <trkpt lat="43.7318" lon="7.09991">
        <ele>455.79998779297</ele>
        <time>2023-08-02T06:52:59.000Z</time>
      </trkpt>
      <trkpt lat="43.73178" lon="7.09992">
        <ele>456.79998779297</ele>
        <time>2023-08-02T06:53:00.000Z</time>
      </trkpt>
      <trkpt lat="43.73175" lon="7.0999">
        <ele>457.39999389648</ele>
        <time>2023-08-02T06:53:01.000Z</time>
      </trkpt>
      <trkpt lat="43.73174" lon="7.09986">
        <ele>458</ele>
        <time>2023-08-02T06:53:02.000Z</time>
      </trkpt>
      <trkpt lat="43.73173" lon="7.09983">
        <ele>458.60000610352</ele>
        <time>2023-08-02T06:53:03.000Z</time>
      </trkpt>
      <trkpt lat="43.73175" lon="7.0998">
        <ele>459.20001220703</ele>
        <time>2023-08-02T06:53:04.000Z</time>
      </trkpt>
      <trkpt lat="43.73178" lon="7.09979">
        <ele>459.60000610352</ele>
        <time>2023-08-02T06:53:05.000Z</time>
      </trkpt>
      <trkpt lat="43.7318" lon="7.09978">
        <ele>460.20001220703</ele>
        <time>2023-08-02T06:53:06.000Z</time>
      </trkpt>
      <trkpt lat="43.73182" lon="7.09977">
        <ele>461</ele>
        <time>2023-08-02T06:53:07.000Z</time>
      </trkpt>
      <trkpt lat="43.73183" lon="7.09975">
        <ele>461.60000610352</ele>
        <time>2023-08-02T06:53:08.000Z</time>
      </trkpt>
      <trkpt lat="43.73185" lon="7.09974">
        <ele>462.20001220703</ele>
        <time>2023-08-02T06:53:09.000Z</time>
      </trkpt>
      <trkpt lat="43.73188" lon="7.09971">
        <ele>462.79998779297</ele>
        <time>2023-08-02T06:53:10.000Z</time>
      </trkpt>
      <trkpt lat="43.73189" lon="7.09967">
        <ele>463.20001220703</ele>
        <time>2023-08-02T06:53:11.000Z</time>
      </trkpt>
      <trkpt lat="43.7319" lon="7.09964">
        <ele>463.79998779297</ele>
        <time>2023-08-02T06:53:12.000Z</time>
      </trkpt>
      <trkpt lat="43.7319" lon="7.0996">
        <ele>464</ele>
        <time>2023-08-02T06:53:13.000Z</time>
      </trkpt>
      <trkpt lat="43.73189" lon="7.09957">
        <ele>464.39999389648</ele>
        <time>2023-08-02T06:53:14.000Z</time>
      </trkpt>
      <trkpt lat="43.73189" lon="7.09953">
        <ele>465.20001220703</ele>
        <time>2023-08-02T06:53:15.000Z</time>
      </trkpt>
      <trkpt lat="43.73188" lon="7.09951">
        <ele>465.20001220703</ele>
        <time>2023-08-02T06:53:16.000Z</time>
      </trkpt>
      <trkpt lat="43.73188" lon="7.09947">
        <ele>465.20001220703</ele>
        <time>2023-08-02T06:53:17.000Z</time>
      </trkpt>
      <trkpt lat="43.73188" lon="7.09943">
        <ele>465.79998779297</ele>
        <time>2023-08-02T06:53:18.000Z</time>
      </trkpt>
      <trkpt lat="43.73189" lon="7.09939">
        <ele>466.20001220703</ele>
        <time>2023-08-02T06:53:19.000Z</time>
      </trkpt>
      <trkpt lat="43.73189" lon="7.09935">
        <ele>467</ele>
        <time>2023-08-02T06:53:20.000Z</time>
      </trkpt>
      <trkpt lat="43.73189" lon="7.09931">
        <ele>467.39999389648</ele>
        <time>2023-08-02T06:53:21.000Z</time>
      </trkpt>
      <trkpt lat="43.73188" lon="7.09927">
        <ele>468</ele>
        <time>2023-08-02T06:53:22.000Z</time>
      </trkpt>
      <trkpt lat="43.73187" lon="7.09923">
        <ele>468.79998779297</ele>
        <time>2023-08-02T06:53:23.000Z</time>
      </trkpt>
      <trkpt lat="43.73186" lon="7.09919">
        <ele>469.20001220703</ele>
        <time>2023-08-02T06:53:24.000Z</time>
      </trkpt>
      <trkpt lat="43.73186" lon="7.09915">
        <ele>469.79998779297</ele>
        <time>2023-08-02T06:53:25.000Z</time>
      </trkpt>
      <trkpt lat="43.73185" lon="7.09911">
        <ele>470.60000610352</ele>
        <time>2023-08-02T06:53:26.000Z</time>
      </trkpt>
      <trkpt lat="43.73185" lon="7.09907">
        <ele>471</ele>
        <time>2023-08-02T06:53:27.000Z</time>
      </trkpt>
      <trkpt lat="43.73184" lon="7.09904">
        <ele>471.39999389648</ele>
        <time>2023-08-02T06:53:28.000Z</time>
      </trkpt>
      <trkpt lat="43.73185" lon="7.09901">
        <ele>472</ele>
        <time>2023-08-02T06:53:29.000Z</time>
      </trkpt>
      <trkpt lat="43.73185" lon="7.09897">
        <ele>472.39999389648</ele>
        <time>2023-08-02T06:53:30.000Z</time>
      </trkpt>
      <trkpt lat="43.73185" lon="7.09894">
        <ele>472.60000610352</ele>
        <time>2023-08-02T06:53:31.000Z</time>
      </trkpt>
      <trkpt lat="43.73186" lon="7.0989">
        <ele>472.79998779297</ele>
        <time>2023-08-02T06:53:32.000Z</time>
      </trkpt>
      <trkpt lat="43.73187" lon="7.09886">
        <ele>473.20001220703</ele>
        <time>2023-08-02T06:53:33.000Z</time>
      </trkpt>
      <trkpt lat="43.73187" lon="7.09882">
        <ele>473.39999389648</ele>
        <time>2023-08-02T06:53:34.000Z</time>
      </trkpt>
      <trkpt lat="43.73188" lon="7.09878">
        <ele>473.60000610352</ele>
        <time>2023-08-02T06:53:35.000Z</time>
      </trkpt>
      <trkpt lat="43.73188" lon="7.09875">
        <ele>474</ele>
        <time>2023-08-02T06:53:36.000Z</time>
      </trkpt>
      <trkpt lat="43.73189" lon="7.09871">
        <ele>474.39999389648</ele>
        <time>2023-08-02T06:53:37.000Z</time>
      </trkpt>
      <trkpt lat="43.7319" lon="7.09868">
        <ele>474.79998779297</ele>
        <time>2023-08-02T06:53:38.000Z</time>
      </trkpt>
      <trkpt lat="43.73191" lon="7.09865">
        <ele>475.20001220703</ele>
        <time>2023-08-02T06:53:39.000Z</time>
      </trkpt>
      <trkpt lat="43.73192" lon="7.09862">
        <ele>475.79998779297</ele>
        <time>2023-08-02T06:53:40.000Z</time>
      </trkpt>
      <trkpt lat="43.73194" lon="7.09858">
        <ele>475.79998779297</ele>
        <time>2023-08-02T06:53:41.000Z</time>
      </trkpt>
      <trkpt lat="43.73195" lon="7.09855">
        <ele>476</ele>
        <time>2023-08-02T06:53:42.000Z</time>
      </trkpt>
      <trkpt lat="43.73196" lon="7.09852">
        <ele>476.39999389648</ele>
        <time>2023-08-02T06:53:43.000Z</time>
      </trkpt>
      <trkpt lat="43.73198" lon="7.09849">
        <ele>477.20001220703</ele>
        <time>2023-08-02T06:53:44.000Z</time>
      </trkpt>
      <trkpt lat="43.73199" lon="7.09846">
        <ele>477.20001220703</ele>
        <time>2023-08-02T06:53:45.000Z</time>
      </trkpt>
      <trkpt lat="43.73201" lon="7.09844">
        <ele>478.20001220703</ele>
        <time>2023-08-02T06:53:46.000Z</time>
      </trkpt>
      <trkpt lat="43.73201" lon="7.09842">
        <ele>478.60000610352</ele>
        <time>2023-08-02T06:53:47.000Z</time>
      </trkpt>
      <trkpt lat="43.73202" lon="7.09838">
        <ele>479.39999389648</ele>
        <time>2023-08-02T06:53:48.000Z</time>
      </trkpt>
      <trkpt lat="43.73204" lon="7.09834">
        <ele>479.79998779297</ele>
        <time>2023-08-02T06:53:49.000Z</time>
      </trkpt>
      <trkpt lat="43.73205" lon="7.09831">
        <ele>480.20001220703</ele>
        <time>2023-08-02T06:53:50.000Z</time>
      </trkpt>
      <trkpt lat="43.73206" lon="7.09828">
        <ele>481</ele>
        <time>2023-08-02T06:53:51.000Z</time>
      </trkpt>
      <trkpt lat="43.73207" lon="7.09825">
        <ele>481.60000610352</ele>
        <time>2023-08-02T06:53:52.000Z</time>
      </trkpt>
      <trkpt lat="43.73207" lon="7.09822">
        <ele>482.20001220703</ele>
        <time>2023-08-02T06:53:53.000Z</time>
      </trkpt>
      <trkpt lat="43.73208" lon="7.09818">
        <ele>482.79998779297</ele>
        <time>2023-08-02T06:53:54.000Z</time>
      </trkpt>
      <trkpt lat="43.73208" lon="7.09815">
        <ele>483.39999389648</ele>
        <time>2023-08-02T06:53:55.000Z</time>
      </trkpt>
      <trkpt lat="43.73208" lon="7.09812">
        <ele>484</ele>
        <time>2023-08-02T06:53:56.000Z</time>
      </trkpt>
      <trkpt lat="43.73208" lon="7.09809">
        <ele>484.79998779297</ele>
        <time>2023-08-02T06:53:57.000Z</time>
      </trkpt>
      <trkpt lat="43.73208" lon="7.09805">
        <ele>485.39999389648</ele>
        <time>2023-08-02T06:53:58.000Z</time>
      </trkpt>
      <trkpt lat="43.73208" lon="7.09802">
        <ele>486</ele>
        <time>2023-08-02T06:53:59.000Z</time>
      </trkpt>
      <trkpt lat="43.73207" lon="7.09799">
        <ele>486.60000610352</ele>
        <time>2023-08-02T06:54:00.000Z</time>
      </trkpt>
      <trkpt lat="43.73206" lon="7.09796">
        <ele>487</ele>
        <time>2023-08-02T06:54:01.000Z</time>
      </trkpt>
      <trkpt lat="43.73205" lon="7.09793">
        <ele>487.39999389648</ele>
        <time>2023-08-02T06:54:02.000Z</time>
      </trkpt>
      <trkpt lat="43.73204" lon="7.0979">
        <ele>488</ele>
        <time>2023-08-02T06:54:03.000Z</time>
      </trkpt>
      <trkpt lat="43.73203" lon="7.09788">
        <ele>488.39999389648</ele>
        <time>2023-08-02T06:54:04.000Z</time>
      </trkpt>
      <trkpt lat="43.73202" lon="7.09785">
        <ele>488.79998779297</ele>
        <time>2023-08-02T06:54:05.000Z</time>
      </trkpt>
      <trkpt lat="43.73202" lon="7.09781">
        <ele>488.79998779297</ele>
        <time>2023-08-02T06:54:06.000Z</time>
      </trkpt>
      <trkpt lat="43.73201" lon="7.09778">
        <ele>489.20001220703</ele>
        <time>2023-08-02T06:54:07.000Z</time>
      </trkpt>
      <trkpt lat="43.73199" lon="7.09775">
        <ele>489.60000610352</ele>
        <time>2023-08-02T06:54:08.000Z</time>
      </trkpt>
      <trkpt lat="43.73198" lon="7.09771">
        <ele>490</ele>
        <time>2023-08-02T06:54:09.000Z</time>
      </trkpt>
      <trkpt lat="43.73198" lon="7.09767">
        <ele>490.60000610352</ele>
        <time>2023-08-02T06:54:10.000Z</time>
      </trkpt>
      <trkpt lat="43.73198" lon="7.09763">
        <ele>491</ele>
        <time>2023-08-02T06:54:11.000Z</time>
      </trkpt>
      <trkpt lat="43.732" lon="7.0976">
        <ele>491.39999389648</ele>
        <time>2023-08-02T06:54:12.000Z</time>
      </trkpt>
      <trkpt lat="43.73202" lon="7.09758">
        <ele>491.39999389648</ele>
        <time>2023-08-02T06:54:13.000Z</time>
      </trkpt>
      <trkpt lat="43.73204" lon="7.09758">
        <ele>491.60000610352</ele>
        <time>2023-08-02T06:54:14.000Z</time>
      </trkpt>
      <trkpt lat="43.73206" lon="7.09759">
        <ele>492.20001220703</ele>
        <time>2023-08-02T06:54:15.000Z</time>
      </trkpt>
      <trkpt lat="43.73208" lon="7.09758">
        <ele>492.79998779297</ele>
        <time>2023-08-02T06:54:16.000Z</time>
      </trkpt>
      <trkpt lat="43.7321" lon="7.09756">
        <ele>493.20001220703</ele>
        <time>2023-08-02T06:54:17.000Z</time>
      </trkpt>
      <trkpt lat="43.73212" lon="7.09753">
        <ele>493.79998779297</ele>
        <time>2023-08-02T06:54:18.000Z</time>
      </trkpt>
      <trkpt lat="43.73214" lon="7.0975">
        <ele>494.39999389648</ele>
        <time>2023-08-02T06:54:19.000Z</time>
      </trkpt>
      <trkpt lat="43.73215" lon="7.09746">
        <ele>495</ele>
        <time>2023-08-02T06:54:20.000Z</time>
      </trkpt>
      <trkpt lat="43.73217" lon="7.09743">
        <ele>495.39999389648</ele>
        <time>2023-08-02T06:54:21.000Z</time>
      </trkpt>
      <trkpt lat="43.73218" lon="7.0974">
        <ele>495.79998779297</ele>
        <time>2023-08-02T06:54:22.000Z</time>
      </trkpt>
      <trkpt lat="43.7322" lon="7.09737">
        <ele>496.39999389648</ele>
        <time>2023-08-02T06:54:23.000Z</time>
      </trkpt>
      <trkpt lat="43.7322" lon="7.09733">
        <ele>497</ele>
        <time>2023-08-02T06:54:24.000Z</time>
      </trkpt>
      <trkpt lat="43.73221" lon="7.0973">
        <ele>497.60000610352</ele>
        <time>2023-08-02T06:54:25.000Z</time>
      </trkpt>
      <trkpt lat="43.73223" lon="7.09727">
        <ele>498</ele>
        <time>2023-08-02T06:54:26.000Z</time>
      </trkpt>
      <trkpt lat="43.73224" lon="7.09724">
        <ele>498.20001220703</ele>
        <time>2023-08-02T06:54:27.000Z</time>
      </trkpt>
      <trkpt lat="43.73225" lon="7.09721">
        <ele>498.79998779297</ele>
        <time>2023-08-02T06:54:28.000Z</time>
      </trkpt>
      <trkpt lat="43.73226" lon="7.09717">
        <ele>498.79998779297</ele>
        <time>2023-08-02T06:54:29.000Z</time>
      </trkpt>
      <trkpt lat="43.73227" lon="7.09714">
        <ele>498.79998779297</ele>
        <time>2023-08-02T06:54:30.000Z</time>
      </trkpt>
      <trkpt lat="43.73228" lon="7.09711">
        <ele>499.39999389648</ele>
        <time>2023-08-02T06:54:31.000Z</time>
      </trkpt>
      <trkpt lat="43.73229" lon="7.09708">
        <ele>499.79998779297</ele>
        <time>2023-08-02T06:54:32.000Z</time>
      </trkpt>
      <trkpt lat="43.7323" lon="7.09704">
        <ele>500.39999389648</ele>
        <time>2023-08-02T06:54:33.000Z</time>
      </trkpt>
      <trkpt lat="43.73231" lon="7.09701">
        <ele>500.60000610352</ele>
        <time>2023-08-02T06:54:34.000Z</time>
      </trkpt>
      <trkpt lat="43.73232" lon="7.09698">
        <ele>500.79998779297</ele>
        <time>2023-08-02T06:54:35.000Z</time>
      </trkpt>
      <trkpt lat="43.73233" lon="7.09694">
        <ele>501.20001220703</ele>
        <time>2023-08-02T06:54:36.000Z</time>
      </trkpt>
      <trkpt lat="43.73233" lon="7.0969">
        <ele>501.60000610352</ele>
        <time>2023-08-02T06:54:37.000Z</time>
      </trkpt>
      <trkpt lat="43.73234" lon="7.09686">
        <ele>501.79998779297</ele>
        <time>2023-08-02T06:54:38.000Z</time>
      </trkpt>
      <trkpt lat="43.73235" lon="7.09683">
        <ele>502</ele>
        <time>2023-08-02T06:54:39.000Z</time>
      </trkpt>
      <trkpt lat="43.73236" lon="7.09679">
        <ele>502.20001220703</ele>
        <time>2023-08-02T06:54:40.000Z</time>
      </trkpt>
      <trkpt lat="43.73237" lon="7.09674">
        <ele>502.39999389648</ele>
        <time>2023-08-02T06:54:41.000Z</time>
      </trkpt>
      <trkpt lat="43.73238" lon="7.0967">
        <ele>502.39999389648</ele>
        <time>2023-08-02T06:54:42.000Z</time>
      </trkpt>
      <trkpt lat="43.73239" lon="7.09666">
        <ele>502.39999389648</ele>
        <time>2023-08-02T06:54:43.000Z</time>
      </trkpt>
      <trkpt lat="43.7324" lon="7.09662">
        <ele>502.39999389648</ele>
        <time>2023-08-02T06:54:44.000Z</time>
      </trkpt>
      <trkpt lat="43.73241" lon="7.09658">
        <ele>502.39999389648</ele>
        <time>2023-08-02T06:54:45.000Z</time>
      </trkpt>
      <trkpt lat="43.73241" lon="7.09654">
        <ele>502.60000610352</ele>
        <time>2023-08-02T06:54:46.000Z</time>
      </trkpt>
      <trkpt lat="43.73242" lon="7.0965">
        <ele>502.60000610352</ele>
        <time>2023-08-02T06:54:47.000Z</time>
      </trkpt>
      <trkpt lat="43.73242" lon="7.09646">
        <ele>502.60000610352</ele>
        <time>2023-08-02T06:54:48.000Z</time>
      </trkpt>
      <trkpt lat="43.73242" lon="7.09642">
        <ele>502.60000610352</ele>
        <time>2023-08-02T06:54:49.000Z</time>
      </trkpt>
      <trkpt lat="43.73242" lon="7.09637">
        <ele>502.60000610352</ele>
        <time>2023-08-02T06:54:50.000Z</time>
      </trkpt>
      <trkpt lat="43.73242" lon="7.09633">
        <ele>502.60000610352</ele>
        <time>2023-08-02T06:54:51.000Z</time>
      </trkpt>
      <trkpt lat="43.73242" lon="7.09628">
        <ele>502.79998779297</ele>
        <time>2023-08-02T06:54:52.000Z</time>
      </trkpt>
      <trkpt lat="43.73243" lon="7.09624">
        <ele>502.79998779297</ele>
        <time>2023-08-02T06:54:53.000Z</time>
      </trkpt>
      <trkpt lat="43.73244" lon="7.09621">
        <ele>502.79998779297</ele>
        <time>2023-08-02T06:54:54.000Z</time>
      </trkpt>
      <trkpt lat="43.73245" lon="7.09617">
        <ele>502.79998779297</ele>
        <time>2023-08-02T06:54:55.000Z</time>
      </trkpt>
      <trkpt lat="43.73247" lon="7.09614">
        <ele>502.79998779297</ele>
        <time>2023-08-02T06:54:56.000Z</time>
      </trkpt>
      <trkpt lat="43.7325" lon="7.09611">
        <ele>502.79998779297</ele>
        <time>2023-08-02T06:54:57.000Z</time>
      </trkpt>
      <trkpt lat="43.73252" lon="7.09609">
        <ele>503</ele>
        <time>2023-08-02T06:54:58.000Z</time>
      </trkpt>
      <trkpt lat="43.73255" lon="7.09606">
        <ele>503.39999389648</ele>
        <time>2023-08-02T06:54:59.000Z</time>
      </trkpt>
      <trkpt lat="43.73257" lon="7.09603">
        <ele>503.39999389648</ele>
        <time>2023-08-02T06:55:00.000Z</time>
      </trkpt>
      <trkpt lat="43.73259" lon="7.09601">
        <ele>503.79998779297</ele>
        <time>2023-08-02T06:55:01.000Z</time>
      </trkpt>
      <trkpt lat="43.7326" lon="7.09599">
        <ele>504.20001220703</ele>
        <time>2023-08-02T06:55:02.000Z</time>
      </trkpt>
      <trkpt lat="43.73261" lon="7.09597">
        <ele>504.79998779297</ele>
        <time>2023-08-02T06:55:03.000Z</time>
      </trkpt>
      <trkpt lat="43.73262" lon="7.09595">
        <ele>505</ele>
        <time>2023-08-02T06:55:04.000Z</time>
      </trkpt>
      <trkpt lat="43.73264" lon="7.09593">
        <ele>505.60000610352</ele>
        <time>2023-08-02T06:55:05.000Z</time>
      </trkpt>
      <trkpt lat="43.73265" lon="7.0959">
        <ele>506</ele>
        <time>2023-08-02T06:55:06.000Z</time>
      </trkpt>
      <trkpt lat="43.73266" lon="7.09586">
        <ele>506.39999389648</ele>
        <time>2023-08-02T06:55:07.000Z</time>
      </trkpt>
      <trkpt lat="43.73267" lon="7.09584">
        <ele>506.60000610352</ele>
        <time>2023-08-02T06:55:08.000Z</time>
      </trkpt>
      <trkpt lat="43.73268" lon="7.09581">
        <ele>507</ele>
        <time>2023-08-02T06:55:09.000Z</time>
      </trkpt>
      <trkpt lat="43.73269" lon="7.09577">
        <ele>507.20001220703</ele>
        <time>2023-08-02T06:55:10.000Z</time>
      </trkpt>
      <trkpt lat="43.7327" lon="7.09573">
        <ele>507.60000610352</ele>
        <time>2023-08-02T06:55:11.000Z</time>
      </trkpt>
      <trkpt lat="43.73271" lon="7.09569">
        <ele>507.79998779297</ele>
        <time>2023-08-02T06:55:12.000Z</time>
      </trkpt>
      <trkpt lat="43.73272" lon="7.09566">
        <ele>507.79998779297</ele>
        <time>2023-08-02T06:55:13.000Z</time>
      </trkpt>
      <trkpt lat="43.73273" lon="7.09562">
        <ele>508</ele>
        <time>2023-08-02T06:55:14.000Z</time>
      </trkpt>
      <trkpt lat="43.73275" lon="7.09559">
        <ele>508.20001220703</ele>
        <time>2023-08-02T06:55:15.000Z</time>
      </trkpt>
      <trkpt lat="43.73276" lon="7.09556">
        <ele>508.39999389648</ele>
        <time>2023-08-02T06:55:16.000Z</time>
      </trkpt>
      <trkpt lat="43.73277" lon="7.09553">
        <ele>508.60000610352</ele>
        <time>2023-08-02T06:55:17.000Z</time>
      </trkpt>
      <trkpt lat="43.73278" lon="7.0955">
        <ele>508.60000610352</ele>
        <time>2023-08-02T06:55:18.000Z</time>
      </trkpt>
      <trkpt lat="43.73279" lon="7.09548">
        <ele>508.60000610352</ele>
        <time>2023-08-02T06:55:19.000Z</time>
      </trkpt>
      <trkpt lat="43.73281" lon="7.09545">
        <ele>509.20001220703</ele>
        <time>2023-08-02T06:55:20.000Z</time>
      </trkpt>
      <trkpt lat="43.73282" lon="7.09543">
        <ele>509.60000610352</ele>
        <time>2023-08-02T06:55:21.000Z</time>
      </trkpt>
      <trkpt lat="43.73283" lon="7.0954">
        <ele>509.79998779297</ele>
        <time>2023-08-02T06:55:22.000Z</time>
      </trkpt>
      <trkpt lat="43.73285" lon="7.09538">
        <ele>510.20001220703</ele>
        <time>2023-08-02T06:55:23.000Z</time>
      </trkpt>
      <trkpt lat="43.73286" lon="7.09535">
        <ele>510.60000610352</ele>
        <time>2023-08-02T06:55:24.000Z</time>
      </trkpt>
      <trkpt lat="43.73287" lon="7.09531">
        <ele>511</ele>
        <time>2023-08-02T06:55:25.000Z</time>
      </trkpt>
      <trkpt lat="43.73289" lon="7.09529">
        <ele>511.39999389648</ele>
        <time>2023-08-02T06:55:26.000Z</time>
      </trkpt>
      <trkpt lat="43.7329" lon="7.09525">
        <ele>511.79998779297</ele>
        <time>2023-08-02T06:55:27.000Z</time>
      </trkpt>
      <trkpt lat="43.7329" lon="7.09521">
        <ele>512</ele>
        <time>2023-08-02T06:55:28.000Z</time>
      </trkpt>
      <trkpt lat="43.73292" lon="7.09518">
        <ele>512.20001220703</ele>
        <time>2023-08-02T06:55:29.000Z</time>
      </trkpt>
      <trkpt lat="43.73293" lon="7.09515">
        <ele>512.59997558594</ele>
        <time>2023-08-02T06:55:30.000Z</time>
      </trkpt>
      <trkpt lat="43.73294" lon="7.09511">
        <ele>512.59997558594</ele>
        <time>2023-08-02T06:55:31.000Z</time>
      </trkpt>
      <trkpt lat="43.73296" lon="7.09508">
        <ele>512.79998779297</ele>
        <time>2023-08-02T06:55:32.000Z</time>
      </trkpt>
      <trkpt lat="43.73297" lon="7.09504">
        <ele>512.79998779297</ele>
        <time>2023-08-02T06:55:33.000Z</time>
      </trkpt>
      <trkpt lat="43.73299" lon="7.09501">
        <ele>513</ele>
        <time>2023-08-02T06:55:34.000Z</time>
      </trkpt>
      <trkpt lat="43.733" lon="7.09497">
        <ele>513.20001220703</ele>
        <time>2023-08-02T06:55:35.000Z</time>
      </trkpt>
      <trkpt lat="43.73301" lon="7.09494">
        <ele>513.40002441406</ele>
        <time>2023-08-02T06:55:36.000Z</time>
      </trkpt>
      <trkpt lat="43.73302" lon="7.0949">
        <ele>513.59997558594</ele>
        <time>2023-08-02T06:55:37.000Z</time>
      </trkpt>
      <trkpt lat="43.73303" lon="7.09487">
        <ele>513.79998779297</ele>
        <time>2023-08-02T06:55:38.000Z</time>
      </trkpt>
      <trkpt lat="43.73303" lon="7.09483">
        <ele>513.79998779297</ele>
        <time>2023-08-02T06:55:39.000Z</time>
      </trkpt>
      <trkpt lat="43.73303" lon="7.0948">
        <ele>514</ele>
        <time>2023-08-02T06:55:40.000Z</time>
      </trkpt>
      <trkpt lat="43.73304" lon="7.09477">
        <ele>514.20001220703</ele>
        <time>2023-08-02T06:55:41.000Z</time>
      </trkpt>
      <trkpt lat="43.73305" lon="7.09474">
        <ele>514.20001220703</ele>
        <time>2023-08-02T06:55:42.000Z</time>
      </trkpt>
      <trkpt lat="43.73305" lon="7.09471">
        <ele>514.40002441406</ele>
        <time>2023-08-02T06:55:43.000Z</time>
      </trkpt>
      <trkpt lat="43.73305" lon="7.09468">
        <ele>514.59997558594</ele>
        <time>2023-08-02T06:55:44.000Z</time>
      </trkpt>
      <trkpt lat="43.73305" lon="7.09464">
        <ele>515</ele>
        <time>2023-08-02T06:55:45.000Z</time>
      </trkpt>
      <trkpt lat="43.73304" lon="7.09461">
        <ele>515.20001220703</ele>
        <time>2023-08-02T06:55:46.000Z</time>
      </trkpt>
      <trkpt lat="43.73303" lon="7.09459">
        <ele>515.40002441406</ele>
        <time>2023-08-02T06:55:47.000Z</time>
      </trkpt>
      <trkpt lat="43.73303" lon="7.09455">
        <ele>515.59997558594</ele>
        <time>2023-08-02T06:55:48.000Z</time>
      </trkpt>
      <trkpt lat="43.73303" lon="7.09452">
        <ele>516</ele>
        <time>2023-08-02T06:55:49.000Z</time>
      </trkpt>
      <trkpt lat="43.73303" lon="7.09449">
        <ele>516</ele>
        <time>2023-08-02T06:55:50.000Z</time>
      </trkpt>
      <trkpt lat="43.73303" lon="7.09445">
        <ele>516.40002441406</ele>
        <time>2023-08-02T06:55:51.000Z</time>
      </trkpt>
      <trkpt lat="43.73303" lon="7.09441">
        <ele>516.59997558594</ele>
        <time>2023-08-02T06:55:52.000Z</time>
      </trkpt>
      <trkpt lat="43.73303" lon="7.09439">
        <ele>516.59997558594</ele>
        <time>2023-08-02T06:55:53.000Z</time>
      </trkpt>
      <trkpt lat="43.73303" lon="7.09434">
        <ele>516.79998779297</ele>
        <time>2023-08-02T06:55:54.000Z</time>
      </trkpt>
      <trkpt lat="43.73304" lon="7.0943">
        <ele>517</ele>
        <time>2023-08-02T06:55:55.000Z</time>
      </trkpt>
      <trkpt lat="43.73303" lon="7.09425">
        <ele>517</ele>
        <time>2023-08-02T06:55:56.000Z</time>
      </trkpt>
      <trkpt lat="43.73303" lon="7.09422">
        <ele>517.20001220703</ele>
        <time>2023-08-02T06:55:57.000Z</time>
      </trkpt>
      <trkpt lat="43.73303" lon="7.09419">
        <ele>517.20001220703</ele>
        <time>2023-08-02T06:55:58.000Z</time>
      </trkpt>
      <trkpt lat="43.73303" lon="7.09415">
        <ele>517.40002441406</ele>
        <time>2023-08-02T06:55:59.000Z</time>
      </trkpt>
      <trkpt lat="43.73302" lon="7.09412">
        <ele>517.40002441406</ele>
        <time>2023-08-02T06:56:00.000Z</time>
      </trkpt>
      <trkpt lat="43.73302" lon="7.09408">
        <ele>517.59997558594</ele>
        <time>2023-08-02T06:56:01.000Z</time>
      </trkpt>
      <trkpt lat="43.73301" lon="7.09404">
        <ele>517.79998779297</ele>
        <time>2023-08-02T06:56:02.000Z</time>
      </trkpt>
      <trkpt lat="43.73301" lon="7.094">
        <ele>518</ele>
        <time>2023-08-02T06:56:03.000Z</time>
      </trkpt>
      <trkpt lat="43.733" lon="7.09396">
        <ele>518.40002441406</ele>
        <time>2023-08-02T06:56:04.000Z</time>
      </trkpt>
      <trkpt lat="43.733" lon="7.09393">
        <ele>518.59997558594</ele>
        <time>2023-08-02T06:56:05.000Z</time>
      </trkpt>
      <trkpt lat="43.733" lon="7.09389">
        <ele>518.59997558594</ele>
        <time>2023-08-02T06:56:06.000Z</time>
      </trkpt>
      <trkpt lat="43.733" lon="7.09385">
        <ele>518.79998779297</ele>
        <time>2023-08-02T06:56:07.000Z</time>
      </trkpt>
      <trkpt lat="43.733" lon="7.09382">
        <ele>519</ele>
        <time>2023-08-02T06:56:08.000Z</time>
      </trkpt>
      <trkpt lat="43.73301" lon="7.09379">
        <ele>519.20001220703</ele>
        <time>2023-08-02T06:56:09.000Z</time>
      </trkpt>
      <trkpt lat="43.73301" lon="7.09376">
        <ele>519.20001220703</ele>
        <time>2023-08-02T06:56:10.000Z</time>
      </trkpt>
      <trkpt lat="43.73302" lon="7.09373">
        <ele>519.40002441406</ele>
        <time>2023-08-02T06:56:11.000Z</time>
      </trkpt>
      <trkpt lat="43.73302" lon="7.09369">
        <ele>519.79998779297</ele>
        <time>2023-08-02T06:56:12.000Z</time>
      </trkpt>
      <trkpt lat="43.73302" lon="7.09365">
        <ele>520</ele>
        <time>2023-08-02T06:56:13.000Z</time>
      </trkpt>
      <trkpt lat="43.73302" lon="7.0936">
        <ele>520.20001220703</ele>
        <time>2023-08-02T06:56:14.000Z</time>
      </trkpt>
      <trkpt lat="43.73302" lon="7.09356">
        <ele>520.20001220703</ele>
        <time>2023-08-02T06:56:15.000Z</time>
      </trkpt>
      <trkpt lat="43.73302" lon="7.09352">
        <ele>520.40002441406</ele>
        <time>2023-08-02T06:56:16.000Z</time>
      </trkpt>
      <trkpt lat="43.73302" lon="7.09348">
        <ele>520.40002441406</ele>
        <time>2023-08-02T06:56:17.000Z</time>
      </trkpt>
      <trkpt lat="43.73303" lon="7.09345">
        <ele>520.40002441406</ele>
        <time>2023-08-02T06:56:18.000Z</time>
      </trkpt>
      <trkpt lat="43.73303" lon="7.0934">
        <ele>520.40002441406</ele>
        <time>2023-08-02T06:56:19.000Z</time>
      </trkpt>
      <trkpt lat="43.73304" lon="7.09335">
        <ele>520.40002441406</ele>
        <time>2023-08-02T06:56:20.000Z</time>
      </trkpt>
      <trkpt lat="43.73306" lon="7.0933">
        <ele>520.20001220703</ele>
        <time>2023-08-02T06:56:21.000Z</time>
      </trkpt>
      <trkpt lat="43.73308" lon="7.09325">
        <ele>520.20001220703</ele>
        <time>2023-08-02T06:56:22.000Z</time>
      </trkpt>
      <trkpt lat="43.7331" lon="7.09319">
        <ele>520.20001220703</ele>
        <time>2023-08-02T06:56:23.000Z</time>
      </trkpt>
      <trkpt lat="43.73312" lon="7.09314">
        <ele>520.20001220703</ele>
        <time>2023-08-02T06:56:24.000Z</time>
      </trkpt>
      <trkpt lat="43.73316" lon="7.09309">
        <ele>520.20001220703</ele>
        <time>2023-08-02T06:56:25.000Z</time>
      </trkpt>
      <trkpt lat="43.7332" lon="7.09303">
        <ele>519.79998779297</ele>
        <time>2023-08-02T06:56:26.000Z</time>
      </trkpt>
      <trkpt lat="43.73325" lon="7.09297">
        <ele>519.59997558594</ele>
        <time>2023-08-02T06:56:27.000Z</time>
      </trkpt>
      <trkpt lat="43.73329" lon="7.09292">
        <ele>519.20001220703</ele>
        <time>2023-08-02T06:56:28.000Z</time>
      </trkpt>
      <trkpt lat="43.73333" lon="7.09285">
        <ele>518.79998779297</ele>
        <time>2023-08-02T06:56:29.000Z</time>
      </trkpt>
      <trkpt lat="43.73336" lon="7.09279">
        <ele>518.79998779297</ele>
        <time>2023-08-02T06:56:30.000Z</time>
      </trkpt>
      <trkpt lat="43.73338" lon="7.09271">
        <ele>518.20001220703</ele>
        <time>2023-08-02T06:56:31.000Z</time>
      </trkpt>
      <trkpt lat="43.7334" lon="7.09264">
        <ele>518.20001220703</ele>
        <time>2023-08-02T06:56:32.000Z</time>
      </trkpt>
      <trkpt lat="43.73341" lon="7.09257">
        <ele>518.20001220703</ele>
        <time>2023-08-02T06:56:33.000Z</time>
      </trkpt>
      <trkpt lat="43.73342" lon="7.09251">
        <ele>518.20001220703</ele>
        <time>2023-08-02T06:56:34.000Z</time>
      </trkpt>
      <trkpt lat="43.73343" lon="7.09246">
        <ele>518.20001220703</ele>
        <time>2023-08-02T06:56:35.000Z</time>
      </trkpt>
      <trkpt lat="43.73344" lon="7.09241">
        <ele>518.20001220703</ele>
        <time>2023-08-02T06:56:36.000Z</time>
      </trkpt>
      <trkpt lat="43.73344" lon="7.09238">
        <ele>518.40002441406</ele>
        <time>2023-08-02T06:56:37.000Z</time>
      </trkpt>
      <trkpt lat="43.73345" lon="7.09234">
        <ele>518.59997558594</ele>
        <time>2023-08-02T06:56:38.000Z</time>
      </trkpt>
      <trkpt lat="43.73344" lon="7.0923">
        <ele>518.79998779297</ele>
        <time>2023-08-02T06:56:39.000Z</time>
      </trkpt>
      <trkpt lat="43.73343" lon="7.09226">
        <ele>519</ele>
        <time>2023-08-02T06:56:40.000Z</time>
      </trkpt>
      <trkpt lat="43.73342" lon="7.09221">
        <ele>519.40002441406</ele>
        <time>2023-08-02T06:56:41.000Z</time>
      </trkpt>
      <trkpt lat="43.73342" lon="7.09217">
        <ele>519.59997558594</ele>
        <time>2023-08-02T06:56:42.000Z</time>
      </trkpt>
      <trkpt lat="43.73341" lon="7.09211">
        <ele>519.79998779297</ele>
        <time>2023-08-02T06:56:43.000Z</time>
      </trkpt>
      <trkpt lat="43.73342" lon="7.09206">
        <ele>519.79998779297</ele>
        <time>2023-08-02T06:56:44.000Z</time>
      </trkpt>
      <trkpt lat="43.73342" lon="7.09201">
        <ele>520.20001220703</ele>
        <time>2023-08-02T06:56:45.000Z</time>
      </trkpt>
      <trkpt lat="43.73342" lon="7.09197">
        <ele>520.40002441406</ele>
        <time>2023-08-02T06:56:46.000Z</time>
      </trkpt>
      <trkpt lat="43.73342" lon="7.09193">
        <ele>520.79998779297</ele>
        <time>2023-08-02T06:56:47.000Z</time>
      </trkpt>
      <trkpt lat="43.73342" lon="7.09188">
        <ele>521.20001220703</ele>
        <time>2023-08-02T06:56:48.000Z</time>
      </trkpt>
      <trkpt lat="43.73342" lon="7.09184">
        <ele>521.59997558594</ele>
        <time>2023-08-02T06:56:49.000Z</time>
      </trkpt>
      <trkpt lat="43.73343" lon="7.0918">
        <ele>522</ele>
        <time>2023-08-02T06:56:50.000Z</time>
      </trkpt>
      <trkpt lat="43.73343" lon="7.09176">
        <ele>522.20001220703</ele>
        <time>2023-08-02T06:56:51.000Z</time>
      </trkpt>
      <trkpt lat="43.73343" lon="7.09172">
        <ele>522.59997558594</ele>
        <time>2023-08-02T06:56:52.000Z</time>
      </trkpt>
      <trkpt lat="43.73344" lon="7.09167">
        <ele>522.79998779297</ele>
        <time>2023-08-02T06:56:53.000Z</time>
      </trkpt>
      <trkpt lat="43.73344" lon="7.09163">
        <ele>522.79998779297</ele>
        <time>2023-08-02T06:56:54.000Z</time>
      </trkpt>
      <trkpt lat="43.73345" lon="7.09159">
        <ele>523.20001220703</ele>
        <time>2023-08-02T06:56:55.000Z</time>
      </trkpt>
      <trkpt lat="43.73346" lon="7.09156">
        <ele>523.59997558594</ele>
        <time>2023-08-02T06:56:56.000Z</time>
      </trkpt>
      <trkpt lat="43.73347" lon="7.09152">
        <ele>524</ele>
        <time>2023-08-02T06:56:57.000Z</time>
      </trkpt>
      <trkpt lat="43.73349" lon="7.09149">
        <ele>524.40002441406</ele>
        <time>2023-08-02T06:56:58.000Z</time>
      </trkpt>
      <trkpt lat="43.7335" lon="7.09145">
        <ele>524.79998779297</ele>
        <time>2023-08-02T06:56:59.000Z</time>
      </trkpt>
      <trkpt lat="43.73352" lon="7.09143">
        <ele>525.20001220703</ele>
        <time>2023-08-02T06:57:00.000Z</time>
      </trkpt>
      <trkpt lat="43.73353" lon="7.0914">
        <ele>525.79998779297</ele>
        <time>2023-08-02T06:57:01.000Z</time>
      </trkpt>
      <trkpt lat="43.73355" lon="7.09137">
        <ele>526.20001220703</ele>
        <time>2023-08-02T06:57:02.000Z</time>
      </trkpt>
      <trkpt lat="43.73357" lon="7.09136">
        <ele>526.59997558594</ele>
        <time>2023-08-02T06:57:03.000Z</time>
      </trkpt>
      <trkpt lat="43.73359" lon="7.09133">
        <ele>527.40002441406</ele>
        <time>2023-08-02T06:57:04.000Z</time>
      </trkpt>
      <trkpt lat="43.7336" lon="7.09131">
        <ele>527.79998779297</ele>
        <time>2023-08-02T06:57:05.000Z</time>
      </trkpt>
      <trkpt lat="43.73361" lon="7.09128">
        <ele>528.20001220703</ele>
        <time>2023-08-02T06:57:06.000Z</time>
      </trkpt>
      <trkpt lat="43.73363" lon="7.09125">
        <ele>529</ele>
        <time>2023-08-02T06:57:07.000Z</time>
      </trkpt>
      <trkpt lat="43.73365" lon="7.09122">
        <ele>529.40002441406</ele>
        <time>2023-08-02T06:57:08.000Z</time>
      </trkpt>
      <trkpt lat="43.73366" lon="7.0912">
        <ele>530</ele>
        <time>2023-08-02T06:57:09.000Z</time>
      </trkpt>
      <trkpt lat="43.73367" lon="7.09116">
        <ele>530.40002441406</ele>
        <time>2023-08-02T06:57:10.000Z</time>
      </trkpt>
      <trkpt lat="43.73367" lon="7.09113">
        <ele>531.20001220703</ele>
        <time>2023-08-02T06:57:11.000Z</time>
      </trkpt>
      <trkpt lat="43.73368" lon="7.09111">
        <ele>531.59997558594</ele>
        <time>2023-08-02T06:57:12.000Z</time>
      </trkpt>
      <trkpt lat="43.7337" lon="7.09108">
        <ele>532.20001220703</ele>
        <time>2023-08-02T06:57:13.000Z</time>
      </trkpt>
      <trkpt lat="43.73371" lon="7.09106">
        <ele>532.59997558594</ele>
        <time>2023-08-02T06:57:14.000Z</time>
      </trkpt>
      <trkpt lat="43.73372" lon="7.09103">
        <ele>533.20001220703</ele>
        <time>2023-08-02T06:57:15.000Z</time>
      </trkpt>
      <trkpt lat="43.73373" lon="7.091">
        <ele>533.59997558594</ele>
        <time>2023-08-02T06:57:16.000Z</time>
      </trkpt>
      <trkpt lat="43.73374" lon="7.09097">
        <ele>533.59997558594</ele>
        <time>2023-08-02T06:57:17.000Z</time>
      </trkpt>
      <trkpt lat="43.73374" lon="7.09094">
        <ele>534</ele>
        <time>2023-08-02T06:57:18.000Z</time>
      </trkpt>
      <trkpt lat="43.73375" lon="7.09091">
        <ele>534.40002441406</ele>
        <time>2023-08-02T06:57:19.000Z</time>
      </trkpt>
      <trkpt lat="43.73376" lon="7.09088">
        <ele>535</ele>
        <time>2023-08-02T06:57:20.000Z</time>
      </trkpt>
      <trkpt lat="43.73378" lon="7.09085">
        <ele>535.40002441406</ele>
        <time>2023-08-02T06:57:21.000Z</time>
      </trkpt>
      <trkpt lat="43.73379" lon="7.09083">
        <ele>535.79998779297</ele>
        <time>2023-08-02T06:57:22.000Z</time>
      </trkpt>
      <trkpt lat="43.7338" lon="7.0908">
        <ele>536.20001220703</ele>
        <time>2023-08-02T06:57:23.000Z</time>
      </trkpt>
      <trkpt lat="43.73382" lon="7.09078">
        <ele>536.79998779297</ele>
        <time>2023-08-02T06:57:24.000Z</time>
      </trkpt>
      <trkpt lat="43.73383" lon="7.09076">
        <ele>537.20001220703</ele>
        <time>2023-08-02T06:57:25.000Z</time>
      </trkpt>
      <trkpt lat="43.73385" lon="7.09073">
        <ele>537.79998779297</ele>
        <time>2023-08-02T06:57:26.000Z</time>
      </trkpt>
      <trkpt lat="43.73388" lon="7.09072">
        <ele>538.40002441406</ele>
        <time>2023-08-02T06:57:27.000Z</time>
      </trkpt>
      <trkpt lat="43.7339" lon="7.0907">
        <ele>539</ele>
        <time>2023-08-02T06:57:28.000Z</time>
      </trkpt>
      <trkpt lat="43.73392" lon="7.09069">
        <ele>539.40002441406</ele>
        <time>2023-08-02T06:57:29.000Z</time>
      </trkpt>
      <trkpt lat="43.73394" lon="7.09066">
        <ele>540</ele>
        <time>2023-08-02T06:57:30.000Z</time>
      </trkpt>
      <trkpt lat="43.73395" lon="7.09064">
        <ele>540.20001220703</ele>
        <time>2023-08-02T06:57:31.000Z</time>
      </trkpt>
      <trkpt lat="43.73397" lon="7.09062">
        <ele>540.79998779297</ele>
        <time>2023-08-02T06:57:32.000Z</time>
      </trkpt>
      <trkpt lat="43.73399" lon="7.0906">
        <ele>541.20001220703</ele>
        <time>2023-08-02T06:57:33.000Z</time>
      </trkpt>
      <trkpt lat="43.73401" lon="7.09058">
        <ele>541.79998779297</ele>
        <time>2023-08-02T06:57:34.000Z</time>
      </trkpt>
      <trkpt lat="43.73403" lon="7.09056">
        <ele>542.40002441406</ele>
        <time>2023-08-02T06:57:35.000Z</time>
      </trkpt>
      <trkpt lat="43.73405" lon="7.09054">
        <ele>543</ele>
        <time>2023-08-02T06:57:36.000Z</time>
      </trkpt>
      <trkpt lat="43.73407" lon="7.09052">
        <ele>543.40002441406</ele>
        <time>2023-08-02T06:57:37.000Z</time>
      </trkpt>
      <trkpt lat="43.73409" lon="7.09049">
        <ele>544</ele>
        <time>2023-08-02T06:57:38.000Z</time>
      </trkpt>
      <trkpt lat="43.7341" lon="7.09046">
        <ele>544.20001220703</ele>
        <time>2023-08-02T06:57:39.000Z</time>
      </trkpt>
      <trkpt lat="43.73411" lon="7.09042">
        <ele>544.59997558594</ele>
        <time>2023-08-02T06:57:40.000Z</time>
      </trkpt>
      <trkpt lat="43.73413" lon="7.0904">
        <ele>544.59997558594</ele>
        <time>2023-08-02T06:57:41.000Z</time>
      </trkpt>
      <trkpt lat="43.73415" lon="7.09037">
        <ele>545</ele>
        <time>2023-08-02T06:57:42.000Z</time>
      </trkpt>
      <trkpt lat="43.73416" lon="7.09034">
        <ele>545.20001220703</ele>
        <time>2023-08-02T06:57:43.000Z</time>
      </trkpt>
      <trkpt lat="43.73418" lon="7.09031">
        <ele>545.40002441406</ele>
        <time>2023-08-02T06:57:44.000Z</time>
      </trkpt>
      <trkpt lat="43.73419" lon="7.09028">
        <ele>545.79998779297</ele>
        <time>2023-08-02T06:57:45.000Z</time>
      </trkpt>
      <trkpt lat="43.73421" lon="7.09025">
        <ele>546</ele>
        <time>2023-08-02T06:57:46.000Z</time>
      </trkpt>
      <trkpt lat="43.73422" lon="7.09023">
        <ele>546.40002441406</ele>
        <time>2023-08-02T06:57:47.000Z</time>
      </trkpt>
      <trkpt lat="43.73423" lon="7.0902">
        <ele>546.79998779297</ele>
        <time>2023-08-02T06:57:48.000Z</time>
      </trkpt>
      <trkpt lat="43.73425" lon="7.09018">
        <ele>547</ele>
        <time>2023-08-02T06:57:49.000Z</time>
      </trkpt>
      <trkpt lat="43.73427" lon="7.09016">
        <ele>547.20001220703</ele>
        <time>2023-08-02T06:57:50.000Z</time>
      </trkpt>
      <trkpt lat="43.7343" lon="7.09016">
        <ele>547.59997558594</ele>
        <time>2023-08-02T06:57:51.000Z</time>
      </trkpt>
      <trkpt lat="43.73432" lon="7.09016">
        <ele>547.79998779297</ele>
        <time>2023-08-02T06:57:52.000Z</time>
      </trkpt>
      <trkpt lat="43.73435" lon="7.09016">
        <ele>548.40002441406</ele>
        <time>2023-08-02T06:57:53.000Z</time>
      </trkpt>
      <trkpt lat="43.73438" lon="7.09016">
        <ele>548.79998779297</ele>
        <time>2023-08-02T06:57:54.000Z</time>
      </trkpt>
      <trkpt lat="43.7344" lon="7.09015">
        <ele>549.20001220703</ele>
        <time>2023-08-02T06:57:55.000Z</time>
      </trkpt>
      <trkpt lat="43.73443" lon="7.09014">
        <ele>549.20001220703</ele>
        <time>2023-08-02T06:57:56.000Z</time>
      </trkpt>
      <trkpt lat="43.73445" lon="7.09013">
        <ele>549.59997558594</ele>
        <time>2023-08-02T06:57:57.000Z</time>
      </trkpt>
      <trkpt lat="43.73447" lon="7.09012">
        <ele>550</ele>
        <time>2023-08-02T06:57:58.000Z</time>
      </trkpt>
      <trkpt lat="43.73448" lon="7.0901">
        <ele>550.20001220703</ele>
        <time>2023-08-02T06:57:59.000Z</time>
      </trkpt>
      <trkpt lat="43.73449" lon="7.09009">
        <ele>550.40002441406</ele>
        <time>2023-08-02T06:58:00.000Z</time>
      </trkpt>
      <trkpt lat="43.73449" lon="7.09008">
        <ele>550.40002441406</ele>
        <time>2023-08-02T06:58:01.000Z</time>
      </trkpt>
      <trkpt lat="43.73449" lon="7.09008">
        <ele>550.59997558594</ele>
        <time>2023-08-02T06:58:02.000Z</time>
      </trkpt>
      <trkpt lat="43.73448" lon="7.09008">
        <ele>550.79998779297</ele>
        <time>2023-08-02T06:58:03.000Z</time>
      </trkpt>
      <trkpt lat="43.73448" lon="7.09009">
        <ele>550.79998779297</ele>
        <time>2023-08-02T06:58:04.000Z</time>
      </trkpt>
      <trkpt lat="43.73448" lon="7.09009">
        <ele>551</ele>
        <time>2023-08-02T06:58:05.000Z</time>
      </trkpt>
      <trkpt lat="43.73448" lon="7.09009">
        <ele>551</ele>
        <time>2023-08-02T06:58:06.000Z</time>
      </trkpt>
      <trkpt lat="43.73448" lon="7.09009">
        <ele>551</ele>
        <time>2023-08-02T06:58:07.000Z</time>
      </trkpt>
      <trkpt lat="43.73448" lon="7.09009">
        <ele>551</ele>
        <time>2023-08-02T06:58:08.000Z</time>
      </trkpt>
      <trkpt lat="43.73448" lon="7.09009">
        <ele>551.20001220703</ele>
        <time>2023-08-02T06:58:09.000Z</time>
      </trkpt>
      <trkpt lat="43.73448" lon="7.09009">
        <ele>551.20001220703</ele>
        <time>2023-08-02T06:58:10.000Z</time>
      </trkpt>
      <trkpt lat="43.73448" lon="7.09009">
        <ele>551.20001220703</ele>
        <time>2023-08-02T06:58:11.000Z</time>
      </trkpt>
      <trkpt lat="43.73448" lon="7.09009">
        <ele>551.20001220703</ele>
        <time>2023-08-02T06:58:12.000Z</time>
      </trkpt>
      <trkpt lat="43.73448" lon="7.09009">
        <ele>551.20001220703</ele>
        <time>2023-08-02T06:58:13.000Z</time>
      </trkpt>
      <trkpt lat="43.73448" lon="7.09009">
        <ele>551.20001220703</ele>
        <time>2023-08-02T06:58:14.000Z</time>
      </trkpt>
      <trkpt lat="43.73448" lon="7.09009">
        <ele>551.20001220703</ele>
        <time>2023-08-02T06:58:15.000Z</time>
      </trkpt>
      <trkpt lat="43.73448" lon="7.09009">
        <ele>551.20001220703</ele>
        <time>2023-08-02T06:58:16.000Z</time>
      </trkpt>
      <trkpt lat="43.73448" lon="7.09009">
        <ele>551.20001220703</ele>
        <time>2023-08-02T06:58:17.000Z</time>
      </trkpt>
      <trkpt lat="43.73448" lon="7.09009">
        <ele>551.20001220703</ele>
        <time>2023-08-02T06:58:18.000Z</time>
      </trkpt>
      <trkpt lat="43.73448" lon="7.09009">
        <ele>551.20001220703</ele>
        <time>2023-08-02T06:58:19.000Z</time>
      </trkpt>
      <trkpt lat="43.73448" lon="7.09009">
        <ele>551.20001220703</ele>
        <time>2023-08-02T06:58:20.000Z</time>
      </trkpt>
      <trkpt lat="43.73448" lon="7.09009">
        <ele>548.79998779297</ele>
        <time>2023-08-02T06:58:21.000Z</time>
      </trkpt>
      <trkpt lat="43.73449" lon="7.09009">
        <ele>549</ele>
        <time>2023-08-02T06:58:22.000Z</time>
      </trkpt>
      <trkpt lat="43.73449" lon="7.09009">
        <ele>549</ele>
        <time>2023-08-02T06:58:23.000Z</time>
      </trkpt>
      <trkpt lat="43.73449" lon="7.09009">
        <ele>549</ele>
        <time>2023-08-02T06:58:24.000Z</time>
      </trkpt>
      <trkpt lat="43.73449" lon="7.09009">
        <ele>553.59997558594</ele>
        <time>2023-08-02T06:58:25.000Z</time>
      </trkpt>
      <trkpt lat="43.73449" lon="7.09009">
        <ele>553.59997558594</ele>
        <time>2023-08-02T06:58:26.000Z</time>
      </trkpt>
      <trkpt lat="43.73449" lon="7.09009">
        <ele>553.59997558594</ele>
        <time>2023-08-02T06:58:27.000Z</time>
      </trkpt>
      <trkpt lat="43.73449" lon="7.09009">
        <ele>553.59997558594</ele>
        <time>2023-08-02T06:58:28.000Z</time>
      </trkpt>
      <trkpt lat="43.73449" lon="7.09009">
        <ele>553.59997558594</ele>
        <time>2023-08-02T06:58:29.000Z</time>
      </trkpt>
      <trkpt lat="43.73449" lon="7.09009">
        <ele>552.59997558594</ele>
        <time>2023-08-02T06:58:30.000Z</time>
      </trkpt>
      <trkpt lat="43.73449" lon="7.09009">
        <ele>551.79998779297</ele>
        <time>2023-08-02T06:58:31.000Z</time>
      </trkpt>
      <trkpt lat="43.73449" lon="7.09009">
        <ele>551.59997558594</ele>
        <time>2023-08-02T06:58:32.000Z</time>
      </trkpt>
      <trkpt lat="43.73449" lon="7.09009">
        <ele>551.59997558594</ele>
        <time>2023-08-02T06:58:33.000Z</time>
      </trkpt>
      <trkpt lat="43.73449" lon="7.09009">
        <ele>551.40002441406</ele>
        <time>2023-08-02T06:58:34.000Z</time>
      </trkpt>
      <trkpt lat="43.73449" lon="7.09009">
        <ele>551.40002441406</ele>
        <time>2023-08-02T06:58:35.000Z</time>
      </trkpt>
      <trkpt lat="43.73449" lon="7.09009">
        <ele>551.40002441406</ele>
        <time>2023-08-02T06:58:36.000Z</time>
      </trkpt>
      <trkpt lat="43.73449" lon="7.09009">
        <ele>551.20001220703</ele>
        <time>2023-08-02T06:58:37.000Z</time>
      </trkpt>
      <trkpt lat="43.73449" lon="7.09009">
        <ele>550.59997558594</ele>
        <time>2023-08-02T06:58:38.000Z</time>
      </trkpt>
      <trkpt lat="43.73449" lon="7.09009">
        <ele>550.59997558594</ele>
        <time>2023-08-02T06:58:39.000Z</time>
      </trkpt>
      <trkpt lat="43.73449" lon="7.09009">
        <ele>550.59997558594</ele>
        <time>2023-08-02T06:58:40.000Z</time>
      </trkpt>
      <trkpt lat="43.73449" lon="7.09009">
        <ele>551.20001220703</ele>
        <time>2023-08-02T06:58:41.000Z</time>
      </trkpt>
      <trkpt lat="43.73449" lon="7.09009">
        <ele>551.20001220703</ele>
        <time>2023-08-02T06:58:42.000Z</time>
      </trkpt>
      <trkpt lat="43.73449" lon="7.09009">
        <ele>551.40002441406</ele>
        <time>2023-08-02T06:58:43.000Z</time>
      </trkpt>
      <trkpt lat="43.73449" lon="7.09009">
        <ele>551.79998779297</ele>
        <time>2023-08-02T06:58:44.000Z</time>
      </trkpt>
      <trkpt lat="43.73449" lon="7.09009">
        <ele>551.79998779297</ele>
        <time>2023-08-02T06:58:45.000Z</time>
      </trkpt>
      <trkpt lat="43.73449" lon="7.09009">
        <ele>551.79998779297</ele>
        <time>2023-08-02T06:58:46.000Z</time>
      </trkpt>
      <trkpt lat="43.73449" lon="7.09009">
        <ele>551.59997558594</ele>
        <time>2023-08-02T06:58:47.000Z</time>
      </trkpt>
      <trkpt lat="43.73449" lon="7.09009">
        <ele>551.59997558594</ele>
        <time>2023-08-02T06:58:48.000Z</time>
      </trkpt>
      <trkpt lat="43.73449" lon="7.09009">
        <ele>551.79998779297</ele>
        <time>2023-08-02T06:58:49.000Z</time>
      </trkpt>
      <trkpt lat="43.73449" lon="7.09009">
        <ele>552</ele>
        <time>2023-08-02T06:58:50.000Z</time>
      </trkpt>
      <trkpt lat="43.73449" lon="7.09009">
        <ele>552</ele>
        <time>2023-08-02T06:58:51.000Z</time>
      </trkpt>
      <trkpt lat="43.73449" lon="7.09009">
        <ele>551.79998779297</ele>
        <time>2023-08-02T06:58:52.000Z</time>
      </trkpt>
      <trkpt lat="43.73449" lon="7.09009">
        <ele>551.79998779297</ele>
        <time>2023-08-02T06:58:53.000Z</time>
      </trkpt>
      <trkpt lat="43.73449" lon="7.09009">
        <ele>551.79998779297</ele>
        <time>2023-08-02T06:58:54.000Z</time>
      </trkpt>
      <trkpt lat="43.73449" lon="7.09009">
        <ele>551.79998779297</ele>
        <time>2023-08-02T06:58:55.000Z</time>
      </trkpt>
      <trkpt lat="43.73449" lon="7.09009">
        <ele>551.79998779297</ele>
        <time>2023-08-02T06:58:56.000Z</time>
      </trkpt>
      <trkpt lat="43.73449" lon="7.09009">
        <ele>551.79998779297</ele>
        <time>2023-08-02T06:58:57.000Z</time>
      </trkpt>
      <trkpt lat="43.73449" lon="7.09009">
        <ele>551.79998779297</ele>
        <time>2023-08-02T06:58:58.000Z</time>
      </trkpt>
      <trkpt lat="43.73448" lon="7.09009">
        <ele>551.79998779297</ele>
        <time>2023-08-02T06:58:59.000Z</time>
      </trkpt>
      <trkpt lat="43.73448" lon="7.09009">
        <ele>551.79998779297</ele>
        <time>2023-08-02T06:59:00.000Z</time>
      </trkpt>
      <trkpt lat="43.73448" lon="7.09009">
        <ele>551.79998779297</ele>
        <time>2023-08-02T06:59:01.000Z</time>
      </trkpt>
      <trkpt lat="43.73448" lon="7.09009">
        <ele>551.79998779297</ele>
        <time>2023-08-02T06:59:02.000Z</time>
      </trkpt>
      <trkpt lat="43.73448" lon="7.09009">
        <ele>552.59997558594</ele>
        <time>2023-08-02T06:59:03.000Z</time>
      </trkpt>
      <trkpt lat="43.73448" lon="7.09009">
        <ele>552.59997558594</ele>
        <time>2023-08-02T06:59:04.000Z</time>
      </trkpt>
      <trkpt lat="43.73448" lon="7.09009">
        <ele>552.59997558594</ele>
        <time>2023-08-02T06:59:05.000Z</time>
      </trkpt>
      <trkpt lat="43.73448" lon="7.09009">
        <ele>551.59997558594</ele>
        <time>2023-08-02T06:59:06.000Z</time>
      </trkpt>
      <trkpt lat="43.73448" lon="7.09009">
        <ele>551.59997558594</ele>
        <time>2023-08-02T06:59:07.000Z</time>
      </trkpt>
      <trkpt lat="43.73449" lon="7.09009">
        <ele>551.59997558594</ele>
        <time>2023-08-02T06:59:08.000Z</time>
      </trkpt>
      <trkpt lat="43.73449" lon="7.09009">
        <ele>551.59997558594</ele>
        <time>2023-08-02T06:59:09.000Z</time>
      </trkpt>
      <trkpt lat="43.73449" lon="7.09009">
        <ele>551.59997558594</ele>
        <time>2023-08-02T06:59:10.000Z</time>
      </trkpt>
      <trkpt lat="43.73449" lon="7.09009">
        <ele>551.59997558594</ele>
        <time>2023-08-02T06:59:11.000Z</time>
      </trkpt>
      <trkpt lat="43.73449" lon="7.09009">
        <ele>551.59997558594</ele>
        <time>2023-08-02T06:59:12.000Z</time>
      </trkpt>
      <trkpt lat="43.73449" lon="7.09009">
        <ele>551.59997558594</ele>
        <time>2023-08-02T06:59:13.000Z</time>
      </trkpt>
      <trkpt lat="43.73449" lon="7.09009">
        <ele>551.59997558594</ele>
        <time>2023-08-02T06:59:14.000Z</time>
      </trkpt>
      <trkpt lat="43.73449" lon="7.09009">
        <ele>551.59997558594</ele>
        <time>2023-08-02T06:59:15.000Z</time>
      </trkpt>
      <trkpt lat="43.73449" lon="7.09009">
        <ele>551.59997558594</ele>
        <time>2023-08-02T06:59:16.000Z</time>
      </trkpt>
      <trkpt lat="43.73449" lon="7.09009">
        <ele>551.59997558594</ele>
        <time>2023-08-02T06:59:17.000Z</time>
      </trkpt>
      <trkpt lat="43.73449" lon="7.09009">
        <ele>551.59997558594</ele>
        <time>2023-08-02T06:59:18.000Z</time>
      </trkpt>
      <trkpt lat="43.73449" lon="7.09009">
        <ele>551.59997558594</ele>
        <time>2023-08-02T06:59:19.000Z</time>
      </trkpt>
      <trkpt lat="43.73449" lon="7.09009">
        <ele>551.59997558594</ele>
        <time>2023-08-02T06:59:20.000Z</time>
      </trkpt>
      <trkpt lat="43.73449" lon="7.09009">
        <ele>551.59997558594</ele>
        <time>2023-08-02T06:59:21.000Z</time>
      </trkpt>
      <trkpt lat="43.73449" lon="7.09009">
        <ele>551.59997558594</ele>
        <time>2023-08-02T06:59:22.000Z</time>
      </trkpt>
      <trkpt lat="43.73448" lon="7.09009">
        <ele>551.59997558594</ele>
        <time>2023-08-02T06:59:23.000Z</time>
      </trkpt>
      <trkpt lat="43.73448" lon="7.09009">
        <ele>551.59997558594</ele>
        <time>2023-08-02T06:59:24.000Z</time>
      </trkpt>
      <trkpt lat="43.73449" lon="7.09009">
        <ele>551.59997558594</ele>
        <time>2023-08-02T06:59:25.000Z</time>
      </trkpt>
      <trkpt lat="43.73449" lon="7.09009">
        <ele>551.59997558594</ele>
        <time>2023-08-02T06:59:26.000Z</time>
      </trkpt>
      <trkpt lat="43.73448" lon="7.09009">
        <ele>551.59997558594</ele>
        <time>2023-08-02T06:59:27.000Z</time>
      </trkpt>
      <trkpt lat="43.73448" lon="7.09009">
        <ele>551.59997558594</ele>
        <time>2023-08-02T06:59:28.000Z</time>
      </trkpt>
      <trkpt lat="43.73447" lon="7.09007">
        <ele>551.59997558594</ele>
        <time>2023-08-02T06:59:29.000Z</time>
      </trkpt>
      <trkpt lat="43.73446" lon="7.09006">
        <ele>551.59997558594</ele>
        <time>2023-08-02T06:59:30.000Z</time>
      </trkpt>
      <trkpt lat="43.73445" lon="7.09005">
        <ele>551.59997558594</ele>
        <time>2023-08-02T06:59:31.000Z</time>
      </trkpt>
      <trkpt lat="43.73443" lon="7.09005">
        <ele>551.59997558594</ele>
        <time>2023-08-02T06:59:32.000Z</time>
      </trkpt>
      <trkpt lat="43.73441" lon="7.09006">
        <ele>551.59997558594</ele>
        <time>2023-08-02T06:59:33.000Z</time>
      </trkpt>
      <trkpt lat="43.73438" lon="7.09007">
        <ele>551.59997558594</ele>
        <time>2023-08-02T06:59:34.000Z</time>
      </trkpt>
      <trkpt lat="43.73435" lon="7.09008">
        <ele>551.59997558594</ele>
        <time>2023-08-02T06:59:35.000Z</time>
      </trkpt>
      <trkpt lat="43.73433" lon="7.09009">
        <ele>551.40002441406</ele>
        <time>2023-08-02T06:59:36.000Z</time>
      </trkpt>
      <trkpt lat="43.73431" lon="7.09011">
        <ele>551.40002441406</ele>
        <time>2023-08-02T06:59:37.000Z</time>
      </trkpt>
      <trkpt lat="43.73428" lon="7.09011">
        <ele>551.20001220703</ele>
        <time>2023-08-02T06:59:38.000Z</time>
      </trkpt>
      <trkpt lat="43.73426" lon="7.09012">
        <ele>551.20001220703</ele>
        <time>2023-08-02T06:59:39.000Z</time>
      </trkpt>
      <trkpt lat="43.73424" lon="7.09015">
        <ele>551</ele>
        <time>2023-08-02T06:59:40.000Z</time>
      </trkpt>
      <trkpt lat="43.73422" lon="7.09018">
        <ele>550.79998779297</ele>
        <time>2023-08-02T06:59:41.000Z</time>
      </trkpt>
      <trkpt lat="43.7342" lon="7.09022">
        <ele>550.40002441406</ele>
        <time>2023-08-02T06:59:42.000Z</time>
      </trkpt>
      <trkpt lat="43.73419" lon="7.09026">
        <ele>550.20001220703</ele>
        <time>2023-08-02T06:59:43.000Z</time>
      </trkpt>
      <trkpt lat="43.73417" lon="7.0903">
        <ele>550</ele>
        <time>2023-08-02T06:59:44.000Z</time>
      </trkpt>
      <trkpt lat="43.73415" lon="7.09034">
        <ele>549.40002441406</ele>
        <time>2023-08-02T06:59:45.000Z</time>
      </trkpt>
      <trkpt lat="43.73412" lon="7.09038">
        <ele>549</ele>
        <time>2023-08-02T06:59:46.000Z</time>
      </trkpt>
      <trkpt lat="43.7341" lon="7.09041">
        <ele>548.79998779297</ele>
        <time>2023-08-02T06:59:47.000Z</time>
      </trkpt>
      <trkpt lat="43.73407" lon="7.09044">
        <ele>548.40002441406</ele>
        <time>2023-08-02T06:59:48.000Z</time>
      </trkpt>
      <trkpt lat="43.73406" lon="7.09048">
        <ele>547.59997558594</ele>
        <time>2023-08-02T06:59:49.000Z</time>
      </trkpt>
      <trkpt lat="43.73403" lon="7.09051">
        <ele>547.20001220703</ele>
        <time>2023-08-02T06:59:50.000Z</time>
      </trkpt>
      <trkpt lat="43.73402" lon="7.09053">
        <ele>546.79998779297</ele>
        <time>2023-08-02T06:59:51.000Z</time>
      </trkpt>
      <trkpt lat="43.734" lon="7.09056">
        <ele>546.40002441406</ele>
        <time>2023-08-02T06:59:52.000Z</time>
      </trkpt>
      <trkpt lat="43.73398" lon="7.09058">
        <ele>546</ele>
        <time>2023-08-02T06:59:53.000Z</time>
      </trkpt>
      <trkpt lat="43.73396" lon="7.0906">
        <ele>545.59997558594</ele>
        <time>2023-08-02T06:59:54.000Z</time>
      </trkpt>
      <trkpt lat="43.73394" lon="7.09062">
        <ele>545.20001220703</ele>
        <time>2023-08-02T06:59:55.000Z</time>
      </trkpt>
      <trkpt lat="43.73391" lon="7.09065">
        <ele>544.79998779297</ele>
        <time>2023-08-02T06:59:56.000Z</time>
      </trkpt>
      <trkpt lat="43.73389" lon="7.09067">
        <ele>544.40002441406</ele>
        <time>2023-08-02T06:59:57.000Z</time>
      </trkpt>
      <trkpt lat="43.73386" lon="7.0907">
        <ele>544</ele>
        <time>2023-08-02T06:59:58.000Z</time>
      </trkpt>
      <trkpt lat="43.73384" lon="7.09071">
        <ele>543.59997558594</ele>
        <time>2023-08-02T06:59:59.000Z</time>
      </trkpt>
      <trkpt lat="43.73382" lon="7.09073">
        <ele>543</ele>
        <time>2023-08-02T07:00:00.000Z</time>
      </trkpt>
      <trkpt lat="43.73381" lon="7.09074">
        <ele>542.20001220703</ele>
        <time>2023-08-02T07:00:01.000Z</time>
      </trkpt>
      <trkpt lat="43.73381" lon="7.09074">
        <ele>541.79998779297</ele>
        <time>2023-08-02T07:00:02.000Z</time>
      </trkpt>
      <trkpt lat="43.73381" lon="7.09074">
        <ele>541.79998779297</ele>
        <time>2023-08-02T07:00:03.000Z</time>
      </trkpt>
      <trkpt lat="43.73381" lon="7.09074">
        <ele>541.40002441406</ele>
        <time>2023-08-02T07:00:04.000Z</time>
      </trkpt>
      <trkpt lat="43.73381" lon="7.09074">
        <ele>541.20001220703</ele>
        <time>2023-08-02T07:00:05.000Z</time>
      </trkpt>
      <trkpt lat="43.73381" lon="7.09074">
        <ele>541</ele>
        <time>2023-08-02T07:00:06.000Z</time>
      </trkpt>
      <trkpt lat="43.73381" lon="7.09074">
        <ele>540.79998779297</ele>
        <time>2023-08-02T07:00:07.000Z</time>
      </trkpt>
      <trkpt lat="43.73381" lon="7.09074">
        <ele>540.79998779297</ele>
        <time>2023-08-02T07:00:08.000Z</time>
      </trkpt>
      <trkpt lat="43.73381" lon="7.09074">
        <ele>540.59997558594</ele>
        <time>2023-08-02T07:00:09.000Z</time>
      </trkpt>
      <trkpt lat="43.73381" lon="7.09074">
        <ele>540.59997558594</ele>
        <time>2023-08-02T07:00:10.000Z</time>
      </trkpt>
      <trkpt lat="43.73381" lon="7.09074">
        <ele>540.59997558594</ele>
        <time>2023-08-02T07:00:11.000Z</time>
      </trkpt>
      <trkpt lat="43.73381" lon="7.09074">
        <ele>540.59997558594</ele>
        <time>2023-08-02T07:00:12.000Z</time>
      </trkpt>
      <trkpt lat="43.73381" lon="7.09074">
        <ele>540.59997558594</ele>
        <time>2023-08-02T07:00:13.000Z</time>
      </trkpt>
      <trkpt lat="43.73381" lon="7.09074">
        <ele>540.59997558594</ele>
        <time>2023-08-02T07:00:14.000Z</time>
      </trkpt>
      <trkpt lat="43.73381" lon="7.09074">
        <ele>540.59997558594</ele>
        <time>2023-08-02T07:00:15.000Z</time>
      </trkpt>
      <trkpt lat="43.73381" lon="7.09074">
        <ele>540.59997558594</ele>
        <time>2023-08-02T07:00:16.000Z</time>
      </trkpt>
      <trkpt lat="43.73381" lon="7.09074">
        <ele>540.59997558594</ele>
        <time>2023-08-02T07:00:17.000Z</time>
      </trkpt>
      <trkpt lat="43.73381" lon="7.09073">
        <ele>540.59997558594</ele>
        <time>2023-08-02T07:00:18.000Z</time>
      </trkpt>
      <trkpt lat="43.73381" lon="7.09073">
        <ele>540.59997558594</ele>
        <time>2023-08-02T07:00:19.000Z</time>
      </trkpt>
      <trkpt lat="43.73381" lon="7.09073">
        <ele>540.59997558594</ele>
        <time>2023-08-02T07:00:20.000Z</time>
      </trkpt>
      <trkpt lat="43.73381" lon="7.09073">
        <ele>540.59997558594</ele>
        <time>2023-08-02T07:00:21.000Z</time>
      </trkpt>
      <trkpt lat="43.73381" lon="7.09073">
        <ele>540.59997558594</ele>
        <time>2023-08-02T07:00:22.000Z</time>
      </trkpt>
      <trkpt lat="43.73381" lon="7.09073">
        <ele>540.59997558594</ele>
        <time>2023-08-02T07:00:23.000Z</time>
      </trkpt>
      <trkpt lat="43.73381" lon="7.09073">
        <ele>540.59997558594</ele>
        <time>2023-08-02T07:00:24.000Z</time>
      </trkpt>
      <trkpt lat="43.73381" lon="7.09073">
        <ele>540.59997558594</ele>
        <time>2023-08-02T07:00:25.000Z</time>
      </trkpt>
      <trkpt lat="43.73381" lon="7.09073">
        <ele>540.59997558594</ele>
        <time>2023-08-02T07:00:26.000Z</time>
      </trkpt>
      <trkpt lat="43.73381" lon="7.09073">
        <ele>540.59997558594</ele>
        <time>2023-08-02T07:00:27.000Z</time>
      </trkpt>
      <trkpt lat="43.73381" lon="7.09073">
        <ele>540.59997558594</ele>
        <time>2023-08-02T07:00:28.000Z</time>
      </trkpt>
      <trkpt lat="43.73381" lon="7.09073">
        <ele>540.79998779297</ele>
        <time>2023-08-02T07:00:29.000Z</time>
      </trkpt>
      <trkpt lat="43.73381" lon="7.09073">
        <ele>540.79998779297</ele>
        <time>2023-08-02T07:00:30.000Z</time>
      </trkpt>
      <trkpt lat="43.73381" lon="7.09073">
        <ele>540.79998779297</ele>
        <time>2023-08-02T07:00:31.000Z</time>
      </trkpt>
      <trkpt lat="43.73381" lon="7.09073">
        <ele>540.79998779297</ele>
        <time>2023-08-02T07:00:32.000Z</time>
      </trkpt>
      <trkpt lat="43.73381" lon="7.09073">
        <ele>540.59997558594</ele>
        <time>2023-08-02T07:00:33.000Z</time>
      </trkpt>
      <trkpt lat="43.73382" lon="7.09073">
        <ele>540.59997558594</ele>
        <time>2023-08-02T07:00:34.000Z</time>
      </trkpt>
      <trkpt lat="43.73382" lon="7.09073">
        <ele>540.40002441406</ele>
        <time>2023-08-02T07:00:35.000Z</time>
      </trkpt>
      <trkpt lat="43.73382" lon="7.09073">
        <ele>540.59997558594</ele>
        <time>2023-08-02T07:00:36.000Z</time>
      </trkpt>
      <trkpt lat="43.73382" lon="7.09073">
        <ele>540.59997558594</ele>
        <time>2023-08-02T07:00:37.000Z</time>
      </trkpt>
      <trkpt lat="43.73381" lon="7.09073">
        <ele>540.59997558594</ele>
        <time>2023-08-02T07:00:38.000Z</time>
      </trkpt>
      <trkpt lat="43.73381" lon="7.09074">
        <ele>540.59997558594</ele>
        <time>2023-08-02T07:00:39.000Z</time>
      </trkpt>
      <trkpt lat="43.73381" lon="7.09074">
        <ele>540.79998779297</ele>
        <time>2023-08-02T07:00:40.000Z</time>
      </trkpt>
      <trkpt lat="43.73381" lon="7.09074">
        <ele>540.79998779297</ele>
        <time>2023-08-02T07:00:41.000Z</time>
      </trkpt>
      <trkpt lat="43.73381" lon="7.09074">
        <ele>540.79998779297</ele>
        <time>2023-08-02T07:00:42.000Z</time>
      </trkpt>
      <trkpt lat="43.73381" lon="7.09074">
        <ele>540.79998779297</ele>
        <time>2023-08-02T07:00:43.000Z</time>
      </trkpt>
      <trkpt lat="43.73381" lon="7.09074">
        <ele>540.79998779297</ele>
        <time>2023-08-02T07:00:44.000Z</time>
      </trkpt>
      <trkpt lat="43.73381" lon="7.09074">
        <ele>540.59997558594</ele>
        <time>2023-08-02T07:00:45.000Z</time>
      </trkpt>
      <trkpt lat="43.73381" lon="7.09074">
        <ele>540.59997558594</ele>
        <time>2023-08-02T07:00:46.000Z</time>
      </trkpt>
      <trkpt lat="43.73381" lon="7.09074">
        <ele>540.59997558594</ele>
        <time>2023-08-02T07:00:47.000Z</time>
      </trkpt>
      <trkpt lat="43.73381" lon="7.09074">
        <ele>540.59997558594</ele>
        <time>2023-08-02T07:00:48.000Z</time>
      </trkpt>
      <trkpt lat="43.73381" lon="7.09074">
        <ele>540.59997558594</ele>
        <time>2023-08-02T07:00:49.000Z</time>
      </trkpt>
      <trkpt lat="43.73381" lon="7.09074">
        <ele>540.59997558594</ele>
        <time>2023-08-02T07:00:50.000Z</time>
      </trkpt>
      <trkpt lat="43.73381" lon="7.09074">
        <ele>540.59997558594</ele>
        <time>2023-08-02T07:00:51.000Z</time>
      </trkpt>
      <trkpt lat="43.73381" lon="7.09074">
        <ele>540.59997558594</ele>
        <time>2023-08-02T07:00:52.000Z</time>
      </trkpt>
      <trkpt lat="43.73381" lon="7.09074">
        <ele>540.59997558594</ele>
        <time>2023-08-02T07:00:53.000Z</time>
      </trkpt>
      <trkpt lat="43.73381" lon="7.09074">
        <ele>540.59997558594</ele>
        <time>2023-08-02T07:00:54.000Z</time>
      </trkpt>
      <trkpt lat="43.73381" lon="7.09074">
        <ele>540.59997558594</ele>
        <time>2023-08-02T07:00:55.000Z</time>
      </trkpt>
      <trkpt lat="43.73381" lon="7.09074">
        <ele>540.59997558594</ele>
        <time>2023-08-02T07:00:56.000Z</time>
      </trkpt>
      <trkpt lat="43.73381" lon="7.09074">
        <ele>540.59997558594</ele>
        <time>2023-08-02T07:00:57.000Z</time>
      </trkpt>
      <trkpt lat="43.73381" lon="7.09074">
        <ele>540.59997558594</ele>
        <time>2023-08-02T07:00:58.000Z</time>
      </trkpt>
      <trkpt lat="43.73381" lon="7.09074">
        <ele>540.59997558594</ele>
        <time>2023-08-02T07:00:59.000Z</time>
      </trkpt>
      <trkpt lat="43.73381" lon="7.09074">
        <ele>540.59997558594</ele>
        <time>2023-08-02T07:01:00.000Z</time>
      </trkpt>
      <trkpt lat="43.73381" lon="7.09074">
        <ele>540.59997558594</ele>
        <time>2023-08-02T07:01:01.000Z</time>
      </trkpt>
      <trkpt lat="43.73381" lon="7.09074">
        <ele>540.59997558594</ele>
        <time>2023-08-02T07:01:02.000Z</time>
      </trkpt>
      <trkpt lat="43.73381" lon="7.09074">
        <ele>540.59997558594</ele>
        <time>2023-08-02T07:01:03.000Z</time>
      </trkpt>
      <trkpt lat="43.73381" lon="7.09074">
        <ele>540.59997558594</ele>
        <time>2023-08-02T07:01:04.000Z</time>
      </trkpt>
      <trkpt lat="43.73381" lon="7.09074">
        <ele>540.59997558594</ele>
        <time>2023-08-02T07:01:05.000Z</time>
      </trkpt>
      <trkpt lat="43.73381" lon="7.09074">
        <ele>540.59997558594</ele>
        <time>2023-08-02T07:01:06.000Z</time>
      </trkpt>
      <trkpt lat="43.73381" lon="7.09074">
        <ele>540.59997558594</ele>
        <time>2023-08-02T07:01:07.000Z</time>
      </trkpt>
      <trkpt lat="43.73381" lon="7.09074">
        <ele>540.59997558594</ele>
        <time>2023-08-02T07:01:08.000Z</time>
      </trkpt>
      <trkpt lat="43.73381" lon="7.09074">
        <ele>540.59997558594</ele>
        <time>2023-08-02T07:01:09.000Z</time>
      </trkpt>
      <trkpt lat="43.73381" lon="7.09074">
        <ele>540.59997558594</ele>
        <time>2023-08-02T07:01:10.000Z</time>
      </trkpt>
      <trkpt lat="43.73381" lon="7.09074">
        <ele>540.59997558594</ele>
        <time>2023-08-02T07:01:11.000Z</time>
      </trkpt>
      <trkpt lat="43.73381" lon="7.09074">
        <ele>540.59997558594</ele>
        <time>2023-08-02T07:01:12.000Z</time>
      </trkpt>
      <trkpt lat="43.73381" lon="7.09074">
        <ele>540.59997558594</ele>
        <time>2023-08-02T07:01:13.000Z</time>
      </trkpt>
      <trkpt lat="43.73381" lon="7.09074">
        <ele>540.59997558594</ele>
        <time>2023-08-02T07:01:14.000Z</time>
      </trkpt>
      <trkpt lat="43.73381" lon="7.09074">
        <ele>540.59997558594</ele>
        <time>2023-08-02T07:01:15.000Z</time>
      </trkpt>
      <trkpt lat="43.73381" lon="7.09074">
        <ele>540.59997558594</ele>
        <time>2023-08-02T07:01:16.000Z</time>
      </trkpt>
      <trkpt lat="43.73381" lon="7.09074">
        <ele>540.59997558594</ele>
        <time>2023-08-02T07:01:17.000Z</time>
      </trkpt>
      <trkpt lat="43.73381" lon="7.09074">
        <ele>540.59997558594</ele>
        <time>2023-08-02T07:01:18.000Z</time>
      </trkpt>
      <trkpt lat="43.73381" lon="7.09074">
        <ele>540.59997558594</ele>
        <time>2023-08-02T07:01:19.000Z</time>
      </trkpt>
      <trkpt lat="43.73381" lon="7.09074">
        <ele>540.59997558594</ele>
        <time>2023-08-02T07:01:20.000Z</time>
      </trkpt>
      <trkpt lat="43.73381" lon="7.09074">
        <ele>540.59997558594</ele>
        <time>2023-08-02T07:01:21.000Z</time>
      </trkpt>
      <trkpt lat="43.73381" lon="7.09074">
        <ele>540.59997558594</ele>
        <time>2023-08-02T07:01:22.000Z</time>
      </trkpt>
      <trkpt lat="43.73381" lon="7.09074">
        <ele>540.59997558594</ele>
        <time>2023-08-02T07:01:23.000Z</time>
      </trkpt>
      <trkpt lat="43.73381" lon="7.09074">
        <ele>540.59997558594</ele>
        <time>2023-08-02T07:01:24.000Z</time>
      </trkpt>
      <trkpt lat="43.73381" lon="7.09074">
        <ele>540.59997558594</ele>
        <time>2023-08-02T07:01:25.000Z</time>
      </trkpt>
      <trkpt lat="43.73381" lon="7.09074">
        <ele>540.59997558594</ele>
        <time>2023-08-02T07:01:26.000Z</time>
      </trkpt>
      <trkpt lat="43.73381" lon="7.09074">
        <ele>540.59997558594</ele>
        <time>2023-08-02T07:01:27.000Z</time>
      </trkpt>
      <trkpt lat="43.73381" lon="7.09074">
        <ele>540.59997558594</ele>
        <time>2023-08-02T07:01:28.000Z</time>
      </trkpt>
      <trkpt lat="43.73381" lon="7.09074">
        <ele>540.59997558594</ele>
        <time>2023-08-02T07:01:29.000Z</time>
      </trkpt>
      <trkpt lat="43.73381" lon="7.09074">
        <ele>540.59997558594</ele>
        <time>2023-08-02T07:01:30.000Z</time>
      </trkpt>
      <trkpt lat="43.73381" lon="7.09074">
        <ele>540.59997558594</ele>
        <time>2023-08-02T07:01:31.000Z</time>
      </trkpt>
      <trkpt lat="43.73381" lon="7.09074">
        <ele>540.59997558594</ele>
        <time>2023-08-02T07:01:32.000Z</time>
      </trkpt>
      <trkpt lat="43.73381" lon="7.09074">
        <ele>540.59997558594</ele>
        <time>2023-08-02T07:01:33.000Z</time>
      </trkpt>
      <trkpt lat="43.73381" lon="7.09074">
        <ele>540.59997558594</ele>
        <time>2023-08-02T07:01:34.000Z</time>
      </trkpt>
      <trkpt lat="43.73381" lon="7.09074">
        <ele>540.59997558594</ele>
        <time>2023-08-02T07:01:35.000Z</time>
      </trkpt>
      <trkpt lat="43.73381" lon="7.09074">
        <ele>540.59997558594</ele>
        <time>2023-08-02T07:01:36.000Z</time>
      </trkpt>
      <trkpt lat="43.73381" lon="7.09074">
        <ele>540.59997558594</ele>
        <time>2023-08-02T07:01:37.000Z</time>
      </trkpt>
      <trkpt lat="43.73381" lon="7.09074">
        <ele>540.59997558594</ele>
        <time>2023-08-02T07:01:38.000Z</time>
      </trkpt>
      <trkpt lat="43.73381" lon="7.09074">
        <ele>540.59997558594</ele>
        <time>2023-08-02T07:01:39.000Z</time>
      </trkpt>
      <trkpt lat="43.73381" lon="7.09074">
        <ele>540.59997558594</ele>
        <time>2023-08-02T07:01:40.000Z</time>
      </trkpt>
      <trkpt lat="43.73381" lon="7.09074">
        <ele>540.59997558594</ele>
        <time>2023-08-02T07:01:41.000Z</time>
      </trkpt>
      <trkpt lat="43.73381" lon="7.09074">
        <ele>540.59997558594</ele>
        <time>2023-08-02T07:01:42.000Z</time>
      </trkpt>
      <trkpt lat="43.7338" lon="7.09076">
        <ele>540.59997558594</ele>
        <time>2023-08-02T07:01:43.000Z</time>
      </trkpt>
      <trkpt lat="43.7338" lon="7.09077">
        <ele>540.59997558594</ele>
        <time>2023-08-02T07:01:44.000Z</time>
      </trkpt>
      <trkpt lat="43.7338" lon="7.09077">
        <ele>540.59997558594</ele>
        <time>2023-08-02T07:01:45.000Z</time>
      </trkpt>
      <trkpt lat="43.73379" lon="7.09077">
        <ele>540.59997558594</ele>
        <time>2023-08-02T07:01:46.000Z</time>
      </trkpt>
      <trkpt lat="43.73379" lon="7.09078">
        <ele>540.59997558594</ele>
        <time>2023-08-02T07:01:47.000Z</time>
      </trkpt>
      <trkpt lat="43.73379" lon="7.09078">
        <ele>540.59997558594</ele>
        <time>2023-08-02T07:01:48.000Z</time>
      </trkpt>
      <trkpt lat="43.73379" lon="7.09078">
        <ele>540.59997558594</ele>
        <time>2023-08-02T07:01:49.000Z</time>
      </trkpt>
      <trkpt lat="43.73379" lon="7.09078">
        <ele>540.59997558594</ele>
        <time>2023-08-02T07:01:50.000Z</time>
      </trkpt>
      <trkpt lat="43.73379" lon="7.09078">
        <ele>540.59997558594</ele>
        <time>2023-08-02T07:01:51.000Z</time>
      </trkpt>
      <trkpt lat="43.73379" lon="7.09078">
        <ele>540.59997558594</ele>
        <time>2023-08-02T07:01:52.000Z</time>
      </trkpt>
      <trkpt lat="43.73379" lon="7.09078">
        <ele>540.59997558594</ele>
        <time>2023-08-02T07:01:53.000Z</time>
      </trkpt>
      <trkpt lat="43.73379" lon="7.09078">
        <ele>540.59997558594</ele>
        <time>2023-08-02T07:01:54.000Z</time>
      </trkpt>
      <trkpt lat="43.73379" lon="7.09078">
        <ele>540.59997558594</ele>
        <time>2023-08-02T07:01:55.000Z</time>
      </trkpt>
      <trkpt lat="43.73379" lon="7.09077">
        <ele>540.59997558594</ele>
        <time>2023-08-02T07:01:56.000Z</time>
      </trkpt>
      <trkpt lat="43.73379" lon="7.09077">
        <ele>540.59997558594</ele>
        <time>2023-08-02T07:01:57.000Z</time>
      </trkpt>
      <trkpt lat="43.7338" lon="7.09077">
        <ele>540.59997558594</ele>
        <time>2023-08-02T07:01:58.000Z</time>
      </trkpt>
      <trkpt lat="43.7338" lon="7.09077">
        <ele>540.59997558594</ele>
        <time>2023-08-02T07:01:59.000Z</time>
      </trkpt>
      <trkpt lat="43.7338" lon="7.09077">
        <ele>540.59997558594</ele>
        <time>2023-08-02T07:02:00.000Z</time>
      </trkpt>
      <trkpt lat="43.7338" lon="7.09077">
        <ele>540.59997558594</ele>
        <time>2023-08-02T07:02:01.000Z</time>
      </trkpt>
      <trkpt lat="43.7338" lon="7.09077">
        <ele>540.59997558594</ele>
        <time>2023-08-02T07:02:02.000Z</time>
      </trkpt>
      <trkpt lat="43.73379" lon="7.09077">
        <ele>540.59997558594</ele>
        <time>2023-08-02T07:02:03.000Z</time>
      </trkpt>
      <trkpt lat="43.7338" lon="7.09077">
        <ele>540.59997558594</ele>
        <time>2023-08-02T07:02:04.000Z</time>
      </trkpt>
      <trkpt lat="43.7338" lon="7.09077">
        <ele>540.59997558594</ele>
        <time>2023-08-02T07:02:05.000Z</time>
      </trkpt>
      <trkpt lat="43.73379" lon="7.09077">
        <ele>540.59997558594</ele>
        <time>2023-08-02T07:02:06.000Z</time>
      </trkpt>
      <trkpt lat="43.7338" lon="7.09077">
        <ele>540.59997558594</ele>
        <time>2023-08-02T07:02:07.000Z</time>
      </trkpt>
      <trkpt lat="43.7338" lon="7.09077">
        <ele>540.59997558594</ele>
        <time>2023-08-02T07:02:08.000Z</time>
      </trkpt>
      <trkpt lat="43.73379" lon="7.09077">
        <ele>540.59997558594</ele>
        <time>2023-08-02T07:02:09.000Z</time>
      </trkpt>
      <trkpt lat="43.7338" lon="7.09076">
        <ele>540.59997558594</ele>
        <time>2023-08-02T07:02:10.000Z</time>
      </trkpt>
      <trkpt lat="43.7338" lon="7.09076">
        <ele>540.59997558594</ele>
        <time>2023-08-02T07:02:11.000Z</time>
      </trkpt>
      <trkpt lat="43.7338" lon="7.09077">
        <ele>540.59997558594</ele>
        <time>2023-08-02T07:02:12.000Z</time>
      </trkpt>
      <trkpt lat="43.73381" lon="7.09078">
        <ele>540.59997558594</ele>
        <time>2023-08-02T07:02:13.000Z</time>
      </trkpt>
      <trkpt lat="43.73382" lon="7.09078">
        <ele>541</ele>
        <time>2023-08-02T07:02:14.000Z</time>
      </trkpt>
      <trkpt lat="43.73384" lon="7.09077">
        <ele>541</ele>
        <time>2023-08-02T07:02:15.000Z</time>
      </trkpt>
      <trkpt lat="43.73385" lon="7.09075">
        <ele>540.79998779297</ele>
        <time>2023-08-02T07:02:16.000Z</time>
      </trkpt>
      <trkpt lat="43.73385" lon="7.09073">
        <ele>540.79998779297</ele>
        <time>2023-08-02T07:02:17.000Z</time>
      </trkpt>
      <trkpt lat="43.73385" lon="7.09071">
        <ele>540.79998779297</ele>
        <time>2023-08-02T07:02:18.000Z</time>
      </trkpt>
      <trkpt lat="43.73386" lon="7.0907">
        <ele>540.79998779297</ele>
        <time>2023-08-02T07:02:19.000Z</time>
      </trkpt>
      <trkpt lat="43.73388" lon="7.09069">
        <ele>541.20001220703</ele>
        <time>2023-08-02T07:02:20.000Z</time>
      </trkpt>
      <trkpt lat="43.7339" lon="7.09068">
        <ele>541.40002441406</ele>
        <time>2023-08-02T07:02:21.000Z</time>
      </trkpt>
      <trkpt lat="43.73392" lon="7.09067">
        <ele>541.59997558594</ele>
        <time>2023-08-02T07:02:22.000Z</time>
      </trkpt>
      <trkpt lat="43.73394" lon="7.09065">
        <ele>542.20001220703</ele>
        <time>2023-08-02T07:02:23.000Z</time>
      </trkpt>
      <trkpt lat="43.73395" lon="7.09063">
        <ele>542.59997558594</ele>
        <time>2023-08-02T07:02:24.000Z</time>
      </trkpt>
      <trkpt lat="43.73396" lon="7.09061">
        <ele>543</ele>
        <time>2023-08-02T07:02:25.000Z</time>
      </trkpt>
      <trkpt lat="43.73398" lon="7.09058">
        <ele>543</ele>
        <time>2023-08-02T07:02:26.000Z</time>
      </trkpt>
      <trkpt lat="43.73399" lon="7.09057">
        <ele>543.20001220703</ele>
        <time>2023-08-02T07:02:27.000Z</time>
      </trkpt>
      <trkpt lat="43.73401" lon="7.09056">
        <ele>543.59997558594</ele>
        <time>2023-08-02T07:02:28.000Z</time>
      </trkpt>
      <trkpt lat="43.73402" lon="7.09054">
        <ele>544.20001220703</ele>
        <time>2023-08-02T07:02:29.000Z</time>
      </trkpt>
      <trkpt lat="43.73404" lon="7.09052">
        <ele>544.59997558594</ele>
        <time>2023-08-02T07:02:30.000Z</time>
      </trkpt>
      <trkpt lat="43.73405" lon="7.0905">
        <ele>545</ele>
        <time>2023-08-02T07:02:31.000Z</time>
      </trkpt>
      <trkpt lat="43.73407" lon="7.09048">
        <ele>545.20001220703</ele>
        <time>2023-08-02T07:02:32.000Z</time>
      </trkpt>
      <trkpt lat="43.73408" lon="7.09045">
        <ele>545.40002441406</ele>
        <time>2023-08-02T07:02:33.000Z</time>
      </trkpt>
      <trkpt lat="43.7341" lon="7.09043">
        <ele>545.79998779297</ele>
        <time>2023-08-02T07:02:34.000Z</time>
      </trkpt>
      <trkpt lat="43.73411" lon="7.0904">
        <ele>546</ele>
        <time>2023-08-02T07:02:35.000Z</time>
      </trkpt>
      <trkpt lat="43.73413" lon="7.09038">
        <ele>546.40002441406</ele>
        <time>2023-08-02T07:02:36.000Z</time>
      </trkpt>
      <trkpt lat="43.73414" lon="7.09036">
        <ele>546.59997558594</ele>
        <time>2023-08-02T07:02:37.000Z</time>
      </trkpt>
      <trkpt lat="43.73415" lon="7.09034">
        <ele>546.79998779297</ele>
        <time>2023-08-02T07:02:38.000Z</time>
      </trkpt>
      <trkpt lat="43.73416" lon="7.09032">
        <ele>547.20001220703</ele>
        <time>2023-08-02T07:02:39.000Z</time>
      </trkpt>
      <trkpt lat="43.73418" lon="7.0903">
        <ele>547.40002441406</ele>
        <time>2023-08-02T07:02:40.000Z</time>
      </trkpt>
      <trkpt lat="43.73419" lon="7.09028">
        <ele>547.59997558594</ele>
        <time>2023-08-02T07:02:41.000Z</time>
      </trkpt>
      <trkpt lat="43.73421" lon="7.09026">
        <ele>547.79998779297</ele>
        <time>2023-08-02T07:02:42.000Z</time>
      </trkpt>
      <trkpt lat="43.73422" lon="7.09023">
        <ele>548.20001220703</ele>
        <time>2023-08-02T07:02:43.000Z</time>
      </trkpt>
      <trkpt lat="43.73423" lon="7.09021">
        <ele>548.59997558594</ele>
        <time>2023-08-02T07:02:44.000Z</time>
      </trkpt>
      <trkpt lat="43.73425" lon="7.09018">
        <ele>548.79998779297</ele>
        <time>2023-08-02T07:02:45.000Z</time>
      </trkpt>
      <trkpt lat="43.73427" lon="7.09017">
        <ele>549</ele>
        <time>2023-08-02T07:02:46.000Z</time>
      </trkpt>
      <trkpt lat="43.73429" lon="7.09016">
        <ele>549.40002441406</ele>
        <time>2023-08-02T07:02:47.000Z</time>
      </trkpt>
      <trkpt lat="43.73431" lon="7.09016">
        <ele>549.59997558594</ele>
        <time>2023-08-02T07:02:48.000Z</time>
      </trkpt>
      <trkpt lat="43.73434" lon="7.09016">
        <ele>549.79998779297</ele>
        <time>2023-08-02T07:02:49.000Z</time>
      </trkpt>
      <trkpt lat="43.73436" lon="7.09016">
        <ele>550.20001220703</ele>
        <time>2023-08-02T07:02:50.000Z</time>
      </trkpt>
      <trkpt lat="43.73438" lon="7.09015">
        <ele>550.20001220703</ele>
        <time>2023-08-02T07:02:51.000Z</time>
      </trkpt>
      <trkpt lat="43.73441" lon="7.09014">
        <ele>550.40002441406</ele>
        <time>2023-08-02T07:02:52.000Z</time>
      </trkpt>
      <trkpt lat="43.73443" lon="7.09013">
        <ele>550.79998779297</ele>
        <time>2023-08-02T07:02:53.000Z</time>
      </trkpt>
      <trkpt lat="43.73444" lon="7.09012">
        <ele>550.79998779297</ele>
        <time>2023-08-02T07:02:54.000Z</time>
      </trkpt>
      <trkpt lat="43.73446" lon="7.0901">
        <ele>551.20001220703</ele>
        <time>2023-08-02T07:02:55.000Z</time>
      </trkpt>
      <trkpt lat="43.73448" lon="7.09008">
        <ele>551.40002441406</ele>
        <time>2023-08-02T07:02:56.000Z</time>
      </trkpt>
      <trkpt lat="43.73449" lon="7.09006">
        <ele>551.59997558594</ele>
        <time>2023-08-02T07:02:57.000Z</time>
      </trkpt>
      <trkpt lat="43.73451" lon="7.09004">
        <ele>551.79998779297</ele>
        <time>2023-08-02T07:02:58.000Z</time>
      </trkpt>
      <trkpt lat="43.73453" lon="7.09002">
        <ele>552</ele>
        <time>2023-08-02T07:02:59.000Z</time>
      </trkpt>
      <trkpt lat="43.73455" lon="7.09001">
        <ele>552.20001220703</ele>
        <time>2023-08-02T07:03:00.000Z</time>
      </trkpt>
      <trkpt lat="43.73457" lon="7.09001">
        <ele>552.59997558594</ele>
        <time>2023-08-02T07:03:01.000Z</time>
      </trkpt>
      <trkpt lat="43.73458" lon="7.08999">
        <ele>552.59997558594</ele>
        <time>2023-08-02T07:03:02.000Z</time>
      </trkpt>
      <trkpt lat="43.73459" lon="7.08997">
        <ele>552.79998779297</ele>
        <time>2023-08-02T07:03:03.000Z</time>
      </trkpt>
      <trkpt lat="43.7346" lon="7.08995">
        <ele>553</ele>
        <time>2023-08-02T07:03:04.000Z</time>
      </trkpt>
      <trkpt lat="43.73462" lon="7.08992">
        <ele>553.20001220703</ele>
        <time>2023-08-02T07:03:05.000Z</time>
      </trkpt>
      <trkpt lat="43.73463" lon="7.08989">
        <ele>553.20001220703</ele>
        <time>2023-08-02T07:03:06.000Z</time>
      </trkpt>
      <trkpt lat="43.73465" lon="7.08987">
        <ele>553.20001220703</ele>
        <time>2023-08-02T07:03:07.000Z</time>
      </trkpt>
      <trkpt lat="43.73467" lon="7.08986">
        <ele>553.59997558594</ele>
        <time>2023-08-02T07:03:08.000Z</time>
      </trkpt>
      <trkpt lat="43.73468" lon="7.08983">
        <ele>553.59997558594</ele>
        <time>2023-08-02T07:03:09.000Z</time>
      </trkpt>
      <trkpt lat="43.7347" lon="7.08981">
        <ele>553.59997558594</ele>
        <time>2023-08-02T07:03:10.000Z</time>
      </trkpt>
      <trkpt lat="43.73471" lon="7.08979">
        <ele>554</ele>
        <time>2023-08-02T07:03:11.000Z</time>
      </trkpt>
      <trkpt lat="43.73472" lon="7.08977">
        <ele>554.20001220703</ele>
        <time>2023-08-02T07:03:12.000Z</time>
      </trkpt>
      <trkpt lat="43.73472" lon="7.08975">
        <ele>554.40002441406</ele>
        <time>2023-08-02T07:03:13.000Z</time>
      </trkpt>
      <trkpt lat="43.73473" lon="7.08972">
        <ele>554.59997558594</ele>
        <time>2023-08-02T07:03:14.000Z</time>
      </trkpt>
      <trkpt lat="43.73474" lon="7.0897">
        <ele>554.59997558594</ele>
        <time>2023-08-02T07:03:15.000Z</time>
      </trkpt>
      <trkpt lat="43.73476" lon="7.08968">
        <ele>554.79998779297</ele>
        <time>2023-08-02T07:03:16.000Z</time>
      </trkpt>
      <trkpt lat="43.73477" lon="7.08966">
        <ele>555</ele>
        <time>2023-08-02T07:03:17.000Z</time>
      </trkpt>
      <trkpt lat="43.73478" lon="7.08964">
        <ele>555.20001220703</ele>
        <time>2023-08-02T07:03:18.000Z</time>
      </trkpt>
      <trkpt lat="43.73479" lon="7.08962">
        <ele>555.40002441406</ele>
        <time>2023-08-02T07:03:19.000Z</time>
      </trkpt>
      <trkpt lat="43.73481" lon="7.0896">
        <ele>555.59997558594</ele>
        <time>2023-08-02T07:03:20.000Z</time>
      </trkpt>
      <trkpt lat="43.73482" lon="7.08958">
        <ele>555.59997558594</ele>
        <time>2023-08-02T07:03:21.000Z</time>
      </trkpt>
      <trkpt lat="43.73483" lon="7.08956">
        <ele>555.79998779297</ele>
        <time>2023-08-02T07:03:22.000Z</time>
      </trkpt>
      <trkpt lat="43.73484" lon="7.08954">
        <ele>555.79998779297</ele>
        <time>2023-08-02T07:03:23.000Z</time>
      </trkpt>
      <trkpt lat="43.73485" lon="7.08952">
        <ele>556</ele>
        <time>2023-08-02T07:03:24.000Z</time>
      </trkpt>
      <trkpt lat="43.73486" lon="7.0895">
        <ele>556.20001220703</ele>
        <time>2023-08-02T07:03:25.000Z</time>
      </trkpt>
      <trkpt lat="43.73487" lon="7.08947">
        <ele>556.79998779297</ele>
        <time>2023-08-02T07:03:26.000Z</time>
      </trkpt>
      <trkpt lat="43.73488" lon="7.08945">
        <ele>557</ele>
        <time>2023-08-02T07:03:27.000Z</time>
      </trkpt>
      <trkpt lat="43.73488" lon="7.08943">
        <ele>557</ele>
        <time>2023-08-02T07:03:28.000Z</time>
      </trkpt>
      <trkpt lat="43.73489" lon="7.08941">
        <ele>557</ele>
        <time>2023-08-02T07:03:29.000Z</time>
      </trkpt>
      <trkpt lat="43.73491" lon="7.0894">
        <ele>557.20001220703</ele>
        <time>2023-08-02T07:03:30.000Z</time>
      </trkpt>
      <trkpt lat="43.73492" lon="7.08938">
        <ele>557.40002441406</ele>
        <time>2023-08-02T07:03:31.000Z</time>
      </trkpt>
      <trkpt lat="43.73493" lon="7.08937">
        <ele>557.79998779297</ele>
        <time>2023-08-02T07:03:32.000Z</time>
      </trkpt>
      <trkpt lat="43.73494" lon="7.08935">
        <ele>557.79998779297</ele>
        <time>2023-08-02T07:03:33.000Z</time>
      </trkpt>
      <trkpt lat="43.73495" lon="7.08934">
        <ele>557.79998779297</ele>
        <time>2023-08-02T07:03:34.000Z</time>
      </trkpt>
      <trkpt lat="43.73496" lon="7.08932">
        <ele>558</ele>
        <time>2023-08-02T07:03:35.000Z</time>
      </trkpt>
      <trkpt lat="43.73497" lon="7.08932">
        <ele>558.40002441406</ele>
        <time>2023-08-02T07:03:36.000Z</time>
      </trkpt>
      <trkpt lat="43.73498" lon="7.08931">
        <ele>558.59997558594</ele>
        <time>2023-08-02T07:03:37.000Z</time>
      </trkpt>
      <trkpt lat="43.73499" lon="7.0893">
        <ele>558.59997558594</ele>
        <time>2023-08-02T07:03:38.000Z</time>
      </trkpt>
      <trkpt lat="43.735" lon="7.08929">
        <ele>558.59997558594</ele>
        <time>2023-08-02T07:03:39.000Z</time>
      </trkpt>
      <trkpt lat="43.73501" lon="7.08927">
        <ele>558.59997558594</ele>
        <time>2023-08-02T07:03:40.000Z</time>
      </trkpt>
      <trkpt lat="43.73501" lon="7.08926">
        <ele>558.59997558594</ele>
        <time>2023-08-02T07:03:41.000Z</time>
      </trkpt>
      <trkpt lat="43.73502" lon="7.08924">
        <ele>558.79998779297</ele>
        <time>2023-08-02T07:03:42.000Z</time>
      </trkpt>
      <trkpt lat="43.73503" lon="7.08922">
        <ele>558.79998779297</ele>
        <time>2023-08-02T07:03:43.000Z</time>
      </trkpt>
      <trkpt lat="43.73503" lon="7.0892">
        <ele>558.79998779297</ele>
        <time>2023-08-02T07:03:44.000Z</time>
      </trkpt>
      <trkpt lat="43.73504" lon="7.08918">
        <ele>558.79998779297</ele>
        <time>2023-08-02T07:03:45.000Z</time>
      </trkpt>
      <trkpt lat="43.73504" lon="7.08917">
        <ele>559.20001220703</ele>
        <time>2023-08-02T07:03:46.000Z</time>
      </trkpt>
      <trkpt lat="43.73505" lon="7.08915">
        <ele>559.20001220703</ele>
        <time>2023-08-02T07:03:47.000Z</time>
      </trkpt>
      <trkpt lat="43.73506" lon="7.08914">
        <ele>559.40002441406</ele>
        <time>2023-08-02T07:03:48.000Z</time>
      </trkpt>
      <trkpt lat="43.73507" lon="7.08913">
        <ele>559.40002441406</ele>
        <time>2023-08-02T07:03:49.000Z</time>
      </trkpt>
      <trkpt lat="43.73508" lon="7.08911">
        <ele>559.59997558594</ele>
        <time>2023-08-02T07:03:50.000Z</time>
      </trkpt>
      <trkpt lat="43.73509" lon="7.08909">
        <ele>559.79998779297</ele>
        <time>2023-08-02T07:03:51.000Z</time>
      </trkpt>
      <trkpt lat="43.7351" lon="7.08907">
        <ele>559.79998779297</ele>
        <time>2023-08-02T07:03:52.000Z</time>
      </trkpt>
      <trkpt lat="43.73511" lon="7.08905">
        <ele>560.40002441406</ele>
        <time>2023-08-02T07:03:53.000Z</time>
      </trkpt>
      <trkpt lat="43.73512" lon="7.08903">
        <ele>560.40002441406</ele>
        <time>2023-08-02T07:03:54.000Z</time>
      </trkpt>
      <trkpt lat="43.73513" lon="7.089">
        <ele>560.40002441406</ele>
        <time>2023-08-02T07:03:55.000Z</time>
      </trkpt>
      <trkpt lat="43.73515" lon="7.08898">
        <ele>560.40002441406</ele>
        <time>2023-08-02T07:03:56.000Z</time>
      </trkpt>
      <trkpt lat="43.73516" lon="7.08896">
        <ele>560.59997558594</ele>
        <time>2023-08-02T07:03:57.000Z</time>
      </trkpt>
      <trkpt lat="43.73517" lon="7.08894">
        <ele>560.59997558594</ele>
        <time>2023-08-02T07:03:58.000Z</time>
      </trkpt>
      <trkpt lat="43.73518" lon="7.08892">
        <ele>560.59997558594</ele>
        <time>2023-08-02T07:03:59.000Z</time>
      </trkpt>
      <trkpt lat="43.73519" lon="7.08889">
        <ele>561</ele>
        <time>2023-08-02T07:04:00.000Z</time>
      </trkpt>
      <trkpt lat="43.73521" lon="7.08887">
        <ele>561.20001220703</ele>
        <time>2023-08-02T07:04:01.000Z</time>
      </trkpt>
      <trkpt lat="43.73522" lon="7.08886">
        <ele>561.40002441406</ele>
        <time>2023-08-02T07:04:02.000Z</time>
      </trkpt>
      <trkpt lat="43.73524" lon="7.08883">
        <ele>561.59997558594</ele>
        <time>2023-08-02T07:04:03.000Z</time>
      </trkpt>
      <trkpt lat="43.73526" lon="7.08882">
        <ele>561.59997558594</ele>
        <time>2023-08-02T07:04:04.000Z</time>
      </trkpt>
      <trkpt lat="43.73527" lon="7.0888">
        <ele>561.59997558594</ele>
        <time>2023-08-02T07:04:05.000Z</time>
      </trkpt>
      <trkpt lat="43.73529" lon="7.08877">
        <ele>562</ele>
        <time>2023-08-02T07:04:06.000Z</time>
      </trkpt>
      <trkpt lat="43.7353" lon="7.08874">
        <ele>562.20001220703</ele>
        <time>2023-08-02T07:04:07.000Z</time>
      </trkpt>
      <trkpt lat="43.73532" lon="7.08871">
        <ele>562.59997558594</ele>
        <time>2023-08-02T07:04:08.000Z</time>
      </trkpt>
      <trkpt lat="43.73533" lon="7.08867">
        <ele>562.59997558594</ele>
        <time>2023-08-02T07:04:09.000Z</time>
      </trkpt>
      <trkpt lat="43.73533" lon="7.08863">
        <ele>563</ele>
        <time>2023-08-02T07:04:10.000Z</time>
      </trkpt>
      <trkpt lat="43.73535" lon="7.08861">
        <ele>563.20001220703</ele>
        <time>2023-08-02T07:04:11.000Z</time>
      </trkpt>
      <trkpt lat="43.73535" lon="7.08858">
        <ele>563.40002441406</ele>
        <time>2023-08-02T07:04:12.000Z</time>
      </trkpt>
      <trkpt lat="43.73537" lon="7.08855">
        <ele>563.59997558594</ele>
        <time>2023-08-02T07:04:13.000Z</time>
      </trkpt>
      <trkpt lat="43.73538" lon="7.08853">
        <ele>563.79998779297</ele>
        <time>2023-08-02T07:04:14.000Z</time>
      </trkpt>
      <trkpt lat="43.7354" lon="7.08851">
        <ele>564</ele>
        <time>2023-08-02T07:04:15.000Z</time>
      </trkpt>
      <trkpt lat="43.73543" lon="7.08848">
        <ele>564.20001220703</ele>
        <time>2023-08-02T07:04:16.000Z</time>
      </trkpt>
      <trkpt lat="43.73545" lon="7.08845">
        <ele>564.20001220703</ele>
        <time>2023-08-02T07:04:17.000Z</time>
      </trkpt>
      <trkpt lat="43.73547" lon="7.08841">
        <ele>564.59997558594</ele>
        <time>2023-08-02T07:04:18.000Z</time>
      </trkpt>
      <trkpt lat="43.73549" lon="7.08838">
        <ele>565</ele>
        <time>2023-08-02T07:04:19.000Z</time>
      </trkpt>
      <trkpt lat="43.7355" lon="7.08836">
        <ele>565.40002441406</ele>
        <time>2023-08-02T07:04:20.000Z</time>
      </trkpt>
      <trkpt lat="43.73551" lon="7.08832">
        <ele>565.59997558594</ele>
        <time>2023-08-02T07:04:21.000Z</time>
      </trkpt>
      <trkpt lat="43.73552" lon="7.08829">
        <ele>566.20001220703</ele>
        <time>2023-08-02T07:04:22.000Z</time>
      </trkpt>
      <trkpt lat="43.73553" lon="7.08825">
        <ele>566.40002441406</ele>
        <time>2023-08-02T07:04:23.000Z</time>
      </trkpt>
      <trkpt lat="43.73554" lon="7.08821">
        <ele>567.59997558594</ele>
        <time>2023-08-02T07:04:24.000Z</time>
      </trkpt>
      <trkpt lat="43.73556" lon="7.08819">
        <ele>567.59997558594</ele>
        <time>2023-08-02T07:04:25.000Z</time>
      </trkpt>
      <trkpt lat="43.73558" lon="7.08816">
        <ele>568.40002441406</ele>
        <time>2023-08-02T07:04:26.000Z</time>
      </trkpt>
      <trkpt lat="43.7356" lon="7.08814">
        <ele>569</ele>
        <time>2023-08-02T07:04:27.000Z</time>
      </trkpt>
      <trkpt lat="43.73562" lon="7.08811">
        <ele>569.20001220703</ele>
        <time>2023-08-02T07:04:28.000Z</time>
      </trkpt>
      <trkpt lat="43.73564" lon="7.0881">
        <ele>569.20001220703</ele>
        <time>2023-08-02T07:04:29.000Z</time>
      </trkpt>
      <trkpt lat="43.73566" lon="7.08809">
        <ele>569.79998779297</ele>
        <time>2023-08-02T07:04:30.000Z</time>
      </trkpt>
      <trkpt lat="43.73568" lon="7.08808">
        <ele>570.40002441406</ele>
        <time>2023-08-02T07:04:31.000Z</time>
      </trkpt>
      <trkpt lat="43.7357" lon="7.08806">
        <ele>571.20001220703</ele>
        <time>2023-08-02T07:04:32.000Z</time>
      </trkpt>
      <trkpt lat="43.73572" lon="7.08804">
        <ele>571.59997558594</ele>
        <time>2023-08-02T07:04:33.000Z</time>
      </trkpt>
      <trkpt lat="43.73573" lon="7.08802">
        <ele>572</ele>
        <time>2023-08-02T07:04:34.000Z</time>
      </trkpt>
      <trkpt lat="43.73575" lon="7.08799">
        <ele>572.79998779297</ele>
        <time>2023-08-02T07:04:35.000Z</time>
      </trkpt>
      <trkpt lat="43.73576" lon="7.08797">
        <ele>573.20001220703</ele>
        <time>2023-08-02T07:04:36.000Z</time>
      </trkpt>
      <trkpt lat="43.73578" lon="7.08795">
        <ele>574</ele>
        <time>2023-08-02T07:04:37.000Z</time>
      </trkpt>
      <trkpt lat="43.73579" lon="7.08794">
        <ele>574.59997558594</ele>
        <time>2023-08-02T07:04:38.000Z</time>
      </trkpt>
      <trkpt lat="43.7358" lon="7.08792">
        <ele>575</ele>
        <time>2023-08-02T07:04:39.000Z</time>
      </trkpt>
      <trkpt lat="43.73581" lon="7.0879">
        <ele>575.59997558594</ele>
        <time>2023-08-02T07:04:40.000Z</time>
      </trkpt>
      <trkpt lat="43.73583" lon="7.08787">
        <ele>576.20001220703</ele>
        <time>2023-08-02T07:04:41.000Z</time>
      </trkpt>
      <trkpt lat="43.73584" lon="7.08784">
        <ele>576.20001220703</ele>
        <time>2023-08-02T07:04:42.000Z</time>
      </trkpt>
      <trkpt lat="43.73586" lon="7.08782">
        <ele>576.59997558594</ele>
        <time>2023-08-02T07:04:43.000Z</time>
      </trkpt>
      <trkpt lat="43.73587" lon="7.0878">
        <ele>577</ele>
        <time>2023-08-02T07:04:44.000Z</time>
      </trkpt>
      <trkpt lat="43.73588" lon="7.08777">
        <ele>577.40002441406</ele>
        <time>2023-08-02T07:04:45.000Z</time>
      </trkpt>
      <trkpt lat="43.73588" lon="7.08777">
        <ele>578</ele>
        <time>2023-08-02T07:04:46.000Z</time>
      </trkpt>
      <trkpt lat="43.73589" lon="7.08776">
        <ele>578.40002441406</ele>
        <time>2023-08-02T07:04:47.000Z</time>
      </trkpt>
      <trkpt lat="43.7359" lon="7.08773">
        <ele>578.59997558594</ele>
        <time>2023-08-02T07:04:48.000Z</time>
      </trkpt>
      <trkpt lat="43.73591" lon="7.08772">
        <ele>578.59997558594</ele>
        <time>2023-08-02T07:04:49.000Z</time>
      </trkpt>
      <trkpt lat="43.73592" lon="7.0877">
        <ele>579</ele>
        <time>2023-08-02T07:04:50.000Z</time>
      </trkpt>
      <trkpt lat="43.73594" lon="7.08768">
        <ele>579.40002441406</ele>
        <time>2023-08-02T07:04:51.000Z</time>
      </trkpt>
      <trkpt lat="43.73594" lon="7.08766">
        <ele>579.59997558594</ele>
        <time>2023-08-02T07:04:52.000Z</time>
      </trkpt>
      <trkpt lat="43.73594" lon="7.08765">
        <ele>580.20001220703</ele>
        <time>2023-08-02T07:04:53.000Z</time>
      </trkpt>
      <trkpt lat="43.73594" lon="7.08765">
        <ele>580.20001220703</ele>
        <time>2023-08-02T07:04:54.000Z</time>
      </trkpt>
      <trkpt lat="43.73594" lon="7.08765">
        <ele>580.40002441406</ele>
        <time>2023-08-02T07:04:55.000Z</time>
      </trkpt>
      <trkpt lat="43.73594" lon="7.08765">
        <ele>580.59997558594</ele>
        <time>2023-08-02T07:04:56.000Z</time>
      </trkpt>
      <trkpt lat="43.73594" lon="7.08765">
        <ele>580.59997558594</ele>
        <time>2023-08-02T07:04:57.000Z</time>
      </trkpt>
      <trkpt lat="43.73594" lon="7.08765">
        <ele>580.59997558594</ele>
        <time>2023-08-02T07:04:58.000Z</time>
      </trkpt>
      <trkpt lat="43.73594" lon="7.08765">
        <ele>580.59997558594</ele>
        <time>2023-08-02T07:04:59.000Z</time>
      </trkpt>
      <trkpt lat="43.73594" lon="7.08765">
        <ele>580.40002441406</ele>
        <time>2023-08-02T07:05:00.000Z</time>
      </trkpt>
      <trkpt lat="43.73594" lon="7.08765">
        <ele>580.40002441406</ele>
        <time>2023-08-02T07:05:01.000Z</time>
      </trkpt>
      <trkpt lat="43.73594" lon="7.08765">
        <ele>580.40002441406</ele>
        <time>2023-08-02T07:05:02.000Z</time>
      </trkpt>
      <trkpt lat="43.73594" lon="7.08764">
        <ele>580.40002441406</ele>
        <time>2023-08-02T07:05:03.000Z</time>
      </trkpt>
      <trkpt lat="43.73594" lon="7.08761">
        <ele>580.59997558594</ele>
        <time>2023-08-02T07:05:04.000Z</time>
      </trkpt>
      <trkpt lat="43.73594" lon="7.08759">
        <ele>580.79998779297</ele>
        <time>2023-08-02T07:05:05.000Z</time>
      </trkpt>
      <trkpt lat="43.73595" lon="7.08757">
        <ele>580.79998779297</ele>
        <time>2023-08-02T07:05:06.000Z</time>
      </trkpt>
      <trkpt lat="43.73595" lon="7.08755">
        <ele>580.79998779297</ele>
        <time>2023-08-02T07:05:07.000Z</time>
      </trkpt>
      <trkpt lat="43.73596" lon="7.08753">
        <ele>580.79998779297</ele>
        <time>2023-08-02T07:05:08.000Z</time>
      </trkpt>
      <trkpt lat="43.73597" lon="7.08751">
        <ele>580.79998779297</ele>
        <time>2023-08-02T07:05:09.000Z</time>
      </trkpt>
      <trkpt lat="43.73598" lon="7.08748">
        <ele>581.40002441406</ele>
        <time>2023-08-02T07:05:10.000Z</time>
      </trkpt>
      <trkpt lat="43.73599" lon="7.08745">
        <ele>581.79998779297</ele>
        <time>2023-08-02T07:05:11.000Z</time>
      </trkpt>
      <trkpt lat="43.736" lon="7.08743">
        <ele>582.20001220703</ele>
        <time>2023-08-02T07:05:12.000Z</time>
      </trkpt>
      <trkpt lat="43.73601" lon="7.0874">
        <ele>582.79998779297</ele>
        <time>2023-08-02T07:05:13.000Z</time>
      </trkpt>
      <trkpt lat="43.73602" lon="7.08737">
        <ele>583</ele>
        <time>2023-08-02T07:05:14.000Z</time>
      </trkpt>
      <trkpt lat="43.73604" lon="7.08734">
        <ele>583.40002441406</ele>
        <time>2023-08-02T07:05:15.000Z</time>
      </trkpt>
      <trkpt lat="43.73606" lon="7.08732">
        <ele>583.79998779297</ele>
        <time>2023-08-02T07:05:16.000Z</time>
      </trkpt>
      <trkpt lat="43.73608" lon="7.0873">
        <ele>584</ele>
        <time>2023-08-02T07:05:17.000Z</time>
      </trkpt>
      <trkpt lat="43.7361" lon="7.08728">
        <ele>584</ele>
        <time>2023-08-02T07:05:18.000Z</time>
      </trkpt>
      <trkpt lat="43.73612" lon="7.08726">
        <ele>584.40002441406</ele>
        <time>2023-08-02T07:05:19.000Z</time>
      </trkpt>
      <trkpt lat="43.73613" lon="7.08723">
        <ele>585.40002441406</ele>
        <time>2023-08-02T07:05:20.000Z</time>
      </trkpt>
      <trkpt lat="43.73615" lon="7.08722">
        <ele>585.59997558594</ele>
        <time>2023-08-02T07:05:21.000Z</time>
      </trkpt>
      <trkpt lat="43.73617" lon="7.08721">
        <ele>585.79998779297</ele>
        <time>2023-08-02T07:05:22.000Z</time>
      </trkpt>
      <trkpt lat="43.73619" lon="7.08718">
        <ele>586.40002441406</ele>
        <time>2023-08-02T07:05:23.000Z</time>
      </trkpt>
      <trkpt lat="43.73621" lon="7.08715">
        <ele>586.79998779297</ele>
        <time>2023-08-02T07:05:24.000Z</time>
      </trkpt>
      <trkpt lat="43.73623" lon="7.08713">
        <ele>587.59997558594</ele>
        <time>2023-08-02T07:05:25.000Z</time>
      </trkpt>
      <trkpt lat="43.73626" lon="7.0871">
        <ele>588</ele>
        <time>2023-08-02T07:05:26.000Z</time>
      </trkpt>
      <trkpt lat="43.73627" lon="7.08707">
        <ele>588.40002441406</ele>
        <time>2023-08-02T07:05:27.000Z</time>
      </trkpt>
      <trkpt lat="43.73629" lon="7.08705">
        <ele>588.59997558594</ele>
        <time>2023-08-02T07:05:28.000Z</time>
      </trkpt>
      <trkpt lat="43.73631" lon="7.08701">
        <ele>589</ele>
        <time>2023-08-02T07:05:29.000Z</time>
      </trkpt>
      <trkpt lat="43.73633" lon="7.08697">
        <ele>589.20001220703</ele>
        <time>2023-08-02T07:05:30.000Z</time>
      </trkpt>
      <trkpt lat="43.73634" lon="7.08692">
        <ele>589.59997558594</ele>
        <time>2023-08-02T07:05:31.000Z</time>
      </trkpt>
      <trkpt lat="43.73636" lon="7.08687">
        <ele>589.59997558594</ele>
        <time>2023-08-02T07:05:32.000Z</time>
      </trkpt>
      <trkpt lat="43.73638" lon="7.08681">
        <ele>589.59997558594</ele>
        <time>2023-08-02T07:05:33.000Z</time>
      </trkpt>
      <trkpt lat="43.7364" lon="7.08674">
        <ele>589.59997558594</ele>
        <time>2023-08-02T07:05:34.000Z</time>
      </trkpt>
      <trkpt lat="43.73641" lon="7.08667">
        <ele>589.20001220703</ele>
        <time>2023-08-02T07:05:35.000Z</time>
      </trkpt>
      <trkpt lat="43.73641" lon="7.08661">
        <ele>588.79998779297</ele>
        <time>2023-08-02T07:05:36.000Z</time>
      </trkpt>
      <trkpt lat="43.73641" lon="7.08656">
        <ele>588.59997558594</ele>
        <time>2023-08-02T07:05:37.000Z</time>
      </trkpt>
      <trkpt lat="43.73643" lon="7.08651">
        <ele>587.79998779297</ele>
        <time>2023-08-02T07:05:38.000Z</time>
      </trkpt>
      <trkpt lat="43.73645" lon="7.08646">
        <ele>587.40002441406</ele>
        <time>2023-08-02T07:05:39.000Z</time>
      </trkpt>
      <trkpt lat="43.73646" lon="7.08642">
        <ele>587</ele>
        <time>2023-08-02T07:05:40.000Z</time>
      </trkpt>
      <trkpt lat="43.73647" lon="7.08637">
        <ele>586.79998779297</ele>
        <time>2023-08-02T07:05:41.000Z</time>
      </trkpt>
      <trkpt lat="43.73649" lon="7.08633">
        <ele>586.79998779297</ele>
        <time>2023-08-02T07:05:42.000Z</time>
      </trkpt>
      <trkpt lat="43.7365" lon="7.08628">
        <ele>586.79998779297</ele>
        <time>2023-08-02T07:05:43.000Z</time>
      </trkpt>
      <trkpt lat="43.73652" lon="7.08624">
        <ele>586.79998779297</ele>
        <time>2023-08-02T07:05:44.000Z</time>
      </trkpt>
      <trkpt lat="43.73654" lon="7.08621">
        <ele>586.59997558594</ele>
        <time>2023-08-02T07:05:45.000Z</time>
      </trkpt>
      <trkpt lat="43.73655" lon="7.0862">
        <ele>586.59997558594</ele>
        <time>2023-08-02T07:05:46.000Z</time>
      </trkpt>
      <trkpt lat="43.73656" lon="7.08619">
        <ele>586.79998779297</ele>
        <time>2023-08-02T07:05:47.000Z</time>
      </trkpt>
      <trkpt lat="43.73657" lon="7.08617">
        <ele>586.79998779297</ele>
        <time>2023-08-02T07:05:48.000Z</time>
      </trkpt>
      <trkpt lat="43.73658" lon="7.08616">
        <ele>587</ele>
        <time>2023-08-02T07:05:49.000Z</time>
      </trkpt>
      <trkpt lat="43.73658" lon="7.08615">
        <ele>587</ele>
        <time>2023-08-02T07:05:50.000Z</time>
      </trkpt>
      <trkpt lat="43.73659" lon="7.08615">
        <ele>587</ele>
        <time>2023-08-02T07:05:51.000Z</time>
      </trkpt>
      <trkpt lat="43.7366" lon="7.08613">
        <ele>587.20001220703</ele>
        <time>2023-08-02T07:05:52.000Z</time>
      </trkpt>
      <trkpt lat="43.73661" lon="7.08612">
        <ele>587.20001220703</ele>
        <time>2023-08-02T07:05:53.000Z</time>
      </trkpt>
      <trkpt lat="43.73662" lon="7.08611">
        <ele>587.40002441406</ele>
        <time>2023-08-02T07:05:54.000Z</time>
      </trkpt>
      <trkpt lat="43.73663" lon="7.0861">
        <ele>587.59997558594</ele>
        <time>2023-08-02T07:05:55.000Z</time>
      </trkpt>
      <trkpt lat="43.73664" lon="7.08609">
        <ele>587.79998779297</ele>
        <time>2023-08-02T07:05:56.000Z</time>
      </trkpt>
      <trkpt lat="43.73666" lon="7.08607">
        <ele>588.20001220703</ele>
        <time>2023-08-02T07:05:57.000Z</time>
      </trkpt>
      <trkpt lat="43.73667" lon="7.08606">
        <ele>588.40002441406</ele>
        <time>2023-08-02T07:05:58.000Z</time>
      </trkpt>
      <trkpt lat="43.73668" lon="7.08604">
        <ele>588.59997558594</ele>
        <time>2023-08-02T07:05:59.000Z</time>
      </trkpt>
      <trkpt lat="43.7367" lon="7.08602">
        <ele>588.59997558594</ele>
        <time>2023-08-02T07:06:00.000Z</time>
      </trkpt>
      <trkpt lat="43.73671" lon="7.08601">
        <ele>589.20001220703</ele>
        <time>2023-08-02T07:06:01.000Z</time>
      </trkpt>
      <trkpt lat="43.73672" lon="7.08601">
        <ele>589.79998779297</ele>
        <time>2023-08-02T07:06:02.000Z</time>
      </trkpt>
      <trkpt lat="43.73673" lon="7.086">
        <ele>590.20001220703</ele>
        <time>2023-08-02T07:06:03.000Z</time>
      </trkpt>
      <trkpt lat="43.73673" lon="7.086">
        <ele>591</ele>
        <time>2023-08-02T07:06:04.000Z</time>
      </trkpt>
      <trkpt lat="43.73673" lon="7.08599">
        <ele>591.40002441406</ele>
        <time>2023-08-02T07:06:05.000Z</time>
      </trkpt>
      <trkpt lat="43.73673" lon="7.08598">
        <ele>591.59997558594</ele>
        <time>2023-08-02T07:06:06.000Z</time>
      </trkpt>
      <trkpt lat="43.73673" lon="7.08598">
        <ele>591.59997558594</ele>
        <time>2023-08-02T07:06:07.000Z</time>
      </trkpt>
      <trkpt lat="43.73674" lon="7.08598">
        <ele>591.59997558594</ele>
        <time>2023-08-02T07:06:08.000Z</time>
      </trkpt>
      <trkpt lat="43.73674" lon="7.08596">
        <ele>591.59997558594</ele>
        <time>2023-08-02T07:06:09.000Z</time>
      </trkpt>
      <trkpt lat="43.73674" lon="7.08595">
        <ele>591.59997558594</ele>
        <time>2023-08-02T07:06:10.000Z</time>
      </trkpt>
      <trkpt lat="43.73675" lon="7.08592">
        <ele>591.79998779297</ele>
        <time>2023-08-02T07:06:11.000Z</time>
      </trkpt>
      <trkpt lat="43.73675" lon="7.0859">
        <ele>591.79998779297</ele>
        <time>2023-08-02T07:06:12.000Z</time>
      </trkpt>
      <trkpt lat="43.73676" lon="7.08588">
        <ele>591.79998779297</ele>
        <time>2023-08-02T07:06:13.000Z</time>
      </trkpt>
      <trkpt lat="43.73678" lon="7.08586">
        <ele>591.79998779297</ele>
        <time>2023-08-02T07:06:14.000Z</time>
      </trkpt>
      <trkpt lat="43.73679" lon="7.08585">
        <ele>592.20001220703</ele>
        <time>2023-08-02T07:06:15.000Z</time>
      </trkpt>
      <trkpt lat="43.73681" lon="7.08583">
        <ele>592.59997558594</ele>
        <time>2023-08-02T07:06:16.000Z</time>
      </trkpt>
      <trkpt lat="43.73683" lon="7.08581">
        <ele>593</ele>
        <time>2023-08-02T07:06:17.000Z</time>
      </trkpt>
      <trkpt lat="43.73683" lon="7.08579">
        <ele>593.40002441406</ele>
        <time>2023-08-02T07:06:18.000Z</time>
      </trkpt>
      <trkpt lat="43.73685" lon="7.08578">
        <ele>593.59997558594</ele>
        <time>2023-08-02T07:06:19.000Z</time>
      </trkpt>
      <trkpt lat="43.73686" lon="7.08576">
        <ele>594.20001220703</ele>
        <time>2023-08-02T07:06:20.000Z</time>
      </trkpt>
      <trkpt lat="43.73688" lon="7.08573">
        <ele>594.40002441406</ele>
        <time>2023-08-02T07:06:21.000Z</time>
      </trkpt>
      <trkpt lat="43.73689" lon="7.0857">
        <ele>594.59997558594</ele>
        <time>2023-08-02T07:06:22.000Z</time>
      </trkpt>
      <trkpt lat="43.7369" lon="7.08567">
        <ele>594.79998779297</ele>
        <time>2023-08-02T07:06:23.000Z</time>
      </trkpt>
      <trkpt lat="43.73692" lon="7.08563">
        <ele>594.79998779297</ele>
        <time>2023-08-02T07:06:24.000Z</time>
      </trkpt>
      <trkpt lat="43.73692" lon="7.08559">
        <ele>594.79998779297</ele>
        <time>2023-08-02T07:06:25.000Z</time>
      </trkpt>
      <trkpt lat="43.73693" lon="7.08555">
        <ele>594.79998779297</ele>
        <time>2023-08-02T07:06:26.000Z</time>
      </trkpt>
      <trkpt lat="43.73694" lon="7.08551">
        <ele>594.40002441406</ele>
        <time>2023-08-02T07:06:27.000Z</time>
      </trkpt>
      <trkpt lat="43.73695" lon="7.08548">
        <ele>594.40002441406</ele>
        <time>2023-08-02T07:06:28.000Z</time>
      </trkpt>
      <trkpt lat="43.73696" lon="7.08544">
        <ele>594.40002441406</ele>
        <time>2023-08-02T07:06:29.000Z</time>
      </trkpt>
      <trkpt lat="43.73698" lon="7.08541">
        <ele>594.40002441406</ele>
        <time>2023-08-02T07:06:30.000Z</time>
      </trkpt>
      <trkpt lat="43.73698" lon="7.08539">
        <ele>594.40002441406</ele>
        <time>2023-08-02T07:06:31.000Z</time>
      </trkpt>
      <trkpt lat="43.73699" lon="7.08535">
        <ele>594.40002441406</ele>
        <time>2023-08-02T07:06:32.000Z</time>
      </trkpt>
      <trkpt lat="43.73699" lon="7.08532">
        <ele>594.40002441406</ele>
        <time>2023-08-02T07:06:33.000Z</time>
      </trkpt>
      <trkpt lat="43.737" lon="7.08529">
        <ele>595</ele>
        <time>2023-08-02T07:06:34.000Z</time>
      </trkpt>
      <trkpt lat="43.73701" lon="7.08525">
        <ele>595.20001220703</ele>
        <time>2023-08-02T07:06:35.000Z</time>
      </trkpt>
      <trkpt lat="43.73702" lon="7.08522">
        <ele>595.20001220703</ele>
        <time>2023-08-02T07:06:36.000Z</time>
      </trkpt>
      <trkpt lat="43.73702" lon="7.08519">
        <ele>595.59997558594</ele>
        <time>2023-08-02T07:06:37.000Z</time>
      </trkpt>
      <trkpt lat="43.73703" lon="7.08517">
        <ele>596</ele>
        <time>2023-08-02T07:06:38.000Z</time>
      </trkpt>
      <trkpt lat="43.73703" lon="7.08513">
        <ele>596.40002441406</ele>
        <time>2023-08-02T07:06:39.000Z</time>
      </trkpt>
      <trkpt lat="43.73703" lon="7.08511">
        <ele>596.79998779297</ele>
        <time>2023-08-02T07:06:40.000Z</time>
      </trkpt>
      <trkpt lat="43.73703" lon="7.08507">
        <ele>597.20001220703</ele>
        <time>2023-08-02T07:06:41.000Z</time>
      </trkpt>
      <trkpt lat="43.73704" lon="7.08505">
        <ele>597.40002441406</ele>
        <time>2023-08-02T07:06:42.000Z</time>
      </trkpt>
      <trkpt lat="43.73704" lon="7.08502">
        <ele>597.79998779297</ele>
        <time>2023-08-02T07:06:43.000Z</time>
      </trkpt>
      <trkpt lat="43.73704" lon="7.08499">
        <ele>598.20001220703</ele>
        <time>2023-08-02T07:06:44.000Z</time>
      </trkpt>
      <trkpt lat="43.73705" lon="7.08497">
        <ele>598.79998779297</ele>
        <time>2023-08-02T07:06:45.000Z</time>
      </trkpt>
      <trkpt lat="43.73705" lon="7.08495">
        <ele>599.40002441406</ele>
        <time>2023-08-02T07:06:46.000Z</time>
      </trkpt>
      <trkpt lat="43.73707" lon="7.08493">
        <ele>599.40002441406</ele>
        <time>2023-08-02T07:06:47.000Z</time>
      </trkpt>
      <trkpt lat="43.73707" lon="7.08491">
        <ele>599.59997558594</ele>
        <time>2023-08-02T07:06:48.000Z</time>
      </trkpt>
      <trkpt lat="43.73708" lon="7.08489">
        <ele>599.79998779297</ele>
        <time>2023-08-02T07:06:49.000Z</time>
      </trkpt>
      <trkpt lat="43.73708" lon="7.08488">
        <ele>600</ele>
        <time>2023-08-02T07:06:50.000Z</time>
      </trkpt>
      <trkpt lat="43.73709" lon="7.08488">
        <ele>600.20001220703</ele>
        <time>2023-08-02T07:06:51.000Z</time>
      </trkpt>
      <trkpt lat="43.73709" lon="7.08487">
        <ele>600.40002441406</ele>
        <time>2023-08-02T07:06:52.000Z</time>
      </trkpt>
      <trkpt lat="43.73709" lon="7.08488">
        <ele>600.40002441406</ele>
        <time>2023-08-02T07:06:53.000Z</time>
      </trkpt>
      <trkpt lat="43.73709" lon="7.08487">
        <ele>600.40002441406</ele>
        <time>2023-08-02T07:06:54.000Z</time>
      </trkpt>
      <trkpt lat="43.73709" lon="7.08487">
        <ele>600.40002441406</ele>
        <time>2023-08-02T07:06:55.000Z</time>
      </trkpt>
      <trkpt lat="43.73709" lon="7.08487">
        <ele>600.40002441406</ele>
        <time>2023-08-02T07:06:56.000Z</time>
      </trkpt>
      <trkpt lat="43.73709" lon="7.08488">
        <ele>600.40002441406</ele>
        <time>2023-08-02T07:06:57.000Z</time>
      </trkpt>
      <trkpt lat="43.73709" lon="7.08487">
        <ele>600.20001220703</ele>
        <time>2023-08-02T07:06:58.000Z</time>
      </trkpt>
      <trkpt lat="43.73709" lon="7.08487">
        <ele>600.20001220703</ele>
        <time>2023-08-02T07:06:59.000Z</time>
      </trkpt>
      <trkpt lat="43.73709" lon="7.08488">
        <ele>600</ele>
        <time>2023-08-02T07:07:00.000Z</time>
      </trkpt>
      <trkpt lat="43.73709" lon="7.08488">
        <ele>600</ele>
        <time>2023-08-02T07:07:01.000Z</time>
      </trkpt>
      <trkpt lat="43.73709" lon="7.08488">
        <ele>600</ele>
        <time>2023-08-02T07:07:02.000Z</time>
      </trkpt>
      <trkpt lat="43.73709" lon="7.08488">
        <ele>600</ele>
        <time>2023-08-02T07:07:03.000Z</time>
      </trkpt>
      <trkpt lat="43.73709" lon="7.08488">
        <ele>600</ele>
        <time>2023-08-02T07:07:04.000Z</time>
      </trkpt>
      <trkpt lat="43.73709" lon="7.08488">
        <ele>599.79998779297</ele>
        <time>2023-08-02T07:07:05.000Z</time>
      </trkpt>
      <trkpt lat="43.73709" lon="7.08488">
        <ele>599.79998779297</ele>
        <time>2023-08-02T07:07:06.000Z</time>
      </trkpt>
      <trkpt lat="43.73709" lon="7.08488">
        <ele>599.79998779297</ele>
        <time>2023-08-02T07:07:07.000Z</time>
      </trkpt>
      <trkpt lat="43.73709" lon="7.08488">
        <ele>599.79998779297</ele>
        <time>2023-08-02T07:07:08.000Z</time>
      </trkpt>
      <trkpt lat="43.73709" lon="7.08488">
        <ele>599.79998779297</ele>
        <time>2023-08-02T07:07:09.000Z</time>
      </trkpt>
      <trkpt lat="43.73709" lon="7.08488">
        <ele>599.79998779297</ele>
        <time>2023-08-02T07:07:10.000Z</time>
      </trkpt>
      <trkpt lat="43.73709" lon="7.08488">
        <ele>599.79998779297</ele>
        <time>2023-08-02T07:07:11.000Z</time>
      </trkpt>
      <trkpt lat="43.73709" lon="7.08488">
        <ele>599.79998779297</ele>
        <time>2023-08-02T07:07:12.000Z</time>
      </trkpt>
      <trkpt lat="43.73709" lon="7.08488">
        <ele>599.79998779297</ele>
        <time>2023-08-02T07:07:13.000Z</time>
      </trkpt>
      <trkpt lat="43.73709" lon="7.08488">
        <ele>599.79998779297</ele>
        <time>2023-08-02T07:07:14.000Z</time>
      </trkpt>
      <trkpt lat="43.73709" lon="7.08488">
        <ele>599.79998779297</ele>
        <time>2023-08-02T07:07:15.000Z</time>
      </trkpt>
      <trkpt lat="43.73709" lon="7.08488">
        <ele>599.79998779297</ele>
        <time>2023-08-02T07:07:16.000Z</time>
      </trkpt>
      <trkpt lat="43.73709" lon="7.08488">
        <ele>599.79998779297</ele>
        <time>2023-08-02T07:07:17.000Z</time>
      </trkpt>
      <trkpt lat="43.73709" lon="7.08488">
        <ele>599.79998779297</ele>
        <time>2023-08-02T07:07:18.000Z</time>
      </trkpt>
      <trkpt lat="43.73709" lon="7.08488">
        <ele>600</ele>
        <time>2023-08-02T07:07:19.000Z</time>
      </trkpt>
      <trkpt lat="43.73709" lon="7.08488">
        <ele>600</ele>
        <time>2023-08-02T07:07:20.000Z</time>
      </trkpt>
      <trkpt lat="43.73709" lon="7.08488">
        <ele>600</ele>
        <time>2023-08-02T07:07:21.000Z</time>
      </trkpt>
      <trkpt lat="43.73709" lon="7.08488">
        <ele>600</ele>
        <time>2023-08-02T07:07:22.000Z</time>
      </trkpt>
      <trkpt lat="43.73709" lon="7.08488">
        <ele>600.20001220703</ele>
        <time>2023-08-02T07:07:23.000Z</time>
      </trkpt>
      <trkpt lat="43.73709" lon="7.08488">
        <ele>600.20001220703</ele>
        <time>2023-08-02T07:07:24.000Z</time>
      </trkpt>
      <trkpt lat="43.73709" lon="7.08488">
        <ele>600.20001220703</ele>
        <time>2023-08-02T07:07:25.000Z</time>
      </trkpt>
      <trkpt lat="43.73709" lon="7.08488">
        <ele>600.20001220703</ele>
        <time>2023-08-02T07:07:26.000Z</time>
      </trkpt>
      <trkpt lat="43.73709" lon="7.08488">
        <ele>600.20001220703</ele>
        <time>2023-08-02T07:07:27.000Z</time>
      </trkpt>
      <trkpt lat="43.73709" lon="7.08488">
        <ele>600.20001220703</ele>
        <time>2023-08-02T07:07:28.000Z</time>
      </trkpt>
      <trkpt lat="43.73709" lon="7.08488">
        <ele>599.79998779297</ele>
        <time>2023-08-02T07:07:29.000Z</time>
      </trkpt>
      <trkpt lat="43.73709" lon="7.08488">
        <ele>599.79998779297</ele>
        <time>2023-08-02T07:07:30.000Z</time>
      </trkpt>
      <trkpt lat="43.73709" lon="7.08488">
        <ele>599.79998779297</ele>
        <time>2023-08-02T07:07:31.000Z</time>
      </trkpt>
      <trkpt lat="43.73709" lon="7.08488">
        <ele>599.59997558594</ele>
        <time>2023-08-02T07:07:32.000Z</time>
      </trkpt>
      <trkpt lat="43.73709" lon="7.08488">
        <ele>599.59997558594</ele>
        <time>2023-08-02T07:07:33.000Z</time>
      </trkpt>
      <trkpt lat="43.73709" lon="7.08488">
        <ele>599.59997558594</ele>
        <time>2023-08-02T07:07:34.000Z</time>
      </trkpt>
      <trkpt lat="43.73709" lon="7.08488">
        <ele>600</ele>
        <time>2023-08-02T07:07:35.000Z</time>
      </trkpt>
      <trkpt lat="43.73709" lon="7.08488">
        <ele>600</ele>
        <time>2023-08-02T07:07:36.000Z</time>
      </trkpt>
      <trkpt lat="43.73709" lon="7.08488">
        <ele>600</ele>
        <time>2023-08-02T07:07:37.000Z</time>
      </trkpt>
      <trkpt lat="43.73709" lon="7.08488">
        <ele>600</ele>
        <time>2023-08-02T07:07:38.000Z</time>
      </trkpt>
      <trkpt lat="43.73709" lon="7.08488">
        <ele>600</ele>
        <time>2023-08-02T07:07:39.000Z</time>
      </trkpt>
      <trkpt lat="43.73709" lon="7.08488">
        <ele>600</ele>
        <time>2023-08-02T07:07:40.000Z</time>
      </trkpt>
      <trkpt lat="43.73709" lon="7.08488">
        <ele>599.79998779297</ele>
        <time>2023-08-02T07:07:41.000Z</time>
      </trkpt>
      <trkpt lat="43.73709" lon="7.08488">
        <ele>599.79998779297</ele>
        <time>2023-08-02T07:07:42.000Z</time>
      </trkpt>
      <trkpt lat="43.73709" lon="7.08488">
        <ele>599.59997558594</ele>
        <time>2023-08-02T07:07:43.000Z</time>
      </trkpt>
      <trkpt lat="43.73709" lon="7.08488">
        <ele>599.59997558594</ele>
        <time>2023-08-02T07:07:44.000Z</time>
      </trkpt>
      <trkpt lat="43.73709" lon="7.08488">
        <ele>599.59997558594</ele>
        <time>2023-08-02T07:07:45.000Z</time>
      </trkpt>
      <trkpt lat="43.73709" lon="7.08488">
        <ele>599.59997558594</ele>
        <time>2023-08-02T07:07:46.000Z</time>
      </trkpt>
      <trkpt lat="43.73709" lon="7.08488">
        <ele>599.59997558594</ele>
        <time>2023-08-02T07:07:47.000Z</time>
      </trkpt>
      <trkpt lat="43.73709" lon="7.08488">
        <ele>599.40002441406</ele>
        <time>2023-08-02T07:07:48.000Z</time>
      </trkpt>
      <trkpt lat="43.73709" lon="7.08487">
        <ele>599.40002441406</ele>
        <time>2023-08-02T07:07:49.000Z</time>
      </trkpt>
      <trkpt lat="43.73709" lon="7.08487">
        <ele>599.40002441406</ele>
        <time>2023-08-02T07:07:50.000Z</time>
      </trkpt>
      <trkpt lat="43.73709" lon="7.08487">
        <ele>599.40002441406</ele>
        <time>2023-08-02T07:07:51.000Z</time>
      </trkpt>
      <trkpt lat="43.73709" lon="7.08487">
        <ele>599.40002441406</ele>
        <time>2023-08-02T07:07:52.000Z</time>
      </trkpt>
      <trkpt lat="43.73709" lon="7.08487">
        <ele>599.40002441406</ele>
        <time>2023-08-02T07:07:53.000Z</time>
      </trkpt>
      <trkpt lat="43.73709" lon="7.08487">
        <ele>599.40002441406</ele>
        <time>2023-08-02T07:07:54.000Z</time>
      </trkpt>
      <trkpt lat="43.73711" lon="7.08487">
        <ele>599.40002441406</ele>
        <time>2023-08-02T07:07:55.000Z</time>
      </trkpt>
      <trkpt lat="43.73711" lon="7.08487">
        <ele>599.40002441406</ele>
        <time>2023-08-02T07:07:56.000Z</time>
      </trkpt>
      <trkpt lat="43.73711" lon="7.08487">
        <ele>599.40002441406</ele>
        <time>2023-08-02T07:07:57.000Z</time>
      </trkpt>
      <trkpt lat="43.73711" lon="7.08487">
        <ele>599.40002441406</ele>
        <time>2023-08-02T07:07:58.000Z</time>
      </trkpt>
      <trkpt lat="43.73711" lon="7.08487">
        <ele>599.20001220703</ele>
        <time>2023-08-02T07:07:59.000Z</time>
      </trkpt>
      <trkpt lat="43.73711" lon="7.08487">
        <ele>599.20001220703</ele>
        <time>2023-08-02T07:08:00.000Z</time>
      </trkpt>
      <trkpt lat="43.73711" lon="7.08487">
        <ele>599</ele>
        <time>2023-08-02T07:08:01.000Z</time>
      </trkpt>
      <trkpt lat="43.73711" lon="7.08487">
        <ele>599</ele>
        <time>2023-08-02T07:08:02.000Z</time>
      </trkpt>
      <trkpt lat="43.73711" lon="7.08487">
        <ele>599</ele>
        <time>2023-08-02T07:08:03.000Z</time>
      </trkpt>
      <trkpt lat="43.73711" lon="7.08487">
        <ele>599</ele>
        <time>2023-08-02T07:08:04.000Z</time>
      </trkpt>
      <trkpt lat="43.73711" lon="7.08487">
        <ele>599</ele>
        <time>2023-08-02T07:08:05.000Z</time>
      </trkpt>
      <trkpt lat="43.73711" lon="7.08487">
        <ele>599</ele>
        <time>2023-08-02T07:08:06.000Z</time>
      </trkpt>
      <trkpt lat="43.73711" lon="7.08487">
        <ele>599</ele>
        <time>2023-08-02T07:08:07.000Z</time>
      </trkpt>
      <trkpt lat="43.73711" lon="7.08487">
        <ele>599</ele>
        <time>2023-08-02T07:08:08.000Z</time>
      </trkpt>
      <trkpt lat="43.73711" lon="7.08487">
        <ele>599</ele>
        <time>2023-08-02T07:08:09.000Z</time>
      </trkpt>
      <trkpt lat="43.73711" lon="7.08487">
        <ele>599</ele>
        <time>2023-08-02T07:08:10.000Z</time>
      </trkpt>
      <trkpt lat="43.73711" lon="7.08487">
        <ele>599</ele>
        <time>2023-08-02T07:08:11.000Z</time>
      </trkpt>
      <trkpt lat="43.73711" lon="7.08487">
        <ele>599</ele>
        <time>2023-08-02T07:08:12.000Z</time>
      </trkpt>
      <trkpt lat="43.73711" lon="7.08487">
        <ele>599</ele>
        <time>2023-08-02T07:08:13.000Z</time>
      </trkpt>
      <trkpt lat="43.73711" lon="7.08487">
        <ele>599</ele>
        <time>2023-08-02T07:08:14.000Z</time>
      </trkpt>
      <trkpt lat="43.73711" lon="7.08487">
        <ele>599</ele>
        <time>2023-08-02T07:08:15.000Z</time>
      </trkpt>
      <trkpt lat="43.73711" lon="7.08487">
        <ele>599</ele>
        <time>2023-08-02T07:08:16.000Z</time>
      </trkpt>
      <trkpt lat="43.73711" lon="7.08487">
        <ele>599</ele>
        <time>2023-08-02T07:08:17.000Z</time>
      </trkpt>
      <trkpt lat="43.73711" lon="7.08487">
        <ele>599</ele>
        <time>2023-08-02T07:08:18.000Z</time>
      </trkpt>
      <trkpt lat="43.73711" lon="7.08487">
        <ele>599</ele>
        <time>2023-08-02T07:08:19.000Z</time>
      </trkpt>
      <trkpt lat="43.73711" lon="7.08487">
        <ele>599</ele>
        <time>2023-08-02T07:08:20.000Z</time>
      </trkpt>
      <trkpt lat="43.73711" lon="7.08487">
        <ele>599</ele>
        <time>2023-08-02T07:08:21.000Z</time>
      </trkpt>
      <trkpt lat="43.73711" lon="7.08487">
        <ele>599</ele>
        <time>2023-08-02T07:08:22.000Z</time>
      </trkpt>
      <trkpt lat="43.73711" lon="7.08487">
        <ele>599</ele>
        <time>2023-08-02T07:08:23.000Z</time>
      </trkpt>
      <trkpt lat="43.73711" lon="7.08487">
        <ele>599</ele>
        <time>2023-08-02T07:08:24.000Z</time>
      </trkpt>
      <trkpt lat="43.73711" lon="7.08487">
        <ele>599</ele>
        <time>2023-08-02T07:08:25.000Z</time>
      </trkpt>
      <trkpt lat="43.73711" lon="7.08487">
        <ele>598.79998779297</ele>
        <time>2023-08-02T07:08:26.000Z</time>
      </trkpt>
      <trkpt lat="43.73711" lon="7.08487">
        <ele>598.79998779297</ele>
        <time>2023-08-02T07:08:27.000Z</time>
      </trkpt>
      <trkpt lat="43.73711" lon="7.08487">
        <ele>598.79998779297</ele>
        <time>2023-08-02T07:08:28.000Z</time>
      </trkpt>
      <trkpt lat="43.73711" lon="7.08487">
        <ele>598.79998779297</ele>
        <time>2023-08-02T07:08:29.000Z</time>
      </trkpt>
      <trkpt lat="43.73711" lon="7.08487">
        <ele>598.79998779297</ele>
        <time>2023-08-02T07:08:30.000Z</time>
      </trkpt>
      <trkpt lat="43.73711" lon="7.08487">
        <ele>598.79998779297</ele>
        <time>2023-08-02T07:08:31.000Z</time>
      </trkpt>
      <trkpt lat="43.73711" lon="7.08487">
        <ele>598.79998779297</ele>
        <time>2023-08-02T07:08:32.000Z</time>
      </trkpt>
      <trkpt lat="43.73711" lon="7.08487">
        <ele>599</ele>
        <time>2023-08-02T07:08:33.000Z</time>
      </trkpt>
      <trkpt lat="43.73711" lon="7.08487">
        <ele>599</ele>
        <time>2023-08-02T07:08:34.000Z</time>
      </trkpt>
      <trkpt lat="43.7371" lon="7.08487">
        <ele>599</ele>
        <time>2023-08-02T07:08:35.000Z</time>
      </trkpt>
      <trkpt lat="43.7371" lon="7.08487">
        <ele>598.79998779297</ele>
        <time>2023-08-02T07:08:36.000Z</time>
      </trkpt>
      <trkpt lat="43.7371" lon="7.08487">
        <ele>598.79998779297</ele>
        <time>2023-08-02T07:08:37.000Z</time>
      </trkpt>
      <trkpt lat="43.7371" lon="7.08487">
        <ele>598.79998779297</ele>
        <time>2023-08-02T07:08:38.000Z</time>
      </trkpt>
      <trkpt lat="43.7371" lon="7.08487">
        <ele>598.79998779297</ele>
        <time>2023-08-02T07:08:39.000Z</time>
      </trkpt>
      <trkpt lat="43.7371" lon="7.08487">
        <ele>598.79998779297</ele>
        <time>2023-08-02T07:08:40.000Z</time>
      </trkpt>
      <trkpt lat="43.7371" lon="7.08487">
        <ele>598.79998779297</ele>
        <time>2023-08-02T07:08:41.000Z</time>
      </trkpt>
      <trkpt lat="43.7371" lon="7.08487">
        <ele>598.79998779297</ele>
        <time>2023-08-02T07:08:42.000Z</time>
      </trkpt>
      <trkpt lat="43.7371" lon="7.08487">
        <ele>598.79998779297</ele>
        <time>2023-08-02T07:08:43.000Z</time>
      </trkpt>
      <trkpt lat="43.7371" lon="7.08487">
        <ele>598.79998779297</ele>
        <time>2023-08-02T07:08:44.000Z</time>
      </trkpt>
      <trkpt lat="43.73708" lon="7.08488">
        <ele>598.79998779297</ele>
        <time>2023-08-02T07:08:45.000Z</time>
      </trkpt>
      <trkpt lat="43.73709" lon="7.08488">
        <ele>598.79998779297</ele>
        <time>2023-08-02T07:08:46.000Z</time>
      </trkpt>
      <trkpt lat="43.73708" lon="7.08488">
        <ele>598.79998779297</ele>
        <time>2023-08-02T07:08:47.000Z</time>
      </trkpt>
      <trkpt lat="43.73708" lon="7.08488">
        <ele>598.79998779297</ele>
        <time>2023-08-02T07:08:48.000Z</time>
      </trkpt>
      <trkpt lat="43.73708" lon="7.08488">
        <ele>599</ele>
        <time>2023-08-02T07:08:49.000Z</time>
      </trkpt>
      <trkpt lat="43.73709" lon="7.08488">
        <ele>599</ele>
        <time>2023-08-02T07:08:50.000Z</time>
      </trkpt>
      <trkpt lat="43.73708" lon="7.08488">
        <ele>599</ele>
        <time>2023-08-02T07:08:51.000Z</time>
      </trkpt>
      <trkpt lat="43.73709" lon="7.08487">
        <ele>599</ele>
        <time>2023-08-02T07:08:52.000Z</time>
      </trkpt>
      <trkpt lat="43.73709" lon="7.08486">
        <ele>599</ele>
        <time>2023-08-02T07:08:53.000Z</time>
      </trkpt>
      <trkpt lat="43.73709" lon="7.08485">
        <ele>599</ele>
        <time>2023-08-02T07:08:54.000Z</time>
      </trkpt>
      <trkpt lat="43.73709" lon="7.08483">
        <ele>599</ele>
        <time>2023-08-02T07:08:55.000Z</time>
      </trkpt>
      <trkpt lat="43.7371" lon="7.08482">
        <ele>599</ele>
        <time>2023-08-02T07:08:56.000Z</time>
      </trkpt>
      <trkpt lat="43.7371" lon="7.0848">
        <ele>599</ele>
        <time>2023-08-02T07:08:57.000Z</time>
      </trkpt>
      <trkpt lat="43.73711" lon="7.08479">
        <ele>599</ele>
        <time>2023-08-02T07:08:58.000Z</time>
      </trkpt>
      <trkpt lat="43.73712" lon="7.08476">
        <ele>599</ele>
        <time>2023-08-02T07:08:59.000Z</time>
      </trkpt>
      <trkpt lat="43.73714" lon="7.08473">
        <ele>599</ele>
        <time>2023-08-02T07:09:00.000Z</time>
      </trkpt>
      <trkpt lat="43.73717" lon="7.0847">
        <ele>598.79998779297</ele>
        <time>2023-08-02T07:09:01.000Z</time>
      </trkpt>
      <trkpt lat="43.7372" lon="7.08468">
        <ele>598.79998779297</ele>
        <time>2023-08-02T07:09:02.000Z</time>
      </trkpt>
      <trkpt lat="43.73724" lon="7.08466">
        <ele>598.59997558594</ele>
        <time>2023-08-02T07:09:03.000Z</time>
      </trkpt>
      <trkpt lat="43.73727" lon="7.08465">
        <ele>598.40002441406</ele>
        <time>2023-08-02T07:09:04.000Z</time>
      </trkpt>
      <trkpt lat="43.73731" lon="7.08465">
        <ele>598.20001220703</ele>
        <time>2023-08-02T07:09:05.000Z</time>
      </trkpt>
      <trkpt lat="43.73734" lon="7.08465">
        <ele>598</ele>
        <time>2023-08-02T07:09:06.000Z</time>
      </trkpt>
      <trkpt lat="43.73737" lon="7.08464">
        <ele>598</ele>
        <time>2023-08-02T07:09:07.000Z</time>
      </trkpt>
      <trkpt lat="43.73739" lon="7.08462">
        <ele>598</ele>
        <time>2023-08-02T07:09:08.000Z</time>
      </trkpt>
      <trkpt lat="43.73742" lon="7.0846">
        <ele>598</ele>
        <time>2023-08-02T07:09:09.000Z</time>
      </trkpt>
      <trkpt lat="43.73745" lon="7.08458">
        <ele>598</ele>
        <time>2023-08-02T07:09:10.000Z</time>
      </trkpt>
      <trkpt lat="43.73747" lon="7.08456">
        <ele>598</ele>
        <time>2023-08-02T07:09:11.000Z</time>
      </trkpt>
      <trkpt lat="43.73749" lon="7.08453">
        <ele>598</ele>
        <time>2023-08-02T07:09:12.000Z</time>
      </trkpt>
      <trkpt lat="43.73751" lon="7.08451">
        <ele>598.20001220703</ele>
        <time>2023-08-02T07:09:13.000Z</time>
      </trkpt>
      <trkpt lat="43.73753" lon="7.08448">
        <ele>598.20001220703</ele>
        <time>2023-08-02T07:09:14.000Z</time>
      </trkpt>
      <trkpt lat="43.73755" lon="7.08445">
        <ele>598.40002441406</ele>
        <time>2023-08-02T07:09:15.000Z</time>
      </trkpt>
      <trkpt lat="43.73757" lon="7.08443">
        <ele>598.40002441406</ele>
        <time>2023-08-02T07:09:16.000Z</time>
      </trkpt>
      <trkpt lat="43.73759" lon="7.08441">
        <ele>598.59997558594</ele>
        <time>2023-08-02T07:09:17.000Z</time>
      </trkpt>
      <trkpt lat="43.73762" lon="7.08441">
        <ele>598.59997558594</ele>
        <time>2023-08-02T07:09:18.000Z</time>
      </trkpt>
      <trkpt lat="43.73764" lon="7.0844">
        <ele>599</ele>
        <time>2023-08-02T07:09:19.000Z</time>
      </trkpt>
      <trkpt lat="43.73767" lon="7.08437">
        <ele>599.20001220703</ele>
        <time>2023-08-02T07:09:20.000Z</time>
      </trkpt>
      <trkpt lat="43.73769" lon="7.08435">
        <ele>599.20001220703</ele>
        <time>2023-08-02T07:09:21.000Z</time>
      </trkpt>
      <trkpt lat="43.73771" lon="7.08434">
        <ele>599.20001220703</ele>
        <time>2023-08-02T07:09:22.000Z</time>
      </trkpt>
      <trkpt lat="43.73773" lon="7.08433">
        <ele>599.20001220703</ele>
        <time>2023-08-02T07:09:23.000Z</time>
      </trkpt>
      <trkpt lat="43.73775" lon="7.08432">
        <ele>599</ele>
        <time>2023-08-02T07:09:24.000Z</time>
      </trkpt>
      <trkpt lat="43.73778" lon="7.0843">
        <ele>599</ele>
        <time>2023-08-02T07:09:25.000Z</time>
      </trkpt>
      <trkpt lat="43.73782" lon="7.08428">
        <ele>598.79998779297</ele>
        <time>2023-08-02T07:09:26.000Z</time>
      </trkpt>
      <trkpt lat="43.73785" lon="7.08427">
        <ele>598.59997558594</ele>
        <time>2023-08-02T07:09:27.000Z</time>
      </trkpt>
      <trkpt lat="43.73788" lon="7.08425">
        <ele>598.59997558594</ele>
        <time>2023-08-02T07:09:28.000Z</time>
      </trkpt>
      <trkpt lat="43.7379" lon="7.08423">
        <ele>598.40002441406</ele>
        <time>2023-08-02T07:09:29.000Z</time>
      </trkpt>
      <trkpt lat="43.73792" lon="7.08421">
        <ele>598</ele>
        <time>2023-08-02T07:09:30.000Z</time>
      </trkpt>
      <trkpt lat="43.73795" lon="7.0842">
        <ele>597.79998779297</ele>
        <time>2023-08-02T07:09:31.000Z</time>
      </trkpt>
      <trkpt lat="43.73798" lon="7.0842">
        <ele>597.79998779297</ele>
        <time>2023-08-02T07:09:32.000Z</time>
      </trkpt>
      <trkpt lat="43.73802" lon="7.08419">
        <ele>597.20001220703</ele>
        <time>2023-08-02T07:09:33.000Z</time>
      </trkpt>
      <trkpt lat="43.73805" lon="7.08418">
        <ele>596.59997558594</ele>
        <time>2023-08-02T07:09:34.000Z</time>
      </trkpt>
      <trkpt lat="43.73807" lon="7.08416">
        <ele>596</ele>
        <time>2023-08-02T07:09:35.000Z</time>
      </trkpt>
      <trkpt lat="43.73809" lon="7.08415">
        <ele>596</ele>
        <time>2023-08-02T07:09:36.000Z</time>
      </trkpt>
      <trkpt lat="43.73811" lon="7.08414">
        <ele>596</ele>
        <time>2023-08-02T07:09:37.000Z</time>
      </trkpt>
      <trkpt lat="43.73814" lon="7.08414">
        <ele>596</ele>
        <time>2023-08-02T07:09:38.000Z</time>
      </trkpt>
      <trkpt lat="43.73816" lon="7.08413">
        <ele>596</ele>
        <time>2023-08-02T07:09:39.000Z</time>
      </trkpt>
      <trkpt lat="43.73818" lon="7.08412">
        <ele>596</ele>
        <time>2023-08-02T07:09:40.000Z</time>
      </trkpt>
      <trkpt lat="43.73821" lon="7.08411">
        <ele>596.20001220703</ele>
        <time>2023-08-02T07:09:41.000Z</time>
      </trkpt>
      <trkpt lat="43.73822" lon="7.08409">
        <ele>596.59997558594</ele>
        <time>2023-08-02T07:09:42.000Z</time>
      </trkpt>
      <trkpt lat="43.73823" lon="7.08407">
        <ele>596.79998779297</ele>
        <time>2023-08-02T07:09:43.000Z</time>
      </trkpt>
      <trkpt lat="43.73823" lon="7.08404">
        <ele>597.20001220703</ele>
        <time>2023-08-02T07:09:44.000Z</time>
      </trkpt>
      <trkpt lat="43.73824" lon="7.084">
        <ele>597.40002441406</ele>
        <time>2023-08-02T07:09:45.000Z</time>
      </trkpt>
      <trkpt lat="43.73825" lon="7.08396">
        <ele>597.59997558594</ele>
        <time>2023-08-02T07:09:46.000Z</time>
      </trkpt>
      <trkpt lat="43.73826" lon="7.08394">
        <ele>597.59997558594</ele>
        <time>2023-08-02T07:09:47.000Z</time>
      </trkpt>
      <trkpt lat="43.73828" lon="7.08392">
        <ele>597.59997558594</ele>
        <time>2023-08-02T07:09:48.000Z</time>
      </trkpt>
      <trkpt lat="43.73831" lon="7.08391">
        <ele>597.59997558594</ele>
        <time>2023-08-02T07:09:49.000Z</time>
      </trkpt>
      <trkpt lat="43.73832" lon="7.08389">
        <ele>597.59997558594</ele>
        <time>2023-08-02T07:09:50.000Z</time>
      </trkpt>
      <trkpt lat="43.73834" lon="7.08386">
        <ele>597.59997558594</ele>
        <time>2023-08-02T07:09:51.000Z</time>
      </trkpt>
      <trkpt lat="43.73835" lon="7.08385">
        <ele>597.59997558594</ele>
        <time>2023-08-02T07:09:52.000Z</time>
      </trkpt>
      <trkpt lat="43.73836" lon="7.08383">
        <ele>597.59997558594</ele>
        <time>2023-08-02T07:09:53.000Z</time>
      </trkpt>
      <trkpt lat="43.73838" lon="7.08382">
        <ele>597.59997558594</ele>
        <time>2023-08-02T07:09:54.000Z</time>
      </trkpt>
      <trkpt lat="43.73839" lon="7.08381">
        <ele>597.79998779297</ele>
        <time>2023-08-02T07:09:55.000Z</time>
      </trkpt>
      <trkpt lat="43.73841" lon="7.08381">
        <ele>598.20001220703</ele>
        <time>2023-08-02T07:09:56.000Z</time>
      </trkpt>
      <trkpt lat="43.73843" lon="7.08382">
        <ele>598.20001220703</ele>
        <time>2023-08-02T07:09:57.000Z</time>
      </trkpt>
      <trkpt lat="43.73845" lon="7.08384">
        <ele>598.59997558594</ele>
        <time>2023-08-02T07:09:58.000Z</time>
      </trkpt>
      <trkpt lat="43.73848" lon="7.08384">
        <ele>598.59997558594</ele>
        <time>2023-08-02T07:09:59.000Z</time>
      </trkpt>
      <trkpt lat="43.7385" lon="7.08383">
        <ele>598.79998779297</ele>
        <time>2023-08-02T07:10:00.000Z</time>
      </trkpt>
      <trkpt lat="43.73851" lon="7.08383">
        <ele>599.20001220703</ele>
        <time>2023-08-02T07:10:01.000Z</time>
      </trkpt>
      <trkpt lat="43.73854" lon="7.08384">
        <ele>599.20001220703</ele>
        <time>2023-08-02T07:10:02.000Z</time>
      </trkpt>
      <trkpt lat="43.73856" lon="7.08384">
        <ele>599.20001220703</ele>
        <time>2023-08-02T07:10:03.000Z</time>
      </trkpt>
      <trkpt lat="43.73858" lon="7.08384">
        <ele>599.79998779297</ele>
        <time>2023-08-02T07:10:04.000Z</time>
      </trkpt>
      <trkpt lat="43.73859" lon="7.08384">
        <ele>600.20001220703</ele>
        <time>2023-08-02T07:10:05.000Z</time>
      </trkpt>
      <trkpt lat="43.73861" lon="7.08384">
        <ele>600.40002441406</ele>
        <time>2023-08-02T07:10:06.000Z</time>
      </trkpt>
      <trkpt lat="43.73864" lon="7.08383">
        <ele>600.79998779297</ele>
        <time>2023-08-02T07:10:07.000Z</time>
      </trkpt>
      <trkpt lat="43.73866" lon="7.08383">
        <ele>601.20001220703</ele>
        <time>2023-08-02T07:10:08.000Z</time>
      </trkpt>
      <trkpt lat="43.73868" lon="7.08382">
        <ele>601.20001220703</ele>
        <time>2023-08-02T07:10:09.000Z</time>
      </trkpt>
      <trkpt lat="43.7387" lon="7.0838">
        <ele>601.20001220703</ele>
        <time>2023-08-02T07:10:10.000Z</time>
      </trkpt>
      <trkpt lat="43.73872" lon="7.08379">
        <ele>601.40002441406</ele>
        <time>2023-08-02T07:10:11.000Z</time>
      </trkpt>
      <trkpt lat="43.73875" lon="7.0838">
        <ele>601.59997558594</ele>
        <time>2023-08-02T07:10:12.000Z</time>
      </trkpt>
      <trkpt lat="43.73877" lon="7.0838">
        <ele>602</ele>
        <time>2023-08-02T07:10:13.000Z</time>
      </trkpt>
      <trkpt lat="43.73879" lon="7.08379">
        <ele>602</ele>
        <time>2023-08-02T07:10:14.000Z</time>
      </trkpt>
      <trkpt lat="43.73882" lon="7.08379">
        <ele>602.40002441406</ele>
        <time>2023-08-02T07:10:15.000Z</time>
      </trkpt>
      <trkpt lat="43.73884" lon="7.08379">
        <ele>602.40002441406</ele>
        <time>2023-08-02T07:10:16.000Z</time>
      </trkpt>
      <trkpt lat="43.73885" lon="7.08378">
        <ele>602.59997558594</ele>
        <time>2023-08-02T07:10:17.000Z</time>
      </trkpt>
      <trkpt lat="43.73887" lon="7.08378">
        <ele>603</ele>
        <time>2023-08-02T07:10:18.000Z</time>
      </trkpt>
      <trkpt lat="43.73888" lon="7.08377">
        <ele>603.40002441406</ele>
        <time>2023-08-02T07:10:19.000Z</time>
      </trkpt>
      <trkpt lat="43.73891" lon="7.08376">
        <ele>603.59997558594</ele>
        <time>2023-08-02T07:10:20.000Z</time>
      </trkpt>
      <trkpt lat="43.73893" lon="7.08375">
        <ele>604</ele>
        <time>2023-08-02T07:10:21.000Z</time>
      </trkpt>
      <trkpt lat="43.73896" lon="7.08375">
        <ele>604.20001220703</ele>
        <time>2023-08-02T07:10:22.000Z</time>
      </trkpt>
      <trkpt lat="43.73898" lon="7.08375">
        <ele>604.20001220703</ele>
        <time>2023-08-02T07:10:23.000Z</time>
      </trkpt>
      <trkpt lat="43.739" lon="7.08373">
        <ele>604.59997558594</ele>
        <time>2023-08-02T07:10:24.000Z</time>
      </trkpt>
      <trkpt lat="43.73902" lon="7.08371">
        <ele>605</ele>
        <time>2023-08-02T07:10:25.000Z</time>
      </trkpt>
      <trkpt lat="43.73904" lon="7.08369">
        <ele>605.20001220703</ele>
        <time>2023-08-02T07:10:26.000Z</time>
      </trkpt>
      <trkpt lat="43.73906" lon="7.08368">
        <ele>605.20001220703</ele>
        <time>2023-08-02T07:10:27.000Z</time>
      </trkpt>
      <trkpt lat="43.73909" lon="7.08366">
        <ele>605.59997558594</ele>
        <time>2023-08-02T07:10:28.000Z</time>
      </trkpt>
      <trkpt lat="43.7391" lon="7.08365">
        <ele>605.79998779297</ele>
        <time>2023-08-02T07:10:29.000Z</time>
      </trkpt>
      <trkpt lat="43.73912" lon="7.08364">
        <ele>605.79998779297</ele>
        <time>2023-08-02T07:10:30.000Z</time>
      </trkpt>
      <trkpt lat="43.73914" lon="7.08361">
        <ele>606.20001220703</ele>
        <time>2023-08-02T07:10:31.000Z</time>
      </trkpt>
      <trkpt lat="43.73916" lon="7.08359">
        <ele>606.40002441406</ele>
        <time>2023-08-02T07:10:32.000Z</time>
      </trkpt>
      <trkpt lat="43.73918" lon="7.08357">
        <ele>606.40002441406</ele>
        <time>2023-08-02T07:10:33.000Z</time>
      </trkpt>
      <trkpt lat="43.7392" lon="7.08355">
        <ele>606.59997558594</ele>
        <time>2023-08-02T07:10:34.000Z</time>
      </trkpt>
      <trkpt lat="43.73922" lon="7.08354">
        <ele>606.59997558594</ele>
        <time>2023-08-02T07:10:35.000Z</time>
      </trkpt>
      <trkpt lat="43.73925" lon="7.08353">
        <ele>607</ele>
        <time>2023-08-02T07:10:36.000Z</time>
      </trkpt>
      <trkpt lat="43.73927" lon="7.08352">
        <ele>607</ele>
        <time>2023-08-02T07:10:37.000Z</time>
      </trkpt>
      <trkpt lat="43.7393" lon="7.08353">
        <ele>607.40002441406</ele>
        <time>2023-08-02T07:10:38.000Z</time>
      </trkpt>
      <trkpt lat="43.73933" lon="7.08355">
        <ele>607.40002441406</ele>
        <time>2023-08-02T07:10:39.000Z</time>
      </trkpt>
      <trkpt lat="43.73935" lon="7.08354">
        <ele>607.59997558594</ele>
        <time>2023-08-02T07:10:40.000Z</time>
      </trkpt>
      <trkpt lat="43.73937" lon="7.08354">
        <ele>607.59997558594</ele>
        <time>2023-08-02T07:10:41.000Z</time>
      </trkpt>
      <trkpt lat="43.73939" lon="7.08355">
        <ele>607.79998779297</ele>
        <time>2023-08-02T07:10:42.000Z</time>
      </trkpt>
      <trkpt lat="43.7394" lon="7.08354">
        <ele>608.20001220703</ele>
        <time>2023-08-02T07:10:43.000Z</time>
      </trkpt>
      <trkpt lat="43.7394" lon="7.08353">
        <ele>608.40002441406</ele>
        <time>2023-08-02T07:10:44.000Z</time>
      </trkpt>
      <trkpt lat="43.7394" lon="7.08352">
        <ele>609</ele>
        <time>2023-08-02T07:10:45.000Z</time>
      </trkpt>
      <trkpt lat="43.7394" lon="7.08352">
        <ele>609.59997558594</ele>
        <time>2023-08-02T07:10:46.000Z</time>
      </trkpt>
      <trkpt lat="43.73941" lon="7.08352">
        <ele>609.59997558594</ele>
        <time>2023-08-02T07:10:47.000Z</time>
      </trkpt>
      <trkpt lat="43.73942" lon="7.08351">
        <ele>609.79998779297</ele>
        <time>2023-08-02T07:10:48.000Z</time>
      </trkpt>
      <trkpt lat="43.73944" lon="7.08351">
        <ele>609.79998779297</ele>
        <time>2023-08-02T07:10:49.000Z</time>
      </trkpt>
      <trkpt lat="43.73947" lon="7.0835">
        <ele>609.79998779297</ele>
        <time>2023-08-02T07:10:50.000Z</time>
      </trkpt>
      <trkpt lat="43.73949" lon="7.0835">
        <ele>609.79998779297</ele>
        <time>2023-08-02T07:10:51.000Z</time>
      </trkpt>
      <trkpt lat="43.73951" lon="7.08351">
        <ele>609.79998779297</ele>
        <time>2023-08-02T07:10:52.000Z</time>
      </trkpt>
      <trkpt lat="43.73952" lon="7.0835">
        <ele>609.79998779297</ele>
        <time>2023-08-02T07:10:53.000Z</time>
      </trkpt>
      <trkpt lat="43.73953" lon="7.08348">
        <ele>609.79998779297</ele>
        <time>2023-08-02T07:10:54.000Z</time>
      </trkpt>
      <trkpt lat="43.73954" lon="7.08346">
        <ele>609.79998779297</ele>
        <time>2023-08-02T07:10:55.000Z</time>
      </trkpt>
      <trkpt lat="43.73954" lon="7.08345">
        <ele>610</ele>
        <time>2023-08-02T07:10:56.000Z</time>
      </trkpt>
      <trkpt lat="43.73955" lon="7.08345">
        <ele>610</ele>
        <time>2023-08-02T07:10:57.000Z</time>
      </trkpt>
      <trkpt lat="43.73954" lon="7.08344">
        <ele>610</ele>
        <time>2023-08-02T07:10:58.000Z</time>
      </trkpt>
      <trkpt lat="43.73954" lon="7.08344">
        <ele>610</ele>
        <time>2023-08-02T07:10:59.000Z</time>
      </trkpt>
      <trkpt lat="43.73954" lon="7.08344">
        <ele>609.79998779297</ele>
        <time>2023-08-02T07:11:00.000Z</time>
      </trkpt>
      <trkpt lat="43.73954" lon="7.08344">
        <ele>609.79998779297</ele>
        <time>2023-08-02T07:11:01.000Z</time>
      </trkpt>
      <trkpt lat="43.73954" lon="7.08344">
        <ele>609.79998779297</ele>
        <time>2023-08-02T07:11:02.000Z</time>
      </trkpt>
      <trkpt lat="43.73954" lon="7.08344">
        <ele>609.79998779297</ele>
        <time>2023-08-02T07:11:03.000Z</time>
      </trkpt>
      <trkpt lat="43.73954" lon="7.08344">
        <ele>609.79998779297</ele>
        <time>2023-08-02T07:11:04.000Z</time>
      </trkpt>
      <trkpt lat="43.73954" lon="7.08344">
        <ele>609.79998779297</ele>
        <time>2023-08-02T07:11:05.000Z</time>
      </trkpt>
      <trkpt lat="43.73954" lon="7.08344">
        <ele>609.79998779297</ele>
        <time>2023-08-02T07:11:06.000Z</time>
      </trkpt>
      <trkpt lat="43.73954" lon="7.08344">
        <ele>609.79998779297</ele>
        <time>2023-08-02T07:11:07.000Z</time>
      </trkpt>
      <trkpt lat="43.73954" lon="7.08344">
        <ele>609.79998779297</ele>
        <time>2023-08-02T07:11:08.000Z</time>
      </trkpt>
      <trkpt lat="43.73954" lon="7.08344">
        <ele>609.79998779297</ele>
        <time>2023-08-02T07:11:09.000Z</time>
      </trkpt>
      <trkpt lat="43.73954" lon="7.08344">
        <ele>609.79998779297</ele>
        <time>2023-08-02T07:11:10.000Z</time>
      </trkpt>
      <trkpt lat="43.73954" lon="7.08344">
        <ele>609.79998779297</ele>
        <time>2023-08-02T07:11:11.000Z</time>
      </trkpt>
      <trkpt lat="43.73954" lon="7.08344">
        <ele>609.79998779297</ele>
        <time>2023-08-02T07:11:12.000Z</time>
      </trkpt>
      <trkpt lat="43.73954" lon="7.08344">
        <ele>609.79998779297</ele>
        <time>2023-08-02T07:11:13.000Z</time>
      </trkpt>
      <trkpt lat="43.73954" lon="7.08344">
        <ele>609.79998779297</ele>
        <time>2023-08-02T07:11:14.000Z</time>
      </trkpt>
      <trkpt lat="43.73954" lon="7.08344">
        <ele>609.79998779297</ele>
        <time>2023-08-02T07:11:15.000Z</time>
      </trkpt>
      <trkpt lat="43.73954" lon="7.08344">
        <ele>609.79998779297</ele>
        <time>2023-08-02T07:11:16.000Z</time>
      </trkpt>
      <trkpt lat="43.73954" lon="7.08344">
        <ele>609.79998779297</ele>
        <time>2023-08-02T07:11:17.000Z</time>
      </trkpt>
      <trkpt lat="43.73954" lon="7.08344">
        <ele>610</ele>
        <time>2023-08-02T07:11:18.000Z</time>
      </trkpt>
      <trkpt lat="43.73954" lon="7.08344">
        <ele>610</ele>
        <time>2023-08-02T07:11:19.000Z</time>
      </trkpt>
      <trkpt lat="43.73954" lon="7.08344">
        <ele>610</ele>
        <time>2023-08-02T07:11:20.000Z</time>
      </trkpt>
      <trkpt lat="43.73954" lon="7.08344">
        <ele>610</ele>
        <time>2023-08-02T07:11:21.000Z</time>
      </trkpt>
      <trkpt lat="43.73954" lon="7.08344">
        <ele>610</ele>
        <time>2023-08-02T07:11:22.000Z</time>
      </trkpt>
      <trkpt lat="43.73954" lon="7.08344">
        <ele>610</ele>
        <time>2023-08-02T07:11:23.000Z</time>
      </trkpt>
      <trkpt lat="43.73954" lon="7.08344">
        <ele>610</ele>
        <time>2023-08-02T07:11:24.000Z</time>
      </trkpt>
      <trkpt lat="43.73954" lon="7.08344">
        <ele>610</ele>
        <time>2023-08-02T07:11:25.000Z</time>
      </trkpt>
      <trkpt lat="43.73954" lon="7.08344">
        <ele>610</ele>
        <time>2023-08-02T07:11:26.000Z</time>
      </trkpt>
      <trkpt lat="43.73954" lon="7.08344">
        <ele>610</ele>
        <time>2023-08-02T07:11:27.000Z</time>
      </trkpt>
      <trkpt lat="43.73954" lon="7.08344">
        <ele>610</ele>
        <time>2023-08-02T07:11:28.000Z</time>
      </trkpt>
      <trkpt lat="43.73954" lon="7.08344">
        <ele>610.20001220703</ele>
        <time>2023-08-02T07:11:29.000Z</time>
      </trkpt>
      <trkpt lat="43.73954" lon="7.08344">
        <ele>610.20001220703</ele>
        <time>2023-08-02T07:11:30.000Z</time>
      </trkpt>
      <trkpt lat="43.73954" lon="7.08344">
        <ele>610</ele>
        <time>2023-08-02T07:11:31.000Z</time>
      </trkpt>
      <trkpt lat="43.73954" lon="7.08344">
        <ele>610</ele>
        <time>2023-08-02T07:11:32.000Z</time>
      </trkpt>
      <trkpt lat="43.73954" lon="7.08344">
        <ele>610</ele>
        <time>2023-08-02T07:11:33.000Z</time>
      </trkpt>
      <trkpt lat="43.73954" lon="7.08344">
        <ele>610</ele>
        <time>2023-08-02T07:11:34.000Z</time>
      </trkpt>
      <trkpt lat="43.73954" lon="7.08344">
        <ele>610</ele>
        <time>2023-08-02T07:11:35.000Z</time>
      </trkpt>
      <trkpt lat="43.73954" lon="7.08344">
        <ele>610</ele>
        <time>2023-08-02T07:11:36.000Z</time>
      </trkpt>
      <trkpt lat="43.73954" lon="7.08344">
        <ele>610</ele>
        <time>2023-08-02T07:11:37.000Z</time>
      </trkpt>
      <trkpt lat="43.73954" lon="7.08344">
        <ele>610</ele>
        <time>2023-08-02T07:11:38.000Z</time>
      </trkpt>
      <trkpt lat="43.73954" lon="7.08344">
        <ele>610</ele>
        <time>2023-08-02T07:11:39.000Z</time>
      </trkpt>
      <trkpt lat="43.73954" lon="7.08344">
        <ele>610</ele>
        <time>2023-08-02T07:11:40.000Z</time>
      </trkpt>
      <trkpt lat="43.73954" lon="7.08344">
        <ele>610</ele>
        <time>2023-08-02T07:11:41.000Z</time>
      </trkpt>
      <trkpt lat="43.73954" lon="7.08344">
        <ele>610</ele>
        <time>2023-08-02T07:11:42.000Z</time>
      </trkpt>
      <trkpt lat="43.73954" lon="7.08344">
        <ele>610</ele>
        <time>2023-08-02T07:11:43.000Z</time>
      </trkpt>
      <trkpt lat="43.73954" lon="7.08344">
        <ele>610</ele>
        <time>2023-08-02T07:11:44.000Z</time>
      </trkpt>
      <trkpt lat="43.73954" lon="7.08344">
        <ele>610</ele>
        <time>2023-08-02T07:11:45.000Z</time>
      </trkpt>
      <trkpt lat="43.73954" lon="7.08344">
        <ele>610</ele>
        <time>2023-08-02T07:11:46.000Z</time>
      </trkpt>
      <trkpt lat="43.73954" lon="7.08344">
        <ele>610</ele>
        <time>2023-08-02T07:11:47.000Z</time>
      </trkpt>
      <trkpt lat="43.73954" lon="7.08344">
        <ele>609.79998779297</ele>
        <time>2023-08-02T07:11:48.000Z</time>
      </trkpt>
      <trkpt lat="43.73954" lon="7.08344">
        <ele>609.79998779297</ele>
        <time>2023-08-02T07:11:49.000Z</time>
      </trkpt>
      <trkpt lat="43.73954" lon="7.08344">
        <ele>609.79998779297</ele>
        <time>2023-08-02T07:11:50.000Z</time>
      </trkpt>
      <trkpt lat="43.73954" lon="7.08344">
        <ele>609.79998779297</ele>
        <time>2023-08-02T07:11:51.000Z</time>
      </trkpt>
      <trkpt lat="43.73954" lon="7.08344">
        <ele>609.79998779297</ele>
        <time>2023-08-02T07:11:52.000Z</time>
      </trkpt>
      <trkpt lat="43.73954" lon="7.08344">
        <ele>609.79998779297</ele>
        <time>2023-08-02T07:11:53.000Z</time>
      </trkpt>
      <trkpt lat="43.73954" lon="7.08344">
        <ele>609.79998779297</ele>
        <time>2023-08-02T07:11:54.000Z</time>
      </trkpt>
      <trkpt lat="43.73954" lon="7.08344">
        <ele>609.79998779297</ele>
        <time>2023-08-02T07:11:55.000Z</time>
      </trkpt>
      <trkpt lat="43.73954" lon="7.08344">
        <ele>609.79998779297</ele>
        <time>2023-08-02T07:11:56.000Z</time>
      </trkpt>
      <trkpt lat="43.73954" lon="7.08344">
        <ele>609.79998779297</ele>
        <time>2023-08-02T07:11:57.000Z</time>
      </trkpt>
      <trkpt lat="43.73954" lon="7.08344">
        <ele>609.79998779297</ele>
        <time>2023-08-02T07:11:58.000Z</time>
      </trkpt>
      <trkpt lat="43.73954" lon="7.08344">
        <ele>609.79998779297</ele>
        <time>2023-08-02T07:11:59.000Z</time>
      </trkpt>
      <trkpt lat="43.73954" lon="7.08344">
        <ele>609.79998779297</ele>
        <time>2023-08-02T07:12:00.000Z</time>
      </trkpt>
      <trkpt lat="43.73954" lon="7.08344">
        <ele>609.79998779297</ele>
        <time>2023-08-02T07:12:01.000Z</time>
      </trkpt>
      <trkpt lat="43.73954" lon="7.08344">
        <ele>609.79998779297</ele>
        <time>2023-08-02T07:12:02.000Z</time>
      </trkpt>
      <trkpt lat="43.73954" lon="7.08344">
        <ele>609.79998779297</ele>
        <time>2023-08-02T07:12:03.000Z</time>
      </trkpt>
      <trkpt lat="43.73954" lon="7.08344">
        <ele>609.79998779297</ele>
        <time>2023-08-02T07:12:04.000Z</time>
      </trkpt>
      <trkpt lat="43.73954" lon="7.08344">
        <ele>609.79998779297</ele>
        <time>2023-08-02T07:12:05.000Z</time>
      </trkpt>
      <trkpt lat="43.73954" lon="7.08344">
        <ele>609.79998779297</ele>
        <time>2023-08-02T07:12:06.000Z</time>
      </trkpt>
      <trkpt lat="43.73954" lon="7.08344">
        <ele>609.79998779297</ele>
        <time>2023-08-02T07:12:07.000Z</time>
      </trkpt>
      <trkpt lat="43.73954" lon="7.08344">
        <ele>609.79998779297</ele>
        <time>2023-08-02T07:12:08.000Z</time>
      </trkpt>
      <trkpt lat="43.73954" lon="7.08344">
        <ele>609.79998779297</ele>
        <time>2023-08-02T07:12:09.000Z</time>
      </trkpt>
      <trkpt lat="43.73954" lon="7.08344">
        <ele>609.79998779297</ele>
        <time>2023-08-02T07:12:10.000Z</time>
      </trkpt>
      <trkpt lat="43.73954" lon="7.08344">
        <ele>609.79998779297</ele>
        <time>2023-08-02T07:12:11.000Z</time>
      </trkpt>
      <trkpt lat="43.73954" lon="7.08344">
        <ele>609.79998779297</ele>
        <time>2023-08-02T07:12:12.000Z</time>
      </trkpt>
      <trkpt lat="43.73954" lon="7.08344">
        <ele>609.79998779297</ele>
        <time>2023-08-02T07:12:13.000Z</time>
      </trkpt>
      <trkpt lat="43.73954" lon="7.08344">
        <ele>609.79998779297</ele>
        <time>2023-08-02T07:12:14.000Z</time>
      </trkpt>
      <trkpt lat="43.73954" lon="7.08344">
        <ele>609.79998779297</ele>
        <time>2023-08-02T07:12:15.000Z</time>
      </trkpt>
      <trkpt lat="43.73954" lon="7.08344">
        <ele>609.79998779297</ele>
        <time>2023-08-02T07:12:16.000Z</time>
      </trkpt>
      <trkpt lat="43.73954" lon="7.08344">
        <ele>609.79998779297</ele>
        <time>2023-08-02T07:12:17.000Z</time>
      </trkpt>
      <trkpt lat="43.73954" lon="7.08344">
        <ele>609.79998779297</ele>
        <time>2023-08-02T07:12:18.000Z</time>
      </trkpt>
      <trkpt lat="43.73954" lon="7.08344">
        <ele>609.79998779297</ele>
        <time>2023-08-02T07:12:19.000Z</time>
      </trkpt>
      <trkpt lat="43.73954" lon="7.08344">
        <ele>609.79998779297</ele>
        <time>2023-08-02T07:12:20.000Z</time>
      </trkpt>
      <trkpt lat="43.73954" lon="7.08344">
        <ele>609.79998779297</ele>
        <time>2023-08-02T07:12:21.000Z</time>
      </trkpt>
      <trkpt lat="43.73954" lon="7.08344">
        <ele>609.79998779297</ele>
        <time>2023-08-02T07:12:22.000Z</time>
      </trkpt>
      <trkpt lat="43.73954" lon="7.08344">
        <ele>609.79998779297</ele>
        <time>2023-08-02T07:12:23.000Z</time>
      </trkpt>
      <trkpt lat="43.73954" lon="7.08344">
        <ele>609.79998779297</ele>
        <time>2023-08-02T07:12:24.000Z</time>
      </trkpt>
      <trkpt lat="43.73954" lon="7.08344">
        <ele>609.79998779297</ele>
        <time>2023-08-02T07:12:25.000Z</time>
      </trkpt>
      <trkpt lat="43.73954" lon="7.08344">
        <ele>609.79998779297</ele>
        <time>2023-08-02T07:12:26.000Z</time>
      </trkpt>
      <trkpt lat="43.73954" lon="7.08344">
        <ele>609.79998779297</ele>
        <time>2023-08-02T07:12:27.000Z</time>
      </trkpt>
      <trkpt lat="43.73954" lon="7.08344">
        <ele>609.79998779297</ele>
        <time>2023-08-02T07:12:28.000Z</time>
      </trkpt>
      <trkpt lat="43.73954" lon="7.08344">
        <ele>609.79998779297</ele>
        <time>2023-08-02T07:12:29.000Z</time>
      </trkpt>
      <trkpt lat="43.73954" lon="7.08344">
        <ele>609.79998779297</ele>
        <time>2023-08-02T07:12:30.000Z</time>
      </trkpt>
      <trkpt lat="43.73954" lon="7.08344">
        <ele>609.79998779297</ele>
        <time>2023-08-02T07:12:31.000Z</time>
      </trkpt>
      <trkpt lat="43.73954" lon="7.08344">
        <ele>609.79998779297</ele>
        <time>2023-08-02T07:12:32.000Z</time>
      </trkpt>
      <trkpt lat="43.73954" lon="7.08344">
        <ele>609.79998779297</ele>
        <time>2023-08-02T07:12:33.000Z</time>
      </trkpt>
      <trkpt lat="43.73954" lon="7.08344">
        <ele>609.79998779297</ele>
        <time>2023-08-02T07:12:34.000Z</time>
      </trkpt>
      <trkpt lat="43.73954" lon="7.08344">
        <ele>609.79998779297</ele>
        <time>2023-08-02T07:12:35.000Z</time>
      </trkpt>
      <trkpt lat="43.73954" lon="7.08344">
        <ele>609.79998779297</ele>
        <time>2023-08-02T07:12:36.000Z</time>
      </trkpt>
      <trkpt lat="43.73954" lon="7.08344">
        <ele>609.79998779297</ele>
        <time>2023-08-02T07:12:37.000Z</time>
      </trkpt>
      <trkpt lat="43.73954" lon="7.08344">
        <ele>609.79998779297</ele>
        <time>2023-08-02T07:12:38.000Z</time>
      </trkpt>
      <trkpt lat="43.73954" lon="7.08344">
        <ele>609.79998779297</ele>
        <time>2023-08-02T07:12:39.000Z</time>
      </trkpt>
      <trkpt lat="43.73954" lon="7.08344">
        <ele>609.79998779297</ele>
        <time>2023-08-02T07:12:40.000Z</time>
      </trkpt>
      <trkpt lat="43.73954" lon="7.08344">
        <ele>609.79998779297</ele>
        <time>2023-08-02T07:12:41.000Z</time>
      </trkpt>
      <trkpt lat="43.73954" lon="7.08344">
        <ele>609.79998779297</ele>
        <time>2023-08-02T07:12:42.000Z</time>
      </trkpt>
      <trkpt lat="43.73954" lon="7.08344">
        <ele>609.79998779297</ele>
        <time>2023-08-02T07:12:43.000Z</time>
      </trkpt>
      <trkpt lat="43.73954" lon="7.08344">
        <ele>609.79998779297</ele>
        <time>2023-08-02T07:12:44.000Z</time>
      </trkpt>
      <trkpt lat="43.73954" lon="7.08344">
        <ele>609.79998779297</ele>
        <time>2023-08-02T07:12:45.000Z</time>
      </trkpt>
      <trkpt lat="43.73954" lon="7.08344">
        <ele>609.79998779297</ele>
        <time>2023-08-02T07:12:46.000Z</time>
      </trkpt>
      <trkpt lat="43.73954" lon="7.08344">
        <ele>609.79998779297</ele>
        <time>2023-08-02T07:12:47.000Z</time>
      </trkpt>
      <trkpt lat="43.73954" lon="7.08344">
        <ele>609.79998779297</ele>
        <time>2023-08-02T07:12:48.000Z</time>
      </trkpt>
      <trkpt lat="43.73954" lon="7.08344">
        <ele>609.79998779297</ele>
        <time>2023-08-02T07:12:49.000Z</time>
      </trkpt>
      <trkpt lat="43.73954" lon="7.08344">
        <ele>609.79998779297</ele>
        <time>2023-08-02T07:12:50.000Z</time>
      </trkpt>
      <trkpt lat="43.73954" lon="7.08344">
        <ele>609.79998779297</ele>
        <time>2023-08-02T07:12:51.000Z</time>
      </trkpt>
      <trkpt lat="43.73954" lon="7.08344">
        <ele>609.79998779297</ele>
        <time>2023-08-02T07:12:52.000Z</time>
      </trkpt>
      <trkpt lat="43.73954" lon="7.08344">
        <ele>609.79998779297</ele>
        <time>2023-08-02T07:12:53.000Z</time>
      </trkpt>
      <trkpt lat="43.73954" lon="7.08344">
        <ele>609.79998779297</ele>
        <time>2023-08-02T07:12:54.000Z</time>
      </trkpt>
      <trkpt lat="43.73954" lon="7.08344">
        <ele>609.79998779297</ele>
        <time>2023-08-02T07:12:55.000Z</time>
      </trkpt>
      <trkpt lat="43.73954" lon="7.08344">
        <ele>609.79998779297</ele>
        <time>2023-08-02T07:12:56.000Z</time>
      </trkpt>
      <trkpt lat="43.73954" lon="7.08344">
        <ele>609.79998779297</ele>
        <time>2023-08-02T07:12:57.000Z</time>
      </trkpt>
      <trkpt lat="43.73954" lon="7.08344">
        <ele>609.79998779297</ele>
        <time>2023-08-02T07:12:58.000Z</time>
      </trkpt>
      <trkpt lat="43.73954" lon="7.08344">
        <ele>609.79998779297</ele>
        <time>2023-08-02T07:12:59.000Z</time>
      </trkpt>
      <trkpt lat="43.73954" lon="7.08344">
        <ele>609.79998779297</ele>
        <time>2023-08-02T07:13:00.000Z</time>
      </trkpt>
      <trkpt lat="43.73954" lon="7.08344">
        <ele>609.79998779297</ele>
        <time>2023-08-02T07:13:01.000Z</time>
      </trkpt>
      <trkpt lat="43.73954" lon="7.08344">
        <ele>609.79998779297</ele>
        <time>2023-08-02T07:13:02.000Z</time>
      </trkpt>
      <trkpt lat="43.73954" lon="7.08344">
        <ele>609.79998779297</ele>
        <time>2023-08-02T07:13:03.000Z</time>
      </trkpt>
      <trkpt lat="43.73954" lon="7.08344">
        <ele>609.79998779297</ele>
        <time>2023-08-02T07:13:04.000Z</time>
      </trkpt>
      <trkpt lat="43.73954" lon="7.08344">
        <ele>609.79998779297</ele>
        <time>2023-08-02T07:13:05.000Z</time>
      </trkpt>
      <trkpt lat="43.73954" lon="7.08344">
        <ele>609.79998779297</ele>
        <time>2023-08-02T07:13:06.000Z</time>
      </trkpt>
      <trkpt lat="43.73955" lon="7.08344">
        <ele>609.79998779297</ele>
        <time>2023-08-02T07:13:07.000Z</time>
      </trkpt>
      <trkpt lat="43.73955" lon="7.08344">
        <ele>609.79998779297</ele>
        <time>2023-08-02T07:13:08.000Z</time>
      </trkpt>
      <trkpt lat="43.73955" lon="7.08345">
        <ele>609.79998779297</ele>
        <time>2023-08-02T07:13:09.000Z</time>
      </trkpt>
      <trkpt lat="43.73955" lon="7.08345">
        <ele>609.79998779297</ele>
        <time>2023-08-02T07:13:10.000Z</time>
      </trkpt>
      <trkpt lat="43.73955" lon="7.08345">
        <ele>609.79998779297</ele>
        <time>2023-08-02T07:13:11.000Z</time>
      </trkpt>
      <trkpt lat="43.73955" lon="7.08345">
        <ele>609.79998779297</ele>
        <time>2023-08-02T07:13:12.000Z</time>
      </trkpt>
      <trkpt lat="43.73955" lon="7.08345">
        <ele>609.79998779297</ele>
        <time>2023-08-02T07:13:13.000Z</time>
      </trkpt>
      <trkpt lat="43.73955" lon="7.08345">
        <ele>609.79998779297</ele>
        <time>2023-08-02T07:13:14.000Z</time>
      </trkpt>
      <trkpt lat="43.73955" lon="7.08345">
        <ele>609.79998779297</ele>
        <time>2023-08-02T07:13:15.000Z</time>
      </trkpt>
      <trkpt lat="43.73955" lon="7.08345">
        <ele>609.79998779297</ele>
        <time>2023-08-02T07:13:16.000Z</time>
      </trkpt>
      <trkpt lat="43.73955" lon="7.08345">
        <ele>609.79998779297</ele>
        <time>2023-08-02T07:13:17.000Z</time>
      </trkpt>
      <trkpt lat="43.73955" lon="7.08345">
        <ele>609.79998779297</ele>
        <time>2023-08-02T07:13:18.000Z</time>
      </trkpt>
      <trkpt lat="43.73955" lon="7.08345">
        <ele>609.79998779297</ele>
        <time>2023-08-02T07:13:19.000Z</time>
      </trkpt>
      <trkpt lat="43.73955" lon="7.08345">
        <ele>609.79998779297</ele>
        <time>2023-08-02T07:13:20.000Z</time>
      </trkpt>
      <trkpt lat="43.73955" lon="7.08345">
        <ele>609.79998779297</ele>
        <time>2023-08-02T07:13:21.000Z</time>
      </trkpt>
      <trkpt lat="43.73955" lon="7.08345">
        <ele>609.79998779297</ele>
        <time>2023-08-02T07:13:22.000Z</time>
      </trkpt>
      <trkpt lat="43.73955" lon="7.08345">
        <ele>609.79998779297</ele>
        <time>2023-08-02T07:13:23.000Z</time>
      </trkpt>
      <trkpt lat="43.73955" lon="7.08345">
        <ele>609.79998779297</ele>
        <time>2023-08-02T07:13:24.000Z</time>
      </trkpt>
      <trkpt lat="43.73955" lon="7.08345">
        <ele>609.79998779297</ele>
        <time>2023-08-02T07:13:25.000Z</time>
      </trkpt>
      <trkpt lat="43.73955" lon="7.08345">
        <ele>609.79998779297</ele>
        <time>2023-08-02T07:13:26.000Z</time>
      </trkpt>
      <trkpt lat="43.73955" lon="7.08345">
        <ele>609.79998779297</ele>
        <time>2023-08-02T07:13:27.000Z</time>
      </trkpt>
      <trkpt lat="43.73955" lon="7.08345">
        <ele>609.79998779297</ele>
        <time>2023-08-02T07:13:28.000Z</time>
      </trkpt>
      <trkpt lat="43.73955" lon="7.08345">
        <ele>609.79998779297</ele>
        <time>2023-08-02T07:13:29.000Z</time>
      </trkpt>
      <trkpt lat="43.73955" lon="7.08345">
        <ele>609.79998779297</ele>
        <time>2023-08-02T07:13:30.000Z</time>
      </trkpt>
      <trkpt lat="43.73955" lon="7.08345">
        <ele>609.79998779297</ele>
        <time>2023-08-02T07:13:31.000Z</time>
      </trkpt>
      <trkpt lat="43.73955" lon="7.08345">
        <ele>609.79998779297</ele>
        <time>2023-08-02T07:13:32.000Z</time>
      </trkpt>
      <trkpt lat="43.73955" lon="7.08345">
        <ele>609.79998779297</ele>
        <time>2023-08-02T07:13:33.000Z</time>
      </trkpt>
      <trkpt lat="43.73954" lon="7.08345">
        <ele>609.79998779297</ele>
        <time>2023-08-02T07:13:34.000Z</time>
      </trkpt>
      <trkpt lat="43.73954" lon="7.08345">
        <ele>609.79998779297</ele>
        <time>2023-08-02T07:13:35.000Z</time>
      </trkpt>
      <trkpt lat="43.73954" lon="7.08345">
        <ele>609.79998779297</ele>
        <time>2023-08-02T07:13:36.000Z</time>
      </trkpt>
      <trkpt lat="43.73954" lon="7.08345">
        <ele>609.79998779297</ele>
        <time>2023-08-02T07:13:37.000Z</time>
      </trkpt>
      <trkpt lat="43.73954" lon="7.08345">
        <ele>609.79998779297</ele>
        <time>2023-08-02T07:13:38.000Z</time>
      </trkpt>
      <trkpt lat="43.73954" lon="7.08345">
        <ele>609.79998779297</ele>
        <time>2023-08-02T07:13:39.000Z</time>
      </trkpt>
      <trkpt lat="43.73954" lon="7.08345">
        <ele>609.79998779297</ele>
        <time>2023-08-02T07:13:40.000Z</time>
      </trkpt>
      <trkpt lat="43.73954" lon="7.08345">
        <ele>609.79998779297</ele>
        <time>2023-08-02T07:13:41.000Z</time>
      </trkpt>
      <trkpt lat="43.73954" lon="7.08345">
        <ele>609.79998779297</ele>
        <time>2023-08-02T07:13:42.000Z</time>
      </trkpt>
      <trkpt lat="43.73954" lon="7.08345">
        <ele>609.79998779297</ele>
        <time>2023-08-02T07:13:43.000Z</time>
      </trkpt>
      <trkpt lat="43.73954" lon="7.08345">
        <ele>609.79998779297</ele>
        <time>2023-08-02T07:13:44.000Z</time>
      </trkpt>
      <trkpt lat="43.73954" lon="7.08345">
        <ele>609.79998779297</ele>
        <time>2023-08-02T07:13:45.000Z</time>
      </trkpt>
      <trkpt lat="43.73954" lon="7.08345">
        <ele>609.79998779297</ele>
        <time>2023-08-02T07:13:46.000Z</time>
      </trkpt>
      <trkpt lat="43.73954" lon="7.08345">
        <ele>609.79998779297</ele>
        <time>2023-08-02T07:13:47.000Z</time>
      </trkpt>
      <trkpt lat="43.73954" lon="7.08345">
        <ele>609.79998779297</ele>
        <time>2023-08-02T07:13:48.000Z</time>
      </trkpt>
      <trkpt lat="43.73954" lon="7.08345">
        <ele>609.79998779297</ele>
        <time>2023-08-02T07:13:49.000Z</time>
      </trkpt>
      <trkpt lat="43.73954" lon="7.08345">
        <ele>609.79998779297</ele>
        <time>2023-08-02T07:13:50.000Z</time>
      </trkpt>
      <trkpt lat="43.73955" lon="7.08345">
        <ele>609.79998779297</ele>
        <time>2023-08-02T07:13:51.000Z</time>
      </trkpt>
      <trkpt lat="43.73954" lon="7.08345">
        <ele>609.79998779297</ele>
        <time>2023-08-02T07:13:52.000Z</time>
      </trkpt>
      <trkpt lat="43.73955" lon="7.08345">
        <ele>609.79998779297</ele>
        <time>2023-08-02T07:13:53.000Z</time>
      </trkpt>
      <trkpt lat="43.73955" lon="7.08345">
        <ele>609.79998779297</ele>
        <time>2023-08-02T07:13:54.000Z</time>
      </trkpt>
      <trkpt lat="43.73955" lon="7.08345">
        <ele>609.79998779297</ele>
        <time>2023-08-02T07:13:55.000Z</time>
      </trkpt>
      <trkpt lat="43.73955" lon="7.08345">
        <ele>609.79998779297</ele>
        <time>2023-08-02T07:13:56.000Z</time>
      </trkpt>
      <trkpt lat="43.73954" lon="7.08345">
        <ele>609.79998779297</ele>
        <time>2023-08-02T07:13:57.000Z</time>
      </trkpt>
      <trkpt lat="43.73954" lon="7.08345">
        <ele>609.79998779297</ele>
        <time>2023-08-02T07:13:58.000Z</time>
      </trkpt>
      <trkpt lat="43.73954" lon="7.08345">
        <ele>609.79998779297</ele>
        <time>2023-08-02T07:13:59.000Z</time>
      </trkpt>
      <trkpt lat="43.73954" lon="7.08345">
        <ele>609.79998779297</ele>
        <time>2023-08-02T07:14:00.000Z</time>
      </trkpt>
      <trkpt lat="43.73954" lon="7.08345">
        <ele>609.79998779297</ele>
        <time>2023-08-02T07:14:01.000Z</time>
      </trkpt>
      <trkpt lat="43.73954" lon="7.08345">
        <ele>609.79998779297</ele>
        <time>2023-08-02T07:14:02.000Z</time>
      </trkpt>
      <trkpt lat="43.73954" lon="7.08345">
        <ele>609.79998779297</ele>
        <time>2023-08-02T07:14:03.000Z</time>
      </trkpt>
      <trkpt lat="43.73954" lon="7.08345">
        <ele>609.79998779297</ele>
        <time>2023-08-02T07:14:04.000Z</time>
      </trkpt>
      <trkpt lat="43.73954" lon="7.08345">
        <ele>609.79998779297</ele>
        <time>2023-08-02T07:14:05.000Z</time>
      </trkpt>
      <trkpt lat="43.73954" lon="7.08345">
        <ele>609.79998779297</ele>
        <time>2023-08-02T07:14:06.000Z</time>
      </trkpt>
      <trkpt lat="43.73954" lon="7.08345">
        <ele>609.79998779297</ele>
        <time>2023-08-02T07:14:07.000Z</time>
      </trkpt>
      <trkpt lat="43.73954" lon="7.08345">
        <ele>609.79998779297</ele>
        <time>2023-08-02T07:14:08.000Z</time>
      </trkpt>
      <trkpt lat="43.73954" lon="7.08345">
        <ele>609.79998779297</ele>
        <time>2023-08-02T07:14:09.000Z</time>
      </trkpt>
      <trkpt lat="43.73954" lon="7.08345">
        <ele>609.79998779297</ele>
        <time>2023-08-02T07:14:10.000Z</time>
      </trkpt>
      <trkpt lat="43.73954" lon="7.08344">
        <ele>609.79998779297</ele>
        <time>2023-08-02T07:14:11.000Z</time>
      </trkpt>
      <trkpt lat="43.73954" lon="7.08344">
        <ele>609.79998779297</ele>
        <time>2023-08-02T07:14:12.000Z</time>
      </trkpt>
      <trkpt lat="43.73954" lon="7.08344">
        <ele>609.79998779297</ele>
        <time>2023-08-02T07:14:13.000Z</time>
      </trkpt>
      <trkpt lat="43.73954" lon="7.08344">
        <ele>609.79998779297</ele>
        <time>2023-08-02T07:14:14.000Z</time>
      </trkpt>
      <trkpt lat="43.73954" lon="7.08344">
        <ele>609.79998779297</ele>
        <time>2023-08-02T07:14:15.000Z</time>
      </trkpt>
      <trkpt lat="43.73954" lon="7.08344">
        <ele>609.79998779297</ele>
        <time>2023-08-02T07:14:16.000Z</time>
      </trkpt>
      <trkpt lat="43.73954" lon="7.08344">
        <ele>609.79998779297</ele>
        <time>2023-08-02T07:14:17.000Z</time>
      </trkpt>
      <trkpt lat="43.73954" lon="7.08344">
        <ele>609.79998779297</ele>
        <time>2023-08-02T07:14:18.000Z</time>
      </trkpt>
      <trkpt lat="43.73954" lon="7.08344">
        <ele>609.79998779297</ele>
        <time>2023-08-02T07:14:19.000Z</time>
      </trkpt>
      <trkpt lat="43.73954" lon="7.08343">
        <ele>609.79998779297</ele>
        <time>2023-08-02T07:14:20.000Z</time>
      </trkpt>
      <trkpt lat="43.73955" lon="7.08342">
        <ele>609.79998779297</ele>
        <time>2023-08-02T07:14:21.000Z</time>
      </trkpt>
      <trkpt lat="43.73956" lon="7.08342">
        <ele>609.79998779297</ele>
        <time>2023-08-02T07:14:22.000Z</time>
      </trkpt>
      <trkpt lat="43.73957" lon="7.08341">
        <ele>609.79998779297</ele>
        <time>2023-08-02T07:14:23.000Z</time>
      </trkpt>
      <trkpt lat="43.73959" lon="7.08339">
        <ele>609.79998779297</ele>
        <time>2023-08-02T07:14:24.000Z</time>
      </trkpt>
      <trkpt lat="43.73962" lon="7.08338">
        <ele>609.79998779297</ele>
        <time>2023-08-02T07:14:25.000Z</time>
      </trkpt>
      <trkpt lat="43.73964" lon="7.08338">
        <ele>609.79998779297</ele>
        <time>2023-08-02T07:14:26.000Z</time>
      </trkpt>
      <trkpt lat="43.73967" lon="7.08337">
        <ele>609.79998779297</ele>
        <time>2023-08-02T07:14:27.000Z</time>
      </trkpt>
      <trkpt lat="43.7397" lon="7.08337">
        <ele>609.40002441406</ele>
        <time>2023-08-02T07:14:28.000Z</time>
      </trkpt>
      <trkpt lat="43.73972" lon="7.08337">
        <ele>609.40002441406</ele>
        <time>2023-08-02T07:14:29.000Z</time>
      </trkpt>
      <trkpt lat="43.73974" lon="7.08336">
        <ele>609.40002441406</ele>
        <time>2023-08-02T07:14:30.000Z</time>
      </trkpt>
      <trkpt lat="43.73975" lon="7.08334">
        <ele>609.40002441406</ele>
        <time>2023-08-02T07:14:31.000Z</time>
      </trkpt>
      <trkpt lat="43.73975" lon="7.08332">
        <ele>609.59997558594</ele>
        <time>2023-08-02T07:14:32.000Z</time>
      </trkpt>
      <trkpt lat="43.73976" lon="7.08329">
        <ele>609.79998779297</ele>
        <time>2023-08-02T07:14:33.000Z</time>
      </trkpt>
      <trkpt lat="43.73978" lon="7.08325">
        <ele>610.20001220703</ele>
        <time>2023-08-02T07:14:34.000Z</time>
      </trkpt>
      <trkpt lat="43.73979" lon="7.08322">
        <ele>610.20001220703</ele>
        <time>2023-08-02T07:14:35.000Z</time>
      </trkpt>
      <trkpt lat="43.73981" lon="7.08319">
        <ele>610.20001220703</ele>
        <time>2023-08-02T07:14:36.000Z</time>
      </trkpt>
      <trkpt lat="43.73982" lon="7.08316">
        <ele>610.20001220703</ele>
        <time>2023-08-02T07:14:37.000Z</time>
      </trkpt>
      <trkpt lat="43.73984" lon="7.08314">
        <ele>610.20001220703</ele>
        <time>2023-08-02T07:14:38.000Z</time>
      </trkpt>
      <trkpt lat="43.73985" lon="7.08311">
        <ele>610.20001220703</ele>
        <time>2023-08-02T07:14:39.000Z</time>
      </trkpt>
      <trkpt lat="43.73986" lon="7.08309">
        <ele>610.20001220703</ele>
        <time>2023-08-02T07:14:40.000Z</time>
      </trkpt>
      <trkpt lat="43.73987" lon="7.08306">
        <ele>610.20001220703</ele>
        <time>2023-08-02T07:14:41.000Z</time>
      </trkpt>
      <trkpt lat="43.73988" lon="7.08304">
        <ele>610.20001220703</ele>
        <time>2023-08-02T07:14:42.000Z</time>
      </trkpt>
      <trkpt lat="43.73989" lon="7.08301">
        <ele>610.20001220703</ele>
        <time>2023-08-02T07:14:43.000Z</time>
      </trkpt>
      <trkpt lat="43.73991" lon="7.08299">
        <ele>610.20001220703</ele>
        <time>2023-08-02T07:14:44.000Z</time>
      </trkpt>
      <trkpt lat="43.73993" lon="7.08298">
        <ele>610.20001220703</ele>
        <time>2023-08-02T07:14:45.000Z</time>
      </trkpt>
      <trkpt lat="43.73994" lon="7.08295">
        <ele>610.20001220703</ele>
        <time>2023-08-02T07:14:46.000Z</time>
      </trkpt>
      <trkpt lat="43.73996" lon="7.08293">
        <ele>610.20001220703</ele>
        <time>2023-08-02T07:14:47.000Z</time>
      </trkpt>
      <trkpt lat="43.73998" lon="7.08292">
        <ele>610.20001220703</ele>
        <time>2023-08-02T07:14:48.000Z</time>
      </trkpt>
      <trkpt lat="43.74" lon="7.0829">
        <ele>610.40002441406</ele>
        <time>2023-08-02T07:14:49.000Z</time>
      </trkpt>
      <trkpt lat="43.74002" lon="7.08289">
        <ele>610.40002441406</ele>
        <time>2023-08-02T07:14:50.000Z</time>
      </trkpt>
      <trkpt lat="43.74004" lon="7.08288">
        <ele>610.59997558594</ele>
        <time>2023-08-02T07:14:51.000Z</time>
      </trkpt>
      <trkpt lat="43.74007" lon="7.08287">
        <ele>610.59997558594</ele>
        <time>2023-08-02T07:14:52.000Z</time>
      </trkpt>
      <trkpt lat="43.74009" lon="7.08285">
        <ele>610.59997558594</ele>
        <time>2023-08-02T07:14:53.000Z</time>
      </trkpt>
      <trkpt lat="43.74011" lon="7.08283">
        <ele>611</ele>
        <time>2023-08-02T07:14:54.000Z</time>
      </trkpt>
      <trkpt lat="43.74012" lon="7.08281">
        <ele>611.20001220703</ele>
        <time>2023-08-02T07:14:55.000Z</time>
      </trkpt>
      <trkpt lat="43.74013" lon="7.0828">
        <ele>611.20001220703</ele>
        <time>2023-08-02T07:14:56.000Z</time>
      </trkpt>
      <trkpt lat="43.74015" lon="7.08278">
        <ele>611.59997558594</ele>
        <time>2023-08-02T07:14:57.000Z</time>
      </trkpt>
      <trkpt lat="43.74016" lon="7.08275">
        <ele>611.59997558594</ele>
        <time>2023-08-02T07:14:58.000Z</time>
      </trkpt>
      <trkpt lat="43.74018" lon="7.08274">
        <ele>612.20001220703</ele>
        <time>2023-08-02T07:14:59.000Z</time>
      </trkpt>
      <trkpt lat="43.7402" lon="7.08272">
        <ele>612.40002441406</ele>
        <time>2023-08-02T07:15:00.000Z</time>
      </trkpt>
      <trkpt lat="43.74023" lon="7.08271">
        <ele>612.79998779297</ele>
        <time>2023-08-02T07:15:01.000Z</time>
      </trkpt>
      <trkpt lat="43.74025" lon="7.08269">
        <ele>612.79998779297</ele>
        <time>2023-08-02T07:15:02.000Z</time>
      </trkpt>
      <trkpt lat="43.74027" lon="7.08268">
        <ele>613.20001220703</ele>
        <time>2023-08-02T07:15:03.000Z</time>
      </trkpt>
      <trkpt lat="43.74029" lon="7.08266">
        <ele>613.40002441406</ele>
        <time>2023-08-02T07:15:04.000Z</time>
      </trkpt>
      <trkpt lat="43.74031" lon="7.08264">
        <ele>613.59997558594</ele>
        <time>2023-08-02T07:15:05.000Z</time>
      </trkpt>
      <trkpt lat="43.74032" lon="7.08261">
        <ele>614</ele>
        <time>2023-08-02T07:15:06.000Z</time>
      </trkpt>
      <trkpt lat="43.74034" lon="7.08259">
        <ele>614.40002441406</ele>
        <time>2023-08-02T07:15:07.000Z</time>
      </trkpt>
      <trkpt lat="43.74036" lon="7.08257">
        <ele>614.59997558594</ele>
        <time>2023-08-02T07:15:08.000Z</time>
      </trkpt>
      <trkpt lat="43.74037" lon="7.08255">
        <ele>615.20001220703</ele>
        <time>2023-08-02T07:15:09.000Z</time>
      </trkpt>
      <trkpt lat="43.74039" lon="7.08253">
        <ele>615.40002441406</ele>
        <time>2023-08-02T07:15:10.000Z</time>
      </trkpt>
      <trkpt lat="43.74041" lon="7.0825">
        <ele>615.59997558594</ele>
        <time>2023-08-02T07:15:11.000Z</time>
      </trkpt>
      <trkpt lat="43.74043" lon="7.08248">
        <ele>615.59997558594</ele>
        <time>2023-08-02T07:15:12.000Z</time>
      </trkpt>
      <trkpt lat="43.74045" lon="7.08246">
        <ele>616</ele>
        <time>2023-08-02T07:15:13.000Z</time>
      </trkpt>
      <trkpt lat="43.74046" lon="7.08244">
        <ele>616</ele>
        <time>2023-08-02T07:15:14.000Z</time>
      </trkpt>
      <trkpt lat="43.74048" lon="7.08242">
        <ele>616.40002441406</ele>
        <time>2023-08-02T07:15:15.000Z</time>
      </trkpt>
      <trkpt lat="43.74051" lon="7.08241">
        <ele>616.59997558594</ele>
        <time>2023-08-02T07:15:16.000Z</time>
      </trkpt>
      <trkpt lat="43.74053" lon="7.08239">
        <ele>616.59997558594</ele>
        <time>2023-08-02T07:15:17.000Z</time>
      </trkpt>
      <trkpt lat="43.74054" lon="7.08238">
        <ele>617.20001220703</ele>
        <time>2023-08-02T07:15:18.000Z</time>
      </trkpt>
      <trkpt lat="43.74056" lon="7.08236">
        <ele>617.40002441406</ele>
        <time>2023-08-02T07:15:19.000Z</time>
      </trkpt>
      <trkpt lat="43.74058" lon="7.08234">
        <ele>617.40002441406</ele>
        <time>2023-08-02T07:15:20.000Z</time>
      </trkpt>
      <trkpt lat="43.7406" lon="7.08232">
        <ele>617.79998779297</ele>
        <time>2023-08-02T07:15:21.000Z</time>
      </trkpt>
      <trkpt lat="43.74062" lon="7.0823">
        <ele>617.79998779297</ele>
        <time>2023-08-02T07:15:22.000Z</time>
      </trkpt>
      <trkpt lat="43.74063" lon="7.08227">
        <ele>618.20001220703</ele>
        <time>2023-08-02T07:15:23.000Z</time>
      </trkpt>
      <trkpt lat="43.74064" lon="7.08224">
        <ele>618.79998779297</ele>
        <time>2023-08-02T07:15:24.000Z</time>
      </trkpt>
      <trkpt lat="43.74067" lon="7.08222">
        <ele>618.79998779297</ele>
        <time>2023-08-02T07:15:25.000Z</time>
      </trkpt>
      <trkpt lat="43.74069" lon="7.08221">
        <ele>619.20001220703</ele>
        <time>2023-08-02T07:15:26.000Z</time>
      </trkpt>
      <trkpt lat="43.74071" lon="7.08219">
        <ele>619.40002441406</ele>
        <time>2023-08-02T07:15:27.000Z</time>
      </trkpt>
      <trkpt lat="43.74073" lon="7.08219">
        <ele>619.59997558594</ele>
        <time>2023-08-02T07:15:28.000Z</time>
      </trkpt>
      <trkpt lat="43.74076" lon="7.08218">
        <ele>620</ele>
        <time>2023-08-02T07:15:29.000Z</time>
      </trkpt>
      <trkpt lat="43.74078" lon="7.08217">
        <ele>620</ele>
        <time>2023-08-02T07:15:30.000Z</time>
      </trkpt>
      <trkpt lat="43.7408" lon="7.08215">
        <ele>620.79998779297</ele>
        <time>2023-08-02T07:15:31.000Z</time>
      </trkpt>
      <trkpt lat="43.74082" lon="7.08214">
        <ele>620.79998779297</ele>
        <time>2023-08-02T07:15:32.000Z</time>
      </trkpt>
      <trkpt lat="43.74084" lon="7.08212">
        <ele>621</ele>
        <time>2023-08-02T07:15:33.000Z</time>
      </trkpt>
      <trkpt lat="43.74086" lon="7.0821">
        <ele>621.20001220703</ele>
        <time>2023-08-02T07:15:34.000Z</time>
      </trkpt>
      <trkpt lat="43.74088" lon="7.08207">
        <ele>621.40002441406</ele>
        <time>2023-08-02T07:15:35.000Z</time>
      </trkpt>
      <trkpt lat="43.7409" lon="7.08205">
        <ele>621.40002441406</ele>
        <time>2023-08-02T07:15:36.000Z</time>
      </trkpt>
      <trkpt lat="43.74092" lon="7.08203">
        <ele>621.79998779297</ele>
        <time>2023-08-02T07:15:37.000Z</time>
      </trkpt>
      <trkpt lat="43.74093" lon="7.082">
        <ele>621.79998779297</ele>
        <time>2023-08-02T07:15:38.000Z</time>
      </trkpt>
      <trkpt lat="43.74095" lon="7.08197">
        <ele>622.20001220703</ele>
        <time>2023-08-02T07:15:39.000Z</time>
      </trkpt>
      <trkpt lat="43.74096" lon="7.08194">
        <ele>622.40002441406</ele>
        <time>2023-08-02T07:15:40.000Z</time>
      </trkpt>
      <trkpt lat="43.74098" lon="7.08191">
        <ele>622.40002441406</ele>
        <time>2023-08-02T07:15:41.000Z</time>
      </trkpt>
      <trkpt lat="43.741" lon="7.08189">
        <ele>622.79998779297</ele>
        <time>2023-08-02T07:15:42.000Z</time>
      </trkpt>
      <trkpt lat="43.74102" lon="7.08187">
        <ele>622.79998779297</ele>
        <time>2023-08-02T07:15:43.000Z</time>
      </trkpt>
      <trkpt lat="43.74104" lon="7.08185">
        <ele>623</ele>
        <time>2023-08-02T07:15:44.000Z</time>
      </trkpt>
      <trkpt lat="43.74106" lon="7.08182">
        <ele>623.20001220703</ele>
        <time>2023-08-02T07:15:45.000Z</time>
      </trkpt>
      <trkpt lat="43.74107" lon="7.08179">
        <ele>623.40002441406</ele>
        <time>2023-08-02T07:15:46.000Z</time>
      </trkpt>
      <trkpt lat="43.74109" lon="7.08177">
        <ele>623.40002441406</ele>
        <time>2023-08-02T07:15:47.000Z</time>
      </trkpt>
      <trkpt lat="43.74111" lon="7.08174">
        <ele>623.59997558594</ele>
        <time>2023-08-02T07:15:48.000Z</time>
      </trkpt>
      <trkpt lat="43.74113" lon="7.08171">
        <ele>623.79998779297</ele>
        <time>2023-08-02T07:15:49.000Z</time>
      </trkpt>
      <trkpt lat="43.74115" lon="7.08169">
        <ele>624</ele>
        <time>2023-08-02T07:15:50.000Z</time>
      </trkpt>
      <trkpt lat="43.74116" lon="7.08166">
        <ele>624.20001220703</ele>
        <time>2023-08-02T07:15:51.000Z</time>
      </trkpt>
      <trkpt lat="43.74118" lon="7.08163">
        <ele>624.59997558594</ele>
        <time>2023-08-02T07:15:52.000Z</time>
      </trkpt>
      <trkpt lat="43.74119" lon="7.08159">
        <ele>624.79998779297</ele>
        <time>2023-08-02T07:15:53.000Z</time>
      </trkpt>
      <trkpt lat="43.74121" lon="7.08157">
        <ele>624.79998779297</ele>
        <time>2023-08-02T07:15:54.000Z</time>
      </trkpt>
      <trkpt lat="43.74122" lon="7.08154">
        <ele>625.20001220703</ele>
        <time>2023-08-02T07:15:55.000Z</time>
      </trkpt>
      <trkpt lat="43.74124" lon="7.08151">
        <ele>625.20001220703</ele>
        <time>2023-08-02T07:15:56.000Z</time>
      </trkpt>
      <trkpt lat="43.74126" lon="7.08148">
        <ele>625.40002441406</ele>
        <time>2023-08-02T07:15:57.000Z</time>
      </trkpt>
      <trkpt lat="43.74128" lon="7.08147">
        <ele>625.40002441406</ele>
        <time>2023-08-02T07:15:58.000Z</time>
      </trkpt>
      <trkpt lat="43.7413" lon="7.08146">
        <ele>625.40002441406</ele>
        <time>2023-08-02T07:15:59.000Z</time>
      </trkpt>
      <trkpt lat="43.74133" lon="7.08145">
        <ele>625.40002441406</ele>
        <time>2023-08-02T07:16:00.000Z</time>
      </trkpt>
      <trkpt lat="43.74135" lon="7.08144">
        <ele>625.59997558594</ele>
        <time>2023-08-02T07:16:01.000Z</time>
      </trkpt>
      <trkpt lat="43.74138" lon="7.08143">
        <ele>625.59997558594</ele>
        <time>2023-08-02T07:16:02.000Z</time>
      </trkpt>
      <trkpt lat="43.7414" lon="7.08143">
        <ele>626</ele>
        <time>2023-08-02T07:16:03.000Z</time>
      </trkpt>
      <trkpt lat="43.74143" lon="7.08143">
        <ele>626.20001220703</ele>
        <time>2023-08-02T07:16:04.000Z</time>
      </trkpt>
      <trkpt lat="43.74145" lon="7.08143">
        <ele>626.40002441406</ele>
        <time>2023-08-02T07:16:05.000Z</time>
      </trkpt>
      <trkpt lat="43.74148" lon="7.08143">
        <ele>626.79998779297</ele>
        <time>2023-08-02T07:16:06.000Z</time>
      </trkpt>
      <trkpt lat="43.7415" lon="7.08143">
        <ele>626.79998779297</ele>
        <time>2023-08-02T07:16:07.000Z</time>
      </trkpt>
      <trkpt lat="43.74152" lon="7.08144">
        <ele>627.20001220703</ele>
        <time>2023-08-02T07:16:08.000Z</time>
      </trkpt>
      <trkpt lat="43.74155" lon="7.08143">
        <ele>627.20001220703</ele>
        <time>2023-08-02T07:16:09.000Z</time>
      </trkpt>
      <trkpt lat="43.74157" lon="7.08141">
        <ele>627.40002441406</ele>
        <time>2023-08-02T07:16:10.000Z</time>
      </trkpt>
      <trkpt lat="43.74159" lon="7.08139">
        <ele>627.59997558594</ele>
        <time>2023-08-02T07:16:11.000Z</time>
      </trkpt>
      <trkpt lat="43.74161" lon="7.08136">
        <ele>627.59997558594</ele>
        <time>2023-08-02T07:16:12.000Z</time>
      </trkpt>
      <trkpt lat="43.74164" lon="7.08133">
        <ele>627.59997558594</ele>
        <time>2023-08-02T07:16:13.000Z</time>
      </trkpt>
      <trkpt lat="43.74166" lon="7.08131">
        <ele>627.59997558594</ele>
        <time>2023-08-02T07:16:14.000Z</time>
      </trkpt>
      <trkpt lat="43.74167" lon="7.08128">
        <ele>627.79998779297</ele>
        <time>2023-08-02T07:16:15.000Z</time>
      </trkpt>
      <trkpt lat="43.74168" lon="7.08125">
        <ele>628</ele>
        <time>2023-08-02T07:16:16.000Z</time>
      </trkpt>
      <trkpt lat="43.74169" lon="7.08123">
        <ele>628.20001220703</ele>
        <time>2023-08-02T07:16:17.000Z</time>
      </trkpt>
      <trkpt lat="43.74171" lon="7.08121">
        <ele>628.59997558594</ele>
        <time>2023-08-02T07:16:18.000Z</time>
      </trkpt>
      <trkpt lat="43.74173" lon="7.08119">
        <ele>629</ele>
        <time>2023-08-02T07:16:19.000Z</time>
      </trkpt>
      <trkpt lat="43.74174" lon="7.08117">
        <ele>629.40002441406</ele>
        <time>2023-08-02T07:16:20.000Z</time>
      </trkpt>
      <trkpt lat="43.74175" lon="7.08115">
        <ele>629.79998779297</ele>
        <time>2023-08-02T07:16:21.000Z</time>
      </trkpt>
      <trkpt lat="43.74177" lon="7.08113">
        <ele>630.20001220703</ele>
        <time>2023-08-02T07:16:22.000Z</time>
      </trkpt>
      <trkpt lat="43.74178" lon="7.08113">
        <ele>630.59997558594</ele>
        <time>2023-08-02T07:16:23.000Z</time>
      </trkpt>
      <trkpt lat="43.74179" lon="7.08112">
        <ele>630.59997558594</ele>
        <time>2023-08-02T07:16:24.000Z</time>
      </trkpt>
      <trkpt lat="43.7418" lon="7.0811">
        <ele>630.59997558594</ele>
        <time>2023-08-02T07:16:25.000Z</time>
      </trkpt>
      <trkpt lat="43.74181" lon="7.08108">
        <ele>630.59997558594</ele>
        <time>2023-08-02T07:16:26.000Z</time>
      </trkpt>
      <trkpt lat="43.74181" lon="7.08104">
        <ele>630.59997558594</ele>
        <time>2023-08-02T07:16:27.000Z</time>
      </trkpt>
      <trkpt lat="43.74182" lon="7.08099">
        <ele>630.59997558594</ele>
        <time>2023-08-02T07:16:28.000Z</time>
      </trkpt>
      <trkpt lat="43.74184" lon="7.08097">
        <ele>630.59997558594</ele>
        <time>2023-08-02T07:16:29.000Z</time>
      </trkpt>
      <trkpt lat="43.74187" lon="7.08095">
        <ele>630.40002441406</ele>
        <time>2023-08-02T07:16:30.000Z</time>
      </trkpt>
      <trkpt lat="43.74189" lon="7.08094">
        <ele>630</ele>
        <time>2023-08-02T07:16:31.000Z</time>
      </trkpt>
      <trkpt lat="43.74191" lon="7.08092">
        <ele>629.40002441406</ele>
        <time>2023-08-02T07:16:32.000Z</time>
      </trkpt>
      <trkpt lat="43.74192" lon="7.08091">
        <ele>629.40002441406</ele>
        <time>2023-08-02T07:16:33.000Z</time>
      </trkpt>
      <trkpt lat="43.74193" lon="7.08091">
        <ele>629.40002441406</ele>
        <time>2023-08-02T07:16:34.000Z</time>
      </trkpt>
      <trkpt lat="43.74193" lon="7.08091">
        <ele>629.40002441406</ele>
        <time>2023-08-02T07:16:35.000Z</time>
      </trkpt>
      <trkpt lat="43.74193" lon="7.08091">
        <ele>629.59997558594</ele>
        <time>2023-08-02T07:16:36.000Z</time>
      </trkpt>
      <trkpt lat="43.74193" lon="7.08091">
        <ele>629.79998779297</ele>
        <time>2023-08-02T07:16:37.000Z</time>
      </trkpt>
      <trkpt lat="43.74193" lon="7.08091">
        <ele>630</ele>
        <time>2023-08-02T07:16:38.000Z</time>
      </trkpt>
      <trkpt lat="43.74193" lon="7.08091">
        <ele>630</ele>
        <time>2023-08-02T07:16:39.000Z</time>
      </trkpt>
      <trkpt lat="43.74193" lon="7.08091">
        <ele>630.20001220703</ele>
        <time>2023-08-02T07:16:40.000Z</time>
      </trkpt>
      <trkpt lat="43.74193" lon="7.08091">
        <ele>630.20001220703</ele>
        <time>2023-08-02T07:16:41.000Z</time>
      </trkpt>
      <trkpt lat="43.74193" lon="7.08091">
        <ele>630.20001220703</ele>
        <time>2023-08-02T07:16:42.000Z</time>
      </trkpt>
      <trkpt lat="43.74193" lon="7.08091">
        <ele>630.20001220703</ele>
        <time>2023-08-02T07:16:43.000Z</time>
      </trkpt>
      <trkpt lat="43.74193" lon="7.08091">
        <ele>630.20001220703</ele>
        <time>2023-08-02T07:16:44.000Z</time>
      </trkpt>
      <trkpt lat="43.74193" lon="7.08091">
        <ele>630.20001220703</ele>
        <time>2023-08-02T07:16:45.000Z</time>
      </trkpt>
      <trkpt lat="43.74193" lon="7.08091">
        <ele>630.20001220703</ele>
        <time>2023-08-02T07:16:46.000Z</time>
      </trkpt>
      <trkpt lat="43.74193" lon="7.08091">
        <ele>630.20001220703</ele>
        <time>2023-08-02T07:16:47.000Z</time>
      </trkpt>
      <trkpt lat="43.74193" lon="7.08091">
        <ele>630.20001220703</ele>
        <time>2023-08-02T07:16:48.000Z</time>
      </trkpt>
      <trkpt lat="43.74193" lon="7.08091">
        <ele>630.20001220703</ele>
        <time>2023-08-02T07:16:49.000Z</time>
      </trkpt>
      <trkpt lat="43.74193" lon="7.08091">
        <ele>630.20001220703</ele>
        <time>2023-08-02T07:16:50.000Z</time>
      </trkpt>
      <trkpt lat="43.74193" lon="7.08091">
        <ele>630.20001220703</ele>
        <time>2023-08-02T07:16:51.000Z</time>
      </trkpt>
      <trkpt lat="43.74193" lon="7.08091">
        <ele>630.20001220703</ele>
        <time>2023-08-02T07:16:52.000Z</time>
      </trkpt>
      <trkpt lat="43.74193" lon="7.08091">
        <ele>630.40002441406</ele>
        <time>2023-08-02T07:16:53.000Z</time>
      </trkpt>
      <trkpt lat="43.74193" lon="7.08091">
        <ele>630.40002441406</ele>
        <time>2023-08-02T07:16:54.000Z</time>
      </trkpt>
      <trkpt lat="43.74193" lon="7.08091">
        <ele>630.40002441406</ele>
        <time>2023-08-02T07:16:55.000Z</time>
      </trkpt>
      <trkpt lat="43.74193" lon="7.08091">
        <ele>630.40002441406</ele>
        <time>2023-08-02T07:16:56.000Z</time>
      </trkpt>
      <trkpt lat="43.74193" lon="7.08091">
        <ele>630</ele>
        <time>2023-08-02T07:16:57.000Z</time>
      </trkpt>
      <trkpt lat="43.74193" lon="7.08091">
        <ele>630</ele>
        <time>2023-08-02T07:16:58.000Z</time>
      </trkpt>
      <trkpt lat="43.74193" lon="7.08091">
        <ele>630</ele>
        <time>2023-08-02T07:16:59.000Z</time>
      </trkpt>
      <trkpt lat="43.74193" lon="7.08091">
        <ele>630</ele>
        <time>2023-08-02T07:17:00.000Z</time>
      </trkpt>
      <trkpt lat="43.74193" lon="7.08091">
        <ele>630</ele>
        <time>2023-08-02T07:17:01.000Z</time>
      </trkpt>
      <trkpt lat="43.74193" lon="7.08091">
        <ele>630</ele>
        <time>2023-08-02T07:17:02.000Z</time>
      </trkpt>
      <trkpt lat="43.74193" lon="7.08091">
        <ele>630</ele>
        <time>2023-08-02T07:17:03.000Z</time>
      </trkpt>
      <trkpt lat="43.74193" lon="7.08091">
        <ele>630</ele>
        <time>2023-08-02T07:17:04.000Z</time>
      </trkpt>
      <trkpt lat="43.74193" lon="7.08091">
        <ele>630</ele>
        <time>2023-08-02T07:17:05.000Z</time>
      </trkpt>
      <trkpt lat="43.74193" lon="7.08091">
        <ele>630</ele>
        <time>2023-08-02T07:17:06.000Z</time>
      </trkpt>
      <trkpt lat="43.74193" lon="7.08091">
        <ele>630</ele>
        <time>2023-08-02T07:17:07.000Z</time>
      </trkpt>
      <trkpt lat="43.74193" lon="7.08091">
        <ele>630</ele>
        <time>2023-08-02T07:17:08.000Z</time>
      </trkpt>
      <trkpt lat="43.74193" lon="7.08091">
        <ele>630</ele>
        <time>2023-08-02T07:17:09.000Z</time>
      </trkpt>
      <trkpt lat="43.74193" lon="7.08091">
        <ele>630</ele>
        <time>2023-08-02T07:17:10.000Z</time>
      </trkpt>
      <trkpt lat="43.74193" lon="7.08091">
        <ele>630</ele>
        <time>2023-08-02T07:17:11.000Z</time>
      </trkpt>
      <trkpt lat="43.74193" lon="7.08091">
        <ele>630</ele>
        <time>2023-08-02T07:17:12.000Z</time>
      </trkpt>
      <trkpt lat="43.74193" lon="7.08091">
        <ele>630</ele>
        <time>2023-08-02T07:17:13.000Z</time>
      </trkpt>
      <trkpt lat="43.74193" lon="7.08091">
        <ele>630</ele>
        <time>2023-08-02T07:17:14.000Z</time>
      </trkpt>
      <trkpt lat="43.74193" lon="7.08091">
        <ele>630</ele>
        <time>2023-08-02T07:17:15.000Z</time>
      </trkpt>
      <trkpt lat="43.74193" lon="7.08091">
        <ele>630</ele>
        <time>2023-08-02T07:17:16.000Z</time>
      </trkpt>
      <trkpt lat="43.74193" lon="7.08091">
        <ele>630</ele>
        <time>2023-08-02T07:17:17.000Z</time>
      </trkpt>
      <trkpt lat="43.74193" lon="7.08091">
        <ele>630</ele>
        <time>2023-08-02T07:17:18.000Z</time>
      </trkpt>
      <trkpt lat="43.74193" lon="7.08091">
        <ele>630</ele>
        <time>2023-08-02T07:17:19.000Z</time>
      </trkpt>
      <trkpt lat="43.74193" lon="7.08091">
        <ele>630.20001220703</ele>
        <time>2023-08-02T07:17:20.000Z</time>
      </trkpt>
      <trkpt lat="43.74193" lon="7.08091">
        <ele>630.20001220703</ele>
        <time>2023-08-02T07:17:21.000Z</time>
      </trkpt>
      <trkpt lat="43.74193" lon="7.08091">
        <ele>630.20001220703</ele>
        <time>2023-08-02T07:17:22.000Z</time>
      </trkpt>
      <trkpt lat="43.74193" lon="7.08091">
        <ele>630.20001220703</ele>
        <time>2023-08-02T07:17:23.000Z</time>
      </trkpt>
      <trkpt lat="43.74193" lon="7.08091">
        <ele>630.20001220703</ele>
        <time>2023-08-02T07:17:24.000Z</time>
      </trkpt>
      <trkpt lat="43.74193" lon="7.08091">
        <ele>630.20001220703</ele>
        <time>2023-08-02T07:17:25.000Z</time>
      </trkpt>
      <trkpt lat="43.74193" lon="7.08091">
        <ele>630.20001220703</ele>
        <time>2023-08-02T07:17:26.000Z</time>
      </trkpt>
      <trkpt lat="43.74193" lon="7.08091">
        <ele>630.20001220703</ele>
        <time>2023-08-02T07:17:27.000Z</time>
      </trkpt>
      <trkpt lat="43.74193" lon="7.08091">
        <ele>630.20001220703</ele>
        <time>2023-08-02T07:17:28.000Z</time>
      </trkpt>
      <trkpt lat="43.74193" lon="7.08091">
        <ele>630.20001220703</ele>
        <time>2023-08-02T07:17:29.000Z</time>
      </trkpt>
      <trkpt lat="43.74193" lon="7.08091">
        <ele>630.20001220703</ele>
        <time>2023-08-02T07:17:30.000Z</time>
      </trkpt>
      <trkpt lat="43.74193" lon="7.08091">
        <ele>630.20001220703</ele>
        <time>2023-08-02T07:17:31.000Z</time>
      </trkpt>
      <trkpt lat="43.74193" lon="7.08091">
        <ele>630.20001220703</ele>
        <time>2023-08-02T07:17:32.000Z</time>
      </trkpt>
      <trkpt lat="43.74193" lon="7.08091">
        <ele>630.20001220703</ele>
        <time>2023-08-02T07:17:33.000Z</time>
      </trkpt>
      <trkpt lat="43.74193" lon="7.08091">
        <ele>630.20001220703</ele>
        <time>2023-08-02T07:17:34.000Z</time>
      </trkpt>
      <trkpt lat="43.74193" lon="7.08091">
        <ele>630.20001220703</ele>
        <time>2023-08-02T07:17:35.000Z</time>
      </trkpt>
      <trkpt lat="43.74193" lon="7.08091">
        <ele>630.20001220703</ele>
        <time>2023-08-02T07:17:36.000Z</time>
      </trkpt>
      <trkpt lat="43.74193" lon="7.08091">
        <ele>630.20001220703</ele>
        <time>2023-08-02T07:17:37.000Z</time>
      </trkpt>
      <trkpt lat="43.74193" lon="7.08091">
        <ele>630.40002441406</ele>
        <time>2023-08-02T07:17:38.000Z</time>
      </trkpt>
      <trkpt lat="43.74193" lon="7.08091">
        <ele>630.40002441406</ele>
        <time>2023-08-02T07:17:39.000Z</time>
      </trkpt>
      <trkpt lat="43.74194" lon="7.0809">
        <ele>630.20001220703</ele>
        <time>2023-08-02T07:17:40.000Z</time>
      </trkpt>
      <trkpt lat="43.74196" lon="7.0809">
        <ele>630.20001220703</ele>
        <time>2023-08-02T07:17:41.000Z</time>
      </trkpt>
      <trkpt lat="43.74198" lon="7.08089">
        <ele>630.40002441406</ele>
        <time>2023-08-02T07:17:42.000Z</time>
      </trkpt>
      <trkpt lat="43.74199" lon="7.08087">
        <ele>630.40002441406</ele>
        <time>2023-08-02T07:17:43.000Z</time>
      </trkpt>
      <trkpt lat="43.74201" lon="7.08085">
        <ele>630.40002441406</ele>
        <time>2023-08-02T07:17:44.000Z</time>
      </trkpt>
      <trkpt lat="43.74202" lon="7.08083">
        <ele>630.59997558594</ele>
        <time>2023-08-02T07:17:45.000Z</time>
      </trkpt>
      <trkpt lat="43.74204" lon="7.08081">
        <ele>630.59997558594</ele>
        <time>2023-08-02T07:17:46.000Z</time>
      </trkpt>
      <trkpt lat="43.74205" lon="7.0808">
        <ele>631.20001220703</ele>
        <time>2023-08-02T07:17:47.000Z</time>
      </trkpt>
      <trkpt lat="43.74208" lon="7.08079">
        <ele>631.40002441406</ele>
        <time>2023-08-02T07:17:48.000Z</time>
      </trkpt>
      <trkpt lat="43.7421" lon="7.08078">
        <ele>632</ele>
        <time>2023-08-02T07:17:49.000Z</time>
      </trkpt>
      <trkpt lat="43.74213" lon="7.08076">
        <ele>632.40002441406</ele>
        <time>2023-08-02T07:17:50.000Z</time>
      </trkpt>
      <trkpt lat="43.74214" lon="7.08074">
        <ele>633</ele>
        <time>2023-08-02T07:17:51.000Z</time>
      </trkpt>
      <trkpt lat="43.74217" lon="7.08073">
        <ele>633</ele>
        <time>2023-08-02T07:17:52.000Z</time>
      </trkpt>
      <trkpt lat="43.74219" lon="7.08072">
        <ele>633.59997558594</ele>
        <time>2023-08-02T07:17:53.000Z</time>
      </trkpt>
      <trkpt lat="43.74222" lon="7.08071">
        <ele>634.20001220703</ele>
        <time>2023-08-02T07:17:54.000Z</time>
      </trkpt>
      <trkpt lat="43.74224" lon="7.0807">
        <ele>635</ele>
        <time>2023-08-02T07:17:55.000Z</time>
      </trkpt>
      <trkpt lat="43.74226" lon="7.08069">
        <ele>635.40002441406</ele>
        <time>2023-08-02T07:17:56.000Z</time>
      </trkpt>
      <trkpt lat="43.74227" lon="7.08068">
        <ele>635.79998779297</ele>
        <time>2023-08-02T07:17:57.000Z</time>
      </trkpt>
      <trkpt lat="43.74229" lon="7.08067">
        <ele>636.59997558594</ele>
        <time>2023-08-02T07:17:58.000Z</time>
      </trkpt>
      <trkpt lat="43.74231" lon="7.08066">
        <ele>636.59997558594</ele>
        <time>2023-08-02T07:17:59.000Z</time>
      </trkpt>
      <trkpt lat="43.74233" lon="7.08065">
        <ele>637.20001220703</ele>
        <time>2023-08-02T07:18:00.000Z</time>
      </trkpt>
      <trkpt lat="43.74235" lon="7.08065">
        <ele>637.59997558594</ele>
        <time>2023-08-02T07:18:01.000Z</time>
      </trkpt>
      <trkpt lat="43.74237" lon="7.08063">
        <ele>638.20001220703</ele>
        <time>2023-08-02T07:18:02.000Z</time>
      </trkpt>
      <trkpt lat="43.74239" lon="7.08062">
        <ele>638.40002441406</ele>
        <time>2023-08-02T07:18:03.000Z</time>
      </trkpt>
      <trkpt lat="43.74241" lon="7.08061">
        <ele>639</ele>
        <time>2023-08-02T07:18:04.000Z</time>
      </trkpt>
      <trkpt lat="43.74243" lon="7.0806">
        <ele>639.40002441406</ele>
        <time>2023-08-02T07:18:05.000Z</time>
      </trkpt>
      <trkpt lat="43.74245" lon="7.08059">
        <ele>639.59997558594</ele>
        <time>2023-08-02T07:18:06.000Z</time>
      </trkpt>
      <trkpt lat="43.74247" lon="7.08058">
        <ele>639.79998779297</ele>
        <time>2023-08-02T07:18:07.000Z</time>
      </trkpt>
      <trkpt lat="43.74249" lon="7.08058">
        <ele>640</ele>
        <time>2023-08-02T07:18:08.000Z</time>
      </trkpt>
      <trkpt lat="43.74251" lon="7.08058">
        <ele>640.40002441406</ele>
        <time>2023-08-02T07:18:09.000Z</time>
      </trkpt>
      <trkpt lat="43.74254" lon="7.08058">
        <ele>640.40002441406</ele>
        <time>2023-08-02T07:18:10.000Z</time>
      </trkpt>
      <trkpt lat="43.74256" lon="7.08057">
        <ele>640.79998779297</ele>
        <time>2023-08-02T07:18:11.000Z</time>
      </trkpt>
      <trkpt lat="43.74259" lon="7.08055">
        <ele>640.79998779297</ele>
        <time>2023-08-02T07:18:12.000Z</time>
      </trkpt>
      <trkpt lat="43.7426" lon="7.08054">
        <ele>641</ele>
        <time>2023-08-02T07:18:13.000Z</time>
      </trkpt>
      <trkpt lat="43.74262" lon="7.08053">
        <ele>641.20001220703</ele>
        <time>2023-08-02T07:18:14.000Z</time>
      </trkpt>
      <trkpt lat="43.74264" lon="7.08052">
        <ele>641.79998779297</ele>
        <time>2023-08-02T07:18:15.000Z</time>
      </trkpt>
      <trkpt lat="43.74266" lon="7.08051">
        <ele>641.79998779297</ele>
        <time>2023-08-02T07:18:16.000Z</time>
      </trkpt>
      <trkpt lat="43.74268" lon="7.0805">
        <ele>642.40002441406</ele>
        <time>2023-08-02T07:18:17.000Z</time>
      </trkpt>
      <trkpt lat="43.7427" lon="7.08049">
        <ele>642.40002441406</ele>
        <time>2023-08-02T07:18:18.000Z</time>
      </trkpt>
      <trkpt lat="43.74272" lon="7.08048">
        <ele>643.20001220703</ele>
        <time>2023-08-02T07:18:19.000Z</time>
      </trkpt>
      <trkpt lat="43.74274" lon="7.08047">
        <ele>643.59997558594</ele>
        <time>2023-08-02T07:18:20.000Z</time>
      </trkpt>
      <trkpt lat="43.74276" lon="7.08045">
        <ele>644.20001220703</ele>
        <time>2023-08-02T07:18:21.000Z</time>
      </trkpt>
      <trkpt lat="43.74278" lon="7.08044">
        <ele>644.40002441406</ele>
        <time>2023-08-02T07:18:22.000Z</time>
      </trkpt>
      <trkpt lat="43.7428" lon="7.08042">
        <ele>644.40002441406</ele>
        <time>2023-08-02T07:18:23.000Z</time>
      </trkpt>
      <trkpt lat="43.74282" lon="7.08041">
        <ele>644.79998779297</ele>
        <time>2023-08-02T07:18:24.000Z</time>
      </trkpt>
      <trkpt lat="43.74284" lon="7.08039">
        <ele>644.79998779297</ele>
        <time>2023-08-02T07:18:25.000Z</time>
      </trkpt>
      <trkpt lat="43.74286" lon="7.08037">
        <ele>645.20001220703</ele>
        <time>2023-08-02T07:18:26.000Z</time>
      </trkpt>
      <trkpt lat="43.74287" lon="7.08034">
        <ele>645.59997558594</ele>
        <time>2023-08-02T07:18:27.000Z</time>
      </trkpt>
      <trkpt lat="43.74289" lon="7.08032">
        <ele>645.79998779297</ele>
        <time>2023-08-02T07:18:28.000Z</time>
      </trkpt>
      <trkpt lat="43.74292" lon="7.08032">
        <ele>645.79998779297</ele>
        <time>2023-08-02T07:18:29.000Z</time>
      </trkpt>
      <trkpt lat="43.74294" lon="7.08031">
        <ele>646</ele>
        <time>2023-08-02T07:18:30.000Z</time>
      </trkpt>
      <trkpt lat="43.74296" lon="7.08029">
        <ele>646.20001220703</ele>
        <time>2023-08-02T07:18:31.000Z</time>
      </trkpt>
      <trkpt lat="43.74298" lon="7.08027">
        <ele>646.20001220703</ele>
        <time>2023-08-02T07:18:32.000Z</time>
      </trkpt>
      <trkpt lat="43.74299" lon="7.08026">
        <ele>646.59997558594</ele>
        <time>2023-08-02T07:18:33.000Z</time>
      </trkpt>
      <trkpt lat="43.74301" lon="7.08024">
        <ele>647</ele>
        <time>2023-08-02T07:18:34.000Z</time>
      </trkpt>
      <trkpt lat="43.74303" lon="7.08022">
        <ele>647</ele>
        <time>2023-08-02T07:18:35.000Z</time>
      </trkpt>
      <trkpt lat="43.74305" lon="7.0802">
        <ele>647.40002441406</ele>
        <time>2023-08-02T07:18:36.000Z</time>
      </trkpt>
      <trkpt lat="43.74306" lon="7.08018">
        <ele>647.59997558594</ele>
        <time>2023-08-02T07:18:37.000Z</time>
      </trkpt>
      <trkpt lat="43.74308" lon="7.08016">
        <ele>648.20001220703</ele>
        <time>2023-08-02T07:18:38.000Z</time>
      </trkpt>
      <trkpt lat="43.74309" lon="7.08014">
        <ele>648.59997558594</ele>
        <time>2023-08-02T07:18:39.000Z</time>
      </trkpt>
      <trkpt lat="43.7431" lon="7.08013">
        <ele>649</ele>
        <time>2023-08-02T07:18:40.000Z</time>
      </trkpt>
      <trkpt lat="43.74311" lon="7.08011">
        <ele>649</ele>
        <time>2023-08-02T07:18:41.000Z</time>
      </trkpt>
      <trkpt lat="43.74313" lon="7.0801">
        <ele>649.59997558594</ele>
        <time>2023-08-02T07:18:42.000Z</time>
      </trkpt>
      <trkpt lat="43.74314" lon="7.08008">
        <ele>650.40002441406</ele>
        <time>2023-08-02T07:18:43.000Z</time>
      </trkpt>
      <trkpt lat="43.74316" lon="7.08006">
        <ele>650.79998779297</ele>
        <time>2023-08-02T07:18:44.000Z</time>
      </trkpt>
      <trkpt lat="43.74318" lon="7.08004">
        <ele>651.40002441406</ele>
        <time>2023-08-02T07:18:45.000Z</time>
      </trkpt>
      <trkpt lat="43.74319" lon="7.08001">
        <ele>651.40002441406</ele>
        <time>2023-08-02T07:18:46.000Z</time>
      </trkpt>
      <trkpt lat="43.7432" lon="7.07999">
        <ele>651.79998779297</ele>
        <time>2023-08-02T07:18:47.000Z</time>
      </trkpt>
      <trkpt lat="43.74321" lon="7.07996">
        <ele>652</ele>
        <time>2023-08-02T07:18:48.000Z</time>
      </trkpt>
      <trkpt lat="43.74322" lon="7.07994">
        <ele>652.79998779297</ele>
        <time>2023-08-02T07:18:49.000Z</time>
      </trkpt>
      <trkpt lat="43.74324" lon="7.07992">
        <ele>653.40002441406</ele>
        <time>2023-08-02T07:18:50.000Z</time>
      </trkpt>
      <trkpt lat="43.74326" lon="7.07991">
        <ele>653.79998779297</ele>
        <time>2023-08-02T07:18:51.000Z</time>
      </trkpt>
      <trkpt lat="43.74328" lon="7.0799">
        <ele>654.40002441406</ele>
        <time>2023-08-02T07:18:52.000Z</time>
      </trkpt>
      <trkpt lat="43.74329" lon="7.0799">
        <ele>654.79998779297</ele>
        <time>2023-08-02T07:18:53.000Z</time>
      </trkpt>
      <trkpt lat="43.74332" lon="7.0799">
        <ele>655.59997558594</ele>
        <time>2023-08-02T07:18:54.000Z</time>
      </trkpt>
      <trkpt lat="43.74334" lon="7.0799">
        <ele>655.79998779297</ele>
        <time>2023-08-02T07:18:55.000Z</time>
      </trkpt>
      <trkpt lat="43.74336" lon="7.07989">
        <ele>656.40002441406</ele>
        <time>2023-08-02T07:18:56.000Z</time>
      </trkpt>
      <trkpt lat="43.74337" lon="7.07988">
        <ele>657</ele>
        <time>2023-08-02T07:18:57.000Z</time>
      </trkpt>
      <trkpt lat="43.74338" lon="7.07988">
        <ele>657.59997558594</ele>
        <time>2023-08-02T07:18:58.000Z</time>
      </trkpt>
      <trkpt lat="43.7434" lon="7.07988">
        <ele>658.20001220703</ele>
        <time>2023-08-02T07:18:59.000Z</time>
      </trkpt>
      <trkpt lat="43.7434" lon="7.07989">
        <ele>658.59997558594</ele>
        <time>2023-08-02T07:19:00.000Z</time>
      </trkpt>
      <trkpt lat="43.74339" lon="7.07989">
        <ele>659</ele>
        <time>2023-08-02T07:19:01.000Z</time>
      </trkpt>
      <trkpt lat="43.74339" lon="7.07989">
        <ele>659.20001220703</ele>
        <time>2023-08-02T07:19:02.000Z</time>
      </trkpt>
      <trkpt lat="43.74339" lon="7.07989">
        <ele>659.79998779297</ele>
        <time>2023-08-02T07:19:03.000Z</time>
      </trkpt>
      <trkpt lat="43.74339" lon="7.07989">
        <ele>660</ele>
        <time>2023-08-02T07:19:04.000Z</time>
      </trkpt>
      <trkpt lat="43.74339" lon="7.07989">
        <ele>660</ele>
        <time>2023-08-02T07:19:05.000Z</time>
      </trkpt>
      <trkpt lat="43.74339" lon="7.07989">
        <ele>660</ele>
        <time>2023-08-02T07:19:06.000Z</time>
      </trkpt>
      <trkpt lat="43.74339" lon="7.07989">
        <ele>660</ele>
        <time>2023-08-02T07:19:07.000Z</time>
      </trkpt>
      <trkpt lat="43.7434" lon="7.07988">
        <ele>660</ele>
        <time>2023-08-02T07:19:08.000Z</time>
      </trkpt>
      <trkpt lat="43.7434" lon="7.07988">
        <ele>660</ele>
        <time>2023-08-02T07:19:09.000Z</time>
      </trkpt>
      <trkpt lat="43.7434" lon="7.07989">
        <ele>660</ele>
        <time>2023-08-02T07:19:10.000Z</time>
      </trkpt>
      <trkpt lat="43.7434" lon="7.07989">
        <ele>659.79998779297</ele>
        <time>2023-08-02T07:19:11.000Z</time>
      </trkpt>
      <trkpt lat="43.7434" lon="7.07989">
        <ele>659.79998779297</ele>
        <time>2023-08-02T07:19:12.000Z</time>
      </trkpt>
      <trkpt lat="43.7434" lon="7.07989">
        <ele>659.79998779297</ele>
        <time>2023-08-02T07:19:13.000Z</time>
      </trkpt>
      <trkpt lat="43.7434" lon="7.07989">
        <ele>659.79998779297</ele>
        <time>2023-08-02T07:19:14.000Z</time>
      </trkpt>
      <trkpt lat="43.7434" lon="7.0799">
        <ele>660</ele>
        <time>2023-08-02T07:19:15.000Z</time>
      </trkpt>
      <trkpt lat="43.74341" lon="7.07991">
        <ele>660</ele>
        <time>2023-08-02T07:19:16.000Z</time>
      </trkpt>
      <trkpt lat="43.74342" lon="7.07992">
        <ele>660</ele>
        <time>2023-08-02T07:19:17.000Z</time>
      </trkpt>
      <trkpt lat="43.74342" lon="7.07992">
        <ele>660</ele>
        <time>2023-08-02T07:19:18.000Z</time>
      </trkpt>
      <trkpt lat="43.74342" lon="7.07992">
        <ele>660</ele>
        <time>2023-08-02T07:19:19.000Z</time>
      </trkpt>
      <trkpt lat="43.74342" lon="7.07991">
        <ele>660.20001220703</ele>
        <time>2023-08-02T07:19:20.000Z</time>
      </trkpt>
      <trkpt lat="43.74342" lon="7.07991">
        <ele>660.40002441406</ele>
        <time>2023-08-02T07:19:21.000Z</time>
      </trkpt>
      <trkpt lat="43.74343" lon="7.07991">
        <ele>660.59997558594</ele>
        <time>2023-08-02T07:19:22.000Z</time>
      </trkpt>
      <trkpt lat="43.74343" lon="7.07991">
        <ele>660.79998779297</ele>
        <time>2023-08-02T07:19:23.000Z</time>
      </trkpt>
      <trkpt lat="43.74344" lon="7.07991">
        <ele>661</ele>
        <time>2023-08-02T07:19:24.000Z</time>
      </trkpt>
      <trkpt lat="43.74344" lon="7.07991">
        <ele>661.20001220703</ele>
        <time>2023-08-02T07:19:25.000Z</time>
      </trkpt>
      <trkpt lat="43.74344" lon="7.0799">
        <ele>661.20001220703</ele>
        <time>2023-08-02T07:19:26.000Z</time>
      </trkpt>
      <trkpt lat="43.74345" lon="7.0799">
        <ele>661.20001220703</ele>
        <time>2023-08-02T07:19:27.000Z</time>
      </trkpt>
      <trkpt lat="43.74345" lon="7.07991">
        <ele>661.40002441406</ele>
        <time>2023-08-02T07:19:28.000Z</time>
      </trkpt>
      <trkpt lat="43.74346" lon="7.07991">
        <ele>661.40002441406</ele>
        <time>2023-08-02T07:19:29.000Z</time>
      </trkpt>
      <trkpt lat="43.74347" lon="7.07991">
        <ele>661.40002441406</ele>
        <time>2023-08-02T07:19:30.000Z</time>
      </trkpt>
      <trkpt lat="43.74347" lon="7.07992">
        <ele>661.59997558594</ele>
        <time>2023-08-02T07:19:31.000Z</time>
      </trkpt>
      <trkpt lat="43.74348" lon="7.07992">
        <ele>661.79998779297</ele>
        <time>2023-08-02T07:19:32.000Z</time>
      </trkpt>
      <trkpt lat="43.74348" lon="7.07992">
        <ele>661.79998779297</ele>
        <time>2023-08-02T07:19:33.000Z</time>
      </trkpt>
      <trkpt lat="43.74349" lon="7.07992">
        <ele>661.79998779297</ele>
        <time>2023-08-02T07:19:34.000Z</time>
      </trkpt>
      <trkpt lat="43.74349" lon="7.07992">
        <ele>662.20001220703</ele>
        <time>2023-08-02T07:19:35.000Z</time>
      </trkpt>
      <trkpt lat="43.7435" lon="7.07992">
        <ele>662.59997558594</ele>
        <time>2023-08-02T07:19:36.000Z</time>
      </trkpt>
      <trkpt lat="43.7435" lon="7.07992">
        <ele>662.79998779297</ele>
        <time>2023-08-02T07:19:37.000Z</time>
      </trkpt>
      <trkpt lat="43.7435" lon="7.07993">
        <ele>663</ele>
        <time>2023-08-02T07:19:38.000Z</time>
      </trkpt>
      <trkpt lat="43.7435" lon="7.07993">
        <ele>663.20001220703</ele>
        <time>2023-08-02T07:19:39.000Z</time>
      </trkpt>
      <trkpt lat="43.74351" lon="7.07993">
        <ele>663.40002441406</ele>
        <time>2023-08-02T07:19:40.000Z</time>
      </trkpt>
      <trkpt lat="43.74351" lon="7.07994">
        <ele>663.59997558594</ele>
        <time>2023-08-02T07:19:41.000Z</time>
      </trkpt>
      <trkpt lat="43.74352" lon="7.07994">
        <ele>663.79998779297</ele>
        <time>2023-08-02T07:19:42.000Z</time>
      </trkpt>
      <trkpt lat="43.74352" lon="7.07994">
        <ele>663.79998779297</ele>
        <time>2023-08-02T07:19:43.000Z</time>
      </trkpt>
      <trkpt lat="43.74352" lon="7.07994">
        <ele>664</ele>
        <time>2023-08-02T07:19:44.000Z</time>
      </trkpt>
      <trkpt lat="43.74352" lon="7.07994">
        <ele>664</ele>
        <time>2023-08-02T07:19:45.000Z</time>
      </trkpt>
      <trkpt lat="43.74352" lon="7.07994">
        <ele>664.20001220703</ele>
        <time>2023-08-02T07:19:46.000Z</time>
      </trkpt>
      <trkpt lat="43.74352" lon="7.07994">
        <ele>664.20001220703</ele>
        <time>2023-08-02T07:19:47.000Z</time>
      </trkpt>
      <trkpt lat="43.74353" lon="7.07994">
        <ele>664.20001220703</ele>
        <time>2023-08-02T07:19:48.000Z</time>
      </trkpt>
      <trkpt lat="43.74354" lon="7.07994">
        <ele>664.20001220703</ele>
        <time>2023-08-02T07:19:49.000Z</time>
      </trkpt>
      <trkpt lat="43.74354" lon="7.07994">
        <ele>664.40002441406</ele>
        <time>2023-08-02T07:19:50.000Z</time>
      </trkpt>
      <trkpt lat="43.74354" lon="7.07993">
        <ele>664.40002441406</ele>
        <time>2023-08-02T07:19:51.000Z</time>
      </trkpt>
      <trkpt lat="43.74354" lon="7.07992">
        <ele>664.40002441406</ele>
        <time>2023-08-02T07:19:52.000Z</time>
      </trkpt>
      <trkpt lat="43.74354" lon="7.07992">
        <ele>664.59997558594</ele>
        <time>2023-08-02T07:19:53.000Z</time>
      </trkpt>
      <trkpt lat="43.74354" lon="7.07992">
        <ele>664.59997558594</ele>
        <time>2023-08-02T07:19:54.000Z</time>
      </trkpt>
      <trkpt lat="43.74354" lon="7.07992">
        <ele>664.59997558594</ele>
        <time>2023-08-02T07:19:55.000Z</time>
      </trkpt>
      <trkpt lat="43.74354" lon="7.07992">
        <ele>664.79998779297</ele>
        <time>2023-08-02T07:19:56.000Z</time>
      </trkpt>
      <trkpt lat="43.74354" lon="7.07991">
        <ele>664.79998779297</ele>
        <time>2023-08-02T07:19:57.000Z</time>
      </trkpt>
      <trkpt lat="43.74354" lon="7.07989">
        <ele>664.79998779297</ele>
        <time>2023-08-02T07:19:58.000Z</time>
      </trkpt>
      <trkpt lat="43.74354" lon="7.07988">
        <ele>664.79998779297</ele>
        <time>2023-08-02T07:19:59.000Z</time>
      </trkpt>
      <trkpt lat="43.74354" lon="7.07989">
        <ele>664.79998779297</ele>
        <time>2023-08-02T07:20:00.000Z</time>
      </trkpt>
      <trkpt lat="43.74354" lon="7.07989">
        <ele>664.79998779297</ele>
        <time>2023-08-02T07:20:01.000Z</time>
      </trkpt>
      <trkpt lat="43.74354" lon="7.07988">
        <ele>665</ele>
        <time>2023-08-02T07:20:02.000Z</time>
      </trkpt>
      <trkpt lat="43.74354" lon="7.07988">
        <ele>665.20001220703</ele>
        <time>2023-08-02T07:20:03.000Z</time>
      </trkpt>
      <trkpt lat="43.74355" lon="7.07987">
        <ele>665.40002441406</ele>
        <time>2023-08-02T07:20:04.000Z</time>
      </trkpt>
      <trkpt lat="43.74355" lon="7.07986">
        <ele>665.40002441406</ele>
        <time>2023-08-02T07:20:05.000Z</time>
      </trkpt>
      <trkpt lat="43.74356" lon="7.07986">
        <ele>665.40002441406</ele>
        <time>2023-08-02T07:20:06.000Z</time>
      </trkpt>
      <trkpt lat="43.74356" lon="7.07986">
        <ele>665.59997558594</ele>
        <time>2023-08-02T07:20:07.000Z</time>
      </trkpt>
      <trkpt lat="43.74356" lon="7.07986">
        <ele>665.59997558594</ele>
        <time>2023-08-02T07:20:08.000Z</time>
      </trkpt>
      <trkpt lat="43.74356" lon="7.07986">
        <ele>665.79998779297</ele>
        <time>2023-08-02T07:20:09.000Z</time>
      </trkpt>
      <trkpt lat="43.74356" lon="7.07985">
        <ele>666</ele>
        <time>2023-08-02T07:20:10.000Z</time>
      </trkpt>
      <trkpt lat="43.74356" lon="7.07985">
        <ele>666</ele>
        <time>2023-08-02T07:20:11.000Z</time>
      </trkpt>
      <trkpt lat="43.74356" lon="7.07985">
        <ele>666</ele>
        <time>2023-08-02T07:20:12.000Z</time>
      </trkpt>
      <trkpt lat="43.74356" lon="7.07985">
        <ele>666</ele>
        <time>2023-08-02T07:20:13.000Z</time>
      </trkpt>
      <trkpt lat="43.74356" lon="7.07985">
        <ele>666</ele>
        <time>2023-08-02T07:20:14.000Z</time>
      </trkpt>
      <trkpt lat="43.74356" lon="7.07985">
        <ele>666</ele>
        <time>2023-08-02T07:20:15.000Z</time>
      </trkpt>
      <trkpt lat="43.74356" lon="7.07985">
        <ele>666</ele>
        <time>2023-08-02T07:20:16.000Z</time>
      </trkpt>
      <trkpt lat="43.74356" lon="7.07985">
        <ele>666</ele>
        <time>2023-08-02T07:20:17.000Z</time>
      </trkpt>
      <trkpt lat="43.74356" lon="7.07985">
        <ele>666</ele>
        <time>2023-08-02T07:20:18.000Z</time>
      </trkpt>
      <trkpt lat="43.74356" lon="7.07985">
        <ele>666</ele>
        <time>2023-08-02T07:20:19.000Z</time>
      </trkpt>
      <trkpt lat="43.74356" lon="7.07985">
        <ele>666</ele>
        <time>2023-08-02T07:20:20.000Z</time>
      </trkpt>
      <trkpt lat="43.74356" lon="7.07985">
        <ele>666</ele>
        <time>2023-08-02T07:20:21.000Z</time>
      </trkpt>
      <trkpt lat="43.74356" lon="7.07985">
        <ele>666</ele>
        <time>2023-08-02T07:20:22.000Z</time>
      </trkpt>
      <trkpt lat="43.74356" lon="7.07985">
        <ele>666</ele>
        <time>2023-08-02T07:20:23.000Z</time>
      </trkpt>
      <trkpt lat="43.74356" lon="7.07985">
        <ele>666</ele>
        <time>2023-08-02T07:20:24.000Z</time>
      </trkpt>
      <trkpt lat="43.74356" lon="7.07985">
        <ele>666</ele>
        <time>2023-08-02T07:20:25.000Z</time>
      </trkpt>
      <trkpt lat="43.74356" lon="7.07985">
        <ele>666</ele>
        <time>2023-08-02T07:20:26.000Z</time>
      </trkpt>
      <trkpt lat="43.74356" lon="7.07985">
        <ele>666</ele>
        <time>2023-08-02T07:20:27.000Z</time>
      </trkpt>
      <trkpt lat="43.74356" lon="7.07985">
        <ele>666</ele>
        <time>2023-08-02T07:20:28.000Z</time>
      </trkpt>
      <trkpt lat="43.74356" lon="7.07985">
        <ele>666</ele>
        <time>2023-08-02T07:20:29.000Z</time>
      </trkpt>
      <trkpt lat="43.74356" lon="7.07985">
        <ele>666</ele>
        <time>2023-08-02T07:20:30.000Z</time>
      </trkpt>
      <trkpt lat="43.74356" lon="7.07985">
        <ele>666</ele>
        <time>2023-08-02T07:20:31.000Z</time>
      </trkpt>
      <trkpt lat="43.74356" lon="7.07985">
        <ele>666</ele>
        <time>2023-08-02T07:20:32.000Z</time>
      </trkpt>
      <trkpt lat="43.74356" lon="7.07985">
        <ele>666</ele>
        <time>2023-08-02T07:20:33.000Z</time>
      </trkpt>
      <trkpt lat="43.74356" lon="7.07985">
        <ele>666</ele>
        <time>2023-08-02T07:20:34.000Z</time>
      </trkpt>
      <trkpt lat="43.74356" lon="7.07985">
        <ele>666</ele>
        <time>2023-08-02T07:20:35.000Z</time>
      </trkpt>
      <trkpt lat="43.74356" lon="7.07985">
        <ele>666</ele>
        <time>2023-08-02T07:20:36.000Z</time>
      </trkpt>
      <trkpt lat="43.74356" lon="7.07985">
        <ele>666.20001220703</ele>
        <time>2023-08-02T07:20:37.000Z</time>
      </trkpt>
      <trkpt lat="43.74356" lon="7.07985">
        <ele>666.20001220703</ele>
        <time>2023-08-02T07:20:38.000Z</time>
      </trkpt>
      <trkpt lat="43.74356" lon="7.07985">
        <ele>666.20001220703</ele>
        <time>2023-08-02T07:20:39.000Z</time>
      </trkpt>
      <trkpt lat="43.74356" lon="7.07985">
        <ele>666.20001220703</ele>
        <time>2023-08-02T07:20:40.000Z</time>
      </trkpt>
      <trkpt lat="43.74356" lon="7.07985">
        <ele>666.20001220703</ele>
        <time>2023-08-02T07:20:41.000Z</time>
      </trkpt>
      <trkpt lat="43.74356" lon="7.07985">
        <ele>666.20001220703</ele>
        <time>2023-08-02T07:20:42.000Z</time>
      </trkpt>
      <trkpt lat="43.74356" lon="7.07985">
        <ele>666.20001220703</ele>
        <time>2023-08-02T07:20:43.000Z</time>
      </trkpt>
      <trkpt lat="43.74356" lon="7.07985">
        <ele>666.20001220703</ele>
        <time>2023-08-02T07:20:44.000Z</time>
      </trkpt>
      <trkpt lat="43.74356" lon="7.07985">
        <ele>666.20001220703</ele>
        <time>2023-08-02T07:20:45.000Z</time>
      </trkpt>
      <trkpt lat="43.74356" lon="7.07985">
        <ele>666.20001220703</ele>
        <time>2023-08-02T07:20:46.000Z</time>
      </trkpt>
      <trkpt lat="43.74356" lon="7.07985">
        <ele>666.20001220703</ele>
        <time>2023-08-02T07:20:47.000Z</time>
      </trkpt>
      <trkpt lat="43.74356" lon="7.07985">
        <ele>666.20001220703</ele>
        <time>2023-08-02T07:20:48.000Z</time>
      </trkpt>
      <trkpt lat="43.74356" lon="7.07985">
        <ele>666.20001220703</ele>
        <time>2023-08-02T07:20:49.000Z</time>
      </trkpt>
      <trkpt lat="43.74356" lon="7.07985">
        <ele>666.20001220703</ele>
        <time>2023-08-02T07:20:50.000Z</time>
      </trkpt>
      <trkpt lat="43.74356" lon="7.07985">
        <ele>666.20001220703</ele>
        <time>2023-08-02T07:20:51.000Z</time>
      </trkpt>
      <trkpt lat="43.74356" lon="7.07985">
        <ele>666.20001220703</ele>
        <time>2023-08-02T07:20:52.000Z</time>
      </trkpt>
      <trkpt lat="43.74356" lon="7.07985">
        <ele>666.20001220703</ele>
        <time>2023-08-02T07:20:53.000Z</time>
      </trkpt>
      <trkpt lat="43.74356" lon="7.07985">
        <ele>666.20001220703</ele>
        <time>2023-08-02T07:20:54.000Z</time>
      </trkpt>
      <trkpt lat="43.74356" lon="7.07985">
        <ele>666.20001220703</ele>
        <time>2023-08-02T07:20:55.000Z</time>
      </trkpt>
      <trkpt lat="43.74356" lon="7.07985">
        <ele>666.20001220703</ele>
        <time>2023-08-02T07:20:56.000Z</time>
      </trkpt>
      <trkpt lat="43.74356" lon="7.07985">
        <ele>666.20001220703</ele>
        <time>2023-08-02T07:20:57.000Z</time>
      </trkpt>
      <trkpt lat="43.74356" lon="7.07985">
        <ele>666.20001220703</ele>
        <time>2023-08-02T07:20:58.000Z</time>
      </trkpt>
      <trkpt lat="43.74356" lon="7.07985">
        <ele>666.20001220703</ele>
        <time>2023-08-02T07:20:59.000Z</time>
      </trkpt>
      <trkpt lat="43.74356" lon="7.07985">
        <ele>666</ele>
        <time>2023-08-02T07:21:00.000Z</time>
      </trkpt>
      <trkpt lat="43.74356" lon="7.07985">
        <ele>666</ele>
        <time>2023-08-02T07:21:01.000Z</time>
      </trkpt>
      <trkpt lat="43.74356" lon="7.07985">
        <ele>666</ele>
        <time>2023-08-02T07:21:02.000Z</time>
      </trkpt>
      <trkpt lat="43.74356" lon="7.07985">
        <ele>666</ele>
        <time>2023-08-02T07:21:03.000Z</time>
      </trkpt>
      <trkpt lat="43.74356" lon="7.07985">
        <ele>666</ele>
        <time>2023-08-02T07:21:04.000Z</time>
      </trkpt>
      <trkpt lat="43.74356" lon="7.07985">
        <ele>666</ele>
        <time>2023-08-02T07:21:05.000Z</time>
      </trkpt>
      <trkpt lat="43.74356" lon="7.07985">
        <ele>666</ele>
        <time>2023-08-02T07:21:06.000Z</time>
      </trkpt>
      <trkpt lat="43.74356" lon="7.07985">
        <ele>666</ele>
        <time>2023-08-02T07:21:07.000Z</time>
      </trkpt>
      <trkpt lat="43.74356" lon="7.07985">
        <ele>666</ele>
        <time>2023-08-02T07:21:08.000Z</time>
      </trkpt>
      <trkpt lat="43.74356" lon="7.07985">
        <ele>666</ele>
        <time>2023-08-02T07:21:09.000Z</time>
      </trkpt>
      <trkpt lat="43.74356" lon="7.07985">
        <ele>666</ele>
        <time>2023-08-02T07:21:10.000Z</time>
      </trkpt>
      <trkpt lat="43.74356" lon="7.07985">
        <ele>666</ele>
        <time>2023-08-02T07:21:11.000Z</time>
      </trkpt>
      <trkpt lat="43.74356" lon="7.07985">
        <ele>666</ele>
        <time>2023-08-02T07:21:12.000Z</time>
      </trkpt>
      <trkpt lat="43.74356" lon="7.07985">
        <ele>665.79998779297</ele>
        <time>2023-08-02T07:21:13.000Z</time>
      </trkpt>
      <trkpt lat="43.74356" lon="7.07985">
        <ele>665.79998779297</ele>
        <time>2023-08-02T07:21:14.000Z</time>
      </trkpt>
      <trkpt lat="43.74356" lon="7.07985">
        <ele>665.79998779297</ele>
        <time>2023-08-02T07:21:15.000Z</time>
      </trkpt>
      <trkpt lat="43.74356" lon="7.07985">
        <ele>665.79998779297</ele>
        <time>2023-08-02T07:21:16.000Z</time>
      </trkpt>
      <trkpt lat="43.74356" lon="7.07985">
        <ele>665.79998779297</ele>
        <time>2023-08-02T07:21:17.000Z</time>
      </trkpt>
      <trkpt lat="43.74356" lon="7.07985">
        <ele>665.79998779297</ele>
        <time>2023-08-02T07:21:18.000Z</time>
      </trkpt>
      <trkpt lat="43.74356" lon="7.07985">
        <ele>665.79998779297</ele>
        <time>2023-08-02T07:21:19.000Z</time>
      </trkpt>
      <trkpt lat="43.74356" lon="7.07985">
        <ele>665.79998779297</ele>
        <time>2023-08-02T07:21:20.000Z</time>
      </trkpt>
      <trkpt lat="43.74356" lon="7.07985">
        <ele>665.79998779297</ele>
        <time>2023-08-02T07:21:21.000Z</time>
      </trkpt>
      <trkpt lat="43.74356" lon="7.07985">
        <ele>665.79998779297</ele>
        <time>2023-08-02T07:21:22.000Z</time>
      </trkpt>
      <trkpt lat="43.74356" lon="7.07985">
        <ele>665.79998779297</ele>
        <time>2023-08-02T07:21:23.000Z</time>
      </trkpt>
      <trkpt lat="43.74356" lon="7.07985">
        <ele>665.79998779297</ele>
        <time>2023-08-02T07:21:24.000Z</time>
      </trkpt>
      <trkpt lat="43.74356" lon="7.07985">
        <ele>665.79998779297</ele>
        <time>2023-08-02T07:21:25.000Z</time>
      </trkpt>
      <trkpt lat="43.74356" lon="7.07985">
        <ele>665.79998779297</ele>
        <time>2023-08-02T07:21:26.000Z</time>
      </trkpt>
      <trkpt lat="43.74356" lon="7.07985">
        <ele>665.79998779297</ele>
        <time>2023-08-02T07:21:27.000Z</time>
      </trkpt>
      <trkpt lat="43.74356" lon="7.07985">
        <ele>665.79998779297</ele>
        <time>2023-08-02T07:21:28.000Z</time>
      </trkpt>
      <trkpt lat="43.74356" lon="7.07985">
        <ele>665.79998779297</ele>
        <time>2023-08-02T07:21:29.000Z</time>
      </trkpt>
      <trkpt lat="43.74356" lon="7.07985">
        <ele>665.79998779297</ele>
        <time>2023-08-02T07:21:30.000Z</time>
      </trkpt>
      <trkpt lat="43.74356" lon="7.07985">
        <ele>665.79998779297</ele>
        <time>2023-08-02T07:21:31.000Z</time>
      </trkpt>
      <trkpt lat="43.74356" lon="7.07985">
        <ele>665.79998779297</ele>
        <time>2023-08-02T07:21:32.000Z</time>
      </trkpt>
      <trkpt lat="43.74356" lon="7.07985">
        <ele>665.79998779297</ele>
        <time>2023-08-02T07:21:33.000Z</time>
      </trkpt>
      <trkpt lat="43.74356" lon="7.07985">
        <ele>665.79998779297</ele>
        <time>2023-08-02T07:21:34.000Z</time>
      </trkpt>
      <trkpt lat="43.74356" lon="7.07985">
        <ele>665.79998779297</ele>
        <time>2023-08-02T07:21:35.000Z</time>
      </trkpt>
      <trkpt lat="43.74356" lon="7.07985">
        <ele>665.79998779297</ele>
        <time>2023-08-02T07:21:36.000Z</time>
      </trkpt>
      <trkpt lat="43.74355" lon="7.07985">
        <ele>665.79998779297</ele>
        <time>2023-08-02T07:21:37.000Z</time>
      </trkpt>
      <trkpt lat="43.74355" lon="7.07985">
        <ele>665.79998779297</ele>
        <time>2023-08-02T07:21:38.000Z</time>
      </trkpt>
      <trkpt lat="43.74355" lon="7.07985">
        <ele>666</ele>
        <time>2023-08-02T07:21:39.000Z</time>
      </trkpt>
      <trkpt lat="43.74355" lon="7.07985">
        <ele>666</ele>
        <time>2023-08-02T07:21:40.000Z</time>
      </trkpt>
      <trkpt lat="43.74355" lon="7.07985">
        <ele>666</ele>
        <time>2023-08-02T07:21:41.000Z</time>
      </trkpt>
      <trkpt lat="43.74355" lon="7.07985">
        <ele>666</ele>
        <time>2023-08-02T07:21:42.000Z</time>
      </trkpt>
      <trkpt lat="43.74355" lon="7.07985">
        <ele>666</ele>
        <time>2023-08-02T07:21:43.000Z</time>
      </trkpt>
      <trkpt lat="43.74356" lon="7.07985">
        <ele>666</ele>
        <time>2023-08-02T07:21:44.000Z</time>
      </trkpt>
      <trkpt lat="43.74356" lon="7.07985">
        <ele>666</ele>
        <time>2023-08-02T07:21:45.000Z</time>
      </trkpt>
      <trkpt lat="43.74356" lon="7.07985">
        <ele>666</ele>
        <time>2023-08-02T07:21:46.000Z</time>
      </trkpt>
      <trkpt lat="43.74356" lon="7.07985">
        <ele>666</ele>
        <time>2023-08-02T07:21:47.000Z</time>
      </trkpt>
      <trkpt lat="43.74356" lon="7.07985">
        <ele>666</ele>
        <time>2023-08-02T07:21:48.000Z</time>
      </trkpt>
      <trkpt lat="43.74356" lon="7.07985">
        <ele>666</ele>
        <time>2023-08-02T07:21:49.000Z</time>
      </trkpt>
      <trkpt lat="43.74356" lon="7.07985">
        <ele>666</ele>
        <time>2023-08-02T07:21:50.000Z</time>
      </trkpt>
      <trkpt lat="43.74356" lon="7.07985">
        <ele>666</ele>
        <time>2023-08-02T07:21:51.000Z</time>
      </trkpt>
      <trkpt lat="43.74356" lon="7.07985">
        <ele>666</ele>
        <time>2023-08-02T07:21:52.000Z</time>
      </trkpt>
      <trkpt lat="43.74356" lon="7.07985">
        <ele>666</ele>
        <time>2023-08-02T07:21:53.000Z</time>
      </trkpt>
      <trkpt lat="43.74356" lon="7.07985">
        <ele>666</ele>
        <time>2023-08-02T07:21:54.000Z</time>
      </trkpt>
      <trkpt lat="43.74356" lon="7.07985">
        <ele>666</ele>
        <time>2023-08-02T07:21:55.000Z</time>
      </trkpt>
      <trkpt lat="43.74356" lon="7.07985">
        <ele>666</ele>
        <time>2023-08-02T07:21:56.000Z</time>
      </trkpt>
      <trkpt lat="43.74356" lon="7.07985">
        <ele>666</ele>
        <time>2023-08-02T07:21:57.000Z</time>
      </trkpt>
      <trkpt lat="43.74356" lon="7.07985">
        <ele>666</ele>
        <time>2023-08-02T07:21:58.000Z</time>
      </trkpt>
      <trkpt lat="43.74356" lon="7.07985">
        <ele>666</ele>
        <time>2023-08-02T07:21:59.000Z</time>
      </trkpt>
      <trkpt lat="43.74356" lon="7.07985">
        <ele>666</ele>
        <time>2023-08-02T07:22:00.000Z</time>
      </trkpt>
      <trkpt lat="43.74356" lon="7.07985">
        <ele>666</ele>
        <time>2023-08-02T07:22:01.000Z</time>
      </trkpt>
      <trkpt lat="43.74356" lon="7.07985">
        <ele>666</ele>
        <time>2023-08-02T07:22:02.000Z</time>
      </trkpt>
      <trkpt lat="43.74356" lon="7.07985">
        <ele>666</ele>
        <time>2023-08-02T07:22:03.000Z</time>
      </trkpt>
      <trkpt lat="43.74356" lon="7.07985">
        <ele>666</ele>
        <time>2023-08-02T07:22:04.000Z</time>
      </trkpt>
      <trkpt lat="43.74356" lon="7.07985">
        <ele>666</ele>
        <time>2023-08-02T07:22:05.000Z</time>
      </trkpt>
      <trkpt lat="43.74356" lon="7.07985">
        <ele>666</ele>
        <time>2023-08-02T07:22:06.000Z</time>
      </trkpt>
      <trkpt lat="43.74356" lon="7.07985">
        <ele>666</ele>
        <time>2023-08-02T07:22:07.000Z</time>
      </trkpt>
      <trkpt lat="43.74356" lon="7.07985">
        <ele>666</ele>
        <time>2023-08-02T07:22:08.000Z</time>
      </trkpt>
      <trkpt lat="43.74356" lon="7.07985">
        <ele>666</ele>
        <time>2023-08-02T07:22:09.000Z</time>
      </trkpt>
      <trkpt lat="43.74356" lon="7.07985">
        <ele>666</ele>
        <time>2023-08-02T07:22:10.000Z</time>
      </trkpt>
      <trkpt lat="43.74356" lon="7.07985">
        <ele>666</ele>
        <time>2023-08-02T07:22:11.000Z</time>
      </trkpt>
      <trkpt lat="43.74356" lon="7.07985">
        <ele>666</ele>
        <time>2023-08-02T07:22:12.000Z</time>
      </trkpt>
      <trkpt lat="43.74356" lon="7.07985">
        <ele>666</ele>
        <time>2023-08-02T07:22:13.000Z</time>
      </trkpt>
      <trkpt lat="43.74356" lon="7.07985">
        <ele>666</ele>
        <time>2023-08-02T07:22:14.000Z</time>
      </trkpt>
      <trkpt lat="43.74356" lon="7.07985">
        <ele>666</ele>
        <time>2023-08-02T07:22:15.000Z</time>
      </trkpt>
      <trkpt lat="43.74356" lon="7.07985">
        <ele>666</ele>
        <time>2023-08-02T07:22:16.000Z</time>
      </trkpt>
      <trkpt lat="43.74356" lon="7.07985">
        <ele>666</ele>
        <time>2023-08-02T07:22:17.000Z</time>
      </trkpt>
      <trkpt lat="43.74356" lon="7.07985">
        <ele>666</ele>
        <time>2023-08-02T07:22:18.000Z</time>
      </trkpt>
      <trkpt lat="43.74356" lon="7.07985">
        <ele>666</ele>
        <time>2023-08-02T07:22:19.000Z</time>
      </trkpt>
      <trkpt lat="43.74356" lon="7.07985">
        <ele>666</ele>
        <time>2023-08-02T07:22:20.000Z</time>
      </trkpt>
      <trkpt lat="43.74356" lon="7.07985">
        <ele>666</ele>
        <time>2023-08-02T07:22:21.000Z</time>
      </trkpt>
      <trkpt lat="43.74356" lon="7.07985">
        <ele>666</ele>
        <time>2023-08-02T07:22:22.000Z</time>
      </trkpt>
      <trkpt lat="43.74356" lon="7.07985">
        <ele>666</ele>
        <time>2023-08-02T07:22:23.000Z</time>
      </trkpt>
      <trkpt lat="43.74356" lon="7.07985">
        <ele>666</ele>
        <time>2023-08-02T07:22:24.000Z</time>
      </trkpt>
      <trkpt lat="43.74356" lon="7.07985">
        <ele>666</ele>
        <time>2023-08-02T07:22:25.000Z</time>
      </trkpt>
      <trkpt lat="43.74356" lon="7.07985">
        <ele>666</ele>
        <time>2023-08-02T07:22:26.000Z</time>
      </trkpt>
      <trkpt lat="43.74356" lon="7.07985">
        <ele>666</ele>
        <time>2023-08-02T07:22:27.000Z</time>
      </trkpt>
      <trkpt lat="43.74356" lon="7.07985">
        <ele>666</ele>
        <time>2023-08-02T07:22:28.000Z</time>
      </trkpt>
      <trkpt lat="43.74356" lon="7.07985">
        <ele>666</ele>
        <time>2023-08-02T07:22:29.000Z</time>
      </trkpt>
      <trkpt lat="43.74356" lon="7.07985">
        <ele>666</ele>
        <time>2023-08-02T07:22:30.000Z</time>
      </trkpt>
      <trkpt lat="43.74356" lon="7.07985">
        <ele>666</ele>
        <time>2023-08-02T07:22:31.000Z</time>
      </trkpt>
      <trkpt lat="43.74356" lon="7.07985">
        <ele>666</ele>
        <time>2023-08-02T07:22:32.000Z</time>
      </trkpt>
      <trkpt lat="43.74356" lon="7.07985">
        <ele>666</ele>
        <time>2023-08-02T07:22:33.000Z</time>
      </trkpt>
      <trkpt lat="43.74356" lon="7.07985">
        <ele>666</ele>
        <time>2023-08-02T07:22:34.000Z</time>
      </trkpt>
      <trkpt lat="43.74356" lon="7.07985">
        <ele>666</ele>
        <time>2023-08-02T07:22:35.000Z</time>
      </trkpt>
      <trkpt lat="43.74356" lon="7.07985">
        <ele>666</ele>
        <time>2023-08-02T07:22:36.000Z</time>
      </trkpt>
      <trkpt lat="43.74356" lon="7.07985">
        <ele>666</ele>
        <time>2023-08-02T07:22:37.000Z</time>
      </trkpt>
      <trkpt lat="43.74356" lon="7.07985">
        <ele>666</ele>
        <time>2023-08-02T07:22:38.000Z</time>
      </trkpt>
      <trkpt lat="43.74356" lon="7.07985">
        <ele>666</ele>
        <time>2023-08-02T07:22:39.000Z</time>
      </trkpt>
      <trkpt lat="43.74356" lon="7.07985">
        <ele>666</ele>
        <time>2023-08-02T07:22:40.000Z</time>
      </trkpt>
      <trkpt lat="43.74356" lon="7.07985">
        <ele>666</ele>
        <time>2023-08-02T07:22:41.000Z</time>
      </trkpt>
      <trkpt lat="43.74356" lon="7.07985">
        <ele>666</ele>
        <time>2023-08-02T07:22:42.000Z</time>
      </trkpt>
      <trkpt lat="43.74356" lon="7.07985">
        <ele>666</ele>
        <time>2023-08-02T07:22:43.000Z</time>
      </trkpt>
      <trkpt lat="43.74356" lon="7.07985">
        <ele>666</ele>
        <time>2023-08-02T07:22:44.000Z</time>
      </trkpt>
      <trkpt lat="43.74356" lon="7.07985">
        <ele>666</ele>
        <time>2023-08-02T07:22:45.000Z</time>
      </trkpt>
      <trkpt lat="43.74356" lon="7.07985">
        <ele>666</ele>
        <time>2023-08-02T07:22:46.000Z</time>
      </trkpt>
      <trkpt lat="43.74355" lon="7.07985">
        <ele>666</ele>
        <time>2023-08-02T07:22:47.000Z</time>
      </trkpt>
      <trkpt lat="43.74355" lon="7.07985">
        <ele>666</ele>
        <time>2023-08-02T07:22:48.000Z</time>
      </trkpt>
      <trkpt lat="43.74355" lon="7.07985">
        <ele>666</ele>
        <time>2023-08-02T07:22:49.000Z</time>
      </trkpt>
      <trkpt lat="43.74355" lon="7.07985">
        <ele>666</ele>
        <time>2023-08-02T07:22:50.000Z</time>
      </trkpt>
      <trkpt lat="43.74355" lon="7.07985">
        <ele>666</ele>
        <time>2023-08-02T07:22:51.000Z</time>
      </trkpt>
      <trkpt lat="43.74355" lon="7.07985">
        <ele>666</ele>
        <time>2023-08-02T07:22:52.000Z</time>
      </trkpt>
      <trkpt lat="43.74355" lon="7.07985">
        <ele>666</ele>
        <time>2023-08-02T07:22:53.000Z</time>
      </trkpt>
      <trkpt lat="43.74355" lon="7.07985">
        <ele>666</ele>
        <time>2023-08-02T07:22:54.000Z</time>
      </trkpt>
      <trkpt lat="43.74355" lon="7.07985">
        <ele>666</ele>
        <time>2023-08-02T07:22:55.000Z</time>
      </trkpt>
      <trkpt lat="43.74355" lon="7.07985">
        <ele>666</ele>
        <time>2023-08-02T07:22:56.000Z</time>
      </trkpt>
      <trkpt lat="43.74355" lon="7.07985">
        <ele>666</ele>
        <time>2023-08-02T07:22:57.000Z</time>
      </trkpt>
      <trkpt lat="43.74355" lon="7.07985">
        <ele>666</ele>
        <time>2023-08-02T07:22:58.000Z</time>
      </trkpt>
      <trkpt lat="43.74355" lon="7.07985">
        <ele>666</ele>
        <time>2023-08-02T07:22:59.000Z</time>
      </trkpt>
      <trkpt lat="43.74355" lon="7.07985">
        <ele>666</ele>
        <time>2023-08-02T07:23:00.000Z</time>
      </trkpt>
      <trkpt lat="43.74355" lon="7.07985">
        <ele>666</ele>
        <time>2023-08-02T07:23:01.000Z</time>
      </trkpt>
      <trkpt lat="43.74355" lon="7.07985">
        <ele>666</ele>
        <time>2023-08-02T07:23:02.000Z</time>
      </trkpt>
      <trkpt lat="43.74355" lon="7.07985">
        <ele>666</ele>
        <time>2023-08-02T07:23:03.000Z</time>
      </trkpt>
      <trkpt lat="43.74355" lon="7.07985">
        <ele>666</ele>
        <time>2023-08-02T07:23:04.000Z</time>
      </trkpt>
      <trkpt lat="43.74355" lon="7.07985">
        <ele>666</ele>
        <time>2023-08-02T07:23:05.000Z</time>
      </trkpt>
      <trkpt lat="43.74355" lon="7.07985">
        <ele>666</ele>
        <time>2023-08-02T07:23:06.000Z</time>
      </trkpt>
      <trkpt lat="43.74355" lon="7.07985">
        <ele>666</ele>
        <time>2023-08-02T07:23:07.000Z</time>
      </trkpt>
      <trkpt lat="43.74355" lon="7.07985">
        <ele>666</ele>
        <time>2023-08-02T07:23:08.000Z</time>
      </trkpt>
      <trkpt lat="43.74355" lon="7.07985">
        <ele>666</ele>
        <time>2023-08-02T07:23:09.000Z</time>
      </trkpt>
      <trkpt lat="43.74356" lon="7.07985">
        <ele>666</ele>
        <time>2023-08-02T07:23:10.000Z</time>
      </trkpt>
      <trkpt lat="43.74357" lon="7.07983">
        <ele>666</ele>
        <time>2023-08-02T07:23:11.000Z</time>
      </trkpt>
      <trkpt lat="43.74357" lon="7.07983">
        <ele>666</ele>
        <time>2023-08-02T07:23:12.000Z</time>
      </trkpt>
      <trkpt lat="43.74357" lon="7.07983">
        <ele>666</ele>
        <time>2023-08-02T07:23:13.000Z</time>
      </trkpt>
      <trkpt lat="43.74357" lon="7.07983">
        <ele>666</ele>
        <time>2023-08-02T07:23:14.000Z</time>
      </trkpt>
      <trkpt lat="43.74358" lon="7.07982">
        <ele>666</ele>
        <time>2023-08-02T07:23:15.000Z</time>
      </trkpt>
      <trkpt lat="43.74359" lon="7.07982">
        <ele>666</ele>
        <time>2023-08-02T07:23:16.000Z</time>
      </trkpt>
      <trkpt lat="43.7436" lon="7.07982">
        <ele>666</ele>
        <time>2023-08-02T07:23:17.000Z</time>
      </trkpt>
      <trkpt lat="43.7436" lon="7.07981">
        <ele>666</ele>
        <time>2023-08-02T07:23:18.000Z</time>
      </trkpt>
      <trkpt lat="43.74362" lon="7.0798">
        <ele>665.20001220703</ele>
        <time>2023-08-02T07:23:19.000Z</time>
      </trkpt>
      <trkpt lat="43.74363" lon="7.07979">
        <ele>665.59997558594</ele>
        <time>2023-08-02T07:23:20.000Z</time>
      </trkpt>
      <trkpt lat="43.74363" lon="7.07979">
        <ele>665.79998779297</ele>
        <time>2023-08-02T07:23:21.000Z</time>
      </trkpt>
      <trkpt lat="43.74363" lon="7.07978">
        <ele>666</ele>
        <time>2023-08-02T07:23:22.000Z</time>
      </trkpt>
      <trkpt lat="43.74364" lon="7.07978">
        <ele>666.20001220703</ele>
        <time>2023-08-02T07:23:23.000Z</time>
      </trkpt>
      <trkpt lat="43.74364" lon="7.07978">
        <ele>666.40002441406</ele>
        <time>2023-08-02T07:23:24.000Z</time>
      </trkpt>
      <trkpt lat="43.74365" lon="7.07979">
        <ele>666.59997558594</ele>
        <time>2023-08-02T07:23:25.000Z</time>
      </trkpt>
      <trkpt lat="43.74365" lon="7.07979">
        <ele>666.79998779297</ele>
        <time>2023-08-02T07:23:26.000Z</time>
      </trkpt>
      <trkpt lat="43.74366" lon="7.07979">
        <ele>666.79998779297</ele>
        <time>2023-08-02T07:23:27.000Z</time>
      </trkpt>
      <trkpt lat="43.74366" lon="7.07979">
        <ele>667</ele>
        <time>2023-08-02T07:23:28.000Z</time>
      </trkpt>
      <trkpt lat="43.74367" lon="7.07979">
        <ele>667.20001220703</ele>
        <time>2023-08-02T07:23:29.000Z</time>
      </trkpt>
      <trkpt lat="43.74367" lon="7.07979">
        <ele>667.40002441406</ele>
        <time>2023-08-02T07:23:30.000Z</time>
      </trkpt>
      <trkpt lat="43.74368" lon="7.07979">
        <ele>667.59997558594</ele>
        <time>2023-08-02T07:23:31.000Z</time>
      </trkpt>
      <trkpt lat="43.74368" lon="7.0798">
        <ele>667.59997558594</ele>
        <time>2023-08-02T07:23:32.000Z</time>
      </trkpt>
      <trkpt lat="43.74369" lon="7.07981">
        <ele>667.79998779297</ele>
        <time>2023-08-02T07:23:33.000Z</time>
      </trkpt>
      <trkpt lat="43.74369" lon="7.07981">
        <ele>668</ele>
        <time>2023-08-02T07:23:34.000Z</time>
      </trkpt>
      <trkpt lat="43.7437" lon="7.07982">
        <ele>668</ele>
        <time>2023-08-02T07:23:35.000Z</time>
      </trkpt>
      <trkpt lat="43.74371" lon="7.07983">
        <ele>668</ele>
        <time>2023-08-02T07:23:36.000Z</time>
      </trkpt>
      <trkpt lat="43.74372" lon="7.07983">
        <ele>668</ele>
        <time>2023-08-02T07:23:37.000Z</time>
      </trkpt>
      <trkpt lat="43.74373" lon="7.07984">
        <ele>668.40002441406</ele>
        <time>2023-08-02T07:23:38.000Z</time>
      </trkpt>
      <trkpt lat="43.74374" lon="7.07984">
        <ele>668.40002441406</ele>
        <time>2023-08-02T07:23:39.000Z</time>
      </trkpt>
      <trkpt lat="43.74374" lon="7.07984">
        <ele>668.59997558594</ele>
        <time>2023-08-02T07:23:40.000Z</time>
      </trkpt>
      <trkpt lat="43.74374" lon="7.07983">
        <ele>668.79998779297</ele>
        <time>2023-08-02T07:23:41.000Z</time>
      </trkpt>
      <trkpt lat="43.74375" lon="7.07983">
        <ele>669</ele>
        <time>2023-08-02T07:23:42.000Z</time>
      </trkpt>
      <trkpt lat="43.74375" lon="7.07982">
        <ele>669.20001220703</ele>
        <time>2023-08-02T07:23:43.000Z</time>
      </trkpt>
      <trkpt lat="43.74375" lon="7.07983">
        <ele>669.40002441406</ele>
        <time>2023-08-02T07:23:44.000Z</time>
      </trkpt>
      <trkpt lat="43.74375" lon="7.07982">
        <ele>669.40002441406</ele>
        <time>2023-08-02T07:23:45.000Z</time>
      </trkpt>
      <trkpt lat="43.74375" lon="7.07982">
        <ele>669.40002441406</ele>
        <time>2023-08-02T07:23:46.000Z</time>
      </trkpt>
      <trkpt lat="43.74376" lon="7.07983">
        <ele>669.59997558594</ele>
        <time>2023-08-02T07:23:47.000Z</time>
      </trkpt>
      <trkpt lat="43.74377" lon="7.07983">
        <ele>669.59997558594</ele>
        <time>2023-08-02T07:23:48.000Z</time>
      </trkpt>
      <trkpt lat="43.74377" lon="7.07982">
        <ele>669.79998779297</ele>
        <time>2023-08-02T07:23:49.000Z</time>
      </trkpt>
      <trkpt lat="43.74378" lon="7.07982">
        <ele>669.79998779297</ele>
        <time>2023-08-02T07:23:50.000Z</time>
      </trkpt>
      <trkpt lat="43.74379" lon="7.07981">
        <ele>670</ele>
        <time>2023-08-02T07:23:51.000Z</time>
      </trkpt>
      <trkpt lat="43.7438" lon="7.07981">
        <ele>670.20001220703</ele>
        <time>2023-08-02T07:23:52.000Z</time>
      </trkpt>
      <trkpt lat="43.7438" lon="7.07981">
        <ele>670.40002441406</ele>
        <time>2023-08-02T07:23:53.000Z</time>
      </trkpt>
      <trkpt lat="43.74381" lon="7.07981">
        <ele>670.59997558594</ele>
        <time>2023-08-02T07:23:54.000Z</time>
      </trkpt>
      <trkpt lat="43.74381" lon="7.0798">
        <ele>670.79998779297</ele>
        <time>2023-08-02T07:23:55.000Z</time>
      </trkpt>
      <trkpt lat="43.74382" lon="7.0798">
        <ele>671</ele>
        <time>2023-08-02T07:23:56.000Z</time>
      </trkpt>
      <trkpt lat="43.74382" lon="7.0798">
        <ele>671.20001220703</ele>
        <time>2023-08-02T07:23:57.000Z</time>
      </trkpt>
      <trkpt lat="43.74383" lon="7.07979">
        <ele>671.40002441406</ele>
        <time>2023-08-02T07:23:58.000Z</time>
      </trkpt>
      <trkpt lat="43.74384" lon="7.07979">
        <ele>671.59997558594</ele>
        <time>2023-08-02T07:23:59.000Z</time>
      </trkpt>
      <trkpt lat="43.74384" lon="7.07979">
        <ele>671.59997558594</ele>
        <time>2023-08-02T07:24:00.000Z</time>
      </trkpt>
      <trkpt lat="43.74385" lon="7.07979">
        <ele>671.79998779297</ele>
        <time>2023-08-02T07:24:01.000Z</time>
      </trkpt>
      <trkpt lat="43.74386" lon="7.07979">
        <ele>672</ele>
        <time>2023-08-02T07:24:02.000Z</time>
      </trkpt>
      <trkpt lat="43.74386" lon="7.07979">
        <ele>672</ele>
        <time>2023-08-02T07:24:03.000Z</time>
      </trkpt>
      <trkpt lat="43.74386" lon="7.07979">
        <ele>672.20001220703</ele>
        <time>2023-08-02T07:24:04.000Z</time>
      </trkpt>
      <trkpt lat="43.74387" lon="7.07979">
        <ele>672.40002441406</ele>
        <time>2023-08-02T07:24:05.000Z</time>
      </trkpt>
      <trkpt lat="43.74387" lon="7.0798">
        <ele>672.59997558594</ele>
        <time>2023-08-02T07:24:06.000Z</time>
      </trkpt>
      <trkpt lat="43.74388" lon="7.0798">
        <ele>672.79998779297</ele>
        <time>2023-08-02T07:24:07.000Z</time>
      </trkpt>
      <trkpt lat="43.74388" lon="7.07981">
        <ele>673</ele>
        <time>2023-08-02T07:24:08.000Z</time>
      </trkpt>
      <trkpt lat="43.74389" lon="7.07981">
        <ele>673.20001220703</ele>
        <time>2023-08-02T07:24:09.000Z</time>
      </trkpt>
      <trkpt lat="43.74389" lon="7.07982">
        <ele>673.20001220703</ele>
        <time>2023-08-02T07:24:10.000Z</time>
      </trkpt>
      <trkpt lat="43.74389" lon="7.07983">
        <ele>673.40002441406</ele>
        <time>2023-08-02T07:24:11.000Z</time>
      </trkpt>
      <trkpt lat="43.74389" lon="7.07984">
        <ele>673.79998779297</ele>
        <time>2023-08-02T07:24:12.000Z</time>
      </trkpt>
      <trkpt lat="43.74389" lon="7.07984">
        <ele>674</ele>
        <time>2023-08-02T07:24:13.000Z</time>
      </trkpt>
      <trkpt lat="43.74389" lon="7.07985">
        <ele>674.20001220703</ele>
        <time>2023-08-02T07:24:14.000Z</time>
      </trkpt>
      <trkpt lat="43.7439" lon="7.07986">
        <ele>674.40002441406</ele>
        <time>2023-08-02T07:24:15.000Z</time>
      </trkpt>
      <trkpt lat="43.7439" lon="7.07987">
        <ele>674.40002441406</ele>
        <time>2023-08-02T07:24:16.000Z</time>
      </trkpt>
      <trkpt lat="43.7439" lon="7.07987">
        <ele>674.59997558594</ele>
        <time>2023-08-02T07:24:17.000Z</time>
      </trkpt>
      <trkpt lat="43.74391" lon="7.07988">
        <ele>674.79998779297</ele>
        <time>2023-08-02T07:24:18.000Z</time>
      </trkpt>
      <trkpt lat="43.74391" lon="7.07989">
        <ele>675.20001220703</ele>
        <time>2023-08-02T07:24:19.000Z</time>
      </trkpt>
      <trkpt lat="43.74391" lon="7.0799">
        <ele>675.20001220703</ele>
        <time>2023-08-02T07:24:20.000Z</time>
      </trkpt>
      <trkpt lat="43.74392" lon="7.07991">
        <ele>675.40002441406</ele>
        <time>2023-08-02T07:24:21.000Z</time>
      </trkpt>
      <trkpt lat="43.74392" lon="7.07992">
        <ele>675.59997558594</ele>
        <time>2023-08-02T07:24:22.000Z</time>
      </trkpt>
      <trkpt lat="43.74393" lon="7.07993">
        <ele>675.79998779297</ele>
        <time>2023-08-02T07:24:23.000Z</time>
      </trkpt>
      <trkpt lat="43.74394" lon="7.07993">
        <ele>675.79998779297</ele>
        <time>2023-08-02T07:24:24.000Z</time>
      </trkpt>
      <trkpt lat="43.74395" lon="7.07993">
        <ele>676</ele>
        <time>2023-08-02T07:24:25.000Z</time>
      </trkpt>
      <trkpt lat="43.74395" lon="7.07993">
        <ele>676.20001220703</ele>
        <time>2023-08-02T07:24:26.000Z</time>
      </trkpt>
      <trkpt lat="43.74395" lon="7.07993">
        <ele>676.40002441406</ele>
        <time>2023-08-02T07:24:27.000Z</time>
      </trkpt>
      <trkpt lat="43.74395" lon="7.07994">
        <ele>676.59997558594</ele>
        <time>2023-08-02T07:24:28.000Z</time>
      </trkpt>
      <trkpt lat="43.74396" lon="7.07994">
        <ele>676.59997558594</ele>
        <time>2023-08-02T07:24:29.000Z</time>
      </trkpt>
      <trkpt lat="43.74396" lon="7.07995">
        <ele>676.79998779297</ele>
        <time>2023-08-02T07:24:30.000Z</time>
      </trkpt>
      <trkpt lat="43.74396" lon="7.07995">
        <ele>677</ele>
        <time>2023-08-02T07:24:31.000Z</time>
      </trkpt>
      <trkpt lat="43.74396" lon="7.07996">
        <ele>677.40002441406</ele>
        <time>2023-08-02T07:24:32.000Z</time>
      </trkpt>
      <trkpt lat="43.74397" lon="7.07997">
        <ele>677.40002441406</ele>
        <time>2023-08-02T07:24:33.000Z</time>
      </trkpt>
      <trkpt lat="43.74397" lon="7.07998">
        <ele>677.59997558594</ele>
        <time>2023-08-02T07:24:34.000Z</time>
      </trkpt>
      <trkpt lat="43.74397" lon="7.07998">
        <ele>677.59997558594</ele>
        <time>2023-08-02T07:24:35.000Z</time>
      </trkpt>
      <trkpt lat="43.74398" lon="7.07998">
        <ele>678</ele>
        <time>2023-08-02T07:24:36.000Z</time>
      </trkpt>
      <trkpt lat="43.74398" lon="7.07999">
        <ele>678.20001220703</ele>
        <time>2023-08-02T07:24:37.000Z</time>
      </trkpt>
      <trkpt lat="43.74399" lon="7.08">
        <ele>678.59997558594</ele>
        <time>2023-08-02T07:24:38.000Z</time>
      </trkpt>
      <trkpt lat="43.74399" lon="7.08001">
        <ele>678.79998779297</ele>
        <time>2023-08-02T07:24:39.000Z</time>
      </trkpt>
      <trkpt lat="43.74399" lon="7.08002">
        <ele>679.20001220703</ele>
        <time>2023-08-02T07:24:40.000Z</time>
      </trkpt>
      <trkpt lat="43.744" lon="7.08003">
        <ele>679.40002441406</ele>
        <time>2023-08-02T07:24:41.000Z</time>
      </trkpt>
      <trkpt lat="43.744" lon="7.08004">
        <ele>679.59997558594</ele>
        <time>2023-08-02T07:24:42.000Z</time>
      </trkpt>
      <trkpt lat="43.74401" lon="7.08004">
        <ele>679.79998779297</ele>
        <time>2023-08-02T07:24:43.000Z</time>
      </trkpt>
      <trkpt lat="43.74401" lon="7.08005">
        <ele>680</ele>
        <time>2023-08-02T07:24:44.000Z</time>
      </trkpt>
      <trkpt lat="43.74402" lon="7.08005">
        <ele>680.20001220703</ele>
        <time>2023-08-02T07:24:45.000Z</time>
      </trkpt>
      <trkpt lat="43.74402" lon="7.08006">
        <ele>680.20001220703</ele>
        <time>2023-08-02T07:24:46.000Z</time>
      </trkpt>
      <trkpt lat="43.74402" lon="7.08006">
        <ele>680.40002441406</ele>
        <time>2023-08-02T07:24:47.000Z</time>
      </trkpt>
      <trkpt lat="43.74403" lon="7.08007">
        <ele>680.40002441406</ele>
        <time>2023-08-02T07:24:48.000Z</time>
      </trkpt>
      <trkpt lat="43.74403" lon="7.08007">
        <ele>680.59997558594</ele>
        <time>2023-08-02T07:24:49.000Z</time>
      </trkpt>
      <trkpt lat="43.74403" lon="7.08008">
        <ele>680.79998779297</ele>
        <time>2023-08-02T07:24:50.000Z</time>
      </trkpt>
      <trkpt lat="43.74404" lon="7.08008">
        <ele>680.79998779297</ele>
        <time>2023-08-02T07:24:51.000Z</time>
      </trkpt>
      <trkpt lat="43.74404" lon="7.08008">
        <ele>681</ele>
        <time>2023-08-02T07:24:52.000Z</time>
      </trkpt>
      <trkpt lat="43.74404" lon="7.08008">
        <ele>681.20001220703</ele>
        <time>2023-08-02T07:24:53.000Z</time>
      </trkpt>
      <trkpt lat="43.74404" lon="7.08008">
        <ele>681.40002441406</ele>
        <time>2023-08-02T07:24:54.000Z</time>
      </trkpt>
      <trkpt lat="43.74404" lon="7.08007">
        <ele>681.59997558594</ele>
        <time>2023-08-02T07:24:55.000Z</time>
      </trkpt>
      <trkpt lat="43.74404" lon="7.08007">
        <ele>681.59997558594</ele>
        <time>2023-08-02T07:24:56.000Z</time>
      </trkpt>
      <trkpt lat="43.74404" lon="7.08007">
        <ele>681.79998779297</ele>
        <time>2023-08-02T07:24:57.000Z</time>
      </trkpt>
      <trkpt lat="43.74405" lon="7.08008">
        <ele>681.79998779297</ele>
        <time>2023-08-02T07:24:58.000Z</time>
      </trkpt>
      <trkpt lat="43.74406" lon="7.08007">
        <ele>682</ele>
        <time>2023-08-02T07:24:59.000Z</time>
      </trkpt>
      <trkpt lat="43.74406" lon="7.08007">
        <ele>682</ele>
        <time>2023-08-02T07:25:00.000Z</time>
      </trkpt>
      <trkpt lat="43.74407" lon="7.08007">
        <ele>682</ele>
        <time>2023-08-02T07:25:01.000Z</time>
      </trkpt>
      <trkpt lat="43.74407" lon="7.08007">
        <ele>682.20001220703</ele>
        <time>2023-08-02T07:25:02.000Z</time>
      </trkpt>
      <trkpt lat="43.74408" lon="7.08007">
        <ele>682.40002441406</ele>
        <time>2023-08-02T07:25:03.000Z</time>
      </trkpt>
      <trkpt lat="43.74408" lon="7.08006">
        <ele>682.40002441406</ele>
        <time>2023-08-02T07:25:04.000Z</time>
      </trkpt>
      <trkpt lat="43.74409" lon="7.08006">
        <ele>682.59997558594</ele>
        <time>2023-08-02T07:25:05.000Z</time>
      </trkpt>
      <trkpt lat="43.74409" lon="7.08006">
        <ele>683</ele>
        <time>2023-08-02T07:25:06.000Z</time>
      </trkpt>
      <trkpt lat="43.7441" lon="7.08006">
        <ele>683.20001220703</ele>
        <time>2023-08-02T07:25:07.000Z</time>
      </trkpt>
      <trkpt lat="43.7441" lon="7.08006">
        <ele>683.40002441406</ele>
        <time>2023-08-02T07:25:08.000Z</time>
      </trkpt>
      <trkpt lat="43.74411" lon="7.08006">
        <ele>683.79998779297</ele>
        <time>2023-08-02T07:25:09.000Z</time>
      </trkpt>
      <trkpt lat="43.74411" lon="7.08005">
        <ele>684</ele>
        <time>2023-08-02T07:25:10.000Z</time>
      </trkpt>
      <trkpt lat="43.74412" lon="7.08005">
        <ele>684.20001220703</ele>
        <time>2023-08-02T07:25:11.000Z</time>
      </trkpt>
      <trkpt lat="43.74413" lon="7.08004">
        <ele>684.20001220703</ele>
        <time>2023-08-02T07:25:12.000Z</time>
      </trkpt>
      <trkpt lat="43.74414" lon="7.08004">
        <ele>684.40002441406</ele>
        <time>2023-08-02T07:25:13.000Z</time>
      </trkpt>
      <trkpt lat="43.74415" lon="7.08003">
        <ele>684.59997558594</ele>
        <time>2023-08-02T07:25:14.000Z</time>
      </trkpt>
      <trkpt lat="43.74415" lon="7.08002">
        <ele>684.79998779297</ele>
        <time>2023-08-02T07:25:15.000Z</time>
      </trkpt>
      <trkpt lat="43.74416" lon="7.08002">
        <ele>685</ele>
        <time>2023-08-02T07:25:16.000Z</time>
      </trkpt>
      <trkpt lat="43.74416" lon="7.08001">
        <ele>685.20001220703</ele>
        <time>2023-08-02T07:25:17.000Z</time>
      </trkpt>
      <trkpt lat="43.74417" lon="7.08001">
        <ele>685.40002441406</ele>
        <time>2023-08-02T07:25:18.000Z</time>
      </trkpt>
      <trkpt lat="43.74418" lon="7.08">
        <ele>685.59997558594</ele>
        <time>2023-08-02T07:25:19.000Z</time>
      </trkpt>
      <trkpt lat="43.74418" lon="7.08">
        <ele>685.79998779297</ele>
        <time>2023-08-02T07:25:20.000Z</time>
      </trkpt>
      <trkpt lat="43.74419" lon="7.07999">
        <ele>685.79998779297</ele>
        <time>2023-08-02T07:25:21.000Z</time>
      </trkpt>
      <trkpt lat="43.74419" lon="7.07998">
        <ele>686</ele>
        <time>2023-08-02T07:25:22.000Z</time>
      </trkpt>
      <trkpt lat="43.7442" lon="7.07997">
        <ele>686.20001220703</ele>
        <time>2023-08-02T07:25:23.000Z</time>
      </trkpt>
      <trkpt lat="43.7442" lon="7.07996">
        <ele>686.40002441406</ele>
        <time>2023-08-02T07:25:24.000Z</time>
      </trkpt>
      <trkpt lat="43.74421" lon="7.07995">
        <ele>686.59997558594</ele>
        <time>2023-08-02T07:25:25.000Z</time>
      </trkpt>
      <trkpt lat="43.74421" lon="7.07993">
        <ele>686.79998779297</ele>
        <time>2023-08-02T07:25:26.000Z</time>
      </trkpt>
      <trkpt lat="43.74422" lon="7.07993">
        <ele>687</ele>
        <time>2023-08-02T07:25:27.000Z</time>
      </trkpt>
      <trkpt lat="43.74422" lon="7.07992">
        <ele>687.20001220703</ele>
        <time>2023-08-02T07:25:28.000Z</time>
      </trkpt>
      <trkpt lat="43.74422" lon="7.07993">
        <ele>687.20001220703</ele>
        <time>2023-08-02T07:25:29.000Z</time>
      </trkpt>
      <trkpt lat="43.74422" lon="7.07993">
        <ele>687.40002441406</ele>
        <time>2023-08-02T07:25:30.000Z</time>
      </trkpt>
      <trkpt lat="43.74422" lon="7.07993">
        <ele>687.40002441406</ele>
        <time>2023-08-02T07:25:31.000Z</time>
      </trkpt>
      <trkpt lat="43.74422" lon="7.07993">
        <ele>687.40002441406</ele>
        <time>2023-08-02T07:25:32.000Z</time>
      </trkpt>
      <trkpt lat="43.74422" lon="7.07993">
        <ele>687.40002441406</ele>
        <time>2023-08-02T07:25:33.000Z</time>
      </trkpt>
      <trkpt lat="43.74422" lon="7.07993">
        <ele>687.40002441406</ele>
        <time>2023-08-02T07:25:34.000Z</time>
      </trkpt>
      <trkpt lat="43.74422" lon="7.07993">
        <ele>687.20001220703</ele>
        <time>2023-08-02T07:25:35.000Z</time>
      </trkpt>
      <trkpt lat="43.74422" lon="7.07993">
        <ele>687.20001220703</ele>
        <time>2023-08-02T07:25:36.000Z</time>
      </trkpt>
      <trkpt lat="43.74422" lon="7.07993">
        <ele>687.20001220703</ele>
        <time>2023-08-02T07:25:37.000Z</time>
      </trkpt>
      <trkpt lat="43.74422" lon="7.07993">
        <ele>687.20001220703</ele>
        <time>2023-08-02T07:25:38.000Z</time>
      </trkpt>
      <trkpt lat="43.74422" lon="7.07993">
        <ele>687.20001220703</ele>
        <time>2023-08-02T07:25:39.000Z</time>
      </trkpt>
      <trkpt lat="43.74422" lon="7.07993">
        <ele>687.20001220703</ele>
        <time>2023-08-02T07:25:40.000Z</time>
      </trkpt>
      <trkpt lat="43.74422" lon="7.07993">
        <ele>687.20001220703</ele>
        <time>2023-08-02T07:25:41.000Z</time>
      </trkpt>
      <trkpt lat="43.74422" lon="7.07993">
        <ele>687.20001220703</ele>
        <time>2023-08-02T07:25:42.000Z</time>
      </trkpt>
      <trkpt lat="43.74422" lon="7.07993">
        <ele>687.20001220703</ele>
        <time>2023-08-02T07:25:43.000Z</time>
      </trkpt>
      <trkpt lat="43.74422" lon="7.07993">
        <ele>687.20001220703</ele>
        <time>2023-08-02T07:25:44.000Z</time>
      </trkpt>
      <trkpt lat="43.74422" lon="7.07993">
        <ele>687.20001220703</ele>
        <time>2023-08-02T07:25:45.000Z</time>
      </trkpt>
      <trkpt lat="43.74422" lon="7.07993">
        <ele>687.20001220703</ele>
        <time>2023-08-02T07:25:46.000Z</time>
      </trkpt>
      <trkpt lat="43.74422" lon="7.07993">
        <ele>687.20001220703</ele>
        <time>2023-08-02T07:25:47.000Z</time>
      </trkpt>
      <trkpt lat="43.74422" lon="7.07993">
        <ele>687.20001220703</ele>
        <time>2023-08-02T07:25:48.000Z</time>
      </trkpt>
      <trkpt lat="43.74422" lon="7.07993">
        <ele>687.20001220703</ele>
        <time>2023-08-02T07:25:49.000Z</time>
      </trkpt>
      <trkpt lat="43.74422" lon="7.07993">
        <ele>687.20001220703</ele>
        <time>2023-08-02T07:25:50.000Z</time>
      </trkpt>
      <trkpt lat="43.74422" lon="7.07993">
        <ele>687.20001220703</ele>
        <time>2023-08-02T07:25:51.000Z</time>
      </trkpt>
      <trkpt lat="43.74422" lon="7.07993">
        <ele>687.20001220703</ele>
        <time>2023-08-02T07:25:52.000Z</time>
      </trkpt>
      <trkpt lat="43.74422" lon="7.07993">
        <ele>687.20001220703</ele>
        <time>2023-08-02T07:25:53.000Z</time>
      </trkpt>
      <trkpt lat="43.74422" lon="7.07993">
        <ele>687.20001220703</ele>
        <time>2023-08-02T07:25:54.000Z</time>
      </trkpt>
      <trkpt lat="43.74422" lon="7.07993">
        <ele>687.20001220703</ele>
        <time>2023-08-02T07:25:55.000Z</time>
      </trkpt>
      <trkpt lat="43.74422" lon="7.07993">
        <ele>687.20001220703</ele>
        <time>2023-08-02T07:25:56.000Z</time>
      </trkpt>
      <trkpt lat="43.74422" lon="7.07993">
        <ele>687.20001220703</ele>
        <time>2023-08-02T07:25:57.000Z</time>
      </trkpt>
      <trkpt lat="43.74422" lon="7.07993">
        <ele>687.20001220703</ele>
        <time>2023-08-02T07:25:58.000Z</time>
      </trkpt>
      <trkpt lat="43.74422" lon="7.07993">
        <ele>687.20001220703</ele>
        <time>2023-08-02T07:25:59.000Z</time>
      </trkpt>
      <trkpt lat="43.74422" lon="7.07993">
        <ele>687.20001220703</ele>
        <time>2023-08-02T07:26:00.000Z</time>
      </trkpt>
      <trkpt lat="43.74422" lon="7.07993">
        <ele>687.20001220703</ele>
        <time>2023-08-02T07:26:01.000Z</time>
      </trkpt>
      <trkpt lat="43.74422" lon="7.07993">
        <ele>687.20001220703</ele>
        <time>2023-08-02T07:26:02.000Z</time>
      </trkpt>
      <trkpt lat="43.74422" lon="7.07993">
        <ele>687.20001220703</ele>
        <time>2023-08-02T07:26:03.000Z</time>
      </trkpt>
      <trkpt lat="43.74422" lon="7.07993">
        <ele>687.20001220703</ele>
        <time>2023-08-02T07:26:04.000Z</time>
      </trkpt>
      <trkpt lat="43.74422" lon="7.07993">
        <ele>687.20001220703</ele>
        <time>2023-08-02T07:26:05.000Z</time>
      </trkpt>
      <trkpt lat="43.74422" lon="7.07993">
        <ele>687.20001220703</ele>
        <time>2023-08-02T07:26:06.000Z</time>
      </trkpt>
      <trkpt lat="43.74422" lon="7.07993">
        <ele>687.20001220703</ele>
        <time>2023-08-02T07:26:07.000Z</time>
      </trkpt>
      <trkpt lat="43.74422" lon="7.07993">
        <ele>687.20001220703</ele>
        <time>2023-08-02T07:26:08.000Z</time>
      </trkpt>
      <trkpt lat="43.74422" lon="7.07993">
        <ele>687.20001220703</ele>
        <time>2023-08-02T07:26:09.000Z</time>
      </trkpt>
      <trkpt lat="43.74422" lon="7.07993">
        <ele>687.20001220703</ele>
        <time>2023-08-02T07:26:10.000Z</time>
      </trkpt>
      <trkpt lat="43.74422" lon="7.07993">
        <ele>687</ele>
        <time>2023-08-02T07:26:11.000Z</time>
      </trkpt>
      <trkpt lat="43.74422" lon="7.07993">
        <ele>687</ele>
        <time>2023-08-02T07:26:12.000Z</time>
      </trkpt>
      <trkpt lat="43.74422" lon="7.07993">
        <ele>687</ele>
        <time>2023-08-02T07:26:13.000Z</time>
      </trkpt>
      <trkpt lat="43.74422" lon="7.07993">
        <ele>687</ele>
        <time>2023-08-02T07:26:14.000Z</time>
      </trkpt>
      <trkpt lat="43.74422" lon="7.07993">
        <ele>687</ele>
        <time>2023-08-02T07:26:15.000Z</time>
      </trkpt>
      <trkpt lat="43.74422" lon="7.07993">
        <ele>687</ele>
        <time>2023-08-02T07:26:16.000Z</time>
      </trkpt>
      <trkpt lat="43.74422" lon="7.07993">
        <ele>687</ele>
        <time>2023-08-02T07:26:17.000Z</time>
      </trkpt>
      <trkpt lat="43.74422" lon="7.07993">
        <ele>687</ele>
        <time>2023-08-02T07:26:18.000Z</time>
      </trkpt>
      <trkpt lat="43.74422" lon="7.07993">
        <ele>687</ele>
        <time>2023-08-02T07:26:19.000Z</time>
      </trkpt>
      <trkpt lat="43.74422" lon="7.07993">
        <ele>687</ele>
        <time>2023-08-02T07:26:20.000Z</time>
      </trkpt>
      <trkpt lat="43.74422" lon="7.07993">
        <ele>687</ele>
        <time>2023-08-02T07:26:21.000Z</time>
      </trkpt>
      <trkpt lat="43.74422" lon="7.07993">
        <ele>687</ele>
        <time>2023-08-02T07:26:22.000Z</time>
      </trkpt>
      <trkpt lat="43.74422" lon="7.07993">
        <ele>687</ele>
        <time>2023-08-02T07:26:23.000Z</time>
      </trkpt>
      <trkpt lat="43.74422" lon="7.07993">
        <ele>687</ele>
        <time>2023-08-02T07:26:24.000Z</time>
      </trkpt>
      <trkpt lat="43.74422" lon="7.07993">
        <ele>687</ele>
        <time>2023-08-02T07:26:25.000Z</time>
      </trkpt>
      <trkpt lat="43.74422" lon="7.07993">
        <ele>687</ele>
        <time>2023-08-02T07:26:26.000Z</time>
      </trkpt>
      <trkpt lat="43.74422" lon="7.07993">
        <ele>687</ele>
        <time>2023-08-02T07:26:27.000Z</time>
      </trkpt>
      <trkpt lat="43.74422" lon="7.07993">
        <ele>687.20001220703</ele>
        <time>2023-08-02T07:26:28.000Z</time>
      </trkpt>
      <trkpt lat="43.74422" lon="7.07993">
        <ele>687.20001220703</ele>
        <time>2023-08-02T07:26:29.000Z</time>
      </trkpt>
      <trkpt lat="43.74422" lon="7.07993">
        <ele>687.20001220703</ele>
        <time>2023-08-02T07:26:30.000Z</time>
      </trkpt>
      <trkpt lat="43.74422" lon="7.07993">
        <ele>687.20001220703</ele>
        <time>2023-08-02T07:26:31.000Z</time>
      </trkpt>
      <trkpt lat="43.74422" lon="7.07993">
        <ele>687.20001220703</ele>
        <time>2023-08-02T07:26:32.000Z</time>
      </trkpt>
      <trkpt lat="43.74422" lon="7.07993">
        <ele>687.20001220703</ele>
        <time>2023-08-02T07:26:33.000Z</time>
      </trkpt>
      <trkpt lat="43.74422" lon="7.07993">
        <ele>687.20001220703</ele>
        <time>2023-08-02T07:26:34.000Z</time>
      </trkpt>
      <trkpt lat="43.74422" lon="7.07993">
        <ele>687.20001220703</ele>
        <time>2023-08-02T07:26:35.000Z</time>
      </trkpt>
      <trkpt lat="43.74422" lon="7.07993">
        <ele>687.20001220703</ele>
        <time>2023-08-02T07:26:36.000Z</time>
      </trkpt>
      <trkpt lat="43.74422" lon="7.07993">
        <ele>687.20001220703</ele>
        <time>2023-08-02T07:26:37.000Z</time>
      </trkpt>
      <trkpt lat="43.74422" lon="7.07993">
        <ele>687.20001220703</ele>
        <time>2023-08-02T07:26:38.000Z</time>
      </trkpt>
      <trkpt lat="43.74422" lon="7.07993">
        <ele>687.20001220703</ele>
        <time>2023-08-02T07:26:39.000Z</time>
      </trkpt>
      <trkpt lat="43.74422" lon="7.07993">
        <ele>687.20001220703</ele>
        <time>2023-08-02T07:26:40.000Z</time>
      </trkpt>
      <trkpt lat="43.74422" lon="7.07993">
        <ele>687.20001220703</ele>
        <time>2023-08-02T07:26:41.000Z</time>
      </trkpt>
      <trkpt lat="43.74422" lon="7.07993">
        <ele>687.20001220703</ele>
        <time>2023-08-02T07:26:42.000Z</time>
      </trkpt>
      <trkpt lat="43.74422" lon="7.07993">
        <ele>687.20001220703</ele>
        <time>2023-08-02T07:26:43.000Z</time>
      </trkpt>
      <trkpt lat="43.74422" lon="7.07993">
        <ele>687.20001220703</ele>
        <time>2023-08-02T07:26:44.000Z</time>
      </trkpt>
      <trkpt lat="43.74422" lon="7.07993">
        <ele>687.20001220703</ele>
        <time>2023-08-02T07:26:45.000Z</time>
      </trkpt>
      <trkpt lat="43.74422" lon="7.07993">
        <ele>687.20001220703</ele>
        <time>2023-08-02T07:26:46.000Z</time>
      </trkpt>
      <trkpt lat="43.74422" lon="7.07993">
        <ele>687.20001220703</ele>
        <time>2023-08-02T07:26:47.000Z</time>
      </trkpt>
      <trkpt lat="43.74422" lon="7.07993">
        <ele>687.20001220703</ele>
        <time>2023-08-02T07:26:48.000Z</time>
      </trkpt>
      <trkpt lat="43.74422" lon="7.07993">
        <ele>687.20001220703</ele>
        <time>2023-08-02T07:26:49.000Z</time>
      </trkpt>
      <trkpt lat="43.74422" lon="7.07993">
        <ele>687.20001220703</ele>
        <time>2023-08-02T07:26:50.000Z</time>
      </trkpt>
      <trkpt lat="43.74422" lon="7.07993">
        <ele>687.20001220703</ele>
        <time>2023-08-02T07:26:51.000Z</time>
      </trkpt>
      <trkpt lat="43.74422" lon="7.07993">
        <ele>687.20001220703</ele>
        <time>2023-08-02T07:26:52.000Z</time>
      </trkpt>
      <trkpt lat="43.74422" lon="7.07993">
        <ele>687.20001220703</ele>
        <time>2023-08-02T07:26:53.000Z</time>
      </trkpt>
      <trkpt lat="43.74422" lon="7.07993">
        <ele>687.20001220703</ele>
        <time>2023-08-02T07:26:54.000Z</time>
      </trkpt>
      <trkpt lat="43.74422" lon="7.07993">
        <ele>687.20001220703</ele>
        <time>2023-08-02T07:26:55.000Z</time>
      </trkpt>
      <trkpt lat="43.74422" lon="7.07993">
        <ele>687.20001220703</ele>
        <time>2023-08-02T07:26:56.000Z</time>
      </trkpt>
      <trkpt lat="43.74422" lon="7.07993">
        <ele>687.20001220703</ele>
        <time>2023-08-02T07:26:57.000Z</time>
      </trkpt>
      <trkpt lat="43.74422" lon="7.07993">
        <ele>687.20001220703</ele>
        <time>2023-08-02T07:26:58.000Z</time>
      </trkpt>
      <trkpt lat="43.74422" lon="7.07993">
        <ele>687.20001220703</ele>
        <time>2023-08-02T07:26:59.000Z</time>
      </trkpt>
      <trkpt lat="43.74422" lon="7.07993">
        <ele>687.20001220703</ele>
        <time>2023-08-02T07:27:00.000Z</time>
      </trkpt>
      <trkpt lat="43.74422" lon="7.07993">
        <ele>687.20001220703</ele>
        <time>2023-08-02T07:27:01.000Z</time>
      </trkpt>
      <trkpt lat="43.74422" lon="7.07993">
        <ele>687.20001220703</ele>
        <time>2023-08-02T07:27:02.000Z</time>
      </trkpt>
      <trkpt lat="43.74422" lon="7.07993">
        <ele>687.20001220703</ele>
        <time>2023-08-02T07:27:03.000Z</time>
      </trkpt>
      <trkpt lat="43.74422" lon="7.07993">
        <ele>687.20001220703</ele>
        <time>2023-08-02T07:27:04.000Z</time>
      </trkpt>
      <trkpt lat="43.74422" lon="7.07993">
        <ele>687.20001220703</ele>
        <time>2023-08-02T07:27:05.000Z</time>
      </trkpt>
      <trkpt lat="43.74422" lon="7.07993">
        <ele>687.20001220703</ele>
        <time>2023-08-02T07:27:06.000Z</time>
      </trkpt>
      <trkpt lat="43.74422" lon="7.07993">
        <ele>687.20001220703</ele>
        <time>2023-08-02T07:27:07.000Z</time>
      </trkpt>
      <trkpt lat="43.74422" lon="7.07993">
        <ele>687.20001220703</ele>
        <time>2023-08-02T07:27:08.000Z</time>
      </trkpt>
      <trkpt lat="43.74422" lon="7.07993">
        <ele>687.20001220703</ele>
        <time>2023-08-02T07:27:09.000Z</time>
      </trkpt>
      <trkpt lat="43.74422" lon="7.07993">
        <ele>687.20001220703</ele>
        <time>2023-08-02T07:27:10.000Z</time>
      </trkpt>
      <trkpt lat="43.74422" lon="7.07993">
        <ele>687.20001220703</ele>
        <time>2023-08-02T07:27:11.000Z</time>
      </trkpt>
      <trkpt lat="43.74422" lon="7.07993">
        <ele>687.20001220703</ele>
        <time>2023-08-02T07:27:12.000Z</time>
      </trkpt>
      <trkpt lat="43.74422" lon="7.07993">
        <ele>687.20001220703</ele>
        <time>2023-08-02T07:27:13.000Z</time>
      </trkpt>
      <trkpt lat="43.74422" lon="7.07993">
        <ele>687.20001220703</ele>
        <time>2023-08-02T07:27:14.000Z</time>
      </trkpt>
      <trkpt lat="43.74422" lon="7.07993">
        <ele>687.20001220703</ele>
        <time>2023-08-02T07:27:15.000Z</time>
      </trkpt>
      <trkpt lat="43.74422" lon="7.07993">
        <ele>687.20001220703</ele>
        <time>2023-08-02T07:27:16.000Z</time>
      </trkpt>
      <trkpt lat="43.74422" lon="7.07993">
        <ele>687.20001220703</ele>
        <time>2023-08-02T07:27:17.000Z</time>
      </trkpt>
      <trkpt lat="43.74422" lon="7.07993">
        <ele>687.20001220703</ele>
        <time>2023-08-02T07:27:18.000Z</time>
      </trkpt>
      <trkpt lat="43.74422" lon="7.07993">
        <ele>687.20001220703</ele>
        <time>2023-08-02T07:27:19.000Z</time>
      </trkpt>
      <trkpt lat="43.74422" lon="7.07993">
        <ele>687.20001220703</ele>
        <time>2023-08-02T07:27:20.000Z</time>
      </trkpt>
      <trkpt lat="43.74422" lon="7.07993">
        <ele>687.20001220703</ele>
        <time>2023-08-02T07:27:21.000Z</time>
      </trkpt>
      <trkpt lat="43.74422" lon="7.07993">
        <ele>687.20001220703</ele>
        <time>2023-08-02T07:27:22.000Z</time>
      </trkpt>
      <trkpt lat="43.74422" lon="7.07993">
        <ele>687.20001220703</ele>
        <time>2023-08-02T07:27:23.000Z</time>
      </trkpt>
      <trkpt lat="43.74422" lon="7.07993">
        <ele>687.20001220703</ele>
        <time>2023-08-02T07:27:24.000Z</time>
      </trkpt>
      <trkpt lat="43.74422" lon="7.07993">
        <ele>687.20001220703</ele>
        <time>2023-08-02T07:27:25.000Z</time>
      </trkpt>
      <trkpt lat="43.74422" lon="7.07993">
        <ele>687.20001220703</ele>
        <time>2023-08-02T07:27:26.000Z</time>
      </trkpt>
      <trkpt lat="43.74422" lon="7.07993">
        <ele>687.20001220703</ele>
        <time>2023-08-02T07:27:27.000Z</time>
      </trkpt>
      <trkpt lat="43.74422" lon="7.07993">
        <ele>687.20001220703</ele>
        <time>2023-08-02T07:27:28.000Z</time>
      </trkpt>
      <trkpt lat="43.74422" lon="7.07993">
        <ele>687.20001220703</ele>
        <time>2023-08-02T07:27:29.000Z</time>
      </trkpt>
      <trkpt lat="43.74422" lon="7.07993">
        <ele>687.20001220703</ele>
        <time>2023-08-02T07:27:30.000Z</time>
      </trkpt>
      <trkpt lat="43.74422" lon="7.07993">
        <ele>687.20001220703</ele>
        <time>2023-08-02T07:27:31.000Z</time>
      </trkpt>
      <trkpt lat="43.74422" lon="7.07993">
        <ele>687.20001220703</ele>
        <time>2023-08-02T07:27:32.000Z</time>
      </trkpt>
      <trkpt lat="43.74422" lon="7.07993">
        <ele>687.20001220703</ele>
        <time>2023-08-02T07:27:33.000Z</time>
      </trkpt>
      <trkpt lat="43.74422" lon="7.07993">
        <ele>687.20001220703</ele>
        <time>2023-08-02T07:27:34.000Z</time>
      </trkpt>
      <trkpt lat="43.74422" lon="7.07993">
        <ele>687.20001220703</ele>
        <time>2023-08-02T07:27:35.000Z</time>
      </trkpt>
      <trkpt lat="43.74422" lon="7.07993">
        <ele>687.20001220703</ele>
        <time>2023-08-02T07:27:36.000Z</time>
      </trkpt>
      <trkpt lat="43.74422" lon="7.07993">
        <ele>687.20001220703</ele>
        <time>2023-08-02T07:27:37.000Z</time>
      </trkpt>
      <trkpt lat="43.74422" lon="7.07993">
        <ele>687.20001220703</ele>
        <time>2023-08-02T07:27:38.000Z</time>
      </trkpt>
      <trkpt lat="43.74422" lon="7.07993">
        <ele>687.20001220703</ele>
        <time>2023-08-02T07:27:39.000Z</time>
      </trkpt>
      <trkpt lat="43.74422" lon="7.07993">
        <ele>687.20001220703</ele>
        <time>2023-08-02T07:27:40.000Z</time>
      </trkpt>
      <trkpt lat="43.74422" lon="7.07993">
        <ele>687.20001220703</ele>
        <time>2023-08-02T07:27:41.000Z</time>
      </trkpt>
      <trkpt lat="43.74422" lon="7.07993">
        <ele>687.20001220703</ele>
        <time>2023-08-02T07:27:42.000Z</time>
      </trkpt>
      <trkpt lat="43.74422" lon="7.07993">
        <ele>687.20001220703</ele>
        <time>2023-08-02T07:27:43.000Z</time>
      </trkpt>
      <trkpt lat="43.74422" lon="7.07993">
        <ele>687.20001220703</ele>
        <time>2023-08-02T07:27:44.000Z</time>
      </trkpt>
      <trkpt lat="43.74422" lon="7.07993">
        <ele>687.20001220703</ele>
        <time>2023-08-02T07:27:45.000Z</time>
      </trkpt>
      <trkpt lat="43.74422" lon="7.07993">
        <ele>687.20001220703</ele>
        <time>2023-08-02T07:27:46.000Z</time>
      </trkpt>
      <trkpt lat="43.74422" lon="7.07993">
        <ele>687.20001220703</ele>
        <time>2023-08-02T07:27:47.000Z</time>
      </trkpt>
      <trkpt lat="43.74422" lon="7.07993">
        <ele>687.20001220703</ele>
        <time>2023-08-02T07:27:48.000Z</time>
      </trkpt>
      <trkpt lat="43.74422" lon="7.07993">
        <ele>687.20001220703</ele>
        <time>2023-08-02T07:27:49.000Z</time>
      </trkpt>
      <trkpt lat="43.74422" lon="7.07993">
        <ele>687.20001220703</ele>
        <time>2023-08-02T07:27:50.000Z</time>
      </trkpt>
      <trkpt lat="43.74422" lon="7.07993">
        <ele>687.20001220703</ele>
        <time>2023-08-02T07:27:51.000Z</time>
      </trkpt>
      <trkpt lat="43.74422" lon="7.07993">
        <ele>687.20001220703</ele>
        <time>2023-08-02T07:27:52.000Z</time>
      </trkpt>
      <trkpt lat="43.74422" lon="7.07993">
        <ele>687.20001220703</ele>
        <time>2023-08-02T07:27:53.000Z</time>
      </trkpt>
      <trkpt lat="43.74422" lon="7.07993">
        <ele>687.20001220703</ele>
        <time>2023-08-02T07:27:54.000Z</time>
      </trkpt>
      <trkpt lat="43.74422" lon="7.07993">
        <ele>687.20001220703</ele>
        <time>2023-08-02T07:27:55.000Z</time>
      </trkpt>
      <trkpt lat="43.74422" lon="7.07993">
        <ele>687.20001220703</ele>
        <time>2023-08-02T07:27:56.000Z</time>
      </trkpt>
      <trkpt lat="43.74422" lon="7.07993">
        <ele>687.20001220703</ele>
        <time>2023-08-02T07:27:57.000Z</time>
      </trkpt>
      <trkpt lat="43.74422" lon="7.07993">
        <ele>687.20001220703</ele>
        <time>2023-08-02T07:27:58.000Z</time>
      </trkpt>
      <trkpt lat="43.74422" lon="7.07993">
        <ele>687.20001220703</ele>
        <time>2023-08-02T07:27:59.000Z</time>
      </trkpt>
      <trkpt lat="43.74422" lon="7.07993">
        <ele>687.20001220703</ele>
        <time>2023-08-02T07:28:00.000Z</time>
      </trkpt>
      <trkpt lat="43.74422" lon="7.07993">
        <ele>687.20001220703</ele>
        <time>2023-08-02T07:28:01.000Z</time>
      </trkpt>
      <trkpt lat="43.74422" lon="7.07993">
        <ele>687.20001220703</ele>
        <time>2023-08-02T07:28:02.000Z</time>
      </trkpt>
      <trkpt lat="43.74422" lon="7.07993">
        <ele>687.20001220703</ele>
        <time>2023-08-02T07:28:03.000Z</time>
      </trkpt>
      <trkpt lat="43.74422" lon="7.07993">
        <ele>687.20001220703</ele>
        <time>2023-08-02T07:28:04.000Z</time>
      </trkpt>
      <trkpt lat="43.74422" lon="7.07993">
        <ele>687.20001220703</ele>
        <time>2023-08-02T07:28:05.000Z</time>
      </trkpt>
      <trkpt lat="43.74422" lon="7.07993">
        <ele>687.20001220703</ele>
        <time>2023-08-02T07:28:06.000Z</time>
      </trkpt>
      <trkpt lat="43.74422" lon="7.07993">
        <ele>687.20001220703</ele>
        <time>2023-08-02T07:28:07.000Z</time>
      </trkpt>
      <trkpt lat="43.74422" lon="7.07993">
        <ele>687.20001220703</ele>
        <time>2023-08-02T07:28:08.000Z</time>
      </trkpt>
      <trkpt lat="43.74422" lon="7.07993">
        <ele>687.20001220703</ele>
        <time>2023-08-02T07:28:09.000Z</time>
      </trkpt>
      <trkpt lat="43.74422" lon="7.07993">
        <ele>687.20001220703</ele>
        <time>2023-08-02T07:28:10.000Z</time>
      </trkpt>
      <trkpt lat="43.74422" lon="7.07993">
        <ele>687.20001220703</ele>
        <time>2023-08-02T07:28:11.000Z</time>
      </trkpt>
      <trkpt lat="43.74422" lon="7.07993">
        <ele>687.20001220703</ele>
        <time>2023-08-02T07:28:12.000Z</time>
      </trkpt>
      <trkpt lat="43.74422" lon="7.07993">
        <ele>687.20001220703</ele>
        <time>2023-08-02T07:28:13.000Z</time>
      </trkpt>
      <trkpt lat="43.74422" lon="7.07993">
        <ele>687.20001220703</ele>
        <time>2023-08-02T07:28:14.000Z</time>
      </trkpt>
      <trkpt lat="43.74422" lon="7.07993">
        <ele>687.20001220703</ele>
        <time>2023-08-02T07:28:15.000Z</time>
      </trkpt>
      <trkpt lat="43.74422" lon="7.07993">
        <ele>687.20001220703</ele>
        <time>2023-08-02T07:28:16.000Z</time>
      </trkpt>
      <trkpt lat="43.74422" lon="7.07993">
        <ele>687.20001220703</ele>
        <time>2023-08-02T07:28:17.000Z</time>
      </trkpt>
      <trkpt lat="43.74422" lon="7.07993">
        <ele>687.20001220703</ele>
        <time>2023-08-02T07:28:18.000Z</time>
      </trkpt>
      <trkpt lat="43.74422" lon="7.07993">
        <ele>687.20001220703</ele>
        <time>2023-08-02T07:28:19.000Z</time>
      </trkpt>
      <trkpt lat="43.74422" lon="7.07993">
        <ele>687.20001220703</ele>
        <time>2023-08-02T07:28:20.000Z</time>
      </trkpt>
      <trkpt lat="43.74422" lon="7.07994">
        <ele>687.20001220703</ele>
        <time>2023-08-02T07:28:21.000Z</time>
      </trkpt>
      <trkpt lat="43.74422" lon="7.07993">
        <ele>687.20001220703</ele>
        <time>2023-08-02T07:28:22.000Z</time>
      </trkpt>
      <trkpt lat="43.74422" lon="7.07993">
        <ele>687.20001220703</ele>
        <time>2023-08-02T07:28:23.000Z</time>
      </trkpt>
      <trkpt lat="43.74422" lon="7.07993">
        <ele>687.20001220703</ele>
        <time>2023-08-02T07:28:24.000Z</time>
      </trkpt>
      <trkpt lat="43.74422" lon="7.07993">
        <ele>687.20001220703</ele>
        <time>2023-08-02T07:28:25.000Z</time>
      </trkpt>
      <trkpt lat="43.74422" lon="7.07993">
        <ele>687.20001220703</ele>
        <time>2023-08-02T07:28:26.000Z</time>
      </trkpt>
      <trkpt lat="43.74422" lon="7.07993">
        <ele>687.20001220703</ele>
        <time>2023-08-02T07:28:27.000Z</time>
      </trkpt>
      <trkpt lat="43.74422" lon="7.07993">
        <ele>687.20001220703</ele>
        <time>2023-08-02T07:28:28.000Z</time>
      </trkpt>
      <trkpt lat="43.74422" lon="7.07993">
        <ele>687.20001220703</ele>
        <time>2023-08-02T07:28:29.000Z</time>
      </trkpt>
      <trkpt lat="43.74422" lon="7.07993">
        <ele>687.20001220703</ele>
        <time>2023-08-02T07:28:30.000Z</time>
      </trkpt>
      <trkpt lat="43.74422" lon="7.07993">
        <ele>687.20001220703</ele>
        <time>2023-08-02T07:28:31.000Z</time>
      </trkpt>
      <trkpt lat="43.74422" lon="7.07993">
        <ele>687.20001220703</ele>
        <time>2023-08-02T07:28:32.000Z</time>
      </trkpt>
      <trkpt lat="43.74422" lon="7.07993">
        <ele>687.20001220703</ele>
        <time>2023-08-02T07:28:33.000Z</time>
      </trkpt>
      <trkpt lat="43.74422" lon="7.07993">
        <ele>687.20001220703</ele>
        <time>2023-08-02T07:28:34.000Z</time>
      </trkpt>
      <trkpt lat="43.74422" lon="7.07993">
        <ele>687.20001220703</ele>
        <time>2023-08-02T07:28:35.000Z</time>
      </trkpt>
      <trkpt lat="43.74422" lon="7.07993">
        <ele>687.20001220703</ele>
        <time>2023-08-02T07:28:36.000Z</time>
      </trkpt>
      <trkpt lat="43.74422" lon="7.07993">
        <ele>687.20001220703</ele>
        <time>2023-08-02T07:28:37.000Z</time>
      </trkpt>
      <trkpt lat="43.74422" lon="7.07993">
        <ele>687.20001220703</ele>
        <time>2023-08-02T07:28:38.000Z</time>
      </trkpt>
      <trkpt lat="43.74422" lon="7.07993">
        <ele>687.20001220703</ele>
        <time>2023-08-02T07:28:39.000Z</time>
      </trkpt>
      <trkpt lat="43.74422" lon="7.07993">
        <ele>687.20001220703</ele>
        <time>2023-08-02T07:28:40.000Z</time>
      </trkpt>
      <trkpt lat="43.74422" lon="7.07993">
        <ele>687.20001220703</ele>
        <time>2023-08-02T07:28:41.000Z</time>
      </trkpt>
      <trkpt lat="43.74422" lon="7.07993">
        <ele>687.20001220703</ele>
        <time>2023-08-02T07:28:42.000Z</time>
      </trkpt>
      <trkpt lat="43.74422" lon="7.07993">
        <ele>687.20001220703</ele>
        <time>2023-08-02T07:28:43.000Z</time>
      </trkpt>
      <trkpt lat="43.74422" lon="7.07993">
        <ele>687.20001220703</ele>
        <time>2023-08-02T07:28:44.000Z</time>
      </trkpt>
      <trkpt lat="43.74423" lon="7.07991">
        <ele>687.20001220703</ele>
        <time>2023-08-02T07:28:45.000Z</time>
      </trkpt>
      <trkpt lat="43.74425" lon="7.0799">
        <ele>687.20001220703</ele>
        <time>2023-08-02T07:28:46.000Z</time>
      </trkpt>
      <trkpt lat="43.74427" lon="7.0799">
        <ele>687.20001220703</ele>
        <time>2023-08-02T07:28:47.000Z</time>
      </trkpt>
      <trkpt lat="43.74428" lon="7.0799">
        <ele>687.20001220703</ele>
        <time>2023-08-02T07:28:48.000Z</time>
      </trkpt>
      <trkpt lat="43.7443" lon="7.07991">
        <ele>687.20001220703</ele>
        <time>2023-08-02T07:28:49.000Z</time>
      </trkpt>
      <trkpt lat="43.74432" lon="7.07991">
        <ele>687.20001220703</ele>
        <time>2023-08-02T07:28:50.000Z</time>
      </trkpt>
      <trkpt lat="43.74434" lon="7.07991">
        <ele>687.59997558594</ele>
        <time>2023-08-02T07:28:51.000Z</time>
      </trkpt>
      <trkpt lat="43.74436" lon="7.0799">
        <ele>688</ele>
        <time>2023-08-02T07:28:52.000Z</time>
      </trkpt>
      <trkpt lat="43.74437" lon="7.07989">
        <ele>688.20001220703</ele>
        <time>2023-08-02T07:28:53.000Z</time>
      </trkpt>
      <trkpt lat="43.74439" lon="7.07988">
        <ele>688.40002441406</ele>
        <time>2023-08-02T07:28:54.000Z</time>
      </trkpt>
      <trkpt lat="43.74441" lon="7.07987">
        <ele>689</ele>
        <time>2023-08-02T07:28:55.000Z</time>
      </trkpt>
      <trkpt lat="43.74444" lon="7.07987">
        <ele>689.20001220703</ele>
        <time>2023-08-02T07:28:56.000Z</time>
      </trkpt>
      <trkpt lat="43.74446" lon="7.07987">
        <ele>689.40002441406</ele>
        <time>2023-08-02T07:28:57.000Z</time>
      </trkpt>
      <trkpt lat="43.74448" lon="7.07986">
        <ele>690</ele>
        <time>2023-08-02T07:28:58.000Z</time>
      </trkpt>
      <trkpt lat="43.7445" lon="7.07984">
        <ele>690.40002441406</ele>
        <time>2023-08-02T07:28:59.000Z</time>
      </trkpt>
      <trkpt lat="43.74452" lon="7.07983">
        <ele>690.40002441406</ele>
        <time>2023-08-02T07:29:00.000Z</time>
      </trkpt>
      <trkpt lat="43.74454" lon="7.07982">
        <ele>691.20001220703</ele>
        <time>2023-08-02T07:29:01.000Z</time>
      </trkpt>
      <trkpt lat="43.74456" lon="7.0798">
        <ele>691.59997558594</ele>
        <time>2023-08-02T07:29:02.000Z</time>
      </trkpt>
      <trkpt lat="43.74458" lon="7.07978">
        <ele>692.20001220703</ele>
        <time>2023-08-02T07:29:03.000Z</time>
      </trkpt>
      <trkpt lat="43.74459" lon="7.07977">
        <ele>692.59997558594</ele>
        <time>2023-08-02T07:29:04.000Z</time>
      </trkpt>
      <trkpt lat="43.74461" lon="7.07975">
        <ele>692.79998779297</ele>
        <time>2023-08-02T07:29:05.000Z</time>
      </trkpt>
      <trkpt lat="43.74463" lon="7.07974">
        <ele>693.20001220703</ele>
        <time>2023-08-02T07:29:06.000Z</time>
      </trkpt>
      <trkpt lat="43.74465" lon="7.07972">
        <ele>693.20001220703</ele>
        <time>2023-08-02T07:29:07.000Z</time>
      </trkpt>
      <trkpt lat="43.74466" lon="7.0797">
        <ele>693.40002441406</ele>
        <time>2023-08-02T07:29:08.000Z</time>
      </trkpt>
      <trkpt lat="43.74468" lon="7.07968">
        <ele>693.59997558594</ele>
        <time>2023-08-02T07:29:09.000Z</time>
      </trkpt>
      <trkpt lat="43.74469" lon="7.07967">
        <ele>694</ele>
        <time>2023-08-02T07:29:10.000Z</time>
      </trkpt>
      <trkpt lat="43.74471" lon="7.07965">
        <ele>694</ele>
        <time>2023-08-02T07:29:11.000Z</time>
      </trkpt>
      <trkpt lat="43.74472" lon="7.07964">
        <ele>694.20001220703</ele>
        <time>2023-08-02T07:29:12.000Z</time>
      </trkpt>
      <trkpt lat="43.74474" lon="7.07963">
        <ele>694.20001220703</ele>
        <time>2023-08-02T07:29:13.000Z</time>
      </trkpt>
      <trkpt lat="43.74475" lon="7.07962">
        <ele>694.20001220703</ele>
        <time>2023-08-02T07:29:14.000Z</time>
      </trkpt>
      <trkpt lat="43.74477" lon="7.0796">
        <ele>694.40002441406</ele>
        <time>2023-08-02T07:29:15.000Z</time>
      </trkpt>
      <trkpt lat="43.74479" lon="7.07959">
        <ele>694.59997558594</ele>
        <time>2023-08-02T07:29:16.000Z</time>
      </trkpt>
      <trkpt lat="43.74481" lon="7.07958">
        <ele>694.79998779297</ele>
        <time>2023-08-02T07:29:17.000Z</time>
      </trkpt>
      <trkpt lat="43.74483" lon="7.07957">
        <ele>695</ele>
        <time>2023-08-02T07:29:18.000Z</time>
      </trkpt>
      <trkpt lat="43.74486" lon="7.07955">
        <ele>695.20001220703</ele>
        <time>2023-08-02T07:29:19.000Z</time>
      </trkpt>
      <trkpt lat="43.74488" lon="7.07954">
        <ele>695.40002441406</ele>
        <time>2023-08-02T07:29:20.000Z</time>
      </trkpt>
      <trkpt lat="43.74489" lon="7.07953">
        <ele>695.59997558594</ele>
        <time>2023-08-02T07:29:21.000Z</time>
      </trkpt>
      <trkpt lat="43.74491" lon="7.07951">
        <ele>695.79998779297</ele>
        <time>2023-08-02T07:29:22.000Z</time>
      </trkpt>
      <trkpt lat="43.74493" lon="7.07949">
        <ele>695.79998779297</ele>
        <time>2023-08-02T07:29:23.000Z</time>
      </trkpt>
      <trkpt lat="43.74495" lon="7.07948">
        <ele>696</ele>
        <time>2023-08-02T07:29:24.000Z</time>
      </trkpt>
      <trkpt lat="43.74497" lon="7.07946">
        <ele>696</ele>
        <time>2023-08-02T07:29:25.000Z</time>
      </trkpt>
      <trkpt lat="43.74499" lon="7.07944">
        <ele>696.40002441406</ele>
        <time>2023-08-02T07:29:26.000Z</time>
      </trkpt>
      <trkpt lat="43.74501" lon="7.07942">
        <ele>696.40002441406</ele>
        <time>2023-08-02T07:29:27.000Z</time>
      </trkpt>
      <trkpt lat="43.74503" lon="7.0794">
        <ele>696.40002441406</ele>
        <time>2023-08-02T07:29:28.000Z</time>
      </trkpt>
      <trkpt lat="43.74505" lon="7.07938">
        <ele>696.59997558594</ele>
        <time>2023-08-02T07:29:29.000Z</time>
      </trkpt>
      <trkpt lat="43.74507" lon="7.07936">
        <ele>696.59997558594</ele>
        <time>2023-08-02T07:29:30.000Z</time>
      </trkpt>
      <trkpt lat="43.74509" lon="7.07934">
        <ele>696.79998779297</ele>
        <time>2023-08-02T07:29:31.000Z</time>
      </trkpt>
      <trkpt lat="43.74511" lon="7.07932">
        <ele>696.79998779297</ele>
        <time>2023-08-02T07:29:32.000Z</time>
      </trkpt>
      <trkpt lat="43.74513" lon="7.0793">
        <ele>697</ele>
        <time>2023-08-02T07:29:33.000Z</time>
      </trkpt>
      <trkpt lat="43.74515" lon="7.07929">
        <ele>697</ele>
        <time>2023-08-02T07:29:34.000Z</time>
      </trkpt>
      <trkpt lat="43.74517" lon="7.07928">
        <ele>697.20001220703</ele>
        <time>2023-08-02T07:29:35.000Z</time>
      </trkpt>
      <trkpt lat="43.74519" lon="7.07926">
        <ele>697.20001220703</ele>
        <time>2023-08-02T07:29:36.000Z</time>
      </trkpt>
      <trkpt lat="43.74521" lon="7.07923">
        <ele>697.20001220703</ele>
        <time>2023-08-02T07:29:37.000Z</time>
      </trkpt>
      <trkpt lat="43.74523" lon="7.07921">
        <ele>697.40002441406</ele>
        <time>2023-08-02T07:29:38.000Z</time>
      </trkpt>
      <trkpt lat="43.74525" lon="7.07918">
        <ele>697.40002441406</ele>
        <time>2023-08-02T07:29:39.000Z</time>
      </trkpt>
      <trkpt lat="43.74526" lon="7.07915">
        <ele>697.40002441406</ele>
        <time>2023-08-02T07:29:40.000Z</time>
      </trkpt>
      <trkpt lat="43.74527" lon="7.07913">
        <ele>697.40002441406</ele>
        <time>2023-08-02T07:29:41.000Z</time>
      </trkpt>
      <trkpt lat="43.74529" lon="7.0791">
        <ele>697.40002441406</ele>
        <time>2023-08-02T07:29:42.000Z</time>
      </trkpt>
      <trkpt lat="43.74531" lon="7.07907">
        <ele>697.40002441406</ele>
        <time>2023-08-02T07:29:43.000Z</time>
      </trkpt>
      <trkpt lat="43.74533" lon="7.07905">
        <ele>697.40002441406</ele>
        <time>2023-08-02T07:29:44.000Z</time>
      </trkpt>
      <trkpt lat="43.74536" lon="7.07903">
        <ele>697.40002441406</ele>
        <time>2023-08-02T07:29:45.000Z</time>
      </trkpt>
      <trkpt lat="43.74538" lon="7.07902">
        <ele>697.20001220703</ele>
        <time>2023-08-02T07:29:46.000Z</time>
      </trkpt>
      <trkpt lat="43.74539" lon="7.079">
        <ele>697.20001220703</ele>
        <time>2023-08-02T07:29:47.000Z</time>
      </trkpt>
      <trkpt lat="43.74541" lon="7.07897">
        <ele>697.20001220703</ele>
        <time>2023-08-02T07:29:48.000Z</time>
      </trkpt>
      <trkpt lat="43.74543" lon="7.07895">
        <ele>697</ele>
        <time>2023-08-02T07:29:49.000Z</time>
      </trkpt>
      <trkpt lat="43.74544" lon="7.07893">
        <ele>697</ele>
        <time>2023-08-02T07:29:50.000Z</time>
      </trkpt>
      <trkpt lat="43.74546" lon="7.07893">
        <ele>697</ele>
        <time>2023-08-02T07:29:51.000Z</time>
      </trkpt>
      <trkpt lat="43.74547" lon="7.07893">
        <ele>697</ele>
        <time>2023-08-02T07:29:52.000Z</time>
      </trkpt>
      <trkpt lat="43.7455" lon="7.07893">
        <ele>697</ele>
        <time>2023-08-02T07:29:53.000Z</time>
      </trkpt>
      <trkpt lat="43.74552" lon="7.07893">
        <ele>697</ele>
        <time>2023-08-02T07:29:54.000Z</time>
      </trkpt>
      <trkpt lat="43.74554" lon="7.07892">
        <ele>697</ele>
        <time>2023-08-02T07:29:55.000Z</time>
      </trkpt>
      <trkpt lat="43.74556" lon="7.0789">
        <ele>697.20001220703</ele>
        <time>2023-08-02T07:29:56.000Z</time>
      </trkpt>
      <trkpt lat="43.74557" lon="7.07889">
        <ele>697.20001220703</ele>
        <time>2023-08-02T07:29:57.000Z</time>
      </trkpt>
      <trkpt lat="43.74559" lon="7.07887">
        <ele>697.20001220703</ele>
        <time>2023-08-02T07:29:58.000Z</time>
      </trkpt>
      <trkpt lat="43.7456" lon="7.07884">
        <ele>697.40002441406</ele>
        <time>2023-08-02T07:29:59.000Z</time>
      </trkpt>
      <trkpt lat="43.74562" lon="7.07882">
        <ele>697.40002441406</ele>
        <time>2023-08-02T07:30:00.000Z</time>
      </trkpt>
      <trkpt lat="43.74563" lon="7.0788">
        <ele>697.40002441406</ele>
        <time>2023-08-02T07:30:01.000Z</time>
      </trkpt>
      <trkpt lat="43.74565" lon="7.07878">
        <ele>697.40002441406</ele>
        <time>2023-08-02T07:30:02.000Z</time>
      </trkpt>
      <trkpt lat="43.74567" lon="7.07877">
        <ele>697.40002441406</ele>
        <time>2023-08-02T07:30:03.000Z</time>
      </trkpt>
      <trkpt lat="43.74569" lon="7.07876">
        <ele>697.59997558594</ele>
        <time>2023-08-02T07:30:04.000Z</time>
      </trkpt>
      <trkpt lat="43.74571" lon="7.07876">
        <ele>697.79998779297</ele>
        <time>2023-08-02T07:30:05.000Z</time>
      </trkpt>
      <trkpt lat="43.74573" lon="7.07875">
        <ele>698</ele>
        <time>2023-08-02T07:30:06.000Z</time>
      </trkpt>
      <trkpt lat="43.74575" lon="7.07875">
        <ele>698.20001220703</ele>
        <time>2023-08-02T07:30:07.000Z</time>
      </trkpt>
      <trkpt lat="43.74577" lon="7.07874">
        <ele>698.40002441406</ele>
        <time>2023-08-02T07:30:08.000Z</time>
      </trkpt>
      <trkpt lat="43.74579" lon="7.07873">
        <ele>698.40002441406</ele>
        <time>2023-08-02T07:30:09.000Z</time>
      </trkpt>
      <trkpt lat="43.74581" lon="7.07871">
        <ele>698.40002441406</ele>
        <time>2023-08-02T07:30:10.000Z</time>
      </trkpt>
      <trkpt lat="43.74583" lon="7.07869">
        <ele>698.59997558594</ele>
        <time>2023-08-02T07:30:11.000Z</time>
      </trkpt>
      <trkpt lat="43.74584" lon="7.07868">
        <ele>698.79998779297</ele>
        <time>2023-08-02T07:30:12.000Z</time>
      </trkpt>
      <trkpt lat="43.74586" lon="7.07866">
        <ele>698.79998779297</ele>
        <time>2023-08-02T07:30:13.000Z</time>
      </trkpt>
      <trkpt lat="43.74588" lon="7.07866">
        <ele>699</ele>
        <time>2023-08-02T07:30:14.000Z</time>
      </trkpt>
      <trkpt lat="43.74591" lon="7.07866">
        <ele>699.20001220703</ele>
        <time>2023-08-02T07:30:15.000Z</time>
      </trkpt>
      <trkpt lat="43.74593" lon="7.07868">
        <ele>699.40002441406</ele>
        <time>2023-08-02T07:30:16.000Z</time>
      </trkpt>
      <trkpt lat="43.74595" lon="7.07869">
        <ele>699.40002441406</ele>
        <time>2023-08-02T07:30:17.000Z</time>
      </trkpt>
      <trkpt lat="43.74598" lon="7.0787">
        <ele>699.59997558594</ele>
        <time>2023-08-02T07:30:18.000Z</time>
      </trkpt>
      <trkpt lat="43.746" lon="7.0787">
        <ele>699.79998779297</ele>
        <time>2023-08-02T07:30:19.000Z</time>
      </trkpt>
      <trkpt lat="43.74602" lon="7.0787">
        <ele>700</ele>
        <time>2023-08-02T07:30:20.000Z</time>
      </trkpt>
      <trkpt lat="43.74604" lon="7.0787">
        <ele>700.20001220703</ele>
        <time>2023-08-02T07:30:21.000Z</time>
      </trkpt>
      <trkpt lat="43.74606" lon="7.0787">
        <ele>700.40002441406</ele>
        <time>2023-08-02T07:30:22.000Z</time>
      </trkpt>
      <trkpt lat="43.74608" lon="7.07869">
        <ele>700.40002441406</ele>
        <time>2023-08-02T07:30:23.000Z</time>
      </trkpt>
      <trkpt lat="43.7461" lon="7.07869">
        <ele>701.20001220703</ele>
        <time>2023-08-02T07:30:24.000Z</time>
      </trkpt>
      <trkpt lat="43.74611" lon="7.07868">
        <ele>701.59997558594</ele>
        <time>2023-08-02T07:30:25.000Z</time>
      </trkpt>
      <trkpt lat="43.74613" lon="7.07867">
        <ele>701.59997558594</ele>
        <time>2023-08-02T07:30:26.000Z</time>
      </trkpt>
      <trkpt lat="43.74616" lon="7.07866">
        <ele>701.59997558594</ele>
        <time>2023-08-02T07:30:27.000Z</time>
      </trkpt>
      <trkpt lat="43.74618" lon="7.07865">
        <ele>701.79998779297</ele>
        <time>2023-08-02T07:30:28.000Z</time>
      </trkpt>
      <trkpt lat="43.7462" lon="7.07864">
        <ele>702.20001220703</ele>
        <time>2023-08-02T07:30:29.000Z</time>
      </trkpt>
      <trkpt lat="43.74622" lon="7.07865">
        <ele>702.40002441406</ele>
        <time>2023-08-02T07:30:30.000Z</time>
      </trkpt>
      <trkpt lat="43.74624" lon="7.07865">
        <ele>702.79998779297</ele>
        <time>2023-08-02T07:30:31.000Z</time>
      </trkpt>
      <trkpt lat="43.74626" lon="7.07864">
        <ele>702.79998779297</ele>
        <time>2023-08-02T07:30:32.000Z</time>
      </trkpt>
      <trkpt lat="43.74628" lon="7.07864">
        <ele>703.20001220703</ele>
        <time>2023-08-02T07:30:33.000Z</time>
      </trkpt>
      <trkpt lat="43.7463" lon="7.07862">
        <ele>703.79998779297</ele>
        <time>2023-08-02T07:30:34.000Z</time>
      </trkpt>
      <trkpt lat="43.74631" lon="7.07861">
        <ele>703.79998779297</ele>
        <time>2023-08-02T07:30:35.000Z</time>
      </trkpt>
      <trkpt lat="43.74633" lon="7.07859">
        <ele>703.79998779297</ele>
        <time>2023-08-02T07:30:36.000Z</time>
      </trkpt>
      <trkpt lat="43.74634" lon="7.07857">
        <ele>704.20001220703</ele>
        <time>2023-08-02T07:30:37.000Z</time>
      </trkpt>
      <trkpt lat="43.74636" lon="7.07855">
        <ele>704.40002441406</ele>
        <time>2023-08-02T07:30:38.000Z</time>
      </trkpt>
      <trkpt lat="43.74638" lon="7.07854">
        <ele>704.40002441406</ele>
        <time>2023-08-02T07:30:39.000Z</time>
      </trkpt>
      <trkpt lat="43.74641" lon="7.07852">
        <ele>704.59997558594</ele>
        <time>2023-08-02T07:30:40.000Z</time>
      </trkpt>
      <trkpt lat="43.74643" lon="7.07851">
        <ele>704.59997558594</ele>
        <time>2023-08-02T07:30:41.000Z</time>
      </trkpt>
      <trkpt lat="43.74646" lon="7.07849">
        <ele>704.79998779297</ele>
        <time>2023-08-02T07:30:42.000Z</time>
      </trkpt>
      <trkpt lat="43.74648" lon="7.07848">
        <ele>705</ele>
        <time>2023-08-02T07:30:43.000Z</time>
      </trkpt>
      <trkpt lat="43.7465" lon="7.07846">
        <ele>705.20001220703</ele>
        <time>2023-08-02T07:30:44.000Z</time>
      </trkpt>
      <trkpt lat="43.74652" lon="7.07844">
        <ele>705.40002441406</ele>
        <time>2023-08-02T07:30:45.000Z</time>
      </trkpt>
      <trkpt lat="43.74654" lon="7.07842">
        <ele>705.79998779297</ele>
        <time>2023-08-02T07:30:46.000Z</time>
      </trkpt>
      <trkpt lat="43.74656" lon="7.07841">
        <ele>706</ele>
        <time>2023-08-02T07:30:47.000Z</time>
      </trkpt>
      <trkpt lat="43.74659" lon="7.07841">
        <ele>706.20001220703</ele>
        <time>2023-08-02T07:30:48.000Z</time>
      </trkpt>
      <trkpt lat="43.74661" lon="7.07841">
        <ele>706.40002441406</ele>
        <time>2023-08-02T07:30:49.000Z</time>
      </trkpt>
      <trkpt lat="43.74663" lon="7.07842">
        <ele>706.79998779297</ele>
        <time>2023-08-02T07:30:50.000Z</time>
      </trkpt>
      <trkpt lat="43.74666" lon="7.07842">
        <ele>706.79998779297</ele>
        <time>2023-08-02T07:30:51.000Z</time>
      </trkpt>
      <trkpt lat="43.74668" lon="7.07841">
        <ele>707</ele>
        <time>2023-08-02T07:30:52.000Z</time>
      </trkpt>
      <trkpt lat="43.7467" lon="7.0784">
        <ele>707.20001220703</ele>
        <time>2023-08-02T07:30:53.000Z</time>
      </trkpt>
      <trkpt lat="43.74671" lon="7.07839">
        <ele>707.20001220703</ele>
        <time>2023-08-02T07:30:54.000Z</time>
      </trkpt>
      <trkpt lat="43.74673" lon="7.07839">
        <ele>707.79998779297</ele>
        <time>2023-08-02T07:30:55.000Z</time>
      </trkpt>
      <trkpt lat="43.74674" lon="7.07839">
        <ele>707.79998779297</ele>
        <time>2023-08-02T07:30:56.000Z</time>
      </trkpt>
      <trkpt lat="43.74676" lon="7.07838">
        <ele>708</ele>
        <time>2023-08-02T07:30:57.000Z</time>
      </trkpt>
      <trkpt lat="43.74679" lon="7.07838">
        <ele>708.20001220703</ele>
        <time>2023-08-02T07:30:58.000Z</time>
      </trkpt>
      <trkpt lat="43.74681" lon="7.07838">
        <ele>708.59997558594</ele>
        <time>2023-08-02T07:30:59.000Z</time>
      </trkpt>
      <trkpt lat="43.74684" lon="7.07838">
        <ele>709</ele>
        <time>2023-08-02T07:31:00.000Z</time>
      </trkpt>
      <trkpt lat="43.74686" lon="7.07838">
        <ele>709.20001220703</ele>
        <time>2023-08-02T07:31:01.000Z</time>
      </trkpt>
      <trkpt lat="43.74688" lon="7.07837">
        <ele>709.20001220703</ele>
        <time>2023-08-02T07:31:02.000Z</time>
      </trkpt>
      <trkpt lat="43.7469" lon="7.07837">
        <ele>709.40002441406</ele>
        <time>2023-08-02T07:31:03.000Z</time>
      </trkpt>
      <trkpt lat="43.74693" lon="7.07837">
        <ele>710</ele>
        <time>2023-08-02T07:31:04.000Z</time>
      </trkpt>
      <trkpt lat="43.74695" lon="7.07837">
        <ele>710</ele>
        <time>2023-08-02T07:31:05.000Z</time>
      </trkpt>
      <trkpt lat="43.74697" lon="7.07838">
        <ele>710.40002441406</ele>
        <time>2023-08-02T07:31:06.000Z</time>
      </trkpt>
      <trkpt lat="43.74699" lon="7.07838">
        <ele>710.79998779297</ele>
        <time>2023-08-02T07:31:07.000Z</time>
      </trkpt>
      <trkpt lat="43.74701" lon="7.07838">
        <ele>711.20001220703</ele>
        <time>2023-08-02T07:31:08.000Z</time>
      </trkpt>
      <trkpt lat="43.74704" lon="7.07838">
        <ele>711.40002441406</ele>
        <time>2023-08-02T07:31:09.000Z</time>
      </trkpt>
      <trkpt lat="43.74706" lon="7.07838">
        <ele>711.59997558594</ele>
        <time>2023-08-02T07:31:10.000Z</time>
      </trkpt>
      <trkpt lat="43.74708" lon="7.07839">
        <ele>712.40002441406</ele>
        <time>2023-08-02T07:31:11.000Z</time>
      </trkpt>
      <trkpt lat="43.74711" lon="7.07838">
        <ele>712.59997558594</ele>
        <time>2023-08-02T07:31:12.000Z</time>
      </trkpt>
      <trkpt lat="43.74713" lon="7.07839">
        <ele>712.79998779297</ele>
        <time>2023-08-02T07:31:13.000Z</time>
      </trkpt>
      <trkpt lat="43.74714" lon="7.07839">
        <ele>713.40002441406</ele>
        <time>2023-08-02T07:31:14.000Z</time>
      </trkpt>
      <trkpt lat="43.74715" lon="7.07839">
        <ele>713.40002441406</ele>
        <time>2023-08-02T07:31:15.000Z</time>
      </trkpt>
      <trkpt lat="43.74717" lon="7.07839">
        <ele>713.59997558594</ele>
        <time>2023-08-02T07:31:16.000Z</time>
      </trkpt>
      <trkpt lat="43.74719" lon="7.07839">
        <ele>714</ele>
        <time>2023-08-02T07:31:17.000Z</time>
      </trkpt>
      <trkpt lat="43.74721" lon="7.07839">
        <ele>714.40002441406</ele>
        <time>2023-08-02T07:31:18.000Z</time>
      </trkpt>
      <trkpt lat="43.74723" lon="7.07838">
        <ele>714.59997558594</ele>
        <time>2023-08-02T07:31:19.000Z</time>
      </trkpt>
      <trkpt lat="43.74726" lon="7.07838">
        <ele>714.59997558594</ele>
        <time>2023-08-02T07:31:20.000Z</time>
      </trkpt>
      <trkpt lat="43.74728" lon="7.07838">
        <ele>714.59997558594</ele>
        <time>2023-08-02T07:31:21.000Z</time>
      </trkpt>
      <trkpt lat="43.7473" lon="7.07837">
        <ele>714.79998779297</ele>
        <time>2023-08-02T07:31:22.000Z</time>
      </trkpt>
      <trkpt lat="43.74733" lon="7.07837">
        <ele>715</ele>
        <time>2023-08-02T07:31:23.000Z</time>
      </trkpt>
      <trkpt lat="43.74735" lon="7.07837">
        <ele>715.20001220703</ele>
        <time>2023-08-02T07:31:24.000Z</time>
      </trkpt>
      <trkpt lat="43.74737" lon="7.07838">
        <ele>715.40002441406</ele>
        <time>2023-08-02T07:31:25.000Z</time>
      </trkpt>
      <trkpt lat="43.74739" lon="7.07838">
        <ele>715.59997558594</ele>
        <time>2023-08-02T07:31:26.000Z</time>
      </trkpt>
      <trkpt lat="43.74742" lon="7.07839">
        <ele>715.59997558594</ele>
        <time>2023-08-02T07:31:27.000Z</time>
      </trkpt>
      <trkpt lat="43.74744" lon="7.07839">
        <ele>716</ele>
        <time>2023-08-02T07:31:28.000Z</time>
      </trkpt>
      <trkpt lat="43.74746" lon="7.0784">
        <ele>716</ele>
        <time>2023-08-02T07:31:29.000Z</time>
      </trkpt>
      <trkpt lat="43.74749" lon="7.0784">
        <ele>716.20001220703</ele>
        <time>2023-08-02T07:31:30.000Z</time>
      </trkpt>
      <trkpt lat="43.74751" lon="7.0784">
        <ele>716.20001220703</ele>
        <time>2023-08-02T07:31:31.000Z</time>
      </trkpt>
      <trkpt lat="43.74753" lon="7.0784">
        <ele>716.59997558594</ele>
        <time>2023-08-02T07:31:32.000Z</time>
      </trkpt>
      <trkpt lat="43.74755" lon="7.07841">
        <ele>716.79998779297</ele>
        <time>2023-08-02T07:31:33.000Z</time>
      </trkpt>
      <trkpt lat="43.74757" lon="7.07841">
        <ele>717</ele>
        <time>2023-08-02T07:31:34.000Z</time>
      </trkpt>
      <trkpt lat="43.74759" lon="7.07842">
        <ele>717.20001220703</ele>
        <time>2023-08-02T07:31:35.000Z</time>
      </trkpt>
      <trkpt lat="43.74761" lon="7.07843">
        <ele>717.20001220703</ele>
        <time>2023-08-02T07:31:36.000Z</time>
      </trkpt>
      <trkpt lat="43.74763" lon="7.07844">
        <ele>717.40002441406</ele>
        <time>2023-08-02T07:31:37.000Z</time>
      </trkpt>
      <trkpt lat="43.74765" lon="7.07843">
        <ele>717.40002441406</ele>
        <time>2023-08-02T07:31:38.000Z</time>
      </trkpt>
      <trkpt lat="43.74767" lon="7.07843">
        <ele>717.40002441406</ele>
        <time>2023-08-02T07:31:39.000Z</time>
      </trkpt>
      <trkpt lat="43.7477" lon="7.07843">
        <ele>717.79998779297</ele>
        <time>2023-08-02T07:31:40.000Z</time>
      </trkpt>
      <trkpt lat="43.74772" lon="7.07843">
        <ele>718</ele>
        <time>2023-08-02T07:31:41.000Z</time>
      </trkpt>
      <trkpt lat="43.74774" lon="7.07844">
        <ele>718.20001220703</ele>
        <time>2023-08-02T07:31:42.000Z</time>
      </trkpt>
      <trkpt lat="43.74777" lon="7.07844">
        <ele>718.20001220703</ele>
        <time>2023-08-02T07:31:43.000Z</time>
      </trkpt>
      <trkpt lat="43.74779" lon="7.07844">
        <ele>718.40002441406</ele>
        <time>2023-08-02T07:31:44.000Z</time>
      </trkpt>
      <trkpt lat="43.74781" lon="7.07845">
        <ele>718.59997558594</ele>
        <time>2023-08-02T07:31:45.000Z</time>
      </trkpt>
      <trkpt lat="43.74784" lon="7.07845">
        <ele>718.79998779297</ele>
        <time>2023-08-02T07:31:46.000Z</time>
      </trkpt>
      <trkpt lat="43.74786" lon="7.07845">
        <ele>719</ele>
        <time>2023-08-02T07:31:47.000Z</time>
      </trkpt>
      <trkpt lat="43.74789" lon="7.07845">
        <ele>719</ele>
        <time>2023-08-02T07:31:48.000Z</time>
      </trkpt>
      <trkpt lat="43.74791" lon="7.07845">
        <ele>719.20001220703</ele>
        <time>2023-08-02T07:31:49.000Z</time>
      </trkpt>
      <trkpt lat="43.74793" lon="7.07845">
        <ele>719.40002441406</ele>
        <time>2023-08-02T07:31:50.000Z</time>
      </trkpt>
      <trkpt lat="43.74795" lon="7.07845">
        <ele>719.40002441406</ele>
        <time>2023-08-02T07:31:51.000Z</time>
      </trkpt>
      <trkpt lat="43.74797" lon="7.07845">
        <ele>719.59997558594</ele>
        <time>2023-08-02T07:31:52.000Z</time>
      </trkpt>
      <trkpt lat="43.748" lon="7.07845">
        <ele>719.79998779297</ele>
        <time>2023-08-02T07:31:53.000Z</time>
      </trkpt>
      <trkpt lat="43.74802" lon="7.07845">
        <ele>720</ele>
        <time>2023-08-02T07:31:54.000Z</time>
      </trkpt>
      <trkpt lat="43.74805" lon="7.07846">
        <ele>720</ele>
        <time>2023-08-02T07:31:55.000Z</time>
      </trkpt>
      <trkpt lat="43.74807" lon="7.07847">
        <ele>720.20001220703</ele>
        <time>2023-08-02T07:31:56.000Z</time>
      </trkpt>
      <trkpt lat="43.74809" lon="7.07848">
        <ele>720.20001220703</ele>
        <time>2023-08-02T07:31:57.000Z</time>
      </trkpt>
      <trkpt lat="43.7481" lon="7.0785">
        <ele>720.59997558594</ele>
        <time>2023-08-02T07:31:58.000Z</time>
      </trkpt>
      <trkpt lat="43.74813" lon="7.07852">
        <ele>720.79998779297</ele>
        <time>2023-08-02T07:31:59.000Z</time>
      </trkpt>
      <trkpt lat="43.74815" lon="7.07852">
        <ele>721</ele>
        <time>2023-08-02T07:32:00.000Z</time>
      </trkpt>
      <trkpt lat="43.74817" lon="7.07852">
        <ele>721.20001220703</ele>
        <time>2023-08-02T07:32:01.000Z</time>
      </trkpt>
      <trkpt lat="43.74819" lon="7.07851">
        <ele>721.20001220703</ele>
        <time>2023-08-02T07:32:02.000Z</time>
      </trkpt>
      <trkpt lat="43.74821" lon="7.07851">
        <ele>721.20001220703</ele>
        <time>2023-08-02T07:32:03.000Z</time>
      </trkpt>
      <trkpt lat="43.74823" lon="7.0785">
        <ele>721.79998779297</ele>
        <time>2023-08-02T07:32:04.000Z</time>
      </trkpt>
      <trkpt lat="43.74825" lon="7.07849">
        <ele>722.20001220703</ele>
        <time>2023-08-02T07:32:05.000Z</time>
      </trkpt>
      <trkpt lat="43.74827" lon="7.07849">
        <ele>722.59997558594</ele>
        <time>2023-08-02T07:32:06.000Z</time>
      </trkpt>
      <trkpt lat="43.7483" lon="7.07848">
        <ele>723</ele>
        <time>2023-08-02T07:32:07.000Z</time>
      </trkpt>
      <trkpt lat="43.74832" lon="7.07847">
        <ele>723.20001220703</ele>
        <time>2023-08-02T07:32:08.000Z</time>
      </trkpt>
      <trkpt lat="43.74834" lon="7.07845">
        <ele>723.59997558594</ele>
        <time>2023-08-02T07:32:09.000Z</time>
      </trkpt>
      <trkpt lat="43.74836" lon="7.07843">
        <ele>723.59997558594</ele>
        <time>2023-08-02T07:32:10.000Z</time>
      </trkpt>
      <trkpt lat="43.74837" lon="7.07841">
        <ele>723.79998779297</ele>
        <time>2023-08-02T07:32:11.000Z</time>
      </trkpt>
      <trkpt lat="43.74839" lon="7.0784">
        <ele>724</ele>
        <time>2023-08-02T07:32:12.000Z</time>
      </trkpt>
      <trkpt lat="43.74841" lon="7.07838">
        <ele>724.20001220703</ele>
        <time>2023-08-02T07:32:13.000Z</time>
      </trkpt>
      <trkpt lat="43.74843" lon="7.07836">
        <ele>724.40002441406</ele>
        <time>2023-08-02T07:32:14.000Z</time>
      </trkpt>
      <trkpt lat="43.74845" lon="7.07834">
        <ele>724.79998779297</ele>
        <time>2023-08-02T07:32:15.000Z</time>
      </trkpt>
      <trkpt lat="43.74847" lon="7.07832">
        <ele>725</ele>
        <time>2023-08-02T07:32:16.000Z</time>
      </trkpt>
      <trkpt lat="43.74849" lon="7.0783">
        <ele>725</ele>
        <time>2023-08-02T07:32:17.000Z</time>
      </trkpt>
      <trkpt lat="43.74851" lon="7.07829">
        <ele>725.20001220703</ele>
        <time>2023-08-02T07:32:18.000Z</time>
      </trkpt>
      <trkpt lat="43.74852" lon="7.07827">
        <ele>725.59997558594</ele>
        <time>2023-08-02T07:32:19.000Z</time>
      </trkpt>
      <trkpt lat="43.74854" lon="7.07826">
        <ele>725.59997558594</ele>
        <time>2023-08-02T07:32:20.000Z</time>
      </trkpt>
      <trkpt lat="43.74855" lon="7.07824">
        <ele>726</ele>
        <time>2023-08-02T07:32:21.000Z</time>
      </trkpt>
      <trkpt lat="43.74857" lon="7.07822">
        <ele>726.20001220703</ele>
        <time>2023-08-02T07:32:22.000Z</time>
      </trkpt>
      <trkpt lat="43.74859" lon="7.07821">
        <ele>726.20001220703</ele>
        <time>2023-08-02T07:32:23.000Z</time>
      </trkpt>
      <trkpt lat="43.74861" lon="7.0782">
        <ele>726.40002441406</ele>
        <time>2023-08-02T07:32:24.000Z</time>
      </trkpt>
      <trkpt lat="43.74863" lon="7.07818">
        <ele>726.59997558594</ele>
        <time>2023-08-02T07:32:25.000Z</time>
      </trkpt>
      <trkpt lat="43.74865" lon="7.07817">
        <ele>726.59997558594</ele>
        <time>2023-08-02T07:32:26.000Z</time>
      </trkpt>
      <trkpt lat="43.74868" lon="7.07816">
        <ele>726.79998779297</ele>
        <time>2023-08-02T07:32:27.000Z</time>
      </trkpt>
      <trkpt lat="43.7487" lon="7.07816">
        <ele>726.79998779297</ele>
        <time>2023-08-02T07:32:28.000Z</time>
      </trkpt>
      <trkpt lat="43.74872" lon="7.07815">
        <ele>727</ele>
        <time>2023-08-02T07:32:29.000Z</time>
      </trkpt>
      <trkpt lat="43.74874" lon="7.07814">
        <ele>727.40002441406</ele>
        <time>2023-08-02T07:32:30.000Z</time>
      </trkpt>
      <trkpt lat="43.74876" lon="7.07813">
        <ele>727.40002441406</ele>
        <time>2023-08-02T07:32:31.000Z</time>
      </trkpt>
      <trkpt lat="43.74878" lon="7.07812">
        <ele>727.59997558594</ele>
        <time>2023-08-02T07:32:32.000Z</time>
      </trkpt>
      <trkpt lat="43.7488" lon="7.07811">
        <ele>727.79998779297</ele>
        <time>2023-08-02T07:32:33.000Z</time>
      </trkpt>
      <trkpt lat="43.74883" lon="7.0781">
        <ele>728</ele>
        <time>2023-08-02T07:32:34.000Z</time>
      </trkpt>
      <trkpt lat="43.74885" lon="7.07808">
        <ele>728.59997558594</ele>
        <time>2023-08-02T07:32:35.000Z</time>
      </trkpt>
      <trkpt lat="43.74887" lon="7.07806">
        <ele>728.79998779297</ele>
        <time>2023-08-02T07:32:36.000Z</time>
      </trkpt>
      <trkpt lat="43.74889" lon="7.07805">
        <ele>728.79998779297</ele>
        <time>2023-08-02T07:32:37.000Z</time>
      </trkpt>
      <trkpt lat="43.74892" lon="7.07804">
        <ele>728.79998779297</ele>
        <time>2023-08-02T07:32:38.000Z</time>
      </trkpt>
      <trkpt lat="43.74894" lon="7.07803">
        <ele>729</ele>
        <time>2023-08-02T07:32:39.000Z</time>
      </trkpt>
      <trkpt lat="43.74897" lon="7.07801">
        <ele>729</ele>
        <time>2023-08-02T07:32:40.000Z</time>
      </trkpt>
      <trkpt lat="43.74899" lon="7.078">
        <ele>729</ele>
        <time>2023-08-02T07:32:41.000Z</time>
      </trkpt>
      <trkpt lat="43.74902" lon="7.07799">
        <ele>729</ele>
        <time>2023-08-02T07:32:42.000Z</time>
      </trkpt>
      <trkpt lat="43.74904" lon="7.07798">
        <ele>729.20001220703</ele>
        <time>2023-08-02T07:32:43.000Z</time>
      </trkpt>
      <trkpt lat="43.74907" lon="7.07797">
        <ele>729.20001220703</ele>
        <time>2023-08-02T07:32:44.000Z</time>
      </trkpt>
      <trkpt lat="43.74909" lon="7.07796">
        <ele>729.40002441406</ele>
        <time>2023-08-02T07:32:45.000Z</time>
      </trkpt>
      <trkpt lat="43.74911" lon="7.07795">
        <ele>729.79998779297</ele>
        <time>2023-08-02T07:32:46.000Z</time>
      </trkpt>
      <trkpt lat="43.74913" lon="7.07794">
        <ele>729.79998779297</ele>
        <time>2023-08-02T07:32:47.000Z</time>
      </trkpt>
      <trkpt lat="43.74915" lon="7.07793">
        <ele>730</ele>
        <time>2023-08-02T07:32:48.000Z</time>
      </trkpt>
      <trkpt lat="43.74918" lon="7.07792">
        <ele>730.20001220703</ele>
        <time>2023-08-02T07:32:49.000Z</time>
      </trkpt>
      <trkpt lat="43.7492" lon="7.07791">
        <ele>730.20001220703</ele>
        <time>2023-08-02T07:32:50.000Z</time>
      </trkpt>
      <trkpt lat="43.74922" lon="7.0779">
        <ele>730.20001220703</ele>
        <time>2023-08-02T07:32:51.000Z</time>
      </trkpt>
      <trkpt lat="43.74925" lon="7.07789">
        <ele>730.20001220703</ele>
        <time>2023-08-02T07:32:52.000Z</time>
      </trkpt>
      <trkpt lat="43.74928" lon="7.07787">
        <ele>730.40002441406</ele>
        <time>2023-08-02T07:32:53.000Z</time>
      </trkpt>
      <trkpt lat="43.7493" lon="7.07787">
        <ele>730.40002441406</ele>
        <time>2023-08-02T07:32:54.000Z</time>
      </trkpt>
      <trkpt lat="43.74932" lon="7.07786">
        <ele>730.59997558594</ele>
        <time>2023-08-02T07:32:55.000Z</time>
      </trkpt>
      <trkpt lat="43.74935" lon="7.07786">
        <ele>730.59997558594</ele>
        <time>2023-08-02T07:32:56.000Z</time>
      </trkpt>
      <trkpt lat="43.74937" lon="7.07784">
        <ele>731</ele>
        <time>2023-08-02T07:32:57.000Z</time>
      </trkpt>
      <trkpt lat="43.74939" lon="7.07783">
        <ele>731</ele>
        <time>2023-08-02T07:32:58.000Z</time>
      </trkpt>
      <trkpt lat="43.74941" lon="7.07782">
        <ele>731.20001220703</ele>
        <time>2023-08-02T07:32:59.000Z</time>
      </trkpt>
      <trkpt lat="43.74943" lon="7.0778">
        <ele>731.40002441406</ele>
        <time>2023-08-02T07:33:00.000Z</time>
      </trkpt>
      <trkpt lat="43.74946" lon="7.07778">
        <ele>731.40002441406</ele>
        <time>2023-08-02T07:33:01.000Z</time>
      </trkpt>
      <trkpt lat="43.74948" lon="7.07778">
        <ele>731.79998779297</ele>
        <time>2023-08-02T07:33:02.000Z</time>
      </trkpt>
      <trkpt lat="43.7495" lon="7.07778">
        <ele>731.79998779297</ele>
        <time>2023-08-02T07:33:03.000Z</time>
      </trkpt>
      <trkpt lat="43.74953" lon="7.07777">
        <ele>732.20001220703</ele>
        <time>2023-08-02T07:33:04.000Z</time>
      </trkpt>
      <trkpt lat="43.74956" lon="7.07776">
        <ele>732.40002441406</ele>
        <time>2023-08-02T07:33:05.000Z</time>
      </trkpt>
      <trkpt lat="43.74958" lon="7.07775">
        <ele>732.79998779297</ele>
        <time>2023-08-02T07:33:06.000Z</time>
      </trkpt>
      <trkpt lat="43.74961" lon="7.07773">
        <ele>732.79998779297</ele>
        <time>2023-08-02T07:33:07.000Z</time>
      </trkpt>
      <trkpt lat="43.74963" lon="7.07772">
        <ele>733</ele>
        <time>2023-08-02T07:33:08.000Z</time>
      </trkpt>
      <trkpt lat="43.74965" lon="7.07772">
        <ele>733.20001220703</ele>
        <time>2023-08-02T07:33:09.000Z</time>
      </trkpt>
      <trkpt lat="43.74967" lon="7.07771">
        <ele>733.40002441406</ele>
        <time>2023-08-02T07:33:10.000Z</time>
      </trkpt>
      <trkpt lat="43.74969" lon="7.0777">
        <ele>733.59997558594</ele>
        <time>2023-08-02T07:33:11.000Z</time>
      </trkpt>
      <trkpt lat="43.74972" lon="7.0777">
        <ele>734</ele>
        <time>2023-08-02T07:33:12.000Z</time>
      </trkpt>
      <trkpt lat="43.74974" lon="7.07771">
        <ele>734.40002441406</ele>
        <time>2023-08-02T07:33:13.000Z</time>
      </trkpt>
      <trkpt lat="43.74976" lon="7.07772">
        <ele>734.40002441406</ele>
        <time>2023-08-02T07:33:14.000Z</time>
      </trkpt>
      <trkpt lat="43.74978" lon="7.07773">
        <ele>734.40002441406</ele>
        <time>2023-08-02T07:33:15.000Z</time>
      </trkpt>
      <trkpt lat="43.7498" lon="7.07773">
        <ele>734.79998779297</ele>
        <time>2023-08-02T07:33:16.000Z</time>
      </trkpt>
      <trkpt lat="43.74982" lon="7.07774">
        <ele>735</ele>
        <time>2023-08-02T07:33:17.000Z</time>
      </trkpt>
      <trkpt lat="43.74984" lon="7.07775">
        <ele>735</ele>
        <time>2023-08-02T07:33:18.000Z</time>
      </trkpt>
      <trkpt lat="43.74985" lon="7.07776">
        <ele>735.40002441406</ele>
        <time>2023-08-02T07:33:19.000Z</time>
      </trkpt>
      <trkpt lat="43.74987" lon="7.07776">
        <ele>736</ele>
        <time>2023-08-02T07:33:20.000Z</time>
      </trkpt>
      <trkpt lat="43.74989" lon="7.07777">
        <ele>736.20001220703</ele>
        <time>2023-08-02T07:33:21.000Z</time>
      </trkpt>
      <trkpt lat="43.74991" lon="7.07777">
        <ele>736.40002441406</ele>
        <time>2023-08-02T07:33:22.000Z</time>
      </trkpt>
      <trkpt lat="43.74993" lon="7.07778">
        <ele>737</ele>
        <time>2023-08-02T07:33:23.000Z</time>
      </trkpt>
      <trkpt lat="43.74995" lon="7.07779">
        <ele>737</ele>
        <time>2023-08-02T07:33:24.000Z</time>
      </trkpt>
      <trkpt lat="43.74998" lon="7.07779">
        <ele>737.40002441406</ele>
        <time>2023-08-02T07:33:25.000Z</time>
      </trkpt>
      <trkpt lat="43.74999" lon="7.07779">
        <ele>737.59997558594</ele>
        <time>2023-08-02T07:33:26.000Z</time>
      </trkpt>
      <trkpt lat="43.75001" lon="7.0778">
        <ele>738.20001220703</ele>
        <time>2023-08-02T07:33:27.000Z</time>
      </trkpt>
      <trkpt lat="43.75003" lon="7.0778">
        <ele>738.59997558594</ele>
        <time>2023-08-02T07:33:28.000Z</time>
      </trkpt>
      <trkpt lat="43.75005" lon="7.07781">
        <ele>739</ele>
        <time>2023-08-02T07:33:29.000Z</time>
      </trkpt>
      <trkpt lat="43.75007" lon="7.07781">
        <ele>739.20001220703</ele>
        <time>2023-08-02T07:33:30.000Z</time>
      </trkpt>
      <trkpt lat="43.75009" lon="7.07781">
        <ele>739.40002441406</ele>
        <time>2023-08-02T07:33:31.000Z</time>
      </trkpt>
      <trkpt lat="43.75011" lon="7.07781">
        <ele>739.79998779297</ele>
        <time>2023-08-02T07:33:32.000Z</time>
      </trkpt>
      <trkpt lat="43.75013" lon="7.07781">
        <ele>740.20001220703</ele>
        <time>2023-08-02T07:33:33.000Z</time>
      </trkpt>
      <trkpt lat="43.75014" lon="7.07782">
        <ele>740.40002441406</ele>
        <time>2023-08-02T07:33:34.000Z</time>
      </trkpt>
      <trkpt lat="43.75017" lon="7.07783">
        <ele>740.79998779297</ele>
        <time>2023-08-02T07:33:35.000Z</time>
      </trkpt>
      <trkpt lat="43.75018" lon="7.07784">
        <ele>741.20001220703</ele>
        <time>2023-08-02T07:33:36.000Z</time>
      </trkpt>
      <trkpt lat="43.7502" lon="7.07784">
        <ele>741.20001220703</ele>
        <time>2023-08-02T07:33:37.000Z</time>
      </trkpt>
      <trkpt lat="43.7502" lon="7.07785">
        <ele>741.40002441406</ele>
        <time>2023-08-02T07:33:38.000Z</time>
      </trkpt>
      <trkpt lat="43.7502" lon="7.07785">
        <ele>741.59997558594</ele>
        <time>2023-08-02T07:33:39.000Z</time>
      </trkpt>
      <trkpt lat="43.7502" lon="7.07785">
        <ele>741.79998779297</ele>
        <time>2023-08-02T07:33:40.000Z</time>
      </trkpt>
      <trkpt lat="43.7502" lon="7.07785">
        <ele>741.79998779297</ele>
        <time>2023-08-02T07:33:41.000Z</time>
      </trkpt>
      <trkpt lat="43.7502" lon="7.07785">
        <ele>741.79998779297</ele>
        <time>2023-08-02T07:33:42.000Z</time>
      </trkpt>
      <trkpt lat="43.7502" lon="7.07785">
        <ele>741.79998779297</ele>
        <time>2023-08-02T07:33:43.000Z</time>
      </trkpt>
      <trkpt lat="43.7502" lon="7.07785">
        <ele>741.59997558594</ele>
        <time>2023-08-02T07:33:44.000Z</time>
      </trkpt>
      <trkpt lat="43.7502" lon="7.07785">
        <ele>741.59997558594</ele>
        <time>2023-08-02T07:33:45.000Z</time>
      </trkpt>
      <trkpt lat="43.7502" lon="7.07785">
        <ele>741.40002441406</ele>
        <time>2023-08-02T07:33:46.000Z</time>
      </trkpt>
      <trkpt lat="43.7502" lon="7.07785">
        <ele>741.40002441406</ele>
        <time>2023-08-02T07:33:47.000Z</time>
      </trkpt>
      <trkpt lat="43.7502" lon="7.07785">
        <ele>741.40002441406</ele>
        <time>2023-08-02T07:33:48.000Z</time>
      </trkpt>
      <trkpt lat="43.7502" lon="7.07785">
        <ele>741.40002441406</ele>
        <time>2023-08-02T07:33:49.000Z</time>
      </trkpt>
      <trkpt lat="43.7502" lon="7.07785">
        <ele>741.40002441406</ele>
        <time>2023-08-02T07:33:50.000Z</time>
      </trkpt>
      <trkpt lat="43.7502" lon="7.07785">
        <ele>741.40002441406</ele>
        <time>2023-08-02T07:33:51.000Z</time>
      </trkpt>
      <trkpt lat="43.7502" lon="7.07785">
        <ele>741.40002441406</ele>
        <time>2023-08-02T07:33:52.000Z</time>
      </trkpt>
      <trkpt lat="43.7502" lon="7.07785">
        <ele>741.40002441406</ele>
        <time>2023-08-02T07:33:53.000Z</time>
      </trkpt>
      <trkpt lat="43.7502" lon="7.07785">
        <ele>741.40002441406</ele>
        <time>2023-08-02T07:33:54.000Z</time>
      </trkpt>
      <trkpt lat="43.7502" lon="7.07785">
        <ele>741.40002441406</ele>
        <time>2023-08-02T07:33:55.000Z</time>
      </trkpt>
      <trkpt lat="43.7502" lon="7.07785">
        <ele>741.40002441406</ele>
        <time>2023-08-02T07:33:56.000Z</time>
      </trkpt>
      <trkpt lat="43.7502" lon="7.07785">
        <ele>741.40002441406</ele>
        <time>2023-08-02T07:33:57.000Z</time>
      </trkpt>
      <trkpt lat="43.7502" lon="7.07785">
        <ele>741.40002441406</ele>
        <time>2023-08-02T07:33:58.000Z</time>
      </trkpt>
      <trkpt lat="43.7502" lon="7.07785">
        <ele>741.40002441406</ele>
        <time>2023-08-02T07:33:59.000Z</time>
      </trkpt>
      <trkpt lat="43.7502" lon="7.07785">
        <ele>741.59997558594</ele>
        <time>2023-08-02T07:34:00.000Z</time>
      </trkpt>
      <trkpt lat="43.7502" lon="7.07785">
        <ele>741.59997558594</ele>
        <time>2023-08-02T07:34:01.000Z</time>
      </trkpt>
      <trkpt lat="43.7502" lon="7.07785">
        <ele>741.59997558594</ele>
        <time>2023-08-02T07:34:02.000Z</time>
      </trkpt>
      <trkpt lat="43.7502" lon="7.07785">
        <ele>741.59997558594</ele>
        <time>2023-08-02T07:34:03.000Z</time>
      </trkpt>
      <trkpt lat="43.7502" lon="7.07785">
        <ele>741.59997558594</ele>
        <time>2023-08-02T07:34:04.000Z</time>
      </trkpt>
      <trkpt lat="43.7502" lon="7.07785">
        <ele>741.59997558594</ele>
        <time>2023-08-02T07:34:05.000Z</time>
      </trkpt>
      <trkpt lat="43.7502" lon="7.07785">
        <ele>741.59997558594</ele>
        <time>2023-08-02T07:34:06.000Z</time>
      </trkpt>
      <trkpt lat="43.7502" lon="7.07785">
        <ele>741.59997558594</ele>
        <time>2023-08-02T07:34:07.000Z</time>
      </trkpt>
      <trkpt lat="43.7502" lon="7.07785">
        <ele>741.59997558594</ele>
        <time>2023-08-02T07:34:08.000Z</time>
      </trkpt>
      <trkpt lat="43.7502" lon="7.07785">
        <ele>741.59997558594</ele>
        <time>2023-08-02T07:34:09.000Z</time>
      </trkpt>
      <trkpt lat="43.7502" lon="7.07785">
        <ele>741.59997558594</ele>
        <time>2023-08-02T07:34:10.000Z</time>
      </trkpt>
      <trkpt lat="43.7502" lon="7.07785">
        <ele>741.59997558594</ele>
        <time>2023-08-02T07:34:11.000Z</time>
      </trkpt>
      <trkpt lat="43.7502" lon="7.07785">
        <ele>741.59997558594</ele>
        <time>2023-08-02T07:34:12.000Z</time>
      </trkpt>
      <trkpt lat="43.7502" lon="7.07785">
        <ele>741.59997558594</ele>
        <time>2023-08-02T07:34:13.000Z</time>
      </trkpt>
      <trkpt lat="43.7502" lon="7.07785">
        <ele>741.59997558594</ele>
        <time>2023-08-02T07:34:14.000Z</time>
      </trkpt>
      <trkpt lat="43.7502" lon="7.07785">
        <ele>741.59997558594</ele>
        <time>2023-08-02T07:34:15.000Z</time>
      </trkpt>
      <trkpt lat="43.7502" lon="7.07785">
        <ele>741.59997558594</ele>
        <time>2023-08-02T07:34:16.000Z</time>
      </trkpt>
      <trkpt lat="43.7502" lon="7.07785">
        <ele>741.59997558594</ele>
        <time>2023-08-02T07:34:17.000Z</time>
      </trkpt>
      <trkpt lat="43.7502" lon="7.07785">
        <ele>741.59997558594</ele>
        <time>2023-08-02T07:34:18.000Z</time>
      </trkpt>
      <trkpt lat="43.7502" lon="7.07785">
        <ele>741.59997558594</ele>
        <time>2023-08-02T07:34:19.000Z</time>
      </trkpt>
      <trkpt lat="43.7502" lon="7.07785">
        <ele>741.59997558594</ele>
        <time>2023-08-02T07:34:20.000Z</time>
      </trkpt>
      <trkpt lat="43.7502" lon="7.07785">
        <ele>741.59997558594</ele>
        <time>2023-08-02T07:34:21.000Z</time>
      </trkpt>
      <trkpt lat="43.7502" lon="7.07785">
        <ele>741.59997558594</ele>
        <time>2023-08-02T07:34:22.000Z</time>
      </trkpt>
      <trkpt lat="43.7502" lon="7.07785">
        <ele>741.59997558594</ele>
        <time>2023-08-02T07:34:23.000Z</time>
      </trkpt>
      <trkpt lat="43.7502" lon="7.07785">
        <ele>741.59997558594</ele>
        <time>2023-08-02T07:34:24.000Z</time>
      </trkpt>
      <trkpt lat="43.7502" lon="7.07785">
        <ele>741.59997558594</ele>
        <time>2023-08-02T07:34:25.000Z</time>
      </trkpt>
      <trkpt lat="43.7502" lon="7.07785">
        <ele>741.59997558594</ele>
        <time>2023-08-02T07:34:26.000Z</time>
      </trkpt>
      <trkpt lat="43.7502" lon="7.07785">
        <ele>741.59997558594</ele>
        <time>2023-08-02T07:34:27.000Z</time>
      </trkpt>
      <trkpt lat="43.7502" lon="7.07785">
        <ele>741.79998779297</ele>
        <time>2023-08-02T07:34:28.000Z</time>
      </trkpt>
      <trkpt lat="43.7502" lon="7.07785">
        <ele>741.79998779297</ele>
        <time>2023-08-02T07:34:29.000Z</time>
      </trkpt>
      <trkpt lat="43.7502" lon="7.07785">
        <ele>741.79998779297</ele>
        <time>2023-08-02T07:34:30.000Z</time>
      </trkpt>
      <trkpt lat="43.7502" lon="7.07785">
        <ele>741.79998779297</ele>
        <time>2023-08-02T07:34:31.000Z</time>
      </trkpt>
      <trkpt lat="43.7502" lon="7.07785">
        <ele>741.79998779297</ele>
        <time>2023-08-02T07:34:32.000Z</time>
      </trkpt>
      <trkpt lat="43.7502" lon="7.07785">
        <ele>741.79998779297</ele>
        <time>2023-08-02T07:34:33.000Z</time>
      </trkpt>
      <trkpt lat="43.7502" lon="7.07785">
        <ele>741.79998779297</ele>
        <time>2023-08-02T07:34:34.000Z</time>
      </trkpt>
      <trkpt lat="43.7502" lon="7.07785">
        <ele>741.79998779297</ele>
        <time>2023-08-02T07:34:35.000Z</time>
      </trkpt>
      <trkpt lat="43.7502" lon="7.07785">
        <ele>741.79998779297</ele>
        <time>2023-08-02T07:34:36.000Z</time>
      </trkpt>
      <trkpt lat="43.7502" lon="7.07785">
        <ele>741.79998779297</ele>
        <time>2023-08-02T07:34:37.000Z</time>
      </trkpt>
      <trkpt lat="43.7502" lon="7.07785">
        <ele>741.79998779297</ele>
        <time>2023-08-02T07:34:38.000Z</time>
      </trkpt>
      <trkpt lat="43.7502" lon="7.07785">
        <ele>741.79998779297</ele>
        <time>2023-08-02T07:34:39.000Z</time>
      </trkpt>
      <trkpt lat="43.7502" lon="7.07785">
        <ele>741.79998779297</ele>
        <time>2023-08-02T07:34:40.000Z</time>
      </trkpt>
      <trkpt lat="43.7502" lon="7.07785">
        <ele>741.79998779297</ele>
        <time>2023-08-02T07:34:41.000Z</time>
      </trkpt>
      <trkpt lat="43.7502" lon="7.07785">
        <ele>741.79998779297</ele>
        <time>2023-08-02T07:34:42.000Z</time>
      </trkpt>
      <trkpt lat="43.7502" lon="7.07785">
        <ele>741.79998779297</ele>
        <time>2023-08-02T07:34:43.000Z</time>
      </trkpt>
      <trkpt lat="43.7502" lon="7.07785">
        <ele>741.79998779297</ele>
        <time>2023-08-02T07:34:44.000Z</time>
      </trkpt>
      <trkpt lat="43.7502" lon="7.07785">
        <ele>741.79998779297</ele>
        <time>2023-08-02T07:34:45.000Z</time>
      </trkpt>
      <trkpt lat="43.7502" lon="7.07785">
        <ele>741.79998779297</ele>
        <time>2023-08-02T07:34:46.000Z</time>
      </trkpt>
      <trkpt lat="43.7502" lon="7.07785">
        <ele>741.79998779297</ele>
        <time>2023-08-02T07:34:47.000Z</time>
      </trkpt>
      <trkpt lat="43.7502" lon="7.07785">
        <ele>741.79998779297</ele>
        <time>2023-08-02T07:34:48.000Z</time>
      </trkpt>
      <trkpt lat="43.7502" lon="7.07785">
        <ele>741.79998779297</ele>
        <time>2023-08-02T07:34:49.000Z</time>
      </trkpt>
      <trkpt lat="43.7502" lon="7.07785">
        <ele>741.79998779297</ele>
        <time>2023-08-02T07:34:50.000Z</time>
      </trkpt>
      <trkpt lat="43.7502" lon="7.07785">
        <ele>741.79998779297</ele>
        <time>2023-08-02T07:34:51.000Z</time>
      </trkpt>
      <trkpt lat="43.7502" lon="7.07785">
        <ele>741.79998779297</ele>
        <time>2023-08-02T07:34:52.000Z</time>
      </trkpt>
      <trkpt lat="43.7502" lon="7.07785">
        <ele>741.79998779297</ele>
        <time>2023-08-02T07:34:53.000Z</time>
      </trkpt>
      <trkpt lat="43.7502" lon="7.07785">
        <ele>741.79998779297</ele>
        <time>2023-08-02T07:34:54.000Z</time>
      </trkpt>
      <trkpt lat="43.7502" lon="7.07785">
        <ele>741.79998779297</ele>
        <time>2023-08-02T07:34:55.000Z</time>
      </trkpt>
      <trkpt lat="43.7502" lon="7.07785">
        <ele>741.79998779297</ele>
        <time>2023-08-02T07:34:56.000Z</time>
      </trkpt>
      <trkpt lat="43.7502" lon="7.07785">
        <ele>741.79998779297</ele>
        <time>2023-08-02T07:34:57.000Z</time>
      </trkpt>
      <trkpt lat="43.7502" lon="7.07785">
        <ele>741.79998779297</ele>
        <time>2023-08-02T07:34:58.000Z</time>
      </trkpt>
      <trkpt lat="43.7502" lon="7.07784">
        <ele>741.79998779297</ele>
        <time>2023-08-02T07:34:59.000Z</time>
      </trkpt>
      <trkpt lat="43.7502" lon="7.07784">
        <ele>741.79998779297</ele>
        <time>2023-08-02T07:35:00.000Z</time>
      </trkpt>
      <trkpt lat="43.7502" lon="7.07785">
        <ele>741.79998779297</ele>
        <time>2023-08-02T07:35:01.000Z</time>
      </trkpt>
      <trkpt lat="43.7502" lon="7.07785">
        <ele>741.79998779297</ele>
        <time>2023-08-02T07:35:02.000Z</time>
      </trkpt>
      <trkpt lat="43.7502" lon="7.07785">
        <ele>741.79998779297</ele>
        <time>2023-08-02T07:35:03.000Z</time>
      </trkpt>
      <trkpt lat="43.7502" lon="7.07785">
        <ele>741.79998779297</ele>
        <time>2023-08-02T07:35:04.000Z</time>
      </trkpt>
      <trkpt lat="43.7502" lon="7.07784">
        <ele>741.79998779297</ele>
        <time>2023-08-02T07:35:05.000Z</time>
      </trkpt>
      <trkpt lat="43.7502" lon="7.07784">
        <ele>741.79998779297</ele>
        <time>2023-08-02T07:35:06.000Z</time>
      </trkpt>
      <trkpt lat="43.7502" lon="7.07784">
        <ele>741.79998779297</ele>
        <time>2023-08-02T07:35:07.000Z</time>
      </trkpt>
      <trkpt lat="43.7502" lon="7.07784">
        <ele>741.79998779297</ele>
        <time>2023-08-02T07:35:08.000Z</time>
      </trkpt>
      <trkpt lat="43.7502" lon="7.07784">
        <ele>741.79998779297</ele>
        <time>2023-08-02T07:35:09.000Z</time>
      </trkpt>
      <trkpt lat="43.7502" lon="7.07784">
        <ele>741.79998779297</ele>
        <time>2023-08-02T07:35:10.000Z</time>
      </trkpt>
      <trkpt lat="43.7502" lon="7.07784">
        <ele>741.79998779297</ele>
        <time>2023-08-02T07:35:11.000Z</time>
      </trkpt>
      <trkpt lat="43.7502" lon="7.07784">
        <ele>741.79998779297</ele>
        <time>2023-08-02T07:35:12.000Z</time>
      </trkpt>
      <trkpt lat="43.7502" lon="7.07785">
        <ele>741.79998779297</ele>
        <time>2023-08-02T07:35:13.000Z</time>
      </trkpt>
      <trkpt lat="43.7502" lon="7.07785">
        <ele>741.79998779297</ele>
        <time>2023-08-02T07:35:14.000Z</time>
      </trkpt>
      <trkpt lat="43.7502" lon="7.07785">
        <ele>741.79998779297</ele>
        <time>2023-08-02T07:35:15.000Z</time>
      </trkpt>
      <trkpt lat="43.7502" lon="7.07785">
        <ele>741.79998779297</ele>
        <time>2023-08-02T07:35:16.000Z</time>
      </trkpt>
      <trkpt lat="43.7502" lon="7.07784">
        <ele>741.79998779297</ele>
        <time>2023-08-02T07:35:17.000Z</time>
      </trkpt>
      <trkpt lat="43.7502" lon="7.07784">
        <ele>741.79998779297</ele>
        <time>2023-08-02T07:35:18.000Z</time>
      </trkpt>
      <trkpt lat="43.7502" lon="7.07784">
        <ele>741.79998779297</ele>
        <time>2023-08-02T07:35:19.000Z</time>
      </trkpt>
      <trkpt lat="43.7502" lon="7.07784">
        <ele>741.79998779297</ele>
        <time>2023-08-02T07:35:20.000Z</time>
      </trkpt>
      <trkpt lat="43.7502" lon="7.07784">
        <ele>741.79998779297</ele>
        <time>2023-08-02T07:35:21.000Z</time>
      </trkpt>
      <trkpt lat="43.7502" lon="7.07784">
        <ele>741.79998779297</ele>
        <time>2023-08-02T07:35:22.000Z</time>
      </trkpt>
      <trkpt lat="43.7502" lon="7.07784">
        <ele>741.79998779297</ele>
        <time>2023-08-02T07:35:23.000Z</time>
      </trkpt>
      <trkpt lat="43.7502" lon="7.07784">
        <ele>741.79998779297</ele>
        <time>2023-08-02T07:35:24.000Z</time>
      </trkpt>
      <trkpt lat="43.7502" lon="7.07784">
        <ele>741.79998779297</ele>
        <time>2023-08-02T07:35:25.000Z</time>
      </trkpt>
      <trkpt lat="43.7502" lon="7.07784">
        <ele>741.79998779297</ele>
        <time>2023-08-02T07:35:26.000Z</time>
      </trkpt>
      <trkpt lat="43.7502" lon="7.07784">
        <ele>741.79998779297</ele>
        <time>2023-08-02T07:35:27.000Z</time>
      </trkpt>
      <trkpt lat="43.7502" lon="7.07784">
        <ele>741.79998779297</ele>
        <time>2023-08-02T07:35:28.000Z</time>
      </trkpt>
      <trkpt lat="43.7502" lon="7.07784">
        <ele>741.79998779297</ele>
        <time>2023-08-02T07:35:29.000Z</time>
      </trkpt>
      <trkpt lat="43.7502" lon="7.07784">
        <ele>741.79998779297</ele>
        <time>2023-08-02T07:35:30.000Z</time>
      </trkpt>
      <trkpt lat="43.7502" lon="7.07784">
        <ele>741.79998779297</ele>
        <time>2023-08-02T07:35:31.000Z</time>
      </trkpt>
      <trkpt lat="43.7502" lon="7.07784">
        <ele>741.79998779297</ele>
        <time>2023-08-02T07:35:32.000Z</time>
      </trkpt>
      <trkpt lat="43.7502" lon="7.07784">
        <ele>741.79998779297</ele>
        <time>2023-08-02T07:35:33.000Z</time>
      </trkpt>
      <trkpt lat="43.7502" lon="7.07784">
        <ele>741.79998779297</ele>
        <time>2023-08-02T07:35:34.000Z</time>
      </trkpt>
      <trkpt lat="43.7502" lon="7.07784">
        <ele>741.79998779297</ele>
        <time>2023-08-02T07:35:35.000Z</time>
      </trkpt>
      <trkpt lat="43.7502" lon="7.07784">
        <ele>741.79998779297</ele>
        <time>2023-08-02T07:35:36.000Z</time>
      </trkpt>
      <trkpt lat="43.7502" lon="7.07784">
        <ele>741.79998779297</ele>
        <time>2023-08-02T07:35:37.000Z</time>
      </trkpt>
      <trkpt lat="43.7502" lon="7.07784">
        <ele>741.79998779297</ele>
        <time>2023-08-02T07:35:38.000Z</time>
      </trkpt>
      <trkpt lat="43.7502" lon="7.07784">
        <ele>741.79998779297</ele>
        <time>2023-08-02T07:35:39.000Z</time>
      </trkpt>
      <trkpt lat="43.7502" lon="7.07784">
        <ele>741.79998779297</ele>
        <time>2023-08-02T07:35:40.000Z</time>
      </trkpt>
      <trkpt lat="43.7502" lon="7.07784">
        <ele>741.79998779297</ele>
        <time>2023-08-02T07:35:41.000Z</time>
      </trkpt>
      <trkpt lat="43.7502" lon="7.07784">
        <ele>741.79998779297</ele>
        <time>2023-08-02T07:35:42.000Z</time>
      </trkpt>
      <trkpt lat="43.7502" lon="7.07784">
        <ele>741.79998779297</ele>
        <time>2023-08-02T07:35:43.000Z</time>
      </trkpt>
      <trkpt lat="43.7502" lon="7.07784">
        <ele>741.79998779297</ele>
        <time>2023-08-02T07:35:44.000Z</time>
      </trkpt>
      <trkpt lat="43.7502" lon="7.07784">
        <ele>741.79998779297</ele>
        <time>2023-08-02T07:35:45.000Z</time>
      </trkpt>
      <trkpt lat="43.7502" lon="7.07785">
        <ele>741.79998779297</ele>
        <time>2023-08-02T07:35:46.000Z</time>
      </trkpt>
      <trkpt lat="43.7502" lon="7.07785">
        <ele>741.79998779297</ele>
        <time>2023-08-02T07:35:47.000Z</time>
      </trkpt>
      <trkpt lat="43.7502" lon="7.07785">
        <ele>741.79998779297</ele>
        <time>2023-08-02T07:35:48.000Z</time>
      </trkpt>
      <trkpt lat="43.7502" lon="7.07785">
        <ele>741.79998779297</ele>
        <time>2023-08-02T07:35:49.000Z</time>
      </trkpt>
      <trkpt lat="43.7502" lon="7.07785">
        <ele>741.79998779297</ele>
        <time>2023-08-02T07:35:50.000Z</time>
      </trkpt>
      <trkpt lat="43.7502" lon="7.07785">
        <ele>741.79998779297</ele>
        <time>2023-08-02T07:35:51.000Z</time>
      </trkpt>
      <trkpt lat="43.7502" lon="7.07785">
        <ele>741.79998779297</ele>
        <time>2023-08-02T07:35:52.000Z</time>
      </trkpt>
      <trkpt lat="43.7502" lon="7.07785">
        <ele>741.79998779297</ele>
        <time>2023-08-02T07:35:53.000Z</time>
      </trkpt>
      <trkpt lat="43.7502" lon="7.07785">
        <ele>741.79998779297</ele>
        <time>2023-08-02T07:35:54.000Z</time>
      </trkpt>
      <trkpt lat="43.7502" lon="7.07785">
        <ele>741.79998779297</ele>
        <time>2023-08-02T07:35:55.000Z</time>
      </trkpt>
      <trkpt lat="43.7502" lon="7.07785">
        <ele>741.79998779297</ele>
        <time>2023-08-02T07:35:56.000Z</time>
      </trkpt>
      <trkpt lat="43.7502" lon="7.07785">
        <ele>741.79998779297</ele>
        <time>2023-08-02T07:35:57.000Z</time>
      </trkpt>
      <trkpt lat="43.7502" lon="7.07785">
        <ele>741.79998779297</ele>
        <time>2023-08-02T07:35:58.000Z</time>
      </trkpt>
      <trkpt lat="43.7502" lon="7.07785">
        <ele>741.79998779297</ele>
        <time>2023-08-02T07:35:59.000Z</time>
      </trkpt>
      <trkpt lat="43.7502" lon="7.07784">
        <ele>741.79998779297</ele>
        <time>2023-08-02T07:36:00.000Z</time>
      </trkpt>
      <trkpt lat="43.7502" lon="7.07785">
        <ele>741.79998779297</ele>
        <time>2023-08-02T07:36:01.000Z</time>
      </trkpt>
      <trkpt lat="43.7502" lon="7.07785">
        <ele>741.79998779297</ele>
        <time>2023-08-02T07:36:02.000Z</time>
      </trkpt>
      <trkpt lat="43.7502" lon="7.07785">
        <ele>741.79998779297</ele>
        <time>2023-08-02T07:36:03.000Z</time>
      </trkpt>
      <trkpt lat="43.7502" lon="7.07785">
        <ele>741.79998779297</ele>
        <time>2023-08-02T07:36:04.000Z</time>
      </trkpt>
      <trkpt lat="43.7502" lon="7.07785">
        <ele>741.79998779297</ele>
        <time>2023-08-02T07:36:05.000Z</time>
      </trkpt>
      <trkpt lat="43.7502" lon="7.07785">
        <ele>741.79998779297</ele>
        <time>2023-08-02T07:36:06.000Z</time>
      </trkpt>
      <trkpt lat="43.7502" lon="7.07785">
        <ele>741.79998779297</ele>
        <time>2023-08-02T07:36:07.000Z</time>
      </trkpt>
      <trkpt lat="43.7502" lon="7.07785">
        <ele>741.79998779297</ele>
        <time>2023-08-02T07:36:08.000Z</time>
      </trkpt>
      <trkpt lat="43.7502" lon="7.07785">
        <ele>741.79998779297</ele>
        <time>2023-08-02T07:36:09.000Z</time>
      </trkpt>
      <trkpt lat="43.7502" lon="7.07785">
        <ele>741.79998779297</ele>
        <time>2023-08-02T07:36:10.000Z</time>
      </trkpt>
      <trkpt lat="43.7502" lon="7.07785">
        <ele>741.79998779297</ele>
        <time>2023-08-02T07:36:11.000Z</time>
      </trkpt>
      <trkpt lat="43.7502" lon="7.07785">
        <ele>741.79998779297</ele>
        <time>2023-08-02T07:36:12.000Z</time>
      </trkpt>
      <trkpt lat="43.7502" lon="7.07785">
        <ele>741.79998779297</ele>
        <time>2023-08-02T07:36:13.000Z</time>
      </trkpt>
      <trkpt lat="43.7502" lon="7.07785">
        <ele>741.79998779297</ele>
        <time>2023-08-02T07:36:14.000Z</time>
      </trkpt>
      <trkpt lat="43.7502" lon="7.07785">
        <ele>741.79998779297</ele>
        <time>2023-08-02T07:36:15.000Z</time>
      </trkpt>
      <trkpt lat="43.7502" lon="7.07785">
        <ele>741.79998779297</ele>
        <time>2023-08-02T07:36:16.000Z</time>
      </trkpt>
      <trkpt lat="43.7502" lon="7.07785">
        <ele>741.79998779297</ele>
        <time>2023-08-02T07:36:17.000Z</time>
      </trkpt>
      <trkpt lat="43.7502" lon="7.07785">
        <ele>741.79998779297</ele>
        <time>2023-08-02T07:36:18.000Z</time>
      </trkpt>
      <trkpt lat="43.7502" lon="7.07785">
        <ele>741.79998779297</ele>
        <time>2023-08-02T07:36:19.000Z</time>
      </trkpt>
      <trkpt lat="43.7502" lon="7.07785">
        <ele>741.79998779297</ele>
        <time>2023-08-02T07:36:20.000Z</time>
      </trkpt>
      <trkpt lat="43.7502" lon="7.07785">
        <ele>741.79998779297</ele>
        <time>2023-08-02T07:36:21.000Z</time>
      </trkpt>
      <trkpt lat="43.7502" lon="7.07785">
        <ele>741.79998779297</ele>
        <time>2023-08-02T07:36:22.000Z</time>
      </trkpt>
      <trkpt lat="43.7502" lon="7.07785">
        <ele>741.79998779297</ele>
        <time>2023-08-02T07:36:23.000Z</time>
      </trkpt>
      <trkpt lat="43.7502" lon="7.07785">
        <ele>741.79998779297</ele>
        <time>2023-08-02T07:36:24.000Z</time>
      </trkpt>
      <trkpt lat="43.7502" lon="7.07785">
        <ele>741.79998779297</ele>
        <time>2023-08-02T07:36:25.000Z</time>
      </trkpt>
      <trkpt lat="43.7502" lon="7.07785">
        <ele>741.79998779297</ele>
        <time>2023-08-02T07:36:26.000Z</time>
      </trkpt>
      <trkpt lat="43.7502" lon="7.07785">
        <ele>741.79998779297</ele>
        <time>2023-08-02T07:36:27.000Z</time>
      </trkpt>
      <trkpt lat="43.7502" lon="7.07785">
        <ele>741.79998779297</ele>
        <time>2023-08-02T07:36:28.000Z</time>
      </trkpt>
      <trkpt lat="43.7502" lon="7.07785">
        <ele>741.79998779297</ele>
        <time>2023-08-02T07:36:29.000Z</time>
      </trkpt>
      <trkpt lat="43.7502" lon="7.07785">
        <ele>741.79998779297</ele>
        <time>2023-08-02T07:36:30.000Z</time>
      </trkpt>
      <trkpt lat="43.7502" lon="7.07785">
        <ele>741.79998779297</ele>
        <time>2023-08-02T07:36:31.000Z</time>
      </trkpt>
      <trkpt lat="43.7502" lon="7.07785">
        <ele>741.79998779297</ele>
        <time>2023-08-02T07:36:32.000Z</time>
      </trkpt>
      <trkpt lat="43.7502" lon="7.07784">
        <ele>741.79998779297</ele>
        <time>2023-08-02T07:36:33.000Z</time>
      </trkpt>
      <trkpt lat="43.7502" lon="7.07785">
        <ele>741.79998779297</ele>
        <time>2023-08-02T07:36:34.000Z</time>
      </trkpt>
      <trkpt lat="43.7502" lon="7.07785">
        <ele>741.79998779297</ele>
        <time>2023-08-02T07:36:35.000Z</time>
      </trkpt>
      <trkpt lat="43.7502" lon="7.07785">
        <ele>741.79998779297</ele>
        <time>2023-08-02T07:36:36.000Z</time>
      </trkpt>
      <trkpt lat="43.7502" lon="7.07785">
        <ele>741.79998779297</ele>
        <time>2023-08-02T07:36:37.000Z</time>
      </trkpt>
      <trkpt lat="43.7502" lon="7.07785">
        <ele>741.79998779297</ele>
        <time>2023-08-02T07:36:38.000Z</time>
      </trkpt>
      <trkpt lat="43.7502" lon="7.07785">
        <ele>741.79998779297</ele>
        <time>2023-08-02T07:36:39.000Z</time>
      </trkpt>
      <trkpt lat="43.7502" lon="7.07785">
        <ele>741.79998779297</ele>
        <time>2023-08-02T07:36:40.000Z</time>
      </trkpt>
      <trkpt lat="43.7502" lon="7.07785">
        <ele>741.79998779297</ele>
        <time>2023-08-02T07:36:41.000Z</time>
      </trkpt>
      <trkpt lat="43.7502" lon="7.07785">
        <ele>741.79998779297</ele>
        <time>2023-08-02T07:36:42.000Z</time>
      </trkpt>
      <trkpt lat="43.7502" lon="7.07785">
        <ele>741.79998779297</ele>
        <time>2023-08-02T07:36:43.000Z</time>
      </trkpt>
      <trkpt lat="43.7502" lon="7.07785">
        <ele>741.79998779297</ele>
        <time>2023-08-02T07:36:44.000Z</time>
      </trkpt>
      <trkpt lat="43.7502" lon="7.07785">
        <ele>741.79998779297</ele>
        <time>2023-08-02T07:36:45.000Z</time>
      </trkpt>
      <trkpt lat="43.7502" lon="7.07785">
        <ele>741.79998779297</ele>
        <time>2023-08-02T07:36:46.000Z</time>
      </trkpt>
      <trkpt lat="43.7502" lon="7.07785">
        <ele>741.79998779297</ele>
        <time>2023-08-02T07:36:47.000Z</time>
      </trkpt>
      <trkpt lat="43.7502" lon="7.07785">
        <ele>741.79998779297</ele>
        <time>2023-08-02T07:36:48.000Z</time>
      </trkpt>
      <trkpt lat="43.7502" lon="7.07785">
        <ele>741.79998779297</ele>
        <time>2023-08-02T07:36:49.000Z</time>
      </trkpt>
      <trkpt lat="43.75019" lon="7.07785">
        <ele>741.79998779297</ele>
        <time>2023-08-02T07:36:50.000Z</time>
      </trkpt>
      <trkpt lat="43.75019" lon="7.07786">
        <ele>741.79998779297</ele>
        <time>2023-08-02T07:36:51.000Z</time>
      </trkpt>
      <trkpt lat="43.7502" lon="7.07785">
        <ele>741.79998779297</ele>
        <time>2023-08-02T07:36:52.000Z</time>
      </trkpt>
      <trkpt lat="43.7502" lon="7.07785">
        <ele>741.79998779297</ele>
        <time>2023-08-02T07:36:53.000Z</time>
      </trkpt>
      <trkpt lat="43.7502" lon="7.07785">
        <ele>741.79998779297</ele>
        <time>2023-08-02T07:36:54.000Z</time>
      </trkpt>
      <trkpt lat="43.7502" lon="7.07785">
        <ele>741.79998779297</ele>
        <time>2023-08-02T07:36:55.000Z</time>
      </trkpt>
      <trkpt lat="43.7502" lon="7.07785">
        <ele>741.79998779297</ele>
        <time>2023-08-02T07:36:56.000Z</time>
      </trkpt>
      <trkpt lat="43.7502" lon="7.07784">
        <ele>741.79998779297</ele>
        <time>2023-08-02T07:36:57.000Z</time>
      </trkpt>
      <trkpt lat="43.7502" lon="7.07784">
        <ele>741.79998779297</ele>
        <time>2023-08-02T07:36:58.000Z</time>
      </trkpt>
      <trkpt lat="43.7502" lon="7.07784">
        <ele>741.79998779297</ele>
        <time>2023-08-02T07:36:59.000Z</time>
      </trkpt>
      <trkpt lat="43.7502" lon="7.07784">
        <ele>741.79998779297</ele>
        <time>2023-08-02T07:37:00.000Z</time>
      </trkpt>
      <trkpt lat="43.7502" lon="7.07784">
        <ele>741.79998779297</ele>
        <time>2023-08-02T07:37:01.000Z</time>
      </trkpt>
      <trkpt lat="43.7502" lon="7.07784">
        <ele>741.79998779297</ele>
        <time>2023-08-02T07:37:02.000Z</time>
      </trkpt>
      <trkpt lat="43.7502" lon="7.07784">
        <ele>741.79998779297</ele>
        <time>2023-08-02T07:37:03.000Z</time>
      </trkpt>
      <trkpt lat="43.7502" lon="7.07784">
        <ele>741.79998779297</ele>
        <time>2023-08-02T07:37:04.000Z</time>
      </trkpt>
      <trkpt lat="43.7502" lon="7.07784">
        <ele>741.79998779297</ele>
        <time>2023-08-02T07:37:05.000Z</time>
      </trkpt>
      <trkpt lat="43.7502" lon="7.07784">
        <ele>741.79998779297</ele>
        <time>2023-08-02T07:37:06.000Z</time>
      </trkpt>
      <trkpt lat="43.7502" lon="7.07784">
        <ele>741.79998779297</ele>
        <time>2023-08-02T07:37:07.000Z</time>
      </trkpt>
      <trkpt lat="43.7502" lon="7.07784">
        <ele>741.79998779297</ele>
        <time>2023-08-02T07:37:08.000Z</time>
      </trkpt>
      <trkpt lat="43.7502" lon="7.07784">
        <ele>741.79998779297</ele>
        <time>2023-08-02T07:37:09.000Z</time>
      </trkpt>
      <trkpt lat="43.7502" lon="7.07784">
        <ele>741.79998779297</ele>
        <time>2023-08-02T07:37:10.000Z</time>
      </trkpt>
      <trkpt lat="43.7502" lon="7.07784">
        <ele>741.79998779297</ele>
        <time>2023-08-02T07:37:11.000Z</time>
      </trkpt>
      <trkpt lat="43.7502" lon="7.07784">
        <ele>741.79998779297</ele>
        <time>2023-08-02T07:37:12.000Z</time>
      </trkpt>
      <trkpt lat="43.7502" lon="7.07784">
        <ele>741.79998779297</ele>
        <time>2023-08-02T07:37:13.000Z</time>
      </trkpt>
      <trkpt lat="43.75023" lon="7.07785">
        <ele>741.79998779297</ele>
        <time>2023-08-02T07:37:14.000Z</time>
      </trkpt>
      <trkpt lat="43.75025" lon="7.07786">
        <ele>741.79998779297</ele>
        <time>2023-08-02T07:37:15.000Z</time>
      </trkpt>
      <trkpt lat="43.75027" lon="7.07787">
        <ele>742</ele>
        <time>2023-08-02T07:37:16.000Z</time>
      </trkpt>
      <trkpt lat="43.75029" lon="7.07787">
        <ele>742</ele>
        <time>2023-08-02T07:37:17.000Z</time>
      </trkpt>
      <trkpt lat="43.7503" lon="7.07788">
        <ele>742</ele>
        <time>2023-08-02T07:37:18.000Z</time>
      </trkpt>
      <trkpt lat="43.75032" lon="7.07789">
        <ele>742</ele>
        <time>2023-08-02T07:37:19.000Z</time>
      </trkpt>
      <trkpt lat="43.75034" lon="7.0779">
        <ele>742.40002441406</ele>
        <time>2023-08-02T07:37:20.000Z</time>
      </trkpt>
      <trkpt lat="43.75036" lon="7.0779">
        <ele>742.59997558594</ele>
        <time>2023-08-02T07:37:21.000Z</time>
      </trkpt>
      <trkpt lat="43.75038" lon="7.0779">
        <ele>742.59997558594</ele>
        <time>2023-08-02T07:37:22.000Z</time>
      </trkpt>
      <trkpt lat="43.7504" lon="7.07791">
        <ele>743</ele>
        <time>2023-08-02T07:37:23.000Z</time>
      </trkpt>
      <trkpt lat="43.75042" lon="7.07792">
        <ele>743</ele>
        <time>2023-08-02T07:37:24.000Z</time>
      </trkpt>
      <trkpt lat="43.75044" lon="7.07792">
        <ele>743.20001220703</ele>
        <time>2023-08-02T07:37:25.000Z</time>
      </trkpt>
      <trkpt lat="43.75047" lon="7.07793">
        <ele>743.40002441406</ele>
        <time>2023-08-02T07:37:26.000Z</time>
      </trkpt>
      <trkpt lat="43.75049" lon="7.07793">
        <ele>743.40002441406</ele>
        <time>2023-08-02T07:37:27.000Z</time>
      </trkpt>
      <trkpt lat="43.75051" lon="7.07793">
        <ele>743.59997558594</ele>
        <time>2023-08-02T07:37:28.000Z</time>
      </trkpt>
      <trkpt lat="43.75053" lon="7.07792">
        <ele>743.79998779297</ele>
        <time>2023-08-02T07:37:29.000Z</time>
      </trkpt>
      <trkpt lat="43.75055" lon="7.07792">
        <ele>744.20001220703</ele>
        <time>2023-08-02T07:37:30.000Z</time>
      </trkpt>
      <trkpt lat="43.75057" lon="7.07791">
        <ele>744.20001220703</ele>
        <time>2023-08-02T07:37:31.000Z</time>
      </trkpt>
      <trkpt lat="43.7506" lon="7.0779">
        <ele>744.79998779297</ele>
        <time>2023-08-02T07:37:32.000Z</time>
      </trkpt>
      <trkpt lat="43.75062" lon="7.07789">
        <ele>744.79998779297</ele>
        <time>2023-08-02T07:37:33.000Z</time>
      </trkpt>
      <trkpt lat="43.75064" lon="7.07788">
        <ele>745</ele>
        <time>2023-08-02T07:37:34.000Z</time>
      </trkpt>
      <trkpt lat="43.75066" lon="7.07787">
        <ele>745</ele>
        <time>2023-08-02T07:37:35.000Z</time>
      </trkpt>
      <trkpt lat="43.75068" lon="7.07785">
        <ele>745.20001220703</ele>
        <time>2023-08-02T07:37:36.000Z</time>
      </trkpt>
      <trkpt lat="43.75071" lon="7.07784">
        <ele>745.59997558594</ele>
        <time>2023-08-02T07:37:37.000Z</time>
      </trkpt>
      <trkpt lat="43.75073" lon="7.07783">
        <ele>745.59997558594</ele>
        <time>2023-08-02T07:37:38.000Z</time>
      </trkpt>
      <trkpt lat="43.75075" lon="7.07782">
        <ele>745.79998779297</ele>
        <time>2023-08-02T07:37:39.000Z</time>
      </trkpt>
      <trkpt lat="43.75078" lon="7.07781">
        <ele>745.79998779297</ele>
        <time>2023-08-02T07:37:40.000Z</time>
      </trkpt>
      <trkpt lat="43.7508" lon="7.0778">
        <ele>746.20001220703</ele>
        <time>2023-08-02T07:37:41.000Z</time>
      </trkpt>
      <trkpt lat="43.75082" lon="7.07779">
        <ele>746.20001220703</ele>
        <time>2023-08-02T07:37:42.000Z</time>
      </trkpt>
      <trkpt lat="43.75084" lon="7.0778">
        <ele>746.40002441406</ele>
        <time>2023-08-02T07:37:43.000Z</time>
      </trkpt>
      <trkpt lat="43.75086" lon="7.0778">
        <ele>746.59997558594</ele>
        <time>2023-08-02T07:37:44.000Z</time>
      </trkpt>
      <trkpt lat="43.75088" lon="7.07779">
        <ele>747.20001220703</ele>
        <time>2023-08-02T07:37:45.000Z</time>
      </trkpt>
      <trkpt lat="43.75091" lon="7.07779">
        <ele>747.20001220703</ele>
        <time>2023-08-02T07:37:46.000Z</time>
      </trkpt>
      <trkpt lat="43.75092" lon="7.0778">
        <ele>747.59997558594</ele>
        <time>2023-08-02T07:37:47.000Z</time>
      </trkpt>
      <trkpt lat="43.75095" lon="7.07781">
        <ele>747.79998779297</ele>
        <time>2023-08-02T07:37:48.000Z</time>
      </trkpt>
      <trkpt lat="43.75097" lon="7.07781">
        <ele>748.40002441406</ele>
        <time>2023-08-02T07:37:49.000Z</time>
      </trkpt>
      <trkpt lat="43.75099" lon="7.07782">
        <ele>748.40002441406</ele>
        <time>2023-08-02T07:37:50.000Z</time>
      </trkpt>
      <trkpt lat="43.75102" lon="7.07782">
        <ele>748.79998779297</ele>
        <time>2023-08-02T07:37:51.000Z</time>
      </trkpt>
      <trkpt lat="43.75104" lon="7.07784">
        <ele>749.20001220703</ele>
        <time>2023-08-02T07:37:52.000Z</time>
      </trkpt>
      <trkpt lat="43.75105" lon="7.07786">
        <ele>749.40002441406</ele>
        <time>2023-08-02T07:37:53.000Z</time>
      </trkpt>
      <trkpt lat="43.75107" lon="7.07788">
        <ele>749.79998779297</ele>
        <time>2023-08-02T07:37:54.000Z</time>
      </trkpt>
      <trkpt lat="43.75109" lon="7.0779">
        <ele>750.20001220703</ele>
        <time>2023-08-02T07:37:55.000Z</time>
      </trkpt>
      <trkpt lat="43.75111" lon="7.07792">
        <ele>750.59997558594</ele>
        <time>2023-08-02T07:37:56.000Z</time>
      </trkpt>
      <trkpt lat="43.75112" lon="7.07794">
        <ele>751</ele>
        <time>2023-08-02T07:37:57.000Z</time>
      </trkpt>
      <trkpt lat="43.75114" lon="7.07796">
        <ele>751.40002441406</ele>
        <time>2023-08-02T07:37:58.000Z</time>
      </trkpt>
      <trkpt lat="43.75115" lon="7.07797">
        <ele>751.79998779297</ele>
        <time>2023-08-02T07:37:59.000Z</time>
      </trkpt>
      <trkpt lat="43.75117" lon="7.07797">
        <ele>752.20001220703</ele>
        <time>2023-08-02T07:38:00.000Z</time>
      </trkpt>
      <trkpt lat="43.75118" lon="7.07797">
        <ele>752.59997558594</ele>
        <time>2023-08-02T07:38:01.000Z</time>
      </trkpt>
      <trkpt lat="43.7512" lon="7.07797">
        <ele>752.59997558594</ele>
        <time>2023-08-02T07:38:02.000Z</time>
      </trkpt>
      <trkpt lat="43.75122" lon="7.07798">
        <ele>753</ele>
        <time>2023-08-02T07:38:03.000Z</time>
      </trkpt>
      <trkpt lat="43.75124" lon="7.07799">
        <ele>753.40002441406</ele>
        <time>2023-08-02T07:38:04.000Z</time>
      </trkpt>
      <trkpt lat="43.75126" lon="7.078">
        <ele>753.59997558594</ele>
        <time>2023-08-02T07:38:05.000Z</time>
      </trkpt>
      <trkpt lat="43.75129" lon="7.078">
        <ele>754.20001220703</ele>
        <time>2023-08-02T07:38:06.000Z</time>
      </trkpt>
      <trkpt lat="43.75131" lon="7.07801">
        <ele>754.59997558594</ele>
        <time>2023-08-02T07:38:07.000Z</time>
      </trkpt>
      <trkpt lat="43.75133" lon="7.07801">
        <ele>754.79998779297</ele>
        <time>2023-08-02T07:38:08.000Z</time>
      </trkpt>
      <trkpt lat="43.75136" lon="7.07802">
        <ele>755.20001220703</ele>
        <time>2023-08-02T07:38:09.000Z</time>
      </trkpt>
      <trkpt lat="43.75138" lon="7.07803">
        <ele>755.40002441406</ele>
        <time>2023-08-02T07:38:10.000Z</time>
      </trkpt>
      <trkpt lat="43.7514" lon="7.07803">
        <ele>755.79998779297</ele>
        <time>2023-08-02T07:38:11.000Z</time>
      </trkpt>
      <trkpt lat="43.75141" lon="7.07804">
        <ele>756.20001220703</ele>
        <time>2023-08-02T07:38:12.000Z</time>
      </trkpt>
      <trkpt lat="43.75143" lon="7.07805">
        <ele>756.59997558594</ele>
        <time>2023-08-02T07:38:13.000Z</time>
      </trkpt>
      <trkpt lat="43.75145" lon="7.07805">
        <ele>757</ele>
        <time>2023-08-02T07:38:14.000Z</time>
      </trkpt>
      <trkpt lat="43.75147" lon="7.07805">
        <ele>757.79998779297</ele>
        <time>2023-08-02T07:38:15.000Z</time>
      </trkpt>
      <trkpt lat="43.75149" lon="7.07805">
        <ele>758</ele>
        <time>2023-08-02T07:38:16.000Z</time>
      </trkpt>
      <trkpt lat="43.75151" lon="7.07806">
        <ele>758.40002441406</ele>
        <time>2023-08-02T07:38:17.000Z</time>
      </trkpt>
      <trkpt lat="43.75153" lon="7.07807">
        <ele>758.79998779297</ele>
        <time>2023-08-02T07:38:18.000Z</time>
      </trkpt>
      <trkpt lat="43.75155" lon="7.07807">
        <ele>759</ele>
        <time>2023-08-02T07:38:19.000Z</time>
      </trkpt>
      <trkpt lat="43.75157" lon="7.07808">
        <ele>759.20001220703</ele>
        <time>2023-08-02T07:38:20.000Z</time>
      </trkpt>
      <trkpt lat="43.75159" lon="7.07809">
        <ele>759.40002441406</ele>
        <time>2023-08-02T07:38:21.000Z</time>
      </trkpt>
      <trkpt lat="43.75161" lon="7.0781">
        <ele>759.79998779297</ele>
        <time>2023-08-02T07:38:22.000Z</time>
      </trkpt>
      <trkpt lat="43.75163" lon="7.07811">
        <ele>760.20001220703</ele>
        <time>2023-08-02T07:38:23.000Z</time>
      </trkpt>
      <trkpt lat="43.75165" lon="7.07811">
        <ele>760.40002441406</ele>
        <time>2023-08-02T07:38:24.000Z</time>
      </trkpt>
      <trkpt lat="43.75167" lon="7.07812">
        <ele>760.40002441406</ele>
        <time>2023-08-02T07:38:25.000Z</time>
      </trkpt>
      <trkpt lat="43.75169" lon="7.07812">
        <ele>761.20001220703</ele>
        <time>2023-08-02T07:38:26.000Z</time>
      </trkpt>
      <trkpt lat="43.75171" lon="7.07812">
        <ele>761.20001220703</ele>
        <time>2023-08-02T07:38:27.000Z</time>
      </trkpt>
      <trkpt lat="43.75173" lon="7.07812">
        <ele>761.40002441406</ele>
        <time>2023-08-02T07:38:28.000Z</time>
      </trkpt>
      <trkpt lat="43.75175" lon="7.07813">
        <ele>761.40002441406</ele>
        <time>2023-08-02T07:38:29.000Z</time>
      </trkpt>
      <trkpt lat="43.75177" lon="7.07813">
        <ele>761.79998779297</ele>
        <time>2023-08-02T07:38:30.000Z</time>
      </trkpt>
      <trkpt lat="43.75179" lon="7.07814">
        <ele>762</ele>
        <time>2023-08-02T07:38:31.000Z</time>
      </trkpt>
      <trkpt lat="43.75181" lon="7.07815">
        <ele>762.40002441406</ele>
        <time>2023-08-02T07:38:32.000Z</time>
      </trkpt>
      <trkpt lat="43.75182" lon="7.07816">
        <ele>762.79998779297</ele>
        <time>2023-08-02T07:38:33.000Z</time>
      </trkpt>
      <trkpt lat="43.75185" lon="7.07816">
        <ele>763.20001220703</ele>
        <time>2023-08-02T07:38:34.000Z</time>
      </trkpt>
      <trkpt lat="43.75187" lon="7.07817">
        <ele>763.40002441406</ele>
        <time>2023-08-02T07:38:35.000Z</time>
      </trkpt>
      <trkpt lat="43.75189" lon="7.07817">
        <ele>763.79998779297</ele>
        <time>2023-08-02T07:38:36.000Z</time>
      </trkpt>
      <trkpt lat="43.75191" lon="7.07817">
        <ele>764.40002441406</ele>
        <time>2023-08-02T07:38:37.000Z</time>
      </trkpt>
      <trkpt lat="43.75193" lon="7.07818">
        <ele>764.79998779297</ele>
        <time>2023-08-02T07:38:38.000Z</time>
      </trkpt>
      <trkpt lat="43.75195" lon="7.07818">
        <ele>765.20001220703</ele>
        <time>2023-08-02T07:38:39.000Z</time>
      </trkpt>
      <trkpt lat="43.75196" lon="7.07819">
        <ele>765.59997558594</ele>
        <time>2023-08-02T07:38:40.000Z</time>
      </trkpt>
      <trkpt lat="43.75198" lon="7.0782">
        <ele>766.20001220703</ele>
        <time>2023-08-02T07:38:41.000Z</time>
      </trkpt>
      <trkpt lat="43.752" lon="7.07822">
        <ele>766.59997558594</ele>
        <time>2023-08-02T07:38:42.000Z</time>
      </trkpt>
      <trkpt lat="43.75202" lon="7.07823">
        <ele>767</ele>
        <time>2023-08-02T07:38:43.000Z</time>
      </trkpt>
      <trkpt lat="43.75203" lon="7.07824">
        <ele>767.40002441406</ele>
        <time>2023-08-02T07:38:44.000Z</time>
      </trkpt>
      <trkpt lat="43.75205" lon="7.07825">
        <ele>767.79998779297</ele>
        <time>2023-08-02T07:38:45.000Z</time>
      </trkpt>
      <trkpt lat="43.75207" lon="7.07826">
        <ele>767.79998779297</ele>
        <time>2023-08-02T07:38:46.000Z</time>
      </trkpt>
      <trkpt lat="43.75209" lon="7.07827">
        <ele>768.40002441406</ele>
        <time>2023-08-02T07:38:47.000Z</time>
      </trkpt>
      <trkpt lat="43.75211" lon="7.07827">
        <ele>768.59997558594</ele>
        <time>2023-08-02T07:38:48.000Z</time>
      </trkpt>
      <trkpt lat="43.75213" lon="7.07829">
        <ele>768.79998779297</ele>
        <time>2023-08-02T07:38:49.000Z</time>
      </trkpt>
      <trkpt lat="43.75215" lon="7.0783">
        <ele>769.20001220703</ele>
        <time>2023-08-02T07:38:50.000Z</time>
      </trkpt>
      <trkpt lat="43.75217" lon="7.07831">
        <ele>769.20001220703</ele>
        <time>2023-08-02T07:38:51.000Z</time>
      </trkpt>
      <trkpt lat="43.75219" lon="7.07832">
        <ele>769.59997558594</ele>
        <time>2023-08-02T07:38:52.000Z</time>
      </trkpt>
      <trkpt lat="43.75221" lon="7.07833">
        <ele>770</ele>
        <time>2023-08-02T07:38:53.000Z</time>
      </trkpt>
      <trkpt lat="43.75222" lon="7.07834">
        <ele>770.40002441406</ele>
        <time>2023-08-02T07:38:54.000Z</time>
      </trkpt>
      <trkpt lat="43.75224" lon="7.07835">
        <ele>770.79998779297</ele>
        <time>2023-08-02T07:38:55.000Z</time>
      </trkpt>
      <trkpt lat="43.75226" lon="7.07836">
        <ele>771.40002441406</ele>
        <time>2023-08-02T07:38:56.000Z</time>
      </trkpt>
      <trkpt lat="43.75228" lon="7.07838">
        <ele>771.59997558594</ele>
        <time>2023-08-02T07:38:57.000Z</time>
      </trkpt>
      <trkpt lat="43.75229" lon="7.07839">
        <ele>772</ele>
        <time>2023-08-02T07:38:58.000Z</time>
      </trkpt>
      <trkpt lat="43.75231" lon="7.0784">
        <ele>772.20001220703</ele>
        <time>2023-08-02T07:38:59.000Z</time>
      </trkpt>
      <trkpt lat="43.75233" lon="7.07841">
        <ele>772.79998779297</ele>
        <time>2023-08-02T07:39:00.000Z</time>
      </trkpt>
      <trkpt lat="43.75235" lon="7.07841">
        <ele>773</ele>
        <time>2023-08-02T07:39:01.000Z</time>
      </trkpt>
      <trkpt lat="43.75237" lon="7.07842">
        <ele>773.40002441406</ele>
        <time>2023-08-02T07:39:02.000Z</time>
      </trkpt>
      <trkpt lat="43.75239" lon="7.07844">
        <ele>774</ele>
        <time>2023-08-02T07:39:03.000Z</time>
      </trkpt>
      <trkpt lat="43.75241" lon="7.07845">
        <ele>774.20001220703</ele>
        <time>2023-08-02T07:39:04.000Z</time>
      </trkpt>
      <trkpt lat="43.75242" lon="7.07846">
        <ele>774.59997558594</ele>
        <time>2023-08-02T07:39:05.000Z</time>
      </trkpt>
      <trkpt lat="43.75243" lon="7.07848">
        <ele>774.59997558594</ele>
        <time>2023-08-02T07:39:06.000Z</time>
      </trkpt>
      <trkpt lat="43.75244" lon="7.0785">
        <ele>775</ele>
        <time>2023-08-02T07:39:07.000Z</time>
      </trkpt>
      <trkpt lat="43.75244" lon="7.07854">
        <ele>775.40002441406</ele>
        <time>2023-08-02T07:39:08.000Z</time>
      </trkpt>
      <trkpt lat="43.75243" lon="7.07856">
        <ele>776</ele>
        <time>2023-08-02T07:39:09.000Z</time>
      </trkpt>
      <trkpt lat="43.75242" lon="7.07856">
        <ele>776.40002441406</ele>
        <time>2023-08-02T07:39:10.000Z</time>
      </trkpt>
      <trkpt lat="43.75241" lon="7.07856">
        <ele>776.79998779297</ele>
        <time>2023-08-02T07:39:11.000Z</time>
      </trkpt>
      <trkpt lat="43.7524" lon="7.07856">
        <ele>777.40002441406</ele>
        <time>2023-08-02T07:39:12.000Z</time>
      </trkpt>
      <trkpt lat="43.7524" lon="7.07857">
        <ele>778</ele>
        <time>2023-08-02T07:39:13.000Z</time>
      </trkpt>
      <trkpt lat="43.75238" lon="7.07858">
        <ele>778</ele>
        <time>2023-08-02T07:39:14.000Z</time>
      </trkpt>
      <trkpt lat="43.75236" lon="7.07859">
        <ele>778</ele>
        <time>2023-08-02T07:39:15.000Z</time>
      </trkpt>
      <trkpt lat="43.75235" lon="7.07861">
        <ele>778.20001220703</ele>
        <time>2023-08-02T07:39:16.000Z</time>
      </trkpt>
      <trkpt lat="43.75234" lon="7.07862">
        <ele>778.40002441406</ele>
        <time>2023-08-02T07:39:17.000Z</time>
      </trkpt>
      <trkpt lat="43.75232" lon="7.07864">
        <ele>778.79998779297</ele>
        <time>2023-08-02T07:39:18.000Z</time>
      </trkpt>
      <trkpt lat="43.75231" lon="7.07865">
        <ele>779.20001220703</ele>
        <time>2023-08-02T07:39:19.000Z</time>
      </trkpt>
      <trkpt lat="43.7523" lon="7.07867">
        <ele>779.40002441406</ele>
        <time>2023-08-02T07:39:20.000Z</time>
      </trkpt>
      <trkpt lat="43.75229" lon="7.07869">
        <ele>779.59997558594</ele>
        <time>2023-08-02T07:39:21.000Z</time>
      </trkpt>
      <trkpt lat="43.75227" lon="7.07871">
        <ele>779.79998779297</ele>
        <time>2023-08-02T07:39:22.000Z</time>
      </trkpt>
      <trkpt lat="43.75226" lon="7.07873">
        <ele>780.20001220703</ele>
        <time>2023-08-02T07:39:23.000Z</time>
      </trkpt>
      <trkpt lat="43.75225" lon="7.07875">
        <ele>780.20001220703</ele>
        <time>2023-08-02T07:39:24.000Z</time>
      </trkpt>
      <trkpt lat="43.75225" lon="7.07877">
        <ele>780.79998779297</ele>
        <time>2023-08-02T07:39:25.000Z</time>
      </trkpt>
      <trkpt lat="43.75224" lon="7.07879">
        <ele>781</ele>
        <time>2023-08-02T07:39:26.000Z</time>
      </trkpt>
      <trkpt lat="43.75224" lon="7.07879">
        <ele>781.40002441406</ele>
        <time>2023-08-02T07:39:27.000Z</time>
      </trkpt>
      <trkpt lat="43.75224" lon="7.07879">
        <ele>781.59997558594</ele>
        <time>2023-08-02T07:39:28.000Z</time>
      </trkpt>
      <trkpt lat="43.75224" lon="7.07879">
        <ele>781.59997558594</ele>
        <time>2023-08-02T07:39:29.000Z</time>
      </trkpt>
      <trkpt lat="43.75224" lon="7.07879">
        <ele>781.79998779297</ele>
        <time>2023-08-02T07:39:30.000Z</time>
      </trkpt>
      <trkpt lat="43.75224" lon="7.07879">
        <ele>782</ele>
        <time>2023-08-02T07:39:31.000Z</time>
      </trkpt>
      <trkpt lat="43.75224" lon="7.07879">
        <ele>782.20001220703</ele>
        <time>2023-08-02T07:39:32.000Z</time>
      </trkpt>
      <trkpt lat="43.75224" lon="7.07879">
        <ele>782.20001220703</ele>
        <time>2023-08-02T07:39:33.000Z</time>
      </trkpt>
      <trkpt lat="43.75224" lon="7.07879">
        <ele>782.20001220703</ele>
        <time>2023-08-02T07:39:34.000Z</time>
      </trkpt>
      <trkpt lat="43.75224" lon="7.07879">
        <ele>782.20001220703</ele>
        <time>2023-08-02T07:39:35.000Z</time>
      </trkpt>
      <trkpt lat="43.75224" lon="7.07879">
        <ele>782.20001220703</ele>
        <time>2023-08-02T07:39:36.000Z</time>
      </trkpt>
      <trkpt lat="43.75224" lon="7.07879">
        <ele>782.20001220703</ele>
        <time>2023-08-02T07:39:37.000Z</time>
      </trkpt>
      <trkpt lat="43.75224" lon="7.07879">
        <ele>782.20001220703</ele>
        <time>2023-08-02T07:39:38.000Z</time>
      </trkpt>
      <trkpt lat="43.75224" lon="7.07879">
        <ele>782.20001220703</ele>
        <time>2023-08-02T07:39:39.000Z</time>
      </trkpt>
      <trkpt lat="43.75224" lon="7.07879">
        <ele>782.20001220703</ele>
        <time>2023-08-02T07:39:40.000Z</time>
      </trkpt>
      <trkpt lat="43.75224" lon="7.07879">
        <ele>782.20001220703</ele>
        <time>2023-08-02T07:39:41.000Z</time>
      </trkpt>
      <trkpt lat="43.75224" lon="7.07879">
        <ele>782.20001220703</ele>
        <time>2023-08-02T07:39:42.000Z</time>
      </trkpt>
      <trkpt lat="43.75224" lon="7.07879">
        <ele>782.20001220703</ele>
        <time>2023-08-02T07:39:43.000Z</time>
      </trkpt>
      <trkpt lat="43.75224" lon="7.07879">
        <ele>782.20001220703</ele>
        <time>2023-08-02T07:39:44.000Z</time>
      </trkpt>
      <trkpt lat="43.75224" lon="7.07879">
        <ele>782.20001220703</ele>
        <time>2023-08-02T07:39:45.000Z</time>
      </trkpt>
      <trkpt lat="43.75224" lon="7.07879">
        <ele>782.20001220703</ele>
        <time>2023-08-02T07:39:46.000Z</time>
      </trkpt>
      <trkpt lat="43.75224" lon="7.07879">
        <ele>782.20001220703</ele>
        <time>2023-08-02T07:39:47.000Z</time>
      </trkpt>
      <trkpt lat="43.75224" lon="7.07879">
        <ele>782.20001220703</ele>
        <time>2023-08-02T07:39:48.000Z</time>
      </trkpt>
      <trkpt lat="43.75224" lon="7.07879">
        <ele>782.20001220703</ele>
        <time>2023-08-02T07:39:49.000Z</time>
      </trkpt>
      <trkpt lat="43.75224" lon="7.07879">
        <ele>782.20001220703</ele>
        <time>2023-08-02T07:39:50.000Z</time>
      </trkpt>
      <trkpt lat="43.75224" lon="7.07879">
        <ele>782.20001220703</ele>
        <time>2023-08-02T07:39:51.000Z</time>
      </trkpt>
      <trkpt lat="43.75224" lon="7.07879">
        <ele>782.20001220703</ele>
        <time>2023-08-02T07:39:52.000Z</time>
      </trkpt>
      <trkpt lat="43.75224" lon="7.07879">
        <ele>782.20001220703</ele>
        <time>2023-08-02T07:39:53.000Z</time>
      </trkpt>
      <trkpt lat="43.75224" lon="7.07879">
        <ele>782.20001220703</ele>
        <time>2023-08-02T07:39:54.000Z</time>
      </trkpt>
      <trkpt lat="43.75224" lon="7.07879">
        <ele>782.20001220703</ele>
        <time>2023-08-02T07:39:55.000Z</time>
      </trkpt>
      <trkpt lat="43.75224" lon="7.07879">
        <ele>782.20001220703</ele>
        <time>2023-08-02T07:39:56.000Z</time>
      </trkpt>
      <trkpt lat="43.75224" lon="7.07879">
        <ele>782.20001220703</ele>
        <time>2023-08-02T07:39:57.000Z</time>
      </trkpt>
      <trkpt lat="43.75224" lon="7.07879">
        <ele>782.20001220703</ele>
        <time>2023-08-02T07:39:58.000Z</time>
      </trkpt>
      <trkpt lat="43.75224" lon="7.07879">
        <ele>782.20001220703</ele>
        <time>2023-08-02T07:39:59.000Z</time>
      </trkpt>
      <trkpt lat="43.75224" lon="7.07879">
        <ele>782.20001220703</ele>
        <time>2023-08-02T07:40:00.000Z</time>
      </trkpt>
      <trkpt lat="43.75224" lon="7.07879">
        <ele>782.20001220703</ele>
        <time>2023-08-02T07:40:01.000Z</time>
      </trkpt>
      <trkpt lat="43.75224" lon="7.07879">
        <ele>782.20001220703</ele>
        <time>2023-08-02T07:40:02.000Z</time>
      </trkpt>
      <trkpt lat="43.75224" lon="7.07879">
        <ele>782.20001220703</ele>
        <time>2023-08-02T07:40:03.000Z</time>
      </trkpt>
      <trkpt lat="43.75224" lon="7.07879">
        <ele>782.20001220703</ele>
        <time>2023-08-02T07:40:04.000Z</time>
      </trkpt>
      <trkpt lat="43.75224" lon="7.07879">
        <ele>782.20001220703</ele>
        <time>2023-08-02T07:40:05.000Z</time>
      </trkpt>
      <trkpt lat="43.75224" lon="7.07879">
        <ele>782.20001220703</ele>
        <time>2023-08-02T07:40:06.000Z</time>
      </trkpt>
      <trkpt lat="43.75224" lon="7.07879">
        <ele>782.40002441406</ele>
        <time>2023-08-02T07:40:07.000Z</time>
      </trkpt>
      <trkpt lat="43.75224" lon="7.07879">
        <ele>782.40002441406</ele>
        <time>2023-08-02T07:40:08.000Z</time>
      </trkpt>
      <trkpt lat="43.75224" lon="7.07879">
        <ele>782.40002441406</ele>
        <time>2023-08-02T07:40:09.000Z</time>
      </trkpt>
      <trkpt lat="43.75224" lon="7.07879">
        <ele>782.40002441406</ele>
        <time>2023-08-02T07:40:10.000Z</time>
      </trkpt>
      <trkpt lat="43.75224" lon="7.07879">
        <ele>782.40002441406</ele>
        <time>2023-08-02T07:40:11.000Z</time>
      </trkpt>
      <trkpt lat="43.75224" lon="7.07879">
        <ele>782.40002441406</ele>
        <time>2023-08-02T07:40:12.000Z</time>
      </trkpt>
      <trkpt lat="43.75224" lon="7.07879">
        <ele>782.40002441406</ele>
        <time>2023-08-02T07:40:13.000Z</time>
      </trkpt>
      <trkpt lat="43.75224" lon="7.07879">
        <ele>782.40002441406</ele>
        <time>2023-08-02T07:40:14.000Z</time>
      </trkpt>
      <trkpt lat="43.75224" lon="7.07879">
        <ele>782.40002441406</ele>
        <time>2023-08-02T07:40:15.000Z</time>
      </trkpt>
      <trkpt lat="43.75224" lon="7.07879">
        <ele>782.40002441406</ele>
        <time>2023-08-02T07:40:16.000Z</time>
      </trkpt>
      <trkpt lat="43.75224" lon="7.07879">
        <ele>782.40002441406</ele>
        <time>2023-08-02T07:40:17.000Z</time>
      </trkpt>
      <trkpt lat="43.75224" lon="7.07879">
        <ele>782.40002441406</ele>
        <time>2023-08-02T07:40:18.000Z</time>
      </trkpt>
      <trkpt lat="43.75224" lon="7.07879">
        <ele>782.40002441406</ele>
        <time>2023-08-02T07:40:19.000Z</time>
      </trkpt>
      <trkpt lat="43.75224" lon="7.07879">
        <ele>782.40002441406</ele>
        <time>2023-08-02T07:40:20.000Z</time>
      </trkpt>
      <trkpt lat="43.75224" lon="7.07879">
        <ele>782.40002441406</ele>
        <time>2023-08-02T07:40:21.000Z</time>
      </trkpt>
      <trkpt lat="43.75224" lon="7.07879">
        <ele>782.40002441406</ele>
        <time>2023-08-02T07:40:22.000Z</time>
      </trkpt>
      <trkpt lat="43.75224" lon="7.07879">
        <ele>782.40002441406</ele>
        <time>2023-08-02T07:40:23.000Z</time>
      </trkpt>
      <trkpt lat="43.75224" lon="7.07879">
        <ele>782.40002441406</ele>
        <time>2023-08-02T07:40:24.000Z</time>
      </trkpt>
      <trkpt lat="43.75224" lon="7.07879">
        <ele>782.40002441406</ele>
        <time>2023-08-02T07:40:25.000Z</time>
      </trkpt>
      <trkpt lat="43.75224" lon="7.07879">
        <ele>782.40002441406</ele>
        <time>2023-08-02T07:40:26.000Z</time>
      </trkpt>
      <trkpt lat="43.75224" lon="7.07879">
        <ele>782.40002441406</ele>
        <time>2023-08-02T07:40:27.000Z</time>
      </trkpt>
      <trkpt lat="43.75224" lon="7.07879">
        <ele>782.40002441406</ele>
        <time>2023-08-02T07:40:28.000Z</time>
      </trkpt>
      <trkpt lat="43.75224" lon="7.07879">
        <ele>782.40002441406</ele>
        <time>2023-08-02T07:40:29.000Z</time>
      </trkpt>
      <trkpt lat="43.75224" lon="7.07879">
        <ele>782.40002441406</ele>
        <time>2023-08-02T07:40:30.000Z</time>
      </trkpt>
      <trkpt lat="43.75224" lon="7.07879">
        <ele>782.20001220703</ele>
        <time>2023-08-02T07:40:31.000Z</time>
      </trkpt>
      <trkpt lat="43.75224" lon="7.07879">
        <ele>782.20001220703</ele>
        <time>2023-08-02T07:40:32.000Z</time>
      </trkpt>
      <trkpt lat="43.75224" lon="7.07879">
        <ele>782.20001220703</ele>
        <time>2023-08-02T07:40:33.000Z</time>
      </trkpt>
      <trkpt lat="43.75224" lon="7.07879">
        <ele>782.20001220703</ele>
        <time>2023-08-02T07:40:34.000Z</time>
      </trkpt>
      <trkpt lat="43.75224" lon="7.07879">
        <ele>782.20001220703</ele>
        <time>2023-08-02T07:40:35.000Z</time>
      </trkpt>
      <trkpt lat="43.75224" lon="7.07879">
        <ele>782.20001220703</ele>
        <time>2023-08-02T07:40:36.000Z</time>
      </trkpt>
      <trkpt lat="43.75224" lon="7.07879">
        <ele>782.20001220703</ele>
        <time>2023-08-02T07:40:37.000Z</time>
      </trkpt>
      <trkpt lat="43.75224" lon="7.07879">
        <ele>782.20001220703</ele>
        <time>2023-08-02T07:40:38.000Z</time>
      </trkpt>
      <trkpt lat="43.75224" lon="7.07879">
        <ele>782.20001220703</ele>
        <time>2023-08-02T07:40:39.000Z</time>
      </trkpt>
      <trkpt lat="43.75224" lon="7.07879">
        <ele>782.20001220703</ele>
        <time>2023-08-02T07:40:40.000Z</time>
      </trkpt>
      <trkpt lat="43.75224" lon="7.07879">
        <ele>782.20001220703</ele>
        <time>2023-08-02T07:40:41.000Z</time>
      </trkpt>
      <trkpt lat="43.75224" lon="7.07879">
        <ele>782.20001220703</ele>
        <time>2023-08-02T07:40:42.000Z</time>
      </trkpt>
      <trkpt lat="43.75224" lon="7.07879">
        <ele>782.20001220703</ele>
        <time>2023-08-02T07:40:43.000Z</time>
      </trkpt>
      <trkpt lat="43.75224" lon="7.07879">
        <ele>782.20001220703</ele>
        <time>2023-08-02T07:40:44.000Z</time>
      </trkpt>
      <trkpt lat="43.75224" lon="7.07879">
        <ele>782.20001220703</ele>
        <time>2023-08-02T07:40:45.000Z</time>
      </trkpt>
      <trkpt lat="43.75224" lon="7.07879">
        <ele>782.20001220703</ele>
        <time>2023-08-02T07:40:46.000Z</time>
      </trkpt>
      <trkpt lat="43.75224" lon="7.07879">
        <ele>782.20001220703</ele>
        <time>2023-08-02T07:40:47.000Z</time>
      </trkpt>
      <trkpt lat="43.75224" lon="7.07879">
        <ele>782.20001220703</ele>
        <time>2023-08-02T07:40:48.000Z</time>
      </trkpt>
      <trkpt lat="43.75224" lon="7.07879">
        <ele>782.20001220703</ele>
        <time>2023-08-02T07:40:49.000Z</time>
      </trkpt>
      <trkpt lat="43.75224" lon="7.07879">
        <ele>782.20001220703</ele>
        <time>2023-08-02T07:40:50.000Z</time>
      </trkpt>
      <trkpt lat="43.75224" lon="7.07879">
        <ele>782.20001220703</ele>
        <time>2023-08-02T07:40:51.000Z</time>
      </trkpt>
      <trkpt lat="43.75224" lon="7.07879">
        <ele>782.20001220703</ele>
        <time>2023-08-02T07:40:52.000Z</time>
      </trkpt>
      <trkpt lat="43.75224" lon="7.07879">
        <ele>782.20001220703</ele>
        <time>2023-08-02T07:40:53.000Z</time>
      </trkpt>
      <trkpt lat="43.75224" lon="7.07879">
        <ele>782.20001220703</ele>
        <time>2023-08-02T07:40:54.000Z</time>
      </trkpt>
      <trkpt lat="43.75224" lon="7.07879">
        <ele>782.20001220703</ele>
        <time>2023-08-02T07:40:55.000Z</time>
      </trkpt>
      <trkpt lat="43.75224" lon="7.07879">
        <ele>782.20001220703</ele>
        <time>2023-08-02T07:40:56.000Z</time>
      </trkpt>
      <trkpt lat="43.75224" lon="7.07879">
        <ele>782.20001220703</ele>
        <time>2023-08-02T07:40:57.000Z</time>
      </trkpt>
      <trkpt lat="43.75224" lon="7.07879">
        <ele>782.20001220703</ele>
        <time>2023-08-02T07:40:58.000Z</time>
      </trkpt>
      <trkpt lat="43.75224" lon="7.07879">
        <ele>782.20001220703</ele>
        <time>2023-08-02T07:40:59.000Z</time>
      </trkpt>
      <trkpt lat="43.75224" lon="7.07879">
        <ele>782.20001220703</ele>
        <time>2023-08-02T07:41:00.000Z</time>
      </trkpt>
      <trkpt lat="43.75224" lon="7.07879">
        <ele>782.20001220703</ele>
        <time>2023-08-02T07:41:01.000Z</time>
      </trkpt>
      <trkpt lat="43.75224" lon="7.07879">
        <ele>782.20001220703</ele>
        <time>2023-08-02T07:41:02.000Z</time>
      </trkpt>
      <trkpt lat="43.75224" lon="7.07879">
        <ele>782.20001220703</ele>
        <time>2023-08-02T07:41:03.000Z</time>
      </trkpt>
      <trkpt lat="43.75224" lon="7.07879">
        <ele>782.20001220703</ele>
        <time>2023-08-02T07:41:04.000Z</time>
      </trkpt>
      <trkpt lat="43.75224" lon="7.07879">
        <ele>782.20001220703</ele>
        <time>2023-08-02T07:41:05.000Z</time>
      </trkpt>
      <trkpt lat="43.75224" lon="7.07879">
        <ele>782.20001220703</ele>
        <time>2023-08-02T07:41:06.000Z</time>
      </trkpt>
      <trkpt lat="43.75224" lon="7.07879">
        <ele>782.20001220703</ele>
        <time>2023-08-02T07:41:07.000Z</time>
      </trkpt>
      <trkpt lat="43.75224" lon="7.07879">
        <ele>782.20001220703</ele>
        <time>2023-08-02T07:41:08.000Z</time>
      </trkpt>
      <trkpt lat="43.75224" lon="7.07879">
        <ele>782.20001220703</ele>
        <time>2023-08-02T07:41:09.000Z</time>
      </trkpt>
      <trkpt lat="43.75224" lon="7.07879">
        <ele>782.20001220703</ele>
        <time>2023-08-02T07:41:10.000Z</time>
      </trkpt>
      <trkpt lat="43.75224" lon="7.07879">
        <ele>782.20001220703</ele>
        <time>2023-08-02T07:41:11.000Z</time>
      </trkpt>
      <trkpt lat="43.75224" lon="7.07879">
        <ele>782.20001220703</ele>
        <time>2023-08-02T07:41:12.000Z</time>
      </trkpt>
      <trkpt lat="43.75224" lon="7.07879">
        <ele>782.20001220703</ele>
        <time>2023-08-02T07:41:13.000Z</time>
      </trkpt>
      <trkpt lat="43.75224" lon="7.07879">
        <ele>782.20001220703</ele>
        <time>2023-08-02T07:41:14.000Z</time>
      </trkpt>
      <trkpt lat="43.75224" lon="7.07879">
        <ele>782.20001220703</ele>
        <time>2023-08-02T07:41:15.000Z</time>
      </trkpt>
      <trkpt lat="43.75224" lon="7.07879">
        <ele>782.20001220703</ele>
        <time>2023-08-02T07:41:16.000Z</time>
      </trkpt>
      <trkpt lat="43.75224" lon="7.07879">
        <ele>782.20001220703</ele>
        <time>2023-08-02T07:41:17.000Z</time>
      </trkpt>
      <trkpt lat="43.75224" lon="7.07879">
        <ele>782.20001220703</ele>
        <time>2023-08-02T07:41:18.000Z</time>
      </trkpt>
      <trkpt lat="43.75224" lon="7.07879">
        <ele>782.20001220703</ele>
        <time>2023-08-02T07:41:19.000Z</time>
      </trkpt>
      <trkpt lat="43.75224" lon="7.07879">
        <ele>782.20001220703</ele>
        <time>2023-08-02T07:41:20.000Z</time>
      </trkpt>
      <trkpt lat="43.75224" lon="7.07879">
        <ele>782.20001220703</ele>
        <time>2023-08-02T07:41:21.000Z</time>
      </trkpt>
      <trkpt lat="43.75224" lon="7.07879">
        <ele>782.20001220703</ele>
        <time>2023-08-02T07:41:22.000Z</time>
      </trkpt>
      <trkpt lat="43.75224" lon="7.07879">
        <ele>782.20001220703</ele>
        <time>2023-08-02T07:41:23.000Z</time>
      </trkpt>
      <trkpt lat="43.75224" lon="7.07879">
        <ele>782.20001220703</ele>
        <time>2023-08-02T07:41:24.000Z</time>
      </trkpt>
      <trkpt lat="43.75224" lon="7.07879">
        <ele>782.20001220703</ele>
        <time>2023-08-02T07:41:25.000Z</time>
      </trkpt>
      <trkpt lat="43.75224" lon="7.07879">
        <ele>782.20001220703</ele>
        <time>2023-08-02T07:41:26.000Z</time>
      </trkpt>
      <trkpt lat="43.75224" lon="7.07879">
        <ele>782.20001220703</ele>
        <time>2023-08-02T07:41:27.000Z</time>
      </trkpt>
      <trkpt lat="43.75224" lon="7.07879">
        <ele>782.20001220703</ele>
        <time>2023-08-02T07:41:28.000Z</time>
      </trkpt>
      <trkpt lat="43.75224" lon="7.07879">
        <ele>782.20001220703</ele>
        <time>2023-08-02T07:41:29.000Z</time>
      </trkpt>
      <trkpt lat="43.75224" lon="7.07878">
        <ele>782.20001220703</ele>
        <time>2023-08-02T07:41:30.000Z</time>
      </trkpt>
      <trkpt lat="43.75224" lon="7.07879">
        <ele>782.20001220703</ele>
        <time>2023-08-02T07:41:31.000Z</time>
      </trkpt>
      <trkpt lat="43.75224" lon="7.07879">
        <ele>782.20001220703</ele>
        <time>2023-08-02T07:41:32.000Z</time>
      </trkpt>
      <trkpt lat="43.75223" lon="7.07881">
        <ele>782.20001220703</ele>
        <time>2023-08-02T07:41:33.000Z</time>
      </trkpt>
      <trkpt lat="43.75222" lon="7.07882">
        <ele>782.20001220703</ele>
        <time>2023-08-02T07:41:34.000Z</time>
      </trkpt>
      <trkpt lat="43.75221" lon="7.07885">
        <ele>782.20001220703</ele>
        <time>2023-08-02T07:41:35.000Z</time>
      </trkpt>
      <trkpt lat="43.7522" lon="7.07888">
        <ele>782.20001220703</ele>
        <time>2023-08-02T07:41:36.000Z</time>
      </trkpt>
      <trkpt lat="43.75219" lon="7.0789">
        <ele>782.20001220703</ele>
        <time>2023-08-02T07:41:37.000Z</time>
      </trkpt>
      <trkpt lat="43.75219" lon="7.07893">
        <ele>782.59997558594</ele>
        <time>2023-08-02T07:41:38.000Z</time>
      </trkpt>
      <trkpt lat="43.75218" lon="7.07895">
        <ele>783</ele>
        <time>2023-08-02T07:41:39.000Z</time>
      </trkpt>
      <trkpt lat="43.75217" lon="7.07898">
        <ele>783.20001220703</ele>
        <time>2023-08-02T07:41:40.000Z</time>
      </trkpt>
      <trkpt lat="43.75216" lon="7.07901">
        <ele>783.20001220703</ele>
        <time>2023-08-02T07:41:41.000Z</time>
      </trkpt>
      <trkpt lat="43.75214" lon="7.07903">
        <ele>783.59997558594</ele>
        <time>2023-08-02T07:41:42.000Z</time>
      </trkpt>
      <trkpt lat="43.75213" lon="7.07906">
        <ele>783.79998779297</ele>
        <time>2023-08-02T07:41:43.000Z</time>
      </trkpt>
      <trkpt lat="43.75212" lon="7.07909">
        <ele>783.79998779297</ele>
        <time>2023-08-02T07:41:44.000Z</time>
      </trkpt>
      <trkpt lat="43.75211" lon="7.07912">
        <ele>784</ele>
        <time>2023-08-02T07:41:45.000Z</time>
      </trkpt>
      <trkpt lat="43.7521" lon="7.07915">
        <ele>784.20001220703</ele>
        <time>2023-08-02T07:41:46.000Z</time>
      </trkpt>
      <trkpt lat="43.75208" lon="7.07919">
        <ele>784.59997558594</ele>
        <time>2023-08-02T07:41:47.000Z</time>
      </trkpt>
      <trkpt lat="43.75206" lon="7.07922">
        <ele>784.79998779297</ele>
        <time>2023-08-02T07:41:48.000Z</time>
      </trkpt>
      <trkpt lat="43.75203" lon="7.07924">
        <ele>785</ele>
        <time>2023-08-02T07:41:49.000Z</time>
      </trkpt>
      <trkpt lat="43.75201" lon="7.07926">
        <ele>785.40002441406</ele>
        <time>2023-08-02T07:41:50.000Z</time>
      </trkpt>
      <trkpt lat="43.75199" lon="7.07929">
        <ele>785.79998779297</ele>
        <time>2023-08-02T07:41:51.000Z</time>
      </trkpt>
      <trkpt lat="43.75197" lon="7.07931">
        <ele>785.79998779297</ele>
        <time>2023-08-02T07:41:52.000Z</time>
      </trkpt>
      <trkpt lat="43.75194" lon="7.07933">
        <ele>785.79998779297</ele>
        <time>2023-08-02T07:41:53.000Z</time>
      </trkpt>
      <trkpt lat="43.75192" lon="7.07936">
        <ele>786.40002441406</ele>
        <time>2023-08-02T07:41:54.000Z</time>
      </trkpt>
      <trkpt lat="43.75191" lon="7.07939">
        <ele>786.59997558594</ele>
        <time>2023-08-02T07:41:55.000Z</time>
      </trkpt>
      <trkpt lat="43.75189" lon="7.07941">
        <ele>786.79998779297</ele>
        <time>2023-08-02T07:41:56.000Z</time>
      </trkpt>
      <trkpt lat="43.75187" lon="7.07945">
        <ele>786.79998779297</ele>
        <time>2023-08-02T07:41:57.000Z</time>
      </trkpt>
      <trkpt lat="43.75186" lon="7.07948">
        <ele>787</ele>
        <time>2023-08-02T07:41:58.000Z</time>
      </trkpt>
      <trkpt lat="43.75185" lon="7.07951">
        <ele>787.40002441406</ele>
        <time>2023-08-02T07:41:59.000Z</time>
      </trkpt>
      <trkpt lat="43.75185" lon="7.07954">
        <ele>787.59997558594</ele>
        <time>2023-08-02T07:42:00.000Z</time>
      </trkpt>
      <trkpt lat="43.75187" lon="7.07956">
        <ele>788</ele>
        <time>2023-08-02T07:42:01.000Z</time>
      </trkpt>
      <trkpt lat="43.75189" lon="7.07956">
        <ele>788.40002441406</ele>
        <time>2023-08-02T07:42:02.000Z</time>
      </trkpt>
      <trkpt lat="43.75191" lon="7.07955">
        <ele>788.59997558594</ele>
        <time>2023-08-02T07:42:03.000Z</time>
      </trkpt>
      <trkpt lat="43.75193" lon="7.07955">
        <ele>789</ele>
        <time>2023-08-02T07:42:04.000Z</time>
      </trkpt>
      <trkpt lat="43.75194" lon="7.07956">
        <ele>789</ele>
        <time>2023-08-02T07:42:05.000Z</time>
      </trkpt>
      <trkpt lat="43.75195" lon="7.07956">
        <ele>789.20001220703</ele>
        <time>2023-08-02T07:42:06.000Z</time>
      </trkpt>
      <trkpt lat="43.75197" lon="7.07955">
        <ele>789.79998779297</ele>
        <time>2023-08-02T07:42:07.000Z</time>
      </trkpt>
      <trkpt lat="43.75198" lon="7.07954">
        <ele>790</ele>
        <time>2023-08-02T07:42:08.000Z</time>
      </trkpt>
      <trkpt lat="43.752" lon="7.07953">
        <ele>790.40002441406</ele>
        <time>2023-08-02T07:42:09.000Z</time>
      </trkpt>
      <trkpt lat="43.75203" lon="7.07952">
        <ele>790.79998779297</ele>
        <time>2023-08-02T07:42:10.000Z</time>
      </trkpt>
      <trkpt lat="43.75205" lon="7.07952">
        <ele>790.79998779297</ele>
        <time>2023-08-02T07:42:11.000Z</time>
      </trkpt>
      <trkpt lat="43.75207" lon="7.07952">
        <ele>791.20001220703</ele>
        <time>2023-08-02T07:42:12.000Z</time>
      </trkpt>
      <trkpt lat="43.75208" lon="7.07953">
        <ele>791.40002441406</ele>
        <time>2023-08-02T07:42:13.000Z</time>
      </trkpt>
      <trkpt lat="43.75211" lon="7.07953">
        <ele>792.20001220703</ele>
        <time>2023-08-02T07:42:14.000Z</time>
      </trkpt>
      <trkpt lat="43.75212" lon="7.07953">
        <ele>792.59997558594</ele>
        <time>2023-08-02T07:42:15.000Z</time>
      </trkpt>
      <trkpt lat="43.75215" lon="7.07954">
        <ele>793.20001220703</ele>
        <time>2023-08-02T07:42:16.000Z</time>
      </trkpt>
      <trkpt lat="43.75217" lon="7.07954">
        <ele>793.40002441406</ele>
        <time>2023-08-02T07:42:17.000Z</time>
      </trkpt>
      <trkpt lat="43.75219" lon="7.07954">
        <ele>794</ele>
        <time>2023-08-02T07:42:18.000Z</time>
      </trkpt>
      <trkpt lat="43.75221" lon="7.07954">
        <ele>794</ele>
        <time>2023-08-02T07:42:19.000Z</time>
      </trkpt>
      <trkpt lat="43.75224" lon="7.07956">
        <ele>794.79998779297</ele>
        <time>2023-08-02T07:42:20.000Z</time>
      </trkpt>
      <trkpt lat="43.75226" lon="7.07958">
        <ele>795</ele>
        <time>2023-08-02T07:42:21.000Z</time>
      </trkpt>
      <trkpt lat="43.75228" lon="7.07961">
        <ele>795.40002441406</ele>
        <time>2023-08-02T07:42:22.000Z</time>
      </trkpt>
      <trkpt lat="43.7523" lon="7.07962">
        <ele>795.79998779297</ele>
        <time>2023-08-02T07:42:23.000Z</time>
      </trkpt>
      <trkpt lat="43.75232" lon="7.07964">
        <ele>796</ele>
        <time>2023-08-02T07:42:24.000Z</time>
      </trkpt>
      <trkpt lat="43.75234" lon="7.07965">
        <ele>796.79998779297</ele>
        <time>2023-08-02T07:42:25.000Z</time>
      </trkpt>
      <trkpt lat="43.75236" lon="7.07967">
        <ele>797.59997558594</ele>
        <time>2023-08-02T07:42:26.000Z</time>
      </trkpt>
      <trkpt lat="43.75238" lon="7.07969">
        <ele>797.79998779297</ele>
        <time>2023-08-02T07:42:27.000Z</time>
      </trkpt>
      <trkpt lat="43.75239" lon="7.07971">
        <ele>798.40002441406</ele>
        <time>2023-08-02T07:42:28.000Z</time>
      </trkpt>
      <trkpt lat="43.75241" lon="7.07973">
        <ele>798.40002441406</ele>
        <time>2023-08-02T07:42:29.000Z</time>
      </trkpt>
      <trkpt lat="43.75242" lon="7.07975">
        <ele>799.40002441406</ele>
        <time>2023-08-02T07:42:30.000Z</time>
      </trkpt>
      <trkpt lat="43.75243" lon="7.07977">
        <ele>799.59997558594</ele>
        <time>2023-08-02T07:42:31.000Z</time>
      </trkpt>
      <trkpt lat="43.75245" lon="7.07978">
        <ele>800.40002441406</ele>
        <time>2023-08-02T07:42:32.000Z</time>
      </trkpt>
      <trkpt lat="43.75246" lon="7.0798">
        <ele>800.59997558594</ele>
        <time>2023-08-02T07:42:33.000Z</time>
      </trkpt>
      <trkpt lat="43.75248" lon="7.07982">
        <ele>800.79998779297</ele>
        <time>2023-08-02T07:42:34.000Z</time>
      </trkpt>
      <trkpt lat="43.75249" lon="7.07984">
        <ele>801.20001220703</ele>
        <time>2023-08-02T07:42:35.000Z</time>
      </trkpt>
      <trkpt lat="43.75251" lon="7.07986">
        <ele>801.59997558594</ele>
        <time>2023-08-02T07:42:36.000Z</time>
      </trkpt>
      <trkpt lat="43.75252" lon="7.07988">
        <ele>801.59997558594</ele>
        <time>2023-08-02T07:42:37.000Z</time>
      </trkpt>
      <trkpt lat="43.75254" lon="7.0799">
        <ele>801.79998779297</ele>
        <time>2023-08-02T07:42:38.000Z</time>
      </trkpt>
      <trkpt lat="43.75256" lon="7.07991">
        <ele>802</ele>
        <time>2023-08-02T07:42:39.000Z</time>
      </trkpt>
      <trkpt lat="43.75258" lon="7.07992">
        <ele>802.40002441406</ele>
        <time>2023-08-02T07:42:40.000Z</time>
      </trkpt>
      <trkpt lat="43.75259" lon="7.07993">
        <ele>802.59997558594</ele>
        <time>2023-08-02T07:42:41.000Z</time>
      </trkpt>
      <trkpt lat="43.75262" lon="7.07994">
        <ele>802.79998779297</ele>
        <time>2023-08-02T07:42:42.000Z</time>
      </trkpt>
      <trkpt lat="43.75264" lon="7.07995">
        <ele>803.20001220703</ele>
        <time>2023-08-02T07:42:43.000Z</time>
      </trkpt>
      <trkpt lat="43.75266" lon="7.07997">
        <ele>803.59997558594</ele>
        <time>2023-08-02T07:42:44.000Z</time>
      </trkpt>
      <trkpt lat="43.75268" lon="7.07999">
        <ele>803.59997558594</ele>
        <time>2023-08-02T07:42:45.000Z</time>
      </trkpt>
      <trkpt lat="43.7527" lon="7.08001">
        <ele>803.79998779297</ele>
        <time>2023-08-02T07:42:46.000Z</time>
      </trkpt>
      <trkpt lat="43.75271" lon="7.08003">
        <ele>803.79998779297</ele>
        <time>2023-08-02T07:42:47.000Z</time>
      </trkpt>
      <trkpt lat="43.75273" lon="7.08006">
        <ele>804.20001220703</ele>
        <time>2023-08-02T07:42:48.000Z</time>
      </trkpt>
      <trkpt lat="43.75274" lon="7.08008">
        <ele>804.59997558594</ele>
        <time>2023-08-02T07:42:49.000Z</time>
      </trkpt>
      <trkpt lat="43.75275" lon="7.08012">
        <ele>804.59997558594</ele>
        <time>2023-08-02T07:42:50.000Z</time>
      </trkpt>
      <trkpt lat="43.75276" lon="7.08015">
        <ele>805.20001220703</ele>
        <time>2023-08-02T07:42:51.000Z</time>
      </trkpt>
      <trkpt lat="43.75277" lon="7.08019">
        <ele>805.79998779297</ele>
        <time>2023-08-02T07:42:52.000Z</time>
      </trkpt>
      <trkpt lat="43.75277" lon="7.08021">
        <ele>805.79998779297</ele>
        <time>2023-08-02T07:42:53.000Z</time>
      </trkpt>
      <trkpt lat="43.75277" lon="7.08024">
        <ele>806</ele>
        <time>2023-08-02T07:42:54.000Z</time>
      </trkpt>
      <trkpt lat="43.75277" lon="7.08026">
        <ele>806.20001220703</ele>
        <time>2023-08-02T07:42:55.000Z</time>
      </trkpt>
      <trkpt lat="43.75277" lon="7.08029">
        <ele>806.79998779297</ele>
        <time>2023-08-02T07:42:56.000Z</time>
      </trkpt>
      <trkpt lat="43.75276" lon="7.08031">
        <ele>807.20001220703</ele>
        <time>2023-08-02T07:42:57.000Z</time>
      </trkpt>
      <trkpt lat="43.75276" lon="7.08034">
        <ele>807.59997558594</ele>
        <time>2023-08-02T07:42:58.000Z</time>
      </trkpt>
      <trkpt lat="43.75275" lon="7.08037">
        <ele>808</ele>
        <time>2023-08-02T07:42:59.000Z</time>
      </trkpt>
      <trkpt lat="43.75276" lon="7.08039">
        <ele>808.20001220703</ele>
        <time>2023-08-02T07:43:00.000Z</time>
      </trkpt>
      <trkpt lat="43.75275" lon="7.0804">
        <ele>808.40002441406</ele>
        <time>2023-08-02T07:43:01.000Z</time>
      </trkpt>
      <trkpt lat="43.75276" lon="7.0804">
        <ele>809</ele>
        <time>2023-08-02T07:43:02.000Z</time>
      </trkpt>
      <trkpt lat="43.75276" lon="7.0804">
        <ele>809.20001220703</ele>
        <time>2023-08-02T07:43:03.000Z</time>
      </trkpt>
      <trkpt lat="43.75276" lon="7.0804">
        <ele>809.20001220703</ele>
        <time>2023-08-02T07:43:04.000Z</time>
      </trkpt>
      <trkpt lat="43.75276" lon="7.0804">
        <ele>809.20001220703</ele>
        <time>2023-08-02T07:43:05.000Z</time>
      </trkpt>
      <trkpt lat="43.75276" lon="7.0804">
        <ele>809.20001220703</ele>
        <time>2023-08-02T07:43:06.000Z</time>
      </trkpt>
      <trkpt lat="43.75276" lon="7.0804">
        <ele>809</ele>
        <time>2023-08-02T07:43:07.000Z</time>
      </trkpt>
      <trkpt lat="43.75276" lon="7.0804">
        <ele>809</ele>
        <time>2023-08-02T07:43:08.000Z</time>
      </trkpt>
      <trkpt lat="43.75276" lon="7.0804">
        <ele>808.79998779297</ele>
        <time>2023-08-02T07:43:09.000Z</time>
      </trkpt>
      <trkpt lat="43.75276" lon="7.0804">
        <ele>808.79998779297</ele>
        <time>2023-08-02T07:43:10.000Z</time>
      </trkpt>
      <trkpt lat="43.75276" lon="7.0804">
        <ele>808.79998779297</ele>
        <time>2023-08-02T07:43:11.000Z</time>
      </trkpt>
      <trkpt lat="43.75276" lon="7.0804">
        <ele>808.79998779297</ele>
        <time>2023-08-02T07:43:12.000Z</time>
      </trkpt>
      <trkpt lat="43.75276" lon="7.0804">
        <ele>808.79998779297</ele>
        <time>2023-08-02T07:43:13.000Z</time>
      </trkpt>
      <trkpt lat="43.75276" lon="7.0804">
        <ele>808.79998779297</ele>
        <time>2023-08-02T07:43:14.000Z</time>
      </trkpt>
      <trkpt lat="43.75276" lon="7.0804">
        <ele>808.79998779297</ele>
        <time>2023-08-02T07:43:15.000Z</time>
      </trkpt>
      <trkpt lat="43.75276" lon="7.0804">
        <ele>808.79998779297</ele>
        <time>2023-08-02T07:43:16.000Z</time>
      </trkpt>
      <trkpt lat="43.75276" lon="7.0804">
        <ele>808.79998779297</ele>
        <time>2023-08-02T07:43:17.000Z</time>
      </trkpt>
      <trkpt lat="43.75276" lon="7.0804">
        <ele>808.79998779297</ele>
        <time>2023-08-02T07:43:18.000Z</time>
      </trkpt>
      <trkpt lat="43.75276" lon="7.0804">
        <ele>808.79998779297</ele>
        <time>2023-08-02T07:43:19.000Z</time>
      </trkpt>
      <trkpt lat="43.75276" lon="7.0804">
        <ele>808.79998779297</ele>
        <time>2023-08-02T07:43:20.000Z</time>
      </trkpt>
      <trkpt lat="43.75276" lon="7.0804">
        <ele>808.79998779297</ele>
        <time>2023-08-02T07:43:21.000Z</time>
      </trkpt>
      <trkpt lat="43.75276" lon="7.0804">
        <ele>808.79998779297</ele>
        <time>2023-08-02T07:43:22.000Z</time>
      </trkpt>
      <trkpt lat="43.75276" lon="7.0804">
        <ele>808.59997558594</ele>
        <time>2023-08-02T07:43:23.000Z</time>
      </trkpt>
      <trkpt lat="43.75276" lon="7.0804">
        <ele>808.59997558594</ele>
        <time>2023-08-02T07:43:24.000Z</time>
      </trkpt>
      <trkpt lat="43.75276" lon="7.0804">
        <ele>808.59997558594</ele>
        <time>2023-08-02T07:43:25.000Z</time>
      </trkpt>
      <trkpt lat="43.75276" lon="7.0804">
        <ele>808.59997558594</ele>
        <time>2023-08-02T07:43:26.000Z</time>
      </trkpt>
      <trkpt lat="43.75276" lon="7.0804">
        <ele>808.59997558594</ele>
        <time>2023-08-02T07:43:27.000Z</time>
      </trkpt>
      <trkpt lat="43.75276" lon="7.0804">
        <ele>808.59997558594</ele>
        <time>2023-08-02T07:43:28.000Z</time>
      </trkpt>
      <trkpt lat="43.75276" lon="7.0804">
        <ele>808.59997558594</ele>
        <time>2023-08-02T07:43:29.000Z</time>
      </trkpt>
      <trkpt lat="43.75276" lon="7.0804">
        <ele>808.59997558594</ele>
        <time>2023-08-02T07:43:30.000Z</time>
      </trkpt>
      <trkpt lat="43.75276" lon="7.0804">
        <ele>808.40002441406</ele>
        <time>2023-08-02T07:43:31.000Z</time>
      </trkpt>
      <trkpt lat="43.75276" lon="7.0804">
        <ele>808.40002441406</ele>
        <time>2023-08-02T07:43:32.000Z</time>
      </trkpt>
      <trkpt lat="43.75276" lon="7.0804">
        <ele>808.40002441406</ele>
        <time>2023-08-02T07:43:33.000Z</time>
      </trkpt>
      <trkpt lat="43.75276" lon="7.0804">
        <ele>808.40002441406</ele>
        <time>2023-08-02T07:43:34.000Z</time>
      </trkpt>
      <trkpt lat="43.75276" lon="7.0804">
        <ele>808.40002441406</ele>
        <time>2023-08-02T07:43:35.000Z</time>
      </trkpt>
      <trkpt lat="43.75276" lon="7.0804">
        <ele>808.59997558594</ele>
        <time>2023-08-02T07:43:36.000Z</time>
      </trkpt>
      <trkpt lat="43.75276" lon="7.0804">
        <ele>808.59997558594</ele>
        <time>2023-08-02T07:43:37.000Z</time>
      </trkpt>
      <trkpt lat="43.75276" lon="7.0804">
        <ele>808.59997558594</ele>
        <time>2023-08-02T07:43:38.000Z</time>
      </trkpt>
      <trkpt lat="43.75276" lon="7.0804">
        <ele>808.59997558594</ele>
        <time>2023-08-02T07:43:39.000Z</time>
      </trkpt>
      <trkpt lat="43.75276" lon="7.0804">
        <ele>808.59997558594</ele>
        <time>2023-08-02T07:43:40.000Z</time>
      </trkpt>
      <trkpt lat="43.75276" lon="7.0804">
        <ele>808.59997558594</ele>
        <time>2023-08-02T07:43:41.000Z</time>
      </trkpt>
      <trkpt lat="43.75276" lon="7.0804">
        <ele>808.59997558594</ele>
        <time>2023-08-02T07:43:42.000Z</time>
      </trkpt>
      <trkpt lat="43.75276" lon="7.0804">
        <ele>808.59997558594</ele>
        <time>2023-08-02T07:43:43.000Z</time>
      </trkpt>
      <trkpt lat="43.75276" lon="7.0804">
        <ele>808.59997558594</ele>
        <time>2023-08-02T07:43:44.000Z</time>
      </trkpt>
      <trkpt lat="43.75276" lon="7.0804">
        <ele>808.59997558594</ele>
        <time>2023-08-02T07:43:45.000Z</time>
      </trkpt>
      <trkpt lat="43.75276" lon="7.0804">
        <ele>808.59997558594</ele>
        <time>2023-08-02T07:43:46.000Z</time>
      </trkpt>
      <trkpt lat="43.75276" lon="7.0804">
        <ele>808.59997558594</ele>
        <time>2023-08-02T07:43:47.000Z</time>
      </trkpt>
      <trkpt lat="43.75276" lon="7.0804">
        <ele>808.59997558594</ele>
        <time>2023-08-02T07:43:48.000Z</time>
      </trkpt>
      <trkpt lat="43.75276" lon="7.0804">
        <ele>808.79998779297</ele>
        <time>2023-08-02T07:43:49.000Z</time>
      </trkpt>
      <trkpt lat="43.75276" lon="7.0804">
        <ele>808.79998779297</ele>
        <time>2023-08-02T07:43:50.000Z</time>
      </trkpt>
      <trkpt lat="43.75276" lon="7.0804">
        <ele>808.79998779297</ele>
        <time>2023-08-02T07:43:51.000Z</time>
      </trkpt>
      <trkpt lat="43.75276" lon="7.0804">
        <ele>808.79998779297</ele>
        <time>2023-08-02T07:43:52.000Z</time>
      </trkpt>
      <trkpt lat="43.75276" lon="7.0804">
        <ele>808.79998779297</ele>
        <time>2023-08-02T07:43:53.000Z</time>
      </trkpt>
      <trkpt lat="43.75276" lon="7.0804">
        <ele>808.79998779297</ele>
        <time>2023-08-02T07:43:54.000Z</time>
      </trkpt>
      <trkpt lat="43.75276" lon="7.0804">
        <ele>808.79998779297</ele>
        <time>2023-08-02T07:43:55.000Z</time>
      </trkpt>
      <trkpt lat="43.75276" lon="7.0804">
        <ele>808.79998779297</ele>
        <time>2023-08-02T07:43:56.000Z</time>
      </trkpt>
      <trkpt lat="43.75276" lon="7.0804">
        <ele>808.79998779297</ele>
        <time>2023-08-02T07:43:57.000Z</time>
      </trkpt>
      <trkpt lat="43.75276" lon="7.0804">
        <ele>808.79998779297</ele>
        <time>2023-08-02T07:43:58.000Z</time>
      </trkpt>
      <trkpt lat="43.75276" lon="7.0804">
        <ele>808.79998779297</ele>
        <time>2023-08-02T07:43:59.000Z</time>
      </trkpt>
      <trkpt lat="43.75276" lon="7.0804">
        <ele>808.79998779297</ele>
        <time>2023-08-02T07:44:00.000Z</time>
      </trkpt>
      <trkpt lat="43.75276" lon="7.0804">
        <ele>808.79998779297</ele>
        <time>2023-08-02T07:44:01.000Z</time>
      </trkpt>
      <trkpt lat="43.75276" lon="7.0804">
        <ele>808.79998779297</ele>
        <time>2023-08-02T07:44:02.000Z</time>
      </trkpt>
      <trkpt lat="43.75276" lon="7.0804">
        <ele>808.79998779297</ele>
        <time>2023-08-02T07:44:03.000Z</time>
      </trkpt>
      <trkpt lat="43.75276" lon="7.0804">
        <ele>809</ele>
        <time>2023-08-02T07:44:04.000Z</time>
      </trkpt>
      <trkpt lat="43.75276" lon="7.0804">
        <ele>809</ele>
        <time>2023-08-02T07:44:05.000Z</time>
      </trkpt>
      <trkpt lat="43.75276" lon="7.0804">
        <ele>809</ele>
        <time>2023-08-02T07:44:06.000Z</time>
      </trkpt>
      <trkpt lat="43.75276" lon="7.0804">
        <ele>809</ele>
        <time>2023-08-02T07:44:07.000Z</time>
      </trkpt>
      <trkpt lat="43.75276" lon="7.0804">
        <ele>809</ele>
        <time>2023-08-02T07:44:08.000Z</time>
      </trkpt>
      <trkpt lat="43.75276" lon="7.0804">
        <ele>809</ele>
        <time>2023-08-02T07:44:09.000Z</time>
      </trkpt>
      <trkpt lat="43.75276" lon="7.0804">
        <ele>809</ele>
        <time>2023-08-02T07:44:10.000Z</time>
      </trkpt>
      <trkpt lat="43.75276" lon="7.0804">
        <ele>809</ele>
        <time>2023-08-02T07:44:11.000Z</time>
      </trkpt>
      <trkpt lat="43.75276" lon="7.0804">
        <ele>809</ele>
        <time>2023-08-02T07:44:12.000Z</time>
      </trkpt>
      <trkpt lat="43.75275" lon="7.0804">
        <ele>809</ele>
        <time>2023-08-02T07:44:13.000Z</time>
      </trkpt>
      <trkpt lat="43.75275" lon="7.0804">
        <ele>809</ele>
        <time>2023-08-02T07:44:14.000Z</time>
      </trkpt>
      <trkpt lat="43.75275" lon="7.0804">
        <ele>809</ele>
        <time>2023-08-02T07:44:15.000Z</time>
      </trkpt>
      <trkpt lat="43.75275" lon="7.0804">
        <ele>809</ele>
        <time>2023-08-02T07:44:16.000Z</time>
      </trkpt>
      <trkpt lat="43.75275" lon="7.0804">
        <ele>809</ele>
        <time>2023-08-02T07:44:17.000Z</time>
      </trkpt>
      <trkpt lat="43.75275" lon="7.0804">
        <ele>809</ele>
        <time>2023-08-02T07:44:18.000Z</time>
      </trkpt>
      <trkpt lat="43.75275" lon="7.0804">
        <ele>809</ele>
        <time>2023-08-02T07:44:19.000Z</time>
      </trkpt>
      <trkpt lat="43.75275" lon="7.0804">
        <ele>809</ele>
        <time>2023-08-02T07:44:20.000Z</time>
      </trkpt>
      <trkpt lat="43.75275" lon="7.0804">
        <ele>809</ele>
        <time>2023-08-02T07:44:21.000Z</time>
      </trkpt>
      <trkpt lat="43.75275" lon="7.0804">
        <ele>809</ele>
        <time>2023-08-02T07:44:22.000Z</time>
      </trkpt>
      <trkpt lat="43.75275" lon="7.0804">
        <ele>809</ele>
        <time>2023-08-02T07:44:23.000Z</time>
      </trkpt>
      <trkpt lat="43.75275" lon="7.0804">
        <ele>809</ele>
        <time>2023-08-02T07:44:24.000Z</time>
      </trkpt>
      <trkpt lat="43.75275" lon="7.0804">
        <ele>809</ele>
        <time>2023-08-02T07:44:25.000Z</time>
      </trkpt>
      <trkpt lat="43.75275" lon="7.0804">
        <ele>809</ele>
        <time>2023-08-02T07:44:26.000Z</time>
      </trkpt>
      <trkpt lat="43.75275" lon="7.0804">
        <ele>809</ele>
        <time>2023-08-02T07:44:27.000Z</time>
      </trkpt>
      <trkpt lat="43.75275" lon="7.0804">
        <ele>809</ele>
        <time>2023-08-02T07:44:28.000Z</time>
      </trkpt>
      <trkpt lat="43.75275" lon="7.0804">
        <ele>809</ele>
        <time>2023-08-02T07:44:29.000Z</time>
      </trkpt>
      <trkpt lat="43.75275" lon="7.0804">
        <ele>809</ele>
        <time>2023-08-02T07:44:30.000Z</time>
      </trkpt>
      <trkpt lat="43.75275" lon="7.0804">
        <ele>809</ele>
        <time>2023-08-02T07:44:31.000Z</time>
      </trkpt>
      <trkpt lat="43.75275" lon="7.0804">
        <ele>809</ele>
        <time>2023-08-02T07:44:32.000Z</time>
      </trkpt>
      <trkpt lat="43.75275" lon="7.0804">
        <ele>809</ele>
        <time>2023-08-02T07:44:33.000Z</time>
      </trkpt>
      <trkpt lat="43.75275" lon="7.0804">
        <ele>809</ele>
        <time>2023-08-02T07:44:34.000Z</time>
      </trkpt>
      <trkpt lat="43.75275" lon="7.0804">
        <ele>809</ele>
        <time>2023-08-02T07:44:35.000Z</time>
      </trkpt>
      <trkpt lat="43.75275" lon="7.0804">
        <ele>809</ele>
        <time>2023-08-02T07:44:36.000Z</time>
      </trkpt>
      <trkpt lat="43.75275" lon="7.0804">
        <ele>809</ele>
        <time>2023-08-02T07:44:37.000Z</time>
      </trkpt>
      <trkpt lat="43.75275" lon="7.0804">
        <ele>809</ele>
        <time>2023-08-02T07:44:38.000Z</time>
      </trkpt>
      <trkpt lat="43.75275" lon="7.0804">
        <ele>809</ele>
        <time>2023-08-02T07:44:39.000Z</time>
      </trkpt>
      <trkpt lat="43.75275" lon="7.0804">
        <ele>809</ele>
        <time>2023-08-02T07:44:40.000Z</time>
      </trkpt>
      <trkpt lat="43.75275" lon="7.0804">
        <ele>809</ele>
        <time>2023-08-02T07:44:41.000Z</time>
      </trkpt>
      <trkpt lat="43.75275" lon="7.0804">
        <ele>809</ele>
        <time>2023-08-02T07:44:42.000Z</time>
      </trkpt>
      <trkpt lat="43.75275" lon="7.0804">
        <ele>809</ele>
        <time>2023-08-02T07:44:43.000Z</time>
      </trkpt>
      <trkpt lat="43.75275" lon="7.0804">
        <ele>809</ele>
        <time>2023-08-02T07:44:44.000Z</time>
      </trkpt>
      <trkpt lat="43.75275" lon="7.0804">
        <ele>809</ele>
        <time>2023-08-02T07:44:45.000Z</time>
      </trkpt>
      <trkpt lat="43.75275" lon="7.0804">
        <ele>809</ele>
        <time>2023-08-02T07:44:46.000Z</time>
      </trkpt>
      <trkpt lat="43.75275" lon="7.0804">
        <ele>809</ele>
        <time>2023-08-02T07:44:47.000Z</time>
      </trkpt>
      <trkpt lat="43.75275" lon="7.0804">
        <ele>809</ele>
        <time>2023-08-02T07:44:48.000Z</time>
      </trkpt>
      <trkpt lat="43.75275" lon="7.0804">
        <ele>809</ele>
        <time>2023-08-02T07:44:49.000Z</time>
      </trkpt>
      <trkpt lat="43.75275" lon="7.0804">
        <ele>809</ele>
        <time>2023-08-02T07:44:50.000Z</time>
      </trkpt>
      <trkpt lat="43.75275" lon="7.0804">
        <ele>809</ele>
        <time>2023-08-02T07:44:51.000Z</time>
      </trkpt>
      <trkpt lat="43.75275" lon="7.0804">
        <ele>809</ele>
        <time>2023-08-02T07:44:52.000Z</time>
      </trkpt>
      <trkpt lat="43.75275" lon="7.0804">
        <ele>809</ele>
        <time>2023-08-02T07:44:53.000Z</time>
      </trkpt>
      <trkpt lat="43.75275" lon="7.0804">
        <ele>809</ele>
        <time>2023-08-02T07:44:54.000Z</time>
      </trkpt>
      <trkpt lat="43.75274" lon="7.0804">
        <ele>809</ele>
        <time>2023-08-02T07:44:55.000Z</time>
      </trkpt>
      <trkpt lat="43.75274" lon="7.0804">
        <ele>809</ele>
        <time>2023-08-02T07:44:56.000Z</time>
      </trkpt>
      <trkpt lat="43.75274" lon="7.08041">
        <ele>809</ele>
        <time>2023-08-02T07:44:57.000Z</time>
      </trkpt>
      <trkpt lat="43.75274" lon="7.08042">
        <ele>809</ele>
        <time>2023-08-02T07:44:58.000Z</time>
      </trkpt>
      <trkpt lat="43.75274" lon="7.08042">
        <ele>809</ele>
        <time>2023-08-02T07:44:59.000Z</time>
      </trkpt>
      <trkpt lat="43.75274" lon="7.08042">
        <ele>809</ele>
        <time>2023-08-02T07:45:00.000Z</time>
      </trkpt>
      <trkpt lat="43.75274" lon="7.08042">
        <ele>809</ele>
        <time>2023-08-02T07:45:01.000Z</time>
      </trkpt>
      <trkpt lat="43.75274" lon="7.08042">
        <ele>809</ele>
        <time>2023-08-02T07:45:02.000Z</time>
      </trkpt>
      <trkpt lat="43.75274" lon="7.08042">
        <ele>809</ele>
        <time>2023-08-02T07:45:03.000Z</time>
      </trkpt>
      <trkpt lat="43.75274" lon="7.08045">
        <ele>809</ele>
        <time>2023-08-02T07:45:04.000Z</time>
      </trkpt>
      <trkpt lat="43.75273" lon="7.08046">
        <ele>808.59997558594</ele>
        <time>2023-08-02T07:45:05.000Z</time>
      </trkpt>
      <trkpt lat="43.75273" lon="7.08048">
        <ele>808.79998779297</ele>
        <time>2023-08-02T07:45:06.000Z</time>
      </trkpt>
      <trkpt lat="43.75273" lon="7.0805">
        <ele>808.79998779297</ele>
        <time>2023-08-02T07:45:07.000Z</time>
      </trkpt>
      <trkpt lat="43.75273" lon="7.08053">
        <ele>808.79998779297</ele>
        <time>2023-08-02T07:45:08.000Z</time>
      </trkpt>
      <trkpt lat="43.75273" lon="7.08056">
        <ele>808.79998779297</ele>
        <time>2023-08-02T07:45:09.000Z</time>
      </trkpt>
      <trkpt lat="43.75273" lon="7.08059">
        <ele>808.79998779297</ele>
        <time>2023-08-02T07:45:10.000Z</time>
      </trkpt>
      <trkpt lat="43.75273" lon="7.08062">
        <ele>809</ele>
        <time>2023-08-02T07:45:11.000Z</time>
      </trkpt>
      <trkpt lat="43.75273" lon="7.08064">
        <ele>809</ele>
        <time>2023-08-02T07:45:12.000Z</time>
      </trkpt>
      <trkpt lat="43.75273" lon="7.08067">
        <ele>809.20001220703</ele>
        <time>2023-08-02T07:45:13.000Z</time>
      </trkpt>
      <trkpt lat="43.75273" lon="7.0807">
        <ele>809.40002441406</ele>
        <time>2023-08-02T07:45:14.000Z</time>
      </trkpt>
      <trkpt lat="43.75273" lon="7.08074">
        <ele>809.40002441406</ele>
        <time>2023-08-02T07:45:15.000Z</time>
      </trkpt>
      <trkpt lat="43.75273" lon="7.08077">
        <ele>809.40002441406</ele>
        <time>2023-08-02T07:45:16.000Z</time>
      </trkpt>
      <trkpt lat="43.75273" lon="7.0808">
        <ele>809.59997558594</ele>
        <time>2023-08-02T07:45:17.000Z</time>
      </trkpt>
      <trkpt lat="43.75273" lon="7.08083">
        <ele>809.79998779297</ele>
        <time>2023-08-02T07:45:18.000Z</time>
      </trkpt>
      <trkpt lat="43.75273" lon="7.08086">
        <ele>809.79998779297</ele>
        <time>2023-08-02T07:45:19.000Z</time>
      </trkpt>
      <trkpt lat="43.75273" lon="7.0809">
        <ele>809.79998779297</ele>
        <time>2023-08-02T07:45:20.000Z</time>
      </trkpt>
      <trkpt lat="43.75273" lon="7.08093">
        <ele>809.79998779297</ele>
        <time>2023-08-02T07:45:21.000Z</time>
      </trkpt>
      <trkpt lat="43.75274" lon="7.08097">
        <ele>810</ele>
        <time>2023-08-02T07:45:22.000Z</time>
      </trkpt>
      <trkpt lat="43.75274" lon="7.081">
        <ele>810</ele>
        <time>2023-08-02T07:45:23.000Z</time>
      </trkpt>
      <trkpt lat="43.75274" lon="7.08102">
        <ele>810</ele>
        <time>2023-08-02T07:45:24.000Z</time>
      </trkpt>
      <trkpt lat="43.75273" lon="7.08105">
        <ele>810</ele>
        <time>2023-08-02T07:45:25.000Z</time>
      </trkpt>
      <trkpt lat="43.75273" lon="7.08108">
        <ele>810.20001220703</ele>
        <time>2023-08-02T07:45:26.000Z</time>
      </trkpt>
      <trkpt lat="43.75274" lon="7.08112">
        <ele>810.40002441406</ele>
        <time>2023-08-02T07:45:27.000Z</time>
      </trkpt>
      <trkpt lat="43.75274" lon="7.08115">
        <ele>810.40002441406</ele>
        <time>2023-08-02T07:45:28.000Z</time>
      </trkpt>
      <trkpt lat="43.75274" lon="7.08118">
        <ele>810.40002441406</ele>
        <time>2023-08-02T07:45:29.000Z</time>
      </trkpt>
      <trkpt lat="43.75274" lon="7.08121">
        <ele>810.59997558594</ele>
        <time>2023-08-02T07:45:30.000Z</time>
      </trkpt>
      <trkpt lat="43.75274" lon="7.08124">
        <ele>810.59997558594</ele>
        <time>2023-08-02T07:45:31.000Z</time>
      </trkpt>
      <trkpt lat="43.75274" lon="7.08126">
        <ele>810.79998779297</ele>
        <time>2023-08-02T07:45:32.000Z</time>
      </trkpt>
      <trkpt lat="43.75275" lon="7.08129">
        <ele>811</ele>
        <time>2023-08-02T07:45:33.000Z</time>
      </trkpt>
      <trkpt lat="43.75275" lon="7.08132">
        <ele>811</ele>
        <time>2023-08-02T07:45:34.000Z</time>
      </trkpt>
      <trkpt lat="43.75275" lon="7.08135">
        <ele>811</ele>
        <time>2023-08-02T07:45:35.000Z</time>
      </trkpt>
      <trkpt lat="43.75275" lon="7.08139">
        <ele>811.20001220703</ele>
        <time>2023-08-02T07:45:36.000Z</time>
      </trkpt>
      <trkpt lat="43.75275" lon="7.08142">
        <ele>811.20001220703</ele>
        <time>2023-08-02T07:45:37.000Z</time>
      </trkpt>
      <trkpt lat="43.75275" lon="7.08145">
        <ele>811.40002441406</ele>
        <time>2023-08-02T07:45:38.000Z</time>
      </trkpt>
      <trkpt lat="43.75275" lon="7.08148">
        <ele>811.40002441406</ele>
        <time>2023-08-02T07:45:39.000Z</time>
      </trkpt>
      <trkpt lat="43.75277" lon="7.08151">
        <ele>811.40002441406</ele>
        <time>2023-08-02T07:45:40.000Z</time>
      </trkpt>
      <trkpt lat="43.75279" lon="7.08153">
        <ele>811.40002441406</ele>
        <time>2023-08-02T07:45:41.000Z</time>
      </trkpt>
      <trkpt lat="43.7528" lon="7.08156">
        <ele>811.40002441406</ele>
        <time>2023-08-02T07:45:42.000Z</time>
      </trkpt>
      <trkpt lat="43.75282" lon="7.08158">
        <ele>811.20001220703</ele>
        <time>2023-08-02T07:45:43.000Z</time>
      </trkpt>
      <trkpt lat="43.75283" lon="7.08162">
        <ele>811.40002441406</ele>
        <time>2023-08-02T07:45:44.000Z</time>
      </trkpt>
      <trkpt lat="43.75284" lon="7.08165">
        <ele>811.40002441406</ele>
        <time>2023-08-02T07:45:45.000Z</time>
      </trkpt>
      <trkpt lat="43.75286" lon="7.08168">
        <ele>811.40002441406</ele>
        <time>2023-08-02T07:45:46.000Z</time>
      </trkpt>
      <trkpt lat="43.75287" lon="7.08171">
        <ele>811.40002441406</ele>
        <time>2023-08-02T07:45:47.000Z</time>
      </trkpt>
      <trkpt lat="43.75289" lon="7.08174">
        <ele>811.40002441406</ele>
        <time>2023-08-02T07:45:48.000Z</time>
      </trkpt>
      <trkpt lat="43.75291" lon="7.08177">
        <ele>811.40002441406</ele>
        <time>2023-08-02T07:45:49.000Z</time>
      </trkpt>
      <trkpt lat="43.75292" lon="7.0818">
        <ele>811.40002441406</ele>
        <time>2023-08-02T07:45:50.000Z</time>
      </trkpt>
      <trkpt lat="43.75293" lon="7.08184">
        <ele>811.59997558594</ele>
        <time>2023-08-02T07:45:51.000Z</time>
      </trkpt>
      <trkpt lat="43.75295" lon="7.08187">
        <ele>811.59997558594</ele>
        <time>2023-08-02T07:45:52.000Z</time>
      </trkpt>
      <trkpt lat="43.75297" lon="7.08189">
        <ele>811.59997558594</ele>
        <time>2023-08-02T07:45:53.000Z</time>
      </trkpt>
      <trkpt lat="43.75299" lon="7.08191">
        <ele>811.59997558594</ele>
        <time>2023-08-02T07:45:54.000Z</time>
      </trkpt>
      <trkpt lat="43.75302" lon="7.08193">
        <ele>811.79998779297</ele>
        <time>2023-08-02T07:45:55.000Z</time>
      </trkpt>
      <trkpt lat="43.75303" lon="7.08196">
        <ele>811.79998779297</ele>
        <time>2023-08-02T07:45:56.000Z</time>
      </trkpt>
      <trkpt lat="43.75304" lon="7.082">
        <ele>812</ele>
        <time>2023-08-02T07:45:57.000Z</time>
      </trkpt>
      <trkpt lat="43.75305" lon="7.08203">
        <ele>812</ele>
        <time>2023-08-02T07:45:58.000Z</time>
      </trkpt>
      <trkpt lat="43.75307" lon="7.08205">
        <ele>812.20001220703</ele>
        <time>2023-08-02T07:45:59.000Z</time>
      </trkpt>
      <trkpt lat="43.75308" lon="7.08208">
        <ele>812.20001220703</ele>
        <time>2023-08-02T07:46:00.000Z</time>
      </trkpt>
      <trkpt lat="43.7531" lon="7.08211">
        <ele>812.40002441406</ele>
        <time>2023-08-02T07:46:01.000Z</time>
      </trkpt>
      <trkpt lat="43.75312" lon="7.08213">
        <ele>812.59997558594</ele>
        <time>2023-08-02T07:46:02.000Z</time>
      </trkpt>
      <trkpt lat="43.75313" lon="7.08216">
        <ele>812.79998779297</ele>
        <time>2023-08-02T07:46:03.000Z</time>
      </trkpt>
      <trkpt lat="43.75315" lon="7.08217">
        <ele>813.20001220703</ele>
        <time>2023-08-02T07:46:04.000Z</time>
      </trkpt>
      <trkpt lat="43.75317" lon="7.08219">
        <ele>813.40002441406</ele>
        <time>2023-08-02T07:46:05.000Z</time>
      </trkpt>
      <trkpt lat="43.75319" lon="7.08221">
        <ele>813.59997558594</ele>
        <time>2023-08-02T07:46:06.000Z</time>
      </trkpt>
      <trkpt lat="43.75321" lon="7.08223">
        <ele>813.79998779297</ele>
        <time>2023-08-02T07:46:07.000Z</time>
      </trkpt>
      <trkpt lat="43.75323" lon="7.08223">
        <ele>813.79998779297</ele>
        <time>2023-08-02T07:46:08.000Z</time>
      </trkpt>
      <trkpt lat="43.75326" lon="7.08224">
        <ele>814</ele>
        <time>2023-08-02T07:46:09.000Z</time>
      </trkpt>
      <trkpt lat="43.75328" lon="7.08225">
        <ele>814.40002441406</ele>
        <time>2023-08-02T07:46:10.000Z</time>
      </trkpt>
      <trkpt lat="43.75329" lon="7.08226">
        <ele>814.40002441406</ele>
        <time>2023-08-02T07:46:11.000Z</time>
      </trkpt>
      <trkpt lat="43.75332" lon="7.08226">
        <ele>814.40002441406</ele>
        <time>2023-08-02T07:46:12.000Z</time>
      </trkpt>
      <trkpt lat="43.75334" lon="7.08226">
        <ele>814.79998779297</ele>
        <time>2023-08-02T07:46:13.000Z</time>
      </trkpt>
      <trkpt lat="43.75337" lon="7.08225">
        <ele>815.40002441406</ele>
        <time>2023-08-02T07:46:14.000Z</time>
      </trkpt>
      <trkpt lat="43.75339" lon="7.08225">
        <ele>815.59997558594</ele>
        <time>2023-08-02T07:46:15.000Z</time>
      </trkpt>
      <trkpt lat="43.75341" lon="7.08225">
        <ele>815.79998779297</ele>
        <time>2023-08-02T07:46:16.000Z</time>
      </trkpt>
      <trkpt lat="43.75343" lon="7.08225">
        <ele>816</ele>
        <time>2023-08-02T07:46:17.000Z</time>
      </trkpt>
      <trkpt lat="43.75344" lon="7.08227">
        <ele>816.59997558594</ele>
        <time>2023-08-02T07:46:18.000Z</time>
      </trkpt>
      <trkpt lat="43.75346" lon="7.08229">
        <ele>817</ele>
        <time>2023-08-02T07:46:19.000Z</time>
      </trkpt>
      <trkpt lat="43.75348" lon="7.08231">
        <ele>817</ele>
        <time>2023-08-02T07:46:20.000Z</time>
      </trkpt>
      <trkpt lat="43.7535" lon="7.08232">
        <ele>817.79998779297</ele>
        <time>2023-08-02T07:46:21.000Z</time>
      </trkpt>
      <trkpt lat="43.75352" lon="7.08233">
        <ele>817.79998779297</ele>
        <time>2023-08-02T07:46:22.000Z</time>
      </trkpt>
      <trkpt lat="43.75354" lon="7.08233">
        <ele>818.20001220703</ele>
        <time>2023-08-02T07:46:23.000Z</time>
      </trkpt>
      <trkpt lat="43.75356" lon="7.08234">
        <ele>818.40002441406</ele>
        <time>2023-08-02T07:46:24.000Z</time>
      </trkpt>
      <trkpt lat="43.75359" lon="7.08236">
        <ele>818.59997558594</ele>
        <time>2023-08-02T07:46:25.000Z</time>
      </trkpt>
      <trkpt lat="43.75361" lon="7.08237">
        <ele>819</ele>
        <time>2023-08-02T07:46:26.000Z</time>
      </trkpt>
      <trkpt lat="43.75363" lon="7.08238">
        <ele>819.20001220703</ele>
        <time>2023-08-02T07:46:27.000Z</time>
      </trkpt>
      <trkpt lat="43.75365" lon="7.08239">
        <ele>819.59997558594</ele>
        <time>2023-08-02T07:46:28.000Z</time>
      </trkpt>
      <trkpt lat="43.75366" lon="7.08241">
        <ele>819.79998779297</ele>
        <time>2023-08-02T07:46:29.000Z</time>
      </trkpt>
      <trkpt lat="43.75368" lon="7.08241">
        <ele>820.20001220703</ele>
        <time>2023-08-02T07:46:30.000Z</time>
      </trkpt>
      <trkpt lat="43.75371" lon="7.08242">
        <ele>820.59997558594</ele>
        <time>2023-08-02T07:46:31.000Z</time>
      </trkpt>
      <trkpt lat="43.75373" lon="7.08243">
        <ele>820.79998779297</ele>
        <time>2023-08-02T07:46:32.000Z</time>
      </trkpt>
      <trkpt lat="43.75375" lon="7.08245">
        <ele>821.40002441406</ele>
        <time>2023-08-02T07:46:33.000Z</time>
      </trkpt>
      <trkpt lat="43.75377" lon="7.08247">
        <ele>821.40002441406</ele>
        <time>2023-08-02T07:46:34.000Z</time>
      </trkpt>
      <trkpt lat="43.75379" lon="7.08249">
        <ele>821.40002441406</ele>
        <time>2023-08-02T07:46:35.000Z</time>
      </trkpt>
      <trkpt lat="43.75381" lon="7.08251">
        <ele>821.40002441406</ele>
        <time>2023-08-02T07:46:36.000Z</time>
      </trkpt>
      <trkpt lat="43.75382" lon="7.08253">
        <ele>821.59997558594</ele>
        <time>2023-08-02T07:46:37.000Z</time>
      </trkpt>
      <trkpt lat="43.75384" lon="7.08255">
        <ele>821.79998779297</ele>
        <time>2023-08-02T07:46:38.000Z</time>
      </trkpt>
      <trkpt lat="43.75386" lon="7.08256">
        <ele>822</ele>
        <time>2023-08-02T07:46:39.000Z</time>
      </trkpt>
      <trkpt lat="43.75388" lon="7.08258">
        <ele>822.20001220703</ele>
        <time>2023-08-02T07:46:40.000Z</time>
      </trkpt>
      <trkpt lat="43.7539" lon="7.08259">
        <ele>822.20001220703</ele>
        <time>2023-08-02T07:46:41.000Z</time>
      </trkpt>
      <trkpt lat="43.75392" lon="7.08261">
        <ele>822.59997558594</ele>
        <time>2023-08-02T07:46:42.000Z</time>
      </trkpt>
      <trkpt lat="43.75394" lon="7.08262">
        <ele>822.79998779297</ele>
        <time>2023-08-02T07:46:43.000Z</time>
      </trkpt>
      <trkpt lat="43.75396" lon="7.08264">
        <ele>823.20001220703</ele>
        <time>2023-08-02T07:46:44.000Z</time>
      </trkpt>
      <trkpt lat="43.75398" lon="7.08266">
        <ele>823.20001220703</ele>
        <time>2023-08-02T07:46:45.000Z</time>
      </trkpt>
      <trkpt lat="43.754" lon="7.08268">
        <ele>823.40002441406</ele>
        <time>2023-08-02T07:46:46.000Z</time>
      </trkpt>
      <trkpt lat="43.75402" lon="7.08269">
        <ele>823.40002441406</ele>
        <time>2023-08-02T07:46:47.000Z</time>
      </trkpt>
      <trkpt lat="43.75405" lon="7.0827">
        <ele>823.40002441406</ele>
        <time>2023-08-02T07:46:48.000Z</time>
      </trkpt>
      <trkpt lat="43.75406" lon="7.08272">
        <ele>823.59997558594</ele>
        <time>2023-08-02T07:46:49.000Z</time>
      </trkpt>
      <trkpt lat="43.75408" lon="7.08274">
        <ele>823.59997558594</ele>
        <time>2023-08-02T07:46:50.000Z</time>
      </trkpt>
      <trkpt lat="43.7541" lon="7.08277">
        <ele>823.79998779297</ele>
        <time>2023-08-02T07:46:51.000Z</time>
      </trkpt>
      <trkpt lat="43.75411" lon="7.08279">
        <ele>823.79998779297</ele>
        <time>2023-08-02T07:46:52.000Z</time>
      </trkpt>
      <trkpt lat="43.75412" lon="7.08281">
        <ele>824</ele>
        <time>2023-08-02T07:46:53.000Z</time>
      </trkpt>
      <trkpt lat="43.75414" lon="7.08284">
        <ele>824</ele>
        <time>2023-08-02T07:46:54.000Z</time>
      </trkpt>
      <trkpt lat="43.75415" lon="7.08285">
        <ele>824</ele>
        <time>2023-08-02T07:46:55.000Z</time>
      </trkpt>
      <trkpt lat="43.75417" lon="7.08287">
        <ele>824.20001220703</ele>
        <time>2023-08-02T07:46:56.000Z</time>
      </trkpt>
      <trkpt lat="43.75419" lon="7.08287">
        <ele>824.20001220703</ele>
        <time>2023-08-02T07:46:57.000Z</time>
      </trkpt>
      <trkpt lat="43.75421" lon="7.08286">
        <ele>824.59997558594</ele>
        <time>2023-08-02T07:46:58.000Z</time>
      </trkpt>
      <trkpt lat="43.75422" lon="7.08284">
        <ele>824.79998779297</ele>
        <time>2023-08-02T07:46:59.000Z</time>
      </trkpt>
      <trkpt lat="43.75423" lon="7.08282">
        <ele>824.79998779297</ele>
        <time>2023-08-02T07:47:00.000Z</time>
      </trkpt>
      <trkpt lat="43.75424" lon="7.08279">
        <ele>824.79998779297</ele>
        <time>2023-08-02T07:47:01.000Z</time>
      </trkpt>
      <trkpt lat="43.75425" lon="7.08277">
        <ele>825</ele>
        <time>2023-08-02T07:47:02.000Z</time>
      </trkpt>
      <trkpt lat="43.75425" lon="7.08274">
        <ele>825.20001220703</ele>
        <time>2023-08-02T07:47:03.000Z</time>
      </trkpt>
      <trkpt lat="43.75426" lon="7.08271">
        <ele>825.59997558594</ele>
        <time>2023-08-02T07:47:04.000Z</time>
      </trkpt>
      <trkpt lat="43.75426" lon="7.08269">
        <ele>825.59997558594</ele>
        <time>2023-08-02T07:47:05.000Z</time>
      </trkpt>
      <trkpt lat="43.75427" lon="7.08266">
        <ele>825.79998779297</ele>
        <time>2023-08-02T07:47:06.000Z</time>
      </trkpt>
      <trkpt lat="43.75428" lon="7.08263">
        <ele>826.20001220703</ele>
        <time>2023-08-02T07:47:07.000Z</time>
      </trkpt>
      <trkpt lat="43.75429" lon="7.08261">
        <ele>826.59997558594</ele>
        <time>2023-08-02T07:47:08.000Z</time>
      </trkpt>
      <trkpt lat="43.7543" lon="7.08258">
        <ele>826.79998779297</ele>
        <time>2023-08-02T07:47:09.000Z</time>
      </trkpt>
      <trkpt lat="43.75431" lon="7.08255">
        <ele>827.40002441406</ele>
        <time>2023-08-02T07:47:10.000Z</time>
      </trkpt>
      <trkpt lat="43.75432" lon="7.08252">
        <ele>827.40002441406</ele>
        <time>2023-08-02T07:47:11.000Z</time>
      </trkpt>
      <trkpt lat="43.75433" lon="7.08249">
        <ele>827.79998779297</ele>
        <time>2023-08-02T07:47:12.000Z</time>
      </trkpt>
      <trkpt lat="43.75434" lon="7.08246">
        <ele>828.20001220703</ele>
        <time>2023-08-02T07:47:13.000Z</time>
      </trkpt>
      <trkpt lat="43.75435" lon="7.08244">
        <ele>828.59997558594</ele>
        <time>2023-08-02T07:47:14.000Z</time>
      </trkpt>
      <trkpt lat="43.75436" lon="7.08241">
        <ele>829</ele>
        <time>2023-08-02T07:47:15.000Z</time>
      </trkpt>
      <trkpt lat="43.75436" lon="7.08239">
        <ele>829</ele>
        <time>2023-08-02T07:47:16.000Z</time>
      </trkpt>
      <trkpt lat="43.75437" lon="7.08236">
        <ele>829.20001220703</ele>
        <time>2023-08-02T07:47:17.000Z</time>
      </trkpt>
      <trkpt lat="43.75438" lon="7.08233">
        <ele>829.79998779297</ele>
        <time>2023-08-02T07:47:18.000Z</time>
      </trkpt>
      <trkpt lat="43.75439" lon="7.08231">
        <ele>829.79998779297</ele>
        <time>2023-08-02T07:47:19.000Z</time>
      </trkpt>
      <trkpt lat="43.7544" lon="7.08229">
        <ele>830.20001220703</ele>
        <time>2023-08-02T07:47:20.000Z</time>
      </trkpt>
      <trkpt lat="43.75441" lon="7.08226">
        <ele>830.40002441406</ele>
        <time>2023-08-02T07:47:21.000Z</time>
      </trkpt>
      <trkpt lat="43.75442" lon="7.08224">
        <ele>830.79998779297</ele>
        <time>2023-08-02T07:47:22.000Z</time>
      </trkpt>
      <trkpt lat="43.75443" lon="7.08221">
        <ele>831.20001220703</ele>
        <time>2023-08-02T07:47:23.000Z</time>
      </trkpt>
      <trkpt lat="43.75444" lon="7.08218">
        <ele>831.59997558594</ele>
        <time>2023-08-02T07:47:24.000Z</time>
      </trkpt>
      <trkpt lat="43.75445" lon="7.08217">
        <ele>831.59997558594</ele>
        <time>2023-08-02T07:47:25.000Z</time>
      </trkpt>
      <trkpt lat="43.75446" lon="7.08214">
        <ele>831.79998779297</ele>
        <time>2023-08-02T07:47:26.000Z</time>
      </trkpt>
      <trkpt lat="43.75447" lon="7.08212">
        <ele>832.20001220703</ele>
        <time>2023-08-02T07:47:27.000Z</time>
      </trkpt>
      <trkpt lat="43.75448" lon="7.0821">
        <ele>832.40002441406</ele>
        <time>2023-08-02T07:47:28.000Z</time>
      </trkpt>
      <trkpt lat="43.7545" lon="7.08208">
        <ele>832.79998779297</ele>
        <time>2023-08-02T07:47:29.000Z</time>
      </trkpt>
      <trkpt lat="43.75451" lon="7.08206">
        <ele>833</ele>
        <time>2023-08-02T07:47:30.000Z</time>
      </trkpt>
      <trkpt lat="43.75452" lon="7.08204">
        <ele>833.59997558594</ele>
        <time>2023-08-02T07:47:31.000Z</time>
      </trkpt>
      <trkpt lat="43.75453" lon="7.08202">
        <ele>834</ele>
        <time>2023-08-02T07:47:32.000Z</time>
      </trkpt>
      <trkpt lat="43.75455" lon="7.08199">
        <ele>834.20001220703</ele>
        <time>2023-08-02T07:47:33.000Z</time>
      </trkpt>
      <trkpt lat="43.75456" lon="7.08197">
        <ele>834.40002441406</ele>
        <time>2023-08-02T07:47:34.000Z</time>
      </trkpt>
      <trkpt lat="43.75458" lon="7.08196">
        <ele>834.59997558594</ele>
        <time>2023-08-02T07:47:35.000Z</time>
      </trkpt>
      <trkpt lat="43.75459" lon="7.08194">
        <ele>835.20001220703</ele>
        <time>2023-08-02T07:47:36.000Z</time>
      </trkpt>
      <trkpt lat="43.7546" lon="7.08192">
        <ele>835.40002441406</ele>
        <time>2023-08-02T07:47:37.000Z</time>
      </trkpt>
      <trkpt lat="43.75462" lon="7.0819">
        <ele>835.79998779297</ele>
        <time>2023-08-02T07:47:38.000Z</time>
      </trkpt>
      <trkpt lat="43.75463" lon="7.08189">
        <ele>835.79998779297</ele>
        <time>2023-08-02T07:47:39.000Z</time>
      </trkpt>
      <trkpt lat="43.75465" lon="7.08187">
        <ele>836.20001220703</ele>
        <time>2023-08-02T07:47:40.000Z</time>
      </trkpt>
      <trkpt lat="43.75467" lon="7.08185">
        <ele>836.40002441406</ele>
        <time>2023-08-02T07:47:41.000Z</time>
      </trkpt>
      <trkpt lat="43.75469" lon="7.08184">
        <ele>836.59997558594</ele>
        <time>2023-08-02T07:47:42.000Z</time>
      </trkpt>
      <trkpt lat="43.75471" lon="7.08183">
        <ele>836.79998779297</ele>
        <time>2023-08-02T07:47:43.000Z</time>
      </trkpt>
      <trkpt lat="43.75473" lon="7.08181">
        <ele>837.20001220703</ele>
        <time>2023-08-02T07:47:44.000Z</time>
      </trkpt>
      <trkpt lat="43.75475" lon="7.0818">
        <ele>837.40002441406</ele>
        <time>2023-08-02T07:47:45.000Z</time>
      </trkpt>
      <trkpt lat="43.75477" lon="7.08179">
        <ele>837.59997558594</ele>
        <time>2023-08-02T07:47:46.000Z</time>
      </trkpt>
      <trkpt lat="43.75479" lon="7.08178">
        <ele>837.79998779297</ele>
        <time>2023-08-02T07:47:47.000Z</time>
      </trkpt>
      <trkpt lat="43.75481" lon="7.08177">
        <ele>838.20001220703</ele>
        <time>2023-08-02T07:47:48.000Z</time>
      </trkpt>
      <trkpt lat="43.75482" lon="7.08176">
        <ele>838.40002441406</ele>
        <time>2023-08-02T07:47:49.000Z</time>
      </trkpt>
      <trkpt lat="43.75484" lon="7.08175">
        <ele>838.40002441406</ele>
        <time>2023-08-02T07:47:50.000Z</time>
      </trkpt>
      <trkpt lat="43.75486" lon="7.08174">
        <ele>838.59997558594</ele>
        <time>2023-08-02T07:47:51.000Z</time>
      </trkpt>
      <trkpt lat="43.75487" lon="7.08173">
        <ele>839</ele>
        <time>2023-08-02T07:47:52.000Z</time>
      </trkpt>
      <trkpt lat="43.75489" lon="7.08173">
        <ele>839.20001220703</ele>
        <time>2023-08-02T07:47:53.000Z</time>
      </trkpt>
      <trkpt lat="43.75492" lon="7.08172">
        <ele>839.79998779297</ele>
        <time>2023-08-02T07:47:54.000Z</time>
      </trkpt>
      <trkpt lat="43.75494" lon="7.08171">
        <ele>840</ele>
        <time>2023-08-02T07:47:55.000Z</time>
      </trkpt>
      <trkpt lat="43.75496" lon="7.08171">
        <ele>840.40002441406</ele>
        <time>2023-08-02T07:47:56.000Z</time>
      </trkpt>
      <trkpt lat="43.75498" lon="7.0817">
        <ele>840.59997558594</ele>
        <time>2023-08-02T07:47:57.000Z</time>
      </trkpt>
      <trkpt lat="43.75501" lon="7.08171">
        <ele>841.20001220703</ele>
        <time>2023-08-02T07:47:58.000Z</time>
      </trkpt>
      <trkpt lat="43.75503" lon="7.08171">
        <ele>841.20001220703</ele>
        <time>2023-08-02T07:47:59.000Z</time>
      </trkpt>
      <trkpt lat="43.75505" lon="7.08171">
        <ele>841.40002441406</ele>
        <time>2023-08-02T07:48:00.000Z</time>
      </trkpt>
      <trkpt lat="43.75506" lon="7.08171">
        <ele>841.79998779297</ele>
        <time>2023-08-02T07:48:01.000Z</time>
      </trkpt>
      <trkpt lat="43.75509" lon="7.08171">
        <ele>841.79998779297</ele>
        <time>2023-08-02T07:48:02.000Z</time>
      </trkpt>
      <trkpt lat="43.7551" lon="7.08171">
        <ele>842.20001220703</ele>
        <time>2023-08-02T07:48:03.000Z</time>
      </trkpt>
      <trkpt lat="43.75512" lon="7.08171">
        <ele>842.40002441406</ele>
        <time>2023-08-02T07:48:04.000Z</time>
      </trkpt>
      <trkpt lat="43.75514" lon="7.08171">
        <ele>842.59997558594</ele>
        <time>2023-08-02T07:48:05.000Z</time>
      </trkpt>
      <trkpt lat="43.75516" lon="7.08172">
        <ele>842.79998779297</ele>
        <time>2023-08-02T07:48:06.000Z</time>
      </trkpt>
      <trkpt lat="43.75518" lon="7.08172">
        <ele>843.20001220703</ele>
        <time>2023-08-02T07:48:07.000Z</time>
      </trkpt>
      <trkpt lat="43.7552" lon="7.08173">
        <ele>843.20001220703</ele>
        <time>2023-08-02T07:48:08.000Z</time>
      </trkpt>
      <trkpt lat="43.75522" lon="7.08174">
        <ele>843.59997558594</ele>
        <time>2023-08-02T07:48:09.000Z</time>
      </trkpt>
      <trkpt lat="43.75525" lon="7.08174">
        <ele>843.79998779297</ele>
        <time>2023-08-02T07:48:10.000Z</time>
      </trkpt>
      <trkpt lat="43.75527" lon="7.08174">
        <ele>844.20001220703</ele>
        <time>2023-08-02T07:48:11.000Z</time>
      </trkpt>
      <trkpt lat="43.75529" lon="7.08174">
        <ele>844.40002441406</ele>
        <time>2023-08-02T07:48:12.000Z</time>
      </trkpt>
      <trkpt lat="43.75531" lon="7.08174">
        <ele>844.59997558594</ele>
        <time>2023-08-02T07:48:13.000Z</time>
      </trkpt>
      <trkpt lat="43.75533" lon="7.08173">
        <ele>844.59997558594</ele>
        <time>2023-08-02T07:48:14.000Z</time>
      </trkpt>
      <trkpt lat="43.75535" lon="7.08173">
        <ele>844.59997558594</ele>
        <time>2023-08-02T07:48:15.000Z</time>
      </trkpt>
      <trkpt lat="43.75537" lon="7.08173">
        <ele>845</ele>
        <time>2023-08-02T07:48:16.000Z</time>
      </trkpt>
      <trkpt lat="43.75539" lon="7.08173">
        <ele>845</ele>
        <time>2023-08-02T07:48:17.000Z</time>
      </trkpt>
      <trkpt lat="43.75541" lon="7.08172">
        <ele>845.40002441406</ele>
        <time>2023-08-02T07:48:18.000Z</time>
      </trkpt>
      <trkpt lat="43.75543" lon="7.0817">
        <ele>845.59997558594</ele>
        <time>2023-08-02T07:48:19.000Z</time>
      </trkpt>
      <trkpt lat="43.75545" lon="7.08169">
        <ele>845.59997558594</ele>
        <time>2023-08-02T07:48:20.000Z</time>
      </trkpt>
      <trkpt lat="43.75547" lon="7.08169">
        <ele>846</ele>
        <time>2023-08-02T07:48:21.000Z</time>
      </trkpt>
      <trkpt lat="43.75549" lon="7.08169">
        <ele>846</ele>
        <time>2023-08-02T07:48:22.000Z</time>
      </trkpt>
      <trkpt lat="43.75552" lon="7.08169">
        <ele>846.40002441406</ele>
        <time>2023-08-02T07:48:23.000Z</time>
      </trkpt>
      <trkpt lat="43.75553" lon="7.08169">
        <ele>846.79998779297</ele>
        <time>2023-08-02T07:48:24.000Z</time>
      </trkpt>
      <trkpt lat="43.75556" lon="7.08169">
        <ele>847</ele>
        <time>2023-08-02T07:48:25.000Z</time>
      </trkpt>
      <trkpt lat="43.75558" lon="7.0817">
        <ele>847.20001220703</ele>
        <time>2023-08-02T07:48:26.000Z</time>
      </trkpt>
      <trkpt lat="43.7556" lon="7.0817">
        <ele>847.59997558594</ele>
        <time>2023-08-02T07:48:27.000Z</time>
      </trkpt>
      <trkpt lat="43.75562" lon="7.08169">
        <ele>848</ele>
        <time>2023-08-02T07:48:28.000Z</time>
      </trkpt>
      <trkpt lat="43.75565" lon="7.08169">
        <ele>848.20001220703</ele>
        <time>2023-08-02T07:48:29.000Z</time>
      </trkpt>
      <trkpt lat="43.75567" lon="7.08169">
        <ele>848.40002441406</ele>
        <time>2023-08-02T07:48:30.000Z</time>
      </trkpt>
      <trkpt lat="43.75569" lon="7.08169">
        <ele>848.59997558594</ele>
        <time>2023-08-02T07:48:31.000Z</time>
      </trkpt>
      <trkpt lat="43.75571" lon="7.08169">
        <ele>848.59997558594</ele>
        <time>2023-08-02T07:48:32.000Z</time>
      </trkpt>
      <trkpt lat="43.75573" lon="7.08169">
        <ele>849</ele>
        <time>2023-08-02T07:48:33.000Z</time>
      </trkpt>
      <trkpt lat="43.75576" lon="7.08169">
        <ele>849.20001220703</ele>
        <time>2023-08-02T07:48:34.000Z</time>
      </trkpt>
      <trkpt lat="43.75578" lon="7.08169">
        <ele>849.59997558594</ele>
        <time>2023-08-02T07:48:35.000Z</time>
      </trkpt>
      <trkpt lat="43.7558" lon="7.08169">
        <ele>849.59997558594</ele>
        <time>2023-08-02T07:48:36.000Z</time>
      </trkpt>
      <trkpt lat="43.75581" lon="7.08168">
        <ele>850</ele>
        <time>2023-08-02T07:48:37.000Z</time>
      </trkpt>
      <trkpt lat="43.75583" lon="7.08167">
        <ele>850.20001220703</ele>
        <time>2023-08-02T07:48:38.000Z</time>
      </trkpt>
      <trkpt lat="43.75585" lon="7.08167">
        <ele>850.40002441406</ele>
        <time>2023-08-02T07:48:39.000Z</time>
      </trkpt>
      <trkpt lat="43.75587" lon="7.08168">
        <ele>850.40002441406</ele>
        <time>2023-08-02T07:48:40.000Z</time>
      </trkpt>
      <trkpt lat="43.75589" lon="7.08168">
        <ele>850.79998779297</ele>
        <time>2023-08-02T07:48:41.000Z</time>
      </trkpt>
      <trkpt lat="43.75591" lon="7.08167">
        <ele>851.20001220703</ele>
        <time>2023-08-02T07:48:42.000Z</time>
      </trkpt>
      <trkpt lat="43.75593" lon="7.08167">
        <ele>851.20001220703</ele>
        <time>2023-08-02T07:48:43.000Z</time>
      </trkpt>
      <trkpt lat="43.75595" lon="7.08167">
        <ele>851.59997558594</ele>
        <time>2023-08-02T07:48:44.000Z</time>
      </trkpt>
      <trkpt lat="43.75597" lon="7.08167">
        <ele>852</ele>
        <time>2023-08-02T07:48:45.000Z</time>
      </trkpt>
      <trkpt lat="43.75599" lon="7.08167">
        <ele>852</ele>
        <time>2023-08-02T07:48:46.000Z</time>
      </trkpt>
      <trkpt lat="43.75601" lon="7.08168">
        <ele>852.40002441406</ele>
        <time>2023-08-02T07:48:47.000Z</time>
      </trkpt>
      <trkpt lat="43.75604" lon="7.08168">
        <ele>852.79998779297</ele>
        <time>2023-08-02T07:48:48.000Z</time>
      </trkpt>
      <trkpt lat="43.75605" lon="7.08167">
        <ele>852.79998779297</ele>
        <time>2023-08-02T07:48:49.000Z</time>
      </trkpt>
      <trkpt lat="43.75607" lon="7.08168">
        <ele>853.20001220703</ele>
        <time>2023-08-02T07:48:50.000Z</time>
      </trkpt>
      <trkpt lat="43.75608" lon="7.08169">
        <ele>853.40002441406</ele>
        <time>2023-08-02T07:48:51.000Z</time>
      </trkpt>
      <trkpt lat="43.7561" lon="7.08169">
        <ele>853.79998779297</ele>
        <time>2023-08-02T07:48:52.000Z</time>
      </trkpt>
      <trkpt lat="43.75612" lon="7.0817">
        <ele>854</ele>
        <time>2023-08-02T07:48:53.000Z</time>
      </trkpt>
      <trkpt lat="43.75614" lon="7.08169">
        <ele>854.40002441406</ele>
        <time>2023-08-02T07:48:54.000Z</time>
      </trkpt>
      <trkpt lat="43.75616" lon="7.08168">
        <ele>854.59997558594</ele>
        <time>2023-08-02T07:48:55.000Z</time>
      </trkpt>
      <trkpt lat="43.75619" lon="7.08168">
        <ele>854.79998779297</ele>
        <time>2023-08-02T07:48:56.000Z</time>
      </trkpt>
      <trkpt lat="43.75621" lon="7.08168">
        <ele>855</ele>
        <time>2023-08-02T07:48:57.000Z</time>
      </trkpt>
      <trkpt lat="43.75623" lon="7.08168">
        <ele>855.20001220703</ele>
        <time>2023-08-02T07:48:58.000Z</time>
      </trkpt>
      <trkpt lat="43.75624" lon="7.08169">
        <ele>855.40002441406</ele>
        <time>2023-08-02T07:48:59.000Z</time>
      </trkpt>
      <trkpt lat="43.75626" lon="7.08169">
        <ele>855.79998779297</ele>
        <time>2023-08-02T07:49:00.000Z</time>
      </trkpt>
      <trkpt lat="43.75628" lon="7.08168">
        <ele>856.20001220703</ele>
        <time>2023-08-02T07:49:01.000Z</time>
      </trkpt>
      <trkpt lat="43.75631" lon="7.08167">
        <ele>856.59997558594</ele>
        <time>2023-08-02T07:49:02.000Z</time>
      </trkpt>
      <trkpt lat="43.75633" lon="7.08167">
        <ele>856.79998779297</ele>
        <time>2023-08-02T07:49:03.000Z</time>
      </trkpt>
      <trkpt lat="43.75636" lon="7.08167">
        <ele>857.20001220703</ele>
        <time>2023-08-02T07:49:04.000Z</time>
      </trkpt>
      <trkpt lat="43.75638" lon="7.08167">
        <ele>857.20001220703</ele>
        <time>2023-08-02T07:49:05.000Z</time>
      </trkpt>
      <trkpt lat="43.7564" lon="7.08167">
        <ele>857.40002441406</ele>
        <time>2023-08-02T07:49:06.000Z</time>
      </trkpt>
      <trkpt lat="43.75642" lon="7.08168">
        <ele>857.59997558594</ele>
        <time>2023-08-02T07:49:07.000Z</time>
      </trkpt>
      <trkpt lat="43.75644" lon="7.08168">
        <ele>858</ele>
        <time>2023-08-02T07:49:08.000Z</time>
      </trkpt>
      <trkpt lat="43.75646" lon="7.08168">
        <ele>858.20001220703</ele>
        <time>2023-08-02T07:49:09.000Z</time>
      </trkpt>
      <trkpt lat="43.75648" lon="7.08168">
        <ele>858.40002441406</ele>
        <time>2023-08-02T07:49:10.000Z</time>
      </trkpt>
      <trkpt lat="43.7565" lon="7.08168">
        <ele>858.59997558594</ele>
        <time>2023-08-02T07:49:11.000Z</time>
      </trkpt>
      <trkpt lat="43.75652" lon="7.08169">
        <ele>859</ele>
        <time>2023-08-02T07:49:12.000Z</time>
      </trkpt>
      <trkpt lat="43.75654" lon="7.0817">
        <ele>859.20001220703</ele>
        <time>2023-08-02T07:49:13.000Z</time>
      </trkpt>
      <trkpt lat="43.75656" lon="7.0817">
        <ele>859.40002441406</ele>
        <time>2023-08-02T07:49:14.000Z</time>
      </trkpt>
      <trkpt lat="43.75659" lon="7.0817">
        <ele>859.59997558594</ele>
        <time>2023-08-02T07:49:15.000Z</time>
      </trkpt>
      <trkpt lat="43.75661" lon="7.08169">
        <ele>859.79998779297</ele>
        <time>2023-08-02T07:49:16.000Z</time>
      </trkpt>
      <trkpt lat="43.75663" lon="7.08169">
        <ele>859.79998779297</ele>
        <time>2023-08-02T07:49:17.000Z</time>
      </trkpt>
      <trkpt lat="43.75665" lon="7.08169">
        <ele>860</ele>
        <time>2023-08-02T07:49:18.000Z</time>
      </trkpt>
      <trkpt lat="43.75667" lon="7.08169">
        <ele>860.59997558594</ele>
        <time>2023-08-02T07:49:19.000Z</time>
      </trkpt>
      <trkpt lat="43.75669" lon="7.0817">
        <ele>860.79998779297</ele>
        <time>2023-08-02T07:49:20.000Z</time>
      </trkpt>
      <trkpt lat="43.75671" lon="7.08171">
        <ele>861.20001220703</ele>
        <time>2023-08-02T07:49:21.000Z</time>
      </trkpt>
      <trkpt lat="43.75673" lon="7.08172">
        <ele>861.59997558594</ele>
        <time>2023-08-02T07:49:22.000Z</time>
      </trkpt>
      <trkpt lat="43.75676" lon="7.08171">
        <ele>861.79998779297</ele>
        <time>2023-08-02T07:49:23.000Z</time>
      </trkpt>
      <trkpt lat="43.75678" lon="7.08171">
        <ele>861.79998779297</ele>
        <time>2023-08-02T07:49:24.000Z</time>
      </trkpt>
      <trkpt lat="43.7568" lon="7.08171">
        <ele>862</ele>
        <time>2023-08-02T07:49:25.000Z</time>
      </trkpt>
      <trkpt lat="43.75682" lon="7.0817">
        <ele>862.79998779297</ele>
        <time>2023-08-02T07:49:26.000Z</time>
      </trkpt>
      <trkpt lat="43.75684" lon="7.08169">
        <ele>862.79998779297</ele>
        <time>2023-08-02T07:49:27.000Z</time>
      </trkpt>
      <trkpt lat="43.75686" lon="7.08169">
        <ele>862.79998779297</ele>
        <time>2023-08-02T07:49:28.000Z</time>
      </trkpt>
      <trkpt lat="43.75689" lon="7.08168">
        <ele>863.40002441406</ele>
        <time>2023-08-02T07:49:29.000Z</time>
      </trkpt>
      <trkpt lat="43.75691" lon="7.08167">
        <ele>863.40002441406</ele>
        <time>2023-08-02T07:49:30.000Z</time>
      </trkpt>
      <trkpt lat="43.75693" lon="7.08167">
        <ele>863.79998779297</ele>
        <time>2023-08-02T07:49:31.000Z</time>
      </trkpt>
      <trkpt lat="43.75695" lon="7.08167">
        <ele>863.79998779297</ele>
        <time>2023-08-02T07:49:32.000Z</time>
      </trkpt>
      <trkpt lat="43.75697" lon="7.08166">
        <ele>864.20001220703</ele>
        <time>2023-08-02T07:49:33.000Z</time>
      </trkpt>
      <trkpt lat="43.75699" lon="7.08165">
        <ele>864.40002441406</ele>
        <time>2023-08-02T07:49:34.000Z</time>
      </trkpt>
      <trkpt lat="43.75701" lon="7.08165">
        <ele>864.79998779297</ele>
        <time>2023-08-02T07:49:35.000Z</time>
      </trkpt>
      <trkpt lat="43.75704" lon="7.08166">
        <ele>865</ele>
        <time>2023-08-02T07:49:36.000Z</time>
      </trkpt>
      <trkpt lat="43.75706" lon="7.08166">
        <ele>865.40002441406</ele>
        <time>2023-08-02T07:49:37.000Z</time>
      </trkpt>
      <trkpt lat="43.75708" lon="7.08166">
        <ele>865.40002441406</ele>
        <time>2023-08-02T07:49:38.000Z</time>
      </trkpt>
      <trkpt lat="43.7571" lon="7.08165">
        <ele>865.79998779297</ele>
        <time>2023-08-02T07:49:39.000Z</time>
      </trkpt>
      <trkpt lat="43.75712" lon="7.08165">
        <ele>866.20001220703</ele>
        <time>2023-08-02T07:49:40.000Z</time>
      </trkpt>
      <trkpt lat="43.75714" lon="7.08165">
        <ele>866.59997558594</ele>
        <time>2023-08-02T07:49:41.000Z</time>
      </trkpt>
      <trkpt lat="43.75716" lon="7.08165">
        <ele>866.79998779297</ele>
        <time>2023-08-02T07:49:42.000Z</time>
      </trkpt>
      <trkpt lat="43.75719" lon="7.08164">
        <ele>867</ele>
        <time>2023-08-02T07:49:43.000Z</time>
      </trkpt>
      <trkpt lat="43.75721" lon="7.08164">
        <ele>867.40002441406</ele>
        <time>2023-08-02T07:49:44.000Z</time>
      </trkpt>
      <trkpt lat="43.75723" lon="7.08162">
        <ele>867.79998779297</ele>
        <time>2023-08-02T07:49:45.000Z</time>
      </trkpt>
      <trkpt lat="43.75725" lon="7.08161">
        <ele>867.79998779297</ele>
        <time>2023-08-02T07:49:46.000Z</time>
      </trkpt>
      <trkpt lat="43.75727" lon="7.0816">
        <ele>868</ele>
        <time>2023-08-02T07:49:47.000Z</time>
      </trkpt>
      <trkpt lat="43.75728" lon="7.08158">
        <ele>868.40002441406</ele>
        <time>2023-08-02T07:49:48.000Z</time>
      </trkpt>
      <trkpt lat="43.75729" lon="7.08156">
        <ele>869</ele>
        <time>2023-08-02T07:49:49.000Z</time>
      </trkpt>
      <trkpt lat="43.75728" lon="7.08154">
        <ele>869.20001220703</ele>
        <time>2023-08-02T07:49:50.000Z</time>
      </trkpt>
      <trkpt lat="43.75728" lon="7.08153">
        <ele>869.59997558594</ele>
        <time>2023-08-02T07:49:51.000Z</time>
      </trkpt>
      <trkpt lat="43.75726" lon="7.08151">
        <ele>870</ele>
        <time>2023-08-02T07:49:52.000Z</time>
      </trkpt>
      <trkpt lat="43.75725" lon="7.08149">
        <ele>870.40002441406</ele>
        <time>2023-08-02T07:49:53.000Z</time>
      </trkpt>
      <trkpt lat="43.75724" lon="7.08147">
        <ele>870.59997558594</ele>
        <time>2023-08-02T07:49:54.000Z</time>
      </trkpt>
      <trkpt lat="43.75722" lon="7.08145">
        <ele>870.59997558594</ele>
        <time>2023-08-02T07:49:55.000Z</time>
      </trkpt>
      <trkpt lat="43.75721" lon="7.08143">
        <ele>870.79998779297</ele>
        <time>2023-08-02T07:49:56.000Z</time>
      </trkpt>
      <trkpt lat="43.7572" lon="7.08142">
        <ele>871</ele>
        <time>2023-08-02T07:49:57.000Z</time>
      </trkpt>
      <trkpt lat="43.7572" lon="7.0814">
        <ele>871.40002441406</ele>
        <time>2023-08-02T07:49:58.000Z</time>
      </trkpt>
      <trkpt lat="43.75719" lon="7.08138">
        <ele>871.40002441406</ele>
        <time>2023-08-02T07:49:59.000Z</time>
      </trkpt>
      <trkpt lat="43.75718" lon="7.08136">
        <ele>871.79998779297</ele>
        <time>2023-08-02T07:50:00.000Z</time>
      </trkpt>
      <trkpt lat="43.75717" lon="7.08134">
        <ele>872</ele>
        <time>2023-08-02T07:50:01.000Z</time>
      </trkpt>
      <trkpt lat="43.75716" lon="7.08132">
        <ele>872.20001220703</ele>
        <time>2023-08-02T07:50:02.000Z</time>
      </trkpt>
      <trkpt lat="43.75714" lon="7.0813">
        <ele>872.59997558594</ele>
        <time>2023-08-02T07:50:03.000Z</time>
      </trkpt>
      <trkpt lat="43.75713" lon="7.08128">
        <ele>872.79998779297</ele>
        <time>2023-08-02T07:50:04.000Z</time>
      </trkpt>
      <trkpt lat="43.75712" lon="7.08125">
        <ele>873.20001220703</ele>
        <time>2023-08-02T07:50:05.000Z</time>
      </trkpt>
      <trkpt lat="43.75712" lon="7.08123">
        <ele>873.20001220703</ele>
        <time>2023-08-02T07:50:06.000Z</time>
      </trkpt>
      <trkpt lat="43.75711" lon="7.08121">
        <ele>873.59997558594</ele>
        <time>2023-08-02T07:50:07.000Z</time>
      </trkpt>
      <trkpt lat="43.75709" lon="7.08119">
        <ele>873.79998779297</ele>
        <time>2023-08-02T07:50:08.000Z</time>
      </trkpt>
      <trkpt lat="43.75707" lon="7.08117">
        <ele>874.20001220703</ele>
        <time>2023-08-02T07:50:09.000Z</time>
      </trkpt>
      <trkpt lat="43.75706" lon="7.08115">
        <ele>874.59997558594</ele>
        <time>2023-08-02T07:50:10.000Z</time>
      </trkpt>
      <trkpt lat="43.75705" lon="7.08112">
        <ele>874.79998779297</ele>
        <time>2023-08-02T07:50:11.000Z</time>
      </trkpt>
      <trkpt lat="43.75705" lon="7.08109">
        <ele>875</ele>
        <time>2023-08-02T07:50:12.000Z</time>
      </trkpt>
      <trkpt lat="43.75705" lon="7.08106">
        <ele>875.40002441406</ele>
        <time>2023-08-02T07:50:13.000Z</time>
      </trkpt>
      <trkpt lat="43.75708" lon="7.08105">
        <ele>875.79998779297</ele>
        <time>2023-08-02T07:50:14.000Z</time>
      </trkpt>
      <trkpt lat="43.75709" lon="7.08105">
        <ele>876</ele>
        <time>2023-08-02T07:50:15.000Z</time>
      </trkpt>
      <trkpt lat="43.75711" lon="7.08105">
        <ele>876.20001220703</ele>
        <time>2023-08-02T07:50:16.000Z</time>
      </trkpt>
      <trkpt lat="43.75713" lon="7.08105">
        <ele>876.79998779297</ele>
        <time>2023-08-02T07:50:17.000Z</time>
      </trkpt>
      <trkpt lat="43.75715" lon="7.08104">
        <ele>877</ele>
        <time>2023-08-02T07:50:18.000Z</time>
      </trkpt>
      <trkpt lat="43.75718" lon="7.08104">
        <ele>877</ele>
        <time>2023-08-02T07:50:19.000Z</time>
      </trkpt>
      <trkpt lat="43.7572" lon="7.08103">
        <ele>877.20001220703</ele>
        <time>2023-08-02T07:50:20.000Z</time>
      </trkpt>
      <trkpt lat="43.75722" lon="7.08103">
        <ele>877.20001220703</ele>
        <time>2023-08-02T07:50:21.000Z</time>
      </trkpt>
      <trkpt lat="43.75723" lon="7.08103">
        <ele>877.40002441406</ele>
        <time>2023-08-02T07:50:22.000Z</time>
      </trkpt>
      <trkpt lat="43.75725" lon="7.08104">
        <ele>877.59997558594</ele>
        <time>2023-08-02T07:50:23.000Z</time>
      </trkpt>
      <trkpt lat="43.75727" lon="7.08103">
        <ele>877.79998779297</ele>
        <time>2023-08-02T07:50:24.000Z</time>
      </trkpt>
      <trkpt lat="43.75729" lon="7.08103">
        <ele>878.20001220703</ele>
        <time>2023-08-02T07:50:25.000Z</time>
      </trkpt>
      <trkpt lat="43.75731" lon="7.08102">
        <ele>878.40002441406</ele>
        <time>2023-08-02T07:50:26.000Z</time>
      </trkpt>
      <trkpt lat="43.75733" lon="7.08102">
        <ele>878.59997558594</ele>
        <time>2023-08-02T07:50:27.000Z</time>
      </trkpt>
      <trkpt lat="43.75735" lon="7.08102">
        <ele>878.79998779297</ele>
        <time>2023-08-02T07:50:28.000Z</time>
      </trkpt>
      <trkpt lat="43.75737" lon="7.08102">
        <ele>879</ele>
        <time>2023-08-02T07:50:29.000Z</time>
      </trkpt>
      <trkpt lat="43.75739" lon="7.08102">
        <ele>879.40002441406</ele>
        <time>2023-08-02T07:50:30.000Z</time>
      </trkpt>
      <trkpt lat="43.75741" lon="7.08101">
        <ele>879.59997558594</ele>
        <time>2023-08-02T07:50:31.000Z</time>
      </trkpt>
      <trkpt lat="43.75743" lon="7.081">
        <ele>879.79998779297</ele>
        <time>2023-08-02T07:50:32.000Z</time>
      </trkpt>
      <trkpt lat="43.75744" lon="7.08099">
        <ele>880</ele>
        <time>2023-08-02T07:50:33.000Z</time>
      </trkpt>
      <trkpt lat="43.75746" lon="7.08097">
        <ele>880.40002441406</ele>
        <time>2023-08-02T07:50:34.000Z</time>
      </trkpt>
      <trkpt lat="43.75748" lon="7.08096">
        <ele>880.59997558594</ele>
        <time>2023-08-02T07:50:35.000Z</time>
      </trkpt>
      <trkpt lat="43.75749" lon="7.08095">
        <ele>881</ele>
        <time>2023-08-02T07:50:36.000Z</time>
      </trkpt>
      <trkpt lat="43.75749" lon="7.08093">
        <ele>881.20001220703</ele>
        <time>2023-08-02T07:50:37.000Z</time>
      </trkpt>
      <trkpt lat="43.7575" lon="7.0809">
        <ele>881.79998779297</ele>
        <time>2023-08-02T07:50:38.000Z</time>
      </trkpt>
      <trkpt lat="43.7575" lon="7.08088">
        <ele>882</ele>
        <time>2023-08-02T07:50:39.000Z</time>
      </trkpt>
      <trkpt lat="43.75751" lon="7.08086">
        <ele>882.59997558594</ele>
        <time>2023-08-02T07:50:40.000Z</time>
      </trkpt>
      <trkpt lat="43.75752" lon="7.08085">
        <ele>883</ele>
        <time>2023-08-02T07:50:41.000Z</time>
      </trkpt>
      <trkpt lat="43.75753" lon="7.08084">
        <ele>883.40002441406</ele>
        <time>2023-08-02T07:50:42.000Z</time>
      </trkpt>
      <trkpt lat="43.75752" lon="7.08084">
        <ele>883.79998779297</ele>
        <time>2023-08-02T07:50:43.000Z</time>
      </trkpt>
      <trkpt lat="43.75752" lon="7.08085">
        <ele>884.40002441406</ele>
        <time>2023-08-02T07:50:44.000Z</time>
      </trkpt>
      <trkpt lat="43.75752" lon="7.08085">
        <ele>884.59997558594</ele>
        <time>2023-08-02T07:50:45.000Z</time>
      </trkpt>
      <trkpt lat="43.75752" lon="7.08085">
        <ele>884.59997558594</ele>
        <time>2023-08-02T07:50:46.000Z</time>
      </trkpt>
      <trkpt lat="43.75752" lon="7.08084">
        <ele>884.79998779297</ele>
        <time>2023-08-02T07:50:47.000Z</time>
      </trkpt>
      <trkpt lat="43.75753" lon="7.08083">
        <ele>885</ele>
        <time>2023-08-02T07:50:48.000Z</time>
      </trkpt>
      <trkpt lat="43.75753" lon="7.08084">
        <ele>885.20001220703</ele>
        <time>2023-08-02T07:50:49.000Z</time>
      </trkpt>
      <trkpt lat="43.75754" lon="7.08084">
        <ele>885.20001220703</ele>
        <time>2023-08-02T07:50:50.000Z</time>
      </trkpt>
      <trkpt lat="43.75754" lon="7.08083">
        <ele>885.40002441406</ele>
        <time>2023-08-02T07:50:51.000Z</time>
      </trkpt>
      <trkpt lat="43.75754" lon="7.08084">
        <ele>885.40002441406</ele>
        <time>2023-08-02T07:50:52.000Z</time>
      </trkpt>
      <trkpt lat="43.75754" lon="7.08084">
        <ele>885.59997558594</ele>
        <time>2023-08-02T07:50:53.000Z</time>
      </trkpt>
      <trkpt lat="43.75754" lon="7.08084">
        <ele>885.59997558594</ele>
        <time>2023-08-02T07:50:54.000Z</time>
      </trkpt>
      <trkpt lat="43.75754" lon="7.08084">
        <ele>885.59997558594</ele>
        <time>2023-08-02T07:50:55.000Z</time>
      </trkpt>
      <trkpt lat="43.75754" lon="7.08084">
        <ele>885.59997558594</ele>
        <time>2023-08-02T07:50:56.000Z</time>
      </trkpt>
      <trkpt lat="43.75754" lon="7.08084">
        <ele>885.59997558594</ele>
        <time>2023-08-02T07:50:57.000Z</time>
      </trkpt>
      <trkpt lat="43.75754" lon="7.08084">
        <ele>885.79998779297</ele>
        <time>2023-08-02T07:50:58.000Z</time>
      </trkpt>
      <trkpt lat="43.75754" lon="7.08084">
        <ele>885.79998779297</ele>
        <time>2023-08-02T07:50:59.000Z</time>
      </trkpt>
      <trkpt lat="43.75754" lon="7.08084">
        <ele>885.79998779297</ele>
        <time>2023-08-02T07:51:00.000Z</time>
      </trkpt>
      <trkpt lat="43.75754" lon="7.08084">
        <ele>885.79998779297</ele>
        <time>2023-08-02T07:51:01.000Z</time>
      </trkpt>
      <trkpt lat="43.75754" lon="7.08084">
        <ele>885.79998779297</ele>
        <time>2023-08-02T07:51:02.000Z</time>
      </trkpt>
      <trkpt lat="43.75754" lon="7.08084">
        <ele>885.79998779297</ele>
        <time>2023-08-02T07:51:03.000Z</time>
      </trkpt>
      <trkpt lat="43.75754" lon="7.08084">
        <ele>886</ele>
        <time>2023-08-02T07:51:04.000Z</time>
      </trkpt>
      <trkpt lat="43.75754" lon="7.08084">
        <ele>886</ele>
        <time>2023-08-02T07:51:05.000Z</time>
      </trkpt>
      <trkpt lat="43.75754" lon="7.08084">
        <ele>886</ele>
        <time>2023-08-02T07:51:06.000Z</time>
      </trkpt>
      <trkpt lat="43.75754" lon="7.08084">
        <ele>886</ele>
        <time>2023-08-02T07:51:07.000Z</time>
      </trkpt>
      <trkpt lat="43.75754" lon="7.08085">
        <ele>886</ele>
        <time>2023-08-02T07:51:08.000Z</time>
      </trkpt>
      <trkpt lat="43.75754" lon="7.08084">
        <ele>886</ele>
        <time>2023-08-02T07:51:09.000Z</time>
      </trkpt>
      <trkpt lat="43.75754" lon="7.08085">
        <ele>885.79998779297</ele>
        <time>2023-08-02T07:51:10.000Z</time>
      </trkpt>
      <trkpt lat="43.75754" lon="7.08084">
        <ele>885.79998779297</ele>
        <time>2023-08-02T07:51:11.000Z</time>
      </trkpt>
      <trkpt lat="43.75754" lon="7.08085">
        <ele>885.79998779297</ele>
        <time>2023-08-02T07:51:12.000Z</time>
      </trkpt>
      <trkpt lat="43.75754" lon="7.08085">
        <ele>885.79998779297</ele>
        <time>2023-08-02T07:51:13.000Z</time>
      </trkpt>
      <trkpt lat="43.75754" lon="7.08085">
        <ele>885.79998779297</ele>
        <time>2023-08-02T07:51:14.000Z</time>
      </trkpt>
      <trkpt lat="43.75754" lon="7.08085">
        <ele>885.79998779297</ele>
        <time>2023-08-02T07:51:15.000Z</time>
      </trkpt>
      <trkpt lat="43.75754" lon="7.08085">
        <ele>885.79998779297</ele>
        <time>2023-08-02T07:51:16.000Z</time>
      </trkpt>
      <trkpt lat="43.75754" lon="7.08085">
        <ele>885.79998779297</ele>
        <time>2023-08-02T07:51:17.000Z</time>
      </trkpt>
      <trkpt lat="43.75754" lon="7.08085">
        <ele>885.79998779297</ele>
        <time>2023-08-02T07:51:18.000Z</time>
      </trkpt>
      <trkpt lat="43.75754" lon="7.08084">
        <ele>885.79998779297</ele>
        <time>2023-08-02T07:51:19.000Z</time>
      </trkpt>
      <trkpt lat="43.75754" lon="7.08084">
        <ele>885.79998779297</ele>
        <time>2023-08-02T07:51:20.000Z</time>
      </trkpt>
      <trkpt lat="43.75754" lon="7.08084">
        <ele>886</ele>
        <time>2023-08-02T07:51:21.000Z</time>
      </trkpt>
      <trkpt lat="43.75754" lon="7.08084">
        <ele>886</ele>
        <time>2023-08-02T07:51:22.000Z</time>
      </trkpt>
      <trkpt lat="43.75754" lon="7.08084">
        <ele>886</ele>
        <time>2023-08-02T07:51:23.000Z</time>
      </trkpt>
      <trkpt lat="43.75754" lon="7.08084">
        <ele>886</ele>
        <time>2023-08-02T07:51:24.000Z</time>
      </trkpt>
      <trkpt lat="43.75754" lon="7.08084">
        <ele>886</ele>
        <time>2023-08-02T07:51:25.000Z</time>
      </trkpt>
      <trkpt lat="43.75754" lon="7.08084">
        <ele>886.20001220703</ele>
        <time>2023-08-02T07:51:26.000Z</time>
      </trkpt>
      <trkpt lat="43.75754" lon="7.08084">
        <ele>886.20001220703</ele>
        <time>2023-08-02T07:51:27.000Z</time>
      </trkpt>
      <trkpt lat="43.75755" lon="7.08084">
        <ele>886.20001220703</ele>
        <time>2023-08-02T07:51:28.000Z</time>
      </trkpt>
      <trkpt lat="43.75755" lon="7.08084">
        <ele>886.20001220703</ele>
        <time>2023-08-02T07:51:29.000Z</time>
      </trkpt>
      <trkpt lat="43.75755" lon="7.08084">
        <ele>886.20001220703</ele>
        <time>2023-08-02T07:51:30.000Z</time>
      </trkpt>
      <trkpt lat="43.75755" lon="7.08084">
        <ele>886.20001220703</ele>
        <time>2023-08-02T07:51:31.000Z</time>
      </trkpt>
      <trkpt lat="43.75754" lon="7.08084">
        <ele>886.20001220703</ele>
        <time>2023-08-02T07:51:32.000Z</time>
      </trkpt>
      <trkpt lat="43.75755" lon="7.08084">
        <ele>886.20001220703</ele>
        <time>2023-08-02T07:51:33.000Z</time>
      </trkpt>
      <trkpt lat="43.75755" lon="7.08084">
        <ele>886.20001220703</ele>
        <time>2023-08-02T07:51:34.000Z</time>
      </trkpt>
      <trkpt lat="43.75755" lon="7.08084">
        <ele>886.20001220703</ele>
        <time>2023-08-02T07:51:35.000Z</time>
      </trkpt>
      <trkpt lat="43.75755" lon="7.08084">
        <ele>886.20001220703</ele>
        <time>2023-08-02T07:51:36.000Z</time>
      </trkpt>
      <trkpt lat="43.75755" lon="7.08084">
        <ele>886.20001220703</ele>
        <time>2023-08-02T07:51:37.000Z</time>
      </trkpt>
      <trkpt lat="43.75755" lon="7.08084">
        <ele>886.20001220703</ele>
        <time>2023-08-02T07:51:38.000Z</time>
      </trkpt>
      <trkpt lat="43.75755" lon="7.08084">
        <ele>886.20001220703</ele>
        <time>2023-08-02T07:51:39.000Z</time>
      </trkpt>
      <trkpt lat="43.75755" lon="7.08084">
        <ele>886</ele>
        <time>2023-08-02T07:51:40.000Z</time>
      </trkpt>
      <trkpt lat="43.75755" lon="7.08084">
        <ele>886.20001220703</ele>
        <time>2023-08-02T07:51:41.000Z</time>
      </trkpt>
      <trkpt lat="43.75755" lon="7.08084">
        <ele>886.20001220703</ele>
        <time>2023-08-02T07:51:42.000Z</time>
      </trkpt>
      <trkpt lat="43.75755" lon="7.08084">
        <ele>886</ele>
        <time>2023-08-02T07:51:43.000Z</time>
      </trkpt>
      <trkpt lat="43.75755" lon="7.08084">
        <ele>886</ele>
        <time>2023-08-02T07:51:44.000Z</time>
      </trkpt>
      <trkpt lat="43.75755" lon="7.08084">
        <ele>886</ele>
        <time>2023-08-02T07:51:45.000Z</time>
      </trkpt>
      <trkpt lat="43.75756" lon="7.08084">
        <ele>886</ele>
        <time>2023-08-02T07:51:46.000Z</time>
      </trkpt>
      <trkpt lat="43.75756" lon="7.08083">
        <ele>886</ele>
        <time>2023-08-02T07:51:47.000Z</time>
      </trkpt>
      <trkpt lat="43.75756" lon="7.08082">
        <ele>886</ele>
        <time>2023-08-02T07:51:48.000Z</time>
      </trkpt>
      <trkpt lat="43.75756" lon="7.08082">
        <ele>886</ele>
        <time>2023-08-02T07:51:49.000Z</time>
      </trkpt>
      <trkpt lat="43.75756" lon="7.08082">
        <ele>886</ele>
        <time>2023-08-02T07:51:50.000Z</time>
      </trkpt>
      <trkpt lat="43.75756" lon="7.08082">
        <ele>886</ele>
        <time>2023-08-02T07:51:51.000Z</time>
      </trkpt>
      <trkpt lat="43.75755" lon="7.08082">
        <ele>886</ele>
        <time>2023-08-02T07:51:52.000Z</time>
      </trkpt>
      <trkpt lat="43.75755" lon="7.08081">
        <ele>886</ele>
        <time>2023-08-02T07:51:53.000Z</time>
      </trkpt>
      <trkpt lat="43.75755" lon="7.08081">
        <ele>886</ele>
        <time>2023-08-02T07:51:54.000Z</time>
      </trkpt>
      <trkpt lat="43.75755" lon="7.08081">
        <ele>886</ele>
        <time>2023-08-02T07:51:55.000Z</time>
      </trkpt>
      <trkpt lat="43.75755" lon="7.08082">
        <ele>886</ele>
        <time>2023-08-02T07:51:56.000Z</time>
      </trkpt>
      <trkpt lat="43.75755" lon="7.08082">
        <ele>886</ele>
        <time>2023-08-02T07:51:57.000Z</time>
      </trkpt>
      <trkpt lat="43.75755" lon="7.08082">
        <ele>886</ele>
        <time>2023-08-02T07:51:58.000Z</time>
      </trkpt>
      <trkpt lat="43.75755" lon="7.08081">
        <ele>886</ele>
        <time>2023-08-02T07:51:59.000Z</time>
      </trkpt>
      <trkpt lat="43.75755" lon="7.08081">
        <ele>886</ele>
        <time>2023-08-02T07:52:00.000Z</time>
      </trkpt>
      <trkpt lat="43.75755" lon="7.08082">
        <ele>886</ele>
        <time>2023-08-02T07:52:01.000Z</time>
      </trkpt>
      <trkpt lat="43.75755" lon="7.08081">
        <ele>886</ele>
        <time>2023-08-02T07:52:02.000Z</time>
      </trkpt>
      <trkpt lat="43.75755" lon="7.08082">
        <ele>886</ele>
        <time>2023-08-02T07:52:03.000Z</time>
      </trkpt>
      <trkpt lat="43.75755" lon="7.08081">
        <ele>886</ele>
        <time>2023-08-02T07:52:04.000Z</time>
      </trkpt>
      <trkpt lat="43.75755" lon="7.08081">
        <ele>886</ele>
        <time>2023-08-02T07:52:05.000Z</time>
      </trkpt>
      <trkpt lat="43.75755" lon="7.08082">
        <ele>886</ele>
        <time>2023-08-02T07:52:06.000Z</time>
      </trkpt>
      <trkpt lat="43.75755" lon="7.08082">
        <ele>886.20001220703</ele>
        <time>2023-08-02T07:52:07.000Z</time>
      </trkpt>
      <trkpt lat="43.75754" lon="7.08082">
        <ele>886.20001220703</ele>
        <time>2023-08-02T07:52:08.000Z</time>
      </trkpt>
      <trkpt lat="43.75753" lon="7.08082">
        <ele>886.20001220703</ele>
        <time>2023-08-02T07:52:09.000Z</time>
      </trkpt>
      <trkpt lat="43.75753" lon="7.08082">
        <ele>886.20001220703</ele>
        <time>2023-08-02T07:52:10.000Z</time>
      </trkpt>
      <trkpt lat="43.75753" lon="7.08082">
        <ele>886.20001220703</ele>
        <time>2023-08-02T07:52:11.000Z</time>
      </trkpt>
      <trkpt lat="43.75753" lon="7.08082">
        <ele>886.40002441406</ele>
        <time>2023-08-02T07:52:12.000Z</time>
      </trkpt>
      <trkpt lat="43.75753" lon="7.08082">
        <ele>886.40002441406</ele>
        <time>2023-08-02T07:52:13.000Z</time>
      </trkpt>
      <trkpt lat="43.75753" lon="7.08082">
        <ele>886.20001220703</ele>
        <time>2023-08-02T07:52:14.000Z</time>
      </trkpt>
      <trkpt lat="43.75753" lon="7.08082">
        <ele>886.20001220703</ele>
        <time>2023-08-02T07:52:15.000Z</time>
      </trkpt>
      <trkpt lat="43.75753" lon="7.08082">
        <ele>886.20001220703</ele>
        <time>2023-08-02T07:52:16.000Z</time>
      </trkpt>
      <trkpt lat="43.75753" lon="7.08082">
        <ele>886.20001220703</ele>
        <time>2023-08-02T07:52:17.000Z</time>
      </trkpt>
      <trkpt lat="43.75753" lon="7.08082">
        <ele>886.20001220703</ele>
        <time>2023-08-02T07:52:18.000Z</time>
      </trkpt>
      <trkpt lat="43.75753" lon="7.08082">
        <ele>886.20001220703</ele>
        <time>2023-08-02T07:52:19.000Z</time>
      </trkpt>
      <trkpt lat="43.75753" lon="7.08083">
        <ele>886.20001220703</ele>
        <time>2023-08-02T07:52:20.000Z</time>
      </trkpt>
      <trkpt lat="43.75753" lon="7.08083">
        <ele>886.20001220703</ele>
        <time>2023-08-02T07:52:21.000Z</time>
      </trkpt>
      <trkpt lat="43.75753" lon="7.08083">
        <ele>886.40002441406</ele>
        <time>2023-08-02T07:52:22.000Z</time>
      </trkpt>
      <trkpt lat="43.75753" lon="7.08083">
        <ele>886.40002441406</ele>
        <time>2023-08-02T07:52:23.000Z</time>
      </trkpt>
      <trkpt lat="43.75753" lon="7.08083">
        <ele>886.40002441406</ele>
        <time>2023-08-02T07:52:24.000Z</time>
      </trkpt>
      <trkpt lat="43.75753" lon="7.08083">
        <ele>886.59997558594</ele>
        <time>2023-08-02T07:52:25.000Z</time>
      </trkpt>
      <trkpt lat="43.75753" lon="7.08083">
        <ele>886.59997558594</ele>
        <time>2023-08-02T07:52:26.000Z</time>
      </trkpt>
      <trkpt lat="43.75753" lon="7.08083">
        <ele>886.59997558594</ele>
        <time>2023-08-02T07:52:27.000Z</time>
      </trkpt>
      <trkpt lat="43.75753" lon="7.08083">
        <ele>886.79998779297</ele>
        <time>2023-08-02T07:52:28.000Z</time>
      </trkpt>
      <trkpt lat="43.75753" lon="7.08083">
        <ele>886.79998779297</ele>
        <time>2023-08-02T07:52:29.000Z</time>
      </trkpt>
      <trkpt lat="43.75753" lon="7.08083">
        <ele>886.79998779297</ele>
        <time>2023-08-02T07:52:30.000Z</time>
      </trkpt>
      <trkpt lat="43.75753" lon="7.08083">
        <ele>886.79998779297</ele>
        <time>2023-08-02T07:52:31.000Z</time>
      </trkpt>
      <trkpt lat="43.75752" lon="7.08081">
        <ele>886.79998779297</ele>
        <time>2023-08-02T07:52:32.000Z</time>
      </trkpt>
      <trkpt lat="43.75751" lon="7.08081">
        <ele>886.79998779297</ele>
        <time>2023-08-02T07:52:33.000Z</time>
      </trkpt>
      <trkpt lat="43.7575" lon="7.0808">
        <ele>886.79998779297</ele>
        <time>2023-08-02T07:52:34.000Z</time>
      </trkpt>
      <trkpt lat="43.75749" lon="7.0808">
        <ele>886.79998779297</ele>
        <time>2023-08-02T07:52:35.000Z</time>
      </trkpt>
      <trkpt lat="43.75749" lon="7.0808">
        <ele>886.79998779297</ele>
        <time>2023-08-02T07:52:36.000Z</time>
      </trkpt>
      <trkpt lat="43.75748" lon="7.0808">
        <ele>886.79998779297</ele>
        <time>2023-08-02T07:52:37.000Z</time>
      </trkpt>
      <trkpt lat="43.75748" lon="7.08079">
        <ele>886.79998779297</ele>
        <time>2023-08-02T07:52:38.000Z</time>
      </trkpt>
      <trkpt lat="43.75747" lon="7.08078">
        <ele>886.79998779297</ele>
        <time>2023-08-02T07:52:39.000Z</time>
      </trkpt>
      <trkpt lat="43.75747" lon="7.08077">
        <ele>887</ele>
        <time>2023-08-02T07:52:40.000Z</time>
      </trkpt>
      <trkpt lat="43.75746" lon="7.08076">
        <ele>887.20001220703</ele>
        <time>2023-08-02T07:52:41.000Z</time>
      </trkpt>
      <trkpt lat="43.75746" lon="7.08075">
        <ele>887.40002441406</ele>
        <time>2023-08-02T07:52:42.000Z</time>
      </trkpt>
      <trkpt lat="43.75745" lon="7.08075">
        <ele>887.59997558594</ele>
        <time>2023-08-02T07:52:43.000Z</time>
      </trkpt>
      <trkpt lat="43.75744" lon="7.08075">
        <ele>887.59997558594</ele>
        <time>2023-08-02T07:52:44.000Z</time>
      </trkpt>
      <trkpt lat="43.75744" lon="7.08075">
        <ele>887.59997558594</ele>
        <time>2023-08-02T07:52:45.000Z</time>
      </trkpt>
      <trkpt lat="43.75743" lon="7.08074">
        <ele>887.59997558594</ele>
        <time>2023-08-02T07:52:46.000Z</time>
      </trkpt>
      <trkpt lat="43.75742" lon="7.08074">
        <ele>887.59997558594</ele>
        <time>2023-08-02T07:52:47.000Z</time>
      </trkpt>
      <trkpt lat="43.75742" lon="7.08073">
        <ele>887.59997558594</ele>
        <time>2023-08-02T07:52:48.000Z</time>
      </trkpt>
      <trkpt lat="43.75741" lon="7.08073">
        <ele>887.59997558594</ele>
        <time>2023-08-02T07:52:49.000Z</time>
      </trkpt>
      <trkpt lat="43.75741" lon="7.08072">
        <ele>887.59997558594</ele>
        <time>2023-08-02T07:52:50.000Z</time>
      </trkpt>
      <trkpt lat="43.75741" lon="7.08072">
        <ele>887.59997558594</ele>
        <time>2023-08-02T07:52:51.000Z</time>
      </trkpt>
      <trkpt lat="43.75741" lon="7.08072">
        <ele>887.79998779297</ele>
        <time>2023-08-02T07:52:52.000Z</time>
      </trkpt>
      <trkpt lat="43.75741" lon="7.08072">
        <ele>887.79998779297</ele>
        <time>2023-08-02T07:52:53.000Z</time>
      </trkpt>
      <trkpt lat="43.75741" lon="7.08072">
        <ele>887.79998779297</ele>
        <time>2023-08-02T07:52:54.000Z</time>
      </trkpt>
      <trkpt lat="43.75741" lon="7.08072">
        <ele>887.79998779297</ele>
        <time>2023-08-02T07:52:55.000Z</time>
      </trkpt>
      <trkpt lat="43.75741" lon="7.08072">
        <ele>887.79998779297</ele>
        <time>2023-08-02T07:52:56.000Z</time>
      </trkpt>
      <trkpt lat="43.75741" lon="7.08072">
        <ele>887.79998779297</ele>
        <time>2023-08-02T07:52:57.000Z</time>
      </trkpt>
      <trkpt lat="43.75741" lon="7.08072">
        <ele>887.79998779297</ele>
        <time>2023-08-02T07:52:58.000Z</time>
      </trkpt>
      <trkpt lat="43.75741" lon="7.08072">
        <ele>887.79998779297</ele>
        <time>2023-08-02T07:52:59.000Z</time>
      </trkpt>
      <trkpt lat="43.75741" lon="7.08072">
        <ele>887.79998779297</ele>
        <time>2023-08-02T07:53:00.000Z</time>
      </trkpt>
      <trkpt lat="43.75741" lon="7.08072">
        <ele>887.79998779297</ele>
        <time>2023-08-02T07:53:01.000Z</time>
      </trkpt>
      <trkpt lat="43.75741" lon="7.08072">
        <ele>887.79998779297</ele>
        <time>2023-08-02T07:53:02.000Z</time>
      </trkpt>
      <trkpt lat="43.75741" lon="7.08072">
        <ele>887.79998779297</ele>
        <time>2023-08-02T07:53:03.000Z</time>
      </trkpt>
      <trkpt lat="43.75741" lon="7.08072">
        <ele>887.79998779297</ele>
        <time>2023-08-02T07:53:04.000Z</time>
      </trkpt>
      <trkpt lat="43.75741" lon="7.08072">
        <ele>887.79998779297</ele>
        <time>2023-08-02T07:53:05.000Z</time>
      </trkpt>
      <trkpt lat="43.75741" lon="7.08072">
        <ele>887.79998779297</ele>
        <time>2023-08-02T07:53:06.000Z</time>
      </trkpt>
      <trkpt lat="43.75741" lon="7.08072">
        <ele>887.79998779297</ele>
        <time>2023-08-02T07:53:07.000Z</time>
      </trkpt>
      <trkpt lat="43.75741" lon="7.08072">
        <ele>887.79998779297</ele>
        <time>2023-08-02T07:53:08.000Z</time>
      </trkpt>
      <trkpt lat="43.75741" lon="7.08072">
        <ele>887.79998779297</ele>
        <time>2023-08-02T07:53:09.000Z</time>
      </trkpt>
      <trkpt lat="43.75741" lon="7.08072">
        <ele>887.79998779297</ele>
        <time>2023-08-02T07:53:10.000Z</time>
      </trkpt>
      <trkpt lat="43.75741" lon="7.08072">
        <ele>887.79998779297</ele>
        <time>2023-08-02T07:53:11.000Z</time>
      </trkpt>
      <trkpt lat="43.75741" lon="7.08072">
        <ele>887.79998779297</ele>
        <time>2023-08-02T07:53:12.000Z</time>
      </trkpt>
      <trkpt lat="43.75741" lon="7.08072">
        <ele>887.79998779297</ele>
        <time>2023-08-02T07:53:13.000Z</time>
      </trkpt>
      <trkpt lat="43.75741" lon="7.08072">
        <ele>887.79998779297</ele>
        <time>2023-08-02T07:53:14.000Z</time>
      </trkpt>
      <trkpt lat="43.75741" lon="7.08072">
        <ele>887.79998779297</ele>
        <time>2023-08-02T07:53:15.000Z</time>
      </trkpt>
      <trkpt lat="43.75741" lon="7.08072">
        <ele>887.79998779297</ele>
        <time>2023-08-02T07:53:16.000Z</time>
      </trkpt>
      <trkpt lat="43.75741" lon="7.08072">
        <ele>887.79998779297</ele>
        <time>2023-08-02T07:53:17.000Z</time>
      </trkpt>
      <trkpt lat="43.75741" lon="7.08072">
        <ele>887.79998779297</ele>
        <time>2023-08-02T07:53:18.000Z</time>
      </trkpt>
      <trkpt lat="43.75741" lon="7.08072">
        <ele>887.79998779297</ele>
        <time>2023-08-02T07:53:19.000Z</time>
      </trkpt>
      <trkpt lat="43.75741" lon="7.08072">
        <ele>887.79998779297</ele>
        <time>2023-08-02T07:53:20.000Z</time>
      </trkpt>
      <trkpt lat="43.75741" lon="7.08072">
        <ele>887.79998779297</ele>
        <time>2023-08-02T07:53:21.000Z</time>
      </trkpt>
      <trkpt lat="43.75741" lon="7.08072">
        <ele>887.79998779297</ele>
        <time>2023-08-02T07:53:22.000Z</time>
      </trkpt>
      <trkpt lat="43.75741" lon="7.08072">
        <ele>887.79998779297</ele>
        <time>2023-08-02T07:53:23.000Z</time>
      </trkpt>
      <trkpt lat="43.75741" lon="7.08072">
        <ele>887.79998779297</ele>
        <time>2023-08-02T07:53:24.000Z</time>
      </trkpt>
      <trkpt lat="43.75741" lon="7.08072">
        <ele>887.79998779297</ele>
        <time>2023-08-02T07:53:25.000Z</time>
      </trkpt>
      <trkpt lat="43.75741" lon="7.08072">
        <ele>887.79998779297</ele>
        <time>2023-08-02T07:53:26.000Z</time>
      </trkpt>
      <trkpt lat="43.75741" lon="7.08072">
        <ele>887.79998779297</ele>
        <time>2023-08-02T07:53:27.000Z</time>
      </trkpt>
      <trkpt lat="43.75741" lon="7.08072">
        <ele>887.79998779297</ele>
        <time>2023-08-02T07:53:28.000Z</time>
      </trkpt>
      <trkpt lat="43.75741" lon="7.08072">
        <ele>887.79998779297</ele>
        <time>2023-08-02T07:53:29.000Z</time>
      </trkpt>
      <trkpt lat="43.75741" lon="7.08072">
        <ele>888</ele>
        <time>2023-08-02T07:53:30.000Z</time>
      </trkpt>
      <trkpt lat="43.75741" lon="7.08072">
        <ele>888</ele>
        <time>2023-08-02T07:53:31.000Z</time>
      </trkpt>
      <trkpt lat="43.75741" lon="7.08072">
        <ele>888</ele>
        <time>2023-08-02T07:53:32.000Z</time>
      </trkpt>
      <trkpt lat="43.75741" lon="7.08072">
        <ele>888</ele>
        <time>2023-08-02T07:53:33.000Z</time>
      </trkpt>
      <trkpt lat="43.75741" lon="7.08072">
        <ele>888</ele>
        <time>2023-08-02T07:53:34.000Z</time>
      </trkpt>
      <trkpt lat="43.75741" lon="7.08072">
        <ele>888</ele>
        <time>2023-08-02T07:53:35.000Z</time>
      </trkpt>
      <trkpt lat="43.75741" lon="7.08072">
        <ele>888</ele>
        <time>2023-08-02T07:53:36.000Z</time>
      </trkpt>
      <trkpt lat="43.75741" lon="7.08072">
        <ele>888</ele>
        <time>2023-08-02T07:53:37.000Z</time>
      </trkpt>
      <trkpt lat="43.75741" lon="7.08072">
        <ele>888</ele>
        <time>2023-08-02T07:53:38.000Z</time>
      </trkpt>
      <trkpt lat="43.75741" lon="7.08072">
        <ele>888</ele>
        <time>2023-08-02T07:53:39.000Z</time>
      </trkpt>
      <trkpt lat="43.75741" lon="7.08072">
        <ele>888</ele>
        <time>2023-08-02T07:53:40.000Z</time>
      </trkpt>
      <trkpt lat="43.75741" lon="7.08072">
        <ele>888</ele>
        <time>2023-08-02T07:53:41.000Z</time>
      </trkpt>
      <trkpt lat="43.75741" lon="7.08072">
        <ele>888</ele>
        <time>2023-08-02T07:53:42.000Z</time>
      </trkpt>
      <trkpt lat="43.75741" lon="7.08072">
        <ele>888</ele>
        <time>2023-08-02T07:53:43.000Z</time>
      </trkpt>
      <trkpt lat="43.75741" lon="7.08072">
        <ele>888</ele>
        <time>2023-08-02T07:53:44.000Z</time>
      </trkpt>
      <trkpt lat="43.75741" lon="7.08072">
        <ele>888</ele>
        <time>2023-08-02T07:53:45.000Z</time>
      </trkpt>
      <trkpt lat="43.75741" lon="7.08072">
        <ele>888.20001220703</ele>
        <time>2023-08-02T07:53:46.000Z</time>
      </trkpt>
      <trkpt lat="43.75741" lon="7.08072">
        <ele>888.20001220703</ele>
        <time>2023-08-02T07:53:47.000Z</time>
      </trkpt>
      <trkpt lat="43.75741" lon="7.08072">
        <ele>888.20001220703</ele>
        <time>2023-08-02T07:53:48.000Z</time>
      </trkpt>
      <trkpt lat="43.75741" lon="7.08072">
        <ele>888.20001220703</ele>
        <time>2023-08-02T07:53:49.000Z</time>
      </trkpt>
      <trkpt lat="43.75741" lon="7.08072">
        <ele>888.20001220703</ele>
        <time>2023-08-02T07:53:50.000Z</time>
      </trkpt>
      <trkpt lat="43.75741" lon="7.08072">
        <ele>888.20001220703</ele>
        <time>2023-08-02T07:53:51.000Z</time>
      </trkpt>
      <trkpt lat="43.75741" lon="7.08072">
        <ele>888.20001220703</ele>
        <time>2023-08-02T07:53:52.000Z</time>
      </trkpt>
      <trkpt lat="43.75741" lon="7.08072">
        <ele>888</ele>
        <time>2023-08-02T07:53:53.000Z</time>
      </trkpt>
      <trkpt lat="43.75741" lon="7.08072">
        <ele>888</ele>
        <time>2023-08-02T07:53:54.000Z</time>
      </trkpt>
      <trkpt lat="43.75741" lon="7.08072">
        <ele>888</ele>
        <time>2023-08-02T07:53:55.000Z</time>
      </trkpt>
      <trkpt lat="43.75741" lon="7.08072">
        <ele>888</ele>
        <time>2023-08-02T07:53:56.000Z</time>
      </trkpt>
      <trkpt lat="43.75741" lon="7.08072">
        <ele>888</ele>
        <time>2023-08-02T07:53:57.000Z</time>
      </trkpt>
      <trkpt lat="43.75741" lon="7.08072">
        <ele>888</ele>
        <time>2023-08-02T07:53:58.000Z</time>
      </trkpt>
      <trkpt lat="43.75741" lon="7.08072">
        <ele>888</ele>
        <time>2023-08-02T07:53:59.000Z</time>
      </trkpt>
      <trkpt lat="43.75741" lon="7.08072">
        <ele>888</ele>
        <time>2023-08-02T07:54:00.000Z</time>
      </trkpt>
      <trkpt lat="43.75741" lon="7.08072">
        <ele>888</ele>
        <time>2023-08-02T07:54:01.000Z</time>
      </trkpt>
      <trkpt lat="43.75741" lon="7.08072">
        <ele>888</ele>
        <time>2023-08-02T07:54:02.000Z</time>
      </trkpt>
      <trkpt lat="43.75741" lon="7.08072">
        <ele>888</ele>
        <time>2023-08-02T07:54:03.000Z</time>
      </trkpt>
      <trkpt lat="43.75741" lon="7.08072">
        <ele>888</ele>
        <time>2023-08-02T07:54:04.000Z</time>
      </trkpt>
      <trkpt lat="43.75741" lon="7.08072">
        <ele>888</ele>
        <time>2023-08-02T07:54:05.000Z</time>
      </trkpt>
      <trkpt lat="43.75741" lon="7.08072">
        <ele>888</ele>
        <time>2023-08-02T07:54:06.000Z</time>
      </trkpt>
      <trkpt lat="43.75741" lon="7.08072">
        <ele>888</ele>
        <time>2023-08-02T07:54:07.000Z</time>
      </trkpt>
      <trkpt lat="43.75741" lon="7.08072">
        <ele>888</ele>
        <time>2023-08-02T07:54:08.000Z</time>
      </trkpt>
      <trkpt lat="43.75741" lon="7.08072">
        <ele>888</ele>
        <time>2023-08-02T07:54:09.000Z</time>
      </trkpt>
      <trkpt lat="43.75742" lon="7.08072">
        <ele>888</ele>
        <time>2023-08-02T07:54:10.000Z</time>
      </trkpt>
      <trkpt lat="43.75742" lon="7.08072">
        <ele>888</ele>
        <time>2023-08-02T07:54:11.000Z</time>
      </trkpt>
      <trkpt lat="43.75742" lon="7.08072">
        <ele>888</ele>
        <time>2023-08-02T07:54:12.000Z</time>
      </trkpt>
      <trkpt lat="43.75742" lon="7.08072">
        <ele>888</ele>
        <time>2023-08-02T07:54:13.000Z</time>
      </trkpt>
      <trkpt lat="43.75742" lon="7.08072">
        <ele>888</ele>
        <time>2023-08-02T07:54:14.000Z</time>
      </trkpt>
      <trkpt lat="43.75742" lon="7.08072">
        <ele>888</ele>
        <time>2023-08-02T07:54:15.000Z</time>
      </trkpt>
      <trkpt lat="43.75742" lon="7.08072">
        <ele>888</ele>
        <time>2023-08-02T07:54:16.000Z</time>
      </trkpt>
      <trkpt lat="43.75742" lon="7.08072">
        <ele>888</ele>
        <time>2023-08-02T07:54:17.000Z</time>
      </trkpt>
      <trkpt lat="43.75742" lon="7.08072">
        <ele>888</ele>
        <time>2023-08-02T07:54:18.000Z</time>
      </trkpt>
      <trkpt lat="43.75742" lon="7.08072">
        <ele>888</ele>
        <time>2023-08-02T07:54:19.000Z</time>
      </trkpt>
      <trkpt lat="43.75742" lon="7.08072">
        <ele>888</ele>
        <time>2023-08-02T07:54:20.000Z</time>
      </trkpt>
      <trkpt lat="43.75742" lon="7.08072">
        <ele>888</ele>
        <time>2023-08-02T07:54:21.000Z</time>
      </trkpt>
      <trkpt lat="43.75743" lon="7.08072">
        <ele>888</ele>
        <time>2023-08-02T07:54:22.000Z</time>
      </trkpt>
      <trkpt lat="43.75743" lon="7.08071">
        <ele>888</ele>
        <time>2023-08-02T07:54:23.000Z</time>
      </trkpt>
      <trkpt lat="43.75743" lon="7.08071">
        <ele>888</ele>
        <time>2023-08-02T07:54:24.000Z</time>
      </trkpt>
      <trkpt lat="43.75743" lon="7.0807">
        <ele>888</ele>
        <time>2023-08-02T07:54:25.000Z</time>
      </trkpt>
      <trkpt lat="43.75743" lon="7.0807">
        <ele>888</ele>
        <time>2023-08-02T07:54:26.000Z</time>
      </trkpt>
      <trkpt lat="43.75744" lon="7.08069">
        <ele>888</ele>
        <time>2023-08-02T07:54:27.000Z</time>
      </trkpt>
      <trkpt lat="43.75746" lon="7.08067">
        <ele>888</ele>
        <time>2023-08-02T07:54:28.000Z</time>
      </trkpt>
      <trkpt lat="43.75745" lon="7.08064">
        <ele>888</ele>
        <time>2023-08-02T07:54:29.000Z</time>
      </trkpt>
      <trkpt lat="43.75743" lon="7.08063">
        <ele>888.20001220703</ele>
        <time>2023-08-02T07:54:30.000Z</time>
      </trkpt>
      <trkpt lat="43.75742" lon="7.08062">
        <ele>888.20001220703</ele>
        <time>2023-08-02T07:54:31.000Z</time>
      </trkpt>
      <trkpt lat="43.75741" lon="7.08061">
        <ele>888.20001220703</ele>
        <time>2023-08-02T07:54:32.000Z</time>
      </trkpt>
      <trkpt lat="43.75739" lon="7.08061">
        <ele>888.20001220703</ele>
        <time>2023-08-02T07:54:33.000Z</time>
      </trkpt>
      <trkpt lat="43.75738" lon="7.0806">
        <ele>888.20001220703</ele>
        <time>2023-08-02T07:54:34.000Z</time>
      </trkpt>
      <trkpt lat="43.75736" lon="7.08058">
        <ele>888.20001220703</ele>
        <time>2023-08-02T07:54:35.000Z</time>
      </trkpt>
      <trkpt lat="43.75735" lon="7.08057">
        <ele>888.20001220703</ele>
        <time>2023-08-02T07:54:36.000Z</time>
      </trkpt>
      <trkpt lat="43.75733" lon="7.08055">
        <ele>888.40002441406</ele>
        <time>2023-08-02T07:54:37.000Z</time>
      </trkpt>
      <trkpt lat="43.75731" lon="7.08054">
        <ele>888.59997558594</ele>
        <time>2023-08-02T07:54:38.000Z</time>
      </trkpt>
      <trkpt lat="43.75729" lon="7.08052">
        <ele>888.59997558594</ele>
        <time>2023-08-02T07:54:39.000Z</time>
      </trkpt>
      <trkpt lat="43.75727" lon="7.0805">
        <ele>889</ele>
        <time>2023-08-02T07:54:40.000Z</time>
      </trkpt>
      <trkpt lat="43.75725" lon="7.08049">
        <ele>889</ele>
        <time>2023-08-02T07:54:41.000Z</time>
      </trkpt>
      <trkpt lat="43.75722" lon="7.08047">
        <ele>889.20001220703</ele>
        <time>2023-08-02T07:54:42.000Z</time>
      </trkpt>
      <trkpt lat="43.7572" lon="7.08046">
        <ele>889.40002441406</ele>
        <time>2023-08-02T07:54:43.000Z</time>
      </trkpt>
      <trkpt lat="43.75718" lon="7.08044">
        <ele>889.59997558594</ele>
        <time>2023-08-02T07:54:44.000Z</time>
      </trkpt>
      <trkpt lat="43.75715" lon="7.08042">
        <ele>889.79998779297</ele>
        <time>2023-08-02T07:54:45.000Z</time>
      </trkpt>
      <trkpt lat="43.75713" lon="7.0804">
        <ele>890</ele>
        <time>2023-08-02T07:54:46.000Z</time>
      </trkpt>
      <trkpt lat="43.75711" lon="7.08038">
        <ele>890.20001220703</ele>
        <time>2023-08-02T07:54:47.000Z</time>
      </trkpt>
      <trkpt lat="43.75708" lon="7.08035">
        <ele>890.40002441406</ele>
        <time>2023-08-02T07:54:48.000Z</time>
      </trkpt>
      <trkpt lat="43.75706" lon="7.08033">
        <ele>890.59997558594</ele>
        <time>2023-08-02T07:54:49.000Z</time>
      </trkpt>
      <trkpt lat="43.75703" lon="7.08031">
        <ele>891</ele>
        <time>2023-08-02T07:54:50.000Z</time>
      </trkpt>
      <trkpt lat="43.757" lon="7.08029">
        <ele>891.40002441406</ele>
        <time>2023-08-02T07:54:51.000Z</time>
      </trkpt>
      <trkpt lat="43.75698" lon="7.08026">
        <ele>891.79998779297</ele>
        <time>2023-08-02T07:54:52.000Z</time>
      </trkpt>
      <trkpt lat="43.75695" lon="7.08023">
        <ele>892</ele>
        <time>2023-08-02T07:54:53.000Z</time>
      </trkpt>
      <trkpt lat="43.75693" lon="7.0802">
        <ele>892.40002441406</ele>
        <time>2023-08-02T07:54:54.000Z</time>
      </trkpt>
      <trkpt lat="43.75691" lon="7.08016">
        <ele>892.79998779297</ele>
        <time>2023-08-02T07:54:55.000Z</time>
      </trkpt>
      <trkpt lat="43.75689" lon="7.08012">
        <ele>893</ele>
        <time>2023-08-02T07:54:56.000Z</time>
      </trkpt>
      <trkpt lat="43.75687" lon="7.08008">
        <ele>893.40002441406</ele>
        <time>2023-08-02T07:54:57.000Z</time>
      </trkpt>
      <trkpt lat="43.75686" lon="7.08004">
        <ele>893.79998779297</ele>
        <time>2023-08-02T07:54:58.000Z</time>
      </trkpt>
      <trkpt lat="43.75685" lon="7.07999">
        <ele>894</ele>
        <time>2023-08-02T07:54:59.000Z</time>
      </trkpt>
      <trkpt lat="43.75684" lon="7.07995">
        <ele>894.40002441406</ele>
        <time>2023-08-02T07:55:00.000Z</time>
      </trkpt>
      <trkpt lat="43.75684" lon="7.07991">
        <ele>894.40002441406</ele>
        <time>2023-08-02T07:55:01.000Z</time>
      </trkpt>
      <trkpt lat="43.75683" lon="7.07987">
        <ele>894.59997558594</ele>
        <time>2023-08-02T07:55:02.000Z</time>
      </trkpt>
      <trkpt lat="43.75682" lon="7.07983">
        <ele>894.79998779297</ele>
        <time>2023-08-02T07:55:03.000Z</time>
      </trkpt>
      <trkpt lat="43.75681" lon="7.07978">
        <ele>895</ele>
        <time>2023-08-02T07:55:04.000Z</time>
      </trkpt>
      <trkpt lat="43.75681" lon="7.07974">
        <ele>895.20001220703</ele>
        <time>2023-08-02T07:55:05.000Z</time>
      </trkpt>
      <trkpt lat="43.75681" lon="7.07969">
        <ele>895.59997558594</ele>
        <time>2023-08-02T07:55:06.000Z</time>
      </trkpt>
      <trkpt lat="43.75681" lon="7.07964">
        <ele>895.59997558594</ele>
        <time>2023-08-02T07:55:07.000Z</time>
      </trkpt>
      <trkpt lat="43.75681" lon="7.0796">
        <ele>896</ele>
        <time>2023-08-02T07:55:08.000Z</time>
      </trkpt>
      <trkpt lat="43.7568" lon="7.07956">
        <ele>896.40002441406</ele>
        <time>2023-08-02T07:55:09.000Z</time>
      </trkpt>
      <trkpt lat="43.7568" lon="7.07952">
        <ele>896.79998779297</ele>
        <time>2023-08-02T07:55:10.000Z</time>
      </trkpt>
      <trkpt lat="43.7568" lon="7.07948">
        <ele>897</ele>
        <time>2023-08-02T07:55:11.000Z</time>
      </trkpt>
      <trkpt lat="43.7568" lon="7.07943">
        <ele>897.40002441406</ele>
        <time>2023-08-02T07:55:12.000Z</time>
      </trkpt>
      <trkpt lat="43.75679" lon="7.07938">
        <ele>897.59997558594</ele>
        <time>2023-08-02T07:55:13.000Z</time>
      </trkpt>
      <trkpt lat="43.75679" lon="7.07933">
        <ele>897.79998779297</ele>
        <time>2023-08-02T07:55:14.000Z</time>
      </trkpt>
      <trkpt lat="43.75679" lon="7.07929">
        <ele>898.40002441406</ele>
        <time>2023-08-02T07:55:15.000Z</time>
      </trkpt>
      <trkpt lat="43.75678" lon="7.07925">
        <ele>898.79998779297</ele>
        <time>2023-08-02T07:55:16.000Z</time>
      </trkpt>
      <trkpt lat="43.75678" lon="7.0792">
        <ele>898.79998779297</ele>
        <time>2023-08-02T07:55:17.000Z</time>
      </trkpt>
      <trkpt lat="43.75677" lon="7.07916">
        <ele>899.20001220703</ele>
        <time>2023-08-02T07:55:18.000Z</time>
      </trkpt>
      <trkpt lat="43.75677" lon="7.07911">
        <ele>899.20001220703</ele>
        <time>2023-08-02T07:55:19.000Z</time>
      </trkpt>
      <trkpt lat="43.75676" lon="7.07907">
        <ele>899.40002441406</ele>
        <time>2023-08-02T07:55:20.000Z</time>
      </trkpt>
      <trkpt lat="43.75676" lon="7.07903">
        <ele>899.79998779297</ele>
        <time>2023-08-02T07:55:21.000Z</time>
      </trkpt>
      <trkpt lat="43.75675" lon="7.07898">
        <ele>900.20001220703</ele>
        <time>2023-08-02T07:55:22.000Z</time>
      </trkpt>
      <trkpt lat="43.75675" lon="7.07894">
        <ele>900.40002441406</ele>
        <time>2023-08-02T07:55:23.000Z</time>
      </trkpt>
      <trkpt lat="43.75674" lon="7.07889">
        <ele>900.79998779297</ele>
        <time>2023-08-02T07:55:24.000Z</time>
      </trkpt>
      <trkpt lat="43.75674" lon="7.07885">
        <ele>900.79998779297</ele>
        <time>2023-08-02T07:55:25.000Z</time>
      </trkpt>
      <trkpt lat="43.75673" lon="7.07881">
        <ele>901.20001220703</ele>
        <time>2023-08-02T07:55:26.000Z</time>
      </trkpt>
      <trkpt lat="43.75673" lon="7.07877">
        <ele>901.20001220703</ele>
        <time>2023-08-02T07:55:27.000Z</time>
      </trkpt>
      <trkpt lat="43.75672" lon="7.07872">
        <ele>901.40002441406</ele>
        <time>2023-08-02T07:55:28.000Z</time>
      </trkpt>
      <trkpt lat="43.75672" lon="7.07868">
        <ele>901.79998779297</ele>
        <time>2023-08-02T07:55:29.000Z</time>
      </trkpt>
      <trkpt lat="43.75672" lon="7.07863">
        <ele>902</ele>
        <time>2023-08-02T07:55:30.000Z</time>
      </trkpt>
      <trkpt lat="43.75671" lon="7.07859">
        <ele>902.20001220703</ele>
        <time>2023-08-02T07:55:31.000Z</time>
      </trkpt>
      <trkpt lat="43.75671" lon="7.07854">
        <ele>902.59997558594</ele>
        <time>2023-08-02T07:55:32.000Z</time>
      </trkpt>
      <trkpt lat="43.75671" lon="7.0785">
        <ele>902.59997558594</ele>
        <time>2023-08-02T07:55:33.000Z</time>
      </trkpt>
      <trkpt lat="43.75671" lon="7.07845">
        <ele>903</ele>
        <time>2023-08-02T07:55:34.000Z</time>
      </trkpt>
      <trkpt lat="43.75671" lon="7.0784">
        <ele>903</ele>
        <time>2023-08-02T07:55:35.000Z</time>
      </trkpt>
      <trkpt lat="43.75671" lon="7.07836">
        <ele>903.40002441406</ele>
        <time>2023-08-02T07:55:36.000Z</time>
      </trkpt>
      <trkpt lat="43.75671" lon="7.07831">
        <ele>903.79998779297</ele>
        <time>2023-08-02T07:55:37.000Z</time>
      </trkpt>
      <trkpt lat="43.75671" lon="7.07827">
        <ele>904</ele>
        <time>2023-08-02T07:55:38.000Z</time>
      </trkpt>
      <trkpt lat="43.75671" lon="7.07822">
        <ele>904.40002441406</ele>
        <time>2023-08-02T07:55:39.000Z</time>
      </trkpt>
      <trkpt lat="43.7567" lon="7.07818">
        <ele>904.40002441406</ele>
        <time>2023-08-02T07:55:40.000Z</time>
      </trkpt>
      <trkpt lat="43.75671" lon="7.07813">
        <ele>904.79998779297</ele>
        <time>2023-08-02T07:55:41.000Z</time>
      </trkpt>
      <trkpt lat="43.75671" lon="7.07809">
        <ele>905</ele>
        <time>2023-08-02T07:55:42.000Z</time>
      </trkpt>
      <trkpt lat="43.7567" lon="7.07804">
        <ele>905.20001220703</ele>
        <time>2023-08-02T07:55:43.000Z</time>
      </trkpt>
      <trkpt lat="43.7567" lon="7.078">
        <ele>905.40002441406</ele>
        <time>2023-08-02T07:55:44.000Z</time>
      </trkpt>
      <trkpt lat="43.7567" lon="7.07795">
        <ele>905.59997558594</ele>
        <time>2023-08-02T07:55:45.000Z</time>
      </trkpt>
      <trkpt lat="43.7567" lon="7.07791">
        <ele>905.79998779297</ele>
        <time>2023-08-02T07:55:46.000Z</time>
      </trkpt>
      <trkpt lat="43.7567" lon="7.07786">
        <ele>906</ele>
        <time>2023-08-02T07:55:47.000Z</time>
      </trkpt>
      <trkpt lat="43.7567" lon="7.07781">
        <ele>906.20001220703</ele>
        <time>2023-08-02T07:55:48.000Z</time>
      </trkpt>
      <trkpt lat="43.75671" lon="7.07777">
        <ele>906.59997558594</ele>
        <time>2023-08-02T07:55:49.000Z</time>
      </trkpt>
      <trkpt lat="43.75671" lon="7.07772">
        <ele>906.79998779297</ele>
        <time>2023-08-02T07:55:50.000Z</time>
      </trkpt>
      <trkpt lat="43.75671" lon="7.07767">
        <ele>907</ele>
        <time>2023-08-02T07:55:51.000Z</time>
      </trkpt>
      <trkpt lat="43.75672" lon="7.07763">
        <ele>907</ele>
        <time>2023-08-02T07:55:52.000Z</time>
      </trkpt>
      <trkpt lat="43.75672" lon="7.07758">
        <ele>907.20001220703</ele>
        <time>2023-08-02T07:55:53.000Z</time>
      </trkpt>
      <trkpt lat="43.75673" lon="7.07754">
        <ele>907.40002441406</ele>
        <time>2023-08-02T07:55:54.000Z</time>
      </trkpt>
      <trkpt lat="43.75673" lon="7.07749">
        <ele>907.59997558594</ele>
        <time>2023-08-02T07:55:55.000Z</time>
      </trkpt>
      <trkpt lat="43.75674" lon="7.07745">
        <ele>907.79998779297</ele>
        <time>2023-08-02T07:55:56.000Z</time>
      </trkpt>
      <trkpt lat="43.75675" lon="7.0774">
        <ele>908.20001220703</ele>
        <time>2023-08-02T07:55:57.000Z</time>
      </trkpt>
      <trkpt lat="43.75676" lon="7.07736">
        <ele>908.40002441406</ele>
        <time>2023-08-02T07:55:58.000Z</time>
      </trkpt>
      <trkpt lat="43.75677" lon="7.07731">
        <ele>908.40002441406</ele>
        <time>2023-08-02T07:55:59.000Z</time>
      </trkpt>
      <trkpt lat="43.75678" lon="7.07727">
        <ele>908.59997558594</ele>
        <time>2023-08-02T07:56:00.000Z</time>
      </trkpt>
      <trkpt lat="43.75679" lon="7.07722">
        <ele>908.79998779297</ele>
        <time>2023-08-02T07:56:01.000Z</time>
      </trkpt>
      <trkpt lat="43.7568" lon="7.07718">
        <ele>909</ele>
        <time>2023-08-02T07:56:02.000Z</time>
      </trkpt>
      <trkpt lat="43.75681" lon="7.07714">
        <ele>909.40002441406</ele>
        <time>2023-08-02T07:56:03.000Z</time>
      </trkpt>
      <trkpt lat="43.75683" lon="7.0771">
        <ele>909.79998779297</ele>
        <time>2023-08-02T07:56:04.000Z</time>
      </trkpt>
      <trkpt lat="43.75684" lon="7.07706">
        <ele>910</ele>
        <time>2023-08-02T07:56:05.000Z</time>
      </trkpt>
      <trkpt lat="43.75686" lon="7.07702">
        <ele>910.40002441406</ele>
        <time>2023-08-02T07:56:06.000Z</time>
      </trkpt>
      <trkpt lat="43.75688" lon="7.07699">
        <ele>910.40002441406</ele>
        <time>2023-08-02T07:56:07.000Z</time>
      </trkpt>
      <trkpt lat="43.75689" lon="7.07695">
        <ele>910.79998779297</ele>
        <time>2023-08-02T07:56:08.000Z</time>
      </trkpt>
      <trkpt lat="43.75691" lon="7.07691">
        <ele>911.20001220703</ele>
        <time>2023-08-02T07:56:09.000Z</time>
      </trkpt>
      <trkpt lat="43.75692" lon="7.07686">
        <ele>911.40002441406</ele>
        <time>2023-08-02T07:56:10.000Z</time>
      </trkpt>
      <trkpt lat="43.75694" lon="7.07682">
        <ele>911.59997558594</ele>
        <time>2023-08-02T07:56:11.000Z</time>
      </trkpt>
      <trkpt lat="43.75695" lon="7.07678">
        <ele>911.79998779297</ele>
        <time>2023-08-02T07:56:12.000Z</time>
      </trkpt>
      <trkpt lat="43.75697" lon="7.07673">
        <ele>912.20001220703</ele>
        <time>2023-08-02T07:56:13.000Z</time>
      </trkpt>
      <trkpt lat="43.75698" lon="7.07669">
        <ele>912.40002441406</ele>
        <time>2023-08-02T07:56:14.000Z</time>
      </trkpt>
      <trkpt lat="43.75699" lon="7.07664">
        <ele>912.59997558594</ele>
        <time>2023-08-02T07:56:15.000Z</time>
      </trkpt>
      <trkpt lat="43.75701" lon="7.0766">
        <ele>913</ele>
        <time>2023-08-02T07:56:16.000Z</time>
      </trkpt>
      <trkpt lat="43.75702" lon="7.07656">
        <ele>913</ele>
        <time>2023-08-02T07:56:17.000Z</time>
      </trkpt>
      <trkpt lat="43.75703" lon="7.07651">
        <ele>913.20001220703</ele>
        <time>2023-08-02T07:56:18.000Z</time>
      </trkpt>
      <trkpt lat="43.75705" lon="7.07647">
        <ele>913.40002441406</ele>
        <time>2023-08-02T07:56:19.000Z</time>
      </trkpt>
      <trkpt lat="43.75706" lon="7.07642">
        <ele>913.79998779297</ele>
        <time>2023-08-02T07:56:20.000Z</time>
      </trkpt>
      <trkpt lat="43.75708" lon="7.07638">
        <ele>914</ele>
        <time>2023-08-02T07:56:21.000Z</time>
      </trkpt>
      <trkpt lat="43.75709" lon="7.07633">
        <ele>914.20001220703</ele>
        <time>2023-08-02T07:56:22.000Z</time>
      </trkpt>
      <trkpt lat="43.75711" lon="7.07628">
        <ele>914.40002441406</ele>
        <time>2023-08-02T07:56:23.000Z</time>
      </trkpt>
      <trkpt lat="43.75712" lon="7.07624">
        <ele>914.59997558594</ele>
        <time>2023-08-02T07:56:24.000Z</time>
      </trkpt>
      <trkpt lat="43.75713" lon="7.0762">
        <ele>915</ele>
        <time>2023-08-02T07:56:25.000Z</time>
      </trkpt>
      <trkpt lat="43.75715" lon="7.07615">
        <ele>915.20001220703</ele>
        <time>2023-08-02T07:56:26.000Z</time>
      </trkpt>
      <trkpt lat="43.75716" lon="7.0761">
        <ele>915.59997558594</ele>
        <time>2023-08-02T07:56:27.000Z</time>
      </trkpt>
      <trkpt lat="43.75717" lon="7.07606">
        <ele>915.79998779297</ele>
        <time>2023-08-02T07:56:28.000Z</time>
      </trkpt>
      <trkpt lat="43.75717" lon="7.07601">
        <ele>916</ele>
        <time>2023-08-02T07:56:29.000Z</time>
      </trkpt>
      <trkpt lat="43.75718" lon="7.07596">
        <ele>916.20001220703</ele>
        <time>2023-08-02T07:56:30.000Z</time>
      </trkpt>
      <trkpt lat="43.75718" lon="7.0759">
        <ele>916.40002441406</ele>
        <time>2023-08-02T07:56:31.000Z</time>
      </trkpt>
      <trkpt lat="43.75719" lon="7.07585">
        <ele>916.79998779297</ele>
        <time>2023-08-02T07:56:32.000Z</time>
      </trkpt>
      <trkpt lat="43.75719" lon="7.0758">
        <ele>917</ele>
        <time>2023-08-02T07:56:33.000Z</time>
      </trkpt>
      <trkpt lat="43.75719" lon="7.07575">
        <ele>917.40002441406</ele>
        <time>2023-08-02T07:56:34.000Z</time>
      </trkpt>
      <trkpt lat="43.7572" lon="7.0757">
        <ele>917.59997558594</ele>
        <time>2023-08-02T07:56:35.000Z</time>
      </trkpt>
      <trkpt lat="43.7572" lon="7.07565">
        <ele>917.79998779297</ele>
        <time>2023-08-02T07:56:36.000Z</time>
      </trkpt>
      <trkpt lat="43.7572" lon="7.0756">
        <ele>918</ele>
        <time>2023-08-02T07:56:37.000Z</time>
      </trkpt>
      <trkpt lat="43.75721" lon="7.07554">
        <ele>918.20001220703</ele>
        <time>2023-08-02T07:56:38.000Z</time>
      </trkpt>
      <trkpt lat="43.75721" lon="7.07549">
        <ele>918.79998779297</ele>
        <time>2023-08-02T07:56:39.000Z</time>
      </trkpt>
      <trkpt lat="43.75722" lon="7.07544">
        <ele>919</ele>
        <time>2023-08-02T07:56:40.000Z</time>
      </trkpt>
      <trkpt lat="43.75722" lon="7.07539">
        <ele>919.20001220703</ele>
        <time>2023-08-02T07:56:41.000Z</time>
      </trkpt>
      <trkpt lat="43.75722" lon="7.07534">
        <ele>919.20001220703</ele>
        <time>2023-08-02T07:56:42.000Z</time>
      </trkpt>
      <trkpt lat="43.75722" lon="7.07528">
        <ele>919.59997558594</ele>
        <time>2023-08-02T07:56:43.000Z</time>
      </trkpt>
      <trkpt lat="43.75721" lon="7.07523">
        <ele>919.79998779297</ele>
        <time>2023-08-02T07:56:44.000Z</time>
      </trkpt>
      <trkpt lat="43.7572" lon="7.07517">
        <ele>920.20001220703</ele>
        <time>2023-08-02T07:56:45.000Z</time>
      </trkpt>
      <trkpt lat="43.7572" lon="7.07511">
        <ele>920.40002441406</ele>
        <time>2023-08-02T07:56:46.000Z</time>
      </trkpt>
      <trkpt lat="43.75719" lon="7.07506">
        <ele>920.59997558594</ele>
        <time>2023-08-02T07:56:47.000Z</time>
      </trkpt>
      <trkpt lat="43.75718" lon="7.07501">
        <ele>920.79998779297</ele>
        <time>2023-08-02T07:56:48.000Z</time>
      </trkpt>
      <trkpt lat="43.75717" lon="7.07496">
        <ele>921</ele>
        <time>2023-08-02T07:56:49.000Z</time>
      </trkpt>
      <trkpt lat="43.75716" lon="7.07491">
        <ele>921.20001220703</ele>
        <time>2023-08-02T07:56:50.000Z</time>
      </trkpt>
      <trkpt lat="43.75716" lon="7.07486">
        <ele>921.59997558594</ele>
        <time>2023-08-02T07:56:51.000Z</time>
      </trkpt>
      <trkpt lat="43.75715" lon="7.07481">
        <ele>921.59997558594</ele>
        <time>2023-08-02T07:56:52.000Z</time>
      </trkpt>
      <trkpt lat="43.75714" lon="7.07476">
        <ele>922</ele>
        <time>2023-08-02T07:56:53.000Z</time>
      </trkpt>
      <trkpt lat="43.75713" lon="7.07471">
        <ele>922.40002441406</ele>
        <time>2023-08-02T07:56:54.000Z</time>
      </trkpt>
      <trkpt lat="43.75713" lon="7.07466">
        <ele>922.59997558594</ele>
        <time>2023-08-02T07:56:55.000Z</time>
      </trkpt>
      <trkpt lat="43.75715" lon="7.0746">
        <ele>923</ele>
        <time>2023-08-02T07:56:56.000Z</time>
      </trkpt>
      <trkpt lat="43.75718" lon="7.07456">
        <ele>923.20001220703</ele>
        <time>2023-08-02T07:56:57.000Z</time>
      </trkpt>
      <trkpt lat="43.75723" lon="7.07454">
        <ele>923.59997558594</ele>
        <time>2023-08-02T07:56:58.000Z</time>
      </trkpt>
      <trkpt lat="43.75727" lon="7.07454">
        <ele>923.79998779297</ele>
        <time>2023-08-02T07:56:59.000Z</time>
      </trkpt>
      <trkpt lat="43.75731" lon="7.07456">
        <ele>924</ele>
        <time>2023-08-02T07:57:00.000Z</time>
      </trkpt>
      <trkpt lat="43.75734" lon="7.07459">
        <ele>924.40002441406</ele>
        <time>2023-08-02T07:57:01.000Z</time>
      </trkpt>
      <trkpt lat="43.75737" lon="7.07463">
        <ele>924.40002441406</ele>
        <time>2023-08-02T07:57:02.000Z</time>
      </trkpt>
      <trkpt lat="43.75741" lon="7.07467">
        <ele>924.59997558594</ele>
        <time>2023-08-02T07:57:03.000Z</time>
      </trkpt>
      <trkpt lat="43.75743" lon="7.07471">
        <ele>925</ele>
        <time>2023-08-02T07:57:04.000Z</time>
      </trkpt>
      <trkpt lat="43.75746" lon="7.07476">
        <ele>925.20001220703</ele>
        <time>2023-08-02T07:57:05.000Z</time>
      </trkpt>
      <trkpt lat="43.75748" lon="7.07481">
        <ele>925.40002441406</ele>
        <time>2023-08-02T07:57:06.000Z</time>
      </trkpt>
      <trkpt lat="43.75749" lon="7.07487">
        <ele>925.40002441406</ele>
        <time>2023-08-02T07:57:07.000Z</time>
      </trkpt>
      <trkpt lat="43.75751" lon="7.07492">
        <ele>925.59997558594</ele>
        <time>2023-08-02T07:57:08.000Z</time>
      </trkpt>
      <trkpt lat="43.75753" lon="7.07497">
        <ele>926</ele>
        <time>2023-08-02T07:57:09.000Z</time>
      </trkpt>
      <trkpt lat="43.75755" lon="7.07503">
        <ele>926</ele>
        <time>2023-08-02T07:57:10.000Z</time>
      </trkpt>
      <trkpt lat="43.75756" lon="7.07508">
        <ele>926.40002441406</ele>
        <time>2023-08-02T07:57:11.000Z</time>
      </trkpt>
      <trkpt lat="43.75758" lon="7.07513">
        <ele>926.59997558594</ele>
        <time>2023-08-02T07:57:12.000Z</time>
      </trkpt>
      <trkpt lat="43.75759" lon="7.07519">
        <ele>927</ele>
        <time>2023-08-02T07:57:13.000Z</time>
      </trkpt>
      <trkpt lat="43.7576" lon="7.07524">
        <ele>927.20001220703</ele>
        <time>2023-08-02T07:57:14.000Z</time>
      </trkpt>
      <trkpt lat="43.75761" lon="7.07529">
        <ele>927.59997558594</ele>
        <time>2023-08-02T07:57:15.000Z</time>
      </trkpt>
      <trkpt lat="43.75762" lon="7.07535">
        <ele>927.79998779297</ele>
        <time>2023-08-02T07:57:16.000Z</time>
      </trkpt>
      <trkpt lat="43.75763" lon="7.0754">
        <ele>928.20001220703</ele>
        <time>2023-08-02T07:57:17.000Z</time>
      </trkpt>
      <trkpt lat="43.75765" lon="7.07546">
        <ele>928.40002441406</ele>
        <time>2023-08-02T07:57:18.000Z</time>
      </trkpt>
      <trkpt lat="43.75766" lon="7.07551">
        <ele>928.59997558594</ele>
        <time>2023-08-02T07:57:19.000Z</time>
      </trkpt>
      <trkpt lat="43.75767" lon="7.07557">
        <ele>928.79998779297</ele>
        <time>2023-08-02T07:57:20.000Z</time>
      </trkpt>
      <trkpt lat="43.75768" lon="7.07562">
        <ele>929.40002441406</ele>
        <time>2023-08-02T07:57:21.000Z</time>
      </trkpt>
      <trkpt lat="43.7577" lon="7.07568">
        <ele>929.59997558594</ele>
        <time>2023-08-02T07:57:22.000Z</time>
      </trkpt>
      <trkpt lat="43.75771" lon="7.07573">
        <ele>930</ele>
        <time>2023-08-02T07:57:23.000Z</time>
      </trkpt>
      <trkpt lat="43.75773" lon="7.07578">
        <ele>930.40002441406</ele>
        <time>2023-08-02T07:57:24.000Z</time>
      </trkpt>
      <trkpt lat="43.75774" lon="7.07583">
        <ele>930.59997558594</ele>
        <time>2023-08-02T07:57:25.000Z</time>
      </trkpt>
      <trkpt lat="43.75775" lon="7.07589">
        <ele>931.20001220703</ele>
        <time>2023-08-02T07:57:26.000Z</time>
      </trkpt>
      <trkpt lat="43.75776" lon="7.07595">
        <ele>931.40002441406</ele>
        <time>2023-08-02T07:57:27.000Z</time>
      </trkpt>
      <trkpt lat="43.75776" lon="7.076">
        <ele>931.59997558594</ele>
        <time>2023-08-02T07:57:28.000Z</time>
      </trkpt>
      <trkpt lat="43.75777" lon="7.07606">
        <ele>932.20001220703</ele>
        <time>2023-08-02T07:57:29.000Z</time>
      </trkpt>
      <trkpt lat="43.75778" lon="7.07612">
        <ele>932.40002441406</ele>
        <time>2023-08-02T07:57:30.000Z</time>
      </trkpt>
      <trkpt lat="43.75778" lon="7.07617">
        <ele>932.40002441406</ele>
        <time>2023-08-02T07:57:31.000Z</time>
      </trkpt>
      <trkpt lat="43.75779" lon="7.07623">
        <ele>932.79998779297</ele>
        <time>2023-08-02T07:57:32.000Z</time>
      </trkpt>
      <trkpt lat="43.7578" lon="7.07628">
        <ele>933</ele>
        <time>2023-08-02T07:57:33.000Z</time>
      </trkpt>
      <trkpt lat="43.75781" lon="7.07633">
        <ele>933.40002441406</ele>
        <time>2023-08-02T07:57:34.000Z</time>
      </trkpt>
      <trkpt lat="43.75783" lon="7.07639">
        <ele>933.79998779297</ele>
        <time>2023-08-02T07:57:35.000Z</time>
      </trkpt>
      <trkpt lat="43.75784" lon="7.07644">
        <ele>934</ele>
        <time>2023-08-02T07:57:36.000Z</time>
      </trkpt>
      <trkpt lat="43.75785" lon="7.07649">
        <ele>934.40002441406</ele>
        <time>2023-08-02T07:57:37.000Z</time>
      </trkpt>
      <trkpt lat="43.75787" lon="7.07654">
        <ele>934.79998779297</ele>
        <time>2023-08-02T07:57:38.000Z</time>
      </trkpt>
      <trkpt lat="43.75789" lon="7.07658">
        <ele>935</ele>
        <time>2023-08-02T07:57:39.000Z</time>
      </trkpt>
      <trkpt lat="43.75791" lon="7.07662">
        <ele>935.40002441406</ele>
        <time>2023-08-02T07:57:40.000Z</time>
      </trkpt>
      <trkpt lat="43.75794" lon="7.07667">
        <ele>935.59997558594</ele>
        <time>2023-08-02T07:57:41.000Z</time>
      </trkpt>
      <trkpt lat="43.75797" lon="7.07671">
        <ele>936</ele>
        <time>2023-08-02T07:57:42.000Z</time>
      </trkpt>
      <trkpt lat="43.75799" lon="7.07675">
        <ele>936.40002441406</ele>
        <time>2023-08-02T07:57:43.000Z</time>
      </trkpt>
      <trkpt lat="43.75802" lon="7.07678">
        <ele>936.59997558594</ele>
        <time>2023-08-02T07:57:44.000Z</time>
      </trkpt>
      <trkpt lat="43.75806" lon="7.07681">
        <ele>937</ele>
        <time>2023-08-02T07:57:45.000Z</time>
      </trkpt>
      <trkpt lat="43.75809" lon="7.07684">
        <ele>937.20001220703</ele>
        <time>2023-08-02T07:57:46.000Z</time>
      </trkpt>
      <trkpt lat="43.75812" lon="7.07687">
        <ele>937.40002441406</ele>
        <time>2023-08-02T07:57:47.000Z</time>
      </trkpt>
      <trkpt lat="43.75816" lon="7.07689">
        <ele>937.79998779297</ele>
        <time>2023-08-02T07:57:48.000Z</time>
      </trkpt>
      <trkpt lat="43.7582" lon="7.07691">
        <ele>938</ele>
        <time>2023-08-02T07:57:49.000Z</time>
      </trkpt>
      <trkpt lat="43.75823" lon="7.07693">
        <ele>938.40002441406</ele>
        <time>2023-08-02T07:57:50.000Z</time>
      </trkpt>
      <trkpt lat="43.75827" lon="7.07694">
        <ele>938.79998779297</ele>
        <time>2023-08-02T07:57:51.000Z</time>
      </trkpt>
      <trkpt lat="43.75831" lon="7.07695">
        <ele>939</ele>
        <time>2023-08-02T07:57:52.000Z</time>
      </trkpt>
      <trkpt lat="43.75834" lon="7.07696">
        <ele>939.40002441406</ele>
        <time>2023-08-02T07:57:53.000Z</time>
      </trkpt>
      <trkpt lat="43.75838" lon="7.07698">
        <ele>939.59997558594</ele>
        <time>2023-08-02T07:57:54.000Z</time>
      </trkpt>
      <trkpt lat="43.75842" lon="7.07699">
        <ele>939.59997558594</ele>
        <time>2023-08-02T07:57:55.000Z</time>
      </trkpt>
      <trkpt lat="43.75846" lon="7.07699">
        <ele>939.79998779297</ele>
        <time>2023-08-02T07:57:56.000Z</time>
      </trkpt>
      <trkpt lat="43.7585" lon="7.077">
        <ele>940</ele>
        <time>2023-08-02T07:57:57.000Z</time>
      </trkpt>
      <trkpt lat="43.75854" lon="7.07701">
        <ele>940.59997558594</ele>
        <time>2023-08-02T07:57:58.000Z</time>
      </trkpt>
      <trkpt lat="43.75858" lon="7.07701">
        <ele>940.59997558594</ele>
        <time>2023-08-02T07:57:59.000Z</time>
      </trkpt>
      <trkpt lat="43.75861" lon="7.07701">
        <ele>941</ele>
        <time>2023-08-02T07:58:00.000Z</time>
      </trkpt>
      <trkpt lat="43.75865" lon="7.077">
        <ele>941.20001220703</ele>
        <time>2023-08-02T07:58:01.000Z</time>
      </trkpt>
      <trkpt lat="43.75868" lon="7.077">
        <ele>941.40002441406</ele>
        <time>2023-08-02T07:58:02.000Z</time>
      </trkpt>
      <trkpt lat="43.75872" lon="7.07699">
        <ele>941.79998779297</ele>
        <time>2023-08-02T07:58:03.000Z</time>
      </trkpt>
      <trkpt lat="43.75875" lon="7.07697">
        <ele>942.20001220703</ele>
        <time>2023-08-02T07:58:04.000Z</time>
      </trkpt>
      <trkpt lat="43.75878" lon="7.07695">
        <ele>942.40002441406</ele>
        <time>2023-08-02T07:58:05.000Z</time>
      </trkpt>
      <trkpt lat="43.75882" lon="7.07693">
        <ele>942.79998779297</ele>
        <time>2023-08-02T07:58:06.000Z</time>
      </trkpt>
      <trkpt lat="43.75885" lon="7.0769">
        <ele>943.20001220703</ele>
        <time>2023-08-02T07:58:07.000Z</time>
      </trkpt>
      <trkpt lat="43.75888" lon="7.07686">
        <ele>943.40002441406</ele>
        <time>2023-08-02T07:58:08.000Z</time>
      </trkpt>
      <trkpt lat="43.75891" lon="7.07683">
        <ele>943.59997558594</ele>
        <time>2023-08-02T07:58:09.000Z</time>
      </trkpt>
      <trkpt lat="43.75894" lon="7.07679">
        <ele>944</ele>
        <time>2023-08-02T07:58:10.000Z</time>
      </trkpt>
      <trkpt lat="43.75897" lon="7.07674">
        <ele>944.20001220703</ele>
        <time>2023-08-02T07:58:11.000Z</time>
      </trkpt>
      <trkpt lat="43.759" lon="7.0767">
        <ele>944.40002441406</ele>
        <time>2023-08-02T07:58:12.000Z</time>
      </trkpt>
      <trkpt lat="43.75902" lon="7.07666">
        <ele>944.79998779297</ele>
        <time>2023-08-02T07:58:13.000Z</time>
      </trkpt>
      <trkpt lat="43.75905" lon="7.07661">
        <ele>945</ele>
        <time>2023-08-02T07:58:14.000Z</time>
      </trkpt>
      <trkpt lat="43.75907" lon="7.07658">
        <ele>945.20001220703</ele>
        <time>2023-08-02T07:58:15.000Z</time>
      </trkpt>
      <trkpt lat="43.7591" lon="7.07654">
        <ele>945.59997558594</ele>
        <time>2023-08-02T07:58:16.000Z</time>
      </trkpt>
      <trkpt lat="43.75913" lon="7.0765">
        <ele>946</ele>
        <time>2023-08-02T07:58:17.000Z</time>
      </trkpt>
      <trkpt lat="43.75916" lon="7.07645">
        <ele>946.20001220703</ele>
        <time>2023-08-02T07:58:18.000Z</time>
      </trkpt>
      <trkpt lat="43.75919" lon="7.07641">
        <ele>946.20001220703</ele>
        <time>2023-08-02T07:58:19.000Z</time>
      </trkpt>
      <trkpt lat="43.75921" lon="7.07637">
        <ele>946.40002441406</ele>
        <time>2023-08-02T07:58:20.000Z</time>
      </trkpt>
      <trkpt lat="43.75924" lon="7.07633">
        <ele>946.79998779297</ele>
        <time>2023-08-02T07:58:21.000Z</time>
      </trkpt>
      <trkpt lat="43.75926" lon="7.07629">
        <ele>947.20001220703</ele>
        <time>2023-08-02T07:58:22.000Z</time>
      </trkpt>
      <trkpt lat="43.75929" lon="7.07625">
        <ele>947.40002441406</ele>
        <time>2023-08-02T07:58:23.000Z</time>
      </trkpt>
      <trkpt lat="43.75931" lon="7.0762">
        <ele>947.79998779297</ele>
        <time>2023-08-02T07:58:24.000Z</time>
      </trkpt>
      <trkpt lat="43.75934" lon="7.07616">
        <ele>948.20001220703</ele>
        <time>2023-08-02T07:58:25.000Z</time>
      </trkpt>
      <trkpt lat="43.75936" lon="7.07612">
        <ele>948.59997558594</ele>
        <time>2023-08-02T07:58:26.000Z</time>
      </trkpt>
      <trkpt lat="43.75939" lon="7.07608">
        <ele>948.79998779297</ele>
        <time>2023-08-02T07:58:27.000Z</time>
      </trkpt>
      <trkpt lat="43.75941" lon="7.07604">
        <ele>949.20001220703</ele>
        <time>2023-08-02T07:58:28.000Z</time>
      </trkpt>
      <trkpt lat="43.75944" lon="7.076">
        <ele>949.40002441406</ele>
        <time>2023-08-02T07:58:29.000Z</time>
      </trkpt>
      <trkpt lat="43.75947" lon="7.07597">
        <ele>949.59997558594</ele>
        <time>2023-08-02T07:58:30.000Z</time>
      </trkpt>
      <trkpt lat="43.75949" lon="7.07592">
        <ele>950</ele>
        <time>2023-08-02T07:58:31.000Z</time>
      </trkpt>
      <trkpt lat="43.75952" lon="7.07588">
        <ele>950</ele>
        <time>2023-08-02T07:58:32.000Z</time>
      </trkpt>
      <trkpt lat="43.75955" lon="7.07584">
        <ele>950.20001220703</ele>
        <time>2023-08-02T07:58:33.000Z</time>
      </trkpt>
      <trkpt lat="43.75958" lon="7.0758">
        <ele>950.59997558594</ele>
        <time>2023-08-02T07:58:34.000Z</time>
      </trkpt>
      <trkpt lat="43.75961" lon="7.07577">
        <ele>951</ele>
        <time>2023-08-02T07:58:35.000Z</time>
      </trkpt>
      <trkpt lat="43.75964" lon="7.07573">
        <ele>951.20001220703</ele>
        <time>2023-08-02T07:58:36.000Z</time>
      </trkpt>
      <trkpt lat="43.75967" lon="7.0757">
        <ele>951.40002441406</ele>
        <time>2023-08-02T07:58:37.000Z</time>
      </trkpt>
      <trkpt lat="43.75969" lon="7.07566">
        <ele>951.79998779297</ele>
        <time>2023-08-02T07:58:38.000Z</time>
      </trkpt>
      <trkpt lat="43.75973" lon="7.07563">
        <ele>952.20001220703</ele>
        <time>2023-08-02T07:58:39.000Z</time>
      </trkpt>
      <trkpt lat="43.75976" lon="7.07561">
        <ele>952.40002441406</ele>
        <time>2023-08-02T07:58:40.000Z</time>
      </trkpt>
      <trkpt lat="43.75979" lon="7.07559">
        <ele>952.59997558594</ele>
        <time>2023-08-02T07:58:41.000Z</time>
      </trkpt>
      <trkpt lat="43.75983" lon="7.07557">
        <ele>953.20001220703</ele>
        <time>2023-08-02T07:58:42.000Z</time>
      </trkpt>
      <trkpt lat="43.75986" lon="7.07556">
        <ele>953.40002441406</ele>
        <time>2023-08-02T07:58:43.000Z</time>
      </trkpt>
      <trkpt lat="43.7599" lon="7.07555">
        <ele>953.40002441406</ele>
        <time>2023-08-02T07:58:44.000Z</time>
      </trkpt>
      <trkpt lat="43.75994" lon="7.07553">
        <ele>953.59997558594</ele>
        <time>2023-08-02T07:58:45.000Z</time>
      </trkpt>
      <trkpt lat="43.75998" lon="7.07552">
        <ele>954</ele>
        <time>2023-08-02T07:58:46.000Z</time>
      </trkpt>
      <trkpt lat="43.76002" lon="7.07551">
        <ele>954.40002441406</ele>
        <time>2023-08-02T07:58:47.000Z</time>
      </trkpt>
      <trkpt lat="43.76006" lon="7.07549">
        <ele>954.59997558594</ele>
        <time>2023-08-02T07:58:48.000Z</time>
      </trkpt>
      <trkpt lat="43.76009" lon="7.07548">
        <ele>954.79998779297</ele>
        <time>2023-08-02T07:58:49.000Z</time>
      </trkpt>
      <trkpt lat="43.76013" lon="7.07546">
        <ele>955.20001220703</ele>
        <time>2023-08-02T07:58:50.000Z</time>
      </trkpt>
      <trkpt lat="43.76016" lon="7.07545">
        <ele>955.59997558594</ele>
        <time>2023-08-02T07:58:51.000Z</time>
      </trkpt>
      <trkpt lat="43.7602" lon="7.07544">
        <ele>955.79998779297</ele>
        <time>2023-08-02T07:58:52.000Z</time>
      </trkpt>
      <trkpt lat="43.76024" lon="7.07542">
        <ele>956.20001220703</ele>
        <time>2023-08-02T07:58:53.000Z</time>
      </trkpt>
      <trkpt lat="43.76027" lon="7.0754">
        <ele>956.40002441406</ele>
        <time>2023-08-02T07:58:54.000Z</time>
      </trkpt>
      <trkpt lat="43.76031" lon="7.07537">
        <ele>956.59997558594</ele>
        <time>2023-08-02T07:58:55.000Z</time>
      </trkpt>
      <trkpt lat="43.76034" lon="7.07535">
        <ele>957</ele>
        <time>2023-08-02T07:58:56.000Z</time>
      </trkpt>
      <trkpt lat="43.76038" lon="7.07533">
        <ele>957.20001220703</ele>
        <time>2023-08-02T07:58:57.000Z</time>
      </trkpt>
      <trkpt lat="43.76041" lon="7.0753">
        <ele>957.59997558594</ele>
        <time>2023-08-02T07:58:58.000Z</time>
      </trkpt>
      <trkpt lat="43.76045" lon="7.07527">
        <ele>957.79998779297</ele>
        <time>2023-08-02T07:58:59.000Z</time>
      </trkpt>
      <trkpt lat="43.76048" lon="7.07525">
        <ele>958</ele>
        <time>2023-08-02T07:59:00.000Z</time>
      </trkpt>
      <trkpt lat="43.76051" lon="7.07523">
        <ele>958.40002441406</ele>
        <time>2023-08-02T07:59:01.000Z</time>
      </trkpt>
      <trkpt lat="43.76054" lon="7.07521">
        <ele>958.79998779297</ele>
        <time>2023-08-02T07:59:02.000Z</time>
      </trkpt>
      <trkpt lat="43.76057" lon="7.07519">
        <ele>959</ele>
        <time>2023-08-02T07:59:03.000Z</time>
      </trkpt>
      <trkpt lat="43.7606" lon="7.07517">
        <ele>959.40002441406</ele>
        <time>2023-08-02T07:59:04.000Z</time>
      </trkpt>
      <trkpt lat="43.76063" lon="7.07515">
        <ele>959.59997558594</ele>
        <time>2023-08-02T07:59:05.000Z</time>
      </trkpt>
      <trkpt lat="43.76067" lon="7.07512">
        <ele>959.79998779297</ele>
        <time>2023-08-02T07:59:06.000Z</time>
      </trkpt>
      <trkpt lat="43.7607" lon="7.0751">
        <ele>960.20001220703</ele>
        <time>2023-08-02T07:59:07.000Z</time>
      </trkpt>
      <trkpt lat="43.76072" lon="7.07508">
        <ele>960.20001220703</ele>
        <time>2023-08-02T07:59:08.000Z</time>
      </trkpt>
      <trkpt lat="43.76075" lon="7.07506">
        <ele>960.40002441406</ele>
        <time>2023-08-02T07:59:09.000Z</time>
      </trkpt>
      <trkpt lat="43.76078" lon="7.07504">
        <ele>960.40002441406</ele>
        <time>2023-08-02T07:59:10.000Z</time>
      </trkpt>
      <trkpt lat="43.76082" lon="7.07502">
        <ele>960.79998779297</ele>
        <time>2023-08-02T07:59:11.000Z</time>
      </trkpt>
      <trkpt lat="43.76084" lon="7.075">
        <ele>960.79998779297</ele>
        <time>2023-08-02T07:59:12.000Z</time>
      </trkpt>
      <trkpt lat="43.76087" lon="7.07497">
        <ele>961</ele>
        <time>2023-08-02T07:59:13.000Z</time>
      </trkpt>
      <trkpt lat="43.7609" lon="7.07495">
        <ele>961</ele>
        <time>2023-08-02T07:59:14.000Z</time>
      </trkpt>
      <trkpt lat="43.76092" lon="7.07493">
        <ele>961</ele>
        <time>2023-08-02T07:59:15.000Z</time>
      </trkpt>
      <trkpt lat="43.76094" lon="7.07492">
        <ele>961.20001220703</ele>
        <time>2023-08-02T07:59:16.000Z</time>
      </trkpt>
      <trkpt lat="43.76095" lon="7.0749">
        <ele>961.20001220703</ele>
        <time>2023-08-02T07:59:17.000Z</time>
      </trkpt>
      <trkpt lat="43.76097" lon="7.07489">
        <ele>961.40002441406</ele>
        <time>2023-08-02T07:59:18.000Z</time>
      </trkpt>
      <trkpt lat="43.761" lon="7.07488">
        <ele>961.40002441406</ele>
        <time>2023-08-02T07:59:19.000Z</time>
      </trkpt>
      <trkpt lat="43.76102" lon="7.07487">
        <ele>961.40002441406</ele>
        <time>2023-08-02T07:59:20.000Z</time>
      </trkpt>
      <trkpt lat="43.76104" lon="7.07485">
        <ele>961.59997558594</ele>
        <time>2023-08-02T07:59:21.000Z</time>
      </trkpt>
      <trkpt lat="43.76107" lon="7.07484">
        <ele>961.59997558594</ele>
        <time>2023-08-02T07:59:22.000Z</time>
      </trkpt>
      <trkpt lat="43.76109" lon="7.07482">
        <ele>961.59997558594</ele>
        <time>2023-08-02T07:59:23.000Z</time>
      </trkpt>
      <trkpt lat="43.7611" lon="7.07479">
        <ele>961.79998779297</ele>
        <time>2023-08-02T07:59:24.000Z</time>
      </trkpt>
      <trkpt lat="43.76112" lon="7.07477">
        <ele>962.20001220703</ele>
        <time>2023-08-02T07:59:25.000Z</time>
      </trkpt>
      <trkpt lat="43.76114" lon="7.07475">
        <ele>962.20001220703</ele>
        <time>2023-08-02T07:59:26.000Z</time>
      </trkpt>
      <trkpt lat="43.76115" lon="7.07474">
        <ele>962.20001220703</ele>
        <time>2023-08-02T07:59:27.000Z</time>
      </trkpt>
      <trkpt lat="43.76117" lon="7.07473">
        <ele>962.20001220703</ele>
        <time>2023-08-02T07:59:28.000Z</time>
      </trkpt>
      <trkpt lat="43.76119" lon="7.07471">
        <ele>962.40002441406</ele>
        <time>2023-08-02T07:59:29.000Z</time>
      </trkpt>
      <trkpt lat="43.7612" lon="7.07469">
        <ele>962.59997558594</ele>
        <time>2023-08-02T07:59:30.000Z</time>
      </trkpt>
      <trkpt lat="43.76121" lon="7.07467">
        <ele>962.59997558594</ele>
        <time>2023-08-02T07:59:31.000Z</time>
      </trkpt>
      <trkpt lat="43.76122" lon="7.07465">
        <ele>962.59997558594</ele>
        <time>2023-08-02T07:59:32.000Z</time>
      </trkpt>
      <trkpt lat="43.76123" lon="7.07463">
        <ele>962.59997558594</ele>
        <time>2023-08-02T07:59:33.000Z</time>
      </trkpt>
      <trkpt lat="43.76125" lon="7.07461">
        <ele>962.59997558594</ele>
        <time>2023-08-02T07:59:34.000Z</time>
      </trkpt>
      <trkpt lat="43.76126" lon="7.07458">
        <ele>962.59997558594</ele>
        <time>2023-08-02T07:59:35.000Z</time>
      </trkpt>
      <trkpt lat="43.76128" lon="7.07454">
        <ele>962.59997558594</ele>
        <time>2023-08-02T07:59:36.000Z</time>
      </trkpt>
      <trkpt lat="43.76131" lon="7.07451">
        <ele>962.59997558594</ele>
        <time>2023-08-02T07:59:37.000Z</time>
      </trkpt>
      <trkpt lat="43.76134" lon="7.07448">
        <ele>962.59997558594</ele>
        <time>2023-08-02T07:59:38.000Z</time>
      </trkpt>
      <trkpt lat="43.76136" lon="7.07443">
        <ele>962.40002441406</ele>
        <time>2023-08-02T07:59:39.000Z</time>
      </trkpt>
      <trkpt lat="43.76139" lon="7.07439">
        <ele>962.20001220703</ele>
        <time>2023-08-02T07:59:40.000Z</time>
      </trkpt>
      <trkpt lat="43.76141" lon="7.07434">
        <ele>962</ele>
        <time>2023-08-02T07:59:41.000Z</time>
      </trkpt>
      <trkpt lat="43.76144" lon="7.0743">
        <ele>962</ele>
        <time>2023-08-02T07:59:42.000Z</time>
      </trkpt>
      <trkpt lat="43.76147" lon="7.07425">
        <ele>961.79998779297</ele>
        <time>2023-08-02T07:59:43.000Z</time>
      </trkpt>
      <trkpt lat="43.7615" lon="7.0742">
        <ele>961.59997558594</ele>
        <time>2023-08-02T07:59:44.000Z</time>
      </trkpt>
      <trkpt lat="43.76153" lon="7.07414">
        <ele>961.40002441406</ele>
        <time>2023-08-02T07:59:45.000Z</time>
      </trkpt>
      <trkpt lat="43.76156" lon="7.07408">
        <ele>961.20001220703</ele>
        <time>2023-08-02T07:59:46.000Z</time>
      </trkpt>
      <trkpt lat="43.76159" lon="7.07403">
        <ele>961.20001220703</ele>
        <time>2023-08-02T07:59:47.000Z</time>
      </trkpt>
      <trkpt lat="43.76162" lon="7.07397">
        <ele>960.79998779297</ele>
        <time>2023-08-02T07:59:48.000Z</time>
      </trkpt>
      <trkpt lat="43.76165" lon="7.07392">
        <ele>960.59997558594</ele>
        <time>2023-08-02T07:59:49.000Z</time>
      </trkpt>
      <trkpt lat="43.76167" lon="7.07386">
        <ele>960.40002441406</ele>
        <time>2023-08-02T07:59:50.000Z</time>
      </trkpt>
      <trkpt lat="43.7617" lon="7.07381">
        <ele>960.20001220703</ele>
        <time>2023-08-02T07:59:51.000Z</time>
      </trkpt>
      <trkpt lat="43.76173" lon="7.07374">
        <ele>959.79998779297</ele>
        <time>2023-08-02T07:59:52.000Z</time>
      </trkpt>
      <trkpt lat="43.76176" lon="7.07366">
        <ele>959.40002441406</ele>
        <time>2023-08-02T07:59:53.000Z</time>
      </trkpt>
      <trkpt lat="43.76179" lon="7.07358">
        <ele>959</ele>
        <time>2023-08-02T07:59:54.000Z</time>
      </trkpt>
      <trkpt lat="43.76182" lon="7.07349">
        <ele>958.59997558594</ele>
        <time>2023-08-02T07:59:55.000Z</time>
      </trkpt>
      <trkpt lat="43.76185" lon="7.07341">
        <ele>958.59997558594</ele>
        <time>2023-08-02T07:59:56.000Z</time>
      </trkpt>
      <trkpt lat="43.76188" lon="7.07331">
        <ele>958.40002441406</ele>
        <time>2023-08-02T07:59:57.000Z</time>
      </trkpt>
      <trkpt lat="43.76192" lon="7.07322">
        <ele>957.79998779297</ele>
        <time>2023-08-02T07:59:58.000Z</time>
      </trkpt>
      <trkpt lat="43.76195" lon="7.07313">
        <ele>957.59997558594</ele>
        <time>2023-08-02T07:59:59.000Z</time>
      </trkpt>
      <trkpt lat="43.762" lon="7.07306">
        <ele>957.20001220703</ele>
        <time>2023-08-02T08:00:00.000Z</time>
      </trkpt>
      <trkpt lat="43.76204" lon="7.07297">
        <ele>956.79998779297</ele>
        <time>2023-08-02T08:00:01.000Z</time>
      </trkpt>
      <trkpt lat="43.76208" lon="7.07289">
        <ele>956.59997558594</ele>
        <time>2023-08-02T08:00:02.000Z</time>
      </trkpt>
      <trkpt lat="43.76213" lon="7.07282">
        <ele>956.40002441406</ele>
        <time>2023-08-02T08:00:03.000Z</time>
      </trkpt>
      <trkpt lat="43.76218" lon="7.07275">
        <ele>956.20001220703</ele>
        <time>2023-08-02T08:00:04.000Z</time>
      </trkpt>
      <trkpt lat="43.76223" lon="7.07269">
        <ele>955.79998779297</ele>
        <time>2023-08-02T08:00:05.000Z</time>
      </trkpt>
      <trkpt lat="43.76229" lon="7.07263">
        <ele>955.59997558594</ele>
        <time>2023-08-02T08:00:06.000Z</time>
      </trkpt>
      <trkpt lat="43.76235" lon="7.07259">
        <ele>955.40002441406</ele>
        <time>2023-08-02T08:00:07.000Z</time>
      </trkpt>
      <trkpt lat="43.76242" lon="7.07254">
        <ele>955.40002441406</ele>
        <time>2023-08-02T08:00:08.000Z</time>
      </trkpt>
      <trkpt lat="43.76249" lon="7.07249">
        <ele>955.40002441406</ele>
        <time>2023-08-02T08:00:09.000Z</time>
      </trkpt>
      <trkpt lat="43.76255" lon="7.07244">
        <ele>955.20001220703</ele>
        <time>2023-08-02T08:00:10.000Z</time>
      </trkpt>
      <trkpt lat="43.76262" lon="7.07239">
        <ele>955.20001220703</ele>
        <time>2023-08-02T08:00:11.000Z</time>
      </trkpt>
      <trkpt lat="43.76269" lon="7.07233">
        <ele>955</ele>
        <time>2023-08-02T08:00:12.000Z</time>
      </trkpt>
      <trkpt lat="43.76275" lon="7.07226">
        <ele>954.59997558594</ele>
        <time>2023-08-02T08:00:13.000Z</time>
      </trkpt>
      <trkpt lat="43.76281" lon="7.07218">
        <ele>954</ele>
        <time>2023-08-02T08:00:14.000Z</time>
      </trkpt>
      <trkpt lat="43.76286" lon="7.0721">
        <ele>953.59997558594</ele>
        <time>2023-08-02T08:00:15.000Z</time>
      </trkpt>
      <trkpt lat="43.76291" lon="7.07202">
        <ele>953.20001220703</ele>
        <time>2023-08-02T08:00:16.000Z</time>
      </trkpt>
      <trkpt lat="43.76296" lon="7.07194">
        <ele>953</ele>
        <time>2023-08-02T08:00:17.000Z</time>
      </trkpt>
      <trkpt lat="43.76301" lon="7.07188">
        <ele>952.79998779297</ele>
        <time>2023-08-02T08:00:18.000Z</time>
      </trkpt>
      <trkpt lat="43.76307" lon="7.07182">
        <ele>952.59997558594</ele>
        <time>2023-08-02T08:00:19.000Z</time>
      </trkpt>
      <trkpt lat="43.76312" lon="7.07177">
        <ele>952.59997558594</ele>
        <time>2023-08-02T08:00:20.000Z</time>
      </trkpt>
      <trkpt lat="43.76318" lon="7.07173">
        <ele>952.59997558594</ele>
        <time>2023-08-02T08:00:21.000Z</time>
      </trkpt>
      <trkpt lat="43.76323" lon="7.0717">
        <ele>952.59997558594</ele>
        <time>2023-08-02T08:00:22.000Z</time>
      </trkpt>
      <trkpt lat="43.76329" lon="7.07167">
        <ele>952.40002441406</ele>
        <time>2023-08-02T08:00:23.000Z</time>
      </trkpt>
      <trkpt lat="43.76334" lon="7.07164">
        <ele>952.20001220703</ele>
        <time>2023-08-02T08:00:24.000Z</time>
      </trkpt>
      <trkpt lat="43.76338" lon="7.07163">
        <ele>952.20001220703</ele>
        <time>2023-08-02T08:00:25.000Z</time>
      </trkpt>
      <trkpt lat="43.76342" lon="7.07162">
        <ele>952</ele>
        <time>2023-08-02T08:00:26.000Z</time>
      </trkpt>
      <trkpt lat="43.76345" lon="7.07162">
        <ele>952</ele>
        <time>2023-08-02T08:00:27.000Z</time>
      </trkpt>
      <trkpt lat="43.76348" lon="7.07163">
        <ele>951.59997558594</ele>
        <time>2023-08-02T08:00:28.000Z</time>
      </trkpt>
      <trkpt lat="43.76349" lon="7.07164">
        <ele>951.40002441406</ele>
        <time>2023-08-02T08:00:29.000Z</time>
      </trkpt>
      <trkpt lat="43.76351" lon="7.07165">
        <ele>951.20001220703</ele>
        <time>2023-08-02T08:00:30.000Z</time>
      </trkpt>
      <trkpt lat="43.76351" lon="7.07165">
        <ele>951</ele>
        <time>2023-08-02T08:00:31.000Z</time>
      </trkpt>
      <trkpt lat="43.76351" lon="7.07165">
        <ele>950.79998779297</ele>
        <time>2023-08-02T08:00:32.000Z</time>
      </trkpt>
      <trkpt lat="43.76351" lon="7.07165">
        <ele>950.79998779297</ele>
        <time>2023-08-02T08:00:33.000Z</time>
      </trkpt>
      <trkpt lat="43.7635" lon="7.07165">
        <ele>950.79998779297</ele>
        <time>2023-08-02T08:00:34.000Z</time>
      </trkpt>
      <trkpt lat="43.7635" lon="7.07165">
        <ele>950.79998779297</ele>
        <time>2023-08-02T08:00:35.000Z</time>
      </trkpt>
      <trkpt lat="43.7635" lon="7.07165">
        <ele>950.79998779297</ele>
        <time>2023-08-02T08:00:36.000Z</time>
      </trkpt>
      <trkpt lat="43.7635" lon="7.07165">
        <ele>950.79998779297</ele>
        <time>2023-08-02T08:00:37.000Z</time>
      </trkpt>
      <trkpt lat="43.7635" lon="7.07165">
        <ele>950.79998779297</ele>
        <time>2023-08-02T08:00:38.000Z</time>
      </trkpt>
      <trkpt lat="43.7635" lon="7.07165">
        <ele>950.59997558594</ele>
        <time>2023-08-02T08:00:39.000Z</time>
      </trkpt>
      <trkpt lat="43.7635" lon="7.07165">
        <ele>950.40002441406</ele>
        <time>2023-08-02T08:00:40.000Z</time>
      </trkpt>
      <trkpt lat="43.7635" lon="7.07165">
        <ele>950.40002441406</ele>
        <time>2023-08-02T08:00:41.000Z</time>
      </trkpt>
      <trkpt lat="43.7635" lon="7.07165">
        <ele>950.20001220703</ele>
        <time>2023-08-02T08:00:42.000Z</time>
      </trkpt>
      <trkpt lat="43.7635" lon="7.07165">
        <ele>950.40002441406</ele>
        <time>2023-08-02T08:00:43.000Z</time>
      </trkpt>
      <trkpt lat="43.7635" lon="7.07165">
        <ele>950.40002441406</ele>
        <time>2023-08-02T08:00:44.000Z</time>
      </trkpt>
      <trkpt lat="43.7635" lon="7.07165">
        <ele>950.40002441406</ele>
        <time>2023-08-02T08:00:45.000Z</time>
      </trkpt>
      <trkpt lat="43.7635" lon="7.07165">
        <ele>950.40002441406</ele>
        <time>2023-08-02T08:00:46.000Z</time>
      </trkpt>
      <trkpt lat="43.7635" lon="7.07165">
        <ele>950.20001220703</ele>
        <time>2023-08-02T08:00:47.000Z</time>
      </trkpt>
      <trkpt lat="43.7635" lon="7.07165">
        <ele>950.20001220703</ele>
        <time>2023-08-02T08:00:48.000Z</time>
      </trkpt>
      <trkpt lat="43.7635" lon="7.07165">
        <ele>950.40002441406</ele>
        <time>2023-08-02T08:00:49.000Z</time>
      </trkpt>
      <trkpt lat="43.76351" lon="7.07165">
        <ele>950.40002441406</ele>
        <time>2023-08-02T08:00:50.000Z</time>
      </trkpt>
      <trkpt lat="43.7635" lon="7.07165">
        <ele>950.20001220703</ele>
        <time>2023-08-02T08:00:51.000Z</time>
      </trkpt>
      <trkpt lat="43.76351" lon="7.07165">
        <ele>950.20001220703</ele>
        <time>2023-08-02T08:00:52.000Z</time>
      </trkpt>
      <trkpt lat="43.76351" lon="7.07165">
        <ele>950.20001220703</ele>
        <time>2023-08-02T08:00:53.000Z</time>
      </trkpt>
      <trkpt lat="43.76351" lon="7.07165">
        <ele>950.40002441406</ele>
        <time>2023-08-02T08:00:54.000Z</time>
      </trkpt>
      <trkpt lat="43.76351" lon="7.07165">
        <ele>950.40002441406</ele>
        <time>2023-08-02T08:00:55.000Z</time>
      </trkpt>
      <trkpt lat="43.76351" lon="7.07165">
        <ele>950.40002441406</ele>
        <time>2023-08-02T08:00:56.000Z</time>
      </trkpt>
      <trkpt lat="43.76351" lon="7.07165">
        <ele>950.40002441406</ele>
        <time>2023-08-02T08:00:57.000Z</time>
      </trkpt>
      <trkpt lat="43.76351" lon="7.07165">
        <ele>950.40002441406</ele>
        <time>2023-08-02T08:00:58.000Z</time>
      </trkpt>
      <trkpt lat="43.76351" lon="7.07165">
        <ele>950.40002441406</ele>
        <time>2023-08-02T08:00:59.000Z</time>
      </trkpt>
      <trkpt lat="43.76351" lon="7.07165">
        <ele>950.40002441406</ele>
        <time>2023-08-02T08:01:00.000Z</time>
      </trkpt>
      <trkpt lat="43.7635" lon="7.07165">
        <ele>950.40002441406</ele>
        <time>2023-08-02T08:01:01.000Z</time>
      </trkpt>
      <trkpt lat="43.76351" lon="7.07165">
        <ele>950.20001220703</ele>
        <time>2023-08-02T08:01:02.000Z</time>
      </trkpt>
      <trkpt lat="43.7635" lon="7.07165">
        <ele>950.20001220703</ele>
        <time>2023-08-02T08:01:03.000Z</time>
      </trkpt>
      <trkpt lat="43.7635" lon="7.07165">
        <ele>950.20001220703</ele>
        <time>2023-08-02T08:01:04.000Z</time>
      </trkpt>
      <trkpt lat="43.76351" lon="7.07165">
        <ele>950.40002441406</ele>
        <time>2023-08-02T08:01:05.000Z</time>
      </trkpt>
      <trkpt lat="43.7635" lon="7.07165">
        <ele>950.40002441406</ele>
        <time>2023-08-02T08:01:06.000Z</time>
      </trkpt>
      <trkpt lat="43.76351" lon="7.07165">
        <ele>950.40002441406</ele>
        <time>2023-08-02T08:01:07.000Z</time>
      </trkpt>
      <trkpt lat="43.76351" lon="7.07165">
        <ele>950.40002441406</ele>
        <time>2023-08-02T08:01:08.000Z</time>
      </trkpt>
      <trkpt lat="43.76351" lon="7.07165">
        <ele>950.40002441406</ele>
        <time>2023-08-02T08:01:09.000Z</time>
      </trkpt>
      <trkpt lat="43.76351" lon="7.07165">
        <ele>950.40002441406</ele>
        <time>2023-08-02T08:01:10.000Z</time>
      </trkpt>
      <trkpt lat="43.76351" lon="7.07165">
        <ele>950.20001220703</ele>
        <time>2023-08-02T08:01:11.000Z</time>
      </trkpt>
      <trkpt lat="43.76351" lon="7.07165">
        <ele>950.20001220703</ele>
        <time>2023-08-02T08:01:12.000Z</time>
      </trkpt>
      <trkpt lat="43.76351" lon="7.07165">
        <ele>950.20001220703</ele>
        <time>2023-08-02T08:01:13.000Z</time>
      </trkpt>
      <trkpt lat="43.76351" lon="7.07165">
        <ele>950.20001220703</ele>
        <time>2023-08-02T08:01:14.000Z</time>
      </trkpt>
      <trkpt lat="43.76351" lon="7.07165">
        <ele>950.20001220703</ele>
        <time>2023-08-02T08:01:15.000Z</time>
      </trkpt>
      <trkpt lat="43.76351" lon="7.07165">
        <ele>950.20001220703</ele>
        <time>2023-08-02T08:01:16.000Z</time>
      </trkpt>
      <trkpt lat="43.76351" lon="7.07165">
        <ele>950.40002441406</ele>
        <time>2023-08-02T08:01:17.000Z</time>
      </trkpt>
      <trkpt lat="43.76351" lon="7.07165">
        <ele>950.59997558594</ele>
        <time>2023-08-02T08:01:18.000Z</time>
      </trkpt>
      <trkpt lat="43.76351" lon="7.07165">
        <ele>950.59997558594</ele>
        <time>2023-08-02T08:01:19.000Z</time>
      </trkpt>
      <trkpt lat="43.76351" lon="7.07165">
        <ele>950.59997558594</ele>
        <time>2023-08-02T08:01:20.000Z</time>
      </trkpt>
      <trkpt lat="43.76351" lon="7.07165">
        <ele>950.59997558594</ele>
        <time>2023-08-02T08:01:21.000Z</time>
      </trkpt>
      <trkpt lat="43.76351" lon="7.07165">
        <ele>950.59997558594</ele>
        <time>2023-08-02T08:01:22.000Z</time>
      </trkpt>
      <trkpt lat="43.76351" lon="7.07165">
        <ele>950.59997558594</ele>
        <time>2023-08-02T08:01:23.000Z</time>
      </trkpt>
      <trkpt lat="43.76351" lon="7.07165">
        <ele>950.59997558594</ele>
        <time>2023-08-02T08:01:24.000Z</time>
      </trkpt>
      <trkpt lat="43.76351" lon="7.07165">
        <ele>950.59997558594</ele>
        <time>2023-08-02T08:01:25.000Z</time>
      </trkpt>
      <trkpt lat="43.76351" lon="7.07165">
        <ele>950.59997558594</ele>
        <time>2023-08-02T08:01:26.000Z</time>
      </trkpt>
      <trkpt lat="43.76351" lon="7.07164">
        <ele>950.59997558594</ele>
        <time>2023-08-02T08:01:27.000Z</time>
      </trkpt>
      <trkpt lat="43.76351" lon="7.07163">
        <ele>950.59997558594</ele>
        <time>2023-08-02T08:01:28.000Z</time>
      </trkpt>
      <trkpt lat="43.76351" lon="7.07163">
        <ele>950.59997558594</ele>
        <time>2023-08-02T08:01:29.000Z</time>
      </trkpt>
      <trkpt lat="43.7635" lon="7.07164">
        <ele>950.59997558594</ele>
        <time>2023-08-02T08:01:30.000Z</time>
      </trkpt>
      <trkpt lat="43.76349" lon="7.07164">
        <ele>950.59997558594</ele>
        <time>2023-08-02T08:01:31.000Z</time>
      </trkpt>
      <trkpt lat="43.76349" lon="7.07163">
        <ele>950.59997558594</ele>
        <time>2023-08-02T08:01:32.000Z</time>
      </trkpt>
      <trkpt lat="43.76349" lon="7.07162">
        <ele>950.59997558594</ele>
        <time>2023-08-02T08:01:33.000Z</time>
      </trkpt>
      <trkpt lat="43.76349" lon="7.07161">
        <ele>950.59997558594</ele>
        <time>2023-08-02T08:01:34.000Z</time>
      </trkpt>
      <trkpt lat="43.76348" lon="7.0716">
        <ele>950.59997558594</ele>
        <time>2023-08-02T08:01:35.000Z</time>
      </trkpt>
      <trkpt lat="43.76348" lon="7.07159">
        <ele>950.59997558594</ele>
        <time>2023-08-02T08:01:36.000Z</time>
      </trkpt>
      <trkpt lat="43.76348" lon="7.07156">
        <ele>950.59997558594</ele>
        <time>2023-08-02T08:01:37.000Z</time>
      </trkpt>
      <trkpt lat="43.7635" lon="7.07155">
        <ele>950.59997558594</ele>
        <time>2023-08-02T08:01:38.000Z</time>
      </trkpt>
      <trkpt lat="43.76352" lon="7.07156">
        <ele>950.59997558594</ele>
        <time>2023-08-02T08:01:39.000Z</time>
      </trkpt>
      <trkpt lat="43.76355" lon="7.07154">
        <ele>950.59997558594</ele>
        <time>2023-08-02T08:01:40.000Z</time>
      </trkpt>
      <trkpt lat="43.76359" lon="7.07152">
        <ele>950.40002441406</ele>
        <time>2023-08-02T08:01:41.000Z</time>
      </trkpt>
      <trkpt lat="43.76364" lon="7.0715">
        <ele>950.20001220703</ele>
        <time>2023-08-02T08:01:42.000Z</time>
      </trkpt>
      <trkpt lat="43.76368" lon="7.07147">
        <ele>950</ele>
        <time>2023-08-02T08:01:43.000Z</time>
      </trkpt>
      <trkpt lat="43.76374" lon="7.07144">
        <ele>949.59997558594</ele>
        <time>2023-08-02T08:01:44.000Z</time>
      </trkpt>
      <trkpt lat="43.7638" lon="7.07141">
        <ele>948.59997558594</ele>
        <time>2023-08-02T08:01:45.000Z</time>
      </trkpt>
      <trkpt lat="43.76386" lon="7.07138">
        <ele>948.59997558594</ele>
        <time>2023-08-02T08:01:46.000Z</time>
      </trkpt>
      <trkpt lat="43.76393" lon="7.07136">
        <ele>948.20001220703</ele>
        <time>2023-08-02T08:01:47.000Z</time>
      </trkpt>
      <trkpt lat="43.764" lon="7.07132">
        <ele>948</ele>
        <time>2023-08-02T08:01:48.000Z</time>
      </trkpt>
      <trkpt lat="43.76408" lon="7.07128">
        <ele>947.20001220703</ele>
        <time>2023-08-02T08:01:49.000Z</time>
      </trkpt>
      <trkpt lat="43.76416" lon="7.07125">
        <ele>947.20001220703</ele>
        <time>2023-08-02T08:01:50.000Z</time>
      </trkpt>
      <trkpt lat="43.76424" lon="7.07121">
        <ele>946.20001220703</ele>
        <time>2023-08-02T08:01:51.000Z</time>
      </trkpt>
      <trkpt lat="43.76432" lon="7.07118">
        <ele>946.20001220703</ele>
        <time>2023-08-02T08:01:52.000Z</time>
      </trkpt>
      <trkpt lat="43.76441" lon="7.07114">
        <ele>945.40002441406</ele>
        <time>2023-08-02T08:01:53.000Z</time>
      </trkpt>
      <trkpt lat="43.76448" lon="7.07111">
        <ele>944.79998779297</ele>
        <time>2023-08-02T08:01:54.000Z</time>
      </trkpt>
      <trkpt lat="43.76454" lon="7.07108">
        <ele>944</ele>
        <time>2023-08-02T08:01:55.000Z</time>
      </trkpt>
      <trkpt lat="43.7646" lon="7.07105">
        <ele>943.20001220703</ele>
        <time>2023-08-02T08:01:56.000Z</time>
      </trkpt>
      <trkpt lat="43.76465" lon="7.07102">
        <ele>943.20001220703</ele>
        <time>2023-08-02T08:01:57.000Z</time>
      </trkpt>
      <trkpt lat="43.76471" lon="7.07098">
        <ele>942.59997558594</ele>
        <time>2023-08-02T08:01:58.000Z</time>
      </trkpt>
      <trkpt lat="43.76476" lon="7.07095">
        <ele>942.59997558594</ele>
        <time>2023-08-02T08:01:59.000Z</time>
      </trkpt>
      <trkpt lat="43.76482" lon="7.07091">
        <ele>942.40002441406</ele>
        <time>2023-08-02T08:02:00.000Z</time>
      </trkpt>
      <trkpt lat="43.76488" lon="7.07087">
        <ele>942.20001220703</ele>
        <time>2023-08-02T08:02:01.000Z</time>
      </trkpt>
      <trkpt lat="43.76494" lon="7.07083">
        <ele>941.79998779297</ele>
        <time>2023-08-02T08:02:02.000Z</time>
      </trkpt>
      <trkpt lat="43.765" lon="7.0708">
        <ele>941.40002441406</ele>
        <time>2023-08-02T08:02:03.000Z</time>
      </trkpt>
      <trkpt lat="43.76506" lon="7.07075">
        <ele>941.20001220703</ele>
        <time>2023-08-02T08:02:04.000Z</time>
      </trkpt>
      <trkpt lat="43.76511" lon="7.07071">
        <ele>941.20001220703</ele>
        <time>2023-08-02T08:02:05.000Z</time>
      </trkpt>
      <trkpt lat="43.76517" lon="7.07068">
        <ele>941</ele>
        <time>2023-08-02T08:02:06.000Z</time>
      </trkpt>
      <trkpt lat="43.76522" lon="7.07065">
        <ele>940.79998779297</ele>
        <time>2023-08-02T08:02:07.000Z</time>
      </trkpt>
      <trkpt lat="43.76528" lon="7.07062">
        <ele>940.79998779297</ele>
        <time>2023-08-02T08:02:08.000Z</time>
      </trkpt>
      <trkpt lat="43.76534" lon="7.07059">
        <ele>940.79998779297</ele>
        <time>2023-08-02T08:02:09.000Z</time>
      </trkpt>
      <trkpt lat="43.7654" lon="7.07057">
        <ele>940.79998779297</ele>
        <time>2023-08-02T08:02:10.000Z</time>
      </trkpt>
      <trkpt lat="43.76546" lon="7.07056">
        <ele>940.79998779297</ele>
        <time>2023-08-02T08:02:11.000Z</time>
      </trkpt>
      <trkpt lat="43.76552" lon="7.07055">
        <ele>940.40002441406</ele>
        <time>2023-08-02T08:02:12.000Z</time>
      </trkpt>
      <trkpt lat="43.76559" lon="7.07052">
        <ele>940</ele>
        <time>2023-08-02T08:02:13.000Z</time>
      </trkpt>
      <trkpt lat="43.76565" lon="7.0705">
        <ele>939.59997558594</ele>
        <time>2023-08-02T08:02:14.000Z</time>
      </trkpt>
      <trkpt lat="43.76572" lon="7.07048">
        <ele>939.40002441406</ele>
        <time>2023-08-02T08:02:15.000Z</time>
      </trkpt>
      <trkpt lat="43.76579" lon="7.07047">
        <ele>939</ele>
        <time>2023-08-02T08:02:16.000Z</time>
      </trkpt>
      <trkpt lat="43.76584" lon="7.07045">
        <ele>938.40002441406</ele>
        <time>2023-08-02T08:02:17.000Z</time>
      </trkpt>
      <trkpt lat="43.7659" lon="7.07044">
        <ele>937.79998779297</ele>
        <time>2023-08-02T08:02:18.000Z</time>
      </trkpt>
      <trkpt lat="43.76595" lon="7.07043">
        <ele>937.59997558594</ele>
        <time>2023-08-02T08:02:19.000Z</time>
      </trkpt>
      <trkpt lat="43.76599" lon="7.07044">
        <ele>937</ele>
        <time>2023-08-02T08:02:20.000Z</time>
      </trkpt>
      <trkpt lat="43.76602" lon="7.07045">
        <ele>937</ele>
        <time>2023-08-02T08:02:21.000Z</time>
      </trkpt>
      <trkpt lat="43.76605" lon="7.07044">
        <ele>936.40002441406</ele>
        <time>2023-08-02T08:02:22.000Z</time>
      </trkpt>
      <trkpt lat="43.76607" lon="7.07044">
        <ele>936</ele>
        <time>2023-08-02T08:02:23.000Z</time>
      </trkpt>
      <trkpt lat="43.76609" lon="7.07044">
        <ele>935.79998779297</ele>
        <time>2023-08-02T08:02:24.000Z</time>
      </trkpt>
      <trkpt lat="43.76611" lon="7.07044">
        <ele>935.79998779297</ele>
        <time>2023-08-02T08:02:25.000Z</time>
      </trkpt>
      <trkpt lat="43.76613" lon="7.07043">
        <ele>935.79998779297</ele>
        <time>2023-08-02T08:02:26.000Z</time>
      </trkpt>
      <trkpt lat="43.76615" lon="7.07041">
        <ele>935.59997558594</ele>
        <time>2023-08-02T08:02:27.000Z</time>
      </trkpt>
      <trkpt lat="43.76617" lon="7.07041">
        <ele>935.20001220703</ele>
        <time>2023-08-02T08:02:28.000Z</time>
      </trkpt>
      <trkpt lat="43.76619" lon="7.0704">
        <ele>935.20001220703</ele>
        <time>2023-08-02T08:02:29.000Z</time>
      </trkpt>
      <trkpt lat="43.76622" lon="7.0704">
        <ele>935</ele>
        <time>2023-08-02T08:02:30.000Z</time>
      </trkpt>
      <trkpt lat="43.76624" lon="7.0704">
        <ele>934.59997558594</ele>
        <time>2023-08-02T08:02:31.000Z</time>
      </trkpt>
      <trkpt lat="43.76626" lon="7.07039">
        <ele>934.59997558594</ele>
        <time>2023-08-02T08:02:32.000Z</time>
      </trkpt>
      <trkpt lat="43.76628" lon="7.07038">
        <ele>934.59997558594</ele>
        <time>2023-08-02T08:02:33.000Z</time>
      </trkpt>
      <trkpt lat="43.7663" lon="7.07038">
        <ele>934.40002441406</ele>
        <time>2023-08-02T08:02:34.000Z</time>
      </trkpt>
      <trkpt lat="43.76631" lon="7.07037">
        <ele>934.20001220703</ele>
        <time>2023-08-02T08:02:35.000Z</time>
      </trkpt>
      <trkpt lat="43.76632" lon="7.07035">
        <ele>934.20001220703</ele>
        <time>2023-08-02T08:02:36.000Z</time>
      </trkpt>
      <trkpt lat="43.76633" lon="7.07031">
        <ele>934</ele>
        <time>2023-08-02T08:02:37.000Z</time>
      </trkpt>
      <trkpt lat="43.76636" lon="7.0703">
        <ele>933.79998779297</ele>
        <time>2023-08-02T08:02:38.000Z</time>
      </trkpt>
      <trkpt lat="43.76639" lon="7.07029">
        <ele>933.79998779297</ele>
        <time>2023-08-02T08:02:39.000Z</time>
      </trkpt>
      <trkpt lat="43.76643" lon="7.07028">
        <ele>933.20001220703</ele>
        <time>2023-08-02T08:02:40.000Z</time>
      </trkpt>
      <trkpt lat="43.76647" lon="7.07028">
        <ele>933</ele>
        <time>2023-08-02T08:02:41.000Z</time>
      </trkpt>
      <trkpt lat="43.76652" lon="7.07026">
        <ele>932.79998779297</ele>
        <time>2023-08-02T08:02:42.000Z</time>
      </trkpt>
      <trkpt lat="43.76656" lon="7.07025">
        <ele>932.40002441406</ele>
        <time>2023-08-02T08:02:43.000Z</time>
      </trkpt>
      <trkpt lat="43.76662" lon="7.07024">
        <ele>932.20001220703</ele>
        <time>2023-08-02T08:02:44.000Z</time>
      </trkpt>
      <trkpt lat="43.76667" lon="7.07023">
        <ele>932.20001220703</ele>
        <time>2023-08-02T08:02:45.000Z</time>
      </trkpt>
      <trkpt lat="43.76673" lon="7.07021">
        <ele>932</ele>
        <time>2023-08-02T08:02:46.000Z</time>
      </trkpt>
      <trkpt lat="43.76678" lon="7.07019">
        <ele>931.59997558594</ele>
        <time>2023-08-02T08:02:47.000Z</time>
      </trkpt>
      <trkpt lat="43.76685" lon="7.07017">
        <ele>931.40002441406</ele>
        <time>2023-08-02T08:02:48.000Z</time>
      </trkpt>
      <trkpt lat="43.76691" lon="7.07015">
        <ele>931.20001220703</ele>
        <time>2023-08-02T08:02:49.000Z</time>
      </trkpt>
      <trkpt lat="43.76698" lon="7.07013">
        <ele>931</ele>
        <time>2023-08-02T08:02:50.000Z</time>
      </trkpt>
      <trkpt lat="43.76704" lon="7.07012">
        <ele>930.40002441406</ele>
        <time>2023-08-02T08:02:51.000Z</time>
      </trkpt>
      <trkpt lat="43.76711" lon="7.0701">
        <ele>930</ele>
        <time>2023-08-02T08:02:52.000Z</time>
      </trkpt>
      <trkpt lat="43.76717" lon="7.07008">
        <ele>929.79998779297</ele>
        <time>2023-08-02T08:02:53.000Z</time>
      </trkpt>
      <trkpt lat="43.76724" lon="7.07006">
        <ele>929.20001220703</ele>
        <time>2023-08-02T08:02:54.000Z</time>
      </trkpt>
      <trkpt lat="43.7673" lon="7.07004">
        <ele>929.20001220703</ele>
        <time>2023-08-02T08:02:55.000Z</time>
      </trkpt>
      <trkpt lat="43.76737" lon="7.07002">
        <ele>929</ele>
        <time>2023-08-02T08:02:56.000Z</time>
      </trkpt>
      <trkpt lat="43.76744" lon="7.07001">
        <ele>929</ele>
        <time>2023-08-02T08:02:57.000Z</time>
      </trkpt>
      <trkpt lat="43.7675" lon="7.06999">
        <ele>929</ele>
        <time>2023-08-02T08:02:58.000Z</time>
      </trkpt>
      <trkpt lat="43.76757" lon="7.06997">
        <ele>929</ele>
        <time>2023-08-02T08:02:59.000Z</time>
      </trkpt>
      <trkpt lat="43.76763" lon="7.06995">
        <ele>929</ele>
        <time>2023-08-02T08:03:00.000Z</time>
      </trkpt>
      <trkpt lat="43.76769" lon="7.06993">
        <ele>929</ele>
        <time>2023-08-02T08:03:01.000Z</time>
      </trkpt>
      <trkpt lat="43.76775" lon="7.06991">
        <ele>928.79998779297</ele>
        <time>2023-08-02T08:03:02.000Z</time>
      </trkpt>
      <trkpt lat="43.76782" lon="7.06988">
        <ele>928.79998779297</ele>
        <time>2023-08-02T08:03:03.000Z</time>
      </trkpt>
      <trkpt lat="43.76788" lon="7.06986">
        <ele>928.40002441406</ele>
        <time>2023-08-02T08:03:04.000Z</time>
      </trkpt>
      <trkpt lat="43.76794" lon="7.06984">
        <ele>928.20001220703</ele>
        <time>2023-08-02T08:03:05.000Z</time>
      </trkpt>
      <trkpt lat="43.76801" lon="7.06981">
        <ele>928.20001220703</ele>
        <time>2023-08-02T08:03:06.000Z</time>
      </trkpt>
      <trkpt lat="43.76807" lon="7.06979">
        <ele>928</ele>
        <time>2023-08-02T08:03:07.000Z</time>
      </trkpt>
      <trkpt lat="43.76813" lon="7.06976">
        <ele>928</ele>
        <time>2023-08-02T08:03:08.000Z</time>
      </trkpt>
      <trkpt lat="43.76818" lon="7.06976">
        <ele>928</ele>
        <time>2023-08-02T08:03:09.000Z</time>
      </trkpt>
      <trkpt lat="43.76823" lon="7.06977">
        <ele>928</ele>
        <time>2023-08-02T08:03:10.000Z</time>
      </trkpt>
      <trkpt lat="43.76827" lon="7.06979">
        <ele>927.79998779297</ele>
        <time>2023-08-02T08:03:11.000Z</time>
      </trkpt>
      <trkpt lat="43.76829" lon="7.06981">
        <ele>927.79998779297</ele>
        <time>2023-08-02T08:03:12.000Z</time>
      </trkpt>
      <trkpt lat="43.76831" lon="7.06984">
        <ele>927.59997558594</ele>
        <time>2023-08-02T08:03:13.000Z</time>
      </trkpt>
      <trkpt lat="43.76832" lon="7.06986">
        <ele>927.59997558594</ele>
        <time>2023-08-02T08:03:14.000Z</time>
      </trkpt>
      <trkpt lat="43.76832" lon="7.06989">
        <ele>927.59997558594</ele>
        <time>2023-08-02T08:03:15.000Z</time>
      </trkpt>
      <trkpt lat="43.76832" lon="7.06991">
        <ele>927.59997558594</ele>
        <time>2023-08-02T08:03:16.000Z</time>
      </trkpt>
      <trkpt lat="43.76832" lon="7.06994">
        <ele>927.59997558594</ele>
        <time>2023-08-02T08:03:17.000Z</time>
      </trkpt>
      <trkpt lat="43.76831" lon="7.06997">
        <ele>928</ele>
        <time>2023-08-02T08:03:18.000Z</time>
      </trkpt>
      <trkpt lat="43.76831" lon="7.07">
        <ele>928.20001220703</ele>
        <time>2023-08-02T08:03:19.000Z</time>
      </trkpt>
      <trkpt lat="43.76831" lon="7.07002">
        <ele>928.59997558594</ele>
        <time>2023-08-02T08:03:20.000Z</time>
      </trkpt>
      <trkpt lat="43.76832" lon="7.07003">
        <ele>928.59997558594</ele>
        <time>2023-08-02T08:03:21.000Z</time>
      </trkpt>
      <trkpt lat="43.76833" lon="7.07004">
        <ele>929</ele>
        <time>2023-08-02T08:03:22.000Z</time>
      </trkpt>
      <trkpt lat="43.76833" lon="7.07004">
        <ele>929.20001220703</ele>
        <time>2023-08-02T08:03:23.000Z</time>
      </trkpt>
      <trkpt lat="43.76832" lon="7.07003">
        <ele>929.59997558594</ele>
        <time>2023-08-02T08:03:24.000Z</time>
      </trkpt>
      <trkpt lat="43.76831" lon="7.07002">
        <ele>929.59997558594</ele>
        <time>2023-08-02T08:03:25.000Z</time>
      </trkpt>
      <trkpt lat="43.76831" lon="7.07003">
        <ele>929.59997558594</ele>
        <time>2023-08-02T08:03:26.000Z</time>
      </trkpt>
      <trkpt lat="43.76831" lon="7.07003">
        <ele>929.59997558594</ele>
        <time>2023-08-02T08:03:27.000Z</time>
      </trkpt>
      <trkpt lat="43.76831" lon="7.07003">
        <ele>929.59997558594</ele>
        <time>2023-08-02T08:03:28.000Z</time>
      </trkpt>
      <trkpt lat="43.76831" lon="7.07003">
        <ele>929.59997558594</ele>
        <time>2023-08-02T08:03:29.000Z</time>
      </trkpt>
      <trkpt lat="43.76831" lon="7.07003">
        <ele>929.59997558594</ele>
        <time>2023-08-02T08:03:30.000Z</time>
      </trkpt>
      <trkpt lat="43.76831" lon="7.07003">
        <ele>929.59997558594</ele>
        <time>2023-08-02T08:03:31.000Z</time>
      </trkpt>
      <trkpt lat="43.76831" lon="7.07001">
        <ele>929.59997558594</ele>
        <time>2023-08-02T08:03:32.000Z</time>
      </trkpt>
      <trkpt lat="43.76831" lon="7.06998">
        <ele>929.59997558594</ele>
        <time>2023-08-02T08:03:33.000Z</time>
      </trkpt>
      <trkpt lat="43.76831" lon="7.06995">
        <ele>929.79998779297</ele>
        <time>2023-08-02T08:03:34.000Z</time>
      </trkpt>
      <trkpt lat="43.76831" lon="7.06991">
        <ele>929.79998779297</ele>
        <time>2023-08-02T08:03:35.000Z</time>
      </trkpt>
      <trkpt lat="43.76831" lon="7.06986">
        <ele>929.79998779297</ele>
        <time>2023-08-02T08:03:36.000Z</time>
      </trkpt>
      <trkpt lat="43.76832" lon="7.06982">
        <ele>929.79998779297</ele>
        <time>2023-08-02T08:03:37.000Z</time>
      </trkpt>
      <trkpt lat="43.76833" lon="7.06978">
        <ele>929.20001220703</ele>
        <time>2023-08-02T08:03:38.000Z</time>
      </trkpt>
      <trkpt lat="43.76834" lon="7.06975">
        <ele>929</ele>
        <time>2023-08-02T08:03:39.000Z</time>
      </trkpt>
      <trkpt lat="43.76835" lon="7.06973">
        <ele>928.59997558594</ele>
        <time>2023-08-02T08:03:40.000Z</time>
      </trkpt>
      <trkpt lat="43.76836" lon="7.06971">
        <ele>928.40002441406</ele>
        <time>2023-08-02T08:03:41.000Z</time>
      </trkpt>
      <trkpt lat="43.76837" lon="7.06968">
        <ele>928</ele>
        <time>2023-08-02T08:03:42.000Z</time>
      </trkpt>
      <trkpt lat="43.76837" lon="7.06965">
        <ele>927.59997558594</ele>
        <time>2023-08-02T08:03:43.000Z</time>
      </trkpt>
      <trkpt lat="43.76838" lon="7.06963">
        <ele>927.40002441406</ele>
        <time>2023-08-02T08:03:44.000Z</time>
      </trkpt>
      <trkpt lat="43.7684" lon="7.06962">
        <ele>927</ele>
        <time>2023-08-02T08:03:45.000Z</time>
      </trkpt>
      <trkpt lat="43.76842" lon="7.06962">
        <ele>927</ele>
        <time>2023-08-02T08:03:46.000Z</time>
      </trkpt>
      <trkpt lat="43.76845" lon="7.06965">
        <ele>927</ele>
        <time>2023-08-02T08:03:47.000Z</time>
      </trkpt>
      <trkpt lat="43.76847" lon="7.06967">
        <ele>926.59997558594</ele>
        <time>2023-08-02T08:03:48.000Z</time>
      </trkpt>
      <trkpt lat="43.7685" lon="7.0697">
        <ele>926.40002441406</ele>
        <time>2023-08-02T08:03:49.000Z</time>
      </trkpt>
      <trkpt lat="43.76853" lon="7.06972">
        <ele>926.40002441406</ele>
        <time>2023-08-02T08:03:50.000Z</time>
      </trkpt>
      <trkpt lat="43.76856" lon="7.06974">
        <ele>926.20001220703</ele>
        <time>2023-08-02T08:03:51.000Z</time>
      </trkpt>
      <trkpt lat="43.76858" lon="7.06976">
        <ele>926.20001220703</ele>
        <time>2023-08-02T08:03:52.000Z</time>
      </trkpt>
      <trkpt lat="43.76861" lon="7.06978">
        <ele>925.79998779297</ele>
        <time>2023-08-02T08:03:53.000Z</time>
      </trkpt>
      <trkpt lat="43.76864" lon="7.06981">
        <ele>925.59997558594</ele>
        <time>2023-08-02T08:03:54.000Z</time>
      </trkpt>
      <trkpt lat="43.76866" lon="7.06983">
        <ele>925.59997558594</ele>
        <time>2023-08-02T08:03:55.000Z</time>
      </trkpt>
      <trkpt lat="43.7687" lon="7.06985">
        <ele>925.59997558594</ele>
        <time>2023-08-02T08:03:56.000Z</time>
      </trkpt>
      <trkpt lat="43.76872" lon="7.06987">
        <ele>925.59997558594</ele>
        <time>2023-08-02T08:03:57.000Z</time>
      </trkpt>
      <trkpt lat="43.76875" lon="7.06989">
        <ele>925.40002441406</ele>
        <time>2023-08-02T08:03:58.000Z</time>
      </trkpt>
      <trkpt lat="43.76878" lon="7.06992">
        <ele>925.40002441406</ele>
        <time>2023-08-02T08:03:59.000Z</time>
      </trkpt>
      <trkpt lat="43.76882" lon="7.06995">
        <ele>925.40002441406</ele>
        <time>2023-08-02T08:04:00.000Z</time>
      </trkpt>
      <trkpt lat="43.76885" lon="7.06996">
        <ele>925.40002441406</ele>
        <time>2023-08-02T08:04:01.000Z</time>
      </trkpt>
      <trkpt lat="43.76889" lon="7.06999">
        <ele>925.40002441406</ele>
        <time>2023-08-02T08:04:02.000Z</time>
      </trkpt>
      <trkpt lat="43.76892" lon="7.07002">
        <ele>925.40002441406</ele>
        <time>2023-08-02T08:04:03.000Z</time>
      </trkpt>
      <trkpt lat="43.76896" lon="7.07004">
        <ele>925.20001220703</ele>
        <time>2023-08-02T08:04:04.000Z</time>
      </trkpt>
      <trkpt lat="43.769" lon="7.07006">
        <ele>925.20001220703</ele>
        <time>2023-08-02T08:04:05.000Z</time>
      </trkpt>
      <trkpt lat="43.76903" lon="7.07008">
        <ele>925.20001220703</ele>
        <time>2023-08-02T08:04:06.000Z</time>
      </trkpt>
      <trkpt lat="43.76907" lon="7.07011">
        <ele>925.20001220703</ele>
        <time>2023-08-02T08:04:07.000Z</time>
      </trkpt>
      <trkpt lat="43.76911" lon="7.07014">
        <ele>925.20001220703</ele>
        <time>2023-08-02T08:04:08.000Z</time>
      </trkpt>
      <trkpt lat="43.76914" lon="7.07017">
        <ele>925.20001220703</ele>
        <time>2023-08-02T08:04:09.000Z</time>
      </trkpt>
      <trkpt lat="43.76918" lon="7.0702">
        <ele>925.20001220703</ele>
        <time>2023-08-02T08:04:10.000Z</time>
      </trkpt>
      <trkpt lat="43.76923" lon="7.07023">
        <ele>925.20001220703</ele>
        <time>2023-08-02T08:04:11.000Z</time>
      </trkpt>
      <trkpt lat="43.76927" lon="7.07025">
        <ele>925</ele>
        <time>2023-08-02T08:04:12.000Z</time>
      </trkpt>
      <trkpt lat="43.76932" lon="7.07028">
        <ele>924.79998779297</ele>
        <time>2023-08-02T08:04:13.000Z</time>
      </trkpt>
      <trkpt lat="43.76935" lon="7.07032">
        <ele>924.79998779297</ele>
        <time>2023-08-02T08:04:14.000Z</time>
      </trkpt>
      <trkpt lat="43.7694" lon="7.07036">
        <ele>924.59997558594</ele>
        <time>2023-08-02T08:04:15.000Z</time>
      </trkpt>
      <trkpt lat="43.76944" lon="7.0704">
        <ele>924.40002441406</ele>
        <time>2023-08-02T08:04:16.000Z</time>
      </trkpt>
      <trkpt lat="43.76948" lon="7.07044">
        <ele>924.40002441406</ele>
        <time>2023-08-02T08:04:17.000Z</time>
      </trkpt>
      <trkpt lat="43.76953" lon="7.07048">
        <ele>923.79998779297</ele>
        <time>2023-08-02T08:04:18.000Z</time>
      </trkpt>
      <trkpt lat="43.76958" lon="7.07053">
        <ele>923.40002441406</ele>
        <time>2023-08-02T08:04:19.000Z</time>
      </trkpt>
      <trkpt lat="43.76963" lon="7.07057">
        <ele>923.40002441406</ele>
        <time>2023-08-02T08:04:20.000Z</time>
      </trkpt>
      <trkpt lat="43.76967" lon="7.07061">
        <ele>923.40002441406</ele>
        <time>2023-08-02T08:04:21.000Z</time>
      </trkpt>
      <trkpt lat="43.76973" lon="7.07066">
        <ele>923</ele>
        <time>2023-08-02T08:04:22.000Z</time>
      </trkpt>
      <trkpt lat="43.76978" lon="7.0707">
        <ele>922.59997558594</ele>
        <time>2023-08-02T08:04:23.000Z</time>
      </trkpt>
      <trkpt lat="43.76983" lon="7.07075">
        <ele>922.59997558594</ele>
        <time>2023-08-02T08:04:24.000Z</time>
      </trkpt>
      <trkpt lat="43.76988" lon="7.07081">
        <ele>922.40002441406</ele>
        <time>2023-08-02T08:04:25.000Z</time>
      </trkpt>
      <trkpt lat="43.76991" lon="7.07087">
        <ele>922</ele>
        <time>2023-08-02T08:04:26.000Z</time>
      </trkpt>
      <trkpt lat="43.76995" lon="7.07094">
        <ele>921.20001220703</ele>
        <time>2023-08-02T08:04:27.000Z</time>
      </trkpt>
      <trkpt lat="43.76999" lon="7.07101">
        <ele>921.20001220703</ele>
        <time>2023-08-02T08:04:28.000Z</time>
      </trkpt>
      <trkpt lat="43.77001" lon="7.0711">
        <ele>920.59997558594</ele>
        <time>2023-08-02T08:04:29.000Z</time>
      </trkpt>
      <trkpt lat="43.77004" lon="7.07117">
        <ele>920.40002441406</ele>
        <time>2023-08-02T08:04:30.000Z</time>
      </trkpt>
      <trkpt lat="43.77008" lon="7.07125">
        <ele>920.20001220703</ele>
        <time>2023-08-02T08:04:31.000Z</time>
      </trkpt>
      <trkpt lat="43.77012" lon="7.07132">
        <ele>919.59997558594</ele>
        <time>2023-08-02T08:04:32.000Z</time>
      </trkpt>
      <trkpt lat="43.77017" lon="7.07138">
        <ele>919.59997558594</ele>
        <time>2023-08-02T08:04:33.000Z</time>
      </trkpt>
      <trkpt lat="43.77023" lon="7.07143">
        <ele>918.79998779297</ele>
        <time>2023-08-02T08:04:34.000Z</time>
      </trkpt>
      <trkpt lat="43.77027" lon="7.07149">
        <ele>918.59997558594</ele>
        <time>2023-08-02T08:04:35.000Z</time>
      </trkpt>
      <trkpt lat="43.77032" lon="7.07154">
        <ele>918.20001220703</ele>
        <time>2023-08-02T08:04:36.000Z</time>
      </trkpt>
      <trkpt lat="43.77038" lon="7.07159">
        <ele>918</ele>
        <time>2023-08-02T08:04:37.000Z</time>
      </trkpt>
      <trkpt lat="43.77044" lon="7.07164">
        <ele>917.20001220703</ele>
        <time>2023-08-02T08:04:38.000Z</time>
      </trkpt>
      <trkpt lat="43.7705" lon="7.07169">
        <ele>917</ele>
        <time>2023-08-02T08:04:39.000Z</time>
      </trkpt>
      <trkpt lat="43.77056" lon="7.07174">
        <ele>916.20001220703</ele>
        <time>2023-08-02T08:04:40.000Z</time>
      </trkpt>
      <trkpt lat="43.77062" lon="7.07179">
        <ele>915.79998779297</ele>
        <time>2023-08-02T08:04:41.000Z</time>
      </trkpt>
      <trkpt lat="43.77069" lon="7.07185">
        <ele>915.40002441406</ele>
        <time>2023-08-02T08:04:42.000Z</time>
      </trkpt>
      <trkpt lat="43.77075" lon="7.0719">
        <ele>915.20001220703</ele>
        <time>2023-08-02T08:04:43.000Z</time>
      </trkpt>
      <trkpt lat="43.7708" lon="7.07195">
        <ele>914.20001220703</ele>
        <time>2023-08-02T08:04:44.000Z</time>
      </trkpt>
      <trkpt lat="43.77086" lon="7.07199">
        <ele>914.20001220703</ele>
        <time>2023-08-02T08:04:45.000Z</time>
      </trkpt>
      <trkpt lat="43.77092" lon="7.07202">
        <ele>913</ele>
        <time>2023-08-02T08:04:46.000Z</time>
      </trkpt>
      <trkpt lat="43.77099" lon="7.07206">
        <ele>913</ele>
        <time>2023-08-02T08:04:47.000Z</time>
      </trkpt>
      <trkpt lat="43.77104" lon="7.0721">
        <ele>912.59997558594</ele>
        <time>2023-08-02T08:04:48.000Z</time>
      </trkpt>
      <trkpt lat="43.7711" lon="7.07215">
        <ele>912.40002441406</ele>
        <time>2023-08-02T08:04:49.000Z</time>
      </trkpt>
      <trkpt lat="43.77115" lon="7.0722">
        <ele>912</ele>
        <time>2023-08-02T08:04:50.000Z</time>
      </trkpt>
      <trkpt lat="43.7712" lon="7.07225">
        <ele>911.59997558594</ele>
        <time>2023-08-02T08:04:51.000Z</time>
      </trkpt>
      <trkpt lat="43.77125" lon="7.0723">
        <ele>910.79998779297</ele>
        <time>2023-08-02T08:04:52.000Z</time>
      </trkpt>
      <trkpt lat="43.77131" lon="7.07235">
        <ele>910.20001220703</ele>
        <time>2023-08-02T08:04:53.000Z</time>
      </trkpt>
      <trkpt lat="43.77137" lon="7.0724">
        <ele>910</ele>
        <time>2023-08-02T08:04:54.000Z</time>
      </trkpt>
      <trkpt lat="43.77143" lon="7.07245">
        <ele>909.79998779297</ele>
        <time>2023-08-02T08:04:55.000Z</time>
      </trkpt>
      <trkpt lat="43.77148" lon="7.07251">
        <ele>909</ele>
        <time>2023-08-02T08:04:56.000Z</time>
      </trkpt>
      <trkpt lat="43.77153" lon="7.07258">
        <ele>908.79998779297</ele>
        <time>2023-08-02T08:04:57.000Z</time>
      </trkpt>
      <trkpt lat="43.77158" lon="7.07265">
        <ele>908.59997558594</ele>
        <time>2023-08-02T08:04:58.000Z</time>
      </trkpt>
      <trkpt lat="43.77164" lon="7.07272">
        <ele>908.40002441406</ele>
        <time>2023-08-02T08:04:59.000Z</time>
      </trkpt>
      <trkpt lat="43.7717" lon="7.07279">
        <ele>907.40002441406</ele>
        <time>2023-08-02T08:05:00.000Z</time>
      </trkpt>
      <trkpt lat="43.77176" lon="7.07287">
        <ele>906.79998779297</ele>
        <time>2023-08-02T08:05:01.000Z</time>
      </trkpt>
      <trkpt lat="43.77181" lon="7.07295">
        <ele>906.40002441406</ele>
        <time>2023-08-02T08:05:02.000Z</time>
      </trkpt>
      <trkpt lat="43.77187" lon="7.07303">
        <ele>906.20001220703</ele>
        <time>2023-08-02T08:05:03.000Z</time>
      </trkpt>
      <trkpt lat="43.77193" lon="7.0731">
        <ele>905.59997558594</ele>
        <time>2023-08-02T08:05:04.000Z</time>
      </trkpt>
      <trkpt lat="43.77199" lon="7.07317">
        <ele>905.59997558594</ele>
        <time>2023-08-02T08:05:05.000Z</time>
      </trkpt>
      <trkpt lat="43.77206" lon="7.07324">
        <ele>904.59997558594</ele>
        <time>2023-08-02T08:05:06.000Z</time>
      </trkpt>
      <trkpt lat="43.77213" lon="7.0733">
        <ele>904.59997558594</ele>
        <time>2023-08-02T08:05:07.000Z</time>
      </trkpt>
      <trkpt lat="43.77219" lon="7.07335">
        <ele>904.59997558594</ele>
        <time>2023-08-02T08:05:08.000Z</time>
      </trkpt>
      <trkpt lat="43.77224" lon="7.07339">
        <ele>903</ele>
        <time>2023-08-02T08:05:09.000Z</time>
      </trkpt>
      <trkpt lat="43.77228" lon="7.07343">
        <ele>902.79998779297</ele>
        <time>2023-08-02T08:05:10.000Z</time>
      </trkpt>
      <trkpt lat="43.77232" lon="7.07346">
        <ele>902.79998779297</ele>
        <time>2023-08-02T08:05:11.000Z</time>
      </trkpt>
      <trkpt lat="43.77235" lon="7.07349">
        <ele>902.20001220703</ele>
        <time>2023-08-02T08:05:12.000Z</time>
      </trkpt>
      <trkpt lat="43.77238" lon="7.07352">
        <ele>900.59997558594</ele>
        <time>2023-08-02T08:05:13.000Z</time>
      </trkpt>
      <trkpt lat="43.7724" lon="7.07353">
        <ele>900.59997558594</ele>
        <time>2023-08-02T08:05:14.000Z</time>
      </trkpt>
      <trkpt lat="43.77243" lon="7.07355">
        <ele>900.20001220703</ele>
        <time>2023-08-02T08:05:15.000Z</time>
      </trkpt>
      <trkpt lat="43.77246" lon="7.07358">
        <ele>900</ele>
        <time>2023-08-02T08:05:16.000Z</time>
      </trkpt>
      <trkpt lat="43.77249" lon="7.07361">
        <ele>899</ele>
        <time>2023-08-02T08:05:17.000Z</time>
      </trkpt>
      <trkpt lat="43.77253" lon="7.07363">
        <ele>899</ele>
        <time>2023-08-02T08:05:18.000Z</time>
      </trkpt>
      <trkpt lat="43.77258" lon="7.07366">
        <ele>898.59997558594</ele>
        <time>2023-08-02T08:05:19.000Z</time>
      </trkpt>
      <trkpt lat="43.77262" lon="7.07368">
        <ele>898.40002441406</ele>
        <time>2023-08-02T08:05:20.000Z</time>
      </trkpt>
      <trkpt lat="43.77267" lon="7.0737">
        <ele>898.40002441406</ele>
        <time>2023-08-02T08:05:21.000Z</time>
      </trkpt>
      <trkpt lat="43.77272" lon="7.07374">
        <ele>897.40002441406</ele>
        <time>2023-08-02T08:05:22.000Z</time>
      </trkpt>
      <trkpt lat="43.77278" lon="7.07379">
        <ele>897.40002441406</ele>
        <time>2023-08-02T08:05:23.000Z</time>
      </trkpt>
      <trkpt lat="43.77283" lon="7.07385">
        <ele>896.79998779297</ele>
        <time>2023-08-02T08:05:24.000Z</time>
      </trkpt>
      <trkpt lat="43.77288" lon="7.07392">
        <ele>896.79998779297</ele>
        <time>2023-08-02T08:05:25.000Z</time>
      </trkpt>
      <trkpt lat="43.77294" lon="7.074">
        <ele>896.59997558594</ele>
        <time>2023-08-02T08:05:26.000Z</time>
      </trkpt>
      <trkpt lat="43.77298" lon="7.07407">
        <ele>896.20001220703</ele>
        <time>2023-08-02T08:05:27.000Z</time>
      </trkpt>
      <trkpt lat="43.77303" lon="7.07415">
        <ele>895.79998779297</ele>
        <time>2023-08-02T08:05:28.000Z</time>
      </trkpt>
      <trkpt lat="43.77309" lon="7.07423">
        <ele>894.59997558594</ele>
        <time>2023-08-02T08:05:29.000Z</time>
      </trkpt>
      <trkpt lat="43.77316" lon="7.07431">
        <ele>894.20001220703</ele>
        <time>2023-08-02T08:05:30.000Z</time>
      </trkpt>
      <trkpt lat="43.77323" lon="7.07439">
        <ele>893</ele>
        <time>2023-08-02T08:05:31.000Z</time>
      </trkpt>
      <trkpt lat="43.7733" lon="7.07447">
        <ele>893</ele>
        <time>2023-08-02T08:05:32.000Z</time>
      </trkpt>
      <trkpt lat="43.77336" lon="7.07455">
        <ele>892.40002441406</ele>
        <time>2023-08-02T08:05:33.000Z</time>
      </trkpt>
      <trkpt lat="43.77342" lon="7.07463">
        <ele>891.20001220703</ele>
        <time>2023-08-02T08:05:34.000Z</time>
      </trkpt>
      <trkpt lat="43.77348" lon="7.07469">
        <ele>890.79998779297</ele>
        <time>2023-08-02T08:05:35.000Z</time>
      </trkpt>
      <trkpt lat="43.77355" lon="7.07475">
        <ele>890</ele>
        <time>2023-08-02T08:05:36.000Z</time>
      </trkpt>
      <trkpt lat="43.77361" lon="7.0748">
        <ele>889.20001220703</ele>
        <time>2023-08-02T08:05:37.000Z</time>
      </trkpt>
      <trkpt lat="43.77367" lon="7.07485">
        <ele>888.20001220703</ele>
        <time>2023-08-02T08:05:38.000Z</time>
      </trkpt>
      <trkpt lat="43.77373" lon="7.0749">
        <ele>887.79998779297</ele>
        <time>2023-08-02T08:05:39.000Z</time>
      </trkpt>
      <trkpt lat="43.77379" lon="7.07494">
        <ele>886.59997558594</ele>
        <time>2023-08-02T08:05:40.000Z</time>
      </trkpt>
      <trkpt lat="43.77384" lon="7.07499">
        <ele>886.59997558594</ele>
        <time>2023-08-02T08:05:41.000Z</time>
      </trkpt>
      <trkpt lat="43.77391" lon="7.07503">
        <ele>885.20001220703</ele>
        <time>2023-08-02T08:05:42.000Z</time>
      </trkpt>
      <trkpt lat="43.77397" lon="7.07508">
        <ele>885</ele>
        <time>2023-08-02T08:05:43.000Z</time>
      </trkpt>
      <trkpt lat="43.77403" lon="7.07512">
        <ele>884.20001220703</ele>
        <time>2023-08-02T08:05:44.000Z</time>
      </trkpt>
      <trkpt lat="43.7741" lon="7.07515">
        <ele>883.79998779297</ele>
        <time>2023-08-02T08:05:45.000Z</time>
      </trkpt>
      <trkpt lat="43.77416" lon="7.07518">
        <ele>882</ele>
        <time>2023-08-02T08:05:46.000Z</time>
      </trkpt>
      <trkpt lat="43.77422" lon="7.07522">
        <ele>881.40002441406</ele>
        <time>2023-08-02T08:05:47.000Z</time>
      </trkpt>
      <trkpt lat="43.77429" lon="7.07527">
        <ele>881.40002441406</ele>
        <time>2023-08-02T08:05:48.000Z</time>
      </trkpt>
      <trkpt lat="43.77434" lon="7.0753">
        <ele>881</ele>
        <time>2023-08-02T08:05:49.000Z</time>
      </trkpt>
      <trkpt lat="43.7744" lon="7.07534">
        <ele>878.40002441406</ele>
        <time>2023-08-02T08:05:50.000Z</time>
      </trkpt>
      <trkpt lat="43.77445" lon="7.07537">
        <ele>878.20001220703</ele>
        <time>2023-08-02T08:05:51.000Z</time>
      </trkpt>
      <trkpt lat="43.77448" lon="7.07539">
        <ele>877.59997558594</ele>
        <time>2023-08-02T08:05:52.000Z</time>
      </trkpt>
      <trkpt lat="43.7745" lon="7.07542">
        <ele>877.40002441406</ele>
        <time>2023-08-02T08:05:53.000Z</time>
      </trkpt>
      <trkpt lat="43.77453" lon="7.07544">
        <ele>875.59997558594</ele>
        <time>2023-08-02T08:05:54.000Z</time>
      </trkpt>
      <trkpt lat="43.77455" lon="7.07546">
        <ele>875.20001220703</ele>
        <time>2023-08-02T08:05:55.000Z</time>
      </trkpt>
      <trkpt lat="43.77458" lon="7.07548">
        <ele>875.20001220703</ele>
        <time>2023-08-02T08:05:56.000Z</time>
      </trkpt>
      <trkpt lat="43.77462" lon="7.07551">
        <ele>875.20001220703</ele>
        <time>2023-08-02T08:05:57.000Z</time>
      </trkpt>
      <trkpt lat="43.77465" lon="7.07556">
        <ele>875</ele>
        <time>2023-08-02T08:05:58.000Z</time>
      </trkpt>
      <trkpt lat="43.77467" lon="7.07559">
        <ele>874.79998779297</ele>
        <time>2023-08-02T08:05:59.000Z</time>
      </trkpt>
      <trkpt lat="43.77469" lon="7.07562">
        <ele>874</ele>
        <time>2023-08-02T08:06:00.000Z</time>
      </trkpt>
      <trkpt lat="43.77471" lon="7.07563">
        <ele>874</ele>
        <time>2023-08-02T08:06:01.000Z</time>
      </trkpt>
      <trkpt lat="43.77472" lon="7.07561">
        <ele>873.79998779297</ele>
        <time>2023-08-02T08:06:02.000Z</time>
      </trkpt>
      <trkpt lat="43.77473" lon="7.07561">
        <ele>873.40002441406</ele>
        <time>2023-08-02T08:06:03.000Z</time>
      </trkpt>
      <trkpt lat="43.77473" lon="7.07561">
        <ele>873</ele>
        <time>2023-08-02T08:06:04.000Z</time>
      </trkpt>
      <trkpt lat="43.77473" lon="7.07561">
        <ele>872.79998779297</ele>
        <time>2023-08-02T08:06:05.000Z</time>
      </trkpt>
      <trkpt lat="43.77473" lon="7.07561">
        <ele>872.59997558594</ele>
        <time>2023-08-02T08:06:06.000Z</time>
      </trkpt>
      <trkpt lat="43.77473" lon="7.07561">
        <ele>872.40002441406</ele>
        <time>2023-08-02T08:06:07.000Z</time>
      </trkpt>
      <trkpt lat="43.77473" lon="7.07561">
        <ele>872.20001220703</ele>
        <time>2023-08-02T08:06:08.000Z</time>
      </trkpt>
      <trkpt lat="43.77473" lon="7.07561">
        <ele>872.20001220703</ele>
        <time>2023-08-02T08:06:09.000Z</time>
      </trkpt>
      <trkpt lat="43.77473" lon="7.07561">
        <ele>872.20001220703</ele>
        <time>2023-08-02T08:06:10.000Z</time>
      </trkpt>
      <trkpt lat="43.77473" lon="7.07561">
        <ele>872.20001220703</ele>
        <time>2023-08-02T08:06:11.000Z</time>
      </trkpt>
      <trkpt lat="43.77473" lon="7.07561">
        <ele>872.20001220703</ele>
        <time>2023-08-02T08:06:12.000Z</time>
      </trkpt>
      <trkpt lat="43.77473" lon="7.07561">
        <ele>872.20001220703</ele>
        <time>2023-08-02T08:06:13.000Z</time>
      </trkpt>
      <trkpt lat="43.77474" lon="7.07561">
        <ele>872.20001220703</ele>
        <time>2023-08-02T08:06:14.000Z</time>
      </trkpt>
      <trkpt lat="43.77474" lon="7.07561">
        <ele>872.20001220703</ele>
        <time>2023-08-02T08:06:15.000Z</time>
      </trkpt>
      <trkpt lat="43.77474" lon="7.07561">
        <ele>872.20001220703</ele>
        <time>2023-08-02T08:06:16.000Z</time>
      </trkpt>
      <trkpt lat="43.77474" lon="7.07561">
        <ele>872.20001220703</ele>
        <time>2023-08-02T08:06:17.000Z</time>
      </trkpt>
      <trkpt lat="43.77474" lon="7.07561">
        <ele>872.20001220703</ele>
        <time>2023-08-02T08:06:18.000Z</time>
      </trkpt>
      <trkpt lat="43.77474" lon="7.07561">
        <ele>872.20001220703</ele>
        <time>2023-08-02T08:06:19.000Z</time>
      </trkpt>
      <trkpt lat="43.77474" lon="7.07561">
        <ele>872.20001220703</ele>
        <time>2023-08-02T08:06:20.000Z</time>
      </trkpt>
      <trkpt lat="43.77474" lon="7.07561">
        <ele>872.20001220703</ele>
        <time>2023-08-02T08:06:21.000Z</time>
      </trkpt>
      <trkpt lat="43.77474" lon="7.07561">
        <ele>872.20001220703</ele>
        <time>2023-08-02T08:06:22.000Z</time>
      </trkpt>
      <trkpt lat="43.77474" lon="7.07561">
        <ele>872.20001220703</ele>
        <time>2023-08-02T08:06:23.000Z</time>
      </trkpt>
      <trkpt lat="43.77474" lon="7.07561">
        <ele>872.20001220703</ele>
        <time>2023-08-02T08:06:24.000Z</time>
      </trkpt>
      <trkpt lat="43.77474" lon="7.07561">
        <ele>872.20001220703</ele>
        <time>2023-08-02T08:06:25.000Z</time>
      </trkpt>
      <trkpt lat="43.77474" lon="7.07561">
        <ele>872.20001220703</ele>
        <time>2023-08-02T08:06:26.000Z</time>
      </trkpt>
      <trkpt lat="43.77474" lon="7.07561">
        <ele>872.20001220703</ele>
        <time>2023-08-02T08:06:27.000Z</time>
      </trkpt>
      <trkpt lat="43.77475" lon="7.07561">
        <ele>872.20001220703</ele>
        <time>2023-08-02T08:06:28.000Z</time>
      </trkpt>
      <trkpt lat="43.77475" lon="7.07561">
        <ele>872.20001220703</ele>
        <time>2023-08-02T08:06:29.000Z</time>
      </trkpt>
      <trkpt lat="43.77475" lon="7.07561">
        <ele>872.20001220703</ele>
        <time>2023-08-02T08:06:30.000Z</time>
      </trkpt>
      <trkpt lat="43.77475" lon="7.07561">
        <ele>872.20001220703</ele>
        <time>2023-08-02T08:06:31.000Z</time>
      </trkpt>
      <trkpt lat="43.77475" lon="7.07561">
        <ele>872.20001220703</ele>
        <time>2023-08-02T08:06:32.000Z</time>
      </trkpt>
      <trkpt lat="43.77475" lon="7.07561">
        <ele>872</ele>
        <time>2023-08-02T08:06:33.000Z</time>
      </trkpt>
      <trkpt lat="43.77475" lon="7.07561">
        <ele>872</ele>
        <time>2023-08-02T08:06:34.000Z</time>
      </trkpt>
      <trkpt lat="43.77475" lon="7.07561">
        <ele>872</ele>
        <time>2023-08-02T08:06:35.000Z</time>
      </trkpt>
      <trkpt lat="43.77475" lon="7.07561">
        <ele>872</ele>
        <time>2023-08-02T08:06:36.000Z</time>
      </trkpt>
      <trkpt lat="43.77475" lon="7.07561">
        <ele>872</ele>
        <time>2023-08-02T08:06:37.000Z</time>
      </trkpt>
      <trkpt lat="43.77475" lon="7.07561">
        <ele>872</ele>
        <time>2023-08-02T08:06:38.000Z</time>
      </trkpt>
      <trkpt lat="43.77474" lon="7.07561">
        <ele>872</ele>
        <time>2023-08-02T08:06:39.000Z</time>
      </trkpt>
      <trkpt lat="43.77474" lon="7.07561">
        <ele>872</ele>
        <time>2023-08-02T08:06:40.000Z</time>
      </trkpt>
      <trkpt lat="43.77474" lon="7.07561">
        <ele>872</ele>
        <time>2023-08-02T08:06:41.000Z</time>
      </trkpt>
      <trkpt lat="43.77474" lon="7.0756">
        <ele>872</ele>
        <time>2023-08-02T08:06:42.000Z</time>
      </trkpt>
      <trkpt lat="43.77473" lon="7.07559">
        <ele>872</ele>
        <time>2023-08-02T08:06:43.000Z</time>
      </trkpt>
      <trkpt lat="43.77473" lon="7.07557">
        <ele>872</ele>
        <time>2023-08-02T08:06:44.000Z</time>
      </trkpt>
      <trkpt lat="43.77472" lon="7.07555">
        <ele>872</ele>
        <time>2023-08-02T08:06:45.000Z</time>
      </trkpt>
      <trkpt lat="43.7747" lon="7.07552">
        <ele>872</ele>
        <time>2023-08-02T08:06:46.000Z</time>
      </trkpt>
      <trkpt lat="43.77468" lon="7.07548">
        <ele>871.79998779297</ele>
        <time>2023-08-02T08:06:47.000Z</time>
      </trkpt>
      <trkpt lat="43.77467" lon="7.07545">
        <ele>871.40002441406</ele>
        <time>2023-08-02T08:06:48.000Z</time>
      </trkpt>
      <trkpt lat="43.77464" lon="7.07542">
        <ele>871.40002441406</ele>
        <time>2023-08-02T08:06:49.000Z</time>
      </trkpt>
      <trkpt lat="43.77462" lon="7.07539">
        <ele>870.79998779297</ele>
        <time>2023-08-02T08:06:50.000Z</time>
      </trkpt>
      <trkpt lat="43.77459" lon="7.07536">
        <ele>870.79998779297</ele>
        <time>2023-08-02T08:06:51.000Z</time>
      </trkpt>
      <trkpt lat="43.77456" lon="7.07533">
        <ele>870</ele>
        <time>2023-08-02T08:06:52.000Z</time>
      </trkpt>
      <trkpt lat="43.77453" lon="7.0753">
        <ele>870</ele>
        <time>2023-08-02T08:06:53.000Z</time>
      </trkpt>
      <trkpt lat="43.7745" lon="7.07527">
        <ele>869.59997558594</ele>
        <time>2023-08-02T08:06:54.000Z</time>
      </trkpt>
      <trkpt lat="43.77447" lon="7.07525">
        <ele>869.40002441406</ele>
        <time>2023-08-02T08:06:55.000Z</time>
      </trkpt>
      <trkpt lat="43.77445" lon="7.07523">
        <ele>868.59997558594</ele>
        <time>2023-08-02T08:06:56.000Z</time>
      </trkpt>
      <trkpt lat="43.77444" lon="7.07521">
        <ele>868.59997558594</ele>
        <time>2023-08-02T08:06:57.000Z</time>
      </trkpt>
      <trkpt lat="43.77442" lon="7.07519">
        <ele>867.59997558594</ele>
        <time>2023-08-02T08:06:58.000Z</time>
      </trkpt>
      <trkpt lat="43.77441" lon="7.07516">
        <ele>867.59997558594</ele>
        <time>2023-08-02T08:06:59.000Z</time>
      </trkpt>
      <trkpt lat="43.7744" lon="7.07514">
        <ele>867.40002441406</ele>
        <time>2023-08-02T08:07:00.000Z</time>
      </trkpt>
      <trkpt lat="43.77441" lon="7.07513">
        <ele>866.79998779297</ele>
        <time>2023-08-02T08:07:01.000Z</time>
      </trkpt>
      <trkpt lat="43.77442" lon="7.07512">
        <ele>866.40002441406</ele>
        <time>2023-08-02T08:07:02.000Z</time>
      </trkpt>
      <trkpt lat="43.77444" lon="7.07512">
        <ele>866.20001220703</ele>
        <time>2023-08-02T08:07:03.000Z</time>
      </trkpt>
      <trkpt lat="43.77447" lon="7.07513">
        <ele>865.79998779297</ele>
        <time>2023-08-02T08:07:04.000Z</time>
      </trkpt>
      <trkpt lat="43.7745" lon="7.07515">
        <ele>865.59997558594</ele>
        <time>2023-08-02T08:07:05.000Z</time>
      </trkpt>
      <trkpt lat="43.77452" lon="7.07516">
        <ele>865</ele>
        <time>2023-08-02T08:07:06.000Z</time>
      </trkpt>
      <trkpt lat="43.77454" lon="7.07519">
        <ele>865</ele>
        <time>2023-08-02T08:07:07.000Z</time>
      </trkpt>
      <trkpt lat="43.77457" lon="7.07521">
        <ele>865</ele>
        <time>2023-08-02T08:07:08.000Z</time>
      </trkpt>
      <trkpt lat="43.77459" lon="7.07524">
        <ele>864.59997558594</ele>
        <time>2023-08-02T08:07:09.000Z</time>
      </trkpt>
      <trkpt lat="43.77461" lon="7.07526">
        <ele>864.59997558594</ele>
        <time>2023-08-02T08:07:10.000Z</time>
      </trkpt>
      <trkpt lat="43.77464" lon="7.07529">
        <ele>864.20001220703</ele>
        <time>2023-08-02T08:07:11.000Z</time>
      </trkpt>
      <trkpt lat="43.77467" lon="7.07533">
        <ele>864.20001220703</ele>
        <time>2023-08-02T08:07:12.000Z</time>
      </trkpt>
      <trkpt lat="43.7747" lon="7.07538">
        <ele>863.79998779297</ele>
        <time>2023-08-02T08:07:13.000Z</time>
      </trkpt>
      <trkpt lat="43.77472" lon="7.07541">
        <ele>863.79998779297</ele>
        <time>2023-08-02T08:07:14.000Z</time>
      </trkpt>
      <trkpt lat="43.77474" lon="7.07544">
        <ele>863.20001220703</ele>
        <time>2023-08-02T08:07:15.000Z</time>
      </trkpt>
      <trkpt lat="43.77475" lon="7.07546">
        <ele>863.20001220703</ele>
        <time>2023-08-02T08:07:16.000Z</time>
      </trkpt>
      <trkpt lat="43.77476" lon="7.07549">
        <ele>863</ele>
        <time>2023-08-02T08:07:17.000Z</time>
      </trkpt>
      <trkpt lat="43.77477" lon="7.0755">
        <ele>862.59997558594</ele>
        <time>2023-08-02T08:07:18.000Z</time>
      </trkpt>
      <trkpt lat="43.77478" lon="7.07552">
        <ele>862.40002441406</ele>
        <time>2023-08-02T08:07:19.000Z</time>
      </trkpt>
      <trkpt lat="43.7748" lon="7.07555">
        <ele>862</ele>
        <time>2023-08-02T08:07:20.000Z</time>
      </trkpt>
      <trkpt lat="43.77481" lon="7.07557">
        <ele>862</ele>
        <time>2023-08-02T08:07:21.000Z</time>
      </trkpt>
      <trkpt lat="43.77481" lon="7.07559">
        <ele>861.40002441406</ele>
        <time>2023-08-02T08:07:22.000Z</time>
      </trkpt>
      <trkpt lat="43.77482" lon="7.07561">
        <ele>861.20001220703</ele>
        <time>2023-08-02T08:07:23.000Z</time>
      </trkpt>
      <trkpt lat="43.77484" lon="7.07561">
        <ele>860.40002441406</ele>
        <time>2023-08-02T08:07:24.000Z</time>
      </trkpt>
      <trkpt lat="43.77484" lon="7.07563">
        <ele>860</ele>
        <time>2023-08-02T08:07:25.000Z</time>
      </trkpt>
      <trkpt lat="43.77486" lon="7.07564">
        <ele>859.59997558594</ele>
        <time>2023-08-02T08:07:26.000Z</time>
      </trkpt>
      <trkpt lat="43.77488" lon="7.07567">
        <ele>859.20001220703</ele>
        <time>2023-08-02T08:07:27.000Z</time>
      </trkpt>
      <trkpt lat="43.77491" lon="7.0757">
        <ele>858.79998779297</ele>
        <time>2023-08-02T08:07:28.000Z</time>
      </trkpt>
      <trkpt lat="43.77494" lon="7.07573">
        <ele>858.40002441406</ele>
        <time>2023-08-02T08:07:29.000Z</time>
      </trkpt>
      <trkpt lat="43.77496" lon="7.07577">
        <ele>858.40002441406</ele>
        <time>2023-08-02T08:07:30.000Z</time>
      </trkpt>
      <trkpt lat="43.77498" lon="7.07582">
        <ele>858</ele>
        <time>2023-08-02T08:07:31.000Z</time>
      </trkpt>
      <trkpt lat="43.77499" lon="7.07585">
        <ele>857.79998779297</ele>
        <time>2023-08-02T08:07:32.000Z</time>
      </trkpt>
      <trkpt lat="43.77499" lon="7.07584">
        <ele>857</ele>
        <time>2023-08-02T08:07:33.000Z</time>
      </trkpt>
      <trkpt lat="43.775" lon="7.07584">
        <ele>857</ele>
        <time>2023-08-02T08:07:34.000Z</time>
      </trkpt>
      <trkpt lat="43.77501" lon="7.07583">
        <ele>857</ele>
        <time>2023-08-02T08:07:35.000Z</time>
      </trkpt>
      <trkpt lat="43.77501" lon="7.07583">
        <ele>856.79998779297</ele>
        <time>2023-08-02T08:07:36.000Z</time>
      </trkpt>
      <trkpt lat="43.77501" lon="7.07583">
        <ele>856.79998779297</ele>
        <time>2023-08-02T08:07:37.000Z</time>
      </trkpt>
      <trkpt lat="43.77501" lon="7.07583">
        <ele>856.79998779297</ele>
        <time>2023-08-02T08:07:38.000Z</time>
      </trkpt>
      <trkpt lat="43.77501" lon="7.07583">
        <ele>856.79998779297</ele>
        <time>2023-08-02T08:07:39.000Z</time>
      </trkpt>
      <trkpt lat="43.77501" lon="7.07583">
        <ele>856.59997558594</ele>
        <time>2023-08-02T08:07:40.000Z</time>
      </trkpt>
      <trkpt lat="43.77501" lon="7.07583">
        <ele>856.59997558594</ele>
        <time>2023-08-02T08:07:41.000Z</time>
      </trkpt>
      <trkpt lat="43.77501" lon="7.07583">
        <ele>856.59997558594</ele>
        <time>2023-08-02T08:07:42.000Z</time>
      </trkpt>
      <trkpt lat="43.77501" lon="7.07583">
        <ele>856.59997558594</ele>
        <time>2023-08-02T08:07:43.000Z</time>
      </trkpt>
      <trkpt lat="43.77501" lon="7.07583">
        <ele>856.59997558594</ele>
        <time>2023-08-02T08:07:44.000Z</time>
      </trkpt>
      <trkpt lat="43.77501" lon="7.07583">
        <ele>856.59997558594</ele>
        <time>2023-08-02T08:07:45.000Z</time>
      </trkpt>
      <trkpt lat="43.77501" lon="7.07583">
        <ele>856.40002441406</ele>
        <time>2023-08-02T08:07:46.000Z</time>
      </trkpt>
      <trkpt lat="43.77501" lon="7.07583">
        <ele>856.40002441406</ele>
        <time>2023-08-02T08:07:47.000Z</time>
      </trkpt>
      <trkpt lat="43.77501" lon="7.07583">
        <ele>856.40002441406</ele>
        <time>2023-08-02T08:07:48.000Z</time>
      </trkpt>
      <trkpt lat="43.77501" lon="7.07583">
        <ele>856.40002441406</ele>
        <time>2023-08-02T08:07:49.000Z</time>
      </trkpt>
      <trkpt lat="43.77501" lon="7.07583">
        <ele>856.40002441406</ele>
        <time>2023-08-02T08:07:50.000Z</time>
      </trkpt>
      <trkpt lat="43.77501" lon="7.07583">
        <ele>856.40002441406</ele>
        <time>2023-08-02T08:07:51.000Z</time>
      </trkpt>
      <trkpt lat="43.77501" lon="7.07583">
        <ele>856.40002441406</ele>
        <time>2023-08-02T08:07:52.000Z</time>
      </trkpt>
      <trkpt lat="43.77501" lon="7.07583">
        <ele>856.40002441406</ele>
        <time>2023-08-02T08:07:53.000Z</time>
      </trkpt>
      <trkpt lat="43.77501" lon="7.07583">
        <ele>856.40002441406</ele>
        <time>2023-08-02T08:07:54.000Z</time>
      </trkpt>
      <trkpt lat="43.77501" lon="7.07583">
        <ele>856.40002441406</ele>
        <time>2023-08-02T08:07:55.000Z</time>
      </trkpt>
      <trkpt lat="43.77501" lon="7.07583">
        <ele>856.40002441406</ele>
        <time>2023-08-02T08:07:56.000Z</time>
      </trkpt>
      <trkpt lat="43.77501" lon="7.07583">
        <ele>856.40002441406</ele>
        <time>2023-08-02T08:07:57.000Z</time>
      </trkpt>
      <trkpt lat="43.77501" lon="7.07583">
        <ele>856.40002441406</ele>
        <time>2023-08-02T08:07:58.000Z</time>
      </trkpt>
      <trkpt lat="43.77501" lon="7.07583">
        <ele>856.40002441406</ele>
        <time>2023-08-02T08:07:59.000Z</time>
      </trkpt>
      <trkpt lat="43.77501" lon="7.07583">
        <ele>856.40002441406</ele>
        <time>2023-08-02T08:08:00.000Z</time>
      </trkpt>
      <trkpt lat="43.77501" lon="7.07583">
        <ele>856.40002441406</ele>
        <time>2023-08-02T08:08:01.000Z</time>
      </trkpt>
      <trkpt lat="43.77501" lon="7.07583">
        <ele>856.40002441406</ele>
        <time>2023-08-02T08:08:02.000Z</time>
      </trkpt>
      <trkpt lat="43.77501" lon="7.07583">
        <ele>856.40002441406</ele>
        <time>2023-08-02T08:08:03.000Z</time>
      </trkpt>
      <trkpt lat="43.77501" lon="7.07583">
        <ele>856.40002441406</ele>
        <time>2023-08-02T08:08:04.000Z</time>
      </trkpt>
      <trkpt lat="43.77501" lon="7.07583">
        <ele>856.40002441406</ele>
        <time>2023-08-02T08:08:05.000Z</time>
      </trkpt>
      <trkpt lat="43.77501" lon="7.07583">
        <ele>856.20001220703</ele>
        <time>2023-08-02T08:08:06.000Z</time>
      </trkpt>
      <trkpt lat="43.77501" lon="7.07583">
        <ele>856.20001220703</ele>
        <time>2023-08-02T08:08:07.000Z</time>
      </trkpt>
      <trkpt lat="43.77501" lon="7.07583">
        <ele>856.20001220703</ele>
        <time>2023-08-02T08:08:08.000Z</time>
      </trkpt>
      <trkpt lat="43.77501" lon="7.07583">
        <ele>856.20001220703</ele>
        <time>2023-08-02T08:08:09.000Z</time>
      </trkpt>
      <trkpt lat="43.77501" lon="7.07583">
        <ele>856.20001220703</ele>
        <time>2023-08-02T08:08:10.000Z</time>
      </trkpt>
      <trkpt lat="43.77501" lon="7.07583">
        <ele>856.20001220703</ele>
        <time>2023-08-02T08:08:11.000Z</time>
      </trkpt>
      <trkpt lat="43.77501" lon="7.07583">
        <ele>856.20001220703</ele>
        <time>2023-08-02T08:08:12.000Z</time>
      </trkpt>
      <trkpt lat="43.77501" lon="7.07583">
        <ele>856.20001220703</ele>
        <time>2023-08-02T08:08:13.000Z</time>
      </trkpt>
      <trkpt lat="43.77501" lon="7.07583">
        <ele>856.20001220703</ele>
        <time>2023-08-02T08:08:14.000Z</time>
      </trkpt>
      <trkpt lat="43.77501" lon="7.07583">
        <ele>856.20001220703</ele>
        <time>2023-08-02T08:08:15.000Z</time>
      </trkpt>
      <trkpt lat="43.77501" lon="7.07583">
        <ele>856.20001220703</ele>
        <time>2023-08-02T08:08:16.000Z</time>
      </trkpt>
      <trkpt lat="43.77501" lon="7.07583">
        <ele>856.20001220703</ele>
        <time>2023-08-02T08:08:17.000Z</time>
      </trkpt>
      <trkpt lat="43.77501" lon="7.07583">
        <ele>856.20001220703</ele>
        <time>2023-08-02T08:08:18.000Z</time>
      </trkpt>
      <trkpt lat="43.77501" lon="7.07583">
        <ele>856</ele>
        <time>2023-08-02T08:08:19.000Z</time>
      </trkpt>
      <trkpt lat="43.77501" lon="7.07583">
        <ele>856</ele>
        <time>2023-08-02T08:08:20.000Z</time>
      </trkpt>
      <trkpt lat="43.77501" lon="7.07583">
        <ele>856</ele>
        <time>2023-08-02T08:08:21.000Z</time>
      </trkpt>
      <trkpt lat="43.77501" lon="7.07583">
        <ele>856</ele>
        <time>2023-08-02T08:08:22.000Z</time>
      </trkpt>
      <trkpt lat="43.77501" lon="7.07583">
        <ele>856</ele>
        <time>2023-08-02T08:08:23.000Z</time>
      </trkpt>
      <trkpt lat="43.77501" lon="7.07583">
        <ele>856</ele>
        <time>2023-08-02T08:08:24.000Z</time>
      </trkpt>
      <trkpt lat="43.77501" lon="7.07583">
        <ele>856</ele>
        <time>2023-08-02T08:08:25.000Z</time>
      </trkpt>
      <trkpt lat="43.77501" lon="7.07583">
        <ele>856</ele>
        <time>2023-08-02T08:08:26.000Z</time>
      </trkpt>
      <trkpt lat="43.77501" lon="7.07583">
        <ele>856</ele>
        <time>2023-08-02T08:08:27.000Z</time>
      </trkpt>
      <trkpt lat="43.77501" lon="7.07583">
        <ele>856</ele>
        <time>2023-08-02T08:08:28.000Z</time>
      </trkpt>
      <trkpt lat="43.77501" lon="7.07583">
        <ele>856</ele>
        <time>2023-08-02T08:08:29.000Z</time>
      </trkpt>
      <trkpt lat="43.77501" lon="7.07583">
        <ele>856</ele>
        <time>2023-08-02T08:08:30.000Z</time>
      </trkpt>
      <trkpt lat="43.77501" lon="7.07583">
        <ele>856</ele>
        <time>2023-08-02T08:08:31.000Z</time>
      </trkpt>
      <trkpt lat="43.77501" lon="7.07583">
        <ele>856</ele>
        <time>2023-08-02T08:08:32.000Z</time>
      </trkpt>
      <trkpt lat="43.77501" lon="7.07583">
        <ele>856</ele>
        <time>2023-08-02T08:08:33.000Z</time>
      </trkpt>
      <trkpt lat="43.77501" lon="7.07583">
        <ele>856</ele>
        <time>2023-08-02T08:08:34.000Z</time>
      </trkpt>
      <trkpt lat="43.77501" lon="7.07583">
        <ele>856</ele>
        <time>2023-08-02T08:08:35.000Z</time>
      </trkpt>
      <trkpt lat="43.77501" lon="7.07583">
        <ele>856</ele>
        <time>2023-08-02T08:08:36.000Z</time>
      </trkpt>
      <trkpt lat="43.77501" lon="7.07583">
        <ele>856</ele>
        <time>2023-08-02T08:08:37.000Z</time>
      </trkpt>
      <trkpt lat="43.77501" lon="7.07583">
        <ele>856</ele>
        <time>2023-08-02T08:08:38.000Z</time>
      </trkpt>
      <trkpt lat="43.77501" lon="7.07583">
        <ele>856</ele>
        <time>2023-08-02T08:08:39.000Z</time>
      </trkpt>
      <trkpt lat="43.77501" lon="7.07583">
        <ele>856</ele>
        <time>2023-08-02T08:08:40.000Z</time>
      </trkpt>
      <trkpt lat="43.77501" lon="7.07583">
        <ele>856</ele>
        <time>2023-08-02T08:08:41.000Z</time>
      </trkpt>
      <trkpt lat="43.77501" lon="7.07583">
        <ele>856</ele>
        <time>2023-08-02T08:08:42.000Z</time>
      </trkpt>
      <trkpt lat="43.77501" lon="7.07583">
        <ele>856</ele>
        <time>2023-08-02T08:08:43.000Z</time>
      </trkpt>
      <trkpt lat="43.77501" lon="7.07583">
        <ele>856</ele>
        <time>2023-08-02T08:08:44.000Z</time>
      </trkpt>
      <trkpt lat="43.77501" lon="7.07583">
        <ele>856</ele>
        <time>2023-08-02T08:08:45.000Z</time>
      </trkpt>
      <trkpt lat="43.77501" lon="7.07583">
        <ele>856</ele>
        <time>2023-08-02T08:08:46.000Z</time>
      </trkpt>
      <trkpt lat="43.77501" lon="7.07583">
        <ele>856</ele>
        <time>2023-08-02T08:08:47.000Z</time>
      </trkpt>
      <trkpt lat="43.77501" lon="7.07583">
        <ele>856</ele>
        <time>2023-08-02T08:08:48.000Z</time>
      </trkpt>
      <trkpt lat="43.77501" lon="7.07583">
        <ele>856</ele>
        <time>2023-08-02T08:08:49.000Z</time>
      </trkpt>
      <trkpt lat="43.77501" lon="7.07583">
        <ele>856</ele>
        <time>2023-08-02T08:08:50.000Z</time>
      </trkpt>
      <trkpt lat="43.77501" lon="7.07583">
        <ele>856</ele>
        <time>2023-08-02T08:08:51.000Z</time>
      </trkpt>
      <trkpt lat="43.77501" lon="7.07583">
        <ele>856</ele>
        <time>2023-08-02T08:08:52.000Z</time>
      </trkpt>
      <trkpt lat="43.77501" lon="7.07583">
        <ele>856</ele>
        <time>2023-08-02T08:08:53.000Z</time>
      </trkpt>
      <trkpt lat="43.77501" lon="7.07583">
        <ele>856</ele>
        <time>2023-08-02T08:08:54.000Z</time>
      </trkpt>
      <trkpt lat="43.77501" lon="7.07583">
        <ele>856</ele>
        <time>2023-08-02T08:08:55.000Z</time>
      </trkpt>
      <trkpt lat="43.77501" lon="7.07583">
        <ele>856</ele>
        <time>2023-08-02T08:08:56.000Z</time>
      </trkpt>
      <trkpt lat="43.77501" lon="7.07583">
        <ele>856</ele>
        <time>2023-08-02T08:08:57.000Z</time>
      </trkpt>
      <trkpt lat="43.77501" lon="7.07583">
        <ele>856</ele>
        <time>2023-08-02T08:08:58.000Z</time>
      </trkpt>
      <trkpt lat="43.77501" lon="7.07583">
        <ele>856</ele>
        <time>2023-08-02T08:08:59.000Z</time>
      </trkpt>
      <trkpt lat="43.77501" lon="7.07583">
        <ele>856</ele>
        <time>2023-08-02T08:09:00.000Z</time>
      </trkpt>
      <trkpt lat="43.77501" lon="7.07583">
        <ele>856</ele>
        <time>2023-08-02T08:09:01.000Z</time>
      </trkpt>
      <trkpt lat="43.77501" lon="7.07583">
        <ele>856</ele>
        <time>2023-08-02T08:09:02.000Z</time>
      </trkpt>
      <trkpt lat="43.77501" lon="7.07583">
        <ele>856</ele>
        <time>2023-08-02T08:09:03.000Z</time>
      </trkpt>
      <trkpt lat="43.77501" lon="7.07583">
        <ele>856</ele>
        <time>2023-08-02T08:09:04.000Z</time>
      </trkpt>
      <trkpt lat="43.77501" lon="7.07583">
        <ele>856</ele>
        <time>2023-08-02T08:09:05.000Z</time>
      </trkpt>
      <trkpt lat="43.77501" lon="7.07583">
        <ele>856</ele>
        <time>2023-08-02T08:09:06.000Z</time>
      </trkpt>
      <trkpt lat="43.77501" lon="7.07583">
        <ele>856</ele>
        <time>2023-08-02T08:09:07.000Z</time>
      </trkpt>
      <trkpt lat="43.77501" lon="7.07583">
        <ele>856</ele>
        <time>2023-08-02T08:09:08.000Z</time>
      </trkpt>
      <trkpt lat="43.77501" lon="7.07583">
        <ele>856</ele>
        <time>2023-08-02T08:09:09.000Z</time>
      </trkpt>
      <trkpt lat="43.77501" lon="7.07583">
        <ele>856</ele>
        <time>2023-08-02T08:09:10.000Z</time>
      </trkpt>
      <trkpt lat="43.77501" lon="7.07583">
        <ele>856</ele>
        <time>2023-08-02T08:09:11.000Z</time>
      </trkpt>
      <trkpt lat="43.77501" lon="7.07583">
        <ele>856</ele>
        <time>2023-08-02T08:09:12.000Z</time>
      </trkpt>
      <trkpt lat="43.77501" lon="7.07583">
        <ele>856</ele>
        <time>2023-08-02T08:09:13.000Z</time>
      </trkpt>
      <trkpt lat="43.77501" lon="7.07583">
        <ele>856</ele>
        <time>2023-08-02T08:09:14.000Z</time>
      </trkpt>
      <trkpt lat="43.77501" lon="7.07583">
        <ele>856</ele>
        <time>2023-08-02T08:09:15.000Z</time>
      </trkpt>
      <trkpt lat="43.77501" lon="7.07583">
        <ele>856</ele>
        <time>2023-08-02T08:09:16.000Z</time>
      </trkpt>
      <trkpt lat="43.77501" lon="7.07583">
        <ele>856</ele>
        <time>2023-08-02T08:09:17.000Z</time>
      </trkpt>
      <trkpt lat="43.77501" lon="7.07583">
        <ele>856</ele>
        <time>2023-08-02T08:09:18.000Z</time>
      </trkpt>
      <trkpt lat="43.77501" lon="7.07583">
        <ele>856</ele>
        <time>2023-08-02T08:09:19.000Z</time>
      </trkpt>
      <trkpt lat="43.77501" lon="7.07583">
        <ele>856</ele>
        <time>2023-08-02T08:09:20.000Z</time>
      </trkpt>
      <trkpt lat="43.77501" lon="7.07583">
        <ele>856</ele>
        <time>2023-08-02T08:09:21.000Z</time>
      </trkpt>
      <trkpt lat="43.77501" lon="7.07583">
        <ele>856</ele>
        <time>2023-08-02T08:09:22.000Z</time>
      </trkpt>
      <trkpt lat="43.77501" lon="7.07583">
        <ele>856</ele>
        <time>2023-08-02T08:09:23.000Z</time>
      </trkpt>
      <trkpt lat="43.77501" lon="7.07583">
        <ele>856</ele>
        <time>2023-08-02T08:09:24.000Z</time>
      </trkpt>
      <trkpt lat="43.77501" lon="7.07583">
        <ele>856</ele>
        <time>2023-08-02T08:09:25.000Z</time>
      </trkpt>
      <trkpt lat="43.77501" lon="7.07582">
        <ele>856</ele>
        <time>2023-08-02T08:09:26.000Z</time>
      </trkpt>
      <trkpt lat="43.77501" lon="7.07583">
        <ele>856</ele>
        <time>2023-08-02T08:09:27.000Z</time>
      </trkpt>
      <trkpt lat="43.77501" lon="7.07582">
        <ele>856</ele>
        <time>2023-08-02T08:09:28.000Z</time>
      </trkpt>
      <trkpt lat="43.77502" lon="7.07583">
        <ele>856</ele>
        <time>2023-08-02T08:09:29.000Z</time>
      </trkpt>
      <trkpt lat="43.77502" lon="7.07583">
        <ele>856</ele>
        <time>2023-08-02T08:09:30.000Z</time>
      </trkpt>
      <trkpt lat="43.77502" lon="7.07583">
        <ele>856</ele>
        <time>2023-08-02T08:09:31.000Z</time>
      </trkpt>
      <trkpt lat="43.77502" lon="7.07583">
        <ele>856</ele>
        <time>2023-08-02T08:09:32.000Z</time>
      </trkpt>
      <trkpt lat="43.77503" lon="7.07584">
        <ele>856</ele>
        <time>2023-08-02T08:09:33.000Z</time>
      </trkpt>
      <trkpt lat="43.77504" lon="7.07585">
        <ele>856.20001220703</ele>
        <time>2023-08-02T08:09:34.000Z</time>
      </trkpt>
      <trkpt lat="43.77504" lon="7.07585">
        <ele>856.20001220703</ele>
        <time>2023-08-02T08:09:35.000Z</time>
      </trkpt>
      <trkpt lat="43.77504" lon="7.07585">
        <ele>856.20001220703</ele>
        <time>2023-08-02T08:09:36.000Z</time>
      </trkpt>
      <trkpt lat="43.77503" lon="7.07586">
        <ele>856.20001220703</ele>
        <time>2023-08-02T08:09:37.000Z</time>
      </trkpt>
      <trkpt lat="43.77503" lon="7.07586">
        <ele>856.20001220703</ele>
        <time>2023-08-02T08:09:38.000Z</time>
      </trkpt>
      <trkpt lat="43.77503" lon="7.07586">
        <ele>856.20001220703</ele>
        <time>2023-08-02T08:09:39.000Z</time>
      </trkpt>
      <trkpt lat="43.77503" lon="7.07586">
        <ele>856.20001220703</ele>
        <time>2023-08-02T08:09:40.000Z</time>
      </trkpt>
      <trkpt lat="43.77503" lon="7.07586">
        <ele>856.20001220703</ele>
        <time>2023-08-02T08:09:41.000Z</time>
      </trkpt>
      <trkpt lat="43.77503" lon="7.07586">
        <ele>856.20001220703</ele>
        <time>2023-08-02T08:09:42.000Z</time>
      </trkpt>
      <trkpt lat="43.77503" lon="7.07586">
        <ele>856.20001220703</ele>
        <time>2023-08-02T08:09:43.000Z</time>
      </trkpt>
      <trkpt lat="43.77503" lon="7.07586">
        <ele>856.20001220703</ele>
        <time>2023-08-02T08:09:44.000Z</time>
      </trkpt>
      <trkpt lat="43.77503" lon="7.07586">
        <ele>856.20001220703</ele>
        <time>2023-08-02T08:09:45.000Z</time>
      </trkpt>
      <trkpt lat="43.77503" lon="7.07586">
        <ele>856.20001220703</ele>
        <time>2023-08-02T08:09:46.000Z</time>
      </trkpt>
      <trkpt lat="43.77503" lon="7.07586">
        <ele>856.20001220703</ele>
        <time>2023-08-02T08:09:47.000Z</time>
      </trkpt>
      <trkpt lat="43.77503" lon="7.07586">
        <ele>856.20001220703</ele>
        <time>2023-08-02T08:09:48.000Z</time>
      </trkpt>
      <trkpt lat="43.77503" lon="7.07586">
        <ele>856.20001220703</ele>
        <time>2023-08-02T08:09:49.000Z</time>
      </trkpt>
      <trkpt lat="43.77503" lon="7.07586">
        <ele>856.20001220703</ele>
        <time>2023-08-02T08:09:50.000Z</time>
      </trkpt>
      <trkpt lat="43.77503" lon="7.07587">
        <ele>856.20001220703</ele>
        <time>2023-08-02T08:09:51.000Z</time>
      </trkpt>
      <trkpt lat="43.77503" lon="7.07587">
        <ele>856.20001220703</ele>
        <time>2023-08-02T08:09:52.000Z</time>
      </trkpt>
      <trkpt lat="43.77503" lon="7.07588">
        <ele>856.20001220703</ele>
        <time>2023-08-02T08:09:53.000Z</time>
      </trkpt>
      <trkpt lat="43.77503" lon="7.07588">
        <ele>856.20001220703</ele>
        <time>2023-08-02T08:09:54.000Z</time>
      </trkpt>
      <trkpt lat="43.77504" lon="7.07589">
        <ele>856.20001220703</ele>
        <time>2023-08-02T08:09:55.000Z</time>
      </trkpt>
      <trkpt lat="43.77504" lon="7.07589">
        <ele>856.20001220703</ele>
        <time>2023-08-02T08:09:56.000Z</time>
      </trkpt>
      <trkpt lat="43.77505" lon="7.07591">
        <ele>856.20001220703</ele>
        <time>2023-08-02T08:09:57.000Z</time>
      </trkpt>
      <trkpt lat="43.77506" lon="7.07592">
        <ele>856.20001220703</ele>
        <time>2023-08-02T08:09:58.000Z</time>
      </trkpt>
      <trkpt lat="43.77506" lon="7.07594">
        <ele>856.20001220703</ele>
        <time>2023-08-02T08:09:59.000Z</time>
      </trkpt>
      <trkpt lat="43.77507" lon="7.07596">
        <ele>856.20001220703</ele>
        <time>2023-08-02T08:10:00.000Z</time>
      </trkpt>
      <trkpt lat="43.77508" lon="7.07599">
        <ele>856.20001220703</ele>
        <time>2023-08-02T08:10:01.000Z</time>
      </trkpt>
      <trkpt lat="43.7751" lon="7.07601">
        <ele>856.20001220703</ele>
        <time>2023-08-02T08:10:02.000Z</time>
      </trkpt>
      <trkpt lat="43.77512" lon="7.07603">
        <ele>856.20001220703</ele>
        <time>2023-08-02T08:10:03.000Z</time>
      </trkpt>
      <trkpt lat="43.77515" lon="7.07603">
        <ele>856</ele>
        <time>2023-08-02T08:10:04.000Z</time>
      </trkpt>
      <trkpt lat="43.77517" lon="7.07602">
        <ele>856</ele>
        <time>2023-08-02T08:10:05.000Z</time>
      </trkpt>
      <trkpt lat="43.77517" lon="7.07598">
        <ele>855.59997558594</ele>
        <time>2023-08-02T08:10:06.000Z</time>
      </trkpt>
      <trkpt lat="43.77517" lon="7.07595">
        <ele>855.20001220703</ele>
        <time>2023-08-02T08:10:07.000Z</time>
      </trkpt>
      <trkpt lat="43.77519" lon="7.07592">
        <ele>854.79998779297</ele>
        <time>2023-08-02T08:10:08.000Z</time>
      </trkpt>
      <trkpt lat="43.77521" lon="7.07591">
        <ele>854.59997558594</ele>
        <time>2023-08-02T08:10:09.000Z</time>
      </trkpt>
      <trkpt lat="43.77523" lon="7.07592">
        <ele>853.79998779297</ele>
        <time>2023-08-02T08:10:10.000Z</time>
      </trkpt>
      <trkpt lat="43.77524" lon="7.07594">
        <ele>853.79998779297</ele>
        <time>2023-08-02T08:10:11.000Z</time>
      </trkpt>
      <trkpt lat="43.77524" lon="7.07596">
        <ele>853.40002441406</ele>
        <time>2023-08-02T08:10:12.000Z</time>
      </trkpt>
      <trkpt lat="43.77525" lon="7.07597">
        <ele>852.79998779297</ele>
        <time>2023-08-02T08:10:13.000Z</time>
      </trkpt>
      <trkpt lat="43.77525" lon="7.07599">
        <ele>852.40002441406</ele>
        <time>2023-08-02T08:10:14.000Z</time>
      </trkpt>
      <trkpt lat="43.77526" lon="7.07601">
        <ele>852</ele>
        <time>2023-08-02T08:10:15.000Z</time>
      </trkpt>
      <trkpt lat="43.77526" lon="7.07603">
        <ele>851.59997558594</ele>
        <time>2023-08-02T08:10:16.000Z</time>
      </trkpt>
      <trkpt lat="43.77528" lon="7.07605">
        <ele>851</ele>
        <time>2023-08-02T08:10:17.000Z</time>
      </trkpt>
      <trkpt lat="43.77529" lon="7.07607">
        <ele>850.40002441406</ele>
        <time>2023-08-02T08:10:18.000Z</time>
      </trkpt>
      <trkpt lat="43.77531" lon="7.07609">
        <ele>850</ele>
        <time>2023-08-02T08:10:19.000Z</time>
      </trkpt>
      <trkpt lat="43.77531" lon="7.07611">
        <ele>849.20001220703</ele>
        <time>2023-08-02T08:10:20.000Z</time>
      </trkpt>
      <trkpt lat="43.77533" lon="7.07613">
        <ele>848.20001220703</ele>
        <time>2023-08-02T08:10:21.000Z</time>
      </trkpt>
      <trkpt lat="43.77534" lon="7.07614">
        <ele>847.40002441406</ele>
        <time>2023-08-02T08:10:22.000Z</time>
      </trkpt>
      <trkpt lat="43.77534" lon="7.07614">
        <ele>846.59997558594</ele>
        <time>2023-08-02T08:10:23.000Z</time>
      </trkpt>
      <trkpt lat="43.77534" lon="7.07614">
        <ele>846.20001220703</ele>
        <time>2023-08-02T08:10:24.000Z</time>
      </trkpt>
      <trkpt lat="43.77534" lon="7.07614">
        <ele>845.20001220703</ele>
        <time>2023-08-02T08:10:25.000Z</time>
      </trkpt>
      <trkpt lat="43.77534" lon="7.07614">
        <ele>844.79998779297</ele>
        <time>2023-08-02T08:10:26.000Z</time>
      </trkpt>
      <trkpt lat="43.77534" lon="7.07614">
        <ele>844.40002441406</ele>
        <time>2023-08-02T08:10:27.000Z</time>
      </trkpt>
      <trkpt lat="43.77534" lon="7.07614">
        <ele>844.20001220703</ele>
        <time>2023-08-02T08:10:28.000Z</time>
      </trkpt>
      <trkpt lat="43.77534" lon="7.07614">
        <ele>844.20001220703</ele>
        <time>2023-08-02T08:10:29.000Z</time>
      </trkpt>
      <trkpt lat="43.77534" lon="7.07614">
        <ele>844.20001220703</ele>
        <time>2023-08-02T08:10:30.000Z</time>
      </trkpt>
      <trkpt lat="43.77534" lon="7.07614">
        <ele>844.20001220703</ele>
        <time>2023-08-02T08:10:31.000Z</time>
      </trkpt>
      <trkpt lat="43.77534" lon="7.07614">
        <ele>844.20001220703</ele>
        <time>2023-08-02T08:10:32.000Z</time>
      </trkpt>
      <trkpt lat="43.77534" lon="7.07614">
        <ele>844.20001220703</ele>
        <time>2023-08-02T08:10:33.000Z</time>
      </trkpt>
      <trkpt lat="43.77534" lon="7.07614">
        <ele>844.20001220703</ele>
        <time>2023-08-02T08:10:34.000Z</time>
      </trkpt>
      <trkpt lat="43.77534" lon="7.07614">
        <ele>844.20001220703</ele>
        <time>2023-08-02T08:10:35.000Z</time>
      </trkpt>
      <trkpt lat="43.77536" lon="7.07613">
        <ele>844.20001220703</ele>
        <time>2023-08-02T08:10:36.000Z</time>
      </trkpt>
      <trkpt lat="43.77536" lon="7.07613">
        <ele>844.20001220703</ele>
        <time>2023-08-02T08:10:37.000Z</time>
      </trkpt>
      <trkpt lat="43.77536" lon="7.07613">
        <ele>844.20001220703</ele>
        <time>2023-08-02T08:10:38.000Z</time>
      </trkpt>
      <trkpt lat="43.77536" lon="7.07613">
        <ele>844.20001220703</ele>
        <time>2023-08-02T08:10:39.000Z</time>
      </trkpt>
      <trkpt lat="43.77536" lon="7.07613">
        <ele>844.20001220703</ele>
        <time>2023-08-02T08:10:40.000Z</time>
      </trkpt>
      <trkpt lat="43.77535" lon="7.07613">
        <ele>844.20001220703</ele>
        <time>2023-08-02T08:10:41.000Z</time>
      </trkpt>
      <trkpt lat="43.77535" lon="7.07613">
        <ele>844</ele>
        <time>2023-08-02T08:10:42.000Z</time>
      </trkpt>
      <trkpt lat="43.77537" lon="7.07614">
        <ele>844</ele>
        <time>2023-08-02T08:10:43.000Z</time>
      </trkpt>
      <trkpt lat="43.77537" lon="7.07615">
        <ele>844.20001220703</ele>
        <time>2023-08-02T08:10:44.000Z</time>
      </trkpt>
      <trkpt lat="43.77539" lon="7.07615">
        <ele>832.20001220703</ele>
        <time>2023-08-02T08:10:45.000Z</time>
      </trkpt>
      <trkpt lat="43.77539" lon="7.07616">
        <ele>830.20001220703</ele>
        <time>2023-08-02T08:10:46.000Z</time>
      </trkpt>
      <trkpt lat="43.77539" lon="7.07616">
        <ele>830.20001220703</ele>
        <time>2023-08-02T08:10:47.000Z</time>
      </trkpt>
      <trkpt lat="43.77539" lon="7.07616">
        <ele>830.20001220703</ele>
        <time>2023-08-02T08:10:48.000Z</time>
      </trkpt>
      <trkpt lat="43.77539" lon="7.07616">
        <ele>830.20001220703</ele>
        <time>2023-08-02T08:10:49.000Z</time>
      </trkpt>
      <trkpt lat="43.77538" lon="7.07617">
        <ele>838.40002441406</ele>
        <time>2023-08-02T08:10:50.000Z</time>
      </trkpt>
      <trkpt lat="43.77538" lon="7.07616">
        <ele>841.40002441406</ele>
        <time>2023-08-02T08:10:51.000Z</time>
      </trkpt>
      <trkpt lat="43.77538" lon="7.07616">
        <ele>842.20001220703</ele>
        <time>2023-08-02T08:10:52.000Z</time>
      </trkpt>
      <trkpt lat="43.77538" lon="7.07616">
        <ele>842.20001220703</ele>
        <time>2023-08-02T08:10:53.000Z</time>
      </trkpt>
      <trkpt lat="43.77538" lon="7.07617">
        <ele>842.20001220703</ele>
        <time>2023-08-02T08:10:54.000Z</time>
      </trkpt>
      <trkpt lat="43.77538" lon="7.07617">
        <ele>842.20001220703</ele>
        <time>2023-08-02T08:10:55.000Z</time>
      </trkpt>
      <trkpt lat="43.77538" lon="7.07617">
        <ele>842.20001220703</ele>
        <time>2023-08-02T08:10:56.000Z</time>
      </trkpt>
      <trkpt lat="43.77537" lon="7.07618">
        <ele>842.20001220703</ele>
        <time>2023-08-02T08:10:57.000Z</time>
      </trkpt>
      <trkpt lat="43.77537" lon="7.07618">
        <ele>842.40002441406</ele>
        <time>2023-08-02T08:10:58.000Z</time>
      </trkpt>
      <trkpt lat="43.77537" lon="7.07619">
        <ele>842.20001220703</ele>
        <time>2023-08-02T08:10:59.000Z</time>
      </trkpt>
      <trkpt lat="43.77536" lon="7.07619">
        <ele>842.40002441406</ele>
        <time>2023-08-02T08:11:00.000Z</time>
      </trkpt>
      <trkpt lat="43.77536" lon="7.07619">
        <ele>842.59997558594</ele>
        <time>2023-08-02T08:11:01.000Z</time>
      </trkpt>
      <trkpt lat="43.77536" lon="7.07619">
        <ele>842.59997558594</ele>
        <time>2023-08-02T08:11:02.000Z</time>
      </trkpt>
      <trkpt lat="43.77536" lon="7.07619">
        <ele>843.40002441406</ele>
        <time>2023-08-02T08:11:03.000Z</time>
      </trkpt>
      <trkpt lat="43.77536" lon="7.07619">
        <ele>843.40002441406</ele>
        <time>2023-08-02T08:11:04.000Z</time>
      </trkpt>
      <trkpt lat="43.77536" lon="7.07619">
        <ele>843.40002441406</ele>
        <time>2023-08-02T08:11:05.000Z</time>
      </trkpt>
      <trkpt lat="43.77535" lon="7.0762">
        <ele>843.40002441406</ele>
        <time>2023-08-02T08:11:06.000Z</time>
      </trkpt>
      <trkpt lat="43.77535" lon="7.0762">
        <ele>843.40002441406</ele>
        <time>2023-08-02T08:11:07.000Z</time>
      </trkpt>
      <trkpt lat="43.77535" lon="7.0762">
        <ele>843.40002441406</ele>
        <time>2023-08-02T08:11:08.000Z</time>
      </trkpt>
      <trkpt lat="43.77535" lon="7.0762">
        <ele>843.59997558594</ele>
        <time>2023-08-02T08:11:09.000Z</time>
      </trkpt>
      <trkpt lat="43.77535" lon="7.0762">
        <ele>843.79998779297</ele>
        <time>2023-08-02T08:11:10.000Z</time>
      </trkpt>
      <trkpt lat="43.77535" lon="7.07619">
        <ele>843.79998779297</ele>
        <time>2023-08-02T08:11:11.000Z</time>
      </trkpt>
      <trkpt lat="43.77535" lon="7.07619">
        <ele>844</ele>
        <time>2023-08-02T08:11:12.000Z</time>
      </trkpt>
      <trkpt lat="43.77536" lon="7.07618">
        <ele>843.79998779297</ele>
        <time>2023-08-02T08:11:13.000Z</time>
      </trkpt>
      <trkpt lat="43.77536" lon="7.07618">
        <ele>846.20001220703</ele>
        <time>2023-08-02T08:11:14.000Z</time>
      </trkpt>
      <trkpt lat="43.77536" lon="7.07618">
        <ele>846.20001220703</ele>
        <time>2023-08-02T08:11:15.000Z</time>
      </trkpt>
      <trkpt lat="43.77537" lon="7.07618">
        <ele>846.20001220703</ele>
        <time>2023-08-02T08:11:16.000Z</time>
      </trkpt>
      <trkpt lat="43.77537" lon="7.07618">
        <ele>846.20001220703</ele>
        <time>2023-08-02T08:11:17.000Z</time>
      </trkpt>
      <trkpt lat="43.77537" lon="7.07617">
        <ele>846.79998779297</ele>
        <time>2023-08-02T08:11:18.000Z</time>
      </trkpt>
      <trkpt lat="43.77536" lon="7.07616">
        <ele>846.79998779297</ele>
        <time>2023-08-02T08:11:19.000Z</time>
      </trkpt>
      <trkpt lat="43.77536" lon="7.07617">
        <ele>846.79998779297</ele>
        <time>2023-08-02T08:11:20.000Z</time>
      </trkpt>
      <trkpt lat="43.77536" lon="7.07617">
        <ele>856.59997558594</ele>
        <time>2023-08-02T08:11:21.000Z</time>
      </trkpt>
      <trkpt lat="43.77536" lon="7.07617">
        <ele>858.79998779297</ele>
        <time>2023-08-02T08:11:22.000Z</time>
      </trkpt>
      <trkpt lat="43.77535" lon="7.07617">
        <ele>858.79998779297</ele>
        <time>2023-08-02T08:11:23.000Z</time>
      </trkpt>
      <trkpt lat="43.77536" lon="7.07617">
        <ele>858.59997558594</ele>
        <time>2023-08-02T08:11:24.000Z</time>
      </trkpt>
      <trkpt lat="43.77536" lon="7.07617">
        <ele>858.59997558594</ele>
        <time>2023-08-02T08:11:25.000Z</time>
      </trkpt>
      <trkpt lat="43.77536" lon="7.07617">
        <ele>853</ele>
        <time>2023-08-02T08:11:26.000Z</time>
      </trkpt>
      <trkpt lat="43.77536" lon="7.07617">
        <ele>849.40002441406</ele>
        <time>2023-08-02T08:11:27.000Z</time>
      </trkpt>
      <trkpt lat="43.77536" lon="7.07617">
        <ele>847.20001220703</ele>
        <time>2023-08-02T08:11:28.000Z</time>
      </trkpt>
      <trkpt lat="43.77536" lon="7.07617">
        <ele>846</ele>
        <time>2023-08-02T08:11:29.000Z</time>
      </trkpt>
      <trkpt lat="43.77536" lon="7.07617">
        <ele>845.40002441406</ele>
        <time>2023-08-02T08:11:30.000Z</time>
      </trkpt>
      <trkpt lat="43.77536" lon="7.07617">
        <ele>845</ele>
        <time>2023-08-02T08:11:31.000Z</time>
      </trkpt>
      <trkpt lat="43.77536" lon="7.07617">
        <ele>844.79998779297</ele>
        <time>2023-08-02T08:11:32.000Z</time>
      </trkpt>
      <trkpt lat="43.77536" lon="7.07617">
        <ele>844.59997558594</ele>
        <time>2023-08-02T08:11:33.000Z</time>
      </trkpt>
      <trkpt lat="43.77536" lon="7.07617">
        <ele>844.59997558594</ele>
        <time>2023-08-02T08:11:34.000Z</time>
      </trkpt>
      <trkpt lat="43.77536" lon="7.07617">
        <ele>844.59997558594</ele>
        <time>2023-08-02T08:11:35.000Z</time>
      </trkpt>
      <trkpt lat="43.77536" lon="7.07617">
        <ele>844.40002441406</ele>
        <time>2023-08-02T08:11:36.000Z</time>
      </trkpt>
      <trkpt lat="43.77536" lon="7.07617">
        <ele>844.40002441406</ele>
        <time>2023-08-02T08:11:37.000Z</time>
      </trkpt>
      <trkpt lat="43.77536" lon="7.07617">
        <ele>844.40002441406</ele>
        <time>2023-08-02T08:11:38.000Z</time>
      </trkpt>
      <trkpt lat="43.77536" lon="7.07617">
        <ele>844.40002441406</ele>
        <time>2023-08-02T08:11:39.000Z</time>
      </trkpt>
      <trkpt lat="43.77536" lon="7.07617">
        <ele>844.40002441406</ele>
        <time>2023-08-02T08:11:40.000Z</time>
      </trkpt>
      <trkpt lat="43.77536" lon="7.07617">
        <ele>844.40002441406</ele>
        <time>2023-08-02T08:11:41.000Z</time>
      </trkpt>
      <trkpt lat="43.77536" lon="7.07617">
        <ele>844.20001220703</ele>
        <time>2023-08-02T08:11:42.000Z</time>
      </trkpt>
      <trkpt lat="43.77536" lon="7.07617">
        <ele>844.20001220703</ele>
        <time>2023-08-02T08:11:43.000Z</time>
      </trkpt>
      <trkpt lat="43.77536" lon="7.07617">
        <ele>844.20001220703</ele>
        <time>2023-08-02T08:11:44.000Z</time>
      </trkpt>
      <trkpt lat="43.77536" lon="7.07617">
        <ele>844.20001220703</ele>
        <time>2023-08-02T08:11:45.000Z</time>
      </trkpt>
      <trkpt lat="43.77536" lon="7.07617">
        <ele>844.20001220703</ele>
        <time>2023-08-02T08:11:46.000Z</time>
      </trkpt>
      <trkpt lat="43.77536" lon="7.07617">
        <ele>844.20001220703</ele>
        <time>2023-08-02T08:11:47.000Z</time>
      </trkpt>
      <trkpt lat="43.77536" lon="7.07617">
        <ele>844.20001220703</ele>
        <time>2023-08-02T08:11:48.000Z</time>
      </trkpt>
      <trkpt lat="43.77536" lon="7.07617">
        <ele>844.20001220703</ele>
        <time>2023-08-02T08:11:49.000Z</time>
      </trkpt>
      <trkpt lat="43.77536" lon="7.07617">
        <ele>844.20001220703</ele>
        <time>2023-08-02T08:11:50.000Z</time>
      </trkpt>
      <trkpt lat="43.77536" lon="7.07617">
        <ele>844.20001220703</ele>
        <time>2023-08-02T08:11:51.000Z</time>
      </trkpt>
      <trkpt lat="43.77535" lon="7.07617">
        <ele>844.20001220703</ele>
        <time>2023-08-02T08:11:52.000Z</time>
      </trkpt>
      <trkpt lat="43.77535" lon="7.07617">
        <ele>844.20001220703</ele>
        <time>2023-08-02T08:11:53.000Z</time>
      </trkpt>
      <trkpt lat="43.77535" lon="7.07617">
        <ele>844.20001220703</ele>
        <time>2023-08-02T08:11:54.000Z</time>
      </trkpt>
      <trkpt lat="43.77535" lon="7.07617">
        <ele>844.20001220703</ele>
        <time>2023-08-02T08:11:55.000Z</time>
      </trkpt>
      <trkpt lat="43.77535" lon="7.07617">
        <ele>844.20001220703</ele>
        <time>2023-08-02T08:11:56.000Z</time>
      </trkpt>
      <trkpt lat="43.77535" lon="7.07617">
        <ele>844.20001220703</ele>
        <time>2023-08-02T08:11:57.000Z</time>
      </trkpt>
      <trkpt lat="43.77535" lon="7.07617">
        <ele>844.20001220703</ele>
        <time>2023-08-02T08:11:58.000Z</time>
      </trkpt>
      <trkpt lat="43.77535" lon="7.07617">
        <ele>844.20001220703</ele>
        <time>2023-08-02T08:11:59.000Z</time>
      </trkpt>
      <trkpt lat="43.77535" lon="7.07617">
        <ele>844.20001220703</ele>
        <time>2023-08-02T08:12:00.000Z</time>
      </trkpt>
      <trkpt lat="43.77535" lon="7.07617">
        <ele>844.20001220703</ele>
        <time>2023-08-02T08:12:01.000Z</time>
      </trkpt>
      <trkpt lat="43.77535" lon="7.07617">
        <ele>844.20001220703</ele>
        <time>2023-08-02T08:12:02.000Z</time>
      </trkpt>
      <trkpt lat="43.77535" lon="7.07617">
        <ele>844.20001220703</ele>
        <time>2023-08-02T08:12:03.000Z</time>
      </trkpt>
      <trkpt lat="43.77535" lon="7.07617">
        <ele>844.20001220703</ele>
        <time>2023-08-02T08:12:04.000Z</time>
      </trkpt>
      <trkpt lat="43.77535" lon="7.07617">
        <ele>844.20001220703</ele>
        <time>2023-08-02T08:12:05.000Z</time>
      </trkpt>
      <trkpt lat="43.77534" lon="7.07617">
        <ele>844.20001220703</ele>
        <time>2023-08-02T08:12:06.000Z</time>
      </trkpt>
      <trkpt lat="43.77534" lon="7.07618">
        <ele>844.20001220703</ele>
        <time>2023-08-02T08:12:07.000Z</time>
      </trkpt>
      <trkpt lat="43.77534" lon="7.0762">
        <ele>844.20001220703</ele>
        <time>2023-08-02T08:12:08.000Z</time>
      </trkpt>
      <trkpt lat="43.77534" lon="7.07621">
        <ele>844.20001220703</ele>
        <time>2023-08-02T08:12:09.000Z</time>
      </trkpt>
      <trkpt lat="43.77533" lon="7.07622">
        <ele>844</ele>
        <time>2023-08-02T08:12:10.000Z</time>
      </trkpt>
      <trkpt lat="43.77533" lon="7.07625">
        <ele>843.79998779297</ele>
        <time>2023-08-02T08:12:11.000Z</time>
      </trkpt>
      <trkpt lat="43.77534" lon="7.07627">
        <ele>843.59997558594</ele>
        <time>2023-08-02T08:12:12.000Z</time>
      </trkpt>
      <trkpt lat="43.77535" lon="7.07627">
        <ele>843.20001220703</ele>
        <time>2023-08-02T08:12:13.000Z</time>
      </trkpt>
      <trkpt lat="43.77536" lon="7.07626">
        <ele>842.79998779297</ele>
        <time>2023-08-02T08:12:14.000Z</time>
      </trkpt>
      <trkpt lat="43.77538" lon="7.07624">
        <ele>842.20001220703</ele>
        <time>2023-08-02T08:12:15.000Z</time>
      </trkpt>
      <trkpt lat="43.77539" lon="7.07622">
        <ele>842</ele>
        <time>2023-08-02T08:12:16.000Z</time>
      </trkpt>
      <trkpt lat="43.7754" lon="7.0762">
        <ele>841.59997558594</ele>
        <time>2023-08-02T08:12:17.000Z</time>
      </trkpt>
      <trkpt lat="43.77542" lon="7.07618">
        <ele>841.20001220703</ele>
        <time>2023-08-02T08:12:18.000Z</time>
      </trkpt>
      <trkpt lat="43.77544" lon="7.07615">
        <ele>841</ele>
        <time>2023-08-02T08:12:19.000Z</time>
      </trkpt>
      <trkpt lat="43.77546" lon="7.07615">
        <ele>840.59997558594</ele>
        <time>2023-08-02T08:12:20.000Z</time>
      </trkpt>
      <trkpt lat="43.77547" lon="7.07615">
        <ele>840</ele>
        <time>2023-08-02T08:12:21.000Z</time>
      </trkpt>
      <trkpt lat="43.77548" lon="7.07618">
        <ele>839.59997558594</ele>
        <time>2023-08-02T08:12:22.000Z</time>
      </trkpt>
      <trkpt lat="43.77547" lon="7.0762">
        <ele>839.40002441406</ele>
        <time>2023-08-02T08:12:23.000Z</time>
      </trkpt>
      <trkpt lat="43.77546" lon="7.07622">
        <ele>838.79998779297</ele>
        <time>2023-08-02T08:12:24.000Z</time>
      </trkpt>
      <trkpt lat="43.77546" lon="7.07624">
        <ele>838.59997558594</ele>
        <time>2023-08-02T08:12:25.000Z</time>
      </trkpt>
      <trkpt lat="43.77546" lon="7.07627">
        <ele>838.20001220703</ele>
        <time>2023-08-02T08:12:26.000Z</time>
      </trkpt>
      <trkpt lat="43.77545" lon="7.07629">
        <ele>838</ele>
        <time>2023-08-02T08:12:27.000Z</time>
      </trkpt>
      <trkpt lat="43.77544" lon="7.07631">
        <ele>837.79998779297</ele>
        <time>2023-08-02T08:12:28.000Z</time>
      </trkpt>
      <trkpt lat="43.77544" lon="7.07634">
        <ele>837.79998779297</ele>
        <time>2023-08-02T08:12:29.000Z</time>
      </trkpt>
      <trkpt lat="43.77543" lon="7.07638">
        <ele>837.79998779297</ele>
        <time>2023-08-02T08:12:30.000Z</time>
      </trkpt>
      <trkpt lat="43.77543" lon="7.0764">
        <ele>837.59997558594</ele>
        <time>2023-08-02T08:12:31.000Z</time>
      </trkpt>
      <trkpt lat="43.77542" lon="7.07643">
        <ele>837.20001220703</ele>
        <time>2023-08-02T08:12:32.000Z</time>
      </trkpt>
      <trkpt lat="43.77542" lon="7.07646">
        <ele>836.79998779297</ele>
        <time>2023-08-02T08:12:33.000Z</time>
      </trkpt>
      <trkpt lat="43.77543" lon="7.07647">
        <ele>836.79998779297</ele>
        <time>2023-08-02T08:12:34.000Z</time>
      </trkpt>
      <trkpt lat="43.77544" lon="7.07646">
        <ele>836.59997558594</ele>
        <time>2023-08-02T08:12:35.000Z</time>
      </trkpt>
      <trkpt lat="43.77545" lon="7.07646">
        <ele>836.40002441406</ele>
        <time>2023-08-02T08:12:36.000Z</time>
      </trkpt>
      <trkpt lat="43.77547" lon="7.07645">
        <ele>836.20001220703</ele>
        <time>2023-08-02T08:12:37.000Z</time>
      </trkpt>
      <trkpt lat="43.77549" lon="7.07643">
        <ele>836</ele>
        <time>2023-08-02T08:12:38.000Z</time>
      </trkpt>
      <trkpt lat="43.77552" lon="7.07642">
        <ele>836</ele>
        <time>2023-08-02T08:12:39.000Z</time>
      </trkpt>
      <trkpt lat="43.77554" lon="7.07643">
        <ele>835.79998779297</ele>
        <time>2023-08-02T08:12:40.000Z</time>
      </trkpt>
      <trkpt lat="43.77557" lon="7.07643">
        <ele>835.20001220703</ele>
        <time>2023-08-02T08:12:41.000Z</time>
      </trkpt>
      <trkpt lat="43.7756" lon="7.07644">
        <ele>834.59997558594</ele>
        <time>2023-08-02T08:12:42.000Z</time>
      </trkpt>
      <trkpt lat="43.77562" lon="7.07645">
        <ele>834.20001220703</ele>
        <time>2023-08-02T08:12:43.000Z</time>
      </trkpt>
      <trkpt lat="43.77563" lon="7.07645">
        <ele>834.20001220703</ele>
        <time>2023-08-02T08:12:44.000Z</time>
      </trkpt>
      <trkpt lat="43.77564" lon="7.07646">
        <ele>834.20001220703</ele>
        <time>2023-08-02T08:12:45.000Z</time>
      </trkpt>
      <trkpt lat="43.77564" lon="7.07646">
        <ele>833.59997558594</ele>
        <time>2023-08-02T08:12:46.000Z</time>
      </trkpt>
      <trkpt lat="43.77563" lon="7.07646">
        <ele>833.40002441406</ele>
        <time>2023-08-02T08:12:47.000Z</time>
      </trkpt>
      <trkpt lat="43.77563" lon="7.07646">
        <ele>833.40002441406</ele>
        <time>2023-08-02T08:12:48.000Z</time>
      </trkpt>
      <trkpt lat="43.77563" lon="7.07646">
        <ele>833.40002441406</ele>
        <time>2023-08-02T08:12:49.000Z</time>
      </trkpt>
      <trkpt lat="43.77563" lon="7.07646">
        <ele>833.40002441406</ele>
        <time>2023-08-02T08:12:50.000Z</time>
      </trkpt>
      <trkpt lat="43.77563" lon="7.07646">
        <ele>833.40002441406</ele>
        <time>2023-08-02T08:12:51.000Z</time>
      </trkpt>
      <trkpt lat="43.77564" lon="7.07647">
        <ele>833.40002441406</ele>
        <time>2023-08-02T08:12:52.000Z</time>
      </trkpt>
      <trkpt lat="43.77564" lon="7.07647">
        <ele>833.40002441406</ele>
        <time>2023-08-02T08:12:53.000Z</time>
      </trkpt>
      <trkpt lat="43.77564" lon="7.07647">
        <ele>833.40002441406</ele>
        <time>2023-08-02T08:12:54.000Z</time>
      </trkpt>
      <trkpt lat="43.77564" lon="7.07647">
        <ele>833.40002441406</ele>
        <time>2023-08-02T08:12:55.000Z</time>
      </trkpt>
      <trkpt lat="43.77564" lon="7.07647">
        <ele>833.40002441406</ele>
        <time>2023-08-02T08:12:56.000Z</time>
      </trkpt>
      <trkpt lat="43.77564" lon="7.07647">
        <ele>833.40002441406</ele>
        <time>2023-08-02T08:12:57.000Z</time>
      </trkpt>
      <trkpt lat="43.77564" lon="7.07647">
        <ele>833.40002441406</ele>
        <time>2023-08-02T08:12:58.000Z</time>
      </trkpt>
      <trkpt lat="43.77564" lon="7.07647">
        <ele>833.40002441406</ele>
        <time>2023-08-02T08:12:59.000Z</time>
      </trkpt>
      <trkpt lat="43.77564" lon="7.07647">
        <ele>833.40002441406</ele>
        <time>2023-08-02T08:13:00.000Z</time>
      </trkpt>
      <trkpt lat="43.77564" lon="7.07647">
        <ele>833.40002441406</ele>
        <time>2023-08-02T08:13:01.000Z</time>
      </trkpt>
      <trkpt lat="43.77564" lon="7.07647">
        <ele>833.40002441406</ele>
        <time>2023-08-02T08:13:02.000Z</time>
      </trkpt>
      <trkpt lat="43.77564" lon="7.07647">
        <ele>833.40002441406</ele>
        <time>2023-08-02T08:13:03.000Z</time>
      </trkpt>
      <trkpt lat="43.77564" lon="7.07647">
        <ele>833.40002441406</ele>
        <time>2023-08-02T08:13:04.000Z</time>
      </trkpt>
      <trkpt lat="43.77564" lon="7.07647">
        <ele>833.40002441406</ele>
        <time>2023-08-02T08:13:05.000Z</time>
      </trkpt>
      <trkpt lat="43.77564" lon="7.07647">
        <ele>833.40002441406</ele>
        <time>2023-08-02T08:13:06.000Z</time>
      </trkpt>
      <trkpt lat="43.77564" lon="7.07647">
        <ele>833.40002441406</ele>
        <time>2023-08-02T08:13:07.000Z</time>
      </trkpt>
      <trkpt lat="43.77564" lon="7.07647">
        <ele>833.40002441406</ele>
        <time>2023-08-02T08:13:08.000Z</time>
      </trkpt>
      <trkpt lat="43.77564" lon="7.07647">
        <ele>833.40002441406</ele>
        <time>2023-08-02T08:13:09.000Z</time>
      </trkpt>
      <trkpt lat="43.77564" lon="7.07647">
        <ele>833.40002441406</ele>
        <time>2023-08-02T08:13:10.000Z</time>
      </trkpt>
      <trkpt lat="43.77564" lon="7.07647">
        <ele>833.40002441406</ele>
        <time>2023-08-02T08:13:11.000Z</time>
      </trkpt>
      <trkpt lat="43.77564" lon="7.07647">
        <ele>833.40002441406</ele>
        <time>2023-08-02T08:13:12.000Z</time>
      </trkpt>
      <trkpt lat="43.77564" lon="7.07647">
        <ele>833.40002441406</ele>
        <time>2023-08-02T08:13:13.000Z</time>
      </trkpt>
      <trkpt lat="43.77564" lon="7.07647">
        <ele>833.40002441406</ele>
        <time>2023-08-02T08:13:14.000Z</time>
      </trkpt>
      <trkpt lat="43.77564" lon="7.07647">
        <ele>833.40002441406</ele>
        <time>2023-08-02T08:13:15.000Z</time>
      </trkpt>
      <trkpt lat="43.77564" lon="7.07647">
        <ele>833.40002441406</ele>
        <time>2023-08-02T08:13:16.000Z</time>
      </trkpt>
      <trkpt lat="43.77564" lon="7.07647">
        <ele>833.40002441406</ele>
        <time>2023-08-02T08:13:17.000Z</time>
      </trkpt>
      <trkpt lat="43.77564" lon="7.07647">
        <ele>833.40002441406</ele>
        <time>2023-08-02T08:13:18.000Z</time>
      </trkpt>
      <trkpt lat="43.77564" lon="7.07647">
        <ele>833.40002441406</ele>
        <time>2023-08-02T08:13:19.000Z</time>
      </trkpt>
      <trkpt lat="43.77564" lon="7.07647">
        <ele>833.40002441406</ele>
        <time>2023-08-02T08:13:20.000Z</time>
      </trkpt>
      <trkpt lat="43.77564" lon="7.07647">
        <ele>833.40002441406</ele>
        <time>2023-08-02T08:13:21.000Z</time>
      </trkpt>
      <trkpt lat="43.77564" lon="7.07647">
        <ele>833.40002441406</ele>
        <time>2023-08-02T08:13:22.000Z</time>
      </trkpt>
      <trkpt lat="43.77564" lon="7.07647">
        <ele>833.40002441406</ele>
        <time>2023-08-02T08:13:23.000Z</time>
      </trkpt>
      <trkpt lat="43.77564" lon="7.07647">
        <ele>833.40002441406</ele>
        <time>2023-08-02T08:13:24.000Z</time>
      </trkpt>
      <trkpt lat="43.77564" lon="7.07647">
        <ele>833.40002441406</ele>
        <time>2023-08-02T08:13:25.000Z</time>
      </trkpt>
      <trkpt lat="43.77564" lon="7.07647">
        <ele>833.40002441406</ele>
        <time>2023-08-02T08:13:26.000Z</time>
      </trkpt>
      <trkpt lat="43.77564" lon="7.07647">
        <ele>833.40002441406</ele>
        <time>2023-08-02T08:13:27.000Z</time>
      </trkpt>
      <trkpt lat="43.77564" lon="7.07647">
        <ele>833.40002441406</ele>
        <time>2023-08-02T08:13:28.000Z</time>
      </trkpt>
      <trkpt lat="43.77564" lon="7.07647">
        <ele>833.40002441406</ele>
        <time>2023-08-02T08:13:29.000Z</time>
      </trkpt>
      <trkpt lat="43.77564" lon="7.07647">
        <ele>833.40002441406</ele>
        <time>2023-08-02T08:13:30.000Z</time>
      </trkpt>
      <trkpt lat="43.77564" lon="7.07647">
        <ele>833.40002441406</ele>
        <time>2023-08-02T08:13:31.000Z</time>
      </trkpt>
      <trkpt lat="43.77564" lon="7.07647">
        <ele>833.40002441406</ele>
        <time>2023-08-02T08:13:32.000Z</time>
      </trkpt>
      <trkpt lat="43.77564" lon="7.07647">
        <ele>833.40002441406</ele>
        <time>2023-08-02T08:13:33.000Z</time>
      </trkpt>
      <trkpt lat="43.77564" lon="7.07647">
        <ele>833.40002441406</ele>
        <time>2023-08-02T08:13:34.000Z</time>
      </trkpt>
      <trkpt lat="43.77564" lon="7.07647">
        <ele>833.40002441406</ele>
        <time>2023-08-02T08:13:35.000Z</time>
      </trkpt>
      <trkpt lat="43.77564" lon="7.07647">
        <ele>833.40002441406</ele>
        <time>2023-08-02T08:13:36.000Z</time>
      </trkpt>
      <trkpt lat="43.77564" lon="7.07647">
        <ele>833.40002441406</ele>
        <time>2023-08-02T08:13:37.000Z</time>
      </trkpt>
      <trkpt lat="43.77564" lon="7.07647">
        <ele>833.40002441406</ele>
        <time>2023-08-02T08:13:38.000Z</time>
      </trkpt>
      <trkpt lat="43.77564" lon="7.07647">
        <ele>833.40002441406</ele>
        <time>2023-08-02T08:13:39.000Z</time>
      </trkpt>
      <trkpt lat="43.77564" lon="7.07647">
        <ele>833.40002441406</ele>
        <time>2023-08-02T08:13:40.000Z</time>
      </trkpt>
      <trkpt lat="43.77564" lon="7.07647">
        <ele>833.40002441406</ele>
        <time>2023-08-02T08:13:41.000Z</time>
      </trkpt>
      <trkpt lat="43.77564" lon="7.07647">
        <ele>833.40002441406</ele>
        <time>2023-08-02T08:13:42.000Z</time>
      </trkpt>
      <trkpt lat="43.77564" lon="7.07647">
        <ele>833.40002441406</ele>
        <time>2023-08-02T08:13:43.000Z</time>
      </trkpt>
      <trkpt lat="43.77564" lon="7.07647">
        <ele>833.40002441406</ele>
        <time>2023-08-02T08:13:44.000Z</time>
      </trkpt>
      <trkpt lat="43.77564" lon="7.07647">
        <ele>833.40002441406</ele>
        <time>2023-08-02T08:13:45.000Z</time>
      </trkpt>
      <trkpt lat="43.77564" lon="7.07647">
        <ele>833.40002441406</ele>
        <time>2023-08-02T08:13:46.000Z</time>
      </trkpt>
      <trkpt lat="43.77564" lon="7.07647">
        <ele>833.40002441406</ele>
        <time>2023-08-02T08:13:47.000Z</time>
      </trkpt>
      <trkpt lat="43.77564" lon="7.07647">
        <ele>833.40002441406</ele>
        <time>2023-08-02T08:13:48.000Z</time>
      </trkpt>
      <trkpt lat="43.77564" lon="7.07647">
        <ele>833.40002441406</ele>
        <time>2023-08-02T08:13:49.000Z</time>
      </trkpt>
      <trkpt lat="43.77564" lon="7.07647">
        <ele>833.40002441406</ele>
        <time>2023-08-02T08:13:50.000Z</time>
      </trkpt>
      <trkpt lat="43.77565" lon="7.07649">
        <ele>833.40002441406</ele>
        <time>2023-08-02T08:13:51.000Z</time>
      </trkpt>
      <trkpt lat="43.77566" lon="7.0765">
        <ele>833.59997558594</ele>
        <time>2023-08-02T08:13:52.000Z</time>
      </trkpt>
      <trkpt lat="43.77567" lon="7.07652">
        <ele>833.59997558594</ele>
        <time>2023-08-02T08:13:53.000Z</time>
      </trkpt>
      <trkpt lat="43.77568" lon="7.07653">
        <ele>833.59997558594</ele>
        <time>2023-08-02T08:13:54.000Z</time>
      </trkpt>
      <trkpt lat="43.7757" lon="7.07652">
        <ele>833.40002441406</ele>
        <time>2023-08-02T08:13:55.000Z</time>
      </trkpt>
      <trkpt lat="43.77571" lon="7.0765">
        <ele>833.20001220703</ele>
        <time>2023-08-02T08:13:56.000Z</time>
      </trkpt>
      <trkpt lat="43.77573" lon="7.07648">
        <ele>832.79998779297</ele>
        <time>2023-08-02T08:13:57.000Z</time>
      </trkpt>
      <trkpt lat="43.77574" lon="7.07648">
        <ele>832.59997558594</ele>
        <time>2023-08-02T08:13:58.000Z</time>
      </trkpt>
      <trkpt lat="43.77576" lon="7.07649">
        <ele>832.20001220703</ele>
        <time>2023-08-02T08:13:59.000Z</time>
      </trkpt>
      <trkpt lat="43.7758" lon="7.07652">
        <ele>831.79998779297</ele>
        <time>2023-08-02T08:14:00.000Z</time>
      </trkpt>
      <trkpt lat="43.77585" lon="7.07655">
        <ele>831.40002441406</ele>
        <time>2023-08-02T08:14:01.000Z</time>
      </trkpt>
      <trkpt lat="43.77589" lon="7.07657">
        <ele>831</ele>
        <time>2023-08-02T08:14:02.000Z</time>
      </trkpt>
      <trkpt lat="43.77594" lon="7.07659">
        <ele>831</ele>
        <time>2023-08-02T08:14:03.000Z</time>
      </trkpt>
      <trkpt lat="43.77597" lon="7.0766">
        <ele>830.40002441406</ele>
        <time>2023-08-02T08:14:04.000Z</time>
      </trkpt>
      <trkpt lat="43.77599" lon="7.07662">
        <ele>830.20001220703</ele>
        <time>2023-08-02T08:14:05.000Z</time>
      </trkpt>
      <trkpt lat="43.776" lon="7.07665">
        <ele>829.59997558594</ele>
        <time>2023-08-02T08:14:06.000Z</time>
      </trkpt>
      <trkpt lat="43.77603" lon="7.07666">
        <ele>828.59997558594</ele>
        <time>2023-08-02T08:14:07.000Z</time>
      </trkpt>
      <trkpt lat="43.77605" lon="7.07665">
        <ele>828.20001220703</ele>
        <time>2023-08-02T08:14:08.000Z</time>
      </trkpt>
      <trkpt lat="43.77608" lon="7.07664">
        <ele>827.79998779297</ele>
        <time>2023-08-02T08:14:09.000Z</time>
      </trkpt>
      <trkpt lat="43.77611" lon="7.07663">
        <ele>827.20001220703</ele>
        <time>2023-08-02T08:14:10.000Z</time>
      </trkpt>
      <trkpt lat="43.77613" lon="7.07663">
        <ele>826.79998779297</ele>
        <time>2023-08-02T08:14:11.000Z</time>
      </trkpt>
      <trkpt lat="43.77615" lon="7.07661">
        <ele>826.59997558594</ele>
        <time>2023-08-02T08:14:12.000Z</time>
      </trkpt>
      <trkpt lat="43.77616" lon="7.07659">
        <ele>826.20001220703</ele>
        <time>2023-08-02T08:14:13.000Z</time>
      </trkpt>
      <trkpt lat="43.77618" lon="7.07656">
        <ele>825.79998779297</ele>
        <time>2023-08-02T08:14:14.000Z</time>
      </trkpt>
      <trkpt lat="43.77619" lon="7.07654">
        <ele>825.40002441406</ele>
        <time>2023-08-02T08:14:15.000Z</time>
      </trkpt>
      <trkpt lat="43.7762" lon="7.07651">
        <ele>824.79998779297</ele>
        <time>2023-08-02T08:14:16.000Z</time>
      </trkpt>
      <trkpt lat="43.77621" lon="7.07648">
        <ele>824.40002441406</ele>
        <time>2023-08-02T08:14:17.000Z</time>
      </trkpt>
      <trkpt lat="43.77623" lon="7.07647">
        <ele>823.59997558594</ele>
        <time>2023-08-02T08:14:18.000Z</time>
      </trkpt>
      <trkpt lat="43.77625" lon="7.07647">
        <ele>822.79998779297</ele>
        <time>2023-08-02T08:14:19.000Z</time>
      </trkpt>
      <trkpt lat="43.77626" lon="7.07648">
        <ele>822.59997558594</ele>
        <time>2023-08-02T08:14:20.000Z</time>
      </trkpt>
      <trkpt lat="43.77629" lon="7.0765">
        <ele>822.20001220703</ele>
        <time>2023-08-02T08:14:21.000Z</time>
      </trkpt>
      <trkpt lat="43.77631" lon="7.07653">
        <ele>821.59997558594</ele>
        <time>2023-08-02T08:14:22.000Z</time>
      </trkpt>
      <trkpt lat="43.77632" lon="7.07656">
        <ele>820.79998779297</ele>
        <time>2023-08-02T08:14:23.000Z</time>
      </trkpt>
      <trkpt lat="43.77632" lon="7.07659">
        <ele>820.20001220703</ele>
        <time>2023-08-02T08:14:24.000Z</time>
      </trkpt>
      <trkpt lat="43.77633" lon="7.0766">
        <ele>819.79998779297</ele>
        <time>2023-08-02T08:14:25.000Z</time>
      </trkpt>
      <trkpt lat="43.77634" lon="7.07661">
        <ele>819.79998779297</ele>
        <time>2023-08-02T08:14:26.000Z</time>
      </trkpt>
      <trkpt lat="43.77634" lon="7.07663">
        <ele>819.20001220703</ele>
        <time>2023-08-02T08:14:27.000Z</time>
      </trkpt>
      <trkpt lat="43.77635" lon="7.07666">
        <ele>818.79998779297</ele>
        <time>2023-08-02T08:14:28.000Z</time>
      </trkpt>
      <trkpt lat="43.77635" lon="7.07668">
        <ele>818.40002441406</ele>
        <time>2023-08-02T08:14:29.000Z</time>
      </trkpt>
      <trkpt lat="43.77635" lon="7.07671">
        <ele>818</ele>
        <time>2023-08-02T08:14:30.000Z</time>
      </trkpt>
      <trkpt lat="43.77634" lon="7.07674">
        <ele>817.40002441406</ele>
        <time>2023-08-02T08:14:31.000Z</time>
      </trkpt>
      <trkpt lat="43.77633" lon="7.07677">
        <ele>817</ele>
        <time>2023-08-02T08:14:32.000Z</time>
      </trkpt>
      <trkpt lat="43.77633" lon="7.07681">
        <ele>816.79998779297</ele>
        <time>2023-08-02T08:14:33.000Z</time>
      </trkpt>
      <trkpt lat="43.77632" lon="7.07684">
        <ele>816.40002441406</ele>
        <time>2023-08-02T08:14:34.000Z</time>
      </trkpt>
      <trkpt lat="43.77631" lon="7.07688">
        <ele>816</ele>
        <time>2023-08-02T08:14:35.000Z</time>
      </trkpt>
      <trkpt lat="43.7763" lon="7.07692">
        <ele>815.40002441406</ele>
        <time>2023-08-02T08:14:36.000Z</time>
      </trkpt>
      <trkpt lat="43.7763" lon="7.07695">
        <ele>814.59997558594</ele>
        <time>2023-08-02T08:14:37.000Z</time>
      </trkpt>
      <trkpt lat="43.7763" lon="7.07698">
        <ele>814.20001220703</ele>
        <time>2023-08-02T08:14:38.000Z</time>
      </trkpt>
      <trkpt lat="43.77631" lon="7.077">
        <ele>813</ele>
        <time>2023-08-02T08:14:39.000Z</time>
      </trkpt>
      <trkpt lat="43.77633" lon="7.07701">
        <ele>813</ele>
        <time>2023-08-02T08:14:40.000Z</time>
      </trkpt>
      <trkpt lat="43.77635" lon="7.07702">
        <ele>812.40002441406</ele>
        <time>2023-08-02T08:14:41.000Z</time>
      </trkpt>
      <trkpt lat="43.77637" lon="7.07703">
        <ele>812.20001220703</ele>
        <time>2023-08-02T08:14:42.000Z</time>
      </trkpt>
      <trkpt lat="43.7764" lon="7.07705">
        <ele>811.59997558594</ele>
        <time>2023-08-02T08:14:43.000Z</time>
      </trkpt>
      <trkpt lat="43.77642" lon="7.07708">
        <ele>811.20001220703</ele>
        <time>2023-08-02T08:14:44.000Z</time>
      </trkpt>
      <trkpt lat="43.77643" lon="7.07711">
        <ele>810.59997558594</ele>
        <time>2023-08-02T08:14:45.000Z</time>
      </trkpt>
      <trkpt lat="43.77644" lon="7.07715">
        <ele>809.79998779297</ele>
        <time>2023-08-02T08:14:46.000Z</time>
      </trkpt>
      <trkpt lat="43.77644" lon="7.07718">
        <ele>809.40002441406</ele>
        <time>2023-08-02T08:14:47.000Z</time>
      </trkpt>
      <trkpt lat="43.77643" lon="7.07721">
        <ele>809</ele>
        <time>2023-08-02T08:14:48.000Z</time>
      </trkpt>
      <trkpt lat="43.77643" lon="7.07723">
        <ele>809</ele>
        <time>2023-08-02T08:14:49.000Z</time>
      </trkpt>
      <trkpt lat="43.77641" lon="7.07726">
        <ele>808.79998779297</ele>
        <time>2023-08-02T08:14:50.000Z</time>
      </trkpt>
      <trkpt lat="43.7764" lon="7.07728">
        <ele>808.20001220703</ele>
        <time>2023-08-02T08:14:51.000Z</time>
      </trkpt>
      <trkpt lat="43.77639" lon="7.07731">
        <ele>807.79998779297</ele>
        <time>2023-08-02T08:14:52.000Z</time>
      </trkpt>
      <trkpt lat="43.77637" lon="7.07733">
        <ele>807.40002441406</ele>
        <time>2023-08-02T08:14:53.000Z</time>
      </trkpt>
      <trkpt lat="43.77636" lon="7.07735">
        <ele>807</ele>
        <time>2023-08-02T08:14:54.000Z</time>
      </trkpt>
      <trkpt lat="43.77635" lon="7.07736">
        <ele>806.40002441406</ele>
        <time>2023-08-02T08:14:55.000Z</time>
      </trkpt>
      <trkpt lat="43.77635" lon="7.07736">
        <ele>805.79998779297</ele>
        <time>2023-08-02T08:14:56.000Z</time>
      </trkpt>
      <trkpt lat="43.77634" lon="7.07736">
        <ele>805.59997558594</ele>
        <time>2023-08-02T08:14:57.000Z</time>
      </trkpt>
      <trkpt lat="43.77634" lon="7.07736">
        <ele>805.20001220703</ele>
        <time>2023-08-02T08:14:58.000Z</time>
      </trkpt>
      <trkpt lat="43.77634" lon="7.07736">
        <ele>805.20001220703</ele>
        <time>2023-08-02T08:14:59.000Z</time>
      </trkpt>
      <trkpt lat="43.77634" lon="7.07736">
        <ele>805</ele>
        <time>2023-08-02T08:15:00.000Z</time>
      </trkpt>
      <trkpt lat="43.77634" lon="7.07736">
        <ele>805</ele>
        <time>2023-08-02T08:15:01.000Z</time>
      </trkpt>
      <trkpt lat="43.77634" lon="7.07736">
        <ele>805</ele>
        <time>2023-08-02T08:15:02.000Z</time>
      </trkpt>
      <trkpt lat="43.77634" lon="7.07736">
        <ele>805</ele>
        <time>2023-08-02T08:15:03.000Z</time>
      </trkpt>
      <trkpt lat="43.77634" lon="7.07736">
        <ele>805</ele>
        <time>2023-08-02T08:15:04.000Z</time>
      </trkpt>
      <trkpt lat="43.77634" lon="7.07736">
        <ele>805</ele>
        <time>2023-08-02T08:15:05.000Z</time>
      </trkpt>
      <trkpt lat="43.77634" lon="7.07736">
        <ele>805</ele>
        <time>2023-08-02T08:15:06.000Z</time>
      </trkpt>
      <trkpt lat="43.77634" lon="7.07736">
        <ele>805</ele>
        <time>2023-08-02T08:15:07.000Z</time>
      </trkpt>
      <trkpt lat="43.77634" lon="7.07736">
        <ele>805</ele>
        <time>2023-08-02T08:15:08.000Z</time>
      </trkpt>
      <trkpt lat="43.77634" lon="7.07736">
        <ele>805</ele>
        <time>2023-08-02T08:15:09.000Z</time>
      </trkpt>
      <trkpt lat="43.77634" lon="7.07736">
        <ele>805</ele>
        <time>2023-08-02T08:15:10.000Z</time>
      </trkpt>
      <trkpt lat="43.77634" lon="7.07736">
        <ele>805</ele>
        <time>2023-08-02T08:15:11.000Z</time>
      </trkpt>
      <trkpt lat="43.77634" lon="7.07736">
        <ele>805</ele>
        <time>2023-08-02T08:15:12.000Z</time>
      </trkpt>
      <trkpt lat="43.77634" lon="7.07736">
        <ele>805</ele>
        <time>2023-08-02T08:15:13.000Z</time>
      </trkpt>
      <trkpt lat="43.77634" lon="7.07736">
        <ele>805</ele>
        <time>2023-08-02T08:15:14.000Z</time>
      </trkpt>
      <trkpt lat="43.77634" lon="7.07736">
        <ele>805</ele>
        <time>2023-08-02T08:15:15.000Z</time>
      </trkpt>
      <trkpt lat="43.77634" lon="7.07736">
        <ele>805</ele>
        <time>2023-08-02T08:15:16.000Z</time>
      </trkpt>
      <trkpt lat="43.77634" lon="7.07736">
        <ele>804.79998779297</ele>
        <time>2023-08-02T08:15:17.000Z</time>
      </trkpt>
      <trkpt lat="43.77634" lon="7.07736">
        <ele>805</ele>
        <time>2023-08-02T08:15:18.000Z</time>
      </trkpt>
      <trkpt lat="43.77634" lon="7.07736">
        <ele>805</ele>
        <time>2023-08-02T08:15:19.000Z</time>
      </trkpt>
      <trkpt lat="43.77634" lon="7.07736">
        <ele>805</ele>
        <time>2023-08-02T08:15:20.000Z</time>
      </trkpt>
      <trkpt lat="43.77634" lon="7.07736">
        <ele>805</ele>
        <time>2023-08-02T08:15:21.000Z</time>
      </trkpt>
      <trkpt lat="43.77634" lon="7.07736">
        <ele>805.20001220703</ele>
        <time>2023-08-02T08:15:22.000Z</time>
      </trkpt>
      <trkpt lat="43.77634" lon="7.07736">
        <ele>805.20001220703</ele>
        <time>2023-08-02T08:15:23.000Z</time>
      </trkpt>
      <trkpt lat="43.77635" lon="7.07736">
        <ele>805.20001220703</ele>
        <time>2023-08-02T08:15:24.000Z</time>
      </trkpt>
      <trkpt lat="43.77635" lon="7.07736">
        <ele>805.20001220703</ele>
        <time>2023-08-02T08:15:25.000Z</time>
      </trkpt>
      <trkpt lat="43.77635" lon="7.07736">
        <ele>805.20001220703</ele>
        <time>2023-08-02T08:15:26.000Z</time>
      </trkpt>
      <trkpt lat="43.77635" lon="7.07736">
        <ele>805.20001220703</ele>
        <time>2023-08-02T08:15:27.000Z</time>
      </trkpt>
      <trkpt lat="43.77635" lon="7.07736">
        <ele>805.20001220703</ele>
        <time>2023-08-02T08:15:28.000Z</time>
      </trkpt>
      <trkpt lat="43.77635" lon="7.07736">
        <ele>805.20001220703</ele>
        <time>2023-08-02T08:15:29.000Z</time>
      </trkpt>
      <trkpt lat="43.77635" lon="7.07736">
        <ele>805.20001220703</ele>
        <time>2023-08-02T08:15:30.000Z</time>
      </trkpt>
      <trkpt lat="43.77635" lon="7.07736">
        <ele>805.40002441406</ele>
        <time>2023-08-02T08:15:31.000Z</time>
      </trkpt>
      <trkpt lat="43.77635" lon="7.07736">
        <ele>805.40002441406</ele>
        <time>2023-08-02T08:15:32.000Z</time>
      </trkpt>
      <trkpt lat="43.77635" lon="7.07736">
        <ele>805.40002441406</ele>
        <time>2023-08-02T08:15:33.000Z</time>
      </trkpt>
      <trkpt lat="43.77635" lon="7.07736">
        <ele>805.40002441406</ele>
        <time>2023-08-02T08:15:34.000Z</time>
      </trkpt>
      <trkpt lat="43.77635" lon="7.07736">
        <ele>805.40002441406</ele>
        <time>2023-08-02T08:15:35.000Z</time>
      </trkpt>
      <trkpt lat="43.77635" lon="7.07736">
        <ele>805.40002441406</ele>
        <time>2023-08-02T08:15:36.000Z</time>
      </trkpt>
      <trkpt lat="43.77635" lon="7.07736">
        <ele>805.40002441406</ele>
        <time>2023-08-02T08:15:37.000Z</time>
      </trkpt>
      <trkpt lat="43.77638" lon="7.07738">
        <ele>805.40002441406</ele>
        <time>2023-08-02T08:15:38.000Z</time>
      </trkpt>
      <trkpt lat="43.77638" lon="7.07738">
        <ele>805.40002441406</ele>
        <time>2023-08-02T08:15:39.000Z</time>
      </trkpt>
      <trkpt lat="43.77638" lon="7.07738">
        <ele>805.40002441406</ele>
        <time>2023-08-02T08:15:40.000Z</time>
      </trkpt>
      <trkpt lat="43.77638" lon="7.07738">
        <ele>805.40002441406</ele>
        <time>2023-08-02T08:15:41.000Z</time>
      </trkpt>
      <trkpt lat="43.77638" lon="7.07738">
        <ele>805.40002441406</ele>
        <time>2023-08-02T08:15:42.000Z</time>
      </trkpt>
      <trkpt lat="43.77638" lon="7.07738">
        <ele>805.40002441406</ele>
        <time>2023-08-02T08:15:43.000Z</time>
      </trkpt>
      <trkpt lat="43.77638" lon="7.07738">
        <ele>805.20001220703</ele>
        <time>2023-08-02T08:15:44.000Z</time>
      </trkpt>
      <trkpt lat="43.77638" lon="7.07738">
        <ele>805.20001220703</ele>
        <time>2023-08-02T08:15:45.000Z</time>
      </trkpt>
      <trkpt lat="43.77638" lon="7.07738">
        <ele>805.20001220703</ele>
        <time>2023-08-02T08:15:46.000Z</time>
      </trkpt>
      <trkpt lat="43.77638" lon="7.07738">
        <ele>805.20001220703</ele>
        <time>2023-08-02T08:15:47.000Z</time>
      </trkpt>
      <trkpt lat="43.77638" lon="7.07738">
        <ele>805.20001220703</ele>
        <time>2023-08-02T08:15:48.000Z</time>
      </trkpt>
      <trkpt lat="43.77638" lon="7.07738">
        <ele>805.20001220703</ele>
        <time>2023-08-02T08:15:49.000Z</time>
      </trkpt>
      <trkpt lat="43.77638" lon="7.07738">
        <ele>805.20001220703</ele>
        <time>2023-08-02T08:15:50.000Z</time>
      </trkpt>
      <trkpt lat="43.77638" lon="7.07738">
        <ele>805.20001220703</ele>
        <time>2023-08-02T08:15:51.000Z</time>
      </trkpt>
      <trkpt lat="43.77638" lon="7.07738">
        <ele>805.20001220703</ele>
        <time>2023-08-02T08:15:52.000Z</time>
      </trkpt>
      <trkpt lat="43.77638" lon="7.07738">
        <ele>805.20001220703</ele>
        <time>2023-08-02T08:15:53.000Z</time>
      </trkpt>
      <trkpt lat="43.77639" lon="7.07738">
        <ele>805.20001220703</ele>
        <time>2023-08-02T08:15:54.000Z</time>
      </trkpt>
      <trkpt lat="43.77639" lon="7.07738">
        <ele>805.20001220703</ele>
        <time>2023-08-02T08:15:55.000Z</time>
      </trkpt>
      <trkpt lat="43.77639" lon="7.07738">
        <ele>805.20001220703</ele>
        <time>2023-08-02T08:15:56.000Z</time>
      </trkpt>
      <trkpt lat="43.77638" lon="7.07738">
        <ele>805.20001220703</ele>
        <time>2023-08-02T08:15:57.000Z</time>
      </trkpt>
      <trkpt lat="43.77639" lon="7.07737">
        <ele>805.20001220703</ele>
        <time>2023-08-02T08:15:58.000Z</time>
      </trkpt>
      <trkpt lat="43.77639" lon="7.07738">
        <ele>805.20001220703</ele>
        <time>2023-08-02T08:15:59.000Z</time>
      </trkpt>
      <trkpt lat="43.77639" lon="7.07737">
        <ele>805.20001220703</ele>
        <time>2023-08-02T08:16:00.000Z</time>
      </trkpt>
      <trkpt lat="43.77639" lon="7.07737">
        <ele>805.20001220703</ele>
        <time>2023-08-02T08:16:01.000Z</time>
      </trkpt>
      <trkpt lat="43.77639" lon="7.07737">
        <ele>805.20001220703</ele>
        <time>2023-08-02T08:16:02.000Z</time>
      </trkpt>
      <trkpt lat="43.77639" lon="7.07737">
        <ele>805.20001220703</ele>
        <time>2023-08-02T08:16:03.000Z</time>
      </trkpt>
      <trkpt lat="43.77639" lon="7.07737">
        <ele>805.20001220703</ele>
        <time>2023-08-02T08:16:04.000Z</time>
      </trkpt>
      <trkpt lat="43.77639" lon="7.07737">
        <ele>805.20001220703</ele>
        <time>2023-08-02T08:16:05.000Z</time>
      </trkpt>
      <trkpt lat="43.77639" lon="7.07738">
        <ele>805.20001220703</ele>
        <time>2023-08-02T08:16:06.000Z</time>
      </trkpt>
      <trkpt lat="43.7764" lon="7.07738">
        <ele>805.20001220703</ele>
        <time>2023-08-02T08:16:07.000Z</time>
      </trkpt>
      <trkpt lat="43.7764" lon="7.07737">
        <ele>805.20001220703</ele>
        <time>2023-08-02T08:16:08.000Z</time>
      </trkpt>
      <trkpt lat="43.7764" lon="7.07737">
        <ele>805.20001220703</ele>
        <time>2023-08-02T08:16:09.000Z</time>
      </trkpt>
      <trkpt lat="43.7764" lon="7.07737">
        <ele>805.20001220703</ele>
        <time>2023-08-02T08:16:10.000Z</time>
      </trkpt>
      <trkpt lat="43.7764" lon="7.07737">
        <ele>805.20001220703</ele>
        <time>2023-08-02T08:16:11.000Z</time>
      </trkpt>
      <trkpt lat="43.7764" lon="7.07737">
        <ele>805.20001220703</ele>
        <time>2023-08-02T08:16:12.000Z</time>
      </trkpt>
      <trkpt lat="43.7764" lon="7.07737">
        <ele>805.20001220703</ele>
        <time>2023-08-02T08:16:13.000Z</time>
      </trkpt>
      <trkpt lat="43.7764" lon="7.07737">
        <ele>805.20001220703</ele>
        <time>2023-08-02T08:16:14.000Z</time>
      </trkpt>
      <trkpt lat="43.7764" lon="7.07737">
        <ele>805.20001220703</ele>
        <time>2023-08-02T08:16:15.000Z</time>
      </trkpt>
      <trkpt lat="43.7764" lon="7.07737">
        <ele>805.20001220703</ele>
        <time>2023-08-02T08:16:16.000Z</time>
      </trkpt>
      <trkpt lat="43.7764" lon="7.07737">
        <ele>805.20001220703</ele>
        <time>2023-08-02T08:16:17.000Z</time>
      </trkpt>
      <trkpt lat="43.7764" lon="7.07737">
        <ele>805.20001220703</ele>
        <time>2023-08-02T08:16:18.000Z</time>
      </trkpt>
      <trkpt lat="43.7764" lon="7.07737">
        <ele>805.20001220703</ele>
        <time>2023-08-02T08:16:19.000Z</time>
      </trkpt>
      <trkpt lat="43.7764" lon="7.07738">
        <ele>805.20001220703</ele>
        <time>2023-08-02T08:16:20.000Z</time>
      </trkpt>
      <trkpt lat="43.7764" lon="7.07737">
        <ele>805.20001220703</ele>
        <time>2023-08-02T08:16:21.000Z</time>
      </trkpt>
      <trkpt lat="43.7764" lon="7.07737">
        <ele>805.20001220703</ele>
        <time>2023-08-02T08:16:22.000Z</time>
      </trkpt>
      <trkpt lat="43.7764" lon="7.07737">
        <ele>805.20001220703</ele>
        <time>2023-08-02T08:16:23.000Z</time>
      </trkpt>
      <trkpt lat="43.7764" lon="7.07737">
        <ele>805.20001220703</ele>
        <time>2023-08-02T08:16:24.000Z</time>
      </trkpt>
      <trkpt lat="43.7764" lon="7.07737">
        <ele>805.20001220703</ele>
        <time>2023-08-02T08:16:25.000Z</time>
      </trkpt>
      <trkpt lat="43.77639" lon="7.07737">
        <ele>805.20001220703</ele>
        <time>2023-08-02T08:16:26.000Z</time>
      </trkpt>
      <trkpt lat="43.77639" lon="7.07737">
        <ele>805.20001220703</ele>
        <time>2023-08-02T08:16:27.000Z</time>
      </trkpt>
      <trkpt lat="43.77639" lon="7.07737">
        <ele>805.20001220703</ele>
        <time>2023-08-02T08:16:28.000Z</time>
      </trkpt>
      <trkpt lat="43.77639" lon="7.07738">
        <ele>805.20001220703</ele>
        <time>2023-08-02T08:16:29.000Z</time>
      </trkpt>
      <trkpt lat="43.7764" lon="7.07738">
        <ele>805.20001220703</ele>
        <time>2023-08-02T08:16:30.000Z</time>
      </trkpt>
      <trkpt lat="43.7764" lon="7.07738">
        <ele>805.20001220703</ele>
        <time>2023-08-02T08:16:31.000Z</time>
      </trkpt>
      <trkpt lat="43.77641" lon="7.07739">
        <ele>805.20001220703</ele>
        <time>2023-08-02T08:16:32.000Z</time>
      </trkpt>
      <trkpt lat="43.77642" lon="7.0774">
        <ele>805.20001220703</ele>
        <time>2023-08-02T08:16:33.000Z</time>
      </trkpt>
      <trkpt lat="43.77644" lon="7.07739">
        <ele>805.20001220703</ele>
        <time>2023-08-02T08:16:34.000Z</time>
      </trkpt>
      <trkpt lat="43.77645" lon="7.07738">
        <ele>805.20001220703</ele>
        <time>2023-08-02T08:16:35.000Z</time>
      </trkpt>
      <trkpt lat="43.77647" lon="7.07739">
        <ele>805.20001220703</ele>
        <time>2023-08-02T08:16:36.000Z</time>
      </trkpt>
      <trkpt lat="43.77648" lon="7.07741">
        <ele>804.59997558594</ele>
        <time>2023-08-02T08:16:37.000Z</time>
      </trkpt>
      <trkpt lat="43.77649" lon="7.07743">
        <ele>803.79998779297</ele>
        <time>2023-08-02T08:16:38.000Z</time>
      </trkpt>
      <trkpt lat="43.77651" lon="7.07743">
        <ele>803.59997558594</ele>
        <time>2023-08-02T08:16:39.000Z</time>
      </trkpt>
      <trkpt lat="43.77653" lon="7.07742">
        <ele>803</ele>
        <time>2023-08-02T08:16:40.000Z</time>
      </trkpt>
      <trkpt lat="43.77655" lon="7.0774">
        <ele>802.20001220703</ele>
        <time>2023-08-02T08:16:41.000Z</time>
      </trkpt>
      <trkpt lat="43.77657" lon="7.07738">
        <ele>801.59997558594</ele>
        <time>2023-08-02T08:16:42.000Z</time>
      </trkpt>
      <trkpt lat="43.77659" lon="7.07735">
        <ele>801.20001220703</ele>
        <time>2023-08-02T08:16:43.000Z</time>
      </trkpt>
      <trkpt lat="43.77661" lon="7.07733">
        <ele>800</ele>
        <time>2023-08-02T08:16:44.000Z</time>
      </trkpt>
      <trkpt lat="43.77662" lon="7.07732">
        <ele>799.40002441406</ele>
        <time>2023-08-02T08:16:45.000Z</time>
      </trkpt>
      <trkpt lat="43.77664" lon="7.07731">
        <ele>799.40002441406</ele>
        <time>2023-08-02T08:16:46.000Z</time>
      </trkpt>
      <trkpt lat="43.77667" lon="7.07731">
        <ele>798.79998779297</ele>
        <time>2023-08-02T08:16:47.000Z</time>
      </trkpt>
      <trkpt lat="43.77669" lon="7.07731">
        <ele>798.20001220703</ele>
        <time>2023-08-02T08:16:48.000Z</time>
      </trkpt>
      <trkpt lat="43.77672" lon="7.0773">
        <ele>797.59997558594</ele>
        <time>2023-08-02T08:16:49.000Z</time>
      </trkpt>
      <trkpt lat="43.77675" lon="7.07731">
        <ele>797.20001220703</ele>
        <time>2023-08-02T08:16:50.000Z</time>
      </trkpt>
      <trkpt lat="43.77678" lon="7.07733">
        <ele>796.20001220703</ele>
        <time>2023-08-02T08:16:51.000Z</time>
      </trkpt>
      <trkpt lat="43.77681" lon="7.07732">
        <ele>795.20001220703</ele>
        <time>2023-08-02T08:16:52.000Z</time>
      </trkpt>
      <trkpt lat="43.77683" lon="7.07731">
        <ele>794.20001220703</ele>
        <time>2023-08-02T08:16:53.000Z</time>
      </trkpt>
      <trkpt lat="43.77685" lon="7.07729">
        <ele>793.40002441406</ele>
        <time>2023-08-02T08:16:54.000Z</time>
      </trkpt>
      <trkpt lat="43.77686" lon="7.07726">
        <ele>792.59997558594</ele>
        <time>2023-08-02T08:16:55.000Z</time>
      </trkpt>
      <trkpt lat="43.77687" lon="7.07723">
        <ele>791.59997558594</ele>
        <time>2023-08-02T08:16:56.000Z</time>
      </trkpt>
      <trkpt lat="43.77688" lon="7.07719">
        <ele>791</ele>
        <time>2023-08-02T08:16:57.000Z</time>
      </trkpt>
      <trkpt lat="43.7769" lon="7.07715">
        <ele>790</ele>
        <time>2023-08-02T08:16:58.000Z</time>
      </trkpt>
      <trkpt lat="43.77693" lon="7.07711">
        <ele>789.20001220703</ele>
        <time>2023-08-02T08:16:59.000Z</time>
      </trkpt>
      <trkpt lat="43.77695" lon="7.07709">
        <ele>788.40002441406</ele>
        <time>2023-08-02T08:17:00.000Z</time>
      </trkpt>
      <trkpt lat="43.77697" lon="7.07707">
        <ele>787.20001220703</ele>
        <time>2023-08-02T08:17:01.000Z</time>
      </trkpt>
      <trkpt lat="43.77701" lon="7.07708">
        <ele>786.40002441406</ele>
        <time>2023-08-02T08:17:02.000Z</time>
      </trkpt>
      <trkpt lat="43.77704" lon="7.07711">
        <ele>785.79998779297</ele>
        <time>2023-08-02T08:17:03.000Z</time>
      </trkpt>
      <trkpt lat="43.77706" lon="7.07714">
        <ele>785.20001220703</ele>
        <time>2023-08-02T08:17:04.000Z</time>
      </trkpt>
      <trkpt lat="43.77709" lon="7.07717">
        <ele>784.59997558594</ele>
        <time>2023-08-02T08:17:05.000Z</time>
      </trkpt>
      <trkpt lat="43.77711" lon="7.07719">
        <ele>783.79998779297</ele>
        <time>2023-08-02T08:17:06.000Z</time>
      </trkpt>
      <trkpt lat="43.77714" lon="7.07719">
        <ele>783.40002441406</ele>
        <time>2023-08-02T08:17:07.000Z</time>
      </trkpt>
      <trkpt lat="43.77716" lon="7.07719">
        <ele>782.40002441406</ele>
        <time>2023-08-02T08:17:08.000Z</time>
      </trkpt>
      <trkpt lat="43.77719" lon="7.07718">
        <ele>782.40002441406</ele>
        <time>2023-08-02T08:17:09.000Z</time>
      </trkpt>
      <trkpt lat="43.77721" lon="7.0772">
        <ele>781.79998779297</ele>
        <time>2023-08-02T08:17:10.000Z</time>
      </trkpt>
      <trkpt lat="43.77722" lon="7.07722">
        <ele>781</ele>
        <time>2023-08-02T08:17:11.000Z</time>
      </trkpt>
      <trkpt lat="43.77724" lon="7.07726">
        <ele>780.20001220703</ele>
        <time>2023-08-02T08:17:12.000Z</time>
      </trkpt>
      <trkpt lat="43.77727" lon="7.07728">
        <ele>779.79998779297</ele>
        <time>2023-08-02T08:17:13.000Z</time>
      </trkpt>
      <trkpt lat="43.77729" lon="7.07729">
        <ele>779.20001220703</ele>
        <time>2023-08-02T08:17:14.000Z</time>
      </trkpt>
      <trkpt lat="43.77731" lon="7.07731">
        <ele>778.79998779297</ele>
        <time>2023-08-02T08:17:15.000Z</time>
      </trkpt>
      <trkpt lat="43.77733" lon="7.07732">
        <ele>777.79998779297</ele>
        <time>2023-08-02T08:17:16.000Z</time>
      </trkpt>
      <trkpt lat="43.77734" lon="7.07731">
        <ele>777</ele>
        <time>2023-08-02T08:17:17.000Z</time>
      </trkpt>
      <trkpt lat="43.77734" lon="7.07731">
        <ele>776.40002441406</ele>
        <time>2023-08-02T08:17:18.000Z</time>
      </trkpt>
      <trkpt lat="43.77733" lon="7.07731">
        <ele>775.59997558594</ele>
        <time>2023-08-02T08:17:19.000Z</time>
      </trkpt>
      <trkpt lat="43.77734" lon="7.07731">
        <ele>775.40002441406</ele>
        <time>2023-08-02T08:17:20.000Z</time>
      </trkpt>
      <trkpt lat="43.77734" lon="7.07732">
        <ele>775.20001220703</ele>
        <time>2023-08-02T08:17:21.000Z</time>
      </trkpt>
      <trkpt lat="43.77735" lon="7.07732">
        <ele>775</ele>
        <time>2023-08-02T08:17:22.000Z</time>
      </trkpt>
      <trkpt lat="43.77736" lon="7.07732">
        <ele>774.79998779297</ele>
        <time>2023-08-02T08:17:23.000Z</time>
      </trkpt>
      <trkpt lat="43.77738" lon="7.07733">
        <ele>774.79998779297</ele>
        <time>2023-08-02T08:17:24.000Z</time>
      </trkpt>
      <trkpt lat="43.77741" lon="7.07732">
        <ele>774.79998779297</ele>
        <time>2023-08-02T08:17:25.000Z</time>
      </trkpt>
      <trkpt lat="43.77743" lon="7.07731">
        <ele>774.59997558594</ele>
        <time>2023-08-02T08:17:26.000Z</time>
      </trkpt>
      <trkpt lat="43.77743" lon="7.07729">
        <ele>774.40002441406</ele>
        <time>2023-08-02T08:17:27.000Z</time>
      </trkpt>
      <trkpt lat="43.77744" lon="7.07728">
        <ele>773.40002441406</ele>
        <time>2023-08-02T08:17:28.000Z</time>
      </trkpt>
      <trkpt lat="43.77745" lon="7.07726">
        <ele>773</ele>
        <time>2023-08-02T08:17:29.000Z</time>
      </trkpt>
      <trkpt lat="43.77745" lon="7.07724">
        <ele>771.79998779297</ele>
        <time>2023-08-02T08:17:30.000Z</time>
      </trkpt>
      <trkpt lat="43.77746" lon="7.07721">
        <ele>771.20001220703</ele>
        <time>2023-08-02T08:17:31.000Z</time>
      </trkpt>
      <trkpt lat="43.77747" lon="7.0772">
        <ele>771.20001220703</ele>
        <time>2023-08-02T08:17:32.000Z</time>
      </trkpt>
      <trkpt lat="43.77749" lon="7.07719">
        <ele>770.79998779297</ele>
        <time>2023-08-02T08:17:33.000Z</time>
      </trkpt>
      <trkpt lat="43.7775" lon="7.0772">
        <ele>770.20001220703</ele>
        <time>2023-08-02T08:17:34.000Z</time>
      </trkpt>
      <trkpt lat="43.77753" lon="7.07721">
        <ele>769.59997558594</ele>
        <time>2023-08-02T08:17:35.000Z</time>
      </trkpt>
      <trkpt lat="43.77755" lon="7.07722">
        <ele>769.40002441406</ele>
        <time>2023-08-02T08:17:36.000Z</time>
      </trkpt>
      <trkpt lat="43.77758" lon="7.07723">
        <ele>769.20001220703</ele>
        <time>2023-08-02T08:17:37.000Z</time>
      </trkpt>
      <trkpt lat="43.77762" lon="7.07724">
        <ele>768.40002441406</ele>
        <time>2023-08-02T08:17:38.000Z</time>
      </trkpt>
      <trkpt lat="43.77764" lon="7.07724">
        <ele>767.79998779297</ele>
        <time>2023-08-02T08:17:39.000Z</time>
      </trkpt>
      <trkpt lat="43.77766" lon="7.07727">
        <ele>767.59997558594</ele>
        <time>2023-08-02T08:17:40.000Z</time>
      </trkpt>
      <trkpt lat="43.77767" lon="7.0773">
        <ele>766.20001220703</ele>
        <time>2023-08-02T08:17:41.000Z</time>
      </trkpt>
      <trkpt lat="43.77769" lon="7.07735">
        <ele>765.40002441406</ele>
        <time>2023-08-02T08:17:42.000Z</time>
      </trkpt>
      <trkpt lat="43.7777" lon="7.07739">
        <ele>764.79998779297</ele>
        <time>2023-08-02T08:17:43.000Z</time>
      </trkpt>
      <trkpt lat="43.77771" lon="7.07741">
        <ele>764.20001220703</ele>
        <time>2023-08-02T08:17:44.000Z</time>
      </trkpt>
      <trkpt lat="43.77771" lon="7.07743">
        <ele>763.40002441406</ele>
        <time>2023-08-02T08:17:45.000Z</time>
      </trkpt>
      <trkpt lat="43.77772" lon="7.07745">
        <ele>762.79998779297</ele>
        <time>2023-08-02T08:17:46.000Z</time>
      </trkpt>
      <trkpt lat="43.77774" lon="7.07747">
        <ele>762</ele>
        <time>2023-08-02T08:17:47.000Z</time>
      </trkpt>
      <trkpt lat="43.77775" lon="7.0775">
        <ele>761.79998779297</ele>
        <time>2023-08-02T08:17:48.000Z</time>
      </trkpt>
      <trkpt lat="43.77777" lon="7.07752">
        <ele>761.40002441406</ele>
        <time>2023-08-02T08:17:49.000Z</time>
      </trkpt>
      <trkpt lat="43.77778" lon="7.07755">
        <ele>761</ele>
        <time>2023-08-02T08:17:50.000Z</time>
      </trkpt>
      <trkpt lat="43.77779" lon="7.07757">
        <ele>760.40002441406</ele>
        <time>2023-08-02T08:17:51.000Z</time>
      </trkpt>
      <trkpt lat="43.7778" lon="7.0776">
        <ele>760</ele>
        <time>2023-08-02T08:17:52.000Z</time>
      </trkpt>
      <trkpt lat="43.77782" lon="7.07762">
        <ele>759.40002441406</ele>
        <time>2023-08-02T08:17:53.000Z</time>
      </trkpt>
      <trkpt lat="43.77782" lon="7.07764">
        <ele>758.40002441406</ele>
        <time>2023-08-02T08:17:54.000Z</time>
      </trkpt>
      <trkpt lat="43.77782" lon="7.07765">
        <ele>758.40002441406</ele>
        <time>2023-08-02T08:17:55.000Z</time>
      </trkpt>
      <trkpt lat="43.77782" lon="7.07767">
        <ele>757.59997558594</ele>
        <time>2023-08-02T08:17:56.000Z</time>
      </trkpt>
      <trkpt lat="43.77783" lon="7.07769">
        <ele>757.40002441406</ele>
        <time>2023-08-02T08:17:57.000Z</time>
      </trkpt>
      <trkpt lat="43.77783" lon="7.07771">
        <ele>756.79998779297</ele>
        <time>2023-08-02T08:17:58.000Z</time>
      </trkpt>
      <trkpt lat="43.77784" lon="7.07772">
        <ele>756.20001220703</ele>
        <time>2023-08-02T08:17:59.000Z</time>
      </trkpt>
      <trkpt lat="43.77786" lon="7.07774">
        <ele>755.79998779297</ele>
        <time>2023-08-02T08:18:00.000Z</time>
      </trkpt>
      <trkpt lat="43.77787" lon="7.07777">
        <ele>755.20001220703</ele>
        <time>2023-08-02T08:18:01.000Z</time>
      </trkpt>
      <trkpt lat="43.77788" lon="7.07779">
        <ele>754.79998779297</ele>
        <time>2023-08-02T08:18:02.000Z</time>
      </trkpt>
      <trkpt lat="43.77788" lon="7.0778">
        <ele>754.20001220703</ele>
        <time>2023-08-02T08:18:03.000Z</time>
      </trkpt>
      <trkpt lat="43.77787" lon="7.07782">
        <ele>753.20001220703</ele>
        <time>2023-08-02T08:18:04.000Z</time>
      </trkpt>
      <trkpt lat="43.77787" lon="7.07785">
        <ele>752.59997558594</ele>
        <time>2023-08-02T08:18:05.000Z</time>
      </trkpt>
      <trkpt lat="43.77788" lon="7.07788">
        <ele>752</ele>
        <time>2023-08-02T08:18:06.000Z</time>
      </trkpt>
      <trkpt lat="43.77788" lon="7.07791">
        <ele>751.40002441406</ele>
        <time>2023-08-02T08:18:07.000Z</time>
      </trkpt>
      <trkpt lat="43.77789" lon="7.07794">
        <ele>751</ele>
        <time>2023-08-02T08:18:08.000Z</time>
      </trkpt>
      <trkpt lat="43.7779" lon="7.07796">
        <ele>750.59997558594</ele>
        <time>2023-08-02T08:18:09.000Z</time>
      </trkpt>
      <trkpt lat="43.77791" lon="7.07798">
        <ele>749.59997558594</ele>
        <time>2023-08-02T08:18:10.000Z</time>
      </trkpt>
      <trkpt lat="43.77792" lon="7.07801">
        <ele>749</ele>
        <time>2023-08-02T08:18:11.000Z</time>
      </trkpt>
      <trkpt lat="43.77793" lon="7.07804">
        <ele>748.59997558594</ele>
        <time>2023-08-02T08:18:12.000Z</time>
      </trkpt>
      <trkpt lat="43.77795" lon="7.07806">
        <ele>747.79998779297</ele>
        <time>2023-08-02T08:18:13.000Z</time>
      </trkpt>
      <trkpt lat="43.77796" lon="7.07809">
        <ele>747.20001220703</ele>
        <time>2023-08-02T08:18:14.000Z</time>
      </trkpt>
      <trkpt lat="43.77797" lon="7.07811">
        <ele>746.59997558594</ele>
        <time>2023-08-02T08:18:15.000Z</time>
      </trkpt>
      <trkpt lat="43.77798" lon="7.07814">
        <ele>745.79998779297</ele>
        <time>2023-08-02T08:18:16.000Z</time>
      </trkpt>
      <trkpt lat="43.77798" lon="7.07817">
        <ele>745.20001220703</ele>
        <time>2023-08-02T08:18:17.000Z</time>
      </trkpt>
      <trkpt lat="43.77799" lon="7.0782">
        <ele>745.20001220703</ele>
        <time>2023-08-02T08:18:18.000Z</time>
      </trkpt>
      <trkpt lat="43.77799" lon="7.07822">
        <ele>744.79998779297</ele>
        <time>2023-08-02T08:18:19.000Z</time>
      </trkpt>
      <trkpt lat="43.77799" lon="7.07825">
        <ele>744.20001220703</ele>
        <time>2023-08-02T08:18:20.000Z</time>
      </trkpt>
      <trkpt lat="43.77798" lon="7.07828">
        <ele>743.59997558594</ele>
        <time>2023-08-02T08:18:21.000Z</time>
      </trkpt>
      <trkpt lat="43.77797" lon="7.07831">
        <ele>743</ele>
        <time>2023-08-02T08:18:22.000Z</time>
      </trkpt>
      <trkpt lat="43.77796" lon="7.07834">
        <ele>742.59997558594</ele>
        <time>2023-08-02T08:18:23.000Z</time>
      </trkpt>
      <trkpt lat="43.77796" lon="7.07838">
        <ele>742.20001220703</ele>
        <time>2023-08-02T08:18:24.000Z</time>
      </trkpt>
      <trkpt lat="43.77796" lon="7.07843">
        <ele>742</ele>
        <time>2023-08-02T08:18:25.000Z</time>
      </trkpt>
      <trkpt lat="43.77796" lon="7.07847">
        <ele>741.40002441406</ele>
        <time>2023-08-02T08:18:26.000Z</time>
      </trkpt>
      <trkpt lat="43.77795" lon="7.07851">
        <ele>741.20001220703</ele>
        <time>2023-08-02T08:18:27.000Z</time>
      </trkpt>
      <trkpt lat="43.77795" lon="7.07854">
        <ele>740.59997558594</ele>
        <time>2023-08-02T08:18:28.000Z</time>
      </trkpt>
      <trkpt lat="43.77795" lon="7.07858">
        <ele>739.79998779297</ele>
        <time>2023-08-02T08:18:29.000Z</time>
      </trkpt>
      <trkpt lat="43.77795" lon="7.07863">
        <ele>739.79998779297</ele>
        <time>2023-08-02T08:18:30.000Z</time>
      </trkpt>
      <trkpt lat="43.77795" lon="7.07869">
        <ele>739.20001220703</ele>
        <time>2023-08-02T08:18:31.000Z</time>
      </trkpt>
      <trkpt lat="43.77796" lon="7.07874">
        <ele>739</ele>
        <time>2023-08-02T08:18:32.000Z</time>
      </trkpt>
      <trkpt lat="43.77797" lon="7.07877">
        <ele>739</ele>
        <time>2023-08-02T08:18:33.000Z</time>
      </trkpt>
      <trkpt lat="43.77799" lon="7.0788">
        <ele>738.20001220703</ele>
        <time>2023-08-02T08:18:34.000Z</time>
      </trkpt>
      <trkpt lat="43.77801" lon="7.07884">
        <ele>737</ele>
        <time>2023-08-02T08:18:35.000Z</time>
      </trkpt>
      <trkpt lat="43.77803" lon="7.0789">
        <ele>736.79998779297</ele>
        <time>2023-08-02T08:18:36.000Z</time>
      </trkpt>
      <trkpt lat="43.77805" lon="7.07894">
        <ele>736.59997558594</ele>
        <time>2023-08-02T08:18:37.000Z</time>
      </trkpt>
      <trkpt lat="43.77808" lon="7.07898">
        <ele>736.20001220703</ele>
        <time>2023-08-02T08:18:38.000Z</time>
      </trkpt>
      <trkpt lat="43.7781" lon="7.07902">
        <ele>734.59997558594</ele>
        <time>2023-08-02T08:18:39.000Z</time>
      </trkpt>
      <trkpt lat="43.77811" lon="7.07905">
        <ele>734.40002441406</ele>
        <time>2023-08-02T08:18:40.000Z</time>
      </trkpt>
      <trkpt lat="43.77811" lon="7.07907">
        <ele>734.40002441406</ele>
        <time>2023-08-02T08:18:41.000Z</time>
      </trkpt>
      <trkpt lat="43.77812" lon="7.07909">
        <ele>733.59997558594</ele>
        <time>2023-08-02T08:18:42.000Z</time>
      </trkpt>
      <trkpt lat="43.77812" lon="7.0791">
        <ele>733.59997558594</ele>
        <time>2023-08-02T08:18:43.000Z</time>
      </trkpt>
      <trkpt lat="43.77813" lon="7.0791">
        <ele>733.40002441406</ele>
        <time>2023-08-02T08:18:44.000Z</time>
      </trkpt>
      <trkpt lat="43.77813" lon="7.0791">
        <ele>733.20001220703</ele>
        <time>2023-08-02T08:18:45.000Z</time>
      </trkpt>
      <trkpt lat="43.77813" lon="7.0791">
        <ele>733</ele>
        <time>2023-08-02T08:18:46.000Z</time>
      </trkpt>
      <trkpt lat="43.77813" lon="7.0791">
        <ele>733</ele>
        <time>2023-08-02T08:18:47.000Z</time>
      </trkpt>
      <trkpt lat="43.77813" lon="7.0791">
        <ele>732.79998779297</ele>
        <time>2023-08-02T08:18:48.000Z</time>
      </trkpt>
      <trkpt lat="43.77813" lon="7.0791">
        <ele>732.79998779297</ele>
        <time>2023-08-02T08:18:49.000Z</time>
      </trkpt>
      <trkpt lat="43.77813" lon="7.0791">
        <ele>732.79998779297</ele>
        <time>2023-08-02T08:18:50.000Z</time>
      </trkpt>
      <trkpt lat="43.77813" lon="7.0791">
        <ele>732.59997558594</ele>
        <time>2023-08-02T08:18:51.000Z</time>
      </trkpt>
      <trkpt lat="43.77813" lon="7.0791">
        <ele>732.59997558594</ele>
        <time>2023-08-02T08:18:52.000Z</time>
      </trkpt>
      <trkpt lat="43.77813" lon="7.0791">
        <ele>732.40002441406</ele>
        <time>2023-08-02T08:18:53.000Z</time>
      </trkpt>
      <trkpt lat="43.77813" lon="7.0791">
        <ele>732.40002441406</ele>
        <time>2023-08-02T08:18:54.000Z</time>
      </trkpt>
      <trkpt lat="43.77813" lon="7.0791">
        <ele>732.40002441406</ele>
        <time>2023-08-02T08:18:55.000Z</time>
      </trkpt>
      <trkpt lat="43.77813" lon="7.0791">
        <ele>732.40002441406</ele>
        <time>2023-08-02T08:18:56.000Z</time>
      </trkpt>
      <trkpt lat="43.77813" lon="7.0791">
        <ele>732.40002441406</ele>
        <time>2023-08-02T08:18:57.000Z</time>
      </trkpt>
      <trkpt lat="43.77813" lon="7.0791">
        <ele>732.20001220703</ele>
        <time>2023-08-02T08:18:58.000Z</time>
      </trkpt>
      <trkpt lat="43.77813" lon="7.0791">
        <ele>732</ele>
        <time>2023-08-02T08:18:59.000Z</time>
      </trkpt>
      <trkpt lat="43.77813" lon="7.0791">
        <ele>732</ele>
        <time>2023-08-02T08:19:00.000Z</time>
      </trkpt>
      <trkpt lat="43.77812" lon="7.0791">
        <ele>731.79998779297</ele>
        <time>2023-08-02T08:19:01.000Z</time>
      </trkpt>
      <trkpt lat="43.77812" lon="7.0791">
        <ele>731.79998779297</ele>
        <time>2023-08-02T08:19:02.000Z</time>
      </trkpt>
      <trkpt lat="43.77812" lon="7.0791">
        <ele>731.79998779297</ele>
        <time>2023-08-02T08:19:03.000Z</time>
      </trkpt>
      <trkpt lat="43.77812" lon="7.0791">
        <ele>731.79998779297</ele>
        <time>2023-08-02T08:19:04.000Z</time>
      </trkpt>
      <trkpt lat="43.77812" lon="7.0791">
        <ele>731.79998779297</ele>
        <time>2023-08-02T08:19:05.000Z</time>
      </trkpt>
      <trkpt lat="43.77812" lon="7.0791">
        <ele>732.20001220703</ele>
        <time>2023-08-02T08:19:06.000Z</time>
      </trkpt>
      <trkpt lat="43.77812" lon="7.0791">
        <ele>732</ele>
        <time>2023-08-02T08:19:07.000Z</time>
      </trkpt>
      <trkpt lat="43.77812" lon="7.0791">
        <ele>732</ele>
        <time>2023-08-02T08:19:08.000Z</time>
      </trkpt>
      <trkpt lat="43.77812" lon="7.0791">
        <ele>732</ele>
        <time>2023-08-02T08:19:09.000Z</time>
      </trkpt>
      <trkpt lat="43.77812" lon="7.0791">
        <ele>732</ele>
        <time>2023-08-02T08:19:10.000Z</time>
      </trkpt>
      <trkpt lat="43.77812" lon="7.0791">
        <ele>732</ele>
        <time>2023-08-02T08:19:11.000Z</time>
      </trkpt>
      <trkpt lat="43.77812" lon="7.0791">
        <ele>732</ele>
        <time>2023-08-02T08:19:12.000Z</time>
      </trkpt>
      <trkpt lat="43.77812" lon="7.0791">
        <ele>732.20001220703</ele>
        <time>2023-08-02T08:19:13.000Z</time>
      </trkpt>
      <trkpt lat="43.77812" lon="7.0791">
        <ele>732.20001220703</ele>
        <time>2023-08-02T08:19:14.000Z</time>
      </trkpt>
      <trkpt lat="43.77812" lon="7.0791">
        <ele>732.20001220703</ele>
        <time>2023-08-02T08:19:15.000Z</time>
      </trkpt>
      <trkpt lat="43.77812" lon="7.0791">
        <ele>732.20001220703</ele>
        <time>2023-08-02T08:19:16.000Z</time>
      </trkpt>
      <trkpt lat="43.77812" lon="7.0791">
        <ele>732.20001220703</ele>
        <time>2023-08-02T08:19:17.000Z</time>
      </trkpt>
      <trkpt lat="43.77812" lon="7.0791">
        <ele>732</ele>
        <time>2023-08-02T08:19:18.000Z</time>
      </trkpt>
      <trkpt lat="43.77812" lon="7.0791">
        <ele>732</ele>
        <time>2023-08-02T08:19:19.000Z</time>
      </trkpt>
      <trkpt lat="43.77812" lon="7.0791">
        <ele>732</ele>
        <time>2023-08-02T08:19:20.000Z</time>
      </trkpt>
      <trkpt lat="43.77812" lon="7.0791">
        <ele>732</ele>
        <time>2023-08-02T08:19:21.000Z</time>
      </trkpt>
      <trkpt lat="43.77812" lon="7.0791">
        <ele>732</ele>
        <time>2023-08-02T08:19:22.000Z</time>
      </trkpt>
      <trkpt lat="43.77812" lon="7.0791">
        <ele>731.79998779297</ele>
        <time>2023-08-02T08:19:23.000Z</time>
      </trkpt>
      <trkpt lat="43.77814" lon="7.07912">
        <ele>731.79998779297</ele>
        <time>2023-08-02T08:19:24.000Z</time>
      </trkpt>
      <trkpt lat="43.77814" lon="7.07912">
        <ele>732</ele>
        <time>2023-08-02T08:19:25.000Z</time>
      </trkpt>
      <trkpt lat="43.77814" lon="7.07912">
        <ele>732</ele>
        <time>2023-08-02T08:19:26.000Z</time>
      </trkpt>
      <trkpt lat="43.77814" lon="7.07912">
        <ele>732</ele>
        <time>2023-08-02T08:19:27.000Z</time>
      </trkpt>
      <trkpt lat="43.77814" lon="7.07912">
        <ele>732</ele>
        <time>2023-08-02T08:19:28.000Z</time>
      </trkpt>
      <trkpt lat="43.77814" lon="7.07912">
        <ele>732</ele>
        <time>2023-08-02T08:19:29.000Z</time>
      </trkpt>
      <trkpt lat="43.77815" lon="7.07912">
        <ele>731.79998779297</ele>
        <time>2023-08-02T08:19:30.000Z</time>
      </trkpt>
      <trkpt lat="43.77815" lon="7.07912">
        <ele>732</ele>
        <time>2023-08-02T08:19:31.000Z</time>
      </trkpt>
      <trkpt lat="43.77815" lon="7.07912">
        <ele>731.79998779297</ele>
        <time>2023-08-02T08:19:32.000Z</time>
      </trkpt>
      <trkpt lat="43.77815" lon="7.07912">
        <ele>731.79998779297</ele>
        <time>2023-08-02T08:19:33.000Z</time>
      </trkpt>
      <trkpt lat="43.77815" lon="7.07912">
        <ele>731.79998779297</ele>
        <time>2023-08-02T08:19:34.000Z</time>
      </trkpt>
      <trkpt lat="43.77815" lon="7.07912">
        <ele>731.79998779297</ele>
        <time>2023-08-02T08:19:35.000Z</time>
      </trkpt>
      <trkpt lat="43.77815" lon="7.07912">
        <ele>731.79998779297</ele>
        <time>2023-08-02T08:19:36.000Z</time>
      </trkpt>
      <trkpt lat="43.77815" lon="7.07912">
        <ele>731.79998779297</ele>
        <time>2023-08-02T08:19:37.000Z</time>
      </trkpt>
      <trkpt lat="43.77815" lon="7.07912">
        <ele>731.79998779297</ele>
        <time>2023-08-02T08:19:38.000Z</time>
      </trkpt>
      <trkpt lat="43.77815" lon="7.07912">
        <ele>731.79998779297</ele>
        <time>2023-08-02T08:19:39.000Z</time>
      </trkpt>
      <trkpt lat="43.77815" lon="7.07912">
        <ele>731.79998779297</ele>
        <time>2023-08-02T08:19:40.000Z</time>
      </trkpt>
      <trkpt lat="43.77815" lon="7.07912">
        <ele>731.79998779297</ele>
        <time>2023-08-02T08:19:41.000Z</time>
      </trkpt>
      <trkpt lat="43.77815" lon="7.07912">
        <ele>731.79998779297</ele>
        <time>2023-08-02T08:19:42.000Z</time>
      </trkpt>
      <trkpt lat="43.77815" lon="7.07912">
        <ele>731.79998779297</ele>
        <time>2023-08-02T08:19:43.000Z</time>
      </trkpt>
      <trkpt lat="43.77815" lon="7.07912">
        <ele>731.79998779297</ele>
        <time>2023-08-02T08:19:44.000Z</time>
      </trkpt>
      <trkpt lat="43.77815" lon="7.07912">
        <ele>731.79998779297</ele>
        <time>2023-08-02T08:19:45.000Z</time>
      </trkpt>
      <trkpt lat="43.77815" lon="7.07912">
        <ele>731.79998779297</ele>
        <time>2023-08-02T08:19:46.000Z</time>
      </trkpt>
      <trkpt lat="43.77815" lon="7.07912">
        <ele>731.59997558594</ele>
        <time>2023-08-02T08:19:47.000Z</time>
      </trkpt>
      <trkpt lat="43.77815" lon="7.07912">
        <ele>731.40002441406</ele>
        <time>2023-08-02T08:19:48.000Z</time>
      </trkpt>
      <trkpt lat="43.77815" lon="7.07912">
        <ele>731.40002441406</ele>
        <time>2023-08-02T08:19:49.000Z</time>
      </trkpt>
      <trkpt lat="43.77815" lon="7.07912">
        <ele>731.40002441406</ele>
        <time>2023-08-02T08:19:50.000Z</time>
      </trkpt>
      <trkpt lat="43.77815" lon="7.07912">
        <ele>731.40002441406</ele>
        <time>2023-08-02T08:19:51.000Z</time>
      </trkpt>
      <trkpt lat="43.77815" lon="7.07912">
        <ele>731.40002441406</ele>
        <time>2023-08-02T08:19:52.000Z</time>
      </trkpt>
      <trkpt lat="43.77815" lon="7.07912">
        <ele>731.40002441406</ele>
        <time>2023-08-02T08:19:53.000Z</time>
      </trkpt>
      <trkpt lat="43.77815" lon="7.07912">
        <ele>731.59997558594</ele>
        <time>2023-08-02T08:19:54.000Z</time>
      </trkpt>
      <trkpt lat="43.77815" lon="7.07912">
        <ele>731.79998779297</ele>
        <time>2023-08-02T08:19:55.000Z</time>
      </trkpt>
      <trkpt lat="43.77815" lon="7.07912">
        <ele>732</ele>
        <time>2023-08-02T08:19:56.000Z</time>
      </trkpt>
      <trkpt lat="43.77815" lon="7.07912">
        <ele>732</ele>
        <time>2023-08-02T08:19:57.000Z</time>
      </trkpt>
      <trkpt lat="43.77815" lon="7.07912">
        <ele>732</ele>
        <time>2023-08-02T08:19:58.000Z</time>
      </trkpt>
      <trkpt lat="43.77815" lon="7.07912">
        <ele>731.79998779297</ele>
        <time>2023-08-02T08:19:59.000Z</time>
      </trkpt>
      <trkpt lat="43.77815" lon="7.07912">
        <ele>731.79998779297</ele>
        <time>2023-08-02T08:20:00.000Z</time>
      </trkpt>
      <trkpt lat="43.77815" lon="7.07912">
        <ele>731.79998779297</ele>
        <time>2023-08-02T08:20:01.000Z</time>
      </trkpt>
      <trkpt lat="43.77815" lon="7.07912">
        <ele>731.79998779297</ele>
        <time>2023-08-02T08:20:02.000Z</time>
      </trkpt>
      <trkpt lat="43.77815" lon="7.07912">
        <ele>731.79998779297</ele>
        <time>2023-08-02T08:20:03.000Z</time>
      </trkpt>
      <trkpt lat="43.77815" lon="7.07912">
        <ele>731.79998779297</ele>
        <time>2023-08-02T08:20:04.000Z</time>
      </trkpt>
      <trkpt lat="43.77815" lon="7.07912">
        <ele>731.79998779297</ele>
        <time>2023-08-02T08:20:05.000Z</time>
      </trkpt>
      <trkpt lat="43.77815" lon="7.07912">
        <ele>731.79998779297</ele>
        <time>2023-08-02T08:20:06.000Z</time>
      </trkpt>
      <trkpt lat="43.77815" lon="7.07912">
        <ele>731.79998779297</ele>
        <time>2023-08-02T08:20:07.000Z</time>
      </trkpt>
      <trkpt lat="43.77817" lon="7.07912">
        <ele>731.20001220703</ele>
        <time>2023-08-02T08:20:08.000Z</time>
      </trkpt>
      <trkpt lat="43.77817" lon="7.07912">
        <ele>731.40002441406</ele>
        <time>2023-08-02T08:20:09.000Z</time>
      </trkpt>
      <trkpt lat="43.77817" lon="7.07912">
        <ele>731.20001220703</ele>
        <time>2023-08-02T08:20:10.000Z</time>
      </trkpt>
      <trkpt lat="43.77817" lon="7.07912">
        <ele>731.20001220703</ele>
        <time>2023-08-02T08:20:11.000Z</time>
      </trkpt>
      <trkpt lat="43.77817" lon="7.07912">
        <ele>731.20001220703</ele>
        <time>2023-08-02T08:20:12.000Z</time>
      </trkpt>
      <trkpt lat="43.77817" lon="7.07912">
        <ele>731.40002441406</ele>
        <time>2023-08-02T08:20:13.000Z</time>
      </trkpt>
      <trkpt lat="43.77817" lon="7.07912">
        <ele>731.40002441406</ele>
        <time>2023-08-02T08:20:14.000Z</time>
      </trkpt>
      <trkpt lat="43.77817" lon="7.07912">
        <ele>731.40002441406</ele>
        <time>2023-08-02T08:20:15.000Z</time>
      </trkpt>
      <trkpt lat="43.77816" lon="7.07912">
        <ele>731.40002441406</ele>
        <time>2023-08-02T08:20:16.000Z</time>
      </trkpt>
      <trkpt lat="43.77816" lon="7.07912">
        <ele>731.40002441406</ele>
        <time>2023-08-02T08:20:17.000Z</time>
      </trkpt>
      <trkpt lat="43.77816" lon="7.07912">
        <ele>731.40002441406</ele>
        <time>2023-08-02T08:20:18.000Z</time>
      </trkpt>
      <trkpt lat="43.77816" lon="7.07912">
        <ele>731.40002441406</ele>
        <time>2023-08-02T08:20:19.000Z</time>
      </trkpt>
      <trkpt lat="43.77816" lon="7.07912">
        <ele>731.40002441406</ele>
        <time>2023-08-02T08:20:20.000Z</time>
      </trkpt>
      <trkpt lat="43.77816" lon="7.07912">
        <ele>731.40002441406</ele>
        <time>2023-08-02T08:20:21.000Z</time>
      </trkpt>
      <trkpt lat="43.77816" lon="7.07912">
        <ele>731.40002441406</ele>
        <time>2023-08-02T08:20:22.000Z</time>
      </trkpt>
      <trkpt lat="43.77816" lon="7.07912">
        <ele>731.40002441406</ele>
        <time>2023-08-02T08:20:23.000Z</time>
      </trkpt>
      <trkpt lat="43.77816" lon="7.07912">
        <ele>731.40002441406</ele>
        <time>2023-08-02T08:20:24.000Z</time>
      </trkpt>
      <trkpt lat="43.77817" lon="7.07912">
        <ele>731.59997558594</ele>
        <time>2023-08-02T08:20:25.000Z</time>
      </trkpt>
      <trkpt lat="43.77817" lon="7.07912">
        <ele>731.59997558594</ele>
        <time>2023-08-02T08:20:26.000Z</time>
      </trkpt>
      <trkpt lat="43.77817" lon="7.07912">
        <ele>731.59997558594</ele>
        <time>2023-08-02T08:20:27.000Z</time>
      </trkpt>
      <trkpt lat="43.77816" lon="7.07912">
        <ele>731.40002441406</ele>
        <time>2023-08-02T08:20:28.000Z</time>
      </trkpt>
      <trkpt lat="43.77816" lon="7.07912">
        <ele>731.40002441406</ele>
        <time>2023-08-02T08:20:29.000Z</time>
      </trkpt>
      <trkpt lat="43.77816" lon="7.07912">
        <ele>731.79998779297</ele>
        <time>2023-08-02T08:20:30.000Z</time>
      </trkpt>
      <trkpt lat="43.77816" lon="7.07912">
        <ele>731.59997558594</ele>
        <time>2023-08-02T08:20:31.000Z</time>
      </trkpt>
      <trkpt lat="43.77816" lon="7.07912">
        <ele>731.40002441406</ele>
        <time>2023-08-02T08:20:32.000Z</time>
      </trkpt>
      <trkpt lat="43.77816" lon="7.07912">
        <ele>731.40002441406</ele>
        <time>2023-08-02T08:20:33.000Z</time>
      </trkpt>
      <trkpt lat="43.77816" lon="7.07912">
        <ele>731.20001220703</ele>
        <time>2023-08-02T08:20:34.000Z</time>
      </trkpt>
      <trkpt lat="43.77816" lon="7.07912">
        <ele>731.40002441406</ele>
        <time>2023-08-02T08:20:35.000Z</time>
      </trkpt>
      <trkpt lat="43.77816" lon="7.07912">
        <ele>731.40002441406</ele>
        <time>2023-08-02T08:20:36.000Z</time>
      </trkpt>
      <trkpt lat="43.77816" lon="7.07912">
        <ele>731.20001220703</ele>
        <time>2023-08-02T08:20:37.000Z</time>
      </trkpt>
      <trkpt lat="43.77816" lon="7.07912">
        <ele>731.20001220703</ele>
        <time>2023-08-02T08:20:38.000Z</time>
      </trkpt>
      <trkpt lat="43.77816" lon="7.07912">
        <ele>731.20001220703</ele>
        <time>2023-08-02T08:20:39.000Z</time>
      </trkpt>
      <trkpt lat="43.77816" lon="7.07912">
        <ele>731.20001220703</ele>
        <time>2023-08-02T08:20:40.000Z</time>
      </trkpt>
      <trkpt lat="43.77816" lon="7.07912">
        <ele>731.20001220703</ele>
        <time>2023-08-02T08:20:41.000Z</time>
      </trkpt>
      <trkpt lat="43.77816" lon="7.07912">
        <ele>731.40002441406</ele>
        <time>2023-08-02T08:20:42.000Z</time>
      </trkpt>
      <trkpt lat="43.77816" lon="7.07912">
        <ele>731.40002441406</ele>
        <time>2023-08-02T08:20:43.000Z</time>
      </trkpt>
      <trkpt lat="43.77816" lon="7.07912">
        <ele>731.59997558594</ele>
        <time>2023-08-02T08:20:44.000Z</time>
      </trkpt>
      <trkpt lat="43.77816" lon="7.07912">
        <ele>731.59997558594</ele>
        <time>2023-08-02T08:20:45.000Z</time>
      </trkpt>
      <trkpt lat="43.77816" lon="7.07912">
        <ele>731.59997558594</ele>
        <time>2023-08-02T08:20:46.000Z</time>
      </trkpt>
      <trkpt lat="43.77816" lon="7.07912">
        <ele>731.40002441406</ele>
        <time>2023-08-02T08:20:47.000Z</time>
      </trkpt>
      <trkpt lat="43.77815" lon="7.07912">
        <ele>731.40002441406</ele>
        <time>2023-08-02T08:20:48.000Z</time>
      </trkpt>
      <trkpt lat="43.77815" lon="7.07912">
        <ele>731.40002441406</ele>
        <time>2023-08-02T08:20:49.000Z</time>
      </trkpt>
      <trkpt lat="43.77815" lon="7.07912">
        <ele>731.40002441406</ele>
        <time>2023-08-02T08:20:50.000Z</time>
      </trkpt>
      <trkpt lat="43.77815" lon="7.07912">
        <ele>731.40002441406</ele>
        <time>2023-08-02T08:20:51.000Z</time>
      </trkpt>
      <trkpt lat="43.77815" lon="7.07912">
        <ele>731.40002441406</ele>
        <time>2023-08-02T08:20:52.000Z</time>
      </trkpt>
      <trkpt lat="43.77814" lon="7.07913">
        <ele>731.40002441406</ele>
        <time>2023-08-02T08:20:53.000Z</time>
      </trkpt>
      <trkpt lat="43.77814" lon="7.07913">
        <ele>731.40002441406</ele>
        <time>2023-08-02T08:20:54.000Z</time>
      </trkpt>
      <trkpt lat="43.77814" lon="7.07913">
        <ele>731.40002441406</ele>
        <time>2023-08-02T08:20:55.000Z</time>
      </trkpt>
      <trkpt lat="43.77814" lon="7.07913">
        <ele>731.40002441406</ele>
        <time>2023-08-02T08:20:56.000Z</time>
      </trkpt>
      <trkpt lat="43.77814" lon="7.07913">
        <ele>731.40002441406</ele>
        <time>2023-08-02T08:20:57.000Z</time>
      </trkpt>
      <trkpt lat="43.77814" lon="7.07913">
        <ele>731.40002441406</ele>
        <time>2023-08-02T08:20:58.000Z</time>
      </trkpt>
      <trkpt lat="43.77814" lon="7.07913">
        <ele>731.40002441406</ele>
        <time>2023-08-02T08:20:59.000Z</time>
      </trkpt>
      <trkpt lat="43.77814" lon="7.07913">
        <ele>731.40002441406</ele>
        <time>2023-08-02T08:21:00.000Z</time>
      </trkpt>
      <trkpt lat="43.77814" lon="7.07913">
        <ele>731.40002441406</ele>
        <time>2023-08-02T08:21:01.000Z</time>
      </trkpt>
      <trkpt lat="43.77814" lon="7.07913">
        <ele>731.40002441406</ele>
        <time>2023-08-02T08:21:02.000Z</time>
      </trkpt>
      <trkpt lat="43.77814" lon="7.07913">
        <ele>731.40002441406</ele>
        <time>2023-08-02T08:21:03.000Z</time>
      </trkpt>
      <trkpt lat="43.77814" lon="7.07913">
        <ele>731.40002441406</ele>
        <time>2023-08-02T08:21:04.000Z</time>
      </trkpt>
      <trkpt lat="43.77814" lon="7.07913">
        <ele>731.40002441406</ele>
        <time>2023-08-02T08:21:05.000Z</time>
      </trkpt>
      <trkpt lat="43.77814" lon="7.07913">
        <ele>731.40002441406</ele>
        <time>2023-08-02T08:21:06.000Z</time>
      </trkpt>
      <trkpt lat="43.77814" lon="7.07912">
        <ele>731.40002441406</ele>
        <time>2023-08-02T08:21:07.000Z</time>
      </trkpt>
      <trkpt lat="43.77815" lon="7.0791">
        <ele>731.40002441406</ele>
        <time>2023-08-02T08:21:08.000Z</time>
      </trkpt>
      <trkpt lat="43.77815" lon="7.07911">
        <ele>731.40002441406</ele>
        <time>2023-08-02T08:21:09.000Z</time>
      </trkpt>
      <trkpt lat="43.77815" lon="7.07911">
        <ele>731.40002441406</ele>
        <time>2023-08-02T08:21:10.000Z</time>
      </trkpt>
      <trkpt lat="43.77815" lon="7.07911">
        <ele>731.40002441406</ele>
        <time>2023-08-02T08:21:11.000Z</time>
      </trkpt>
      <trkpt lat="43.77815" lon="7.07911">
        <ele>731.40002441406</ele>
        <time>2023-08-02T08:21:12.000Z</time>
      </trkpt>
      <trkpt lat="43.77815" lon="7.07911">
        <ele>731.40002441406</ele>
        <time>2023-08-02T08:21:13.000Z</time>
      </trkpt>
      <trkpt lat="43.77815" lon="7.07911">
        <ele>731.40002441406</ele>
        <time>2023-08-02T08:21:14.000Z</time>
      </trkpt>
      <trkpt lat="43.77815" lon="7.07911">
        <ele>731.40002441406</ele>
        <time>2023-08-02T08:21:15.000Z</time>
      </trkpt>
      <trkpt lat="43.77815" lon="7.07911">
        <ele>731.40002441406</ele>
        <time>2023-08-02T08:21:16.000Z</time>
      </trkpt>
      <trkpt lat="43.77815" lon="7.07911">
        <ele>731.40002441406</ele>
        <time>2023-08-02T08:21:17.000Z</time>
      </trkpt>
      <trkpt lat="43.77815" lon="7.0791">
        <ele>731.40002441406</ele>
        <time>2023-08-02T08:21:18.000Z</time>
      </trkpt>
      <trkpt lat="43.77815" lon="7.0791">
        <ele>731.40002441406</ele>
        <time>2023-08-02T08:21:19.000Z</time>
      </trkpt>
      <trkpt lat="43.77815" lon="7.0791">
        <ele>731.40002441406</ele>
        <time>2023-08-02T08:21:20.000Z</time>
      </trkpt>
      <trkpt lat="43.77815" lon="7.0791">
        <ele>731.40002441406</ele>
        <time>2023-08-02T08:21:21.000Z</time>
      </trkpt>
      <trkpt lat="43.77815" lon="7.0791">
        <ele>731.40002441406</ele>
        <time>2023-08-02T08:21:22.000Z</time>
      </trkpt>
      <trkpt lat="43.77815" lon="7.0791">
        <ele>731.40002441406</ele>
        <time>2023-08-02T08:21:23.000Z</time>
      </trkpt>
      <trkpt lat="43.77815" lon="7.0791">
        <ele>731.40002441406</ele>
        <time>2023-08-02T08:21:24.000Z</time>
      </trkpt>
      <trkpt lat="43.77815" lon="7.0791">
        <ele>731.40002441406</ele>
        <time>2023-08-02T08:21:25.000Z</time>
      </trkpt>
      <trkpt lat="43.77815" lon="7.0791">
        <ele>731.40002441406</ele>
        <time>2023-08-02T08:21:26.000Z</time>
      </trkpt>
      <trkpt lat="43.77815" lon="7.0791">
        <ele>731.40002441406</ele>
        <time>2023-08-02T08:21:27.000Z</time>
      </trkpt>
      <trkpt lat="43.77815" lon="7.0791">
        <ele>731.40002441406</ele>
        <time>2023-08-02T08:21:28.000Z</time>
      </trkpt>
      <trkpt lat="43.77815" lon="7.0791">
        <ele>731.40002441406</ele>
        <time>2023-08-02T08:21:29.000Z</time>
      </trkpt>
      <trkpt lat="43.77815" lon="7.0791">
        <ele>731.40002441406</ele>
        <time>2023-08-02T08:21:30.000Z</time>
      </trkpt>
      <trkpt lat="43.77815" lon="7.0791">
        <ele>731.40002441406</ele>
        <time>2023-08-02T08:21:31.000Z</time>
      </trkpt>
      <trkpt lat="43.77816" lon="7.0791">
        <ele>731.40002441406</ele>
        <time>2023-08-02T08:21:32.000Z</time>
      </trkpt>
      <trkpt lat="43.77816" lon="7.0791">
        <ele>731.40002441406</ele>
        <time>2023-08-02T08:21:33.000Z</time>
      </trkpt>
      <trkpt lat="43.77815" lon="7.0791">
        <ele>731.40002441406</ele>
        <time>2023-08-02T08:21:34.000Z</time>
      </trkpt>
      <trkpt lat="43.77815" lon="7.0791">
        <ele>731.40002441406</ele>
        <time>2023-08-02T08:21:35.000Z</time>
      </trkpt>
      <trkpt lat="43.77815" lon="7.0791">
        <ele>731.40002441406</ele>
        <time>2023-08-02T08:21:36.000Z</time>
      </trkpt>
      <trkpt lat="43.77815" lon="7.0791">
        <ele>731.40002441406</ele>
        <time>2023-08-02T08:21:37.000Z</time>
      </trkpt>
      <trkpt lat="43.77815" lon="7.0791">
        <ele>731.40002441406</ele>
        <time>2023-08-02T08:21:38.000Z</time>
      </trkpt>
      <trkpt lat="43.77816" lon="7.07911">
        <ele>731.40002441406</ele>
        <time>2023-08-02T08:21:39.000Z</time>
      </trkpt>
      <trkpt lat="43.77816" lon="7.07911">
        <ele>731.40002441406</ele>
        <time>2023-08-02T08:21:40.000Z</time>
      </trkpt>
      <trkpt lat="43.77816" lon="7.07912">
        <ele>731.40002441406</ele>
        <time>2023-08-02T08:21:41.000Z</time>
      </trkpt>
      <trkpt lat="43.77816" lon="7.07912">
        <ele>731.40002441406</ele>
        <time>2023-08-02T08:21:42.000Z</time>
      </trkpt>
      <trkpt lat="43.77815" lon="7.07912">
        <ele>731.40002441406</ele>
        <time>2023-08-02T08:21:43.000Z</time>
      </trkpt>
      <trkpt lat="43.77815" lon="7.07913">
        <ele>731.40002441406</ele>
        <time>2023-08-02T08:21:44.000Z</time>
      </trkpt>
      <trkpt lat="43.77815" lon="7.07914">
        <ele>731.40002441406</ele>
        <time>2023-08-02T08:21:45.000Z</time>
      </trkpt>
      <trkpt lat="43.77815" lon="7.07914">
        <ele>731.40002441406</ele>
        <time>2023-08-02T08:21:46.000Z</time>
      </trkpt>
      <trkpt lat="43.77814" lon="7.07914">
        <ele>731.40002441406</ele>
        <time>2023-08-02T08:21:47.000Z</time>
      </trkpt>
      <trkpt lat="43.77814" lon="7.07914">
        <ele>731.40002441406</ele>
        <time>2023-08-02T08:21:48.000Z</time>
      </trkpt>
      <trkpt lat="43.77814" lon="7.07914">
        <ele>731.40002441406</ele>
        <time>2023-08-02T08:21:49.000Z</time>
      </trkpt>
      <trkpt lat="43.77814" lon="7.07914">
        <ele>731.40002441406</ele>
        <time>2023-08-02T08:21:50.000Z</time>
      </trkpt>
      <trkpt lat="43.77814" lon="7.07913">
        <ele>731.40002441406</ele>
        <time>2023-08-02T08:21:51.000Z</time>
      </trkpt>
      <trkpt lat="43.77814" lon="7.07913">
        <ele>731.40002441406</ele>
        <time>2023-08-02T08:21:52.000Z</time>
      </trkpt>
      <trkpt lat="43.77813" lon="7.07913">
        <ele>731.40002441406</ele>
        <time>2023-08-02T08:21:53.000Z</time>
      </trkpt>
      <trkpt lat="43.77813" lon="7.07913">
        <ele>731.40002441406</ele>
        <time>2023-08-02T08:21:54.000Z</time>
      </trkpt>
      <trkpt lat="43.77814" lon="7.07913">
        <ele>731.40002441406</ele>
        <time>2023-08-02T08:21:55.000Z</time>
      </trkpt>
      <trkpt lat="43.77814" lon="7.07913">
        <ele>731.40002441406</ele>
        <time>2023-08-02T08:21:56.000Z</time>
      </trkpt>
      <trkpt lat="43.77813" lon="7.07913">
        <ele>731.40002441406</ele>
        <time>2023-08-02T08:21:57.000Z</time>
      </trkpt>
      <trkpt lat="43.77813" lon="7.07913">
        <ele>731.40002441406</ele>
        <time>2023-08-02T08:21:58.000Z</time>
      </trkpt>
      <trkpt lat="43.77813" lon="7.07913">
        <ele>731.40002441406</ele>
        <time>2023-08-02T08:21:59.000Z</time>
      </trkpt>
      <trkpt lat="43.77813" lon="7.07913">
        <ele>731.40002441406</ele>
        <time>2023-08-02T08:22:00.000Z</time>
      </trkpt>
      <trkpt lat="43.77813" lon="7.07913">
        <ele>731.40002441406</ele>
        <time>2023-08-02T08:22:01.000Z</time>
      </trkpt>
      <trkpt lat="43.77812" lon="7.07913">
        <ele>731.40002441406</ele>
        <time>2023-08-02T08:22:02.000Z</time>
      </trkpt>
      <trkpt lat="43.77812" lon="7.07913">
        <ele>731.40002441406</ele>
        <time>2023-08-02T08:22:03.000Z</time>
      </trkpt>
      <trkpt lat="43.77812" lon="7.07913">
        <ele>731.40002441406</ele>
        <time>2023-08-02T08:22:04.000Z</time>
      </trkpt>
      <trkpt lat="43.77812" lon="7.07913">
        <ele>731.40002441406</ele>
        <time>2023-08-02T08:22:05.000Z</time>
      </trkpt>
      <trkpt lat="43.77812" lon="7.07912">
        <ele>731.40002441406</ele>
        <time>2023-08-02T08:22:06.000Z</time>
      </trkpt>
      <trkpt lat="43.77812" lon="7.07912">
        <ele>731.40002441406</ele>
        <time>2023-08-02T08:22:07.000Z</time>
      </trkpt>
      <trkpt lat="43.77812" lon="7.07912">
        <ele>731.40002441406</ele>
        <time>2023-08-02T08:22:08.000Z</time>
      </trkpt>
      <trkpt lat="43.77812" lon="7.07912">
        <ele>731.40002441406</ele>
        <time>2023-08-02T08:22:09.000Z</time>
      </trkpt>
      <trkpt lat="43.77813" lon="7.07911">
        <ele>731.40002441406</ele>
        <time>2023-08-02T08:22:10.000Z</time>
      </trkpt>
      <trkpt lat="43.77813" lon="7.07911">
        <ele>731.40002441406</ele>
        <time>2023-08-02T08:22:11.000Z</time>
      </trkpt>
      <trkpt lat="43.77814" lon="7.07911">
        <ele>731.40002441406</ele>
        <time>2023-08-02T08:22:12.000Z</time>
      </trkpt>
      <trkpt lat="43.77814" lon="7.07911">
        <ele>731.40002441406</ele>
        <time>2023-08-02T08:22:13.000Z</time>
      </trkpt>
      <trkpt lat="43.77814" lon="7.07911">
        <ele>731.40002441406</ele>
        <time>2023-08-02T08:22:14.000Z</time>
      </trkpt>
      <trkpt lat="43.77814" lon="7.07911">
        <ele>731.40002441406</ele>
        <time>2023-08-02T08:22:15.000Z</time>
      </trkpt>
      <trkpt lat="43.77814" lon="7.07911">
        <ele>731.40002441406</ele>
        <time>2023-08-02T08:22:16.000Z</time>
      </trkpt>
      <trkpt lat="43.77814" lon="7.07911">
        <ele>731.40002441406</ele>
        <time>2023-08-02T08:22:17.000Z</time>
      </trkpt>
      <trkpt lat="43.77814" lon="7.07911">
        <ele>731.40002441406</ele>
        <time>2023-08-02T08:22:18.000Z</time>
      </trkpt>
      <trkpt lat="43.77814" lon="7.07911">
        <ele>731.40002441406</ele>
        <time>2023-08-02T08:22:19.000Z</time>
      </trkpt>
      <trkpt lat="43.77814" lon="7.07911">
        <ele>731.40002441406</ele>
        <time>2023-08-02T08:22:20.000Z</time>
      </trkpt>
      <trkpt lat="43.77815" lon="7.0791">
        <ele>731.40002441406</ele>
        <time>2023-08-02T08:22:21.000Z</time>
      </trkpt>
      <trkpt lat="43.77816" lon="7.0791">
        <ele>731.40002441406</ele>
        <time>2023-08-02T08:22:22.000Z</time>
      </trkpt>
      <trkpt lat="43.77816" lon="7.0791">
        <ele>731.40002441406</ele>
        <time>2023-08-02T08:22:23.000Z</time>
      </trkpt>
      <trkpt lat="43.77816" lon="7.0791">
        <ele>731.40002441406</ele>
        <time>2023-08-02T08:22:24.000Z</time>
      </trkpt>
      <trkpt lat="43.77816" lon="7.0791">
        <ele>731.40002441406</ele>
        <time>2023-08-02T08:22:25.000Z</time>
      </trkpt>
      <trkpt lat="43.77817" lon="7.0791">
        <ele>731.40002441406</ele>
        <time>2023-08-02T08:22:26.000Z</time>
      </trkpt>
      <trkpt lat="43.77817" lon="7.0791">
        <ele>731.40002441406</ele>
        <time>2023-08-02T08:22:27.000Z</time>
      </trkpt>
      <trkpt lat="43.77818" lon="7.0791">
        <ele>731.40002441406</ele>
        <time>2023-08-02T08:22:28.000Z</time>
      </trkpt>
      <trkpt lat="43.77818" lon="7.0791">
        <ele>731.40002441406</ele>
        <time>2023-08-02T08:22:29.000Z</time>
      </trkpt>
      <trkpt lat="43.77818" lon="7.07909">
        <ele>731.40002441406</ele>
        <time>2023-08-02T08:22:30.000Z</time>
      </trkpt>
      <trkpt lat="43.77818" lon="7.07909">
        <ele>731.40002441406</ele>
        <time>2023-08-02T08:22:31.000Z</time>
      </trkpt>
      <trkpt lat="43.77818" lon="7.07909">
        <ele>731.40002441406</ele>
        <time>2023-08-02T08:22:32.000Z</time>
      </trkpt>
      <trkpt lat="43.77818" lon="7.07909">
        <ele>731.40002441406</ele>
        <time>2023-08-02T08:22:33.000Z</time>
      </trkpt>
      <trkpt lat="43.77818" lon="7.07909">
        <ele>731.40002441406</ele>
        <time>2023-08-02T08:22:34.000Z</time>
      </trkpt>
      <trkpt lat="43.77818" lon="7.07909">
        <ele>731.40002441406</ele>
        <time>2023-08-02T08:22:35.000Z</time>
      </trkpt>
      <trkpt lat="43.77818" lon="7.07909">
        <ele>731.40002441406</ele>
        <time>2023-08-02T08:22:36.000Z</time>
      </trkpt>
      <trkpt lat="43.77818" lon="7.0791">
        <ele>731.40002441406</ele>
        <time>2023-08-02T08:22:37.000Z</time>
      </trkpt>
      <trkpt lat="43.77818" lon="7.0791">
        <ele>731.40002441406</ele>
        <time>2023-08-02T08:22:38.000Z</time>
      </trkpt>
      <trkpt lat="43.77818" lon="7.0791">
        <ele>731.40002441406</ele>
        <time>2023-08-02T08:22:39.000Z</time>
      </trkpt>
      <trkpt lat="43.77818" lon="7.0791">
        <ele>731.40002441406</ele>
        <time>2023-08-02T08:22:40.000Z</time>
      </trkpt>
      <trkpt lat="43.77818" lon="7.0791">
        <ele>731.40002441406</ele>
        <time>2023-08-02T08:22:41.000Z</time>
      </trkpt>
      <trkpt lat="43.77818" lon="7.0791">
        <ele>731.40002441406</ele>
        <time>2023-08-02T08:22:42.000Z</time>
      </trkpt>
      <trkpt lat="43.77818" lon="7.0791">
        <ele>731.40002441406</ele>
        <time>2023-08-02T08:22:43.000Z</time>
      </trkpt>
      <trkpt lat="43.77819" lon="7.0791">
        <ele>731.40002441406</ele>
        <time>2023-08-02T08:22:44.000Z</time>
      </trkpt>
      <trkpt lat="43.77819" lon="7.0791">
        <ele>731.40002441406</ele>
        <time>2023-08-02T08:22:45.000Z</time>
      </trkpt>
      <trkpt lat="43.77819" lon="7.0791">
        <ele>731.40002441406</ele>
        <time>2023-08-02T08:22:46.000Z</time>
      </trkpt>
      <trkpt lat="43.77819" lon="7.0791">
        <ele>731.40002441406</ele>
        <time>2023-08-02T08:22:47.000Z</time>
      </trkpt>
      <trkpt lat="43.7782" lon="7.07911">
        <ele>731.40002441406</ele>
        <time>2023-08-02T08:22:48.000Z</time>
      </trkpt>
      <trkpt lat="43.77821" lon="7.07911">
        <ele>731.40002441406</ele>
        <time>2023-08-02T08:22:49.000Z</time>
      </trkpt>
      <trkpt lat="43.77821" lon="7.07911">
        <ele>731.40002441406</ele>
        <time>2023-08-02T08:22:50.000Z</time>
      </trkpt>
      <trkpt lat="43.77821" lon="7.07911">
        <ele>731.40002441406</ele>
        <time>2023-08-02T08:22:51.000Z</time>
      </trkpt>
      <trkpt lat="43.77821" lon="7.07911">
        <ele>731.40002441406</ele>
        <time>2023-08-02T08:22:52.000Z</time>
      </trkpt>
      <trkpt lat="43.77821" lon="7.07911">
        <ele>731.40002441406</ele>
        <time>2023-08-02T08:22:53.000Z</time>
      </trkpt>
      <trkpt lat="43.77821" lon="7.07911">
        <ele>731.40002441406</ele>
        <time>2023-08-02T08:22:54.000Z</time>
      </trkpt>
      <trkpt lat="43.77821" lon="7.07911">
        <ele>731.40002441406</ele>
        <time>2023-08-02T08:22:55.000Z</time>
      </trkpt>
      <trkpt lat="43.77821" lon="7.07911">
        <ele>731.40002441406</ele>
        <time>2023-08-02T08:22:56.000Z</time>
      </trkpt>
      <trkpt lat="43.77821" lon="7.07911">
        <ele>731.40002441406</ele>
        <time>2023-08-02T08:22:57.000Z</time>
      </trkpt>
      <trkpt lat="43.77821" lon="7.0791">
        <ele>731.40002441406</ele>
        <time>2023-08-02T08:22:58.000Z</time>
      </trkpt>
      <trkpt lat="43.77821" lon="7.0791">
        <ele>731.40002441406</ele>
        <time>2023-08-02T08:22:59.000Z</time>
      </trkpt>
      <trkpt lat="43.7782" lon="7.0791">
        <ele>731.40002441406</ele>
        <time>2023-08-02T08:23:00.000Z</time>
      </trkpt>
      <trkpt lat="43.7782" lon="7.0791">
        <ele>731.40002441406</ele>
        <time>2023-08-02T08:23:01.000Z</time>
      </trkpt>
      <trkpt lat="43.77821" lon="7.0791">
        <ele>731.40002441406</ele>
        <time>2023-08-02T08:23:02.000Z</time>
      </trkpt>
      <trkpt lat="43.7782" lon="7.0791">
        <ele>731.40002441406</ele>
        <time>2023-08-02T08:23:03.000Z</time>
      </trkpt>
      <trkpt lat="43.7782" lon="7.0791">
        <ele>731.40002441406</ele>
        <time>2023-08-02T08:23:04.000Z</time>
      </trkpt>
      <trkpt lat="43.7782" lon="7.0791">
        <ele>731.40002441406</ele>
        <time>2023-08-02T08:23:05.000Z</time>
      </trkpt>
      <trkpt lat="43.77821" lon="7.07909">
        <ele>731.40002441406</ele>
        <time>2023-08-02T08:23:06.000Z</time>
      </trkpt>
      <trkpt lat="43.77821" lon="7.07909">
        <ele>731.40002441406</ele>
        <time>2023-08-02T08:23:07.000Z</time>
      </trkpt>
      <trkpt lat="43.77821" lon="7.0791">
        <ele>731.40002441406</ele>
        <time>2023-08-02T08:23:08.000Z</time>
      </trkpt>
      <trkpt lat="43.7782" lon="7.0791">
        <ele>731.40002441406</ele>
        <time>2023-08-02T08:23:09.000Z</time>
      </trkpt>
      <trkpt lat="43.7782" lon="7.0791">
        <ele>731.40002441406</ele>
        <time>2023-08-02T08:23:10.000Z</time>
      </trkpt>
      <trkpt lat="43.7782" lon="7.0791">
        <ele>731.40002441406</ele>
        <time>2023-08-02T08:23:11.000Z</time>
      </trkpt>
      <trkpt lat="43.7782" lon="7.0791">
        <ele>731.40002441406</ele>
        <time>2023-08-02T08:23:12.000Z</time>
      </trkpt>
      <trkpt lat="43.7782" lon="7.07909">
        <ele>730.40002441406</ele>
        <time>2023-08-02T08:23:13.000Z</time>
      </trkpt>
      <trkpt lat="43.7782" lon="7.07909">
        <ele>730.20001220703</ele>
        <time>2023-08-02T08:23:14.000Z</time>
      </trkpt>
      <trkpt lat="43.7782" lon="7.07909">
        <ele>730.20001220703</ele>
        <time>2023-08-02T08:23:15.000Z</time>
      </trkpt>
      <trkpt lat="43.77821" lon="7.07909">
        <ele>730.20001220703</ele>
        <time>2023-08-02T08:23:16.000Z</time>
      </trkpt>
      <trkpt lat="43.7782" lon="7.07909">
        <ele>730.20001220703</ele>
        <time>2023-08-02T08:23:17.000Z</time>
      </trkpt>
      <trkpt lat="43.7782" lon="7.07909">
        <ele>730</ele>
        <time>2023-08-02T08:23:18.000Z</time>
      </trkpt>
      <trkpt lat="43.7782" lon="7.07909">
        <ele>730.20001220703</ele>
        <time>2023-08-02T08:23:19.000Z</time>
      </trkpt>
      <trkpt lat="43.7782" lon="7.07909">
        <ele>730.79998779297</ele>
        <time>2023-08-02T08:23:20.000Z</time>
      </trkpt>
      <trkpt lat="43.7782" lon="7.07909">
        <ele>730.79998779297</ele>
        <time>2023-08-02T08:23:21.000Z</time>
      </trkpt>
      <trkpt lat="43.7782" lon="7.07909">
        <ele>730.79998779297</ele>
        <time>2023-08-02T08:23:22.000Z</time>
      </trkpt>
      <trkpt lat="43.7782" lon="7.07909">
        <ele>730.59997558594</ele>
        <time>2023-08-02T08:23:23.000Z</time>
      </trkpt>
      <trkpt lat="43.7782" lon="7.07909">
        <ele>730.59997558594</ele>
        <time>2023-08-02T08:23:24.000Z</time>
      </trkpt>
      <trkpt lat="43.7782" lon="7.07909">
        <ele>730.40002441406</ele>
        <time>2023-08-02T08:23:25.000Z</time>
      </trkpt>
      <trkpt lat="43.7782" lon="7.07909">
        <ele>730.40002441406</ele>
        <time>2023-08-02T08:23:26.000Z</time>
      </trkpt>
      <trkpt lat="43.7782" lon="7.07909">
        <ele>730.40002441406</ele>
        <time>2023-08-02T08:23:27.000Z</time>
      </trkpt>
      <trkpt lat="43.77819" lon="7.07909">
        <ele>730.40002441406</ele>
        <time>2023-08-02T08:23:28.000Z</time>
      </trkpt>
      <trkpt lat="43.77819" lon="7.07909">
        <ele>730.40002441406</ele>
        <time>2023-08-02T08:23:29.000Z</time>
      </trkpt>
      <trkpt lat="43.77819" lon="7.07909">
        <ele>730.40002441406</ele>
        <time>2023-08-02T08:23:30.000Z</time>
      </trkpt>
      <trkpt lat="43.77819" lon="7.07909">
        <ele>730.40002441406</ele>
        <time>2023-08-02T08:23:31.000Z</time>
      </trkpt>
      <trkpt lat="43.77819" lon="7.07909">
        <ele>730.40002441406</ele>
        <time>2023-08-02T08:23:32.000Z</time>
      </trkpt>
      <trkpt lat="43.77819" lon="7.07909">
        <ele>730.40002441406</ele>
        <time>2023-08-02T08:23:33.000Z</time>
      </trkpt>
      <trkpt lat="43.77819" lon="7.07909">
        <ele>730.40002441406</ele>
        <time>2023-08-02T08:23:34.000Z</time>
      </trkpt>
      <trkpt lat="43.77819" lon="7.07909">
        <ele>730.20001220703</ele>
        <time>2023-08-02T08:23:35.000Z</time>
      </trkpt>
      <trkpt lat="43.77819" lon="7.07909">
        <ele>730.20001220703</ele>
        <time>2023-08-02T08:23:36.000Z</time>
      </trkpt>
      <trkpt lat="43.77819" lon="7.07909">
        <ele>730.20001220703</ele>
        <time>2023-08-02T08:23:37.000Z</time>
      </trkpt>
      <trkpt lat="43.77819" lon="7.0791">
        <ele>730.20001220703</ele>
        <time>2023-08-02T08:23:38.000Z</time>
      </trkpt>
      <trkpt lat="43.77819" lon="7.0791">
        <ele>730.20001220703</ele>
        <time>2023-08-02T08:23:39.000Z</time>
      </trkpt>
      <trkpt lat="43.77819" lon="7.0791">
        <ele>730.20001220703</ele>
        <time>2023-08-02T08:23:40.000Z</time>
      </trkpt>
      <trkpt lat="43.77819" lon="7.07913">
        <ele>730.40002441406</ele>
        <time>2023-08-02T08:23:41.000Z</time>
      </trkpt>
      <trkpt lat="43.77819" lon="7.07914">
        <ele>730.20001220703</ele>
        <time>2023-08-02T08:23:42.000Z</time>
      </trkpt>
      <trkpt lat="43.7782" lon="7.07915">
        <ele>730.20001220703</ele>
        <time>2023-08-02T08:23:43.000Z</time>
      </trkpt>
      <trkpt lat="43.7782" lon="7.07916">
        <ele>730.20001220703</ele>
        <time>2023-08-02T08:23:44.000Z</time>
      </trkpt>
      <trkpt lat="43.77821" lon="7.07918">
        <ele>730.20001220703</ele>
        <time>2023-08-02T08:23:45.000Z</time>
      </trkpt>
      <trkpt lat="43.77823" lon="7.0792">
        <ele>730</ele>
        <time>2023-08-02T08:23:46.000Z</time>
      </trkpt>
      <trkpt lat="43.77824" lon="7.07924">
        <ele>729.79998779297</ele>
        <time>2023-08-02T08:23:47.000Z</time>
      </trkpt>
      <trkpt lat="43.77825" lon="7.07928">
        <ele>729.40002441406</ele>
        <time>2023-08-02T08:23:48.000Z</time>
      </trkpt>
      <trkpt lat="43.77827" lon="7.07933">
        <ele>729.40002441406</ele>
        <time>2023-08-02T08:23:49.000Z</time>
      </trkpt>
      <trkpt lat="43.77828" lon="7.07937">
        <ele>729</ele>
        <time>2023-08-02T08:23:50.000Z</time>
      </trkpt>
      <trkpt lat="43.77828" lon="7.07942">
        <ele>728.20001220703</ele>
        <time>2023-08-02T08:23:51.000Z</time>
      </trkpt>
      <trkpt lat="43.77828" lon="7.07947">
        <ele>727.20001220703</ele>
        <time>2023-08-02T08:23:52.000Z</time>
      </trkpt>
      <trkpt lat="43.77828" lon="7.07953">
        <ele>727.20001220703</ele>
        <time>2023-08-02T08:23:53.000Z</time>
      </trkpt>
      <trkpt lat="43.77828" lon="7.07957">
        <ele>726.40002441406</ele>
        <time>2023-08-02T08:23:54.000Z</time>
      </trkpt>
      <trkpt lat="43.77828" lon="7.07961">
        <ele>726</ele>
        <time>2023-08-02T08:23:55.000Z</time>
      </trkpt>
      <trkpt lat="43.7783" lon="7.07963">
        <ele>724.79998779297</ele>
        <time>2023-08-02T08:23:56.000Z</time>
      </trkpt>
      <trkpt lat="43.77833" lon="7.07965">
        <ele>724.20001220703</ele>
        <time>2023-08-02T08:23:57.000Z</time>
      </trkpt>
      <trkpt lat="43.77836" lon="7.07967">
        <ele>722.79998779297</ele>
        <time>2023-08-02T08:23:58.000Z</time>
      </trkpt>
      <trkpt lat="43.77838" lon="7.0797">
        <ele>721.59997558594</ele>
        <time>2023-08-02T08:23:59.000Z</time>
      </trkpt>
      <trkpt lat="43.77839" lon="7.07973">
        <ele>720.79998779297</ele>
        <time>2023-08-02T08:24:00.000Z</time>
      </trkpt>
      <trkpt lat="43.77841" lon="7.07973">
        <ele>720</ele>
        <time>2023-08-02T08:24:01.000Z</time>
      </trkpt>
      <trkpt lat="43.77842" lon="7.07972">
        <ele>719.40002441406</ele>
        <time>2023-08-02T08:24:02.000Z</time>
      </trkpt>
      <trkpt lat="43.77843" lon="7.0797">
        <ele>718.40002441406</ele>
        <time>2023-08-02T08:24:03.000Z</time>
      </trkpt>
      <trkpt lat="43.77845" lon="7.07968">
        <ele>717.59997558594</ele>
        <time>2023-08-02T08:24:04.000Z</time>
      </trkpt>
      <trkpt lat="43.77847" lon="7.07969">
        <ele>717</ele>
        <time>2023-08-02T08:24:05.000Z</time>
      </trkpt>
      <trkpt lat="43.77848" lon="7.07971">
        <ele>716.40002441406</ele>
        <time>2023-08-02T08:24:06.000Z</time>
      </trkpt>
      <trkpt lat="43.77849" lon="7.07974">
        <ele>715.79998779297</ele>
        <time>2023-08-02T08:24:07.000Z</time>
      </trkpt>
      <trkpt lat="43.7785" lon="7.07978">
        <ele>715.40002441406</ele>
        <time>2023-08-02T08:24:08.000Z</time>
      </trkpt>
      <trkpt lat="43.77852" lon="7.07981">
        <ele>714.79998779297</ele>
        <time>2023-08-02T08:24:09.000Z</time>
      </trkpt>
      <trkpt lat="43.77853" lon="7.07983">
        <ele>714</ele>
        <time>2023-08-02T08:24:10.000Z</time>
      </trkpt>
      <trkpt lat="43.77855" lon="7.07985">
        <ele>713.20001220703</ele>
        <time>2023-08-02T08:24:11.000Z</time>
      </trkpt>
      <trkpt lat="43.77855" lon="7.07987">
        <ele>712.59997558594</ele>
        <time>2023-08-02T08:24:12.000Z</time>
      </trkpt>
      <trkpt lat="43.77857" lon="7.0799">
        <ele>712</ele>
        <time>2023-08-02T08:24:13.000Z</time>
      </trkpt>
      <trkpt lat="43.77858" lon="7.07993">
        <ele>711.20001220703</ele>
        <time>2023-08-02T08:24:14.000Z</time>
      </trkpt>
      <trkpt lat="43.77859" lon="7.07996">
        <ele>711</ele>
        <time>2023-08-02T08:24:15.000Z</time>
      </trkpt>
      <trkpt lat="43.77859" lon="7.07999">
        <ele>710.20001220703</ele>
        <time>2023-08-02T08:24:16.000Z</time>
      </trkpt>
      <trkpt lat="43.7786" lon="7.08003">
        <ele>709.59997558594</ele>
        <time>2023-08-02T08:24:17.000Z</time>
      </trkpt>
      <trkpt lat="43.7786" lon="7.08007">
        <ele>709.59997558594</ele>
        <time>2023-08-02T08:24:18.000Z</time>
      </trkpt>
      <trkpt lat="43.7786" lon="7.08013">
        <ele>709</ele>
        <time>2023-08-02T08:24:19.000Z</time>
      </trkpt>
      <trkpt lat="43.77861" lon="7.08017">
        <ele>708.40002441406</ele>
        <time>2023-08-02T08:24:20.000Z</time>
      </trkpt>
      <trkpt lat="43.77862" lon="7.0802">
        <ele>707.40002441406</ele>
        <time>2023-08-02T08:24:21.000Z</time>
      </trkpt>
      <trkpt lat="43.77863" lon="7.08023">
        <ele>706.79998779297</ele>
        <time>2023-08-02T08:24:22.000Z</time>
      </trkpt>
      <trkpt lat="43.77864" lon="7.08026">
        <ele>706</ele>
        <time>2023-08-02T08:24:23.000Z</time>
      </trkpt>
      <trkpt lat="43.77865" lon="7.08029">
        <ele>705.59997558594</ele>
        <time>2023-08-02T08:24:24.000Z</time>
      </trkpt>
      <trkpt lat="43.77865" lon="7.08033">
        <ele>705.20001220703</ele>
        <time>2023-08-02T08:24:25.000Z</time>
      </trkpt>
      <trkpt lat="43.77866" lon="7.08037">
        <ele>704.20001220703</ele>
        <time>2023-08-02T08:24:26.000Z</time>
      </trkpt>
      <trkpt lat="43.77867" lon="7.0804">
        <ele>703.59997558594</ele>
        <time>2023-08-02T08:24:27.000Z</time>
      </trkpt>
      <trkpt lat="43.77867" lon="7.08042">
        <ele>702.79998779297</ele>
        <time>2023-08-02T08:24:28.000Z</time>
      </trkpt>
      <trkpt lat="43.77867" lon="7.08044">
        <ele>701.59997558594</ele>
        <time>2023-08-02T08:24:29.000Z</time>
      </trkpt>
      <trkpt lat="43.77867" lon="7.08047">
        <ele>700.79998779297</ele>
        <time>2023-08-02T08:24:30.000Z</time>
      </trkpt>
      <trkpt lat="43.77867" lon="7.08049">
        <ele>700.20001220703</ele>
        <time>2023-08-02T08:24:31.000Z</time>
      </trkpt>
      <trkpt lat="43.77867" lon="7.08052">
        <ele>699.59997558594</ele>
        <time>2023-08-02T08:24:32.000Z</time>
      </trkpt>
      <trkpt lat="43.77867" lon="7.08054">
        <ele>699.20001220703</ele>
        <time>2023-08-02T08:24:33.000Z</time>
      </trkpt>
      <trkpt lat="43.77868" lon="7.08055">
        <ele>698.59997558594</ele>
        <time>2023-08-02T08:24:34.000Z</time>
      </trkpt>
      <trkpt lat="43.77869" lon="7.08055">
        <ele>697.59997558594</ele>
        <time>2023-08-02T08:24:35.000Z</time>
      </trkpt>
      <trkpt lat="43.7787" lon="7.08055">
        <ele>697.20001220703</ele>
        <time>2023-08-02T08:24:36.000Z</time>
      </trkpt>
      <trkpt lat="43.77872" lon="7.08055">
        <ele>696.59997558594</ele>
        <time>2023-08-02T08:24:37.000Z</time>
      </trkpt>
      <trkpt lat="43.77874" lon="7.08055">
        <ele>696.40002441406</ele>
        <time>2023-08-02T08:24:38.000Z</time>
      </trkpt>
      <trkpt lat="43.77874" lon="7.08058">
        <ele>695.79998779297</ele>
        <time>2023-08-02T08:24:39.000Z</time>
      </trkpt>
      <trkpt lat="43.77874" lon="7.08061">
        <ele>695.20001220703</ele>
        <time>2023-08-02T08:24:40.000Z</time>
      </trkpt>
      <trkpt lat="43.77874" lon="7.08065">
        <ele>694.79998779297</ele>
        <time>2023-08-02T08:24:41.000Z</time>
      </trkpt>
      <trkpt lat="43.77875" lon="7.08066">
        <ele>694.79998779297</ele>
        <time>2023-08-02T08:24:42.000Z</time>
      </trkpt>
      <trkpt lat="43.77875" lon="7.08067">
        <ele>694.40002441406</ele>
        <time>2023-08-02T08:24:43.000Z</time>
      </trkpt>
      <trkpt lat="43.77876" lon="7.08067">
        <ele>693.79998779297</ele>
        <time>2023-08-02T08:24:44.000Z</time>
      </trkpt>
      <trkpt lat="43.77876" lon="7.08067">
        <ele>693.40002441406</ele>
        <time>2023-08-02T08:24:45.000Z</time>
      </trkpt>
      <trkpt lat="43.77876" lon="7.08068">
        <ele>693.40002441406</ele>
        <time>2023-08-02T08:24:46.000Z</time>
      </trkpt>
      <trkpt lat="43.77876" lon="7.08068">
        <ele>693.20001220703</ele>
        <time>2023-08-02T08:24:47.000Z</time>
      </trkpt>
      <trkpt lat="43.77877" lon="7.08069">
        <ele>693.20001220703</ele>
        <time>2023-08-02T08:24:48.000Z</time>
      </trkpt>
      <trkpt lat="43.77877" lon="7.08069">
        <ele>693.20001220703</ele>
        <time>2023-08-02T08:24:49.000Z</time>
      </trkpt>
      <trkpt lat="43.77877" lon="7.08069">
        <ele>693.20001220703</ele>
        <time>2023-08-02T08:24:50.000Z</time>
      </trkpt>
      <trkpt lat="43.77877" lon="7.08069">
        <ele>693.20001220703</ele>
        <time>2023-08-02T08:24:51.000Z</time>
      </trkpt>
      <trkpt lat="43.77877" lon="7.08069">
        <ele>693.20001220703</ele>
        <time>2023-08-02T08:24:52.000Z</time>
      </trkpt>
      <trkpt lat="43.77877" lon="7.08069">
        <ele>693</ele>
        <time>2023-08-02T08:24:53.000Z</time>
      </trkpt>
      <trkpt lat="43.77877" lon="7.08069">
        <ele>693</ele>
        <time>2023-08-02T08:24:54.000Z</time>
      </trkpt>
      <trkpt lat="43.77877" lon="7.08069">
        <ele>693</ele>
        <time>2023-08-02T08:24:55.000Z</time>
      </trkpt>
      <trkpt lat="43.77877" lon="7.08069">
        <ele>693</ele>
        <time>2023-08-02T08:24:56.000Z</time>
      </trkpt>
      <trkpt lat="43.77877" lon="7.08069">
        <ele>693</ele>
        <time>2023-08-02T08:24:57.000Z</time>
      </trkpt>
      <trkpt lat="43.77877" lon="7.08069">
        <ele>693</ele>
        <time>2023-08-02T08:24:58.000Z</time>
      </trkpt>
      <trkpt lat="43.77877" lon="7.08069">
        <ele>693.20001220703</ele>
        <time>2023-08-02T08:24:59.000Z</time>
      </trkpt>
      <trkpt lat="43.77877" lon="7.08069">
        <ele>693.20001220703</ele>
        <time>2023-08-02T08:25:00.000Z</time>
      </trkpt>
      <trkpt lat="43.77877" lon="7.08069">
        <ele>693.20001220703</ele>
        <time>2023-08-02T08:25:01.000Z</time>
      </trkpt>
      <trkpt lat="43.77877" lon="7.08068">
        <ele>693.20001220703</ele>
        <time>2023-08-02T08:25:02.000Z</time>
      </trkpt>
      <trkpt lat="43.77877" lon="7.08068">
        <ele>693.20001220703</ele>
        <time>2023-08-02T08:25:03.000Z</time>
      </trkpt>
      <trkpt lat="43.77877" lon="7.08067">
        <ele>693.20001220703</ele>
        <time>2023-08-02T08:25:04.000Z</time>
      </trkpt>
      <trkpt lat="43.77877" lon="7.08067">
        <ele>692.79998779297</ele>
        <time>2023-08-02T08:25:05.000Z</time>
      </trkpt>
      <trkpt lat="43.77877" lon="7.08067">
        <ele>692.79998779297</ele>
        <time>2023-08-02T08:25:06.000Z</time>
      </trkpt>
      <trkpt lat="43.77876" lon="7.08067">
        <ele>692.79998779297</ele>
        <time>2023-08-02T08:25:07.000Z</time>
      </trkpt>
      <trkpt lat="43.77876" lon="7.08067">
        <ele>692.79998779297</ele>
        <time>2023-08-02T08:25:08.000Z</time>
      </trkpt>
      <trkpt lat="43.77876" lon="7.08067">
        <ele>692.79998779297</ele>
        <time>2023-08-02T08:25:09.000Z</time>
      </trkpt>
      <trkpt lat="43.77876" lon="7.08067">
        <ele>692.79998779297</ele>
        <time>2023-08-02T08:25:10.000Z</time>
      </trkpt>
      <trkpt lat="43.77876" lon="7.08067">
        <ele>692.79998779297</ele>
        <time>2023-08-02T08:25:11.000Z</time>
      </trkpt>
      <trkpt lat="43.77876" lon="7.08067">
        <ele>692.79998779297</ele>
        <time>2023-08-02T08:25:12.000Z</time>
      </trkpt>
      <trkpt lat="43.77876" lon="7.08067">
        <ele>692.79998779297</ele>
        <time>2023-08-02T08:25:13.000Z</time>
      </trkpt>
      <trkpt lat="43.77876" lon="7.08067">
        <ele>692.59997558594</ele>
        <time>2023-08-02T08:25:14.000Z</time>
      </trkpt>
      <trkpt lat="43.77876" lon="7.08067">
        <ele>692.40002441406</ele>
        <time>2023-08-02T08:25:15.000Z</time>
      </trkpt>
      <trkpt lat="43.77876" lon="7.08067">
        <ele>692.59997558594</ele>
        <time>2023-08-02T08:25:16.000Z</time>
      </trkpt>
      <trkpt lat="43.77876" lon="7.08067">
        <ele>692.59997558594</ele>
        <time>2023-08-02T08:25:17.000Z</time>
      </trkpt>
      <trkpt lat="43.77877" lon="7.08067">
        <ele>692.79998779297</ele>
        <time>2023-08-02T08:25:18.000Z</time>
      </trkpt>
      <trkpt lat="43.77877" lon="7.08067">
        <ele>692.79998779297</ele>
        <time>2023-08-02T08:25:19.000Z</time>
      </trkpt>
      <trkpt lat="43.77877" lon="7.08067">
        <ele>692.79998779297</ele>
        <time>2023-08-02T08:25:20.000Z</time>
      </trkpt>
      <trkpt lat="43.77877" lon="7.08067">
        <ele>692.79998779297</ele>
        <time>2023-08-02T08:25:21.000Z</time>
      </trkpt>
      <trkpt lat="43.77877" lon="7.08067">
        <ele>692.79998779297</ele>
        <time>2023-08-02T08:25:22.000Z</time>
      </trkpt>
      <trkpt lat="43.77877" lon="7.08068">
        <ele>692.79998779297</ele>
        <time>2023-08-02T08:25:23.000Z</time>
      </trkpt>
      <trkpt lat="43.77877" lon="7.08068">
        <ele>692.59997558594</ele>
        <time>2023-08-02T08:25:24.000Z</time>
      </trkpt>
      <trkpt lat="43.77877" lon="7.08068">
        <ele>692.59997558594</ele>
        <time>2023-08-02T08:25:25.000Z</time>
      </trkpt>
      <trkpt lat="43.77877" lon="7.08069">
        <ele>692.59997558594</ele>
        <time>2023-08-02T08:25:26.000Z</time>
      </trkpt>
      <trkpt lat="43.77877" lon="7.08069">
        <ele>692.59997558594</ele>
        <time>2023-08-02T08:25:27.000Z</time>
      </trkpt>
      <trkpt lat="43.77876" lon="7.08069">
        <ele>692.40002441406</ele>
        <time>2023-08-02T08:25:28.000Z</time>
      </trkpt>
      <trkpt lat="43.77876" lon="7.08069">
        <ele>692.40002441406</ele>
        <time>2023-08-02T08:25:29.000Z</time>
      </trkpt>
      <trkpt lat="43.77876" lon="7.08069">
        <ele>692.40002441406</ele>
        <time>2023-08-02T08:25:30.000Z</time>
      </trkpt>
      <trkpt lat="43.77876" lon="7.08069">
        <ele>692.40002441406</ele>
        <time>2023-08-02T08:25:31.000Z</time>
      </trkpt>
      <trkpt lat="43.77876" lon="7.08069">
        <ele>692.40002441406</ele>
        <time>2023-08-02T08:25:32.000Z</time>
      </trkpt>
      <trkpt lat="43.77876" lon="7.08069">
        <ele>692.59997558594</ele>
        <time>2023-08-02T08:25:33.000Z</time>
      </trkpt>
      <trkpt lat="43.77876" lon="7.08069">
        <ele>692.59997558594</ele>
        <time>2023-08-02T08:25:34.000Z</time>
      </trkpt>
      <trkpt lat="43.77876" lon="7.08069">
        <ele>692.59997558594</ele>
        <time>2023-08-02T08:25:35.000Z</time>
      </trkpt>
      <trkpt lat="43.77876" lon="7.08069">
        <ele>692.59997558594</ele>
        <time>2023-08-02T08:25:36.000Z</time>
      </trkpt>
      <trkpt lat="43.77876" lon="7.08069">
        <ele>692.59997558594</ele>
        <time>2023-08-02T08:25:37.000Z</time>
      </trkpt>
      <trkpt lat="43.77876" lon="7.08069">
        <ele>692.79998779297</ele>
        <time>2023-08-02T08:25:38.000Z</time>
      </trkpt>
      <trkpt lat="43.77876" lon="7.08069">
        <ele>693</ele>
        <time>2023-08-02T08:25:39.000Z</time>
      </trkpt>
      <trkpt lat="43.77875" lon="7.08068">
        <ele>693</ele>
        <time>2023-08-02T08:25:40.000Z</time>
      </trkpt>
      <trkpt lat="43.77875" lon="7.08068">
        <ele>692.79998779297</ele>
        <time>2023-08-02T08:25:41.000Z</time>
      </trkpt>
      <trkpt lat="43.77875" lon="7.08068">
        <ele>692.79998779297</ele>
        <time>2023-08-02T08:25:42.000Z</time>
      </trkpt>
      <trkpt lat="43.77875" lon="7.08068">
        <ele>692.79998779297</ele>
        <time>2023-08-02T08:25:43.000Z</time>
      </trkpt>
      <trkpt lat="43.77875" lon="7.08068">
        <ele>692.79998779297</ele>
        <time>2023-08-02T08:25:44.000Z</time>
      </trkpt>
      <trkpt lat="43.77875" lon="7.08068">
        <ele>692.59997558594</ele>
        <time>2023-08-02T08:25:45.000Z</time>
      </trkpt>
      <trkpt lat="43.77875" lon="7.08068">
        <ele>692.40002441406</ele>
        <time>2023-08-02T08:25:46.000Z</time>
      </trkpt>
      <trkpt lat="43.77875" lon="7.08068">
        <ele>692.59997558594</ele>
        <time>2023-08-02T08:25:47.000Z</time>
      </trkpt>
      <trkpt lat="43.77875" lon="7.08068">
        <ele>692.79998779297</ele>
        <time>2023-08-02T08:25:48.000Z</time>
      </trkpt>
      <trkpt lat="43.77875" lon="7.08068">
        <ele>692.79998779297</ele>
        <time>2023-08-02T08:25:49.000Z</time>
      </trkpt>
      <trkpt lat="43.77875" lon="7.08068">
        <ele>692.79998779297</ele>
        <time>2023-08-02T08:25:50.000Z</time>
      </trkpt>
      <trkpt lat="43.77875" lon="7.08068">
        <ele>692.79998779297</ele>
        <time>2023-08-02T08:25:51.000Z</time>
      </trkpt>
      <trkpt lat="43.77875" lon="7.08068">
        <ele>692.79998779297</ele>
        <time>2023-08-02T08:25:52.000Z</time>
      </trkpt>
      <trkpt lat="43.77875" lon="7.08068">
        <ele>692.79998779297</ele>
        <time>2023-08-02T08:25:53.000Z</time>
      </trkpt>
      <trkpt lat="43.77875" lon="7.08068">
        <ele>692.79998779297</ele>
        <time>2023-08-02T08:25:54.000Z</time>
      </trkpt>
      <trkpt lat="43.77875" lon="7.08068">
        <ele>692.79998779297</ele>
        <time>2023-08-02T08:25:55.000Z</time>
      </trkpt>
      <trkpt lat="43.77875" lon="7.08068">
        <ele>692.79998779297</ele>
        <time>2023-08-02T08:25:56.000Z</time>
      </trkpt>
      <trkpt lat="43.77875" lon="7.08068">
        <ele>692.79998779297</ele>
        <time>2023-08-02T08:25:57.000Z</time>
      </trkpt>
      <trkpt lat="43.77875" lon="7.08068">
        <ele>692.79998779297</ele>
        <time>2023-08-02T08:25:58.000Z</time>
      </trkpt>
      <trkpt lat="43.77875" lon="7.08068">
        <ele>692.79998779297</ele>
        <time>2023-08-02T08:25:59.000Z</time>
      </trkpt>
      <trkpt lat="43.77875" lon="7.08068">
        <ele>692.79998779297</ele>
        <time>2023-08-02T08:26:00.000Z</time>
      </trkpt>
      <trkpt lat="43.77875" lon="7.08068">
        <ele>692.79998779297</ele>
        <time>2023-08-02T08:26:01.000Z</time>
      </trkpt>
      <trkpt lat="43.77875" lon="7.08068">
        <ele>692.79998779297</ele>
        <time>2023-08-02T08:26:02.000Z</time>
      </trkpt>
      <trkpt lat="43.77875" lon="7.08068">
        <ele>692.59997558594</ele>
        <time>2023-08-02T08:26:03.000Z</time>
      </trkpt>
      <trkpt lat="43.77875" lon="7.08068">
        <ele>692.59997558594</ele>
        <time>2023-08-02T08:26:04.000Z</time>
      </trkpt>
      <trkpt lat="43.77875" lon="7.08068">
        <ele>692.59997558594</ele>
        <time>2023-08-02T08:26:05.000Z</time>
      </trkpt>
      <trkpt lat="43.77875" lon="7.08068">
        <ele>692.59997558594</ele>
        <time>2023-08-02T08:26:06.000Z</time>
      </trkpt>
      <trkpt lat="43.77875" lon="7.08068">
        <ele>692.59997558594</ele>
        <time>2023-08-02T08:26:07.000Z</time>
      </trkpt>
      <trkpt lat="43.77875" lon="7.08068">
        <ele>692.59997558594</ele>
        <time>2023-08-02T08:26:08.000Z</time>
      </trkpt>
      <trkpt lat="43.77875" lon="7.08068">
        <ele>692.59997558594</ele>
        <time>2023-08-02T08:26:09.000Z</time>
      </trkpt>
      <trkpt lat="43.77875" lon="7.08068">
        <ele>692.59997558594</ele>
        <time>2023-08-02T08:26:10.000Z</time>
      </trkpt>
      <trkpt lat="43.77875" lon="7.08068">
        <ele>692.59997558594</ele>
        <time>2023-08-02T08:26:11.000Z</time>
      </trkpt>
      <trkpt lat="43.77875" lon="7.08068">
        <ele>692.59997558594</ele>
        <time>2023-08-02T08:26:12.000Z</time>
      </trkpt>
      <trkpt lat="43.77875" lon="7.08068">
        <ele>692.59997558594</ele>
        <time>2023-08-02T08:26:13.000Z</time>
      </trkpt>
      <trkpt lat="43.77875" lon="7.08068">
        <ele>692.59997558594</ele>
        <time>2023-08-02T08:26:14.000Z</time>
      </trkpt>
      <trkpt lat="43.77875" lon="7.08068">
        <ele>692.59997558594</ele>
        <time>2023-08-02T08:26:15.000Z</time>
      </trkpt>
      <trkpt lat="43.77875" lon="7.08068">
        <ele>692.59997558594</ele>
        <time>2023-08-02T08:26:16.000Z</time>
      </trkpt>
      <trkpt lat="43.77875" lon="7.08068">
        <ele>692.79998779297</ele>
        <time>2023-08-02T08:26:17.000Z</time>
      </trkpt>
      <trkpt lat="43.77875" lon="7.08068">
        <ele>692.79998779297</ele>
        <time>2023-08-02T08:26:18.000Z</time>
      </trkpt>
      <trkpt lat="43.77875" lon="7.08068">
        <ele>692.79998779297</ele>
        <time>2023-08-02T08:26:19.000Z</time>
      </trkpt>
      <trkpt lat="43.77875" lon="7.08068">
        <ele>692.79998779297</ele>
        <time>2023-08-02T08:26:20.000Z</time>
      </trkpt>
      <trkpt lat="43.77875" lon="7.08068">
        <ele>692.79998779297</ele>
        <time>2023-08-02T08:26:21.000Z</time>
      </trkpt>
      <trkpt lat="43.77875" lon="7.08068">
        <ele>692.79998779297</ele>
        <time>2023-08-02T08:26:22.000Z</time>
      </trkpt>
      <trkpt lat="43.77875" lon="7.08068">
        <ele>692.79998779297</ele>
        <time>2023-08-02T08:26:23.000Z</time>
      </trkpt>
      <trkpt lat="43.77875" lon="7.08068">
        <ele>692.79998779297</ele>
        <time>2023-08-02T08:26:24.000Z</time>
      </trkpt>
      <trkpt lat="43.77876" lon="7.08067">
        <ele>692.79998779297</ele>
        <time>2023-08-02T08:26:25.000Z</time>
      </trkpt>
      <trkpt lat="43.77876" lon="7.08067">
        <ele>692.79998779297</ele>
        <time>2023-08-02T08:26:26.000Z</time>
      </trkpt>
      <trkpt lat="43.77876" lon="7.08067">
        <ele>692.79998779297</ele>
        <time>2023-08-02T08:26:27.000Z</time>
      </trkpt>
      <trkpt lat="43.77876" lon="7.08067">
        <ele>692.59997558594</ele>
        <time>2023-08-02T08:26:28.000Z</time>
      </trkpt>
      <trkpt lat="43.77876" lon="7.08067">
        <ele>692.59997558594</ele>
        <time>2023-08-02T08:26:29.000Z</time>
      </trkpt>
      <trkpt lat="43.77876" lon="7.08067">
        <ele>692.59997558594</ele>
        <time>2023-08-02T08:26:30.000Z</time>
      </trkpt>
      <trkpt lat="43.77876" lon="7.08067">
        <ele>692.59997558594</ele>
        <time>2023-08-02T08:26:31.000Z</time>
      </trkpt>
      <trkpt lat="43.77876" lon="7.08067">
        <ele>692.59997558594</ele>
        <time>2023-08-02T08:26:32.000Z</time>
      </trkpt>
      <trkpt lat="43.77877" lon="7.08066">
        <ele>692.59997558594</ele>
        <time>2023-08-02T08:26:33.000Z</time>
      </trkpt>
      <trkpt lat="43.77877" lon="7.08066">
        <ele>692.59997558594</ele>
        <time>2023-08-02T08:26:34.000Z</time>
      </trkpt>
      <trkpt lat="43.77877" lon="7.08066">
        <ele>692.59997558594</ele>
        <time>2023-08-02T08:26:35.000Z</time>
      </trkpt>
      <trkpt lat="43.77877" lon="7.08066">
        <ele>692.79998779297</ele>
        <time>2023-08-02T08:26:36.000Z</time>
      </trkpt>
      <trkpt lat="43.77877" lon="7.08066">
        <ele>692.79998779297</ele>
        <time>2023-08-02T08:26:37.000Z</time>
      </trkpt>
      <trkpt lat="43.77877" lon="7.08066">
        <ele>692.79998779297</ele>
        <time>2023-08-02T08:26:38.000Z</time>
      </trkpt>
      <trkpt lat="43.77877" lon="7.08066">
        <ele>692.79998779297</ele>
        <time>2023-08-02T08:26:39.000Z</time>
      </trkpt>
      <trkpt lat="43.77877" lon="7.08066">
        <ele>693</ele>
        <time>2023-08-02T08:26:40.000Z</time>
      </trkpt>
      <trkpt lat="43.77877" lon="7.08066">
        <ele>693</ele>
        <time>2023-08-02T08:26:41.000Z</time>
      </trkpt>
      <trkpt lat="43.77877" lon="7.08066">
        <ele>693</ele>
        <time>2023-08-02T08:26:42.000Z</time>
      </trkpt>
      <trkpt lat="43.77877" lon="7.08067">
        <ele>693</ele>
        <time>2023-08-02T08:26:43.000Z</time>
      </trkpt>
      <trkpt lat="43.77877" lon="7.08066">
        <ele>693</ele>
        <time>2023-08-02T08:26:44.000Z</time>
      </trkpt>
      <trkpt lat="43.77877" lon="7.08066">
        <ele>693</ele>
        <time>2023-08-02T08:26:45.000Z</time>
      </trkpt>
      <trkpt lat="43.77877" lon="7.08066">
        <ele>693</ele>
        <time>2023-08-02T08:26:46.000Z</time>
      </trkpt>
      <trkpt lat="43.77878" lon="7.08066">
        <ele>693</ele>
        <time>2023-08-02T08:26:47.000Z</time>
      </trkpt>
      <trkpt lat="43.77878" lon="7.08066">
        <ele>693</ele>
        <time>2023-08-02T08:26:48.000Z</time>
      </trkpt>
      <trkpt lat="43.77878" lon="7.08066">
        <ele>693.20001220703</ele>
        <time>2023-08-02T08:26:49.000Z</time>
      </trkpt>
      <trkpt lat="43.77877" lon="7.08066">
        <ele>693.20001220703</ele>
        <time>2023-08-02T08:26:50.000Z</time>
      </trkpt>
      <trkpt lat="43.77877" lon="7.08067">
        <ele>693.20001220703</ele>
        <time>2023-08-02T08:26:51.000Z</time>
      </trkpt>
      <trkpt lat="43.77877" lon="7.08067">
        <ele>693.20001220703</ele>
        <time>2023-08-02T08:26:52.000Z</time>
      </trkpt>
      <trkpt lat="43.77877" lon="7.08067">
        <ele>693.20001220703</ele>
        <time>2023-08-02T08:26:53.000Z</time>
      </trkpt>
      <trkpt lat="43.77877" lon="7.08066">
        <ele>693.20001220703</ele>
        <time>2023-08-02T08:26:54.000Z</time>
      </trkpt>
      <trkpt lat="43.77877" lon="7.08066">
        <ele>693.20001220703</ele>
        <time>2023-08-02T08:26:55.000Z</time>
      </trkpt>
      <trkpt lat="43.77877" lon="7.08067">
        <ele>693.20001220703</ele>
        <time>2023-08-02T08:26:56.000Z</time>
      </trkpt>
      <trkpt lat="43.77877" lon="7.08066">
        <ele>693.20001220703</ele>
        <time>2023-08-02T08:26:57.000Z</time>
      </trkpt>
      <trkpt lat="43.77877" lon="7.08066">
        <ele>693.20001220703</ele>
        <time>2023-08-02T08:26:58.000Z</time>
      </trkpt>
      <trkpt lat="43.77876" lon="7.08068">
        <ele>693.20001220703</ele>
        <time>2023-08-02T08:26:59.000Z</time>
      </trkpt>
      <trkpt lat="43.77876" lon="7.08068">
        <ele>693.20001220703</ele>
        <time>2023-08-02T08:27:00.000Z</time>
      </trkpt>
      <trkpt lat="43.77876" lon="7.08069">
        <ele>693.20001220703</ele>
        <time>2023-08-02T08:27:01.000Z</time>
      </trkpt>
      <trkpt lat="43.77876" lon="7.0807">
        <ele>693.20001220703</ele>
        <time>2023-08-02T08:27:02.000Z</time>
      </trkpt>
      <trkpt lat="43.77876" lon="7.08071">
        <ele>693.20001220703</ele>
        <time>2023-08-02T08:27:03.000Z</time>
      </trkpt>
      <trkpt lat="43.77877" lon="7.08073">
        <ele>693</ele>
        <time>2023-08-02T08:27:04.000Z</time>
      </trkpt>
      <trkpt lat="43.77879" lon="7.08075">
        <ele>693</ele>
        <time>2023-08-02T08:27:05.000Z</time>
      </trkpt>
      <trkpt lat="43.77879" lon="7.08078">
        <ele>693</ele>
        <time>2023-08-02T08:27:06.000Z</time>
      </trkpt>
      <trkpt lat="43.7788" lon="7.08081">
        <ele>692.79998779297</ele>
        <time>2023-08-02T08:27:07.000Z</time>
      </trkpt>
      <trkpt lat="43.77881" lon="7.08082">
        <ele>692.59997558594</ele>
        <time>2023-08-02T08:27:08.000Z</time>
      </trkpt>
      <trkpt lat="43.77882" lon="7.08084">
        <ele>692.40002441406</ele>
        <time>2023-08-02T08:27:09.000Z</time>
      </trkpt>
      <trkpt lat="43.77883" lon="7.08086">
        <ele>692.40002441406</ele>
        <time>2023-08-02T08:27:10.000Z</time>
      </trkpt>
      <trkpt lat="43.77884" lon="7.08088">
        <ele>692</ele>
        <time>2023-08-02T08:27:11.000Z</time>
      </trkpt>
      <trkpt lat="43.77885" lon="7.08089">
        <ele>691.79998779297</ele>
        <time>2023-08-02T08:27:12.000Z</time>
      </trkpt>
      <trkpt lat="43.77886" lon="7.08091">
        <ele>691.20001220703</ele>
        <time>2023-08-02T08:27:13.000Z</time>
      </trkpt>
      <trkpt lat="43.77886" lon="7.08094">
        <ele>690.79998779297</ele>
        <time>2023-08-02T08:27:14.000Z</time>
      </trkpt>
      <trkpt lat="43.77887" lon="7.08097">
        <ele>690.40002441406</ele>
        <time>2023-08-02T08:27:15.000Z</time>
      </trkpt>
      <trkpt lat="43.77888" lon="7.081">
        <ele>690</ele>
        <time>2023-08-02T08:27:16.000Z</time>
      </trkpt>
      <trkpt lat="43.7789" lon="7.08104">
        <ele>689.40002441406</ele>
        <time>2023-08-02T08:27:17.000Z</time>
      </trkpt>
      <trkpt lat="43.77892" lon="7.08108">
        <ele>688.40002441406</ele>
        <time>2023-08-02T08:27:18.000Z</time>
      </trkpt>
      <trkpt lat="43.77893" lon="7.0811">
        <ele>687.59997558594</ele>
        <time>2023-08-02T08:27:19.000Z</time>
      </trkpt>
      <trkpt lat="43.77894" lon="7.08113">
        <ele>686.59997558594</ele>
        <time>2023-08-02T08:27:20.000Z</time>
      </trkpt>
      <trkpt lat="43.77894" lon="7.08115">
        <ele>686.40002441406</ele>
        <time>2023-08-02T08:27:21.000Z</time>
      </trkpt>
      <trkpt lat="43.77894" lon="7.08119">
        <ele>685.59997558594</ele>
        <time>2023-08-02T08:27:22.000Z</time>
      </trkpt>
      <trkpt lat="43.77894" lon="7.08121">
        <ele>685.20001220703</ele>
        <time>2023-08-02T08:27:23.000Z</time>
      </trkpt>
      <trkpt lat="43.77893" lon="7.08122">
        <ele>684.40002441406</ele>
        <time>2023-08-02T08:27:24.000Z</time>
      </trkpt>
      <trkpt lat="43.77893" lon="7.08124">
        <ele>683.59997558594</ele>
        <time>2023-08-02T08:27:25.000Z</time>
      </trkpt>
      <trkpt lat="43.77895" lon="7.08126">
        <ele>683.20001220703</ele>
        <time>2023-08-02T08:27:26.000Z</time>
      </trkpt>
      <trkpt lat="43.77895" lon="7.08127">
        <ele>682.59997558594</ele>
        <time>2023-08-02T08:27:27.000Z</time>
      </trkpt>
      <trkpt lat="43.77897" lon="7.08129">
        <ele>682.40002441406</ele>
        <time>2023-08-02T08:27:28.000Z</time>
      </trkpt>
      <trkpt lat="43.77898" lon="7.08131">
        <ele>682</ele>
        <time>2023-08-02T08:27:29.000Z</time>
      </trkpt>
      <trkpt lat="43.779" lon="7.08132">
        <ele>681.20001220703</ele>
        <time>2023-08-02T08:27:30.000Z</time>
      </trkpt>
      <trkpt lat="43.77901" lon="7.08133">
        <ele>680.40002441406</ele>
        <time>2023-08-02T08:27:31.000Z</time>
      </trkpt>
      <trkpt lat="43.77902" lon="7.08132">
        <ele>679.20001220703</ele>
        <time>2023-08-02T08:27:32.000Z</time>
      </trkpt>
      <trkpt lat="43.77902" lon="7.08132">
        <ele>678</ele>
        <time>2023-08-02T08:27:33.000Z</time>
      </trkpt>
      <trkpt lat="43.77901" lon="7.08132">
        <ele>677.20001220703</ele>
        <time>2023-08-02T08:27:34.000Z</time>
      </trkpt>
      <trkpt lat="43.77902" lon="7.08132">
        <ele>677.20001220703</ele>
        <time>2023-08-02T08:27:35.000Z</time>
      </trkpt>
      <trkpt lat="43.77903" lon="7.08134">
        <ele>676.59997558594</ele>
        <time>2023-08-02T08:27:36.000Z</time>
      </trkpt>
      <trkpt lat="43.77905" lon="7.08136">
        <ele>676.20001220703</ele>
        <time>2023-08-02T08:27:37.000Z</time>
      </trkpt>
      <trkpt lat="43.77906" lon="7.08138">
        <ele>676</ele>
        <time>2023-08-02T08:27:38.000Z</time>
      </trkpt>
      <trkpt lat="43.77907" lon="7.0814">
        <ele>675.79998779297</ele>
        <time>2023-08-02T08:27:39.000Z</time>
      </trkpt>
      <trkpt lat="43.77908" lon="7.0814">
        <ele>675.59997558594</ele>
        <time>2023-08-02T08:27:40.000Z</time>
      </trkpt>
      <trkpt lat="43.77908" lon="7.0814">
        <ele>675.40002441406</ele>
        <time>2023-08-02T08:27:41.000Z</time>
      </trkpt>
      <trkpt lat="43.77908" lon="7.0814">
        <ele>675.40002441406</ele>
        <time>2023-08-02T08:27:42.000Z</time>
      </trkpt>
      <trkpt lat="43.77908" lon="7.0814">
        <ele>675.20001220703</ele>
        <time>2023-08-02T08:27:43.000Z</time>
      </trkpt>
      <trkpt lat="43.77908" lon="7.0814">
        <ele>675.20001220703</ele>
        <time>2023-08-02T08:27:44.000Z</time>
      </trkpt>
      <trkpt lat="43.77908" lon="7.0814">
        <ele>675.20001220703</ele>
        <time>2023-08-02T08:27:45.000Z</time>
      </trkpt>
      <trkpt lat="43.77908" lon="7.0814">
        <ele>675.20001220703</ele>
        <time>2023-08-02T08:27:46.000Z</time>
      </trkpt>
      <trkpt lat="43.77908" lon="7.0814">
        <ele>675.20001220703</ele>
        <time>2023-08-02T08:27:47.000Z</time>
      </trkpt>
      <trkpt lat="43.77908" lon="7.0814">
        <ele>675.20001220703</ele>
        <time>2023-08-02T08:27:48.000Z</time>
      </trkpt>
      <trkpt lat="43.77908" lon="7.0814">
        <ele>675.20001220703</ele>
        <time>2023-08-02T08:27:49.000Z</time>
      </trkpt>
      <trkpt lat="43.77908" lon="7.0814">
        <ele>675</ele>
        <time>2023-08-02T08:27:50.000Z</time>
      </trkpt>
      <trkpt lat="43.77908" lon="7.0814">
        <ele>675</ele>
        <time>2023-08-02T08:27:51.000Z</time>
      </trkpt>
      <trkpt lat="43.77908" lon="7.0814">
        <ele>675</ele>
        <time>2023-08-02T08:27:52.000Z</time>
      </trkpt>
      <trkpt lat="43.77908" lon="7.0814">
        <ele>675</ele>
        <time>2023-08-02T08:27:53.000Z</time>
      </trkpt>
      <trkpt lat="43.77908" lon="7.0814">
        <ele>675</ele>
        <time>2023-08-02T08:27:54.000Z</time>
      </trkpt>
      <trkpt lat="43.77909" lon="7.08139">
        <ele>675</ele>
        <time>2023-08-02T08:27:55.000Z</time>
      </trkpt>
      <trkpt lat="43.77909" lon="7.08137">
        <ele>675</ele>
        <time>2023-08-02T08:27:56.000Z</time>
      </trkpt>
      <trkpt lat="43.77909" lon="7.08137">
        <ele>675</ele>
        <time>2023-08-02T08:27:57.000Z</time>
      </trkpt>
      <trkpt lat="43.77909" lon="7.08138">
        <ele>675</ele>
        <time>2023-08-02T08:27:58.000Z</time>
      </trkpt>
      <trkpt lat="43.77909" lon="7.08137">
        <ele>675</ele>
        <time>2023-08-02T08:27:59.000Z</time>
      </trkpt>
      <trkpt lat="43.77908" lon="7.08137">
        <ele>675</ele>
        <time>2023-08-02T08:28:00.000Z</time>
      </trkpt>
      <trkpt lat="43.77908" lon="7.08137">
        <ele>675</ele>
        <time>2023-08-02T08:28:01.000Z</time>
      </trkpt>
      <trkpt lat="43.77908" lon="7.08137">
        <ele>675</ele>
        <time>2023-08-02T08:28:02.000Z</time>
      </trkpt>
      <trkpt lat="43.77908" lon="7.08137">
        <ele>675</ele>
        <time>2023-08-02T08:28:03.000Z</time>
      </trkpt>
      <trkpt lat="43.77908" lon="7.08137">
        <ele>675</ele>
        <time>2023-08-02T08:28:04.000Z</time>
      </trkpt>
      <trkpt lat="43.77908" lon="7.08137">
        <ele>675</ele>
        <time>2023-08-02T08:28:05.000Z</time>
      </trkpt>
      <trkpt lat="43.77908" lon="7.08137">
        <ele>675</ele>
        <time>2023-08-02T08:28:06.000Z</time>
      </trkpt>
      <trkpt lat="43.77908" lon="7.08137">
        <ele>675</ele>
        <time>2023-08-02T08:28:07.000Z</time>
      </trkpt>
      <trkpt lat="43.77908" lon="7.08137">
        <ele>675.20001220703</ele>
        <time>2023-08-02T08:28:08.000Z</time>
      </trkpt>
      <trkpt lat="43.77908" lon="7.08137">
        <ele>675.20001220703</ele>
        <time>2023-08-02T08:28:09.000Z</time>
      </trkpt>
      <trkpt lat="43.77908" lon="7.08137">
        <ele>675</ele>
        <time>2023-08-02T08:28:10.000Z</time>
      </trkpt>
      <trkpt lat="43.77908" lon="7.08138">
        <ele>675</ele>
        <time>2023-08-02T08:28:11.000Z</time>
      </trkpt>
      <trkpt lat="43.77908" lon="7.08137">
        <ele>675</ele>
        <time>2023-08-02T08:28:12.000Z</time>
      </trkpt>
      <trkpt lat="43.77908" lon="7.08138">
        <ele>675</ele>
        <time>2023-08-02T08:28:13.000Z</time>
      </trkpt>
      <trkpt lat="43.77908" lon="7.08138">
        <ele>675</ele>
        <time>2023-08-02T08:28:14.000Z</time>
      </trkpt>
      <trkpt lat="43.77907" lon="7.08138">
        <ele>675</ele>
        <time>2023-08-02T08:28:15.000Z</time>
      </trkpt>
      <trkpt lat="43.77907" lon="7.08138">
        <ele>675</ele>
        <time>2023-08-02T08:28:16.000Z</time>
      </trkpt>
      <trkpt lat="43.77907" lon="7.08138">
        <ele>675</ele>
        <time>2023-08-02T08:28:17.000Z</time>
      </trkpt>
      <trkpt lat="43.77907" lon="7.08139">
        <ele>675</ele>
        <time>2023-08-02T08:28:18.000Z</time>
      </trkpt>
      <trkpt lat="43.77906" lon="7.08141">
        <ele>675.20001220703</ele>
        <time>2023-08-02T08:28:19.000Z</time>
      </trkpt>
      <trkpt lat="43.77905" lon="7.08142">
        <ele>675.20001220703</ele>
        <time>2023-08-02T08:28:20.000Z</time>
      </trkpt>
      <trkpt lat="43.77904" lon="7.08143">
        <ele>675.20001220703</ele>
        <time>2023-08-02T08:28:21.000Z</time>
      </trkpt>
      <trkpt lat="43.77904" lon="7.08143">
        <ele>675.20001220703</ele>
        <time>2023-08-02T08:28:22.000Z</time>
      </trkpt>
      <trkpt lat="43.77904" lon="7.08143">
        <ele>675.20001220703</ele>
        <time>2023-08-02T08:28:23.000Z</time>
      </trkpt>
      <trkpt lat="43.77904" lon="7.08143">
        <ele>675</ele>
        <time>2023-08-02T08:28:24.000Z</time>
      </trkpt>
      <trkpt lat="43.77904" lon="7.08143">
        <ele>674.79998779297</ele>
        <time>2023-08-02T08:28:25.000Z</time>
      </trkpt>
      <trkpt lat="43.77904" lon="7.08143">
        <ele>674.79998779297</ele>
        <time>2023-08-02T08:28:26.000Z</time>
      </trkpt>
      <trkpt lat="43.77904" lon="7.08143">
        <ele>674.79998779297</ele>
        <time>2023-08-02T08:28:27.000Z</time>
      </trkpt>
      <trkpt lat="43.77905" lon="7.08143">
        <ele>674.79998779297</ele>
        <time>2023-08-02T08:28:28.000Z</time>
      </trkpt>
      <trkpt lat="43.77905" lon="7.08143">
        <ele>674.79998779297</ele>
        <time>2023-08-02T08:28:29.000Z</time>
      </trkpt>
      <trkpt lat="43.77905" lon="7.08143">
        <ele>674.79998779297</ele>
        <time>2023-08-02T08:28:30.000Z</time>
      </trkpt>
      <trkpt lat="43.77905" lon="7.08143">
        <ele>674.79998779297</ele>
        <time>2023-08-02T08:28:31.000Z</time>
      </trkpt>
      <trkpt lat="43.77905" lon="7.08143">
        <ele>675</ele>
        <time>2023-08-02T08:28:32.000Z</time>
      </trkpt>
      <trkpt lat="43.77905" lon="7.08143">
        <ele>675</ele>
        <time>2023-08-02T08:28:33.000Z</time>
      </trkpt>
      <trkpt lat="43.77905" lon="7.08143">
        <ele>675</ele>
        <time>2023-08-02T08:28:34.000Z</time>
      </trkpt>
      <trkpt lat="43.77905" lon="7.08143">
        <ele>675</ele>
        <time>2023-08-02T08:28:35.000Z</time>
      </trkpt>
      <trkpt lat="43.77905" lon="7.08143">
        <ele>675</ele>
        <time>2023-08-02T08:28:36.000Z</time>
      </trkpt>
      <trkpt lat="43.77905" lon="7.08143">
        <ele>675</ele>
        <time>2023-08-02T08:28:37.000Z</time>
      </trkpt>
      <trkpt lat="43.77905" lon="7.08143">
        <ele>675</ele>
        <time>2023-08-02T08:28:38.000Z</time>
      </trkpt>
      <trkpt lat="43.77905" lon="7.08143">
        <ele>675</ele>
        <time>2023-08-02T08:28:39.000Z</time>
      </trkpt>
      <trkpt lat="43.77905" lon="7.08143">
        <ele>675</ele>
        <time>2023-08-02T08:28:40.000Z</time>
      </trkpt>
      <trkpt lat="43.77905" lon="7.08143">
        <ele>675</ele>
        <time>2023-08-02T08:28:41.000Z</time>
      </trkpt>
      <trkpt lat="43.77905" lon="7.08143">
        <ele>675</ele>
        <time>2023-08-02T08:28:42.000Z</time>
      </trkpt>
      <trkpt lat="43.77905" lon="7.08143">
        <ele>675</ele>
        <time>2023-08-02T08:28:43.000Z</time>
      </trkpt>
      <trkpt lat="43.77905" lon="7.08143">
        <ele>675</ele>
        <time>2023-08-02T08:28:44.000Z</time>
      </trkpt>
      <trkpt lat="43.77905" lon="7.08143">
        <ele>675</ele>
        <time>2023-08-02T08:28:45.000Z</time>
      </trkpt>
      <trkpt lat="43.77905" lon="7.08143">
        <ele>675</ele>
        <time>2023-08-02T08:28:46.000Z</time>
      </trkpt>
      <trkpt lat="43.77905" lon="7.08143">
        <ele>675</ele>
        <time>2023-08-02T08:28:47.000Z</time>
      </trkpt>
      <trkpt lat="43.77905" lon="7.08143">
        <ele>675</ele>
        <time>2023-08-02T08:28:48.000Z</time>
      </trkpt>
      <trkpt lat="43.77905" lon="7.08143">
        <ele>675</ele>
        <time>2023-08-02T08:28:49.000Z</time>
      </trkpt>
      <trkpt lat="43.77905" lon="7.08143">
        <ele>675</ele>
        <time>2023-08-02T08:28:50.000Z</time>
      </trkpt>
      <trkpt lat="43.77905" lon="7.08143">
        <ele>675</ele>
        <time>2023-08-02T08:28:51.000Z</time>
      </trkpt>
      <trkpt lat="43.77905" lon="7.08143">
        <ele>675</ele>
        <time>2023-08-02T08:28:52.000Z</time>
      </trkpt>
      <trkpt lat="43.77905" lon="7.08143">
        <ele>675</ele>
        <time>2023-08-02T08:28:53.000Z</time>
      </trkpt>
      <trkpt lat="43.77905" lon="7.08143">
        <ele>675</ele>
        <time>2023-08-02T08:28:54.000Z</time>
      </trkpt>
      <trkpt lat="43.77905" lon="7.08143">
        <ele>675</ele>
        <time>2023-08-02T08:28:55.000Z</time>
      </trkpt>
      <trkpt lat="43.77905" lon="7.08143">
        <ele>675</ele>
        <time>2023-08-02T08:28:56.000Z</time>
      </trkpt>
      <trkpt lat="43.77905" lon="7.08143">
        <ele>675</ele>
        <time>2023-08-02T08:28:57.000Z</time>
      </trkpt>
      <trkpt lat="43.77905" lon="7.08143">
        <ele>675</ele>
        <time>2023-08-02T08:28:58.000Z</time>
      </trkpt>
      <trkpt lat="43.77905" lon="7.08143">
        <ele>675</ele>
        <time>2023-08-02T08:28:59.000Z</time>
      </trkpt>
      <trkpt lat="43.77905" lon="7.08143">
        <ele>675</ele>
        <time>2023-08-02T08:29:00.000Z</time>
      </trkpt>
      <trkpt lat="43.77905" lon="7.08143">
        <ele>675</ele>
        <time>2023-08-02T08:29:01.000Z</time>
      </trkpt>
      <trkpt lat="43.77905" lon="7.08143">
        <ele>675</ele>
        <time>2023-08-02T08:29:02.000Z</time>
      </trkpt>
      <trkpt lat="43.77905" lon="7.08143">
        <ele>675</ele>
        <time>2023-08-02T08:29:03.000Z</time>
      </trkpt>
      <trkpt lat="43.77905" lon="7.08143">
        <ele>675</ele>
        <time>2023-08-02T08:29:04.000Z</time>
      </trkpt>
      <trkpt lat="43.77905" lon="7.08143">
        <ele>675</ele>
        <time>2023-08-02T08:29:05.000Z</time>
      </trkpt>
      <trkpt lat="43.77905" lon="7.08143">
        <ele>675</ele>
        <time>2023-08-02T08:29:06.000Z</time>
      </trkpt>
      <trkpt lat="43.77905" lon="7.08143">
        <ele>675</ele>
        <time>2023-08-02T08:29:07.000Z</time>
      </trkpt>
      <trkpt lat="43.77905" lon="7.08143">
        <ele>675</ele>
        <time>2023-08-02T08:29:08.000Z</time>
      </trkpt>
      <trkpt lat="43.77905" lon="7.08143">
        <ele>675</ele>
        <time>2023-08-02T08:29:09.000Z</time>
      </trkpt>
      <trkpt lat="43.77905" lon="7.08143">
        <ele>675</ele>
        <time>2023-08-02T08:29:10.000Z</time>
      </trkpt>
      <trkpt lat="43.77904" lon="7.08143">
        <ele>675</ele>
        <time>2023-08-02T08:29:11.000Z</time>
      </trkpt>
      <trkpt lat="43.77904" lon="7.08143">
        <ele>675</ele>
        <time>2023-08-02T08:29:12.000Z</time>
      </trkpt>
      <trkpt lat="43.77904" lon="7.08143">
        <ele>675</ele>
        <time>2023-08-02T08:29:13.000Z</time>
      </trkpt>
      <trkpt lat="43.77904" lon="7.08143">
        <ele>675</ele>
        <time>2023-08-02T08:29:14.000Z</time>
      </trkpt>
      <trkpt lat="43.77904" lon="7.08143">
        <ele>675</ele>
        <time>2023-08-02T08:29:15.000Z</time>
      </trkpt>
      <trkpt lat="43.77904" lon="7.08143">
        <ele>675</ele>
        <time>2023-08-02T08:29:16.000Z</time>
      </trkpt>
      <trkpt lat="43.77904" lon="7.08143">
        <ele>675</ele>
        <time>2023-08-02T08:29:17.000Z</time>
      </trkpt>
      <trkpt lat="43.77904" lon="7.08143">
        <ele>675</ele>
        <time>2023-08-02T08:29:18.000Z</time>
      </trkpt>
      <trkpt lat="43.77904" lon="7.08143">
        <ele>675</ele>
        <time>2023-08-02T08:29:19.000Z</time>
      </trkpt>
      <trkpt lat="43.77905" lon="7.08143">
        <ele>675</ele>
        <time>2023-08-02T08:29:20.000Z</time>
      </trkpt>
      <trkpt lat="43.77905" lon="7.08143">
        <ele>675</ele>
        <time>2023-08-02T08:29:21.000Z</time>
      </trkpt>
      <trkpt lat="43.77905" lon="7.08143">
        <ele>675</ele>
        <time>2023-08-02T08:29:22.000Z</time>
      </trkpt>
      <trkpt lat="43.77905" lon="7.08143">
        <ele>675</ele>
        <time>2023-08-02T08:29:23.000Z</time>
      </trkpt>
      <trkpt lat="43.77905" lon="7.08143">
        <ele>675</ele>
        <time>2023-08-02T08:29:24.000Z</time>
      </trkpt>
      <trkpt lat="43.77905" lon="7.08143">
        <ele>675</ele>
        <time>2023-08-02T08:29:25.000Z</time>
      </trkpt>
      <trkpt lat="43.77905" lon="7.08143">
        <ele>675</ele>
        <time>2023-08-02T08:29:26.000Z</time>
      </trkpt>
      <trkpt lat="43.77905" lon="7.08143">
        <ele>675</ele>
        <time>2023-08-02T08:29:27.000Z</time>
      </trkpt>
      <trkpt lat="43.77905" lon="7.08143">
        <ele>675</ele>
        <time>2023-08-02T08:29:28.000Z</time>
      </trkpt>
      <trkpt lat="43.77905" lon="7.08143">
        <ele>675</ele>
        <time>2023-08-02T08:29:29.000Z</time>
      </trkpt>
      <trkpt lat="43.77905" lon="7.08143">
        <ele>675</ele>
        <time>2023-08-02T08:29:30.000Z</time>
      </trkpt>
      <trkpt lat="43.77905" lon="7.08143">
        <ele>675</ele>
        <time>2023-08-02T08:29:31.000Z</time>
      </trkpt>
      <trkpt lat="43.77905" lon="7.08143">
        <ele>675</ele>
        <time>2023-08-02T08:29:32.000Z</time>
      </trkpt>
      <trkpt lat="43.77905" lon="7.08143">
        <ele>675</ele>
        <time>2023-08-02T08:29:33.000Z</time>
      </trkpt>
      <trkpt lat="43.77905" lon="7.08143">
        <ele>675</ele>
        <time>2023-08-02T08:29:34.000Z</time>
      </trkpt>
      <trkpt lat="43.77905" lon="7.08143">
        <ele>675</ele>
        <time>2023-08-02T08:29:35.000Z</time>
      </trkpt>
      <trkpt lat="43.77905" lon="7.08143">
        <ele>675</ele>
        <time>2023-08-02T08:29:36.000Z</time>
      </trkpt>
      <trkpt lat="43.77905" lon="7.08143">
        <ele>675</ele>
        <time>2023-08-02T08:29:37.000Z</time>
      </trkpt>
      <trkpt lat="43.77905" lon="7.08143">
        <ele>675</ele>
        <time>2023-08-02T08:29:38.000Z</time>
      </trkpt>
      <trkpt lat="43.77905" lon="7.08143">
        <ele>675</ele>
        <time>2023-08-02T08:29:39.000Z</time>
      </trkpt>
      <trkpt lat="43.77905" lon="7.08143">
        <ele>675</ele>
        <time>2023-08-02T08:29:40.000Z</time>
      </trkpt>
      <trkpt lat="43.77905" lon="7.08143">
        <ele>675</ele>
        <time>2023-08-02T08:29:41.000Z</time>
      </trkpt>
      <trkpt lat="43.77905" lon="7.08143">
        <ele>675</ele>
        <time>2023-08-02T08:29:42.000Z</time>
      </trkpt>
      <trkpt lat="43.77905" lon="7.08143">
        <ele>675</ele>
        <time>2023-08-02T08:29:43.000Z</time>
      </trkpt>
      <trkpt lat="43.77905" lon="7.08143">
        <ele>675</ele>
        <time>2023-08-02T08:29:44.000Z</time>
      </trkpt>
      <trkpt lat="43.77905" lon="7.08143">
        <ele>675</ele>
        <time>2023-08-02T08:29:45.000Z</time>
      </trkpt>
      <trkpt lat="43.77905" lon="7.08143">
        <ele>675</ele>
        <time>2023-08-02T08:29:46.000Z</time>
      </trkpt>
      <trkpt lat="43.77905" lon="7.08143">
        <ele>675</ele>
        <time>2023-08-02T08:29:47.000Z</time>
      </trkpt>
      <trkpt lat="43.77905" lon="7.08143">
        <ele>675</ele>
        <time>2023-08-02T08:29:48.000Z</time>
      </trkpt>
      <trkpt lat="43.77905" lon="7.08143">
        <ele>675</ele>
        <time>2023-08-02T08:29:49.000Z</time>
      </trkpt>
      <trkpt lat="43.77905" lon="7.08143">
        <ele>675</ele>
        <time>2023-08-02T08:29:50.000Z</time>
      </trkpt>
      <trkpt lat="43.77905" lon="7.08143">
        <ele>675</ele>
        <time>2023-08-02T08:29:51.000Z</time>
      </trkpt>
      <trkpt lat="43.77905" lon="7.08143">
        <ele>675</ele>
        <time>2023-08-02T08:29:52.000Z</time>
      </trkpt>
      <trkpt lat="43.77905" lon="7.08143">
        <ele>675</ele>
        <time>2023-08-02T08:29:53.000Z</time>
      </trkpt>
      <trkpt lat="43.77905" lon="7.08143">
        <ele>675</ele>
        <time>2023-08-02T08:29:54.000Z</time>
      </trkpt>
      <trkpt lat="43.77904" lon="7.08143">
        <ele>675</ele>
        <time>2023-08-02T08:29:55.000Z</time>
      </trkpt>
      <trkpt lat="43.77904" lon="7.08143">
        <ele>675</ele>
        <time>2023-08-02T08:29:56.000Z</time>
      </trkpt>
      <trkpt lat="43.77904" lon="7.08143">
        <ele>675</ele>
        <time>2023-08-02T08:29:57.000Z</time>
      </trkpt>
      <trkpt lat="43.77904" lon="7.08143">
        <ele>675</ele>
        <time>2023-08-02T08:29:58.000Z</time>
      </trkpt>
      <trkpt lat="43.77904" lon="7.08143">
        <ele>675</ele>
        <time>2023-08-02T08:29:59.000Z</time>
      </trkpt>
      <trkpt lat="43.77904" lon="7.08143">
        <ele>675</ele>
        <time>2023-08-02T08:30:00.000Z</time>
      </trkpt>
      <trkpt lat="43.77904" lon="7.08143">
        <ele>675</ele>
        <time>2023-08-02T08:30:01.000Z</time>
      </trkpt>
      <trkpt lat="43.77904" lon="7.08143">
        <ele>675</ele>
        <time>2023-08-02T08:30:02.000Z</time>
      </trkpt>
      <trkpt lat="43.77904" lon="7.08143">
        <ele>675</ele>
        <time>2023-08-02T08:30:03.000Z</time>
      </trkpt>
      <trkpt lat="43.77904" lon="7.08143">
        <ele>675</ele>
        <time>2023-08-02T08:30:04.000Z</time>
      </trkpt>
      <trkpt lat="43.77905" lon="7.08143">
        <ele>675</ele>
        <time>2023-08-02T08:30:05.000Z</time>
      </trkpt>
      <trkpt lat="43.77905" lon="7.08143">
        <ele>675</ele>
        <time>2023-08-02T08:30:06.000Z</time>
      </trkpt>
      <trkpt lat="43.77905" lon="7.08143">
        <ele>675</ele>
        <time>2023-08-02T08:30:07.000Z</time>
      </trkpt>
      <trkpt lat="43.77905" lon="7.08143">
        <ele>675</ele>
        <time>2023-08-02T08:30:08.000Z</time>
      </trkpt>
      <trkpt lat="43.77905" lon="7.08143">
        <ele>675</ele>
        <time>2023-08-02T08:30:09.000Z</time>
      </trkpt>
      <trkpt lat="43.77905" lon="7.08143">
        <ele>675</ele>
        <time>2023-08-02T08:30:10.000Z</time>
      </trkpt>
      <trkpt lat="43.77905" lon="7.08143">
        <ele>675</ele>
        <time>2023-08-02T08:30:11.000Z</time>
      </trkpt>
      <trkpt lat="43.77905" lon="7.08143">
        <ele>675</ele>
        <time>2023-08-02T08:30:12.000Z</time>
      </trkpt>
      <trkpt lat="43.77905" lon="7.08143">
        <ele>675</ele>
        <time>2023-08-02T08:30:13.000Z</time>
      </trkpt>
      <trkpt lat="43.77905" lon="7.08143">
        <ele>675</ele>
        <time>2023-08-02T08:30:14.000Z</time>
      </trkpt>
      <trkpt lat="43.77905" lon="7.08143">
        <ele>675</ele>
        <time>2023-08-02T08:30:15.000Z</time>
      </trkpt>
      <trkpt lat="43.77905" lon="7.08143">
        <ele>675</ele>
        <time>2023-08-02T08:30:16.000Z</time>
      </trkpt>
      <trkpt lat="43.77905" lon="7.08143">
        <ele>675</ele>
        <time>2023-08-02T08:30:17.000Z</time>
      </trkpt>
      <trkpt lat="43.77905" lon="7.08143">
        <ele>675</ele>
        <time>2023-08-02T08:30:18.000Z</time>
      </trkpt>
      <trkpt lat="43.77905" lon="7.08143">
        <ele>675</ele>
        <time>2023-08-02T08:30:19.000Z</time>
      </trkpt>
      <trkpt lat="43.77905" lon="7.08143">
        <ele>675</ele>
        <time>2023-08-02T08:30:20.000Z</time>
      </trkpt>
      <trkpt lat="43.77905" lon="7.08143">
        <ele>675</ele>
        <time>2023-08-02T08:30:21.000Z</time>
      </trkpt>
      <trkpt lat="43.77905" lon="7.08143">
        <ele>675</ele>
        <time>2023-08-02T08:30:22.000Z</time>
      </trkpt>
      <trkpt lat="43.77905" lon="7.08143">
        <ele>675</ele>
        <time>2023-08-02T08:30:23.000Z</time>
      </trkpt>
      <trkpt lat="43.77905" lon="7.08143">
        <ele>675</ele>
        <time>2023-08-02T08:30:24.000Z</time>
      </trkpt>
      <trkpt lat="43.77905" lon="7.08143">
        <ele>675</ele>
        <time>2023-08-02T08:30:25.000Z</time>
      </trkpt>
      <trkpt lat="43.77905" lon="7.08143">
        <ele>675</ele>
        <time>2023-08-02T08:30:26.000Z</time>
      </trkpt>
      <trkpt lat="43.77905" lon="7.08143">
        <ele>675</ele>
        <time>2023-08-02T08:30:27.000Z</time>
      </trkpt>
      <trkpt lat="43.77905" lon="7.08143">
        <ele>675</ele>
        <time>2023-08-02T08:30:28.000Z</time>
      </trkpt>
      <trkpt lat="43.77905" lon="7.08143">
        <ele>675</ele>
        <time>2023-08-02T08:30:29.000Z</time>
      </trkpt>
      <trkpt lat="43.77905" lon="7.08143">
        <ele>675</ele>
        <time>2023-08-02T08:30:30.000Z</time>
      </trkpt>
      <trkpt lat="43.77905" lon="7.08143">
        <ele>675</ele>
        <time>2023-08-02T08:30:31.000Z</time>
      </trkpt>
      <trkpt lat="43.77905" lon="7.08143">
        <ele>675</ele>
        <time>2023-08-02T08:30:32.000Z</time>
      </trkpt>
      <trkpt lat="43.77905" lon="7.08143">
        <ele>675</ele>
        <time>2023-08-02T08:30:33.000Z</time>
      </trkpt>
      <trkpt lat="43.77905" lon="7.08143">
        <ele>675</ele>
        <time>2023-08-02T08:30:34.000Z</time>
      </trkpt>
      <trkpt lat="43.77905" lon="7.08143">
        <ele>675</ele>
        <time>2023-08-02T08:30:35.000Z</time>
      </trkpt>
      <trkpt lat="43.77905" lon="7.08143">
        <ele>675</ele>
        <time>2023-08-02T08:30:36.000Z</time>
      </trkpt>
      <trkpt lat="43.77905" lon="7.08143">
        <ele>675</ele>
        <time>2023-08-02T08:30:37.000Z</time>
      </trkpt>
      <trkpt lat="43.77905" lon="7.08143">
        <ele>675</ele>
        <time>2023-08-02T08:30:38.000Z</time>
      </trkpt>
      <trkpt lat="43.77905" lon="7.08143">
        <ele>675</ele>
        <time>2023-08-02T08:30:39.000Z</time>
      </trkpt>
      <trkpt lat="43.77904" lon="7.08143">
        <ele>675</ele>
        <time>2023-08-02T08:30:40.000Z</time>
      </trkpt>
      <trkpt lat="43.77904" lon="7.08143">
        <ele>675</ele>
        <time>2023-08-02T08:30:41.000Z</time>
      </trkpt>
      <trkpt lat="43.77904" lon="7.08143">
        <ele>675</ele>
        <time>2023-08-02T08:30:42.000Z</time>
      </trkpt>
      <trkpt lat="43.77904" lon="7.08143">
        <ele>675</ele>
        <time>2023-08-02T08:30:43.000Z</time>
      </trkpt>
      <trkpt lat="43.77904" lon="7.08143">
        <ele>675</ele>
        <time>2023-08-02T08:30:44.000Z</time>
      </trkpt>
      <trkpt lat="43.77904" lon="7.08143">
        <ele>675</ele>
        <time>2023-08-02T08:30:45.000Z</time>
      </trkpt>
      <trkpt lat="43.77904" lon="7.08143">
        <ele>675</ele>
        <time>2023-08-02T08:30:46.000Z</time>
      </trkpt>
      <trkpt lat="43.77904" lon="7.08143">
        <ele>675</ele>
        <time>2023-08-02T08:30:47.000Z</time>
      </trkpt>
      <trkpt lat="43.77904" lon="7.08143">
        <ele>675</ele>
        <time>2023-08-02T08:30:48.000Z</time>
      </trkpt>
      <trkpt lat="43.77904" lon="7.08143">
        <ele>675</ele>
        <time>2023-08-02T08:30:49.000Z</time>
      </trkpt>
      <trkpt lat="43.77904" lon="7.08143">
        <ele>675</ele>
        <time>2023-08-02T08:30:50.000Z</time>
      </trkpt>
      <trkpt lat="43.77904" lon="7.08143">
        <ele>675</ele>
        <time>2023-08-02T08:30:51.000Z</time>
      </trkpt>
      <trkpt lat="43.77905" lon="7.08143">
        <ele>675</ele>
        <time>2023-08-02T08:30:52.000Z</time>
      </trkpt>
      <trkpt lat="43.77905" lon="7.08143">
        <ele>675</ele>
        <time>2023-08-02T08:30:53.000Z</time>
      </trkpt>
      <trkpt lat="43.77905" lon="7.08143">
        <ele>675</ele>
        <time>2023-08-02T08:30:54.000Z</time>
      </trkpt>
      <trkpt lat="43.77905" lon="7.08143">
        <ele>675</ele>
        <time>2023-08-02T08:30:55.000Z</time>
      </trkpt>
      <trkpt lat="43.77905" lon="7.08143">
        <ele>675</ele>
        <time>2023-08-02T08:30:56.000Z</time>
      </trkpt>
      <trkpt lat="43.77905" lon="7.08143">
        <ele>675</ele>
        <time>2023-08-02T08:30:57.000Z</time>
      </trkpt>
      <trkpt lat="43.77905" lon="7.08143">
        <ele>675</ele>
        <time>2023-08-02T08:30:58.000Z</time>
      </trkpt>
      <trkpt lat="43.77905" lon="7.08143">
        <ele>675</ele>
        <time>2023-08-02T08:30:59.000Z</time>
      </trkpt>
      <trkpt lat="43.77905" lon="7.08143">
        <ele>675</ele>
        <time>2023-08-02T08:31:00.000Z</time>
      </trkpt>
      <trkpt lat="43.77907" lon="7.08145">
        <ele>675</ele>
        <time>2023-08-02T08:31:01.000Z</time>
      </trkpt>
      <trkpt lat="43.77908" lon="7.08145">
        <ele>675</ele>
        <time>2023-08-02T08:31:02.000Z</time>
      </trkpt>
      <trkpt lat="43.77908" lon="7.08145">
        <ele>675</ele>
        <time>2023-08-02T08:31:03.000Z</time>
      </trkpt>
      <trkpt lat="43.77908" lon="7.08145">
        <ele>675</ele>
        <time>2023-08-02T08:31:04.000Z</time>
      </trkpt>
      <trkpt lat="43.77908" lon="7.08145">
        <ele>675</ele>
        <time>2023-08-02T08:31:05.000Z</time>
      </trkpt>
      <trkpt lat="43.77908" lon="7.08145">
        <ele>675</ele>
        <time>2023-08-02T08:31:06.000Z</time>
      </trkpt>
      <trkpt lat="43.77909" lon="7.08146">
        <ele>675</ele>
        <time>2023-08-02T08:31:07.000Z</time>
      </trkpt>
      <trkpt lat="43.77909" lon="7.08146">
        <ele>675</ele>
        <time>2023-08-02T08:31:08.000Z</time>
      </trkpt>
      <trkpt lat="43.77909" lon="7.08146">
        <ele>675</ele>
        <time>2023-08-02T08:31:09.000Z</time>
      </trkpt>
      <trkpt lat="43.77909" lon="7.08146">
        <ele>675</ele>
        <time>2023-08-02T08:31:10.000Z</time>
      </trkpt>
      <trkpt lat="43.7791" lon="7.08147">
        <ele>675</ele>
        <time>2023-08-02T08:31:11.000Z</time>
      </trkpt>
      <trkpt lat="43.77909" lon="7.08148">
        <ele>675</ele>
        <time>2023-08-02T08:31:12.000Z</time>
      </trkpt>
      <trkpt lat="43.7791" lon="7.0815">
        <ele>675</ele>
        <time>2023-08-02T08:31:13.000Z</time>
      </trkpt>
      <trkpt lat="43.7791" lon="7.08152">
        <ele>675</ele>
        <time>2023-08-02T08:31:14.000Z</time>
      </trkpt>
      <trkpt lat="43.77909" lon="7.08154">
        <ele>675</ele>
        <time>2023-08-02T08:31:15.000Z</time>
      </trkpt>
      <trkpt lat="43.77909" lon="7.08156">
        <ele>675.20001220703</ele>
        <time>2023-08-02T08:31:16.000Z</time>
      </trkpt>
      <trkpt lat="43.77911" lon="7.08158">
        <ele>675.20001220703</ele>
        <time>2023-08-02T08:31:17.000Z</time>
      </trkpt>
      <trkpt lat="43.77911" lon="7.0816">
        <ele>675.20001220703</ele>
        <time>2023-08-02T08:31:18.000Z</time>
      </trkpt>
      <trkpt lat="43.77912" lon="7.08162">
        <ele>675</ele>
        <time>2023-08-02T08:31:19.000Z</time>
      </trkpt>
      <trkpt lat="43.77914" lon="7.08164">
        <ele>674.79998779297</ele>
        <time>2023-08-02T08:31:20.000Z</time>
      </trkpt>
      <trkpt lat="43.77914" lon="7.08167">
        <ele>674.59997558594</ele>
        <time>2023-08-02T08:31:21.000Z</time>
      </trkpt>
      <trkpt lat="43.77914" lon="7.0817">
        <ele>674.20001220703</ele>
        <time>2023-08-02T08:31:22.000Z</time>
      </trkpt>
      <trkpt lat="43.77915" lon="7.08173">
        <ele>673.79998779297</ele>
        <time>2023-08-02T08:31:23.000Z</time>
      </trkpt>
      <trkpt lat="43.77916" lon="7.08175">
        <ele>673.20001220703</ele>
        <time>2023-08-02T08:31:24.000Z</time>
      </trkpt>
      <trkpt lat="43.77917" lon="7.08177">
        <ele>672.40002441406</ele>
        <time>2023-08-02T08:31:25.000Z</time>
      </trkpt>
      <trkpt lat="43.77918" lon="7.08179">
        <ele>672</ele>
        <time>2023-08-02T08:31:26.000Z</time>
      </trkpt>
      <trkpt lat="43.77917" lon="7.08182">
        <ele>671.79998779297</ele>
        <time>2023-08-02T08:31:27.000Z</time>
      </trkpt>
      <trkpt lat="43.77917" lon="7.08185">
        <ele>671.59997558594</ele>
        <time>2023-08-02T08:31:28.000Z</time>
      </trkpt>
      <trkpt lat="43.77917" lon="7.08187">
        <ele>671.20001220703</ele>
        <time>2023-08-02T08:31:29.000Z</time>
      </trkpt>
      <trkpt lat="43.77917" lon="7.0819">
        <ele>671.20001220703</ele>
        <time>2023-08-02T08:31:30.000Z</time>
      </trkpt>
      <trkpt lat="43.77917" lon="7.08192">
        <ele>671.20001220703</ele>
        <time>2023-08-02T08:31:31.000Z</time>
      </trkpt>
      <trkpt lat="43.77918" lon="7.08195">
        <ele>671.20001220703</ele>
        <time>2023-08-02T08:31:32.000Z</time>
      </trkpt>
      <trkpt lat="43.77918" lon="7.08197">
        <ele>671</ele>
        <time>2023-08-02T08:31:33.000Z</time>
      </trkpt>
      <trkpt lat="43.77919" lon="7.082">
        <ele>671</ele>
        <time>2023-08-02T08:31:34.000Z</time>
      </trkpt>
      <trkpt lat="43.77919" lon="7.08202">
        <ele>671</ele>
        <time>2023-08-02T08:31:35.000Z</time>
      </trkpt>
      <trkpt lat="43.77919" lon="7.08206">
        <ele>670.79998779297</ele>
        <time>2023-08-02T08:31:36.000Z</time>
      </trkpt>
      <trkpt lat="43.77919" lon="7.08208">
        <ele>670.79998779297</ele>
        <time>2023-08-02T08:31:37.000Z</time>
      </trkpt>
      <trkpt lat="43.77919" lon="7.0821">
        <ele>670.79998779297</ele>
        <time>2023-08-02T08:31:38.000Z</time>
      </trkpt>
      <trkpt lat="43.7792" lon="7.08211">
        <ele>670.79998779297</ele>
        <time>2023-08-02T08:31:39.000Z</time>
      </trkpt>
      <trkpt lat="43.77921" lon="7.08212">
        <ele>670.79998779297</ele>
        <time>2023-08-02T08:31:40.000Z</time>
      </trkpt>
      <trkpt lat="43.77922" lon="7.08213">
        <ele>670.79998779297</ele>
        <time>2023-08-02T08:31:41.000Z</time>
      </trkpt>
      <trkpt lat="43.77922" lon="7.08214">
        <ele>670.79998779297</ele>
        <time>2023-08-02T08:31:42.000Z</time>
      </trkpt>
      <trkpt lat="43.77922" lon="7.08214">
        <ele>670.79998779297</ele>
        <time>2023-08-02T08:31:43.000Z</time>
      </trkpt>
      <trkpt lat="43.77923" lon="7.08215">
        <ele>670.79998779297</ele>
        <time>2023-08-02T08:31:44.000Z</time>
      </trkpt>
      <trkpt lat="43.77923" lon="7.08216">
        <ele>670.59997558594</ele>
        <time>2023-08-02T08:31:45.000Z</time>
      </trkpt>
      <trkpt lat="43.77923" lon="7.08217">
        <ele>670.59997558594</ele>
        <time>2023-08-02T08:31:46.000Z</time>
      </trkpt>
      <trkpt lat="43.77924" lon="7.08217">
        <ele>670.59997558594</ele>
        <time>2023-08-02T08:31:47.000Z</time>
      </trkpt>
      <trkpt lat="43.77925" lon="7.08217">
        <ele>670.59997558594</ele>
        <time>2023-08-02T08:31:48.000Z</time>
      </trkpt>
      <trkpt lat="43.77926" lon="7.08218">
        <ele>670.59997558594</ele>
        <time>2023-08-02T08:31:49.000Z</time>
      </trkpt>
      <trkpt lat="43.77927" lon="7.08219">
        <ele>670.20001220703</ele>
        <time>2023-08-02T08:31:50.000Z</time>
      </trkpt>
      <trkpt lat="43.77927" lon="7.0822">
        <ele>670</ele>
        <time>2023-08-02T08:31:51.000Z</time>
      </trkpt>
      <trkpt lat="43.77927" lon="7.0822">
        <ele>669.79998779297</ele>
        <time>2023-08-02T08:31:52.000Z</time>
      </trkpt>
      <trkpt lat="43.77927" lon="7.0822">
        <ele>669.79998779297</ele>
        <time>2023-08-02T08:31:53.000Z</time>
      </trkpt>
      <trkpt lat="43.77927" lon="7.0822">
        <ele>669.59997558594</ele>
        <time>2023-08-02T08:31:54.000Z</time>
      </trkpt>
      <trkpt lat="43.77927" lon="7.0822">
        <ele>669.59997558594</ele>
        <time>2023-08-02T08:31:55.000Z</time>
      </trkpt>
      <trkpt lat="43.77927" lon="7.0822">
        <ele>669.59997558594</ele>
        <time>2023-08-02T08:31:56.000Z</time>
      </trkpt>
      <trkpt lat="43.77927" lon="7.0822">
        <ele>669.59997558594</ele>
        <time>2023-08-02T08:31:57.000Z</time>
      </trkpt>
      <trkpt lat="43.77927" lon="7.0822">
        <ele>669.59997558594</ele>
        <time>2023-08-02T08:31:58.000Z</time>
      </trkpt>
      <trkpt lat="43.77927" lon="7.0822">
        <ele>669.59997558594</ele>
        <time>2023-08-02T08:31:59.000Z</time>
      </trkpt>
      <trkpt lat="43.77927" lon="7.0822">
        <ele>669.59997558594</ele>
        <time>2023-08-02T08:32:00.000Z</time>
      </trkpt>
      <trkpt lat="43.77926" lon="7.0822">
        <ele>669.59997558594</ele>
        <time>2023-08-02T08:32:01.000Z</time>
      </trkpt>
      <trkpt lat="43.77927" lon="7.08218">
        <ele>669.59997558594</ele>
        <time>2023-08-02T08:32:02.000Z</time>
      </trkpt>
      <trkpt lat="43.77927" lon="7.08217">
        <ele>669.59997558594</ele>
        <time>2023-08-02T08:32:03.000Z</time>
      </trkpt>
      <trkpt lat="43.77927" lon="7.08217">
        <ele>669.59997558594</ele>
        <time>2023-08-02T08:32:04.000Z</time>
      </trkpt>
      <trkpt lat="43.77927" lon="7.08216">
        <ele>669.59997558594</ele>
        <time>2023-08-02T08:32:05.000Z</time>
      </trkpt>
      <trkpt lat="43.77927" lon="7.08215">
        <ele>669.59997558594</ele>
        <time>2023-08-02T08:32:06.000Z</time>
      </trkpt>
      <trkpt lat="43.77927" lon="7.08215">
        <ele>669.40002441406</ele>
        <time>2023-08-02T08:32:07.000Z</time>
      </trkpt>
      <trkpt lat="43.77927" lon="7.08215">
        <ele>669.40002441406</ele>
        <time>2023-08-02T08:32:08.000Z</time>
      </trkpt>
      <trkpt lat="43.77927" lon="7.08214">
        <ele>669.59997558594</ele>
        <time>2023-08-02T08:32:09.000Z</time>
      </trkpt>
      <trkpt lat="43.77926" lon="7.08214">
        <ele>669.59997558594</ele>
        <time>2023-08-02T08:32:10.000Z</time>
      </trkpt>
      <trkpt lat="43.77926" lon="7.08214">
        <ele>669.59997558594</ele>
        <time>2023-08-02T08:32:11.000Z</time>
      </trkpt>
      <trkpt lat="43.77925" lon="7.08215">
        <ele>669.59997558594</ele>
        <time>2023-08-02T08:32:12.000Z</time>
      </trkpt>
      <trkpt lat="43.77925" lon="7.08217">
        <ele>669.59997558594</ele>
        <time>2023-08-02T08:32:13.000Z</time>
      </trkpt>
      <trkpt lat="43.77925" lon="7.08217">
        <ele>669.59997558594</ele>
        <time>2023-08-02T08:32:14.000Z</time>
      </trkpt>
      <trkpt lat="43.77925" lon="7.08217">
        <ele>669.59997558594</ele>
        <time>2023-08-02T08:32:15.000Z</time>
      </trkpt>
      <trkpt lat="43.77924" lon="7.08218">
        <ele>669.59997558594</ele>
        <time>2023-08-02T08:32:16.000Z</time>
      </trkpt>
      <trkpt lat="43.77923" lon="7.08218">
        <ele>669.59997558594</ele>
        <time>2023-08-02T08:32:17.000Z</time>
      </trkpt>
      <trkpt lat="43.77923" lon="7.08218">
        <ele>669.59997558594</ele>
        <time>2023-08-02T08:32:18.000Z</time>
      </trkpt>
      <trkpt lat="43.77923" lon="7.08218">
        <ele>669.79998779297</ele>
        <time>2023-08-02T08:32:19.000Z</time>
      </trkpt>
      <trkpt lat="43.77922" lon="7.08217">
        <ele>669.79998779297</ele>
        <time>2023-08-02T08:32:20.000Z</time>
      </trkpt>
      <trkpt lat="43.77922" lon="7.08217">
        <ele>670</ele>
        <time>2023-08-02T08:32:21.000Z</time>
      </trkpt>
      <trkpt lat="43.77921" lon="7.08217">
        <ele>670</ele>
        <time>2023-08-02T08:32:22.000Z</time>
      </trkpt>
      <trkpt lat="43.77921" lon="7.08217">
        <ele>670.40002441406</ele>
        <time>2023-08-02T08:32:23.000Z</time>
      </trkpt>
      <trkpt lat="43.77921" lon="7.08218">
        <ele>670.40002441406</ele>
        <time>2023-08-02T08:32:24.000Z</time>
      </trkpt>
      <trkpt lat="43.77921" lon="7.08217">
        <ele>670.40002441406</ele>
        <time>2023-08-02T08:32:25.000Z</time>
      </trkpt>
      <trkpt lat="43.77921" lon="7.08217">
        <ele>670.59997558594</ele>
        <time>2023-08-02T08:32:26.000Z</time>
      </trkpt>
      <trkpt lat="43.77921" lon="7.08217">
        <ele>670.79998779297</ele>
        <time>2023-08-02T08:32:27.000Z</time>
      </trkpt>
      <trkpt lat="43.7792" lon="7.08217">
        <ele>671</ele>
        <time>2023-08-02T08:32:28.000Z</time>
      </trkpt>
      <trkpt lat="43.7792" lon="7.08217">
        <ele>671</ele>
        <time>2023-08-02T08:32:29.000Z</time>
      </trkpt>
      <trkpt lat="43.77919" lon="7.08216">
        <ele>671</ele>
        <time>2023-08-02T08:32:30.000Z</time>
      </trkpt>
      <trkpt lat="43.77919" lon="7.08216">
        <ele>671.20001220703</ele>
        <time>2023-08-02T08:32:31.000Z</time>
      </trkpt>
      <trkpt lat="43.77919" lon="7.08215">
        <ele>671.20001220703</ele>
        <time>2023-08-02T08:32:32.000Z</time>
      </trkpt>
      <trkpt lat="43.77919" lon="7.08214">
        <ele>671.20001220703</ele>
        <time>2023-08-02T08:32:33.000Z</time>
      </trkpt>
      <trkpt lat="43.77918" lon="7.08212">
        <ele>671.20001220703</ele>
        <time>2023-08-02T08:32:34.000Z</time>
      </trkpt>
      <trkpt lat="43.77917" lon="7.0821">
        <ele>671.40002441406</ele>
        <time>2023-08-02T08:32:35.000Z</time>
      </trkpt>
      <trkpt lat="43.77917" lon="7.08207">
        <ele>671.40002441406</ele>
        <time>2023-08-02T08:32:36.000Z</time>
      </trkpt>
      <trkpt lat="43.77917" lon="7.08203">
        <ele>671.40002441406</ele>
        <time>2023-08-02T08:32:37.000Z</time>
      </trkpt>
      <trkpt lat="43.77916" lon="7.08201">
        <ele>671.40002441406</ele>
        <time>2023-08-02T08:32:38.000Z</time>
      </trkpt>
      <trkpt lat="43.77915" lon="7.08198">
        <ele>671.40002441406</ele>
        <time>2023-08-02T08:32:39.000Z</time>
      </trkpt>
      <trkpt lat="43.77915" lon="7.08197">
        <ele>671.40002441406</ele>
        <time>2023-08-02T08:32:40.000Z</time>
      </trkpt>
      <trkpt lat="43.77915" lon="7.08195">
        <ele>671.40002441406</ele>
        <time>2023-08-02T08:32:41.000Z</time>
      </trkpt>
      <trkpt lat="43.77915" lon="7.08194">
        <ele>671.40002441406</ele>
        <time>2023-08-02T08:32:42.000Z</time>
      </trkpt>
      <trkpt lat="43.77916" lon="7.08191">
        <ele>671.40002441406</ele>
        <time>2023-08-02T08:32:43.000Z</time>
      </trkpt>
      <trkpt lat="43.77916" lon="7.08189">
        <ele>671.59997558594</ele>
        <time>2023-08-02T08:32:44.000Z</time>
      </trkpt>
      <trkpt lat="43.77916" lon="7.08188">
        <ele>671.59997558594</ele>
        <time>2023-08-02T08:32:45.000Z</time>
      </trkpt>
      <trkpt lat="43.77917" lon="7.08186">
        <ele>671.79998779297</ele>
        <time>2023-08-02T08:32:46.000Z</time>
      </trkpt>
      <trkpt lat="43.77917" lon="7.08185">
        <ele>671.79998779297</ele>
        <time>2023-08-02T08:32:47.000Z</time>
      </trkpt>
      <trkpt lat="43.77917" lon="7.08183">
        <ele>671.79998779297</ele>
        <time>2023-08-02T08:32:48.000Z</time>
      </trkpt>
      <trkpt lat="43.77918" lon="7.08182">
        <ele>671.79998779297</ele>
        <time>2023-08-02T08:32:49.000Z</time>
      </trkpt>
      <trkpt lat="43.77919" lon="7.08182">
        <ele>671.79998779297</ele>
        <time>2023-08-02T08:32:50.000Z</time>
      </trkpt>
      <trkpt lat="43.7792" lon="7.08181">
        <ele>671.79998779297</ele>
        <time>2023-08-02T08:32:51.000Z</time>
      </trkpt>
      <trkpt lat="43.77922" lon="7.08182">
        <ele>671.59997558594</ele>
        <time>2023-08-02T08:32:52.000Z</time>
      </trkpt>
      <trkpt lat="43.77923" lon="7.08181">
        <ele>671.59997558594</ele>
        <time>2023-08-02T08:32:53.000Z</time>
      </trkpt>
      <trkpt lat="43.77925" lon="7.08182">
        <ele>671.20001220703</ele>
        <time>2023-08-02T08:32:54.000Z</time>
      </trkpt>
      <trkpt lat="43.77924" lon="7.08184">
        <ele>671</ele>
        <time>2023-08-02T08:32:55.000Z</time>
      </trkpt>
      <trkpt lat="43.77926" lon="7.08184">
        <ele>671</ele>
        <time>2023-08-02T08:32:56.000Z</time>
      </trkpt>
      <trkpt lat="43.77927" lon="7.08185">
        <ele>671</ele>
        <time>2023-08-02T08:32:57.000Z</time>
      </trkpt>
      <trkpt lat="43.77928" lon="7.08186">
        <ele>671</ele>
        <time>2023-08-02T08:32:58.000Z</time>
      </trkpt>
      <trkpt lat="43.77929" lon="7.08187">
        <ele>671.20001220703</ele>
        <time>2023-08-02T08:32:59.000Z</time>
      </trkpt>
      <trkpt lat="43.7793" lon="7.08188">
        <ele>671.40002441406</ele>
        <time>2023-08-02T08:33:00.000Z</time>
      </trkpt>
      <trkpt lat="43.77932" lon="7.0819">
        <ele>671.59997558594</ele>
        <time>2023-08-02T08:33:01.000Z</time>
      </trkpt>
      <trkpt lat="43.77933" lon="7.08191">
        <ele>671.59997558594</ele>
        <time>2023-08-02T08:33:02.000Z</time>
      </trkpt>
      <trkpt lat="43.77935" lon="7.08192">
        <ele>671.79998779297</ele>
        <time>2023-08-02T08:33:03.000Z</time>
      </trkpt>
      <trkpt lat="43.77935" lon="7.08192">
        <ele>671.79998779297</ele>
        <time>2023-08-02T08:33:04.000Z</time>
      </trkpt>
      <trkpt lat="43.77935" lon="7.08192">
        <ele>672</ele>
        <time>2023-08-02T08:33:05.000Z</time>
      </trkpt>
      <trkpt lat="43.77935" lon="7.08192">
        <ele>672</ele>
        <time>2023-08-02T08:33:06.000Z</time>
      </trkpt>
      <trkpt lat="43.77935" lon="7.08192">
        <ele>672</ele>
        <time>2023-08-02T08:33:07.000Z</time>
      </trkpt>
      <trkpt lat="43.77935" lon="7.08192">
        <ele>672</ele>
        <time>2023-08-02T08:33:08.000Z</time>
      </trkpt>
      <trkpt lat="43.77935" lon="7.08192">
        <ele>672</ele>
        <time>2023-08-02T08:33:09.000Z</time>
      </trkpt>
      <trkpt lat="43.77935" lon="7.08192">
        <ele>672</ele>
        <time>2023-08-02T08:33:10.000Z</time>
      </trkpt>
      <trkpt lat="43.77935" lon="7.08192">
        <ele>672</ele>
        <time>2023-08-02T08:33:11.000Z</time>
      </trkpt>
      <trkpt lat="43.77934" lon="7.08192">
        <ele>672</ele>
        <time>2023-08-02T08:33:12.000Z</time>
      </trkpt>
      <trkpt lat="43.77934" lon="7.08192">
        <ele>672</ele>
        <time>2023-08-02T08:33:13.000Z</time>
      </trkpt>
      <trkpt lat="43.77934" lon="7.08192">
        <ele>672</ele>
        <time>2023-08-02T08:33:14.000Z</time>
      </trkpt>
      <trkpt lat="43.77934" lon="7.08192">
        <ele>672</ele>
        <time>2023-08-02T08:33:15.000Z</time>
      </trkpt>
      <trkpt lat="43.77934" lon="7.08192">
        <ele>672</ele>
        <time>2023-08-02T08:33:16.000Z</time>
      </trkpt>
      <trkpt lat="43.77934" lon="7.08192">
        <ele>672</ele>
        <time>2023-08-02T08:33:17.000Z</time>
      </trkpt>
      <trkpt lat="43.77934" lon="7.08192">
        <ele>672</ele>
        <time>2023-08-02T08:33:18.000Z</time>
      </trkpt>
      <trkpt lat="43.77934" lon="7.08192">
        <ele>672.20001220703</ele>
        <time>2023-08-02T08:33:19.000Z</time>
      </trkpt>
      <trkpt lat="43.77934" lon="7.08192">
        <ele>672.20001220703</ele>
        <time>2023-08-02T08:33:20.000Z</time>
      </trkpt>
      <trkpt lat="43.77934" lon="7.08192">
        <ele>672.20001220703</ele>
        <time>2023-08-02T08:33:21.000Z</time>
      </trkpt>
      <trkpt lat="43.77934" lon="7.08192">
        <ele>672.20001220703</ele>
        <time>2023-08-02T08:33:22.000Z</time>
      </trkpt>
      <trkpt lat="43.77934" lon="7.08192">
        <ele>672.20001220703</ele>
        <time>2023-08-02T08:33:23.000Z</time>
      </trkpt>
      <trkpt lat="43.77934" lon="7.08192">
        <ele>672.20001220703</ele>
        <time>2023-08-02T08:33:24.000Z</time>
      </trkpt>
      <trkpt lat="43.77934" lon="7.08192">
        <ele>672.20001220703</ele>
        <time>2023-08-02T08:33:25.000Z</time>
      </trkpt>
      <trkpt lat="43.77933" lon="7.08192">
        <ele>672.20001220703</ele>
        <time>2023-08-02T08:33:26.000Z</time>
      </trkpt>
      <trkpt lat="43.77933" lon="7.08192">
        <ele>672.20001220703</ele>
        <time>2023-08-02T08:33:27.000Z</time>
      </trkpt>
      <trkpt lat="43.77933" lon="7.08192">
        <ele>672.20001220703</ele>
        <time>2023-08-02T08:33:28.000Z</time>
      </trkpt>
      <trkpt lat="43.77933" lon="7.08192">
        <ele>672.20001220703</ele>
        <time>2023-08-02T08:33:29.000Z</time>
      </trkpt>
      <trkpt lat="43.77933" lon="7.08192">
        <ele>672.20001220703</ele>
        <time>2023-08-02T08:33:30.000Z</time>
      </trkpt>
      <trkpt lat="43.77933" lon="7.08192">
        <ele>672.20001220703</ele>
        <time>2023-08-02T08:33:31.000Z</time>
      </trkpt>
      <trkpt lat="43.77933" lon="7.08192">
        <ele>672.20001220703</ele>
        <time>2023-08-02T08:33:32.000Z</time>
      </trkpt>
      <trkpt lat="43.77933" lon="7.08192">
        <ele>672.20001220703</ele>
        <time>2023-08-02T08:33:33.000Z</time>
      </trkpt>
      <trkpt lat="43.77933" lon="7.08192">
        <ele>672.20001220703</ele>
        <time>2023-08-02T08:33:34.000Z</time>
      </trkpt>
      <trkpt lat="43.77933" lon="7.08192">
        <ele>672.40002441406</ele>
        <time>2023-08-02T08:33:35.000Z</time>
      </trkpt>
      <trkpt lat="43.77933" lon="7.08192">
        <ele>672.40002441406</ele>
        <time>2023-08-02T08:33:36.000Z</time>
      </trkpt>
      <trkpt lat="43.77933" lon="7.08192">
        <ele>672.40002441406</ele>
        <time>2023-08-02T08:33:37.000Z</time>
      </trkpt>
      <trkpt lat="43.77933" lon="7.08192">
        <ele>672.40002441406</ele>
        <time>2023-08-02T08:33:38.000Z</time>
      </trkpt>
      <trkpt lat="43.77933" lon="7.08192">
        <ele>672.40002441406</ele>
        <time>2023-08-02T08:33:39.000Z</time>
      </trkpt>
      <trkpt lat="43.77933" lon="7.08192">
        <ele>672.40002441406</ele>
        <time>2023-08-02T08:33:40.000Z</time>
      </trkpt>
      <trkpt lat="43.77933" lon="7.08192">
        <ele>672.40002441406</ele>
        <time>2023-08-02T08:33:41.000Z</time>
      </trkpt>
      <trkpt lat="43.77933" lon="7.08192">
        <ele>672.40002441406</ele>
        <time>2023-08-02T08:33:42.000Z</time>
      </trkpt>
      <trkpt lat="43.77933" lon="7.08192">
        <ele>672.40002441406</ele>
        <time>2023-08-02T08:33:43.000Z</time>
      </trkpt>
      <trkpt lat="43.77933" lon="7.08192">
        <ele>672.59997558594</ele>
        <time>2023-08-02T08:33:44.000Z</time>
      </trkpt>
      <trkpt lat="43.77933" lon="7.08192">
        <ele>672.59997558594</ele>
        <time>2023-08-02T08:33:45.000Z</time>
      </trkpt>
      <trkpt lat="43.77933" lon="7.08192">
        <ele>672.59997558594</ele>
        <time>2023-08-02T08:33:46.000Z</time>
      </trkpt>
      <trkpt lat="43.77933" lon="7.08192">
        <ele>672.59997558594</ele>
        <time>2023-08-02T08:33:47.000Z</time>
      </trkpt>
      <trkpt lat="43.77933" lon="7.08192">
        <ele>672.59997558594</ele>
        <time>2023-08-02T08:33:48.000Z</time>
      </trkpt>
      <trkpt lat="43.77933" lon="7.08192">
        <ele>672.59997558594</ele>
        <time>2023-08-02T08:33:49.000Z</time>
      </trkpt>
      <trkpt lat="43.77933" lon="7.08192">
        <ele>672.59997558594</ele>
        <time>2023-08-02T08:33:50.000Z</time>
      </trkpt>
      <trkpt lat="43.77933" lon="7.08192">
        <ele>672.59997558594</ele>
        <time>2023-08-02T08:33:51.000Z</time>
      </trkpt>
      <trkpt lat="43.77933" lon="7.08192">
        <ele>672.59997558594</ele>
        <time>2023-08-02T08:33:52.000Z</time>
      </trkpt>
      <trkpt lat="43.77933" lon="7.08192">
        <ele>672.59997558594</ele>
        <time>2023-08-02T08:33:53.000Z</time>
      </trkpt>
      <trkpt lat="43.77933" lon="7.08192">
        <ele>672.59997558594</ele>
        <time>2023-08-02T08:33:54.000Z</time>
      </trkpt>
      <trkpt lat="43.77933" lon="7.08192">
        <ele>672.59997558594</ele>
        <time>2023-08-02T08:33:55.000Z</time>
      </trkpt>
      <trkpt lat="43.77933" lon="7.08192">
        <ele>672.59997558594</ele>
        <time>2023-08-02T08:33:56.000Z</time>
      </trkpt>
      <trkpt lat="43.77933" lon="7.08192">
        <ele>672.59997558594</ele>
        <time>2023-08-02T08:33:57.000Z</time>
      </trkpt>
      <trkpt lat="43.77933" lon="7.08192">
        <ele>672.59997558594</ele>
        <time>2023-08-02T08:33:58.000Z</time>
      </trkpt>
      <trkpt lat="43.77933" lon="7.08192">
        <ele>672.59997558594</ele>
        <time>2023-08-02T08:33:59.000Z</time>
      </trkpt>
      <trkpt lat="43.77933" lon="7.08192">
        <ele>672.59997558594</ele>
        <time>2023-08-02T08:34:00.000Z</time>
      </trkpt>
      <trkpt lat="43.77933" lon="7.08192">
        <ele>672.59997558594</ele>
        <time>2023-08-02T08:34:01.000Z</time>
      </trkpt>
      <trkpt lat="43.77933" lon="7.08192">
        <ele>672.59997558594</ele>
        <time>2023-08-02T08:34:02.000Z</time>
      </trkpt>
      <trkpt lat="43.77933" lon="7.08192">
        <ele>672.59997558594</ele>
        <time>2023-08-02T08:34:03.000Z</time>
      </trkpt>
      <trkpt lat="43.77933" lon="7.08192">
        <ele>672.59997558594</ele>
        <time>2023-08-02T08:34:04.000Z</time>
      </trkpt>
      <trkpt lat="43.77933" lon="7.08192">
        <ele>672.59997558594</ele>
        <time>2023-08-02T08:34:05.000Z</time>
      </trkpt>
      <trkpt lat="43.77933" lon="7.08192">
        <ele>672.59997558594</ele>
        <time>2023-08-02T08:34:06.000Z</time>
      </trkpt>
      <trkpt lat="43.77933" lon="7.08192">
        <ele>672.59997558594</ele>
        <time>2023-08-02T08:34:07.000Z</time>
      </trkpt>
      <trkpt lat="43.77933" lon="7.08192">
        <ele>672.59997558594</ele>
        <time>2023-08-02T08:34:08.000Z</time>
      </trkpt>
      <trkpt lat="43.77933" lon="7.08192">
        <ele>672.59997558594</ele>
        <time>2023-08-02T08:34:09.000Z</time>
      </trkpt>
      <trkpt lat="43.77933" lon="7.08194">
        <ele>672.59997558594</ele>
        <time>2023-08-02T08:34:10.000Z</time>
      </trkpt>
      <trkpt lat="43.77934" lon="7.08196">
        <ele>672.59997558594</ele>
        <time>2023-08-02T08:34:11.000Z</time>
      </trkpt>
      <trkpt lat="43.77935" lon="7.08197">
        <ele>672.59997558594</ele>
        <time>2023-08-02T08:34:12.000Z</time>
      </trkpt>
      <trkpt lat="43.77936" lon="7.08198">
        <ele>672.79998779297</ele>
        <time>2023-08-02T08:34:13.000Z</time>
      </trkpt>
      <trkpt lat="43.77936" lon="7.08201">
        <ele>672.79998779297</ele>
        <time>2023-08-02T08:34:14.000Z</time>
      </trkpt>
      <trkpt lat="43.77937" lon="7.08204">
        <ele>672.59997558594</ele>
        <time>2023-08-02T08:34:15.000Z</time>
      </trkpt>
      <trkpt lat="43.77938" lon="7.08206">
        <ele>672.59997558594</ele>
        <time>2023-08-02T08:34:16.000Z</time>
      </trkpt>
      <trkpt lat="43.77939" lon="7.08208">
        <ele>672.59997558594</ele>
        <time>2023-08-02T08:34:17.000Z</time>
      </trkpt>
      <trkpt lat="43.7794" lon="7.0821">
        <ele>672.59997558594</ele>
        <time>2023-08-02T08:34:18.000Z</time>
      </trkpt>
      <trkpt lat="43.77941" lon="7.08214">
        <ele>672.59997558594</ele>
        <time>2023-08-02T08:34:19.000Z</time>
      </trkpt>
      <trkpt lat="43.77941" lon="7.08217">
        <ele>672.59997558594</ele>
        <time>2023-08-02T08:34:20.000Z</time>
      </trkpt>
      <trkpt lat="43.77942" lon="7.08221">
        <ele>672.40002441406</ele>
        <time>2023-08-02T08:34:21.000Z</time>
      </trkpt>
      <trkpt lat="43.77942" lon="7.08225">
        <ele>672.40002441406</ele>
        <time>2023-08-02T08:34:22.000Z</time>
      </trkpt>
      <trkpt lat="43.77943" lon="7.08229">
        <ele>672.40002441406</ele>
        <time>2023-08-02T08:34:23.000Z</time>
      </trkpt>
      <trkpt lat="43.77943" lon="7.08233">
        <ele>672.20001220703</ele>
        <time>2023-08-02T08:34:24.000Z</time>
      </trkpt>
      <trkpt lat="43.77944" lon="7.08237">
        <ele>672.20001220703</ele>
        <time>2023-08-02T08:34:25.000Z</time>
      </trkpt>
      <trkpt lat="43.77944" lon="7.08241">
        <ele>672</ele>
        <time>2023-08-02T08:34:26.000Z</time>
      </trkpt>
      <trkpt lat="43.77943" lon="7.08245">
        <ele>672</ele>
        <time>2023-08-02T08:34:27.000Z</time>
      </trkpt>
      <trkpt lat="43.77943" lon="7.08249">
        <ele>672</ele>
        <time>2023-08-02T08:34:28.000Z</time>
      </trkpt>
      <trkpt lat="43.77945" lon="7.08252">
        <ele>672</ele>
        <time>2023-08-02T08:34:29.000Z</time>
      </trkpt>
      <trkpt lat="43.77947" lon="7.08253">
        <ele>672</ele>
        <time>2023-08-02T08:34:30.000Z</time>
      </trkpt>
      <trkpt lat="43.77951" lon="7.08254">
        <ele>672</ele>
        <time>2023-08-02T08:34:31.000Z</time>
      </trkpt>
      <trkpt lat="43.77954" lon="7.08255">
        <ele>671.79998779297</ele>
        <time>2023-08-02T08:34:32.000Z</time>
      </trkpt>
      <trkpt lat="43.77957" lon="7.08255">
        <ele>671.79998779297</ele>
        <time>2023-08-02T08:34:33.000Z</time>
      </trkpt>
      <trkpt lat="43.7796" lon="7.08255">
        <ele>671.59997558594</ele>
        <time>2023-08-02T08:34:34.000Z</time>
      </trkpt>
      <trkpt lat="43.77962" lon="7.08258">
        <ele>671.59997558594</ele>
        <time>2023-08-02T08:34:35.000Z</time>
      </trkpt>
      <trkpt lat="43.77963" lon="7.08261">
        <ele>671.59997558594</ele>
        <time>2023-08-02T08:34:36.000Z</time>
      </trkpt>
      <trkpt lat="43.77965" lon="7.08266">
        <ele>671.20001220703</ele>
        <time>2023-08-02T08:34:37.000Z</time>
      </trkpt>
      <trkpt lat="43.77966" lon="7.0827">
        <ele>671</ele>
        <time>2023-08-02T08:34:38.000Z</time>
      </trkpt>
      <trkpt lat="43.77966" lon="7.08274">
        <ele>671</ele>
        <time>2023-08-02T08:34:39.000Z</time>
      </trkpt>
      <trkpt lat="43.77966" lon="7.08278">
        <ele>670.79998779297</ele>
        <time>2023-08-02T08:34:40.000Z</time>
      </trkpt>
      <trkpt lat="43.77966" lon="7.08282">
        <ele>670.20001220703</ele>
        <time>2023-08-02T08:34:41.000Z</time>
      </trkpt>
      <trkpt lat="43.77969" lon="7.08286">
        <ele>670.20001220703</ele>
        <time>2023-08-02T08:34:42.000Z</time>
      </trkpt>
      <trkpt lat="43.77969" lon="7.0829">
        <ele>670.20001220703</ele>
        <time>2023-08-02T08:34:43.000Z</time>
      </trkpt>
      <trkpt lat="43.7797" lon="7.08293">
        <ele>670.20001220703</ele>
        <time>2023-08-02T08:34:44.000Z</time>
      </trkpt>
      <trkpt lat="43.77972" lon="7.08297">
        <ele>670.20001220703</ele>
        <time>2023-08-02T08:34:45.000Z</time>
      </trkpt>
      <trkpt lat="43.77973" lon="7.083">
        <ele>670</ele>
        <time>2023-08-02T08:34:46.000Z</time>
      </trkpt>
      <trkpt lat="43.77974" lon="7.08302">
        <ele>670</ele>
        <time>2023-08-02T08:34:47.000Z</time>
      </trkpt>
      <trkpt lat="43.77974" lon="7.08305">
        <ele>670</ele>
        <time>2023-08-02T08:34:48.000Z</time>
      </trkpt>
      <trkpt lat="43.77973" lon="7.08306">
        <ele>669.79998779297</ele>
        <time>2023-08-02T08:34:49.000Z</time>
      </trkpt>
      <trkpt lat="43.77973" lon="7.08307">
        <ele>669.59997558594</ele>
        <time>2023-08-02T08:34:50.000Z</time>
      </trkpt>
      <trkpt lat="43.77973" lon="7.08309">
        <ele>669.59997558594</ele>
        <time>2023-08-02T08:34:51.000Z</time>
      </trkpt>
      <trkpt lat="43.77973" lon="7.0831">
        <ele>669.59997558594</ele>
        <time>2023-08-02T08:34:52.000Z</time>
      </trkpt>
      <trkpt lat="43.77973" lon="7.0831">
        <ele>669.59997558594</ele>
        <time>2023-08-02T08:34:53.000Z</time>
      </trkpt>
      <trkpt lat="43.77973" lon="7.0831">
        <ele>669.59997558594</ele>
        <time>2023-08-02T08:34:54.000Z</time>
      </trkpt>
      <trkpt lat="43.77973" lon="7.0831">
        <ele>669.20001220703</ele>
        <time>2023-08-02T08:34:55.000Z</time>
      </trkpt>
      <trkpt lat="43.77973" lon="7.0831">
        <ele>669.20001220703</ele>
        <time>2023-08-02T08:34:56.000Z</time>
      </trkpt>
      <trkpt lat="43.77973" lon="7.0831">
        <ele>669</ele>
        <time>2023-08-02T08:34:57.000Z</time>
      </trkpt>
      <trkpt lat="43.77973" lon="7.0831">
        <ele>669</ele>
        <time>2023-08-02T08:34:58.000Z</time>
      </trkpt>
      <trkpt lat="43.77973" lon="7.08311">
        <ele>669</ele>
        <time>2023-08-02T08:34:59.000Z</time>
      </trkpt>
      <trkpt lat="43.77973" lon="7.08311">
        <ele>669</ele>
        <time>2023-08-02T08:35:00.000Z</time>
      </trkpt>
      <trkpt lat="43.77974" lon="7.08311">
        <ele>668.79998779297</ele>
        <time>2023-08-02T08:35:01.000Z</time>
      </trkpt>
      <trkpt lat="43.77973" lon="7.08311">
        <ele>668.79998779297</ele>
        <time>2023-08-02T08:35:02.000Z</time>
      </trkpt>
      <trkpt lat="43.77974" lon="7.08311">
        <ele>668.79998779297</ele>
        <time>2023-08-02T08:35:03.000Z</time>
      </trkpt>
      <trkpt lat="43.77973" lon="7.0831">
        <ele>668.79998779297</ele>
        <time>2023-08-02T08:35:04.000Z</time>
      </trkpt>
      <trkpt lat="43.77974" lon="7.0831">
        <ele>668.79998779297</ele>
        <time>2023-08-02T08:35:05.000Z</time>
      </trkpt>
      <trkpt lat="43.77974" lon="7.08311">
        <ele>668.79998779297</ele>
        <time>2023-08-02T08:35:06.000Z</time>
      </trkpt>
      <trkpt lat="43.77974" lon="7.08311">
        <ele>668.79998779297</ele>
        <time>2023-08-02T08:35:07.000Z</time>
      </trkpt>
      <trkpt lat="43.77974" lon="7.08311">
        <ele>668.79998779297</ele>
        <time>2023-08-02T08:35:08.000Z</time>
      </trkpt>
      <trkpt lat="43.77974" lon="7.08311">
        <ele>668.79998779297</ele>
        <time>2023-08-02T08:35:09.000Z</time>
      </trkpt>
      <trkpt lat="43.77974" lon="7.08311">
        <ele>669</ele>
        <time>2023-08-02T08:35:10.000Z</time>
      </trkpt>
      <trkpt lat="43.77974" lon="7.08311">
        <ele>669.20001220703</ele>
        <time>2023-08-02T08:35:11.000Z</time>
      </trkpt>
      <trkpt lat="43.77973" lon="7.08311">
        <ele>669.40002441406</ele>
        <time>2023-08-02T08:35:12.000Z</time>
      </trkpt>
      <trkpt lat="43.77973" lon="7.0831">
        <ele>669.40002441406</ele>
        <time>2023-08-02T08:35:13.000Z</time>
      </trkpt>
      <trkpt lat="43.77973" lon="7.0831">
        <ele>669.59997558594</ele>
        <time>2023-08-02T08:35:14.000Z</time>
      </trkpt>
      <trkpt lat="43.77973" lon="7.0831">
        <ele>669.79998779297</ele>
        <time>2023-08-02T08:35:15.000Z</time>
      </trkpt>
      <trkpt lat="43.77973" lon="7.0831">
        <ele>669.79998779297</ele>
        <time>2023-08-02T08:35:16.000Z</time>
      </trkpt>
      <trkpt lat="43.77973" lon="7.0831">
        <ele>669.79998779297</ele>
        <time>2023-08-02T08:35:17.000Z</time>
      </trkpt>
      <trkpt lat="43.77973" lon="7.0831">
        <ele>670</ele>
        <time>2023-08-02T08:35:18.000Z</time>
      </trkpt>
      <trkpt lat="43.77973" lon="7.0831">
        <ele>670</ele>
        <time>2023-08-02T08:35:19.000Z</time>
      </trkpt>
      <trkpt lat="43.77973" lon="7.08312">
        <ele>670</ele>
        <time>2023-08-02T08:35:20.000Z</time>
      </trkpt>
      <trkpt lat="43.77974" lon="7.08313">
        <ele>670.20001220703</ele>
        <time>2023-08-02T08:35:21.000Z</time>
      </trkpt>
      <trkpt lat="43.77974" lon="7.08312">
        <ele>670.20001220703</ele>
        <time>2023-08-02T08:35:22.000Z</time>
      </trkpt>
      <trkpt lat="43.77973" lon="7.08311">
        <ele>670.20001220703</ele>
        <time>2023-08-02T08:35:23.000Z</time>
      </trkpt>
      <trkpt lat="43.77973" lon="7.08311">
        <ele>670.20001220703</ele>
        <time>2023-08-02T08:35:24.000Z</time>
      </trkpt>
      <trkpt lat="43.77974" lon="7.08312">
        <ele>670.20001220703</ele>
        <time>2023-08-02T08:35:25.000Z</time>
      </trkpt>
      <trkpt lat="43.77974" lon="7.08312">
        <ele>670.40002441406</ele>
        <time>2023-08-02T08:35:26.000Z</time>
      </trkpt>
      <trkpt lat="43.77974" lon="7.08312">
        <ele>670.40002441406</ele>
        <time>2023-08-02T08:35:27.000Z</time>
      </trkpt>
      <trkpt lat="43.77974" lon="7.08312">
        <ele>670.40002441406</ele>
        <time>2023-08-02T08:35:28.000Z</time>
      </trkpt>
      <trkpt lat="43.77974" lon="7.08312">
        <ele>670.40002441406</ele>
        <time>2023-08-02T08:35:29.000Z</time>
      </trkpt>
      <trkpt lat="43.77974" lon="7.08312">
        <ele>670.59997558594</ele>
        <time>2023-08-02T08:35:30.000Z</time>
      </trkpt>
      <trkpt lat="43.77974" lon="7.08312">
        <ele>670.59997558594</ele>
        <time>2023-08-02T08:35:31.000Z</time>
      </trkpt>
      <trkpt lat="43.77973" lon="7.08311">
        <ele>670.79998779297</ele>
        <time>2023-08-02T08:35:32.000Z</time>
      </trkpt>
      <trkpt lat="43.77974" lon="7.08312">
        <ele>670.79998779297</ele>
        <time>2023-08-02T08:35:33.000Z</time>
      </trkpt>
      <trkpt lat="43.77974" lon="7.08312">
        <ele>671</ele>
        <time>2023-08-02T08:35:34.000Z</time>
      </trkpt>
      <trkpt lat="43.77974" lon="7.08313">
        <ele>671</ele>
        <time>2023-08-02T08:35:35.000Z</time>
      </trkpt>
      <trkpt lat="43.77974" lon="7.08313">
        <ele>671</ele>
        <time>2023-08-02T08:35:36.000Z</time>
      </trkpt>
      <trkpt lat="43.77974" lon="7.08313">
        <ele>671</ele>
        <time>2023-08-02T08:35:37.000Z</time>
      </trkpt>
      <trkpt lat="43.77974" lon="7.08313">
        <ele>671</ele>
        <time>2023-08-02T08:35:38.000Z</time>
      </trkpt>
      <trkpt lat="43.77974" lon="7.08313">
        <ele>671</ele>
        <time>2023-08-02T08:35:39.000Z</time>
      </trkpt>
      <trkpt lat="43.77975" lon="7.08313">
        <ele>671</ele>
        <time>2023-08-02T08:35:40.000Z</time>
      </trkpt>
      <trkpt lat="43.77975" lon="7.08313">
        <ele>671.40002441406</ele>
        <time>2023-08-02T08:35:41.000Z</time>
      </trkpt>
      <trkpt lat="43.77975" lon="7.08315">
        <ele>671.59997558594</ele>
        <time>2023-08-02T08:35:42.000Z</time>
      </trkpt>
      <trkpt lat="43.77976" lon="7.08315">
        <ele>671.59997558594</ele>
        <time>2023-08-02T08:35:43.000Z</time>
      </trkpt>
      <trkpt lat="43.77975" lon="7.08314">
        <ele>671.59997558594</ele>
        <time>2023-08-02T08:35:44.000Z</time>
      </trkpt>
      <trkpt lat="43.77975" lon="7.08313">
        <ele>671.79998779297</ele>
        <time>2023-08-02T08:35:45.000Z</time>
      </trkpt>
      <trkpt lat="43.77975" lon="7.08312">
        <ele>671.79998779297</ele>
        <time>2023-08-02T08:35:46.000Z</time>
      </trkpt>
      <trkpt lat="43.77975" lon="7.08312">
        <ele>671.79998779297</ele>
        <time>2023-08-02T08:35:47.000Z</time>
      </trkpt>
      <trkpt lat="43.77975" lon="7.08312">
        <ele>671.79998779297</ele>
        <time>2023-08-02T08:35:48.000Z</time>
      </trkpt>
      <trkpt lat="43.77975" lon="7.08312">
        <ele>671.79998779297</ele>
        <time>2023-08-02T08:35:49.000Z</time>
      </trkpt>
      <trkpt lat="43.77975" lon="7.08312">
        <ele>672</ele>
        <time>2023-08-02T08:35:50.000Z</time>
      </trkpt>
      <trkpt lat="43.77975" lon="7.08312">
        <ele>672</ele>
        <time>2023-08-02T08:35:51.000Z</time>
      </trkpt>
      <trkpt lat="43.77975" lon="7.08313">
        <ele>672</ele>
        <time>2023-08-02T08:35:52.000Z</time>
      </trkpt>
      <trkpt lat="43.77975" lon="7.08313">
        <ele>671.79998779297</ele>
        <time>2023-08-02T08:35:53.000Z</time>
      </trkpt>
      <trkpt lat="43.77976" lon="7.08314">
        <ele>671.79998779297</ele>
        <time>2023-08-02T08:35:54.000Z</time>
      </trkpt>
      <trkpt lat="43.77976" lon="7.08315">
        <ele>671.79998779297</ele>
        <time>2023-08-02T08:35:55.000Z</time>
      </trkpt>
      <trkpt lat="43.77976" lon="7.08315">
        <ele>671.79998779297</ele>
        <time>2023-08-02T08:35:56.000Z</time>
      </trkpt>
      <trkpt lat="43.77976" lon="7.08315">
        <ele>671.79998779297</ele>
        <time>2023-08-02T08:35:57.000Z</time>
      </trkpt>
      <trkpt lat="43.77977" lon="7.08315">
        <ele>671.79998779297</ele>
        <time>2023-08-02T08:35:58.000Z</time>
      </trkpt>
      <trkpt lat="43.77976" lon="7.08315">
        <ele>671.79998779297</ele>
        <time>2023-08-02T08:35:59.000Z</time>
      </trkpt>
      <trkpt lat="43.77976" lon="7.08315">
        <ele>671.79998779297</ele>
        <time>2023-08-02T08:36:00.000Z</time>
      </trkpt>
      <trkpt lat="43.77976" lon="7.08315">
        <ele>671.79998779297</ele>
        <time>2023-08-02T08:36:01.000Z</time>
      </trkpt>
      <trkpt lat="43.77977" lon="7.08316">
        <ele>671.79998779297</ele>
        <time>2023-08-02T08:36:02.000Z</time>
      </trkpt>
      <trkpt lat="43.77978" lon="7.08316">
        <ele>672</ele>
        <time>2023-08-02T08:36:03.000Z</time>
      </trkpt>
      <trkpt lat="43.77978" lon="7.08317">
        <ele>672</ele>
        <time>2023-08-02T08:36:04.000Z</time>
      </trkpt>
      <trkpt lat="43.77978" lon="7.08318">
        <ele>672</ele>
        <time>2023-08-02T08:36:05.000Z</time>
      </trkpt>
      <trkpt lat="43.77978" lon="7.08318">
        <ele>672</ele>
        <time>2023-08-02T08:36:06.000Z</time>
      </trkpt>
      <trkpt lat="43.77978" lon="7.08318">
        <ele>672</ele>
        <time>2023-08-02T08:36:07.000Z</time>
      </trkpt>
      <trkpt lat="43.77978" lon="7.08317">
        <ele>672</ele>
        <time>2023-08-02T08:36:08.000Z</time>
      </trkpt>
      <trkpt lat="43.77978" lon="7.08318">
        <ele>672</ele>
        <time>2023-08-02T08:36:09.000Z</time>
      </trkpt>
      <trkpt lat="43.77978" lon="7.08318">
        <ele>672</ele>
        <time>2023-08-02T08:36:10.000Z</time>
      </trkpt>
      <trkpt lat="43.77978" lon="7.08317">
        <ele>672</ele>
        <time>2023-08-02T08:36:11.000Z</time>
      </trkpt>
      <trkpt lat="43.77978" lon="7.08317">
        <ele>672</ele>
        <time>2023-08-02T08:36:12.000Z</time>
      </trkpt>
      <trkpt lat="43.77978" lon="7.08317">
        <ele>672</ele>
        <time>2023-08-02T08:36:13.000Z</time>
      </trkpt>
      <trkpt lat="43.77978" lon="7.08317">
        <ele>672</ele>
        <time>2023-08-02T08:36:14.000Z</time>
      </trkpt>
      <trkpt lat="43.77978" lon="7.08317">
        <ele>671.79998779297</ele>
        <time>2023-08-02T08:36:15.000Z</time>
      </trkpt>
      <trkpt lat="43.77978" lon="7.08317">
        <ele>671.79998779297</ele>
        <time>2023-08-02T08:36:16.000Z</time>
      </trkpt>
      <trkpt lat="43.77978" lon="7.08317">
        <ele>671.79998779297</ele>
        <time>2023-08-02T08:36:17.000Z</time>
      </trkpt>
      <trkpt lat="43.77978" lon="7.08317">
        <ele>671.79998779297</ele>
        <time>2023-08-02T08:36:18.000Z</time>
      </trkpt>
      <trkpt lat="43.77978" lon="7.08317">
        <ele>671.79998779297</ele>
        <time>2023-08-02T08:36:19.000Z</time>
      </trkpt>
      <trkpt lat="43.77978" lon="7.08317">
        <ele>671.79998779297</ele>
        <time>2023-08-02T08:36:20.000Z</time>
      </trkpt>
      <trkpt lat="43.77978" lon="7.08317">
        <ele>671.79998779297</ele>
        <time>2023-08-02T08:36:21.000Z</time>
      </trkpt>
      <trkpt lat="43.77978" lon="7.08317">
        <ele>671.79998779297</ele>
        <time>2023-08-02T08:36:22.000Z</time>
      </trkpt>
      <trkpt lat="43.77978" lon="7.08317">
        <ele>671.79998779297</ele>
        <time>2023-08-02T08:36:23.000Z</time>
      </trkpt>
      <trkpt lat="43.77978" lon="7.08317">
        <ele>671.79998779297</ele>
        <time>2023-08-02T08:36:24.000Z</time>
      </trkpt>
      <trkpt lat="43.77978" lon="7.08317">
        <ele>671.79998779297</ele>
        <time>2023-08-02T08:36:25.000Z</time>
      </trkpt>
      <trkpt lat="43.77978" lon="7.08317">
        <ele>672</ele>
        <time>2023-08-02T08:36:26.000Z</time>
      </trkpt>
      <trkpt lat="43.77978" lon="7.08317">
        <ele>672</ele>
        <time>2023-08-02T08:36:27.000Z</time>
      </trkpt>
      <trkpt lat="43.77978" lon="7.08317">
        <ele>672</ele>
        <time>2023-08-02T08:36:28.000Z</time>
      </trkpt>
      <trkpt lat="43.77978" lon="7.08317">
        <ele>672</ele>
        <time>2023-08-02T08:36:29.000Z</time>
      </trkpt>
      <trkpt lat="43.77978" lon="7.08317">
        <ele>672</ele>
        <time>2023-08-02T08:36:30.000Z</time>
      </trkpt>
      <trkpt lat="43.77978" lon="7.08317">
        <ele>672</ele>
        <time>2023-08-02T08:36:31.000Z</time>
      </trkpt>
      <trkpt lat="43.77978" lon="7.08317">
        <ele>672</ele>
        <time>2023-08-02T08:36:32.000Z</time>
      </trkpt>
      <trkpt lat="43.77978" lon="7.08317">
        <ele>672</ele>
        <time>2023-08-02T08:36:33.000Z</time>
      </trkpt>
      <trkpt lat="43.77978" lon="7.08317">
        <ele>672</ele>
        <time>2023-08-02T08:36:34.000Z</time>
      </trkpt>
      <trkpt lat="43.77978" lon="7.08317">
        <ele>672</ele>
        <time>2023-08-02T08:36:35.000Z</time>
      </trkpt>
      <trkpt lat="43.77978" lon="7.08317">
        <ele>672</ele>
        <time>2023-08-02T08:36:36.000Z</time>
      </trkpt>
      <trkpt lat="43.77978" lon="7.08317">
        <ele>672</ele>
        <time>2023-08-02T08:36:37.000Z</time>
      </trkpt>
      <trkpt lat="43.77978" lon="7.08317">
        <ele>672</ele>
        <time>2023-08-02T08:36:38.000Z</time>
      </trkpt>
      <trkpt lat="43.77978" lon="7.08317">
        <ele>672</ele>
        <time>2023-08-02T08:36:39.000Z</time>
      </trkpt>
      <trkpt lat="43.77978" lon="7.08317">
        <ele>672.20001220703</ele>
        <time>2023-08-02T08:36:40.000Z</time>
      </trkpt>
      <trkpt lat="43.77978" lon="7.08317">
        <ele>672.20001220703</ele>
        <time>2023-08-02T08:36:41.000Z</time>
      </trkpt>
      <trkpt lat="43.77978" lon="7.08317">
        <ele>672.20001220703</ele>
        <time>2023-08-02T08:36:42.000Z</time>
      </trkpt>
      <trkpt lat="43.77978" lon="7.08317">
        <ele>672.20001220703</ele>
        <time>2023-08-02T08:36:43.000Z</time>
      </trkpt>
      <trkpt lat="43.77978" lon="7.08317">
        <ele>672.20001220703</ele>
        <time>2023-08-02T08:36:44.000Z</time>
      </trkpt>
      <trkpt lat="43.77978" lon="7.08317">
        <ele>672.20001220703</ele>
        <time>2023-08-02T08:36:45.000Z</time>
      </trkpt>
      <trkpt lat="43.77978" lon="7.08317">
        <ele>672.20001220703</ele>
        <time>2023-08-02T08:36:46.000Z</time>
      </trkpt>
      <trkpt lat="43.77978" lon="7.08317">
        <ele>672.20001220703</ele>
        <time>2023-08-02T08:36:47.000Z</time>
      </trkpt>
      <trkpt lat="43.77978" lon="7.08317">
        <ele>672.20001220703</ele>
        <time>2023-08-02T08:36:48.000Z</time>
      </trkpt>
      <trkpt lat="43.77978" lon="7.08317">
        <ele>672.20001220703</ele>
        <time>2023-08-02T08:36:49.000Z</time>
      </trkpt>
      <trkpt lat="43.77978" lon="7.08317">
        <ele>672.20001220703</ele>
        <time>2023-08-02T08:36:50.000Z</time>
      </trkpt>
      <trkpt lat="43.77977" lon="7.08318">
        <ele>672.20001220703</ele>
        <time>2023-08-02T08:36:51.000Z</time>
      </trkpt>
      <trkpt lat="43.77977" lon="7.08318">
        <ele>672.40002441406</ele>
        <time>2023-08-02T08:36:52.000Z</time>
      </trkpt>
      <trkpt lat="43.77977" lon="7.08318">
        <ele>672.59997558594</ele>
        <time>2023-08-02T08:36:53.000Z</time>
      </trkpt>
      <trkpt lat="43.77977" lon="7.08318">
        <ele>672.59997558594</ele>
        <time>2023-08-02T08:36:54.000Z</time>
      </trkpt>
      <trkpt lat="43.77977" lon="7.08319">
        <ele>672.59997558594</ele>
        <time>2023-08-02T08:36:55.000Z</time>
      </trkpt>
      <trkpt lat="43.77978" lon="7.08319">
        <ele>672.59997558594</ele>
        <time>2023-08-02T08:36:56.000Z</time>
      </trkpt>
      <trkpt lat="43.77978" lon="7.0832">
        <ele>672.59997558594</ele>
        <time>2023-08-02T08:36:57.000Z</time>
      </trkpt>
      <trkpt lat="43.77978" lon="7.08321">
        <ele>672.59997558594</ele>
        <time>2023-08-02T08:36:58.000Z</time>
      </trkpt>
      <trkpt lat="43.77977" lon="7.08321">
        <ele>672.59997558594</ele>
        <time>2023-08-02T08:36:59.000Z</time>
      </trkpt>
      <trkpt lat="43.77977" lon="7.08321">
        <ele>672.59997558594</ele>
        <time>2023-08-02T08:37:00.000Z</time>
      </trkpt>
      <trkpt lat="43.77977" lon="7.08321">
        <ele>672.59997558594</ele>
        <time>2023-08-02T08:37:01.000Z</time>
      </trkpt>
      <trkpt lat="43.77977" lon="7.08322">
        <ele>672.59997558594</ele>
        <time>2023-08-02T08:37:02.000Z</time>
      </trkpt>
      <trkpt lat="43.77977" lon="7.08323">
        <ele>672.79998779297</ele>
        <time>2023-08-02T08:37:03.000Z</time>
      </trkpt>
      <trkpt lat="43.77977" lon="7.08323">
        <ele>672.79998779297</ele>
        <time>2023-08-02T08:37:04.000Z</time>
      </trkpt>
      <trkpt lat="43.77976" lon="7.08323">
        <ele>672.79998779297</ele>
        <time>2023-08-02T08:37:05.000Z</time>
      </trkpt>
      <trkpt lat="43.77976" lon="7.08323">
        <ele>672.79998779297</ele>
        <time>2023-08-02T08:37:06.000Z</time>
      </trkpt>
      <trkpt lat="43.77976" lon="7.08324">
        <ele>672.79998779297</ele>
        <time>2023-08-02T08:37:07.000Z</time>
      </trkpt>
      <trkpt lat="43.77976" lon="7.08325">
        <ele>672.79998779297</ele>
        <time>2023-08-02T08:37:08.000Z</time>
      </trkpt>
      <trkpt lat="43.77976" lon="7.08326">
        <ele>672.79998779297</ele>
        <time>2023-08-02T08:37:09.000Z</time>
      </trkpt>
      <trkpt lat="43.77976" lon="7.08326">
        <ele>672.59997558594</ele>
        <time>2023-08-02T08:37:10.000Z</time>
      </trkpt>
      <trkpt lat="43.77976" lon="7.08326">
        <ele>672.59997558594</ele>
        <time>2023-08-02T08:37:11.000Z</time>
      </trkpt>
      <trkpt lat="43.77976" lon="7.08327">
        <ele>672.59997558594</ele>
        <time>2023-08-02T08:37:12.000Z</time>
      </trkpt>
      <trkpt lat="43.77976" lon="7.08327">
        <ele>672.59997558594</ele>
        <time>2023-08-02T08:37:13.000Z</time>
      </trkpt>
      <trkpt lat="43.77976" lon="7.08327">
        <ele>672.40002441406</ele>
        <time>2023-08-02T08:37:14.000Z</time>
      </trkpt>
      <trkpt lat="43.77976" lon="7.08327">
        <ele>672.40002441406</ele>
        <time>2023-08-02T08:37:15.000Z</time>
      </trkpt>
      <trkpt lat="43.77976" lon="7.08327">
        <ele>672.40002441406</ele>
        <time>2023-08-02T08:37:16.000Z</time>
      </trkpt>
      <trkpt lat="43.77976" lon="7.08328">
        <ele>672.40002441406</ele>
        <time>2023-08-02T08:37:17.000Z</time>
      </trkpt>
      <trkpt lat="43.77976" lon="7.08329">
        <ele>672.40002441406</ele>
        <time>2023-08-02T08:37:18.000Z</time>
      </trkpt>
      <trkpt lat="43.77976" lon="7.08329">
        <ele>672.40002441406</ele>
        <time>2023-08-02T08:37:19.000Z</time>
      </trkpt>
      <trkpt lat="43.77976" lon="7.08329">
        <ele>672.40002441406</ele>
        <time>2023-08-02T08:37:20.000Z</time>
      </trkpt>
      <trkpt lat="43.77975" lon="7.08329">
        <ele>672.40002441406</ele>
        <time>2023-08-02T08:37:21.000Z</time>
      </trkpt>
      <trkpt lat="43.77975" lon="7.08331">
        <ele>672.40002441406</ele>
        <time>2023-08-02T08:37:22.000Z</time>
      </trkpt>
      <trkpt lat="43.77975" lon="7.08331">
        <ele>672.40002441406</ele>
        <time>2023-08-02T08:37:23.000Z</time>
      </trkpt>
      <trkpt lat="43.77976" lon="7.08332">
        <ele>672.40002441406</ele>
        <time>2023-08-02T08:37:24.000Z</time>
      </trkpt>
      <trkpt lat="43.77976" lon="7.08333">
        <ele>672.40002441406</ele>
        <time>2023-08-02T08:37:25.000Z</time>
      </trkpt>
      <trkpt lat="43.77977" lon="7.08334">
        <ele>672.40002441406</ele>
        <time>2023-08-02T08:37:26.000Z</time>
      </trkpt>
      <trkpt lat="43.77977" lon="7.08335">
        <ele>672.20001220703</ele>
        <time>2023-08-02T08:37:27.000Z</time>
      </trkpt>
      <trkpt lat="43.77977" lon="7.08335">
        <ele>672</ele>
        <time>2023-08-02T08:37:28.000Z</time>
      </trkpt>
      <trkpt lat="43.77977" lon="7.08335">
        <ele>671.79998779297</ele>
        <time>2023-08-02T08:37:29.000Z</time>
      </trkpt>
      <trkpt lat="43.77977" lon="7.08335">
        <ele>671.79998779297</ele>
        <time>2023-08-02T08:37:30.000Z</time>
      </trkpt>
      <trkpt lat="43.77977" lon="7.08335">
        <ele>671.59997558594</ele>
        <time>2023-08-02T08:37:31.000Z</time>
      </trkpt>
      <trkpt lat="43.77977" lon="7.08335">
        <ele>671.40002441406</ele>
        <time>2023-08-02T08:37:32.000Z</time>
      </trkpt>
      <trkpt lat="43.77977" lon="7.08336">
        <ele>671.40002441406</ele>
        <time>2023-08-02T08:37:33.000Z</time>
      </trkpt>
      <trkpt lat="43.77977" lon="7.08336">
        <ele>671.20001220703</ele>
        <time>2023-08-02T08:37:34.000Z</time>
      </trkpt>
      <trkpt lat="43.77977" lon="7.08337">
        <ele>671.20001220703</ele>
        <time>2023-08-02T08:37:35.000Z</time>
      </trkpt>
      <trkpt lat="43.77977" lon="7.08338">
        <ele>671.20001220703</ele>
        <time>2023-08-02T08:37:36.000Z</time>
      </trkpt>
      <trkpt lat="43.77977" lon="7.08339">
        <ele>671.20001220703</ele>
        <time>2023-08-02T08:37:37.000Z</time>
      </trkpt>
      <trkpt lat="43.77977" lon="7.0834">
        <ele>670.79998779297</ele>
        <time>2023-08-02T08:37:38.000Z</time>
      </trkpt>
      <trkpt lat="43.77977" lon="7.08341">
        <ele>670.59997558594</ele>
        <time>2023-08-02T08:37:39.000Z</time>
      </trkpt>
      <trkpt lat="43.77977" lon="7.08343">
        <ele>670.40002441406</ele>
        <time>2023-08-02T08:37:40.000Z</time>
      </trkpt>
      <trkpt lat="43.77977" lon="7.08345">
        <ele>670.40002441406</ele>
        <time>2023-08-02T08:37:41.000Z</time>
      </trkpt>
      <trkpt lat="43.77978" lon="7.08346">
        <ele>670.40002441406</ele>
        <time>2023-08-02T08:37:42.000Z</time>
      </trkpt>
      <trkpt lat="43.77978" lon="7.08347">
        <ele>670.40002441406</ele>
        <time>2023-08-02T08:37:43.000Z</time>
      </trkpt>
      <trkpt lat="43.77978" lon="7.08348">
        <ele>670.40002441406</ele>
        <time>2023-08-02T08:37:44.000Z</time>
      </trkpt>
      <trkpt lat="43.77977" lon="7.08349">
        <ele>670.40002441406</ele>
        <time>2023-08-02T08:37:45.000Z</time>
      </trkpt>
      <trkpt lat="43.77977" lon="7.08349">
        <ele>670.40002441406</ele>
        <time>2023-08-02T08:37:46.000Z</time>
      </trkpt>
      <trkpt lat="43.77977" lon="7.08351">
        <ele>670.40002441406</ele>
        <time>2023-08-02T08:37:47.000Z</time>
      </trkpt>
      <trkpt lat="43.77977" lon="7.08351">
        <ele>670.40002441406</ele>
        <time>2023-08-02T08:37:48.000Z</time>
      </trkpt>
      <trkpt lat="43.77977" lon="7.08351">
        <ele>670.40002441406</ele>
        <time>2023-08-02T08:37:49.000Z</time>
      </trkpt>
      <trkpt lat="43.77976" lon="7.08353">
        <ele>670.40002441406</ele>
        <time>2023-08-02T08:37:50.000Z</time>
      </trkpt>
      <trkpt lat="43.77976" lon="7.08353">
        <ele>670.40002441406</ele>
        <time>2023-08-02T08:37:51.000Z</time>
      </trkpt>
      <trkpt lat="43.77977" lon="7.08354">
        <ele>670.40002441406</ele>
        <time>2023-08-02T08:37:52.000Z</time>
      </trkpt>
      <trkpt lat="43.77977" lon="7.08355">
        <ele>670.40002441406</ele>
        <time>2023-08-02T08:37:53.000Z</time>
      </trkpt>
      <trkpt lat="43.77977" lon="7.08356">
        <ele>670.20001220703</ele>
        <time>2023-08-02T08:37:54.000Z</time>
      </trkpt>
      <trkpt lat="43.77977" lon="7.08357">
        <ele>670.20001220703</ele>
        <time>2023-08-02T08:37:55.000Z</time>
      </trkpt>
      <trkpt lat="43.77977" lon="7.08358">
        <ele>670.20001220703</ele>
        <time>2023-08-02T08:37:56.000Z</time>
      </trkpt>
      <trkpt lat="43.77978" lon="7.08358">
        <ele>670.20001220703</ele>
        <time>2023-08-02T08:37:57.000Z</time>
      </trkpt>
      <trkpt lat="43.77979" lon="7.08359">
        <ele>670.20001220703</ele>
        <time>2023-08-02T08:37:58.000Z</time>
      </trkpt>
      <trkpt lat="43.77979" lon="7.0836">
        <ele>670.40002441406</ele>
        <time>2023-08-02T08:37:59.000Z</time>
      </trkpt>
      <trkpt lat="43.7798" lon="7.08361">
        <ele>670.40002441406</ele>
        <time>2023-08-02T08:38:00.000Z</time>
      </trkpt>
      <trkpt lat="43.7798" lon="7.08361">
        <ele>670.79998779297</ele>
        <time>2023-08-02T08:38:01.000Z</time>
      </trkpt>
      <trkpt lat="43.77981" lon="7.08361">
        <ele>670.79998779297</ele>
        <time>2023-08-02T08:38:02.000Z</time>
      </trkpt>
      <trkpt lat="43.77982" lon="7.08361">
        <ele>670.79998779297</ele>
        <time>2023-08-02T08:38:03.000Z</time>
      </trkpt>
      <trkpt lat="43.77982" lon="7.08361">
        <ele>670.79998779297</ele>
        <time>2023-08-02T08:38:04.000Z</time>
      </trkpt>
      <trkpt lat="43.77982" lon="7.08361">
        <ele>670.79998779297</ele>
        <time>2023-08-02T08:38:05.000Z</time>
      </trkpt>
      <trkpt lat="43.77982" lon="7.08361">
        <ele>670.79998779297</ele>
        <time>2023-08-02T08:38:06.000Z</time>
      </trkpt>
      <trkpt lat="43.77982" lon="7.0836">
        <ele>670.79998779297</ele>
        <time>2023-08-02T08:38:07.000Z</time>
      </trkpt>
      <trkpt lat="43.77982" lon="7.08361">
        <ele>670.79998779297</ele>
        <time>2023-08-02T08:38:08.000Z</time>
      </trkpt>
      <trkpt lat="43.77982" lon="7.08361">
        <ele>670.79998779297</ele>
        <time>2023-08-02T08:38:09.000Z</time>
      </trkpt>
      <trkpt lat="43.77983" lon="7.08363">
        <ele>670.79998779297</ele>
        <time>2023-08-02T08:38:10.000Z</time>
      </trkpt>
      <trkpt lat="43.77983" lon="7.08366">
        <ele>671</ele>
        <time>2023-08-02T08:38:11.000Z</time>
      </trkpt>
      <trkpt lat="43.77985" lon="7.08369">
        <ele>671</ele>
        <time>2023-08-02T08:38:12.000Z</time>
      </trkpt>
      <trkpt lat="43.77986" lon="7.08372">
        <ele>671.20001220703</ele>
        <time>2023-08-02T08:38:13.000Z</time>
      </trkpt>
      <trkpt lat="43.77987" lon="7.08373">
        <ele>671.20001220703</ele>
        <time>2023-08-02T08:38:14.000Z</time>
      </trkpt>
      <trkpt lat="43.77987" lon="7.08376">
        <ele>671.40002441406</ele>
        <time>2023-08-02T08:38:15.000Z</time>
      </trkpt>
      <trkpt lat="43.77987" lon="7.08378">
        <ele>671.40002441406</ele>
        <time>2023-08-02T08:38:16.000Z</time>
      </trkpt>
      <trkpt lat="43.77986" lon="7.0838">
        <ele>671.40002441406</ele>
        <time>2023-08-02T08:38:17.000Z</time>
      </trkpt>
      <trkpt lat="43.77985" lon="7.08382">
        <ele>671.40002441406</ele>
        <time>2023-08-02T08:38:18.000Z</time>
      </trkpt>
      <trkpt lat="43.77985" lon="7.08385">
        <ele>671.40002441406</ele>
        <time>2023-08-02T08:38:19.000Z</time>
      </trkpt>
      <trkpt lat="43.77986" lon="7.08388">
        <ele>671.40002441406</ele>
        <time>2023-08-02T08:38:20.000Z</time>
      </trkpt>
      <trkpt lat="43.77988" lon="7.08391">
        <ele>671.40002441406</ele>
        <time>2023-08-02T08:38:21.000Z</time>
      </trkpt>
      <trkpt lat="43.7799" lon="7.08394">
        <ele>670.59997558594</ele>
        <time>2023-08-02T08:38:22.000Z</time>
      </trkpt>
      <trkpt lat="43.77992" lon="7.08397">
        <ele>669.79998779297</ele>
        <time>2023-08-02T08:38:23.000Z</time>
      </trkpt>
      <trkpt lat="43.77995" lon="7.08401">
        <ele>669.59997558594</ele>
        <time>2023-08-02T08:38:24.000Z</time>
      </trkpt>
      <trkpt lat="43.77997" lon="7.08405">
        <ele>669.59997558594</ele>
        <time>2023-08-02T08:38:25.000Z</time>
      </trkpt>
      <trkpt lat="43.77999" lon="7.08409">
        <ele>669.59997558594</ele>
        <time>2023-08-02T08:38:26.000Z</time>
      </trkpt>
      <trkpt lat="43.78" lon="7.08413">
        <ele>669.40002441406</ele>
        <time>2023-08-02T08:38:27.000Z</time>
      </trkpt>
      <trkpt lat="43.77999" lon="7.08417">
        <ele>669.40002441406</ele>
        <time>2023-08-02T08:38:28.000Z</time>
      </trkpt>
      <trkpt lat="43.77999" lon="7.08419">
        <ele>669.40002441406</ele>
        <time>2023-08-02T08:38:29.000Z</time>
      </trkpt>
      <trkpt lat="43.77999" lon="7.08421">
        <ele>669.40002441406</ele>
        <time>2023-08-02T08:38:30.000Z</time>
      </trkpt>
      <trkpt lat="43.77997" lon="7.08422">
        <ele>669.40002441406</ele>
        <time>2023-08-02T08:38:31.000Z</time>
      </trkpt>
      <trkpt lat="43.77996" lon="7.08424">
        <ele>669.20001220703</ele>
        <time>2023-08-02T08:38:32.000Z</time>
      </trkpt>
      <trkpt lat="43.77994" lon="7.08427">
        <ele>669.20001220703</ele>
        <time>2023-08-02T08:38:33.000Z</time>
      </trkpt>
      <trkpt lat="43.77994" lon="7.0843">
        <ele>669.20001220703</ele>
        <time>2023-08-02T08:38:34.000Z</time>
      </trkpt>
      <trkpt lat="43.77993" lon="7.08432">
        <ele>669</ele>
        <time>2023-08-02T08:38:35.000Z</time>
      </trkpt>
      <trkpt lat="43.77993" lon="7.08435">
        <ele>669</ele>
        <time>2023-08-02T08:38:36.000Z</time>
      </trkpt>
      <trkpt lat="43.77991" lon="7.08438">
        <ele>668.79998779297</ele>
        <time>2023-08-02T08:38:37.000Z</time>
      </trkpt>
      <trkpt lat="43.77991" lon="7.08442">
        <ele>668.59997558594</ele>
        <time>2023-08-02T08:38:38.000Z</time>
      </trkpt>
      <trkpt lat="43.77991" lon="7.08445">
        <ele>668.59997558594</ele>
        <time>2023-08-02T08:38:39.000Z</time>
      </trkpt>
      <trkpt lat="43.77991" lon="7.08449">
        <ele>668.59997558594</ele>
        <time>2023-08-02T08:38:40.000Z</time>
      </trkpt>
      <trkpt lat="43.77991" lon="7.08452">
        <ele>668.59997558594</ele>
        <time>2023-08-02T08:38:41.000Z</time>
      </trkpt>
      <trkpt lat="43.77992" lon="7.08455">
        <ele>668.40002441406</ele>
        <time>2023-08-02T08:38:42.000Z</time>
      </trkpt>
      <trkpt lat="43.77992" lon="7.08459">
        <ele>668.40002441406</ele>
        <time>2023-08-02T08:38:43.000Z</time>
      </trkpt>
      <trkpt lat="43.77993" lon="7.08464">
        <ele>668.40002441406</ele>
        <time>2023-08-02T08:38:44.000Z</time>
      </trkpt>
      <trkpt lat="43.77994" lon="7.08469">
        <ele>668.20001220703</ele>
        <time>2023-08-02T08:38:45.000Z</time>
      </trkpt>
      <trkpt lat="43.77996" lon="7.08473">
        <ele>668.20001220703</ele>
        <time>2023-08-02T08:38:46.000Z</time>
      </trkpt>
      <trkpt lat="43.77997" lon="7.08476">
        <ele>668</ele>
        <time>2023-08-02T08:38:47.000Z</time>
      </trkpt>
      <trkpt lat="43.77996" lon="7.08479">
        <ele>668</ele>
        <time>2023-08-02T08:38:48.000Z</time>
      </trkpt>
      <trkpt lat="43.77995" lon="7.0848">
        <ele>667.79998779297</ele>
        <time>2023-08-02T08:38:49.000Z</time>
      </trkpt>
      <trkpt lat="43.77995" lon="7.0848">
        <ele>667.79998779297</ele>
        <time>2023-08-02T08:38:50.000Z</time>
      </trkpt>
      <trkpt lat="43.77995" lon="7.08481">
        <ele>667.79998779297</ele>
        <time>2023-08-02T08:38:51.000Z</time>
      </trkpt>
      <trkpt lat="43.77995" lon="7.08481">
        <ele>667.79998779297</ele>
        <time>2023-08-02T08:38:52.000Z</time>
      </trkpt>
      <trkpt lat="43.77995" lon="7.08481">
        <ele>667.59997558594</ele>
        <time>2023-08-02T08:38:53.000Z</time>
      </trkpt>
      <trkpt lat="43.77995" lon="7.08481">
        <ele>667.59997558594</ele>
        <time>2023-08-02T08:38:54.000Z</time>
      </trkpt>
      <trkpt lat="43.77995" lon="7.08481">
        <ele>667.59997558594</ele>
        <time>2023-08-02T08:38:55.000Z</time>
      </trkpt>
      <trkpt lat="43.77995" lon="7.08481">
        <ele>667.59997558594</ele>
        <time>2023-08-02T08:38:56.000Z</time>
      </trkpt>
      <trkpt lat="43.77995" lon="7.08481">
        <ele>667.59997558594</ele>
        <time>2023-08-02T08:38:57.000Z</time>
      </trkpt>
      <trkpt lat="43.77995" lon="7.08481">
        <ele>667.59997558594</ele>
        <time>2023-08-02T08:38:58.000Z</time>
      </trkpt>
      <trkpt lat="43.77995" lon="7.08481">
        <ele>667.59997558594</ele>
        <time>2023-08-02T08:38:59.000Z</time>
      </trkpt>
      <trkpt lat="43.77995" lon="7.08481">
        <ele>667.40002441406</ele>
        <time>2023-08-02T08:39:00.000Z</time>
      </trkpt>
      <trkpt lat="43.77995" lon="7.08481">
        <ele>667.40002441406</ele>
        <time>2023-08-02T08:39:01.000Z</time>
      </trkpt>
      <trkpt lat="43.77995" lon="7.08481">
        <ele>667.40002441406</ele>
        <time>2023-08-02T08:39:02.000Z</time>
      </trkpt>
      <trkpt lat="43.77995" lon="7.08481">
        <ele>667.40002441406</ele>
        <time>2023-08-02T08:39:03.000Z</time>
      </trkpt>
      <trkpt lat="43.77995" lon="7.08481">
        <ele>667.40002441406</ele>
        <time>2023-08-02T08:39:04.000Z</time>
      </trkpt>
      <trkpt lat="43.77995" lon="7.08481">
        <ele>667.40002441406</ele>
        <time>2023-08-02T08:39:05.000Z</time>
      </trkpt>
      <trkpt lat="43.77995" lon="7.08481">
        <ele>667.40002441406</ele>
        <time>2023-08-02T08:39:06.000Z</time>
      </trkpt>
      <trkpt lat="43.77995" lon="7.08481">
        <ele>667.40002441406</ele>
        <time>2023-08-02T08:39:07.000Z</time>
      </trkpt>
      <trkpt lat="43.77995" lon="7.08481">
        <ele>667.40002441406</ele>
        <time>2023-08-02T08:39:08.000Z</time>
      </trkpt>
      <trkpt lat="43.77995" lon="7.08481">
        <ele>667.40002441406</ele>
        <time>2023-08-02T08:39:09.000Z</time>
      </trkpt>
      <trkpt lat="43.77995" lon="7.08481">
        <ele>667.40002441406</ele>
        <time>2023-08-02T08:39:10.000Z</time>
      </trkpt>
      <trkpt lat="43.77995" lon="7.08481">
        <ele>667.40002441406</ele>
        <time>2023-08-02T08:39:11.000Z</time>
      </trkpt>
      <trkpt lat="43.77995" lon="7.08481">
        <ele>667.40002441406</ele>
        <time>2023-08-02T08:39:12.000Z</time>
      </trkpt>
      <trkpt lat="43.77995" lon="7.08481">
        <ele>667.40002441406</ele>
        <time>2023-08-02T08:39:13.000Z</time>
      </trkpt>
      <trkpt lat="43.77995" lon="7.08481">
        <ele>667.40002441406</ele>
        <time>2023-08-02T08:39:14.000Z</time>
      </trkpt>
      <trkpt lat="43.77995" lon="7.08481">
        <ele>667.40002441406</ele>
        <time>2023-08-02T08:39:15.000Z</time>
      </trkpt>
      <trkpt lat="43.77995" lon="7.08481">
        <ele>667.40002441406</ele>
        <time>2023-08-02T08:39:16.000Z</time>
      </trkpt>
      <trkpt lat="43.77995" lon="7.08481">
        <ele>667.40002441406</ele>
        <time>2023-08-02T08:39:17.000Z</time>
      </trkpt>
      <trkpt lat="43.77995" lon="7.08481">
        <ele>667.40002441406</ele>
        <time>2023-08-02T08:39:18.000Z</time>
      </trkpt>
      <trkpt lat="43.77995" lon="7.08481">
        <ele>667.20001220703</ele>
        <time>2023-08-02T08:39:19.000Z</time>
      </trkpt>
      <trkpt lat="43.77995" lon="7.08481">
        <ele>667.20001220703</ele>
        <time>2023-08-02T08:39:20.000Z</time>
      </trkpt>
      <trkpt lat="43.77995" lon="7.08481">
        <ele>667.20001220703</ele>
        <time>2023-08-02T08:39:21.000Z</time>
      </trkpt>
      <trkpt lat="43.77995" lon="7.08481">
        <ele>667.20001220703</ele>
        <time>2023-08-02T08:39:22.000Z</time>
      </trkpt>
      <trkpt lat="43.77995" lon="7.08481">
        <ele>667.20001220703</ele>
        <time>2023-08-02T08:39:23.000Z</time>
      </trkpt>
      <trkpt lat="43.77995" lon="7.08481">
        <ele>667.20001220703</ele>
        <time>2023-08-02T08:39:24.000Z</time>
      </trkpt>
      <trkpt lat="43.77995" lon="7.08481">
        <ele>667.20001220703</ele>
        <time>2023-08-02T08:39:25.000Z</time>
      </trkpt>
      <trkpt lat="43.77995" lon="7.08481">
        <ele>667.20001220703</ele>
        <time>2023-08-02T08:39:26.000Z</time>
      </trkpt>
      <trkpt lat="43.77995" lon="7.08481">
        <ele>667.20001220703</ele>
        <time>2023-08-02T08:39:27.000Z</time>
      </trkpt>
      <trkpt lat="43.77995" lon="7.08481">
        <ele>667.40002441406</ele>
        <time>2023-08-02T08:39:28.000Z</time>
      </trkpt>
      <trkpt lat="43.77995" lon="7.08481">
        <ele>667.40002441406</ele>
        <time>2023-08-02T08:39:29.000Z</time>
      </trkpt>
      <trkpt lat="43.77995" lon="7.08481">
        <ele>667.40002441406</ele>
        <time>2023-08-02T08:39:30.000Z</time>
      </trkpt>
      <trkpt lat="43.77995" lon="7.08481">
        <ele>667.40002441406</ele>
        <time>2023-08-02T08:39:31.000Z</time>
      </trkpt>
      <trkpt lat="43.77995" lon="7.08481">
        <ele>667.40002441406</ele>
        <time>2023-08-02T08:39:32.000Z</time>
      </trkpt>
      <trkpt lat="43.77995" lon="7.08481">
        <ele>667.40002441406</ele>
        <time>2023-08-02T08:39:33.000Z</time>
      </trkpt>
      <trkpt lat="43.77995" lon="7.08481">
        <ele>667.40002441406</ele>
        <time>2023-08-02T08:39:34.000Z</time>
      </trkpt>
      <trkpt lat="43.77995" lon="7.08481">
        <ele>667.40002441406</ele>
        <time>2023-08-02T08:39:35.000Z</time>
      </trkpt>
      <trkpt lat="43.77995" lon="7.08481">
        <ele>667.40002441406</ele>
        <time>2023-08-02T08:39:36.000Z</time>
      </trkpt>
      <trkpt lat="43.77995" lon="7.08481">
        <ele>667.40002441406</ele>
        <time>2023-08-02T08:39:37.000Z</time>
      </trkpt>
      <trkpt lat="43.77995" lon="7.08481">
        <ele>667.40002441406</ele>
        <time>2023-08-02T08:39:38.000Z</time>
      </trkpt>
      <trkpt lat="43.77995" lon="7.08481">
        <ele>667.40002441406</ele>
        <time>2023-08-02T08:39:39.000Z</time>
      </trkpt>
      <trkpt lat="43.77995" lon="7.08481">
        <ele>667.20001220703</ele>
        <time>2023-08-02T08:39:40.000Z</time>
      </trkpt>
      <trkpt lat="43.77995" lon="7.08481">
        <ele>667.20001220703</ele>
        <time>2023-08-02T08:39:41.000Z</time>
      </trkpt>
      <trkpt lat="43.77995" lon="7.08484">
        <ele>667.20001220703</ele>
        <time>2023-08-02T08:39:42.000Z</time>
      </trkpt>
      <trkpt lat="43.77994" lon="7.08486">
        <ele>667.20001220703</ele>
        <time>2023-08-02T08:39:43.000Z</time>
      </trkpt>
      <trkpt lat="43.77993" lon="7.08489">
        <ele>667.20001220703</ele>
        <time>2023-08-02T08:39:44.000Z</time>
      </trkpt>
      <trkpt lat="43.77993" lon="7.08493">
        <ele>667.20001220703</ele>
        <time>2023-08-02T08:39:45.000Z</time>
      </trkpt>
      <trkpt lat="43.77992" lon="7.08496">
        <ele>667.20001220703</ele>
        <time>2023-08-02T08:39:46.000Z</time>
      </trkpt>
      <trkpt lat="43.77991" lon="7.08498">
        <ele>667.20001220703</ele>
        <time>2023-08-02T08:39:47.000Z</time>
      </trkpt>
      <trkpt lat="43.7799" lon="7.08501">
        <ele>667.20001220703</ele>
        <time>2023-08-02T08:39:48.000Z</time>
      </trkpt>
      <trkpt lat="43.77988" lon="7.08504">
        <ele>667.20001220703</ele>
        <time>2023-08-02T08:39:49.000Z</time>
      </trkpt>
      <trkpt lat="43.77987" lon="7.08507">
        <ele>667.20001220703</ele>
        <time>2023-08-02T08:39:50.000Z</time>
      </trkpt>
      <trkpt lat="43.77985" lon="7.08509">
        <ele>667.20001220703</ele>
        <time>2023-08-02T08:39:51.000Z</time>
      </trkpt>
      <trkpt lat="43.77984" lon="7.08512">
        <ele>667.20001220703</ele>
        <time>2023-08-02T08:39:52.000Z</time>
      </trkpt>
      <trkpt lat="43.77983" lon="7.08516">
        <ele>667.20001220703</ele>
        <time>2023-08-02T08:39:53.000Z</time>
      </trkpt>
      <trkpt lat="43.77981" lon="7.08521">
        <ele>667.20001220703</ele>
        <time>2023-08-02T08:39:54.000Z</time>
      </trkpt>
      <trkpt lat="43.7798" lon="7.08525">
        <ele>667.20001220703</ele>
        <time>2023-08-02T08:39:55.000Z</time>
      </trkpt>
      <trkpt lat="43.77978" lon="7.0853">
        <ele>667.20001220703</ele>
        <time>2023-08-02T08:39:56.000Z</time>
      </trkpt>
      <trkpt lat="43.77977" lon="7.08535">
        <ele>667.20001220703</ele>
        <time>2023-08-02T08:39:57.000Z</time>
      </trkpt>
      <trkpt lat="43.77976" lon="7.08541">
        <ele>667.20001220703</ele>
        <time>2023-08-02T08:39:58.000Z</time>
      </trkpt>
      <trkpt lat="43.77976" lon="7.08545">
        <ele>667</ele>
        <time>2023-08-02T08:39:59.000Z</time>
      </trkpt>
      <trkpt lat="43.77976" lon="7.08549">
        <ele>667</ele>
        <time>2023-08-02T08:40:00.000Z</time>
      </trkpt>
      <trkpt lat="43.77976" lon="7.08554">
        <ele>667</ele>
        <time>2023-08-02T08:40:01.000Z</time>
      </trkpt>
      <trkpt lat="43.77978" lon="7.08559">
        <ele>667</ele>
        <time>2023-08-02T08:40:02.000Z</time>
      </trkpt>
      <trkpt lat="43.77981" lon="7.08563">
        <ele>666.79998779297</ele>
        <time>2023-08-02T08:40:03.000Z</time>
      </trkpt>
      <trkpt lat="43.77984" lon="7.08568">
        <ele>666.79998779297</ele>
        <time>2023-08-02T08:40:04.000Z</time>
      </trkpt>
      <trkpt lat="43.77986" lon="7.08572">
        <ele>666.79998779297</ele>
        <time>2023-08-02T08:40:05.000Z</time>
      </trkpt>
      <trkpt lat="43.77989" lon="7.08578">
        <ele>666.79998779297</ele>
        <time>2023-08-02T08:40:06.000Z</time>
      </trkpt>
      <trkpt lat="43.77992" lon="7.08583">
        <ele>666.79998779297</ele>
        <time>2023-08-02T08:40:07.000Z</time>
      </trkpt>
      <trkpt lat="43.77995" lon="7.08589">
        <ele>666.59997558594</ele>
        <time>2023-08-02T08:40:08.000Z</time>
      </trkpt>
      <trkpt lat="43.77999" lon="7.08596">
        <ele>666.59997558594</ele>
        <time>2023-08-02T08:40:09.000Z</time>
      </trkpt>
      <trkpt lat="43.78003" lon="7.08604">
        <ele>666</ele>
        <time>2023-08-02T08:40:10.000Z</time>
      </trkpt>
      <trkpt lat="43.78007" lon="7.0861">
        <ele>665.40002441406</ele>
        <time>2023-08-02T08:40:11.000Z</time>
      </trkpt>
      <trkpt lat="43.78011" lon="7.08614">
        <ele>665</ele>
        <time>2023-08-02T08:40:12.000Z</time>
      </trkpt>
      <trkpt lat="43.78016" lon="7.08615">
        <ele>664.40002441406</ele>
        <time>2023-08-02T08:40:13.000Z</time>
      </trkpt>
      <trkpt lat="43.78022" lon="7.08616">
        <ele>664.40002441406</ele>
        <time>2023-08-02T08:40:14.000Z</time>
      </trkpt>
      <trkpt lat="43.78027" lon="7.08617">
        <ele>664</ele>
        <time>2023-08-02T08:40:15.000Z</time>
      </trkpt>
      <trkpt lat="43.78033" lon="7.08616">
        <ele>663.79998779297</ele>
        <time>2023-08-02T08:40:16.000Z</time>
      </trkpt>
      <trkpt lat="43.7804" lon="7.08617">
        <ele>663.20001220703</ele>
        <time>2023-08-02T08:40:17.000Z</time>
      </trkpt>
      <trkpt lat="43.78046" lon="7.08617">
        <ele>662.79998779297</ele>
        <time>2023-08-02T08:40:18.000Z</time>
      </trkpt>
      <trkpt lat="43.78052" lon="7.08619">
        <ele>662.40002441406</ele>
        <time>2023-08-02T08:40:19.000Z</time>
      </trkpt>
      <trkpt lat="43.78057" lon="7.0862">
        <ele>662</ele>
        <time>2023-08-02T08:40:20.000Z</time>
      </trkpt>
      <trkpt lat="43.78061" lon="7.08623">
        <ele>661.79998779297</ele>
        <time>2023-08-02T08:40:21.000Z</time>
      </trkpt>
      <trkpt lat="43.78064" lon="7.08628">
        <ele>661.40002441406</ele>
        <time>2023-08-02T08:40:22.000Z</time>
      </trkpt>
      <trkpt lat="43.78065" lon="7.08633">
        <ele>661.40002441406</ele>
        <time>2023-08-02T08:40:23.000Z</time>
      </trkpt>
      <trkpt lat="43.78067" lon="7.0864">
        <ele>661.20001220703</ele>
        <time>2023-08-02T08:40:24.000Z</time>
      </trkpt>
      <trkpt lat="43.7807" lon="7.08645">
        <ele>661</ele>
        <time>2023-08-02T08:40:25.000Z</time>
      </trkpt>
      <trkpt lat="43.78072" lon="7.08649">
        <ele>660.79998779297</ele>
        <time>2023-08-02T08:40:26.000Z</time>
      </trkpt>
      <trkpt lat="43.78074" lon="7.08654">
        <ele>660.20001220703</ele>
        <time>2023-08-02T08:40:27.000Z</time>
      </trkpt>
      <trkpt lat="43.78074" lon="7.08659">
        <ele>660.20001220703</ele>
        <time>2023-08-02T08:40:28.000Z</time>
      </trkpt>
      <trkpt lat="43.78075" lon="7.08664">
        <ele>660.20001220703</ele>
        <time>2023-08-02T08:40:29.000Z</time>
      </trkpt>
      <trkpt lat="43.78076" lon="7.08668">
        <ele>660.20001220703</ele>
        <time>2023-08-02T08:40:30.000Z</time>
      </trkpt>
      <trkpt lat="43.78077" lon="7.08674">
        <ele>660</ele>
        <time>2023-08-02T08:40:31.000Z</time>
      </trkpt>
      <trkpt lat="43.78077" lon="7.08679">
        <ele>660</ele>
        <time>2023-08-02T08:40:32.000Z</time>
      </trkpt>
      <trkpt lat="43.78076" lon="7.08684">
        <ele>660</ele>
        <time>2023-08-02T08:40:33.000Z</time>
      </trkpt>
      <trkpt lat="43.78076" lon="7.0869">
        <ele>660</ele>
        <time>2023-08-02T08:40:34.000Z</time>
      </trkpt>
      <trkpt lat="43.78077" lon="7.08695">
        <ele>660</ele>
        <time>2023-08-02T08:40:35.000Z</time>
      </trkpt>
      <trkpt lat="43.78078" lon="7.08699">
        <ele>659.59997558594</ele>
        <time>2023-08-02T08:40:36.000Z</time>
      </trkpt>
      <trkpt lat="43.7808" lon="7.08703">
        <ele>659.59997558594</ele>
        <time>2023-08-02T08:40:37.000Z</time>
      </trkpt>
      <trkpt lat="43.7808" lon="7.08708">
        <ele>659.59997558594</ele>
        <time>2023-08-02T08:40:38.000Z</time>
      </trkpt>
      <trkpt lat="43.78079" lon="7.08713">
        <ele>659.59997558594</ele>
        <time>2023-08-02T08:40:39.000Z</time>
      </trkpt>
      <trkpt lat="43.78079" lon="7.0872">
        <ele>658.59997558594</ele>
        <time>2023-08-02T08:40:40.000Z</time>
      </trkpt>
      <trkpt lat="43.78079" lon="7.08726">
        <ele>658.59997558594</ele>
        <time>2023-08-02T08:40:41.000Z</time>
      </trkpt>
      <trkpt lat="43.78079" lon="7.08731">
        <ele>658.59997558594</ele>
        <time>2023-08-02T08:40:42.000Z</time>
      </trkpt>
      <trkpt lat="43.7808" lon="7.08736">
        <ele>658.40002441406</ele>
        <time>2023-08-02T08:40:43.000Z</time>
      </trkpt>
      <trkpt lat="43.78081" lon="7.0874">
        <ele>658.40002441406</ele>
        <time>2023-08-02T08:40:44.000Z</time>
      </trkpt>
      <trkpt lat="43.78082" lon="7.08744">
        <ele>658.59997558594</ele>
        <time>2023-08-02T08:40:45.000Z</time>
      </trkpt>
      <trkpt lat="43.78083" lon="7.08746">
        <ele>659.20001220703</ele>
        <time>2023-08-02T08:40:46.000Z</time>
      </trkpt>
      <trkpt lat="43.78084" lon="7.0875">
        <ele>659.40002441406</ele>
        <time>2023-08-02T08:40:47.000Z</time>
      </trkpt>
      <trkpt lat="43.78084" lon="7.08753">
        <ele>659.79998779297</ele>
        <time>2023-08-02T08:40:48.000Z</time>
      </trkpt>
      <trkpt lat="43.78083" lon="7.08756">
        <ele>660.20001220703</ele>
        <time>2023-08-02T08:40:49.000Z</time>
      </trkpt>
      <trkpt lat="43.78083" lon="7.0876">
        <ele>660.20001220703</ele>
        <time>2023-08-02T08:40:50.000Z</time>
      </trkpt>
      <trkpt lat="43.78084" lon="7.08763">
        <ele>660.20001220703</ele>
        <time>2023-08-02T08:40:51.000Z</time>
      </trkpt>
      <trkpt lat="43.78085" lon="7.08766">
        <ele>660.40002441406</ele>
        <time>2023-08-02T08:40:52.000Z</time>
      </trkpt>
      <trkpt lat="43.78086" lon="7.08769">
        <ele>660.40002441406</ele>
        <time>2023-08-02T08:40:53.000Z</time>
      </trkpt>
      <trkpt lat="43.78088" lon="7.08772">
        <ele>660.20001220703</ele>
        <time>2023-08-02T08:40:54.000Z</time>
      </trkpt>
      <trkpt lat="43.7809" lon="7.08774">
        <ele>660.20001220703</ele>
        <time>2023-08-02T08:40:55.000Z</time>
      </trkpt>
      <trkpt lat="43.78092" lon="7.08776">
        <ele>660.20001220703</ele>
        <time>2023-08-02T08:40:56.000Z</time>
      </trkpt>
      <trkpt lat="43.78096" lon="7.08777">
        <ele>660.20001220703</ele>
        <time>2023-08-02T08:40:57.000Z</time>
      </trkpt>
      <trkpt lat="43.781" lon="7.08779">
        <ele>659.79998779297</ele>
        <time>2023-08-02T08:40:58.000Z</time>
      </trkpt>
      <trkpt lat="43.78103" lon="7.08782">
        <ele>659.79998779297</ele>
        <time>2023-08-02T08:40:59.000Z</time>
      </trkpt>
      <trkpt lat="43.78106" lon="7.08786">
        <ele>659.40002441406</ele>
        <time>2023-08-02T08:41:00.000Z</time>
      </trkpt>
      <trkpt lat="43.78106" lon="7.08792">
        <ele>659.20001220703</ele>
        <time>2023-08-02T08:41:01.000Z</time>
      </trkpt>
      <trkpt lat="43.78108" lon="7.08798">
        <ele>658.79998779297</ele>
        <time>2023-08-02T08:41:02.000Z</time>
      </trkpt>
      <trkpt lat="43.7811" lon="7.08801">
        <ele>657.79998779297</ele>
        <time>2023-08-02T08:41:03.000Z</time>
      </trkpt>
      <trkpt lat="43.78112" lon="7.08803">
        <ele>657.79998779297</ele>
        <time>2023-08-02T08:41:04.000Z</time>
      </trkpt>
      <trkpt lat="43.78113" lon="7.08804">
        <ele>657.59997558594</ele>
        <time>2023-08-02T08:41:05.000Z</time>
      </trkpt>
      <trkpt lat="43.78115" lon="7.08805">
        <ele>657.20001220703</ele>
        <time>2023-08-02T08:41:06.000Z</time>
      </trkpt>
      <trkpt lat="43.78116" lon="7.08806">
        <ele>657</ele>
        <time>2023-08-02T08:41:07.000Z</time>
      </trkpt>
      <trkpt lat="43.78116" lon="7.08806">
        <ele>656.59997558594</ele>
        <time>2023-08-02T08:41:08.000Z</time>
      </trkpt>
      <trkpt lat="43.78118" lon="7.08806">
        <ele>656.40002441406</ele>
        <time>2023-08-02T08:41:09.000Z</time>
      </trkpt>
      <trkpt lat="43.7812" lon="7.08804">
        <ele>656.40002441406</ele>
        <time>2023-08-02T08:41:10.000Z</time>
      </trkpt>
      <trkpt lat="43.78123" lon="7.08802">
        <ele>656.20001220703</ele>
        <time>2023-08-02T08:41:11.000Z</time>
      </trkpt>
      <trkpt lat="43.78128" lon="7.08799">
        <ele>656</ele>
        <time>2023-08-02T08:41:12.000Z</time>
      </trkpt>
      <trkpt lat="43.78133" lon="7.088">
        <ele>655.59997558594</ele>
        <time>2023-08-02T08:41:13.000Z</time>
      </trkpt>
      <trkpt lat="43.78136" lon="7.08802">
        <ele>655.20001220703</ele>
        <time>2023-08-02T08:41:14.000Z</time>
      </trkpt>
      <trkpt lat="43.78137" lon="7.08805">
        <ele>654.40002441406</ele>
        <time>2023-08-02T08:41:15.000Z</time>
      </trkpt>
      <trkpt lat="43.78138" lon="7.08808">
        <ele>654.40002441406</ele>
        <time>2023-08-02T08:41:16.000Z</time>
      </trkpt>
      <trkpt lat="43.78138" lon="7.0881">
        <ele>654.40002441406</ele>
        <time>2023-08-02T08:41:17.000Z</time>
      </trkpt>
      <trkpt lat="43.78138" lon="7.08812">
        <ele>654.20001220703</ele>
        <time>2023-08-02T08:41:18.000Z</time>
      </trkpt>
      <trkpt lat="43.78138" lon="7.08815">
        <ele>654.59997558594</ele>
        <time>2023-08-02T08:41:19.000Z</time>
      </trkpt>
      <trkpt lat="43.78138" lon="7.08817">
        <ele>654.79998779297</ele>
        <time>2023-08-02T08:41:20.000Z</time>
      </trkpt>
      <trkpt lat="43.78137" lon="7.08821">
        <ele>654.79998779297</ele>
        <time>2023-08-02T08:41:21.000Z</time>
      </trkpt>
      <trkpt lat="43.78139" lon="7.08824">
        <ele>655</ele>
        <time>2023-08-02T08:41:22.000Z</time>
      </trkpt>
      <trkpt lat="43.78141" lon="7.08825">
        <ele>655</ele>
        <time>2023-08-02T08:41:23.000Z</time>
      </trkpt>
      <trkpt lat="43.78144" lon="7.08825">
        <ele>655</ele>
        <time>2023-08-02T08:41:24.000Z</time>
      </trkpt>
      <trkpt lat="43.78145" lon="7.08824">
        <ele>655.20001220703</ele>
        <time>2023-08-02T08:41:25.000Z</time>
      </trkpt>
      <trkpt lat="43.78147" lon="7.08823">
        <ele>655.59997558594</ele>
        <time>2023-08-02T08:41:26.000Z</time>
      </trkpt>
      <trkpt lat="43.78148" lon="7.08821">
        <ele>656</ele>
        <time>2023-08-02T08:41:27.000Z</time>
      </trkpt>
      <trkpt lat="43.78148" lon="7.08819">
        <ele>656</ele>
        <time>2023-08-02T08:41:28.000Z</time>
      </trkpt>
      <trkpt lat="43.78149" lon="7.08817">
        <ele>656.40002441406</ele>
        <time>2023-08-02T08:41:29.000Z</time>
      </trkpt>
      <trkpt lat="43.7815" lon="7.08814">
        <ele>656.79998779297</ele>
        <time>2023-08-02T08:41:30.000Z</time>
      </trkpt>
      <trkpt lat="43.78151" lon="7.08812">
        <ele>657.20001220703</ele>
        <time>2023-08-02T08:41:31.000Z</time>
      </trkpt>
      <trkpt lat="43.78152" lon="7.08811">
        <ele>657.40002441406</ele>
        <time>2023-08-02T08:41:32.000Z</time>
      </trkpt>
      <trkpt lat="43.78152" lon="7.08809">
        <ele>657.59997558594</ele>
        <time>2023-08-02T08:41:33.000Z</time>
      </trkpt>
      <trkpt lat="43.78153" lon="7.08809">
        <ele>657.79998779297</ele>
        <time>2023-08-02T08:41:34.000Z</time>
      </trkpt>
      <trkpt lat="43.78153" lon="7.08809">
        <ele>657.79998779297</ele>
        <time>2023-08-02T08:41:35.000Z</time>
      </trkpt>
      <trkpt lat="43.78153" lon="7.08809">
        <ele>657.79998779297</ele>
        <time>2023-08-02T08:41:36.000Z</time>
      </trkpt>
      <trkpt lat="43.78153" lon="7.08809">
        <ele>657.79998779297</ele>
        <time>2023-08-02T08:41:37.000Z</time>
      </trkpt>
      <trkpt lat="43.78153" lon="7.08809">
        <ele>657.79998779297</ele>
        <time>2023-08-02T08:41:38.000Z</time>
      </trkpt>
      <trkpt lat="43.78153" lon="7.08809">
        <ele>657.79998779297</ele>
        <time>2023-08-02T08:41:39.000Z</time>
      </trkpt>
      <trkpt lat="43.78153" lon="7.08809">
        <ele>657.79998779297</ele>
        <time>2023-08-02T08:41:40.000Z</time>
      </trkpt>
      <trkpt lat="43.78153" lon="7.08809">
        <ele>657.79998779297</ele>
        <time>2023-08-02T08:41:41.000Z</time>
      </trkpt>
      <trkpt lat="43.78153" lon="7.08809">
        <ele>657.79998779297</ele>
        <time>2023-08-02T08:41:42.000Z</time>
      </trkpt>
      <trkpt lat="43.78153" lon="7.08809">
        <ele>657.79998779297</ele>
        <time>2023-08-02T08:41:43.000Z</time>
      </trkpt>
      <trkpt lat="43.78153" lon="7.0881">
        <ele>657.79998779297</ele>
        <time>2023-08-02T08:41:44.000Z</time>
      </trkpt>
      <trkpt lat="43.78153" lon="7.0881">
        <ele>657.79998779297</ele>
        <time>2023-08-02T08:41:45.000Z</time>
      </trkpt>
      <trkpt lat="43.78153" lon="7.0881">
        <ele>657.79998779297</ele>
        <time>2023-08-02T08:41:46.000Z</time>
      </trkpt>
      <trkpt lat="43.78154" lon="7.0881">
        <ele>657.79998779297</ele>
        <time>2023-08-02T08:41:47.000Z</time>
      </trkpt>
      <trkpt lat="43.78153" lon="7.08809">
        <ele>657.59997558594</ele>
        <time>2023-08-02T08:41:48.000Z</time>
      </trkpt>
      <trkpt lat="43.78154" lon="7.08806">
        <ele>657.59997558594</ele>
        <time>2023-08-02T08:41:49.000Z</time>
      </trkpt>
      <trkpt lat="43.78155" lon="7.08803">
        <ele>657.59997558594</ele>
        <time>2023-08-02T08:41:50.000Z</time>
      </trkpt>
      <trkpt lat="43.78155" lon="7.08801">
        <ele>657.40002441406</ele>
        <time>2023-08-02T08:41:51.000Z</time>
      </trkpt>
      <trkpt lat="43.78155" lon="7.08801">
        <ele>657.40002441406</ele>
        <time>2023-08-02T08:41:52.000Z</time>
      </trkpt>
      <trkpt lat="43.78155" lon="7.08801">
        <ele>657.40002441406</ele>
        <time>2023-08-02T08:41:53.000Z</time>
      </trkpt>
      <trkpt lat="43.78155" lon="7.08801">
        <ele>657.40002441406</ele>
        <time>2023-08-02T08:41:54.000Z</time>
      </trkpt>
      <trkpt lat="43.78155" lon="7.08801">
        <ele>657.40002441406</ele>
        <time>2023-08-02T08:41:55.000Z</time>
      </trkpt>
      <trkpt lat="43.78155" lon="7.08801">
        <ele>657.40002441406</ele>
        <time>2023-08-02T08:41:56.000Z</time>
      </trkpt>
      <trkpt lat="43.78155" lon="7.08801">
        <ele>657.40002441406</ele>
        <time>2023-08-02T08:41:57.000Z</time>
      </trkpt>
      <trkpt lat="43.78155" lon="7.08801">
        <ele>657.40002441406</ele>
        <time>2023-08-02T08:41:58.000Z</time>
      </trkpt>
      <trkpt lat="43.78155" lon="7.08801">
        <ele>657.40002441406</ele>
        <time>2023-08-02T08:41:59.000Z</time>
      </trkpt>
      <trkpt lat="43.78155" lon="7.08801">
        <ele>657.40002441406</ele>
        <time>2023-08-02T08:42:00.000Z</time>
      </trkpt>
      <trkpt lat="43.78155" lon="7.08801">
        <ele>657.40002441406</ele>
        <time>2023-08-02T08:42:01.000Z</time>
      </trkpt>
      <trkpt lat="43.78155" lon="7.08801">
        <ele>657.40002441406</ele>
        <time>2023-08-02T08:42:02.000Z</time>
      </trkpt>
      <trkpt lat="43.78155" lon="7.08801">
        <ele>657.40002441406</ele>
        <time>2023-08-02T08:42:03.000Z</time>
      </trkpt>
      <trkpt lat="43.78155" lon="7.08801">
        <ele>657.20001220703</ele>
        <time>2023-08-02T08:42:04.000Z</time>
      </trkpt>
      <trkpt lat="43.78155" lon="7.08801">
        <ele>657.40002441406</ele>
        <time>2023-08-02T08:42:05.000Z</time>
      </trkpt>
      <trkpt lat="43.78154" lon="7.08801">
        <ele>657.40002441406</ele>
        <time>2023-08-02T08:42:06.000Z</time>
      </trkpt>
      <trkpt lat="43.78154" lon="7.08801">
        <ele>657.40002441406</ele>
        <time>2023-08-02T08:42:07.000Z</time>
      </trkpt>
      <trkpt lat="43.78154" lon="7.08801">
        <ele>657.40002441406</ele>
        <time>2023-08-02T08:42:08.000Z</time>
      </trkpt>
      <trkpt lat="43.78154" lon="7.08801">
        <ele>657.40002441406</ele>
        <time>2023-08-02T08:42:09.000Z</time>
      </trkpt>
      <trkpt lat="43.78154" lon="7.08801">
        <ele>657.40002441406</ele>
        <time>2023-08-02T08:42:10.000Z</time>
      </trkpt>
      <trkpt lat="43.78154" lon="7.08801">
        <ele>657.40002441406</ele>
        <time>2023-08-02T08:42:11.000Z</time>
      </trkpt>
      <trkpt lat="43.78154" lon="7.08801">
        <ele>657.40002441406</ele>
        <time>2023-08-02T08:42:12.000Z</time>
      </trkpt>
      <trkpt lat="43.78154" lon="7.08801">
        <ele>657.40002441406</ele>
        <time>2023-08-02T08:42:13.000Z</time>
      </trkpt>
      <trkpt lat="43.78154" lon="7.08801">
        <ele>657.20001220703</ele>
        <time>2023-08-02T08:42:14.000Z</time>
      </trkpt>
      <trkpt lat="43.78154" lon="7.08801">
        <ele>657.20001220703</ele>
        <time>2023-08-02T08:42:15.000Z</time>
      </trkpt>
      <trkpt lat="43.78154" lon="7.08801">
        <ele>657.20001220703</ele>
        <time>2023-08-02T08:42:16.000Z</time>
      </trkpt>
      <trkpt lat="43.78154" lon="7.08801">
        <ele>657.20001220703</ele>
        <time>2023-08-02T08:42:17.000Z</time>
      </trkpt>
      <trkpt lat="43.78154" lon="7.08801">
        <ele>657.20001220703</ele>
        <time>2023-08-02T08:42:18.000Z</time>
      </trkpt>
      <trkpt lat="43.78154" lon="7.08801">
        <ele>656.79998779297</ele>
        <time>2023-08-02T08:42:19.000Z</time>
      </trkpt>
      <trkpt lat="43.78153" lon="7.088">
        <ele>656.59997558594</ele>
        <time>2023-08-02T08:42:20.000Z</time>
      </trkpt>
      <trkpt lat="43.78153" lon="7.088">
        <ele>656.59997558594</ele>
        <time>2023-08-02T08:42:21.000Z</time>
      </trkpt>
      <trkpt lat="43.78153" lon="7.088">
        <ele>656.40002441406</ele>
        <time>2023-08-02T08:42:22.000Z</time>
      </trkpt>
      <trkpt lat="43.78153" lon="7.088">
        <ele>656.40002441406</ele>
        <time>2023-08-02T08:42:23.000Z</time>
      </trkpt>
      <trkpt lat="43.78153" lon="7.088">
        <ele>656.40002441406</ele>
        <time>2023-08-02T08:42:24.000Z</time>
      </trkpt>
      <trkpt lat="43.78153" lon="7.088">
        <ele>656.59997558594</ele>
        <time>2023-08-02T08:42:25.000Z</time>
      </trkpt>
      <trkpt lat="43.78152" lon="7.08798">
        <ele>656.59997558594</ele>
        <time>2023-08-02T08:42:26.000Z</time>
      </trkpt>
      <trkpt lat="43.78151" lon="7.08797">
        <ele>656.79998779297</ele>
        <time>2023-08-02T08:42:27.000Z</time>
      </trkpt>
      <trkpt lat="43.7815" lon="7.08798">
        <ele>657</ele>
        <time>2023-08-02T08:42:28.000Z</time>
      </trkpt>
      <trkpt lat="43.7815" lon="7.08798">
        <ele>657</ele>
        <time>2023-08-02T08:42:29.000Z</time>
      </trkpt>
      <trkpt lat="43.7815" lon="7.08798">
        <ele>657</ele>
        <time>2023-08-02T08:42:30.000Z</time>
      </trkpt>
      <trkpt lat="43.78149" lon="7.08798">
        <ele>657</ele>
        <time>2023-08-02T08:42:31.000Z</time>
      </trkpt>
      <trkpt lat="43.78149" lon="7.08798">
        <ele>657</ele>
        <time>2023-08-02T08:42:32.000Z</time>
      </trkpt>
      <trkpt lat="43.78149" lon="7.08798">
        <ele>656.59997558594</ele>
        <time>2023-08-02T08:42:33.000Z</time>
      </trkpt>
      <trkpt lat="43.78149" lon="7.08798">
        <ele>656.59997558594</ele>
        <time>2023-08-02T08:42:34.000Z</time>
      </trkpt>
      <trkpt lat="43.78149" lon="7.08798">
        <ele>656.59997558594</ele>
        <time>2023-08-02T08:42:35.000Z</time>
      </trkpt>
      <trkpt lat="43.78149" lon="7.08798">
        <ele>656.59997558594</ele>
        <time>2023-08-02T08:42:36.000Z</time>
      </trkpt>
      <trkpt lat="43.78148" lon="7.08798">
        <ele>656.59997558594</ele>
        <time>2023-08-02T08:42:37.000Z</time>
      </trkpt>
      <trkpt lat="43.78148" lon="7.08797">
        <ele>656.59997558594</ele>
        <time>2023-08-02T08:42:38.000Z</time>
      </trkpt>
      <trkpt lat="43.78148" lon="7.08797">
        <ele>656.59997558594</ele>
        <time>2023-08-02T08:42:39.000Z</time>
      </trkpt>
      <trkpt lat="43.78148" lon="7.08797">
        <ele>656.79998779297</ele>
        <time>2023-08-02T08:42:40.000Z</time>
      </trkpt>
      <trkpt lat="43.78148" lon="7.08797">
        <ele>657.20001220703</ele>
        <time>2023-08-02T08:42:41.000Z</time>
      </trkpt>
      <trkpt lat="43.78148" lon="7.08798">
        <ele>657.20001220703</ele>
        <time>2023-08-02T08:42:42.000Z</time>
      </trkpt>
      <trkpt lat="43.78148" lon="7.08798">
        <ele>657.20001220703</ele>
        <time>2023-08-02T08:42:43.000Z</time>
      </trkpt>
      <trkpt lat="43.78148" lon="7.08798">
        <ele>657</ele>
        <time>2023-08-02T08:42:44.000Z</time>
      </trkpt>
      <trkpt lat="43.78148" lon="7.08798">
        <ele>657</ele>
        <time>2023-08-02T08:42:45.000Z</time>
      </trkpt>
      <trkpt lat="43.78148" lon="7.08798">
        <ele>657</ele>
        <time>2023-08-02T08:42:46.000Z</time>
      </trkpt>
      <trkpt lat="43.78148" lon="7.08798">
        <ele>657.20001220703</ele>
        <time>2023-08-02T08:42:47.000Z</time>
      </trkpt>
      <trkpt lat="43.78148" lon="7.08798">
        <ele>657</ele>
        <time>2023-08-02T08:42:48.000Z</time>
      </trkpt>
      <trkpt lat="43.78148" lon="7.08798">
        <ele>657</ele>
        <time>2023-08-02T08:42:49.000Z</time>
      </trkpt>
      <trkpt lat="43.78148" lon="7.08798">
        <ele>656.79998779297</ele>
        <time>2023-08-02T08:42:50.000Z</time>
      </trkpt>
      <trkpt lat="43.78148" lon="7.08798">
        <ele>656.79998779297</ele>
        <time>2023-08-02T08:42:51.000Z</time>
      </trkpt>
      <trkpt lat="43.78148" lon="7.08798">
        <ele>656.79998779297</ele>
        <time>2023-08-02T08:42:52.000Z</time>
      </trkpt>
      <trkpt lat="43.78148" lon="7.08798">
        <ele>656.79998779297</ele>
        <time>2023-08-02T08:42:53.000Z</time>
      </trkpt>
      <trkpt lat="43.78149" lon="7.08798">
        <ele>656.79998779297</ele>
        <time>2023-08-02T08:42:54.000Z</time>
      </trkpt>
      <trkpt lat="43.78149" lon="7.08799">
        <ele>656.79998779297</ele>
        <time>2023-08-02T08:42:55.000Z</time>
      </trkpt>
      <trkpt lat="43.78149" lon="7.08798">
        <ele>656.79998779297</ele>
        <time>2023-08-02T08:42:56.000Z</time>
      </trkpt>
      <trkpt lat="43.78149" lon="7.08799">
        <ele>656.79998779297</ele>
        <time>2023-08-02T08:42:57.000Z</time>
      </trkpt>
      <trkpt lat="43.78151" lon="7.08799">
        <ele>656.79998779297</ele>
        <time>2023-08-02T08:42:58.000Z</time>
      </trkpt>
      <trkpt lat="43.78151" lon="7.08799">
        <ele>657.20001220703</ele>
        <time>2023-08-02T08:42:59.000Z</time>
      </trkpt>
      <trkpt lat="43.78151" lon="7.08799">
        <ele>657.20001220703</ele>
        <time>2023-08-02T08:43:00.000Z</time>
      </trkpt>
      <trkpt lat="43.78151" lon="7.08799">
        <ele>657</ele>
        <time>2023-08-02T08:43:01.000Z</time>
      </trkpt>
      <trkpt lat="43.78151" lon="7.08799">
        <ele>657</ele>
        <time>2023-08-02T08:43:02.000Z</time>
      </trkpt>
      <trkpt lat="43.78152" lon="7.08799">
        <ele>657</ele>
        <time>2023-08-02T08:43:03.000Z</time>
      </trkpt>
      <trkpt lat="43.78152" lon="7.08799">
        <ele>657</ele>
        <time>2023-08-02T08:43:04.000Z</time>
      </trkpt>
      <trkpt lat="43.78152" lon="7.08799">
        <ele>657</ele>
        <time>2023-08-02T08:43:05.000Z</time>
      </trkpt>
      <trkpt lat="43.78152" lon="7.08799">
        <ele>657</ele>
        <time>2023-08-02T08:43:06.000Z</time>
      </trkpt>
      <trkpt lat="43.78152" lon="7.08799">
        <ele>657</ele>
        <time>2023-08-02T08:43:07.000Z</time>
      </trkpt>
      <trkpt lat="43.78152" lon="7.08799">
        <ele>657</ele>
        <time>2023-08-02T08:43:08.000Z</time>
      </trkpt>
      <trkpt lat="43.78152" lon="7.08799">
        <ele>657</ele>
        <time>2023-08-02T08:43:09.000Z</time>
      </trkpt>
      <trkpt lat="43.78153" lon="7.088">
        <ele>657</ele>
        <time>2023-08-02T08:43:10.000Z</time>
      </trkpt>
      <trkpt lat="43.78154" lon="7.088">
        <ele>657</ele>
        <time>2023-08-02T08:43:11.000Z</time>
      </trkpt>
      <trkpt lat="43.78154" lon="7.088">
        <ele>657</ele>
        <time>2023-08-02T08:43:12.000Z</time>
      </trkpt>
      <trkpt lat="43.78154" lon="7.088">
        <ele>657</ele>
        <time>2023-08-02T08:43:13.000Z</time>
      </trkpt>
      <trkpt lat="43.78154" lon="7.088">
        <ele>657</ele>
        <time>2023-08-02T08:43:14.000Z</time>
      </trkpt>
      <trkpt lat="43.78154" lon="7.088">
        <ele>657</ele>
        <time>2023-08-02T08:43:15.000Z</time>
      </trkpt>
      <trkpt lat="43.78154" lon="7.08801">
        <ele>657</ele>
        <time>2023-08-02T08:43:16.000Z</time>
      </trkpt>
      <trkpt lat="43.78153" lon="7.08801">
        <ele>657</ele>
        <time>2023-08-02T08:43:17.000Z</time>
      </trkpt>
      <trkpt lat="43.78153" lon="7.088">
        <ele>657</ele>
        <time>2023-08-02T08:43:18.000Z</time>
      </trkpt>
      <trkpt lat="43.78154" lon="7.088">
        <ele>657</ele>
        <time>2023-08-02T08:43:19.000Z</time>
      </trkpt>
      <trkpt lat="43.78154" lon="7.088">
        <ele>657</ele>
        <time>2023-08-02T08:43:20.000Z</time>
      </trkpt>
      <trkpt lat="43.78154" lon="7.088">
        <ele>656.79998779297</ele>
        <time>2023-08-02T08:43:21.000Z</time>
      </trkpt>
      <trkpt lat="43.78154" lon="7.088">
        <ele>656.79998779297</ele>
        <time>2023-08-02T08:43:22.000Z</time>
      </trkpt>
      <trkpt lat="43.78154" lon="7.088">
        <ele>656.79998779297</ele>
        <time>2023-08-02T08:43:23.000Z</time>
      </trkpt>
      <trkpt lat="43.78154" lon="7.088">
        <ele>656.79998779297</ele>
        <time>2023-08-02T08:43:24.000Z</time>
      </trkpt>
      <trkpt lat="43.78154" lon="7.088">
        <ele>656.79998779297</ele>
        <time>2023-08-02T08:43:25.000Z</time>
      </trkpt>
      <trkpt lat="43.78155" lon="7.088">
        <ele>656.79998779297</ele>
        <time>2023-08-02T08:43:26.000Z</time>
      </trkpt>
      <trkpt lat="43.78157" lon="7.08801">
        <ele>656.79998779297</ele>
        <time>2023-08-02T08:43:27.000Z</time>
      </trkpt>
      <trkpt lat="43.78157" lon="7.08801">
        <ele>656.79998779297</ele>
        <time>2023-08-02T08:43:28.000Z</time>
      </trkpt>
      <trkpt lat="43.78157" lon="7.08801">
        <ele>656.79998779297</ele>
        <time>2023-08-02T08:43:29.000Z</time>
      </trkpt>
      <trkpt lat="43.78157" lon="7.08801">
        <ele>656.79998779297</ele>
        <time>2023-08-02T08:43:30.000Z</time>
      </trkpt>
      <trkpt lat="43.78157" lon="7.08801">
        <ele>656.79998779297</ele>
        <time>2023-08-02T08:43:31.000Z</time>
      </trkpt>
      <trkpt lat="43.78157" lon="7.08802">
        <ele>656.79998779297</ele>
        <time>2023-08-02T08:43:32.000Z</time>
      </trkpt>
      <trkpt lat="43.78156" lon="7.08802">
        <ele>656.79998779297</ele>
        <time>2023-08-02T08:43:33.000Z</time>
      </trkpt>
      <trkpt lat="43.78156" lon="7.08802">
        <ele>656.79998779297</ele>
        <time>2023-08-02T08:43:34.000Z</time>
      </trkpt>
      <trkpt lat="43.78156" lon="7.08802">
        <ele>656.79998779297</ele>
        <time>2023-08-02T08:43:35.000Z</time>
      </trkpt>
      <trkpt lat="43.78156" lon="7.08802">
        <ele>656.59997558594</ele>
        <time>2023-08-02T08:43:36.000Z</time>
      </trkpt>
      <trkpt lat="43.78156" lon="7.08802">
        <ele>656.59997558594</ele>
        <time>2023-08-02T08:43:37.000Z</time>
      </trkpt>
      <trkpt lat="43.78156" lon="7.08802">
        <ele>656.59997558594</ele>
        <time>2023-08-02T08:43:38.000Z</time>
      </trkpt>
      <trkpt lat="43.78156" lon="7.08802">
        <ele>656.59997558594</ele>
        <time>2023-08-02T08:43:39.000Z</time>
      </trkpt>
      <trkpt lat="43.78155" lon="7.08803">
        <ele>656.59997558594</ele>
        <time>2023-08-02T08:43:40.000Z</time>
      </trkpt>
      <trkpt lat="43.78155" lon="7.08803">
        <ele>656.59997558594</ele>
        <time>2023-08-02T08:43:41.000Z</time>
      </trkpt>
      <trkpt lat="43.78155" lon="7.08803">
        <ele>656.59997558594</ele>
        <time>2023-08-02T08:43:42.000Z</time>
      </trkpt>
      <trkpt lat="43.78155" lon="7.08803">
        <ele>656.59997558594</ele>
        <time>2023-08-02T08:43:43.000Z</time>
      </trkpt>
      <trkpt lat="43.78155" lon="7.08803">
        <ele>656.59997558594</ele>
        <time>2023-08-02T08:43:44.000Z</time>
      </trkpt>
      <trkpt lat="43.78155" lon="7.08804">
        <ele>656.59997558594</ele>
        <time>2023-08-02T08:43:45.000Z</time>
      </trkpt>
      <trkpt lat="43.78155" lon="7.08804">
        <ele>656.59997558594</ele>
        <time>2023-08-02T08:43:46.000Z</time>
      </trkpt>
      <trkpt lat="43.78154" lon="7.08804">
        <ele>656.59997558594</ele>
        <time>2023-08-02T08:43:47.000Z</time>
      </trkpt>
      <trkpt lat="43.78154" lon="7.08804">
        <ele>656.59997558594</ele>
        <time>2023-08-02T08:43:48.000Z</time>
      </trkpt>
      <trkpt lat="43.78154" lon="7.08804">
        <ele>656.59997558594</ele>
        <time>2023-08-02T08:43:49.000Z</time>
      </trkpt>
      <trkpt lat="43.78154" lon="7.08804">
        <ele>656.59997558594</ele>
        <time>2023-08-02T08:43:50.000Z</time>
      </trkpt>
      <trkpt lat="43.78154" lon="7.08804">
        <ele>656.59997558594</ele>
        <time>2023-08-02T08:43:51.000Z</time>
      </trkpt>
      <trkpt lat="43.78154" lon="7.08804">
        <ele>656.59997558594</ele>
        <time>2023-08-02T08:43:52.000Z</time>
      </trkpt>
      <trkpt lat="43.78155" lon="7.08804">
        <ele>656.59997558594</ele>
        <time>2023-08-02T08:43:53.000Z</time>
      </trkpt>
      <trkpt lat="43.78154" lon="7.08804">
        <ele>656.59997558594</ele>
        <time>2023-08-02T08:43:54.000Z</time>
      </trkpt>
      <trkpt lat="43.78155" lon="7.08804">
        <ele>656.59997558594</ele>
        <time>2023-08-02T08:43:55.000Z</time>
      </trkpt>
      <trkpt lat="43.78155" lon="7.08804">
        <ele>656.59997558594</ele>
        <time>2023-08-02T08:43:56.000Z</time>
      </trkpt>
      <trkpt lat="43.78155" lon="7.08804">
        <ele>656.59997558594</ele>
        <time>2023-08-02T08:43:57.000Z</time>
      </trkpt>
      <trkpt lat="43.78156" lon="7.08805">
        <ele>656.59997558594</ele>
        <time>2023-08-02T08:43:58.000Z</time>
      </trkpt>
      <trkpt lat="43.78157" lon="7.08808">
        <ele>656.59997558594</ele>
        <time>2023-08-02T08:43:59.000Z</time>
      </trkpt>
      <trkpt lat="43.78158" lon="7.08809">
        <ele>656.59997558594</ele>
        <time>2023-08-02T08:44:00.000Z</time>
      </trkpt>
      <trkpt lat="43.78158" lon="7.08811">
        <ele>656.59997558594</ele>
        <time>2023-08-02T08:44:01.000Z</time>
      </trkpt>
      <trkpt lat="43.78159" lon="7.08813">
        <ele>656.59997558594</ele>
        <time>2023-08-02T08:44:02.000Z</time>
      </trkpt>
      <trkpt lat="43.78158" lon="7.08815">
        <ele>656.59997558594</ele>
        <time>2023-08-02T08:44:03.000Z</time>
      </trkpt>
      <trkpt lat="43.78157" lon="7.08817">
        <ele>657</ele>
        <time>2023-08-02T08:44:04.000Z</time>
      </trkpt>
      <trkpt lat="43.78157" lon="7.0882">
        <ele>657.40002441406</ele>
        <time>2023-08-02T08:44:05.000Z</time>
      </trkpt>
      <trkpt lat="43.78156" lon="7.08824">
        <ele>657.79998779297</ele>
        <time>2023-08-02T08:44:06.000Z</time>
      </trkpt>
      <trkpt lat="43.78156" lon="7.08827">
        <ele>658.40002441406</ele>
        <time>2023-08-02T08:44:07.000Z</time>
      </trkpt>
      <trkpt lat="43.78156" lon="7.0883">
        <ele>658.79998779297</ele>
        <time>2023-08-02T08:44:08.000Z</time>
      </trkpt>
      <trkpt lat="43.78156" lon="7.08832">
        <ele>659.40002441406</ele>
        <time>2023-08-02T08:44:09.000Z</time>
      </trkpt>
      <trkpt lat="43.78156" lon="7.08834">
        <ele>660</ele>
        <time>2023-08-02T08:44:10.000Z</time>
      </trkpt>
      <trkpt lat="43.78156" lon="7.08837">
        <ele>660.59997558594</ele>
        <time>2023-08-02T08:44:11.000Z</time>
      </trkpt>
      <trkpt lat="43.78157" lon="7.0884">
        <ele>661.20001220703</ele>
        <time>2023-08-02T08:44:12.000Z</time>
      </trkpt>
      <trkpt lat="43.78156" lon="7.08842">
        <ele>661.59997558594</ele>
        <time>2023-08-02T08:44:13.000Z</time>
      </trkpt>
      <trkpt lat="43.78156" lon="7.08846">
        <ele>662.40002441406</ele>
        <time>2023-08-02T08:44:14.000Z</time>
      </trkpt>
      <trkpt lat="43.78154" lon="7.08849">
        <ele>663</ele>
        <time>2023-08-02T08:44:15.000Z</time>
      </trkpt>
      <trkpt lat="43.78154" lon="7.08853">
        <ele>663.40002441406</ele>
        <time>2023-08-02T08:44:16.000Z</time>
      </trkpt>
      <trkpt lat="43.78154" lon="7.08856">
        <ele>663.40002441406</ele>
        <time>2023-08-02T08:44:17.000Z</time>
      </trkpt>
      <trkpt lat="43.78154" lon="7.08859">
        <ele>664</ele>
        <time>2023-08-02T08:44:18.000Z</time>
      </trkpt>
      <trkpt lat="43.78154" lon="7.08861">
        <ele>664.40002441406</ele>
        <time>2023-08-02T08:44:19.000Z</time>
      </trkpt>
      <trkpt lat="43.78154" lon="7.08864">
        <ele>665</ele>
        <time>2023-08-02T08:44:20.000Z</time>
      </trkpt>
      <trkpt lat="43.78155" lon="7.08866">
        <ele>665.40002441406</ele>
        <time>2023-08-02T08:44:21.000Z</time>
      </trkpt>
      <trkpt lat="43.78156" lon="7.08868">
        <ele>665.59997558594</ele>
        <time>2023-08-02T08:44:22.000Z</time>
      </trkpt>
      <trkpt lat="43.78156" lon="7.08871">
        <ele>665.59997558594</ele>
        <time>2023-08-02T08:44:23.000Z</time>
      </trkpt>
      <trkpt lat="43.78157" lon="7.08873">
        <ele>666.40002441406</ele>
        <time>2023-08-02T08:44:24.000Z</time>
      </trkpt>
      <trkpt lat="43.78158" lon="7.08876">
        <ele>666.59997558594</ele>
        <time>2023-08-02T08:44:25.000Z</time>
      </trkpt>
      <trkpt lat="43.78158" lon="7.08879">
        <ele>666.79998779297</ele>
        <time>2023-08-02T08:44:26.000Z</time>
      </trkpt>
      <trkpt lat="43.78159" lon="7.08881">
        <ele>667.40002441406</ele>
        <time>2023-08-02T08:44:27.000Z</time>
      </trkpt>
      <trkpt lat="43.78159" lon="7.08884">
        <ele>667.59997558594</ele>
        <time>2023-08-02T08:44:28.000Z</time>
      </trkpt>
      <trkpt lat="43.7816" lon="7.08886">
        <ele>668.40002441406</ele>
        <time>2023-08-02T08:44:29.000Z</time>
      </trkpt>
      <trkpt lat="43.78161" lon="7.08889">
        <ele>668.79998779297</ele>
        <time>2023-08-02T08:44:30.000Z</time>
      </trkpt>
      <trkpt lat="43.78162" lon="7.08891">
        <ele>669.20001220703</ele>
        <time>2023-08-02T08:44:31.000Z</time>
      </trkpt>
      <trkpt lat="43.78163" lon="7.08894">
        <ele>669.59997558594</ele>
        <time>2023-08-02T08:44:32.000Z</time>
      </trkpt>
      <trkpt lat="43.78164" lon="7.08896">
        <ele>670</ele>
        <time>2023-08-02T08:44:33.000Z</time>
      </trkpt>
      <trkpt lat="43.78164" lon="7.08898">
        <ele>670.59997558594</ele>
        <time>2023-08-02T08:44:34.000Z</time>
      </trkpt>
      <trkpt lat="43.78165" lon="7.08899">
        <ele>670.59997558594</ele>
        <time>2023-08-02T08:44:35.000Z</time>
      </trkpt>
      <trkpt lat="43.78166" lon="7.089">
        <ele>671.20001220703</ele>
        <time>2023-08-02T08:44:36.000Z</time>
      </trkpt>
      <trkpt lat="43.78167" lon="7.08902">
        <ele>671.40002441406</ele>
        <time>2023-08-02T08:44:37.000Z</time>
      </trkpt>
      <trkpt lat="43.78168" lon="7.08903">
        <ele>671.79998779297</ele>
        <time>2023-08-02T08:44:38.000Z</time>
      </trkpt>
      <trkpt lat="43.78169" lon="7.08906">
        <ele>672</ele>
        <time>2023-08-02T08:44:39.000Z</time>
      </trkpt>
      <trkpt lat="43.78169" lon="7.08908">
        <ele>672.20001220703</ele>
        <time>2023-08-02T08:44:40.000Z</time>
      </trkpt>
      <trkpt lat="43.78171" lon="7.08909">
        <ele>672.40002441406</ele>
        <time>2023-08-02T08:44:41.000Z</time>
      </trkpt>
      <trkpt lat="43.78172" lon="7.08911">
        <ele>672.59997558594</ele>
        <time>2023-08-02T08:44:42.000Z</time>
      </trkpt>
      <trkpt lat="43.78173" lon="7.08914">
        <ele>672.79998779297</ele>
        <time>2023-08-02T08:44:43.000Z</time>
      </trkpt>
      <trkpt lat="43.78173" lon="7.08916">
        <ele>673</ele>
        <time>2023-08-02T08:44:44.000Z</time>
      </trkpt>
      <trkpt lat="43.78174" lon="7.08918">
        <ele>673</ele>
        <time>2023-08-02T08:44:45.000Z</time>
      </trkpt>
      <trkpt lat="43.78176" lon="7.08921">
        <ele>673</ele>
        <time>2023-08-02T08:44:46.000Z</time>
      </trkpt>
      <trkpt lat="43.78177" lon="7.08923">
        <ele>673.59997558594</ele>
        <time>2023-08-02T08:44:47.000Z</time>
      </trkpt>
      <trkpt lat="43.78179" lon="7.08925">
        <ele>673.59997558594</ele>
        <time>2023-08-02T08:44:48.000Z</time>
      </trkpt>
      <trkpt lat="43.7818" lon="7.08928">
        <ele>674</ele>
        <time>2023-08-02T08:44:49.000Z</time>
      </trkpt>
      <trkpt lat="43.78181" lon="7.08931">
        <ele>674</ele>
        <time>2023-08-02T08:44:50.000Z</time>
      </trkpt>
      <trkpt lat="43.78182" lon="7.08934">
        <ele>674.40002441406</ele>
        <time>2023-08-02T08:44:51.000Z</time>
      </trkpt>
      <trkpt lat="43.78183" lon="7.08937">
        <ele>674.40002441406</ele>
        <time>2023-08-02T08:44:52.000Z</time>
      </trkpt>
      <trkpt lat="43.78183" lon="7.0894">
        <ele>674.79998779297</ele>
        <time>2023-08-02T08:44:53.000Z</time>
      </trkpt>
      <trkpt lat="43.78184" lon="7.08943">
        <ele>675.20001220703</ele>
        <time>2023-08-02T08:44:54.000Z</time>
      </trkpt>
      <trkpt lat="43.78185" lon="7.08946">
        <ele>675.40002441406</ele>
        <time>2023-08-02T08:44:55.000Z</time>
      </trkpt>
      <trkpt lat="43.78186" lon="7.08948">
        <ele>675.59997558594</ele>
        <time>2023-08-02T08:44:56.000Z</time>
      </trkpt>
      <trkpt lat="43.78186" lon="7.08951">
        <ele>675.79998779297</ele>
        <time>2023-08-02T08:44:57.000Z</time>
      </trkpt>
      <trkpt lat="43.78187" lon="7.08954">
        <ele>676</ele>
        <time>2023-08-02T08:44:58.000Z</time>
      </trkpt>
      <trkpt lat="43.78188" lon="7.08957">
        <ele>676.20001220703</ele>
        <time>2023-08-02T08:44:59.000Z</time>
      </trkpt>
      <trkpt lat="43.78189" lon="7.0896">
        <ele>676.59997558594</ele>
        <time>2023-08-02T08:45:00.000Z</time>
      </trkpt>
      <trkpt lat="43.7819" lon="7.08963">
        <ele>676.59997558594</ele>
        <time>2023-08-02T08:45:01.000Z</time>
      </trkpt>
      <trkpt lat="43.78191" lon="7.08966">
        <ele>677</ele>
        <time>2023-08-02T08:45:02.000Z</time>
      </trkpt>
      <trkpt lat="43.78193" lon="7.0897">
        <ele>677.40002441406</ele>
        <time>2023-08-02T08:45:03.000Z</time>
      </trkpt>
      <trkpt lat="43.78194" lon="7.08973">
        <ele>678</ele>
        <time>2023-08-02T08:45:04.000Z</time>
      </trkpt>
      <trkpt lat="43.78195" lon="7.08976">
        <ele>678.40002441406</ele>
        <time>2023-08-02T08:45:05.000Z</time>
      </trkpt>
      <trkpt lat="43.78197" lon="7.08979">
        <ele>678.40002441406</ele>
        <time>2023-08-02T08:45:06.000Z</time>
      </trkpt>
      <trkpt lat="43.78199" lon="7.08982">
        <ele>678.40002441406</ele>
        <time>2023-08-02T08:45:07.000Z</time>
      </trkpt>
      <trkpt lat="43.78201" lon="7.08985">
        <ele>678.79998779297</ele>
        <time>2023-08-02T08:45:08.000Z</time>
      </trkpt>
      <trkpt lat="43.78203" lon="7.08988">
        <ele>678.79998779297</ele>
        <time>2023-08-02T08:45:09.000Z</time>
      </trkpt>
      <trkpt lat="43.78205" lon="7.08991">
        <ele>679</ele>
        <time>2023-08-02T08:45:10.000Z</time>
      </trkpt>
      <trkpt lat="43.78206" lon="7.08994">
        <ele>679.40002441406</ele>
        <time>2023-08-02T08:45:11.000Z</time>
      </trkpt>
      <trkpt lat="43.78208" lon="7.08998">
        <ele>679.40002441406</ele>
        <time>2023-08-02T08:45:12.000Z</time>
      </trkpt>
      <trkpt lat="43.7821" lon="7.09001">
        <ele>679.40002441406</ele>
        <time>2023-08-02T08:45:13.000Z</time>
      </trkpt>
      <trkpt lat="43.78211" lon="7.09004">
        <ele>679.59997558594</ele>
        <time>2023-08-02T08:45:14.000Z</time>
      </trkpt>
      <trkpt lat="43.78213" lon="7.09007">
        <ele>680</ele>
        <time>2023-08-02T08:45:15.000Z</time>
      </trkpt>
      <trkpt lat="43.78214" lon="7.0901">
        <ele>680.59997558594</ele>
        <time>2023-08-02T08:45:16.000Z</time>
      </trkpt>
      <trkpt lat="43.78215" lon="7.09013">
        <ele>680.79998779297</ele>
        <time>2023-08-02T08:45:17.000Z</time>
      </trkpt>
      <trkpt lat="43.78216" lon="7.09016">
        <ele>680.79998779297</ele>
        <time>2023-08-02T08:45:18.000Z</time>
      </trkpt>
      <trkpt lat="43.78217" lon="7.09019">
        <ele>681.20001220703</ele>
        <time>2023-08-02T08:45:19.000Z</time>
      </trkpt>
      <trkpt lat="43.78219" lon="7.09021">
        <ele>681.40002441406</ele>
        <time>2023-08-02T08:45:20.000Z</time>
      </trkpt>
      <trkpt lat="43.7822" lon="7.09024">
        <ele>682</ele>
        <time>2023-08-02T08:45:21.000Z</time>
      </trkpt>
      <trkpt lat="43.78221" lon="7.09027">
        <ele>682.20001220703</ele>
        <time>2023-08-02T08:45:22.000Z</time>
      </trkpt>
      <trkpt lat="43.78223" lon="7.0903">
        <ele>682.40002441406</ele>
        <time>2023-08-02T08:45:23.000Z</time>
      </trkpt>
      <trkpt lat="43.78224" lon="7.09034">
        <ele>682.79998779297</ele>
        <time>2023-08-02T08:45:24.000Z</time>
      </trkpt>
      <trkpt lat="43.78224" lon="7.09038">
        <ele>683</ele>
        <time>2023-08-02T08:45:25.000Z</time>
      </trkpt>
      <trkpt lat="43.78224" lon="7.09042">
        <ele>683</ele>
        <time>2023-08-02T08:45:26.000Z</time>
      </trkpt>
      <trkpt lat="43.78222" lon="7.09046">
        <ele>683</ele>
        <time>2023-08-02T08:45:27.000Z</time>
      </trkpt>
      <trkpt lat="43.78221" lon="7.09049">
        <ele>683.20001220703</ele>
        <time>2023-08-02T08:45:28.000Z</time>
      </trkpt>
      <trkpt lat="43.78219" lon="7.09052">
        <ele>683.20001220703</ele>
        <time>2023-08-02T08:45:29.000Z</time>
      </trkpt>
      <trkpt lat="43.78217" lon="7.09054">
        <ele>683.20001220703</ele>
        <time>2023-08-02T08:45:30.000Z</time>
      </trkpt>
      <trkpt lat="43.78215" lon="7.09056">
        <ele>684</ele>
        <time>2023-08-02T08:45:31.000Z</time>
      </trkpt>
      <trkpt lat="43.78214" lon="7.09059">
        <ele>684</ele>
        <time>2023-08-02T08:45:32.000Z</time>
      </trkpt>
      <trkpt lat="43.78212" lon="7.09062">
        <ele>684</ele>
        <time>2023-08-02T08:45:33.000Z</time>
      </trkpt>
      <trkpt lat="43.7821" lon="7.09065">
        <ele>684.59997558594</ele>
        <time>2023-08-02T08:45:34.000Z</time>
      </trkpt>
      <trkpt lat="43.78209" lon="7.09068">
        <ele>684.79998779297</ele>
        <time>2023-08-02T08:45:35.000Z</time>
      </trkpt>
      <trkpt lat="43.78208" lon="7.09071">
        <ele>685</ele>
        <time>2023-08-02T08:45:36.000Z</time>
      </trkpt>
      <trkpt lat="43.78207" lon="7.09075">
        <ele>685.20001220703</ele>
        <time>2023-08-02T08:45:37.000Z</time>
      </trkpt>
      <trkpt lat="43.78205" lon="7.09078">
        <ele>685.20001220703</ele>
        <time>2023-08-02T08:45:38.000Z</time>
      </trkpt>
      <trkpt lat="43.78204" lon="7.09082">
        <ele>685.20001220703</ele>
        <time>2023-08-02T08:45:39.000Z</time>
      </trkpt>
      <trkpt lat="43.78204" lon="7.09085">
        <ele>685.59997558594</ele>
        <time>2023-08-02T08:45:40.000Z</time>
      </trkpt>
      <trkpt lat="43.78203" lon="7.09088">
        <ele>685.59997558594</ele>
        <time>2023-08-02T08:45:41.000Z</time>
      </trkpt>
      <trkpt lat="43.78202" lon="7.09092">
        <ele>685.59997558594</ele>
        <time>2023-08-02T08:45:42.000Z</time>
      </trkpt>
      <trkpt lat="43.78201" lon="7.09095">
        <ele>685.59997558594</ele>
        <time>2023-08-02T08:45:43.000Z</time>
      </trkpt>
      <trkpt lat="43.78201" lon="7.09098">
        <ele>686</ele>
        <time>2023-08-02T08:45:44.000Z</time>
      </trkpt>
      <trkpt lat="43.78199" lon="7.09102">
        <ele>686.20001220703</ele>
        <time>2023-08-02T08:45:45.000Z</time>
      </trkpt>
      <trkpt lat="43.782" lon="7.09105">
        <ele>686.20001220703</ele>
        <time>2023-08-02T08:45:46.000Z</time>
      </trkpt>
      <trkpt lat="43.78199" lon="7.09108">
        <ele>686.40002441406</ele>
        <time>2023-08-02T08:45:47.000Z</time>
      </trkpt>
      <trkpt lat="43.78199" lon="7.09112">
        <ele>686.59997558594</ele>
        <time>2023-08-02T08:45:48.000Z</time>
      </trkpt>
      <trkpt lat="43.78198" lon="7.09115">
        <ele>686.79998779297</ele>
        <time>2023-08-02T08:45:49.000Z</time>
      </trkpt>
      <trkpt lat="43.78198" lon="7.09119">
        <ele>687.20001220703</ele>
        <time>2023-08-02T08:45:50.000Z</time>
      </trkpt>
      <trkpt lat="43.78198" lon="7.09121">
        <ele>687.40002441406</ele>
        <time>2023-08-02T08:45:51.000Z</time>
      </trkpt>
      <trkpt lat="43.78197" lon="7.09125">
        <ele>687.79998779297</ele>
        <time>2023-08-02T08:45:52.000Z</time>
      </trkpt>
      <trkpt lat="43.78197" lon="7.09128">
        <ele>687.79998779297</ele>
        <time>2023-08-02T08:45:53.000Z</time>
      </trkpt>
      <trkpt lat="43.78197" lon="7.09132">
        <ele>688</ele>
        <time>2023-08-02T08:45:54.000Z</time>
      </trkpt>
      <trkpt lat="43.78198" lon="7.09136">
        <ele>688.20001220703</ele>
        <time>2023-08-02T08:45:55.000Z</time>
      </trkpt>
      <trkpt lat="43.78198" lon="7.0914">
        <ele>688.20001220703</ele>
        <time>2023-08-02T08:45:56.000Z</time>
      </trkpt>
      <trkpt lat="43.78198" lon="7.09145">
        <ele>688.59997558594</ele>
        <time>2023-08-02T08:45:57.000Z</time>
      </trkpt>
      <trkpt lat="43.78198" lon="7.09149">
        <ele>689</ele>
        <time>2023-08-02T08:45:58.000Z</time>
      </trkpt>
      <trkpt lat="43.78198" lon="7.09153">
        <ele>689</ele>
        <time>2023-08-02T08:45:59.000Z</time>
      </trkpt>
      <trkpt lat="43.78197" lon="7.09157">
        <ele>689.40002441406</ele>
        <time>2023-08-02T08:46:00.000Z</time>
      </trkpt>
      <trkpt lat="43.78196" lon="7.09161">
        <ele>689.40002441406</ele>
        <time>2023-08-02T08:46:01.000Z</time>
      </trkpt>
      <trkpt lat="43.78196" lon="7.09165">
        <ele>690</ele>
        <time>2023-08-02T08:46:02.000Z</time>
      </trkpt>
      <trkpt lat="43.78195" lon="7.09169">
        <ele>690</ele>
        <time>2023-08-02T08:46:03.000Z</time>
      </trkpt>
      <trkpt lat="43.78195" lon="7.09173">
        <ele>690.20001220703</ele>
        <time>2023-08-02T08:46:04.000Z</time>
      </trkpt>
      <trkpt lat="43.78194" lon="7.09177">
        <ele>690.40002441406</ele>
        <time>2023-08-02T08:46:05.000Z</time>
      </trkpt>
      <trkpt lat="43.78193" lon="7.0918">
        <ele>690.59997558594</ele>
        <time>2023-08-02T08:46:06.000Z</time>
      </trkpt>
      <trkpt lat="43.78193" lon="7.09184">
        <ele>690.79998779297</ele>
        <time>2023-08-02T08:46:07.000Z</time>
      </trkpt>
      <trkpt lat="43.78193" lon="7.09187">
        <ele>690.79998779297</ele>
        <time>2023-08-02T08:46:08.000Z</time>
      </trkpt>
      <trkpt lat="43.78193" lon="7.0919">
        <ele>691.40002441406</ele>
        <time>2023-08-02T08:46:09.000Z</time>
      </trkpt>
      <trkpt lat="43.78194" lon="7.09194">
        <ele>691.40002441406</ele>
        <time>2023-08-02T08:46:10.000Z</time>
      </trkpt>
      <trkpt lat="43.78194" lon="7.09198">
        <ele>691.59997558594</ele>
        <time>2023-08-02T08:46:11.000Z</time>
      </trkpt>
      <trkpt lat="43.78194" lon="7.092">
        <ele>691.79998779297</ele>
        <time>2023-08-02T08:46:12.000Z</time>
      </trkpt>
      <trkpt lat="43.78195" lon="7.09203">
        <ele>692</ele>
        <time>2023-08-02T08:46:13.000Z</time>
      </trkpt>
      <trkpt lat="43.78195" lon="7.09205">
        <ele>692.20001220703</ele>
        <time>2023-08-02T08:46:14.000Z</time>
      </trkpt>
      <trkpt lat="43.78195" lon="7.09205">
        <ele>692.59997558594</ele>
        <time>2023-08-02T08:46:15.000Z</time>
      </trkpt>
      <trkpt lat="43.78195" lon="7.09205">
        <ele>692.59997558594</ele>
        <time>2023-08-02T08:46:16.000Z</time>
      </trkpt>
      <trkpt lat="43.78195" lon="7.09205">
        <ele>692.79998779297</ele>
        <time>2023-08-02T08:46:17.000Z</time>
      </trkpt>
      <trkpt lat="43.78195" lon="7.09205">
        <ele>692.79998779297</ele>
        <time>2023-08-02T08:46:18.000Z</time>
      </trkpt>
      <trkpt lat="43.78195" lon="7.09206">
        <ele>692.79998779297</ele>
        <time>2023-08-02T08:46:19.000Z</time>
      </trkpt>
      <trkpt lat="43.78195" lon="7.09205">
        <ele>692.79998779297</ele>
        <time>2023-08-02T08:46:20.000Z</time>
      </trkpt>
      <trkpt lat="43.78195" lon="7.09205">
        <ele>692.79998779297</ele>
        <time>2023-08-02T08:46:21.000Z</time>
      </trkpt>
      <trkpt lat="43.78195" lon="7.09205">
        <ele>692.79998779297</ele>
        <time>2023-08-02T08:46:22.000Z</time>
      </trkpt>
      <trkpt lat="43.78195" lon="7.09205">
        <ele>692.59997558594</ele>
        <time>2023-08-02T08:46:23.000Z</time>
      </trkpt>
      <trkpt lat="43.78195" lon="7.09205">
        <ele>692.59997558594</ele>
        <time>2023-08-02T08:46:24.000Z</time>
      </trkpt>
      <trkpt lat="43.78195" lon="7.09205">
        <ele>692.59997558594</ele>
        <time>2023-08-02T08:46:25.000Z</time>
      </trkpt>
      <trkpt lat="43.78195" lon="7.09205">
        <ele>692.59997558594</ele>
        <time>2023-08-02T08:46:26.000Z</time>
      </trkpt>
      <trkpt lat="43.78195" lon="7.09205">
        <ele>692.59997558594</ele>
        <time>2023-08-02T08:46:27.000Z</time>
      </trkpt>
      <trkpt lat="43.78195" lon="7.09205">
        <ele>692.59997558594</ele>
        <time>2023-08-02T08:46:28.000Z</time>
      </trkpt>
      <trkpt lat="43.78195" lon="7.09205">
        <ele>692.59997558594</ele>
        <time>2023-08-02T08:46:29.000Z</time>
      </trkpt>
      <trkpt lat="43.78195" lon="7.09206">
        <ele>692.59997558594</ele>
        <time>2023-08-02T08:46:30.000Z</time>
      </trkpt>
      <trkpt lat="43.78195" lon="7.09206">
        <ele>692.40002441406</ele>
        <time>2023-08-02T08:46:31.000Z</time>
      </trkpt>
      <trkpt lat="43.78195" lon="7.09206">
        <ele>692.20001220703</ele>
        <time>2023-08-02T08:46:32.000Z</time>
      </trkpt>
      <trkpt lat="43.78195" lon="7.09206">
        <ele>692.20001220703</ele>
        <time>2023-08-02T08:46:33.000Z</time>
      </trkpt>
      <trkpt lat="43.78195" lon="7.09206">
        <ele>692.20001220703</ele>
        <time>2023-08-02T08:46:34.000Z</time>
      </trkpt>
      <trkpt lat="43.78195" lon="7.09206">
        <ele>692.20001220703</ele>
        <time>2023-08-02T08:46:35.000Z</time>
      </trkpt>
      <trkpt lat="43.78195" lon="7.09206">
        <ele>692.20001220703</ele>
        <time>2023-08-02T08:46:36.000Z</time>
      </trkpt>
      <trkpt lat="43.78195" lon="7.09206">
        <ele>692.79998779297</ele>
        <time>2023-08-02T08:46:37.000Z</time>
      </trkpt>
      <trkpt lat="43.78195" lon="7.09206">
        <ele>693.20001220703</ele>
        <time>2023-08-02T08:46:38.000Z</time>
      </trkpt>
      <trkpt lat="43.78195" lon="7.09206">
        <ele>693</ele>
        <time>2023-08-02T08:46:39.000Z</time>
      </trkpt>
      <trkpt lat="43.78195" lon="7.09206">
        <ele>693</ele>
        <time>2023-08-02T08:46:40.000Z</time>
      </trkpt>
      <trkpt lat="43.78195" lon="7.09206">
        <ele>692.79998779297</ele>
        <time>2023-08-02T08:46:41.000Z</time>
      </trkpt>
      <trkpt lat="43.78195" lon="7.09206">
        <ele>692.59997558594</ele>
        <time>2023-08-02T08:46:42.000Z</time>
      </trkpt>
      <trkpt lat="43.78195" lon="7.09206">
        <ele>692.59997558594</ele>
        <time>2023-08-02T08:46:43.000Z</time>
      </trkpt>
      <trkpt lat="43.78195" lon="7.09206">
        <ele>692.40002441406</ele>
        <time>2023-08-02T08:46:44.000Z</time>
      </trkpt>
      <trkpt lat="43.78195" lon="7.09206">
        <ele>692.40002441406</ele>
        <time>2023-08-02T08:46:45.000Z</time>
      </trkpt>
      <trkpt lat="43.78195" lon="7.09206">
        <ele>692.40002441406</ele>
        <time>2023-08-02T08:46:46.000Z</time>
      </trkpt>
      <trkpt lat="43.78195" lon="7.09206">
        <ele>692.40002441406</ele>
        <time>2023-08-02T08:46:47.000Z</time>
      </trkpt>
      <trkpt lat="43.78195" lon="7.09206">
        <ele>692.40002441406</ele>
        <time>2023-08-02T08:46:48.000Z</time>
      </trkpt>
      <trkpt lat="43.78195" lon="7.09206">
        <ele>692.20001220703</ele>
        <time>2023-08-02T08:46:49.000Z</time>
      </trkpt>
      <trkpt lat="43.78195" lon="7.09206">
        <ele>692.20001220703</ele>
        <time>2023-08-02T08:46:50.000Z</time>
      </trkpt>
      <trkpt lat="43.78195" lon="7.09206">
        <ele>692.20001220703</ele>
        <time>2023-08-02T08:46:51.000Z</time>
      </trkpt>
      <trkpt lat="43.78195" lon="7.09206">
        <ele>692.20001220703</ele>
        <time>2023-08-02T08:46:52.000Z</time>
      </trkpt>
      <trkpt lat="43.78195" lon="7.09206">
        <ele>692.20001220703</ele>
        <time>2023-08-02T08:46:53.000Z</time>
      </trkpt>
      <trkpt lat="43.78195" lon="7.09206">
        <ele>692.20001220703</ele>
        <time>2023-08-02T08:46:54.000Z</time>
      </trkpt>
      <trkpt lat="43.78195" lon="7.09206">
        <ele>692.20001220703</ele>
        <time>2023-08-02T08:46:55.000Z</time>
      </trkpt>
      <trkpt lat="43.78195" lon="7.09206">
        <ele>692.20001220703</ele>
        <time>2023-08-02T08:46:56.000Z</time>
      </trkpt>
      <trkpt lat="43.78195" lon="7.09206">
        <ele>692</ele>
        <time>2023-08-02T08:46:57.000Z</time>
      </trkpt>
      <trkpt lat="43.78195" lon="7.09206">
        <ele>691.79998779297</ele>
        <time>2023-08-02T08:46:58.000Z</time>
      </trkpt>
      <trkpt lat="43.78195" lon="7.09206">
        <ele>691.79998779297</ele>
        <time>2023-08-02T08:46:59.000Z</time>
      </trkpt>
      <trkpt lat="43.78195" lon="7.09206">
        <ele>691.79998779297</ele>
        <time>2023-08-02T08:47:00.000Z</time>
      </trkpt>
      <trkpt lat="43.78195" lon="7.09206">
        <ele>692.20001220703</ele>
        <time>2023-08-02T08:47:01.000Z</time>
      </trkpt>
      <trkpt lat="43.78195" lon="7.09206">
        <ele>692</ele>
        <time>2023-08-02T08:47:02.000Z</time>
      </trkpt>
      <trkpt lat="43.78195" lon="7.09206">
        <ele>692</ele>
        <time>2023-08-02T08:47:03.000Z</time>
      </trkpt>
      <trkpt lat="43.78195" lon="7.09206">
        <ele>692.59997558594</ele>
        <time>2023-08-02T08:47:04.000Z</time>
      </trkpt>
      <trkpt lat="43.78195" lon="7.09206">
        <ele>692.59997558594</ele>
        <time>2023-08-02T08:47:05.000Z</time>
      </trkpt>
      <trkpt lat="43.78195" lon="7.09206">
        <ele>692</ele>
        <time>2023-08-02T08:47:06.000Z</time>
      </trkpt>
      <trkpt lat="43.78195" lon="7.09206">
        <ele>692.40002441406</ele>
        <time>2023-08-02T08:47:07.000Z</time>
      </trkpt>
      <trkpt lat="43.78195" lon="7.09206">
        <ele>692.40002441406</ele>
        <time>2023-08-02T08:47:08.000Z</time>
      </trkpt>
      <trkpt lat="43.78195" lon="7.09206">
        <ele>692.40002441406</ele>
        <time>2023-08-02T08:47:09.000Z</time>
      </trkpt>
      <trkpt lat="43.78195" lon="7.09206">
        <ele>692.40002441406</ele>
        <time>2023-08-02T08:47:10.000Z</time>
      </trkpt>
      <trkpt lat="43.78195" lon="7.09206">
        <ele>692.20001220703</ele>
        <time>2023-08-02T08:47:11.000Z</time>
      </trkpt>
      <trkpt lat="43.78195" lon="7.0921">
        <ele>692.40002441406</ele>
        <time>2023-08-02T08:47:12.000Z</time>
      </trkpt>
      <trkpt lat="43.78195" lon="7.09211">
        <ele>692.40002441406</ele>
        <time>2023-08-02T08:47:13.000Z</time>
      </trkpt>
      <trkpt lat="43.78195" lon="7.09211">
        <ele>692.40002441406</ele>
        <time>2023-08-02T08:47:14.000Z</time>
      </trkpt>
      <trkpt lat="43.78195" lon="7.09211">
        <ele>692.20001220703</ele>
        <time>2023-08-02T08:47:15.000Z</time>
      </trkpt>
      <trkpt lat="43.78195" lon="7.09211">
        <ele>692.20001220703</ele>
        <time>2023-08-02T08:47:16.000Z</time>
      </trkpt>
      <trkpt lat="43.78195" lon="7.09211">
        <ele>692.20001220703</ele>
        <time>2023-08-02T08:47:17.000Z</time>
      </trkpt>
      <trkpt lat="43.78195" lon="7.09211">
        <ele>692.20001220703</ele>
        <time>2023-08-02T08:47:18.000Z</time>
      </trkpt>
      <trkpt lat="43.78195" lon="7.09212">
        <ele>692.20001220703</ele>
        <time>2023-08-02T08:47:19.000Z</time>
      </trkpt>
      <trkpt lat="43.78195" lon="7.09212">
        <ele>692.20001220703</ele>
        <time>2023-08-02T08:47:20.000Z</time>
      </trkpt>
      <trkpt lat="43.78195" lon="7.09213">
        <ele>692</ele>
        <time>2023-08-02T08:47:21.000Z</time>
      </trkpt>
      <trkpt lat="43.78195" lon="7.09213">
        <ele>692</ele>
        <time>2023-08-02T08:47:22.000Z</time>
      </trkpt>
      <trkpt lat="43.78195" lon="7.09213">
        <ele>691.59997558594</ele>
        <time>2023-08-02T08:47:23.000Z</time>
      </trkpt>
      <trkpt lat="43.78195" lon="7.09213">
        <ele>691.79998779297</ele>
        <time>2023-08-02T08:47:24.000Z</time>
      </trkpt>
      <trkpt lat="43.78195" lon="7.09213">
        <ele>691.79998779297</ele>
        <time>2023-08-02T08:47:25.000Z</time>
      </trkpt>
      <trkpt lat="43.78195" lon="7.09213">
        <ele>691.79998779297</ele>
        <time>2023-08-02T08:47:26.000Z</time>
      </trkpt>
      <trkpt lat="43.78195" lon="7.09213">
        <ele>691.79998779297</ele>
        <time>2023-08-02T08:47:27.000Z</time>
      </trkpt>
      <trkpt lat="43.78195" lon="7.09213">
        <ele>691.59997558594</ele>
        <time>2023-08-02T08:47:28.000Z</time>
      </trkpt>
      <trkpt lat="43.78195" lon="7.09213">
        <ele>691.59997558594</ele>
        <time>2023-08-02T08:47:29.000Z</time>
      </trkpt>
      <trkpt lat="43.78195" lon="7.09213">
        <ele>691.79998779297</ele>
        <time>2023-08-02T08:47:30.000Z</time>
      </trkpt>
      <trkpt lat="43.78195" lon="7.09213">
        <ele>692</ele>
        <time>2023-08-02T08:47:31.000Z</time>
      </trkpt>
      <trkpt lat="43.78195" lon="7.09213">
        <ele>692</ele>
        <time>2023-08-02T08:47:32.000Z</time>
      </trkpt>
      <trkpt lat="43.78194" lon="7.09213">
        <ele>691.59997558594</ele>
        <time>2023-08-02T08:47:33.000Z</time>
      </trkpt>
      <trkpt lat="43.78195" lon="7.09213">
        <ele>691.40002441406</ele>
        <time>2023-08-02T08:47:34.000Z</time>
      </trkpt>
      <trkpt lat="43.78195" lon="7.09213">
        <ele>691.79998779297</ele>
        <time>2023-08-02T08:47:35.000Z</time>
      </trkpt>
      <trkpt lat="43.78195" lon="7.09213">
        <ele>691.79998779297</ele>
        <time>2023-08-02T08:47:36.000Z</time>
      </trkpt>
      <trkpt lat="43.78195" lon="7.09213">
        <ele>691.79998779297</ele>
        <time>2023-08-02T08:47:37.000Z</time>
      </trkpt>
      <trkpt lat="43.78195" lon="7.09213">
        <ele>691.20001220703</ele>
        <time>2023-08-02T08:47:38.000Z</time>
      </trkpt>
      <trkpt lat="43.78195" lon="7.09212">
        <ele>691.20001220703</ele>
        <time>2023-08-02T08:47:39.000Z</time>
      </trkpt>
      <trkpt lat="43.78195" lon="7.09213">
        <ele>691.59997558594</ele>
        <time>2023-08-02T08:47:40.000Z</time>
      </trkpt>
      <trkpt lat="43.78195" lon="7.09213">
        <ele>691.79998779297</ele>
        <time>2023-08-02T08:47:41.000Z</time>
      </trkpt>
      <trkpt lat="43.78195" lon="7.09212">
        <ele>692.20001220703</ele>
        <time>2023-08-02T08:47:42.000Z</time>
      </trkpt>
      <trkpt lat="43.78195" lon="7.09212">
        <ele>691.79998779297</ele>
        <time>2023-08-02T08:47:43.000Z</time>
      </trkpt>
      <trkpt lat="43.78195" lon="7.09212">
        <ele>691.79998779297</ele>
        <time>2023-08-02T08:47:44.000Z</time>
      </trkpt>
      <trkpt lat="43.78195" lon="7.09212">
        <ele>691.79998779297</ele>
        <time>2023-08-02T08:47:45.000Z</time>
      </trkpt>
      <trkpt lat="43.78195" lon="7.09212">
        <ele>691.79998779297</ele>
        <time>2023-08-02T08:47:46.000Z</time>
      </trkpt>
      <trkpt lat="43.78195" lon="7.09212">
        <ele>691.79998779297</ele>
        <time>2023-08-02T08:47:47.000Z</time>
      </trkpt>
      <trkpt lat="43.78195" lon="7.09212">
        <ele>691.59997558594</ele>
        <time>2023-08-02T08:47:48.000Z</time>
      </trkpt>
      <trkpt lat="43.78195" lon="7.09212">
        <ele>691.59997558594</ele>
        <time>2023-08-02T08:47:49.000Z</time>
      </trkpt>
      <trkpt lat="43.78195" lon="7.09213">
        <ele>691.59997558594</ele>
        <time>2023-08-02T08:47:50.000Z</time>
      </trkpt>
      <trkpt lat="43.78195" lon="7.09212">
        <ele>691.59997558594</ele>
        <time>2023-08-02T08:47:51.000Z</time>
      </trkpt>
      <trkpt lat="43.78195" lon="7.09212">
        <ele>691.20001220703</ele>
        <time>2023-08-02T08:47:52.000Z</time>
      </trkpt>
      <trkpt lat="43.78195" lon="7.09212">
        <ele>691.20001220703</ele>
        <time>2023-08-02T08:47:53.000Z</time>
      </trkpt>
      <trkpt lat="43.78195" lon="7.09212">
        <ele>691.40002441406</ele>
        <time>2023-08-02T08:47:54.000Z</time>
      </trkpt>
      <trkpt lat="43.78195" lon="7.09212">
        <ele>691.40002441406</ele>
        <time>2023-08-02T08:47:55.000Z</time>
      </trkpt>
      <trkpt lat="43.78195" lon="7.09212">
        <ele>691.20001220703</ele>
        <time>2023-08-02T08:47:56.000Z</time>
      </trkpt>
      <trkpt lat="43.78195" lon="7.09212">
        <ele>691.20001220703</ele>
        <time>2023-08-02T08:47:57.000Z</time>
      </trkpt>
      <trkpt lat="43.78195" lon="7.09212">
        <ele>691.20001220703</ele>
        <time>2023-08-02T08:47:58.000Z</time>
      </trkpt>
      <trkpt lat="43.78195" lon="7.09212">
        <ele>691.20001220703</ele>
        <time>2023-08-02T08:47:59.000Z</time>
      </trkpt>
      <trkpt lat="43.78195" lon="7.09212">
        <ele>691</ele>
        <time>2023-08-02T08:48:00.000Z</time>
      </trkpt>
      <trkpt lat="43.78195" lon="7.09212">
        <ele>690.79998779297</ele>
        <time>2023-08-02T08:48:01.000Z</time>
      </trkpt>
      <trkpt lat="43.78195" lon="7.09212">
        <ele>691</ele>
        <time>2023-08-02T08:48:02.000Z</time>
      </trkpt>
      <trkpt lat="43.78195" lon="7.09212">
        <ele>691</ele>
        <time>2023-08-02T08:48:03.000Z</time>
      </trkpt>
      <trkpt lat="43.78195" lon="7.09212">
        <ele>691</ele>
        <time>2023-08-02T08:48:04.000Z</time>
      </trkpt>
      <trkpt lat="43.78195" lon="7.09212">
        <ele>691.40002441406</ele>
        <time>2023-08-02T08:48:05.000Z</time>
      </trkpt>
      <trkpt lat="43.78195" lon="7.09212">
        <ele>691</ele>
        <time>2023-08-02T08:48:06.000Z</time>
      </trkpt>
      <trkpt lat="43.78195" lon="7.09212">
        <ele>690.79998779297</ele>
        <time>2023-08-02T08:48:07.000Z</time>
      </trkpt>
      <trkpt lat="43.78195" lon="7.09212">
        <ele>691.40002441406</ele>
        <time>2023-08-02T08:48:08.000Z</time>
      </trkpt>
      <trkpt lat="43.78195" lon="7.09212">
        <ele>691.40002441406</ele>
        <time>2023-08-02T08:48:09.000Z</time>
      </trkpt>
      <trkpt lat="43.78194" lon="7.09212">
        <ele>690.79998779297</ele>
        <time>2023-08-02T08:48:10.000Z</time>
      </trkpt>
      <trkpt lat="43.78194" lon="7.09212">
        <ele>691.40002441406</ele>
        <time>2023-08-02T08:48:11.000Z</time>
      </trkpt>
      <trkpt lat="43.78194" lon="7.09212">
        <ele>691.20001220703</ele>
        <time>2023-08-02T08:48:12.000Z</time>
      </trkpt>
      <trkpt lat="43.78195" lon="7.09212">
        <ele>691.40002441406</ele>
        <time>2023-08-02T08:48:13.000Z</time>
      </trkpt>
      <trkpt lat="43.78195" lon="7.09212">
        <ele>691.40002441406</ele>
        <time>2023-08-02T08:48:14.000Z</time>
      </trkpt>
      <trkpt lat="43.78195" lon="7.09213">
        <ele>691.40002441406</ele>
        <time>2023-08-02T08:48:15.000Z</time>
      </trkpt>
      <trkpt lat="43.78195" lon="7.09212">
        <ele>691.20001220703</ele>
        <time>2023-08-02T08:48:16.000Z</time>
      </trkpt>
      <trkpt lat="43.78195" lon="7.09212">
        <ele>691.20001220703</ele>
        <time>2023-08-02T08:48:17.000Z</time>
      </trkpt>
      <trkpt lat="43.78195" lon="7.09212">
        <ele>691</ele>
        <time>2023-08-02T08:48:18.000Z</time>
      </trkpt>
      <trkpt lat="43.78195" lon="7.09212">
        <ele>690.20001220703</ele>
        <time>2023-08-02T08:48:19.000Z</time>
      </trkpt>
      <trkpt lat="43.78195" lon="7.09212">
        <ele>690.20001220703</ele>
        <time>2023-08-02T08:48:20.000Z</time>
      </trkpt>
      <trkpt lat="43.78195" lon="7.09212">
        <ele>690.20001220703</ele>
        <time>2023-08-02T08:48:21.000Z</time>
      </trkpt>
      <trkpt lat="43.78195" lon="7.09212">
        <ele>690.20001220703</ele>
        <time>2023-08-02T08:48:22.000Z</time>
      </trkpt>
      <trkpt lat="43.78195" lon="7.09212">
        <ele>690.20001220703</ele>
        <time>2023-08-02T08:48:23.000Z</time>
      </trkpt>
      <trkpt lat="43.78195" lon="7.09212">
        <ele>690.20001220703</ele>
        <time>2023-08-02T08:48:24.000Z</time>
      </trkpt>
      <trkpt lat="43.78195" lon="7.09212">
        <ele>690.20001220703</ele>
        <time>2023-08-02T08:48:25.000Z</time>
      </trkpt>
      <trkpt lat="43.78195" lon="7.09212">
        <ele>690.20001220703</ele>
        <time>2023-08-02T08:48:26.000Z</time>
      </trkpt>
      <trkpt lat="43.78195" lon="7.09212">
        <ele>690.20001220703</ele>
        <time>2023-08-02T08:48:27.000Z</time>
      </trkpt>
      <trkpt lat="43.78195" lon="7.09212">
        <ele>690.20001220703</ele>
        <time>2023-08-02T08:48:28.000Z</time>
      </trkpt>
      <trkpt lat="43.78195" lon="7.09212">
        <ele>690.20001220703</ele>
        <time>2023-08-02T08:48:29.000Z</time>
      </trkpt>
      <trkpt lat="43.78195" lon="7.09212">
        <ele>690.20001220703</ele>
        <time>2023-08-02T08:48:30.000Z</time>
      </trkpt>
      <trkpt lat="43.78195" lon="7.09212">
        <ele>690.20001220703</ele>
        <time>2023-08-02T08:48:31.000Z</time>
      </trkpt>
      <trkpt lat="43.78195" lon="7.09212">
        <ele>690.20001220703</ele>
        <time>2023-08-02T08:48:32.000Z</time>
      </trkpt>
      <trkpt lat="43.78195" lon="7.09212">
        <ele>690.20001220703</ele>
        <time>2023-08-02T08:48:33.000Z</time>
      </trkpt>
      <trkpt lat="43.78195" lon="7.09212">
        <ele>690.20001220703</ele>
        <time>2023-08-02T08:48:34.000Z</time>
      </trkpt>
      <trkpt lat="43.78195" lon="7.09212">
        <ele>690.20001220703</ele>
        <time>2023-08-02T08:48:35.000Z</time>
      </trkpt>
      <trkpt lat="43.78195" lon="7.09212">
        <ele>690.20001220703</ele>
        <time>2023-08-02T08:48:36.000Z</time>
      </trkpt>
      <trkpt lat="43.78195" lon="7.09212">
        <ele>690.20001220703</ele>
        <time>2023-08-02T08:48:37.000Z</time>
      </trkpt>
      <trkpt lat="43.78195" lon="7.09212">
        <ele>690.20001220703</ele>
        <time>2023-08-02T08:48:38.000Z</time>
      </trkpt>
      <trkpt lat="43.78195" lon="7.09212">
        <ele>690.20001220703</ele>
        <time>2023-08-02T08:48:39.000Z</time>
      </trkpt>
      <trkpt lat="43.78195" lon="7.09212">
        <ele>690.20001220703</ele>
        <time>2023-08-02T08:48:40.000Z</time>
      </trkpt>
      <trkpt lat="43.78195" lon="7.09212">
        <ele>690.20001220703</ele>
        <time>2023-08-02T08:48:41.000Z</time>
      </trkpt>
      <trkpt lat="43.78195" lon="7.09212">
        <ele>690.20001220703</ele>
        <time>2023-08-02T08:48:42.000Z</time>
      </trkpt>
      <trkpt lat="43.78195" lon="7.09212">
        <ele>690.20001220703</ele>
        <time>2023-08-02T08:48:43.000Z</time>
      </trkpt>
      <trkpt lat="43.78195" lon="7.09212">
        <ele>690.20001220703</ele>
        <time>2023-08-02T08:48:44.000Z</time>
      </trkpt>
      <trkpt lat="43.78195" lon="7.09212">
        <ele>690.20001220703</ele>
        <time>2023-08-02T08:48:45.000Z</time>
      </trkpt>
      <trkpt lat="43.78195" lon="7.09212">
        <ele>690.20001220703</ele>
        <time>2023-08-02T08:48:46.000Z</time>
      </trkpt>
      <trkpt lat="43.78195" lon="7.09212">
        <ele>690.20001220703</ele>
        <time>2023-08-02T08:48:47.000Z</time>
      </trkpt>
      <trkpt lat="43.78195" lon="7.09212">
        <ele>690.20001220703</ele>
        <time>2023-08-02T08:48:48.000Z</time>
      </trkpt>
      <trkpt lat="43.78195" lon="7.09212">
        <ele>690.20001220703</ele>
        <time>2023-08-02T08:48:49.000Z</time>
      </trkpt>
      <trkpt lat="43.78195" lon="7.09212">
        <ele>690.20001220703</ele>
        <time>2023-08-02T08:48:50.000Z</time>
      </trkpt>
      <trkpt lat="43.78195" lon="7.09212">
        <ele>690.20001220703</ele>
        <time>2023-08-02T08:48:51.000Z</time>
      </trkpt>
      <trkpt lat="43.78195" lon="7.09212">
        <ele>690.20001220703</ele>
        <time>2023-08-02T08:48:52.000Z</time>
      </trkpt>
      <trkpt lat="43.78195" lon="7.09212">
        <ele>690.20001220703</ele>
        <time>2023-08-02T08:48:53.000Z</time>
      </trkpt>
      <trkpt lat="43.78195" lon="7.09212">
        <ele>690.20001220703</ele>
        <time>2023-08-02T08:48:54.000Z</time>
      </trkpt>
      <trkpt lat="43.78197" lon="7.09211">
        <ele>690.20001220703</ele>
        <time>2023-08-02T08:48:55.000Z</time>
      </trkpt>
      <trkpt lat="43.78197" lon="7.09211">
        <ele>690.20001220703</ele>
        <time>2023-08-02T08:48:56.000Z</time>
      </trkpt>
      <trkpt lat="43.78197" lon="7.09211">
        <ele>690.20001220703</ele>
        <time>2023-08-02T08:48:57.000Z</time>
      </trkpt>
      <trkpt lat="43.78197" lon="7.09211">
        <ele>690.20001220703</ele>
        <time>2023-08-02T08:48:58.000Z</time>
      </trkpt>
      <trkpt lat="43.78197" lon="7.09211">
        <ele>690.20001220703</ele>
        <time>2023-08-02T08:48:59.000Z</time>
      </trkpt>
      <trkpt lat="43.78197" lon="7.09211">
        <ele>690.20001220703</ele>
        <time>2023-08-02T08:49:00.000Z</time>
      </trkpt>
      <trkpt lat="43.78197" lon="7.09211">
        <ele>690.20001220703</ele>
        <time>2023-08-02T08:49:01.000Z</time>
      </trkpt>
      <trkpt lat="43.78197" lon="7.09211">
        <ele>690.20001220703</ele>
        <time>2023-08-02T08:49:02.000Z</time>
      </trkpt>
      <trkpt lat="43.78197" lon="7.09211">
        <ele>690.20001220703</ele>
        <time>2023-08-02T08:49:03.000Z</time>
      </trkpt>
      <trkpt lat="43.78197" lon="7.09211">
        <ele>690.20001220703</ele>
        <time>2023-08-02T08:49:04.000Z</time>
      </trkpt>
      <trkpt lat="43.78197" lon="7.09211">
        <ele>690.20001220703</ele>
        <time>2023-08-02T08:49:05.000Z</time>
      </trkpt>
      <trkpt lat="43.78197" lon="7.09211">
        <ele>690.20001220703</ele>
        <time>2023-08-02T08:49:06.000Z</time>
      </trkpt>
      <trkpt lat="43.78197" lon="7.09211">
        <ele>690.20001220703</ele>
        <time>2023-08-02T08:49:07.000Z</time>
      </trkpt>
      <trkpt lat="43.78197" lon="7.0921">
        <ele>690.20001220703</ele>
        <time>2023-08-02T08:49:08.000Z</time>
      </trkpt>
      <trkpt lat="43.78197" lon="7.0921">
        <ele>690.20001220703</ele>
        <time>2023-08-02T08:49:09.000Z</time>
      </trkpt>
      <trkpt lat="43.78197" lon="7.0921">
        <ele>690.20001220703</ele>
        <time>2023-08-02T08:49:10.000Z</time>
      </trkpt>
      <trkpt lat="43.78197" lon="7.0921">
        <ele>690.20001220703</ele>
        <time>2023-08-02T08:49:11.000Z</time>
      </trkpt>
      <trkpt lat="43.78197" lon="7.0921">
        <ele>690.20001220703</ele>
        <time>2023-08-02T08:49:12.000Z</time>
      </trkpt>
      <trkpt lat="43.78197" lon="7.0921">
        <ele>690.20001220703</ele>
        <time>2023-08-02T08:49:13.000Z</time>
      </trkpt>
      <trkpt lat="43.78197" lon="7.0921">
        <ele>690.20001220703</ele>
        <time>2023-08-02T08:49:14.000Z</time>
      </trkpt>
      <trkpt lat="43.78197" lon="7.09209">
        <ele>690.20001220703</ele>
        <time>2023-08-02T08:49:15.000Z</time>
      </trkpt>
      <trkpt lat="43.78197" lon="7.09208">
        <ele>690.20001220703</ele>
        <time>2023-08-02T08:49:16.000Z</time>
      </trkpt>
      <trkpt lat="43.78197" lon="7.09208">
        <ele>690.20001220703</ele>
        <time>2023-08-02T08:49:17.000Z</time>
      </trkpt>
      <trkpt lat="43.78197" lon="7.09208">
        <ele>690.20001220703</ele>
        <time>2023-08-02T08:49:18.000Z</time>
      </trkpt>
      <trkpt lat="43.78197" lon="7.09208">
        <ele>690.20001220703</ele>
        <time>2023-08-02T08:49:19.000Z</time>
      </trkpt>
      <trkpt lat="43.78196" lon="7.09208">
        <ele>690.20001220703</ele>
        <time>2023-08-02T08:49:20.000Z</time>
      </trkpt>
      <trkpt lat="43.78196" lon="7.09208">
        <ele>690.20001220703</ele>
        <time>2023-08-02T08:49:21.000Z</time>
      </trkpt>
      <trkpt lat="43.78196" lon="7.09208">
        <ele>690.20001220703</ele>
        <time>2023-08-02T08:49:22.000Z</time>
      </trkpt>
      <trkpt lat="43.78196" lon="7.09208">
        <ele>690.20001220703</ele>
        <time>2023-08-02T08:49:23.000Z</time>
      </trkpt>
      <trkpt lat="43.78196" lon="7.09208">
        <ele>690.20001220703</ele>
        <time>2023-08-02T08:49:24.000Z</time>
      </trkpt>
      <trkpt lat="43.78196" lon="7.09208">
        <ele>690.20001220703</ele>
        <time>2023-08-02T08:49:25.000Z</time>
      </trkpt>
      <trkpt lat="43.78196" lon="7.09208">
        <ele>690.20001220703</ele>
        <time>2023-08-02T08:49:26.000Z</time>
      </trkpt>
      <trkpt lat="43.78196" lon="7.09208">
        <ele>690.20001220703</ele>
        <time>2023-08-02T08:49:27.000Z</time>
      </trkpt>
      <trkpt lat="43.78196" lon="7.09208">
        <ele>690.20001220703</ele>
        <time>2023-08-02T08:49:28.000Z</time>
      </trkpt>
      <trkpt lat="43.78196" lon="7.09208">
        <ele>690.20001220703</ele>
        <time>2023-08-02T08:49:29.000Z</time>
      </trkpt>
      <trkpt lat="43.78196" lon="7.09208">
        <ele>690.20001220703</ele>
        <time>2023-08-02T08:49:30.000Z</time>
      </trkpt>
      <trkpt lat="43.78196" lon="7.09208">
        <ele>690.20001220703</ele>
        <time>2023-08-02T08:49:31.000Z</time>
      </trkpt>
      <trkpt lat="43.78196" lon="7.09208">
        <ele>690.20001220703</ele>
        <time>2023-08-02T08:49:32.000Z</time>
      </trkpt>
      <trkpt lat="43.78196" lon="7.09208">
        <ele>690.20001220703</ele>
        <time>2023-08-02T08:49:33.000Z</time>
      </trkpt>
      <trkpt lat="43.78196" lon="7.09208">
        <ele>690.20001220703</ele>
        <time>2023-08-02T08:49:34.000Z</time>
      </trkpt>
      <trkpt lat="43.78196" lon="7.09208">
        <ele>690.20001220703</ele>
        <time>2023-08-02T08:49:35.000Z</time>
      </trkpt>
      <trkpt lat="43.78196" lon="7.09208">
        <ele>690.20001220703</ele>
        <time>2023-08-02T08:49:36.000Z</time>
      </trkpt>
      <trkpt lat="43.78196" lon="7.09208">
        <ele>690.20001220703</ele>
        <time>2023-08-02T08:49:37.000Z</time>
      </trkpt>
      <trkpt lat="43.78196" lon="7.09208">
        <ele>690.20001220703</ele>
        <time>2023-08-02T08:49:38.000Z</time>
      </trkpt>
      <trkpt lat="43.78196" lon="7.09208">
        <ele>690.20001220703</ele>
        <time>2023-08-02T08:49:39.000Z</time>
      </trkpt>
      <trkpt lat="43.78196" lon="7.09208">
        <ele>690.20001220703</ele>
        <time>2023-08-02T08:49:40.000Z</time>
      </trkpt>
      <trkpt lat="43.78196" lon="7.09208">
        <ele>690.20001220703</ele>
        <time>2023-08-02T08:49:41.000Z</time>
      </trkpt>
      <trkpt lat="43.78196" lon="7.09208">
        <ele>690.20001220703</ele>
        <time>2023-08-02T08:49:42.000Z</time>
      </trkpt>
      <trkpt lat="43.78196" lon="7.09208">
        <ele>690.20001220703</ele>
        <time>2023-08-02T08:49:43.000Z</time>
      </trkpt>
      <trkpt lat="43.78196" lon="7.09208">
        <ele>690.20001220703</ele>
        <time>2023-08-02T08:49:44.000Z</time>
      </trkpt>
      <trkpt lat="43.78196" lon="7.09208">
        <ele>690.20001220703</ele>
        <time>2023-08-02T08:49:45.000Z</time>
      </trkpt>
      <trkpt lat="43.78196" lon="7.09208">
        <ele>690.20001220703</ele>
        <time>2023-08-02T08:49:46.000Z</time>
      </trkpt>
      <trkpt lat="43.78196" lon="7.09208">
        <ele>690.20001220703</ele>
        <time>2023-08-02T08:49:47.000Z</time>
      </trkpt>
      <trkpt lat="43.78196" lon="7.09208">
        <ele>690.20001220703</ele>
        <time>2023-08-02T08:49:48.000Z</time>
      </trkpt>
      <trkpt lat="43.78195" lon="7.09208">
        <ele>690.20001220703</ele>
        <time>2023-08-02T08:49:49.000Z</time>
      </trkpt>
      <trkpt lat="43.78195" lon="7.09208">
        <ele>690.20001220703</ele>
        <time>2023-08-02T08:49:50.000Z</time>
      </trkpt>
      <trkpt lat="43.78195" lon="7.09208">
        <ele>690.20001220703</ele>
        <time>2023-08-02T08:49:51.000Z</time>
      </trkpt>
      <trkpt lat="43.78195" lon="7.09208">
        <ele>690.20001220703</ele>
        <time>2023-08-02T08:49:52.000Z</time>
      </trkpt>
      <trkpt lat="43.78195" lon="7.09208">
        <ele>690.20001220703</ele>
        <time>2023-08-02T08:49:53.000Z</time>
      </trkpt>
      <trkpt lat="43.78195" lon="7.09208">
        <ele>690.20001220703</ele>
        <time>2023-08-02T08:49:54.000Z</time>
      </trkpt>
      <trkpt lat="43.78195" lon="7.09208">
        <ele>690.20001220703</ele>
        <time>2023-08-02T08:49:55.000Z</time>
      </trkpt>
      <trkpt lat="43.78195" lon="7.09208">
        <ele>690.20001220703</ele>
        <time>2023-08-02T08:49:56.000Z</time>
      </trkpt>
      <trkpt lat="43.78195" lon="7.09208">
        <ele>690.20001220703</ele>
        <time>2023-08-02T08:49:57.000Z</time>
      </trkpt>
      <trkpt lat="43.78195" lon="7.09208">
        <ele>690.20001220703</ele>
        <time>2023-08-02T08:49:58.000Z</time>
      </trkpt>
      <trkpt lat="43.78195" lon="7.09208">
        <ele>690.20001220703</ele>
        <time>2023-08-02T08:49:59.000Z</time>
      </trkpt>
      <trkpt lat="43.78195" lon="7.09208">
        <ele>690.20001220703</ele>
        <time>2023-08-02T08:50:00.000Z</time>
      </trkpt>
      <trkpt lat="43.78195" lon="7.09208">
        <ele>690.20001220703</ele>
        <time>2023-08-02T08:50:01.000Z</time>
      </trkpt>
      <trkpt lat="43.78195" lon="7.09208">
        <ele>690.20001220703</ele>
        <time>2023-08-02T08:50:02.000Z</time>
      </trkpt>
      <trkpt lat="43.78195" lon="7.09208">
        <ele>690.20001220703</ele>
        <time>2023-08-02T08:50:03.000Z</time>
      </trkpt>
      <trkpt lat="43.78195" lon="7.09208">
        <ele>690.20001220703</ele>
        <time>2023-08-02T08:50:04.000Z</time>
      </trkpt>
      <trkpt lat="43.78195" lon="7.09208">
        <ele>690.20001220703</ele>
        <time>2023-08-02T08:50:05.000Z</time>
      </trkpt>
      <trkpt lat="43.78195" lon="7.09208">
        <ele>690.20001220703</ele>
        <time>2023-08-02T08:50:06.000Z</time>
      </trkpt>
      <trkpt lat="43.78196" lon="7.09208">
        <ele>690.20001220703</ele>
        <time>2023-08-02T08:50:07.000Z</time>
      </trkpt>
      <trkpt lat="43.78195" lon="7.09208">
        <ele>690.20001220703</ele>
        <time>2023-08-02T08:50:08.000Z</time>
      </trkpt>
      <trkpt lat="43.78195" lon="7.09208">
        <ele>690.20001220703</ele>
        <time>2023-08-02T08:50:09.000Z</time>
      </trkpt>
      <trkpt lat="43.78196" lon="7.09208">
        <ele>690.20001220703</ele>
        <time>2023-08-02T08:50:10.000Z</time>
      </trkpt>
      <trkpt lat="43.78196" lon="7.09208">
        <ele>690.20001220703</ele>
        <time>2023-08-02T08:50:11.000Z</time>
      </trkpt>
      <trkpt lat="43.78196" lon="7.09208">
        <ele>690.20001220703</ele>
        <time>2023-08-02T08:50:12.000Z</time>
      </trkpt>
      <trkpt lat="43.78196" lon="7.09208">
        <ele>690.20001220703</ele>
        <time>2023-08-02T08:50:13.000Z</time>
      </trkpt>
      <trkpt lat="43.78196" lon="7.09208">
        <ele>690.20001220703</ele>
        <time>2023-08-02T08:50:14.000Z</time>
      </trkpt>
      <trkpt lat="43.78196" lon="7.09208">
        <ele>690.20001220703</ele>
        <time>2023-08-02T08:50:15.000Z</time>
      </trkpt>
      <trkpt lat="43.78196" lon="7.09208">
        <ele>690.20001220703</ele>
        <time>2023-08-02T08:50:16.000Z</time>
      </trkpt>
      <trkpt lat="43.78196" lon="7.09208">
        <ele>690.20001220703</ele>
        <time>2023-08-02T08:50:17.000Z</time>
      </trkpt>
      <trkpt lat="43.78196" lon="7.09208">
        <ele>690.20001220703</ele>
        <time>2023-08-02T08:50:18.000Z</time>
      </trkpt>
      <trkpt lat="43.78196" lon="7.09208">
        <ele>690.20001220703</ele>
        <time>2023-08-02T08:50:19.000Z</time>
      </trkpt>
      <trkpt lat="43.78196" lon="7.09208">
        <ele>690.20001220703</ele>
        <time>2023-08-02T08:50:20.000Z</time>
      </trkpt>
      <trkpt lat="43.78196" lon="7.09208">
        <ele>690.20001220703</ele>
        <time>2023-08-02T08:50:21.000Z</time>
      </trkpt>
      <trkpt lat="43.78196" lon="7.09208">
        <ele>690.20001220703</ele>
        <time>2023-08-02T08:50:22.000Z</time>
      </trkpt>
      <trkpt lat="43.78196" lon="7.09208">
        <ele>690.20001220703</ele>
        <time>2023-08-02T08:50:23.000Z</time>
      </trkpt>
      <trkpt lat="43.78196" lon="7.09208">
        <ele>690.20001220703</ele>
        <time>2023-08-02T08:50:24.000Z</time>
      </trkpt>
      <trkpt lat="43.78196" lon="7.09208">
        <ele>690.20001220703</ele>
        <time>2023-08-02T08:50:25.000Z</time>
      </trkpt>
      <trkpt lat="43.78196" lon="7.09208">
        <ele>690.20001220703</ele>
        <time>2023-08-02T08:50:26.000Z</time>
      </trkpt>
      <trkpt lat="43.78196" lon="7.09208">
        <ele>690.20001220703</ele>
        <time>2023-08-02T08:50:27.000Z</time>
      </trkpt>
      <trkpt lat="43.78196" lon="7.09208">
        <ele>690.20001220703</ele>
        <time>2023-08-02T08:50:28.000Z</time>
      </trkpt>
      <trkpt lat="43.78196" lon="7.09208">
        <ele>690.20001220703</ele>
        <time>2023-08-02T08:50:29.000Z</time>
      </trkpt>
      <trkpt lat="43.78196" lon="7.09208">
        <ele>690.20001220703</ele>
        <time>2023-08-02T08:50:30.000Z</time>
      </trkpt>
      <trkpt lat="43.78196" lon="7.09208">
        <ele>690.20001220703</ele>
        <time>2023-08-02T08:50:31.000Z</time>
      </trkpt>
      <trkpt lat="43.78196" lon="7.09208">
        <ele>690.20001220703</ele>
        <time>2023-08-02T08:50:32.000Z</time>
      </trkpt>
      <trkpt lat="43.78196" lon="7.09208">
        <ele>690.20001220703</ele>
        <time>2023-08-02T08:50:33.000Z</time>
      </trkpt>
      <trkpt lat="43.78196" lon="7.09208">
        <ele>690.20001220703</ele>
        <time>2023-08-02T08:50:34.000Z</time>
      </trkpt>
      <trkpt lat="43.78196" lon="7.09208">
        <ele>690.20001220703</ele>
        <time>2023-08-02T08:50:35.000Z</time>
      </trkpt>
      <trkpt lat="43.78196" lon="7.09208">
        <ele>690.20001220703</ele>
        <time>2023-08-02T08:50:36.000Z</time>
      </trkpt>
      <trkpt lat="43.78196" lon="7.09208">
        <ele>690.20001220703</ele>
        <time>2023-08-02T08:50:37.000Z</time>
      </trkpt>
      <trkpt lat="43.78196" lon="7.09208">
        <ele>690.20001220703</ele>
        <time>2023-08-02T08:50:38.000Z</time>
      </trkpt>
      <trkpt lat="43.78196" lon="7.09208">
        <ele>690.20001220703</ele>
        <time>2023-08-02T08:50:39.000Z</time>
      </trkpt>
      <trkpt lat="43.78196" lon="7.09208">
        <ele>690.20001220703</ele>
        <time>2023-08-02T08:50:40.000Z</time>
      </trkpt>
      <trkpt lat="43.78196" lon="7.09208">
        <ele>690.20001220703</ele>
        <time>2023-08-02T08:50:41.000Z</time>
      </trkpt>
      <trkpt lat="43.78196" lon="7.09208">
        <ele>690.20001220703</ele>
        <time>2023-08-02T08:50:42.000Z</time>
      </trkpt>
      <trkpt lat="43.78196" lon="7.09208">
        <ele>690.20001220703</ele>
        <time>2023-08-02T08:50:43.000Z</time>
      </trkpt>
      <trkpt lat="43.78196" lon="7.09208">
        <ele>690.20001220703</ele>
        <time>2023-08-02T08:50:44.000Z</time>
      </trkpt>
      <trkpt lat="43.78196" lon="7.09208">
        <ele>690.20001220703</ele>
        <time>2023-08-02T08:50:45.000Z</time>
      </trkpt>
      <trkpt lat="43.78196" lon="7.09208">
        <ele>690.20001220703</ele>
        <time>2023-08-02T08:50:46.000Z</time>
      </trkpt>
      <trkpt lat="43.78196" lon="7.09208">
        <ele>690.20001220703</ele>
        <time>2023-08-02T08:50:47.000Z</time>
      </trkpt>
      <trkpt lat="43.78196" lon="7.09208">
        <ele>690.20001220703</ele>
        <time>2023-08-02T08:50:48.000Z</time>
      </trkpt>
      <trkpt lat="43.78196" lon="7.09208">
        <ele>690.20001220703</ele>
        <time>2023-08-02T08:50:49.000Z</time>
      </trkpt>
      <trkpt lat="43.78196" lon="7.09208">
        <ele>690.20001220703</ele>
        <time>2023-08-02T08:50:50.000Z</time>
      </trkpt>
      <trkpt lat="43.78196" lon="7.09208">
        <ele>690.20001220703</ele>
        <time>2023-08-02T08:50:51.000Z</time>
      </trkpt>
      <trkpt lat="43.78196" lon="7.09208">
        <ele>690.20001220703</ele>
        <time>2023-08-02T08:50:52.000Z</time>
      </trkpt>
      <trkpt lat="43.78196" lon="7.09208">
        <ele>690.20001220703</ele>
        <time>2023-08-02T08:50:53.000Z</time>
      </trkpt>
      <trkpt lat="43.78196" lon="7.09208">
        <ele>690.20001220703</ele>
        <time>2023-08-02T08:50:54.000Z</time>
      </trkpt>
      <trkpt lat="43.78196" lon="7.09208">
        <ele>690.20001220703</ele>
        <time>2023-08-02T08:50:55.000Z</time>
      </trkpt>
      <trkpt lat="43.78196" lon="7.09208">
        <ele>687.79998779297</ele>
        <time>2023-08-02T08:50:56.000Z</time>
      </trkpt>
      <trkpt lat="43.78196" lon="7.09208">
        <ele>687.79998779297</ele>
        <time>2023-08-02T08:50:57.000Z</time>
      </trkpt>
      <trkpt lat="43.78196" lon="7.09208">
        <ele>687.79998779297</ele>
        <time>2023-08-02T08:50:58.000Z</time>
      </trkpt>
      <trkpt lat="43.78196" lon="7.09208">
        <ele>687.79998779297</ele>
        <time>2023-08-02T08:50:59.000Z</time>
      </trkpt>
      <trkpt lat="43.78195" lon="7.09208">
        <ele>687.79998779297</ele>
        <time>2023-08-02T08:51:00.000Z</time>
      </trkpt>
      <trkpt lat="43.78195" lon="7.09208">
        <ele>687.59997558594</ele>
        <time>2023-08-02T08:51:01.000Z</time>
      </trkpt>
      <trkpt lat="43.78195" lon="7.09208">
        <ele>687.59997558594</ele>
        <time>2023-08-02T08:51:02.000Z</time>
      </trkpt>
      <trkpt lat="43.78195" lon="7.09208">
        <ele>687.59997558594</ele>
        <time>2023-08-02T08:51:03.000Z</time>
      </trkpt>
      <trkpt lat="43.78195" lon="7.09208">
        <ele>687.59997558594</ele>
        <time>2023-08-02T08:51:04.000Z</time>
      </trkpt>
      <trkpt lat="43.78195" lon="7.09208">
        <ele>687.59997558594</ele>
        <time>2023-08-02T08:51:05.000Z</time>
      </trkpt>
      <trkpt lat="43.78195" lon="7.09208">
        <ele>687.40002441406</ele>
        <time>2023-08-02T08:51:06.000Z</time>
      </trkpt>
      <trkpt lat="43.78195" lon="7.09208">
        <ele>687.40002441406</ele>
        <time>2023-08-02T08:51:07.000Z</time>
      </trkpt>
      <trkpt lat="43.78195" lon="7.09208">
        <ele>687.40002441406</ele>
        <time>2023-08-02T08:51:08.000Z</time>
      </trkpt>
      <trkpt lat="43.78195" lon="7.09208">
        <ele>687.40002441406</ele>
        <time>2023-08-02T08:51:09.000Z</time>
      </trkpt>
      <trkpt lat="43.78195" lon="7.09208">
        <ele>687.40002441406</ele>
        <time>2023-08-02T08:51:10.000Z</time>
      </trkpt>
      <trkpt lat="43.78195" lon="7.09208">
        <ele>687.40002441406</ele>
        <time>2023-08-02T08:51:11.000Z</time>
      </trkpt>
      <trkpt lat="43.78195" lon="7.09208">
        <ele>687.40002441406</ele>
        <time>2023-08-02T08:51:12.000Z</time>
      </trkpt>
      <trkpt lat="43.78195" lon="7.09208">
        <ele>687.40002441406</ele>
        <time>2023-08-02T08:51:13.000Z</time>
      </trkpt>
      <trkpt lat="43.78195" lon="7.09208">
        <ele>687.20001220703</ele>
        <time>2023-08-02T08:51:14.000Z</time>
      </trkpt>
      <trkpt lat="43.78195" lon="7.09208">
        <ele>687.20001220703</ele>
        <time>2023-08-02T08:51:15.000Z</time>
      </trkpt>
      <trkpt lat="43.78196" lon="7.09208">
        <ele>687.20001220703</ele>
        <time>2023-08-02T08:51:16.000Z</time>
      </trkpt>
      <trkpt lat="43.78196" lon="7.09208">
        <ele>687.20001220703</ele>
        <time>2023-08-02T08:51:17.000Z</time>
      </trkpt>
      <trkpt lat="43.78195" lon="7.09208">
        <ele>687.20001220703</ele>
        <time>2023-08-02T08:51:18.000Z</time>
      </trkpt>
      <trkpt lat="43.78195" lon="7.09208">
        <ele>687.20001220703</ele>
        <time>2023-08-02T08:51:19.000Z</time>
      </trkpt>
      <trkpt lat="43.78195" lon="7.09208">
        <ele>687</ele>
        <time>2023-08-02T08:51:20.000Z</time>
      </trkpt>
      <trkpt lat="43.78196" lon="7.09208">
        <ele>687</ele>
        <time>2023-08-02T08:51:21.000Z</time>
      </trkpt>
      <trkpt lat="43.78196" lon="7.09208">
        <ele>687</ele>
        <time>2023-08-02T08:51:22.000Z</time>
      </trkpt>
      <trkpt lat="43.78196" lon="7.09208">
        <ele>687</ele>
        <time>2023-08-02T08:51:23.000Z</time>
      </trkpt>
      <trkpt lat="43.78196" lon="7.09208">
        <ele>687</ele>
        <time>2023-08-02T08:51:24.000Z</time>
      </trkpt>
      <trkpt lat="43.78196" lon="7.09207">
        <ele>687</ele>
        <time>2023-08-02T08:51:25.000Z</time>
      </trkpt>
      <trkpt lat="43.78196" lon="7.09207">
        <ele>687</ele>
        <time>2023-08-02T08:51:26.000Z</time>
      </trkpt>
      <trkpt lat="43.78196" lon="7.09208">
        <ele>687</ele>
        <time>2023-08-02T08:51:27.000Z</time>
      </trkpt>
      <trkpt lat="43.78197" lon="7.09209">
        <ele>687</ele>
        <time>2023-08-02T08:51:28.000Z</time>
      </trkpt>
      <trkpt lat="43.78197" lon="7.09209">
        <ele>687.20001220703</ele>
        <time>2023-08-02T08:51:29.000Z</time>
      </trkpt>
      <trkpt lat="43.78197" lon="7.09209">
        <ele>687.40002441406</ele>
        <time>2023-08-02T08:51:30.000Z</time>
      </trkpt>
      <trkpt lat="43.78197" lon="7.09209">
        <ele>687.40002441406</ele>
        <time>2023-08-02T08:51:31.000Z</time>
      </trkpt>
      <trkpt lat="43.78197" lon="7.09209">
        <ele>687.40002441406</ele>
        <time>2023-08-02T08:51:32.000Z</time>
      </trkpt>
      <trkpt lat="43.78197" lon="7.09209">
        <ele>687.59997558594</ele>
        <time>2023-08-02T08:51:33.000Z</time>
      </trkpt>
      <trkpt lat="43.78197" lon="7.09209">
        <ele>687.59997558594</ele>
        <time>2023-08-02T08:51:34.000Z</time>
      </trkpt>
      <trkpt lat="43.78198" lon="7.09209">
        <ele>687.59997558594</ele>
        <time>2023-08-02T08:51:35.000Z</time>
      </trkpt>
      <trkpt lat="43.78199" lon="7.0921">
        <ele>687.59997558594</ele>
        <time>2023-08-02T08:51:36.000Z</time>
      </trkpt>
      <trkpt lat="43.78199" lon="7.09211">
        <ele>687.59997558594</ele>
        <time>2023-08-02T08:51:37.000Z</time>
      </trkpt>
      <trkpt lat="43.78198" lon="7.0921">
        <ele>687.59997558594</ele>
        <time>2023-08-02T08:51:38.000Z</time>
      </trkpt>
      <trkpt lat="43.78198" lon="7.0921">
        <ele>687.59997558594</ele>
        <time>2023-08-02T08:51:39.000Z</time>
      </trkpt>
      <trkpt lat="43.78198" lon="7.09211">
        <ele>687.59997558594</ele>
        <time>2023-08-02T08:51:40.000Z</time>
      </trkpt>
      <trkpt lat="43.78198" lon="7.09212">
        <ele>687.59997558594</ele>
        <time>2023-08-02T08:51:41.000Z</time>
      </trkpt>
      <trkpt lat="43.78198" lon="7.09214">
        <ele>687.59997558594</ele>
        <time>2023-08-02T08:51:42.000Z</time>
      </trkpt>
      <trkpt lat="43.78198" lon="7.09216">
        <ele>687.59997558594</ele>
        <time>2023-08-02T08:51:43.000Z</time>
      </trkpt>
      <trkpt lat="43.78197" lon="7.0922">
        <ele>687.59997558594</ele>
        <time>2023-08-02T08:51:44.000Z</time>
      </trkpt>
      <trkpt lat="43.78197" lon="7.09224">
        <ele>687.59997558594</ele>
        <time>2023-08-02T08:51:45.000Z</time>
      </trkpt>
      <trkpt lat="43.78196" lon="7.09227">
        <ele>687.79998779297</ele>
        <time>2023-08-02T08:51:46.000Z</time>
      </trkpt>
      <trkpt lat="43.78195" lon="7.0923">
        <ele>687.79998779297</ele>
        <time>2023-08-02T08:51:47.000Z</time>
      </trkpt>
      <trkpt lat="43.78195" lon="7.09233">
        <ele>687.79998779297</ele>
        <time>2023-08-02T08:51:48.000Z</time>
      </trkpt>
      <trkpt lat="43.78194" lon="7.09237">
        <ele>687.79998779297</ele>
        <time>2023-08-02T08:51:49.000Z</time>
      </trkpt>
      <trkpt lat="43.78194" lon="7.0924">
        <ele>687.79998779297</ele>
        <time>2023-08-02T08:51:50.000Z</time>
      </trkpt>
      <trkpt lat="43.78193" lon="7.09244">
        <ele>688.20001220703</ele>
        <time>2023-08-02T08:51:51.000Z</time>
      </trkpt>
      <trkpt lat="43.78192" lon="7.09246">
        <ele>688.20001220703</ele>
        <time>2023-08-02T08:51:52.000Z</time>
      </trkpt>
      <trkpt lat="43.78191" lon="7.09249">
        <ele>688.20001220703</ele>
        <time>2023-08-02T08:51:53.000Z</time>
      </trkpt>
      <trkpt lat="43.78191" lon="7.09252">
        <ele>688.40002441406</ele>
        <time>2023-08-02T08:51:54.000Z</time>
      </trkpt>
      <trkpt lat="43.7819" lon="7.09256">
        <ele>688.59997558594</ele>
        <time>2023-08-02T08:51:55.000Z</time>
      </trkpt>
      <trkpt lat="43.78189" lon="7.09259">
        <ele>688.79998779297</ele>
        <time>2023-08-02T08:51:56.000Z</time>
      </trkpt>
      <trkpt lat="43.78189" lon="7.09263">
        <ele>689</ele>
        <time>2023-08-02T08:51:57.000Z</time>
      </trkpt>
      <trkpt lat="43.78188" lon="7.09266">
        <ele>689</ele>
        <time>2023-08-02T08:51:58.000Z</time>
      </trkpt>
      <trkpt lat="43.78188" lon="7.09269">
        <ele>689</ele>
        <time>2023-08-02T08:51:59.000Z</time>
      </trkpt>
      <trkpt lat="43.78188" lon="7.09272">
        <ele>689.20001220703</ele>
        <time>2023-08-02T08:52:00.000Z</time>
      </trkpt>
      <trkpt lat="43.78188" lon="7.09276">
        <ele>689.20001220703</ele>
        <time>2023-08-02T08:52:01.000Z</time>
      </trkpt>
      <trkpt lat="43.78188" lon="7.0928">
        <ele>689.20001220703</ele>
        <time>2023-08-02T08:52:02.000Z</time>
      </trkpt>
      <trkpt lat="43.78188" lon="7.09284">
        <ele>689.59997558594</ele>
        <time>2023-08-02T08:52:03.000Z</time>
      </trkpt>
      <trkpt lat="43.78189" lon="7.09288">
        <ele>689.59997558594</ele>
        <time>2023-08-02T08:52:04.000Z</time>
      </trkpt>
      <trkpt lat="43.78189" lon="7.09292">
        <ele>689.79998779297</ele>
        <time>2023-08-02T08:52:05.000Z</time>
      </trkpt>
      <trkpt lat="43.78189" lon="7.09297">
        <ele>689.79998779297</ele>
        <time>2023-08-02T08:52:06.000Z</time>
      </trkpt>
      <trkpt lat="43.78189" lon="7.09301">
        <ele>690</ele>
        <time>2023-08-02T08:52:07.000Z</time>
      </trkpt>
      <trkpt lat="43.7819" lon="7.09307">
        <ele>690</ele>
        <time>2023-08-02T08:52:08.000Z</time>
      </trkpt>
      <trkpt lat="43.7819" lon="7.09311">
        <ele>690.20001220703</ele>
        <time>2023-08-02T08:52:09.000Z</time>
      </trkpt>
      <trkpt lat="43.78191" lon="7.09315">
        <ele>690.20001220703</ele>
        <time>2023-08-02T08:52:10.000Z</time>
      </trkpt>
      <trkpt lat="43.7819" lon="7.09319">
        <ele>690.40002441406</ele>
        <time>2023-08-02T08:52:11.000Z</time>
      </trkpt>
      <trkpt lat="43.78189" lon="7.09323">
        <ele>690.59997558594</ele>
        <time>2023-08-02T08:52:12.000Z</time>
      </trkpt>
      <trkpt lat="43.78189" lon="7.09327">
        <ele>690.59997558594</ele>
        <time>2023-08-02T08:52:13.000Z</time>
      </trkpt>
      <trkpt lat="43.78188" lon="7.0933">
        <ele>691</ele>
        <time>2023-08-02T08:52:14.000Z</time>
      </trkpt>
      <trkpt lat="43.78187" lon="7.09334">
        <ele>691</ele>
        <time>2023-08-02T08:52:15.000Z</time>
      </trkpt>
      <trkpt lat="43.78186" lon="7.09338">
        <ele>691.20001220703</ele>
        <time>2023-08-02T08:52:16.000Z</time>
      </trkpt>
      <trkpt lat="43.78186" lon="7.09341">
        <ele>691.20001220703</ele>
        <time>2023-08-02T08:52:17.000Z</time>
      </trkpt>
      <trkpt lat="43.78185" lon="7.09344">
        <ele>692</ele>
        <time>2023-08-02T08:52:18.000Z</time>
      </trkpt>
      <trkpt lat="43.78185" lon="7.09347">
        <ele>692.20001220703</ele>
        <time>2023-08-02T08:52:19.000Z</time>
      </trkpt>
      <trkpt lat="43.78185" lon="7.0935">
        <ele>692.79998779297</ele>
        <time>2023-08-02T08:52:20.000Z</time>
      </trkpt>
      <trkpt lat="43.78185" lon="7.09354">
        <ele>693</ele>
        <time>2023-08-02T08:52:21.000Z</time>
      </trkpt>
      <trkpt lat="43.78186" lon="7.09358">
        <ele>693</ele>
        <time>2023-08-02T08:52:22.000Z</time>
      </trkpt>
      <trkpt lat="43.78187" lon="7.09361">
        <ele>693.20001220703</ele>
        <time>2023-08-02T08:52:23.000Z</time>
      </trkpt>
      <trkpt lat="43.78189" lon="7.09364">
        <ele>693.20001220703</ele>
        <time>2023-08-02T08:52:24.000Z</time>
      </trkpt>
      <trkpt lat="43.78191" lon="7.09367">
        <ele>693.59997558594</ele>
        <time>2023-08-02T08:52:25.000Z</time>
      </trkpt>
      <trkpt lat="43.78193" lon="7.0937">
        <ele>694</ele>
        <time>2023-08-02T08:52:26.000Z</time>
      </trkpt>
      <trkpt lat="43.78194" lon="7.09373">
        <ele>694</ele>
        <time>2023-08-02T08:52:27.000Z</time>
      </trkpt>
      <trkpt lat="43.78195" lon="7.09376">
        <ele>694.40002441406</ele>
        <time>2023-08-02T08:52:28.000Z</time>
      </trkpt>
      <trkpt lat="43.78196" lon="7.09379">
        <ele>694.40002441406</ele>
        <time>2023-08-02T08:52:29.000Z</time>
      </trkpt>
      <trkpt lat="43.78198" lon="7.09381">
        <ele>694.40002441406</ele>
        <time>2023-08-02T08:52:30.000Z</time>
      </trkpt>
      <trkpt lat="43.78199" lon="7.09383">
        <ele>694.40002441406</ele>
        <time>2023-08-02T08:52:31.000Z</time>
      </trkpt>
      <trkpt lat="43.782" lon="7.09385">
        <ele>694.59997558594</ele>
        <time>2023-08-02T08:52:32.000Z</time>
      </trkpt>
      <trkpt lat="43.78201" lon="7.09388">
        <ele>695</ele>
        <time>2023-08-02T08:52:33.000Z</time>
      </trkpt>
      <trkpt lat="43.78203" lon="7.09391">
        <ele>695</ele>
        <time>2023-08-02T08:52:34.000Z</time>
      </trkpt>
      <trkpt lat="43.78204" lon="7.09393">
        <ele>695.20001220703</ele>
        <time>2023-08-02T08:52:35.000Z</time>
      </trkpt>
      <trkpt lat="43.78206" lon="7.09396">
        <ele>695.59997558594</ele>
        <time>2023-08-02T08:52:36.000Z</time>
      </trkpt>
      <trkpt lat="43.78207" lon="7.09399">
        <ele>695.79998779297</ele>
        <time>2023-08-02T08:52:37.000Z</time>
      </trkpt>
      <trkpt lat="43.78208" lon="7.09401">
        <ele>696</ele>
        <time>2023-08-02T08:52:38.000Z</time>
      </trkpt>
      <trkpt lat="43.7821" lon="7.09405">
        <ele>696.40002441406</ele>
        <time>2023-08-02T08:52:39.000Z</time>
      </trkpt>
      <trkpt lat="43.78211" lon="7.09408">
        <ele>696.79998779297</ele>
        <time>2023-08-02T08:52:40.000Z</time>
      </trkpt>
      <trkpt lat="43.78212" lon="7.09411">
        <ele>696.79998779297</ele>
        <time>2023-08-02T08:52:41.000Z</time>
      </trkpt>
      <trkpt lat="43.78214" lon="7.09415">
        <ele>697</ele>
        <time>2023-08-02T08:52:42.000Z</time>
      </trkpt>
      <trkpt lat="43.78215" lon="7.09418">
        <ele>697</ele>
        <time>2023-08-02T08:52:43.000Z</time>
      </trkpt>
      <trkpt lat="43.78216" lon="7.09421">
        <ele>697.40002441406</ele>
        <time>2023-08-02T08:52:44.000Z</time>
      </trkpt>
      <trkpt lat="43.78216" lon="7.09425">
        <ele>697.59997558594</ele>
        <time>2023-08-02T08:52:45.000Z</time>
      </trkpt>
      <trkpt lat="43.78217" lon="7.09427">
        <ele>698</ele>
        <time>2023-08-02T08:52:46.000Z</time>
      </trkpt>
      <trkpt lat="43.78218" lon="7.09431">
        <ele>698.40002441406</ele>
        <time>2023-08-02T08:52:47.000Z</time>
      </trkpt>
      <trkpt lat="43.78219" lon="7.09434">
        <ele>698.79998779297</ele>
        <time>2023-08-02T08:52:48.000Z</time>
      </trkpt>
      <trkpt lat="43.78219" lon="7.09437">
        <ele>698.79998779297</ele>
        <time>2023-08-02T08:52:49.000Z</time>
      </trkpt>
      <trkpt lat="43.7822" lon="7.09441">
        <ele>699</ele>
        <time>2023-08-02T08:52:50.000Z</time>
      </trkpt>
      <trkpt lat="43.7822" lon="7.09444">
        <ele>699.40002441406</ele>
        <time>2023-08-02T08:52:51.000Z</time>
      </trkpt>
      <trkpt lat="43.78221" lon="7.09447">
        <ele>699.59997558594</ele>
        <time>2023-08-02T08:52:52.000Z</time>
      </trkpt>
      <trkpt lat="43.78221" lon="7.0945">
        <ele>699.59997558594</ele>
        <time>2023-08-02T08:52:53.000Z</time>
      </trkpt>
      <trkpt lat="43.78222" lon="7.09454">
        <ele>700</ele>
        <time>2023-08-02T08:52:54.000Z</time>
      </trkpt>
      <trkpt lat="43.78222" lon="7.09457">
        <ele>700.20001220703</ele>
        <time>2023-08-02T08:52:55.000Z</time>
      </trkpt>
      <trkpt lat="43.78222" lon="7.09459">
        <ele>700.40002441406</ele>
        <time>2023-08-02T08:52:56.000Z</time>
      </trkpt>
      <trkpt lat="43.78222" lon="7.09463">
        <ele>700.79998779297</ele>
        <time>2023-08-02T08:52:57.000Z</time>
      </trkpt>
      <trkpt lat="43.78223" lon="7.09466">
        <ele>701.20001220703</ele>
        <time>2023-08-02T08:52:58.000Z</time>
      </trkpt>
      <trkpt lat="43.78224" lon="7.09469">
        <ele>701.20001220703</ele>
        <time>2023-08-02T08:52:59.000Z</time>
      </trkpt>
      <trkpt lat="43.78224" lon="7.09473">
        <ele>701.59997558594</ele>
        <time>2023-08-02T08:53:00.000Z</time>
      </trkpt>
      <trkpt lat="43.78225" lon="7.09476">
        <ele>701.79998779297</ele>
        <time>2023-08-02T08:53:01.000Z</time>
      </trkpt>
      <trkpt lat="43.78226" lon="7.0948">
        <ele>702.40002441406</ele>
        <time>2023-08-02T08:53:02.000Z</time>
      </trkpt>
      <trkpt lat="43.78225" lon="7.09484">
        <ele>702.40002441406</ele>
        <time>2023-08-02T08:53:03.000Z</time>
      </trkpt>
      <trkpt lat="43.78225" lon="7.09487">
        <ele>702.59997558594</ele>
        <time>2023-08-02T08:53:04.000Z</time>
      </trkpt>
      <trkpt lat="43.78227" lon="7.0949">
        <ele>702.59997558594</ele>
        <time>2023-08-02T08:53:05.000Z</time>
      </trkpt>
      <trkpt lat="43.78228" lon="7.09493">
        <ele>703</ele>
        <time>2023-08-02T08:53:06.000Z</time>
      </trkpt>
      <trkpt lat="43.78229" lon="7.09496">
        <ele>703.40002441406</ele>
        <time>2023-08-02T08:53:07.000Z</time>
      </trkpt>
      <trkpt lat="43.78229" lon="7.095">
        <ele>703.40002441406</ele>
        <time>2023-08-02T08:53:08.000Z</time>
      </trkpt>
      <trkpt lat="43.7823" lon="7.09503">
        <ele>704</ele>
        <time>2023-08-02T08:53:09.000Z</time>
      </trkpt>
      <trkpt lat="43.78231" lon="7.09506">
        <ele>704.40002441406</ele>
        <time>2023-08-02T08:53:10.000Z</time>
      </trkpt>
      <trkpt lat="43.78232" lon="7.09509">
        <ele>704.40002441406</ele>
        <time>2023-08-02T08:53:11.000Z</time>
      </trkpt>
      <trkpt lat="43.78233" lon="7.09512">
        <ele>704.59997558594</ele>
        <time>2023-08-02T08:53:12.000Z</time>
      </trkpt>
      <trkpt lat="43.78234" lon="7.09515">
        <ele>705</ele>
        <time>2023-08-02T08:53:13.000Z</time>
      </trkpt>
      <trkpt lat="43.78235" lon="7.09518">
        <ele>705</ele>
        <time>2023-08-02T08:53:14.000Z</time>
      </trkpt>
      <trkpt lat="43.78236" lon="7.0952">
        <ele>705.40002441406</ele>
        <time>2023-08-02T08:53:15.000Z</time>
      </trkpt>
      <trkpt lat="43.78237" lon="7.09523">
        <ele>705.79998779297</ele>
        <time>2023-08-02T08:53:16.000Z</time>
      </trkpt>
      <trkpt lat="43.78238" lon="7.09526">
        <ele>706.20001220703</ele>
        <time>2023-08-02T08:53:17.000Z</time>
      </trkpt>
      <trkpt lat="43.7824" lon="7.09528">
        <ele>706.40002441406</ele>
        <time>2023-08-02T08:53:18.000Z</time>
      </trkpt>
      <trkpt lat="43.78241" lon="7.09531">
        <ele>706.79998779297</ele>
        <time>2023-08-02T08:53:19.000Z</time>
      </trkpt>
      <trkpt lat="43.78241" lon="7.09534">
        <ele>706.79998779297</ele>
        <time>2023-08-02T08:53:20.000Z</time>
      </trkpt>
      <trkpt lat="43.78242" lon="7.09537">
        <ele>707.20001220703</ele>
        <time>2023-08-02T08:53:21.000Z</time>
      </trkpt>
      <trkpt lat="43.78242" lon="7.0954">
        <ele>707.79998779297</ele>
        <time>2023-08-02T08:53:22.000Z</time>
      </trkpt>
      <trkpt lat="43.78243" lon="7.09543">
        <ele>708</ele>
        <time>2023-08-02T08:53:23.000Z</time>
      </trkpt>
      <trkpt lat="43.78244" lon="7.09546">
        <ele>708.40002441406</ele>
        <time>2023-08-02T08:53:24.000Z</time>
      </trkpt>
      <trkpt lat="43.78245" lon="7.09549">
        <ele>708.40002441406</ele>
        <time>2023-08-02T08:53:25.000Z</time>
      </trkpt>
      <trkpt lat="43.78246" lon="7.09551">
        <ele>709</ele>
        <time>2023-08-02T08:53:26.000Z</time>
      </trkpt>
      <trkpt lat="43.78247" lon="7.09554">
        <ele>709.20001220703</ele>
        <time>2023-08-02T08:53:27.000Z</time>
      </trkpt>
      <trkpt lat="43.78248" lon="7.09557">
        <ele>709.59997558594</ele>
        <time>2023-08-02T08:53:28.000Z</time>
      </trkpt>
      <trkpt lat="43.7825" lon="7.09559">
        <ele>709.79998779297</ele>
        <time>2023-08-02T08:53:29.000Z</time>
      </trkpt>
      <trkpt lat="43.78252" lon="7.09562">
        <ele>709.79998779297</ele>
        <time>2023-08-02T08:53:30.000Z</time>
      </trkpt>
      <trkpt lat="43.78253" lon="7.09565">
        <ele>710</ele>
        <time>2023-08-02T08:53:31.000Z</time>
      </trkpt>
      <trkpt lat="43.78255" lon="7.09568">
        <ele>710.20001220703</ele>
        <time>2023-08-02T08:53:32.000Z</time>
      </trkpt>
      <trkpt lat="43.78257" lon="7.0957">
        <ele>710.40002441406</ele>
        <time>2023-08-02T08:53:33.000Z</time>
      </trkpt>
      <trkpt lat="43.78259" lon="7.09573">
        <ele>710.59997558594</ele>
        <time>2023-08-02T08:53:34.000Z</time>
      </trkpt>
      <trkpt lat="43.7826" lon="7.09575">
        <ele>710.59997558594</ele>
        <time>2023-08-02T08:53:35.000Z</time>
      </trkpt>
      <trkpt lat="43.78262" lon="7.09577">
        <ele>711</ele>
        <time>2023-08-02T08:53:36.000Z</time>
      </trkpt>
      <trkpt lat="43.78264" lon="7.09579">
        <ele>711.20001220703</ele>
        <time>2023-08-02T08:53:37.000Z</time>
      </trkpt>
      <trkpt lat="43.78265" lon="7.09581">
        <ele>711.20001220703</ele>
        <time>2023-08-02T08:53:38.000Z</time>
      </trkpt>
      <trkpt lat="43.78267" lon="7.09583">
        <ele>711.20001220703</ele>
        <time>2023-08-02T08:53:39.000Z</time>
      </trkpt>
      <trkpt lat="43.78269" lon="7.09585">
        <ele>711.20001220703</ele>
        <time>2023-08-02T08:53:40.000Z</time>
      </trkpt>
      <trkpt lat="43.78271" lon="7.09586">
        <ele>711.59997558594</ele>
        <time>2023-08-02T08:53:41.000Z</time>
      </trkpt>
      <trkpt lat="43.78274" lon="7.09588">
        <ele>712</ele>
        <time>2023-08-02T08:53:42.000Z</time>
      </trkpt>
      <trkpt lat="43.78276" lon="7.0959">
        <ele>712</ele>
        <time>2023-08-02T08:53:43.000Z</time>
      </trkpt>
      <trkpt lat="43.78278" lon="7.09591">
        <ele>712.40002441406</ele>
        <time>2023-08-02T08:53:44.000Z</time>
      </trkpt>
      <trkpt lat="43.7828" lon="7.09592">
        <ele>712.40002441406</ele>
        <time>2023-08-02T08:53:45.000Z</time>
      </trkpt>
      <trkpt lat="43.78282" lon="7.09594">
        <ele>712.79998779297</ele>
        <time>2023-08-02T08:53:46.000Z</time>
      </trkpt>
      <trkpt lat="43.78284" lon="7.09595">
        <ele>712.79998779297</ele>
        <time>2023-08-02T08:53:47.000Z</time>
      </trkpt>
      <trkpt lat="43.78287" lon="7.09596">
        <ele>713.20001220703</ele>
        <time>2023-08-02T08:53:48.000Z</time>
      </trkpt>
      <trkpt lat="43.78289" lon="7.09598">
        <ele>713.20001220703</ele>
        <time>2023-08-02T08:53:49.000Z</time>
      </trkpt>
      <trkpt lat="43.7829" lon="7.096">
        <ele>713.79998779297</ele>
        <time>2023-08-02T08:53:50.000Z</time>
      </trkpt>
      <trkpt lat="43.78292" lon="7.09601">
        <ele>713.79998779297</ele>
        <time>2023-08-02T08:53:51.000Z</time>
      </trkpt>
      <trkpt lat="43.78294" lon="7.09603">
        <ele>714</ele>
        <time>2023-08-02T08:53:52.000Z</time>
      </trkpt>
      <trkpt lat="43.78295" lon="7.09605">
        <ele>714</ele>
        <time>2023-08-02T08:53:53.000Z</time>
      </trkpt>
      <trkpt lat="43.78297" lon="7.09607">
        <ele>714.20001220703</ele>
        <time>2023-08-02T08:53:54.000Z</time>
      </trkpt>
      <trkpt lat="43.78298" lon="7.0961">
        <ele>714.59997558594</ele>
        <time>2023-08-02T08:53:55.000Z</time>
      </trkpt>
      <trkpt lat="43.78299" lon="7.09612">
        <ele>715</ele>
        <time>2023-08-02T08:53:56.000Z</time>
      </trkpt>
      <trkpt lat="43.78301" lon="7.09614">
        <ele>715.40002441406</ele>
        <time>2023-08-02T08:53:57.000Z</time>
      </trkpt>
      <trkpt lat="43.78302" lon="7.09617">
        <ele>715.40002441406</ele>
        <time>2023-08-02T08:53:58.000Z</time>
      </trkpt>
      <trkpt lat="43.78304" lon="7.0962">
        <ele>715.59997558594</ele>
        <time>2023-08-02T08:53:59.000Z</time>
      </trkpt>
      <trkpt lat="43.78306" lon="7.09622">
        <ele>716.20001220703</ele>
        <time>2023-08-02T08:54:00.000Z</time>
      </trkpt>
      <trkpt lat="43.78308" lon="7.09624">
        <ele>716.40002441406</ele>
        <time>2023-08-02T08:54:01.000Z</time>
      </trkpt>
      <trkpt lat="43.7831" lon="7.09625">
        <ele>716.59997558594</ele>
        <time>2023-08-02T08:54:02.000Z</time>
      </trkpt>
      <trkpt lat="43.78312" lon="7.09627">
        <ele>717.20001220703</ele>
        <time>2023-08-02T08:54:03.000Z</time>
      </trkpt>
      <trkpt lat="43.78315" lon="7.09628">
        <ele>717.20001220703</ele>
        <time>2023-08-02T08:54:04.000Z</time>
      </trkpt>
      <trkpt lat="43.78317" lon="7.09628">
        <ele>717.20001220703</ele>
        <time>2023-08-02T08:54:05.000Z</time>
      </trkpt>
      <trkpt lat="43.78318" lon="7.09629">
        <ele>717.40002441406</ele>
        <time>2023-08-02T08:54:06.000Z</time>
      </trkpt>
      <trkpt lat="43.7832" lon="7.0963">
        <ele>717.40002441406</ele>
        <time>2023-08-02T08:54:07.000Z</time>
      </trkpt>
      <trkpt lat="43.78322" lon="7.0963">
        <ele>717.59997558594</ele>
        <time>2023-08-02T08:54:08.000Z</time>
      </trkpt>
      <trkpt lat="43.78324" lon="7.09631">
        <ele>717.79998779297</ele>
        <time>2023-08-02T08:54:09.000Z</time>
      </trkpt>
      <trkpt lat="43.78326" lon="7.09633">
        <ele>718</ele>
        <time>2023-08-02T08:54:10.000Z</time>
      </trkpt>
      <trkpt lat="43.78328" lon="7.09635">
        <ele>718.40002441406</ele>
        <time>2023-08-02T08:54:11.000Z</time>
      </trkpt>
      <trkpt lat="43.78329" lon="7.09637">
        <ele>718.79998779297</ele>
        <time>2023-08-02T08:54:12.000Z</time>
      </trkpt>
      <trkpt lat="43.7833" lon="7.09638">
        <ele>718.79998779297</ele>
        <time>2023-08-02T08:54:13.000Z</time>
      </trkpt>
      <trkpt lat="43.78332" lon="7.0964">
        <ele>719.40002441406</ele>
        <time>2023-08-02T08:54:14.000Z</time>
      </trkpt>
      <trkpt lat="43.78334" lon="7.09641">
        <ele>719.40002441406</ele>
        <time>2023-08-02T08:54:15.000Z</time>
      </trkpt>
      <trkpt lat="43.78335" lon="7.09643">
        <ele>720</ele>
        <time>2023-08-02T08:54:16.000Z</time>
      </trkpt>
      <trkpt lat="43.78337" lon="7.09645">
        <ele>720.20001220703</ele>
        <time>2023-08-02T08:54:17.000Z</time>
      </trkpt>
      <trkpt lat="43.78338" lon="7.09647">
        <ele>720.40002441406</ele>
        <time>2023-08-02T08:54:18.000Z</time>
      </trkpt>
      <trkpt lat="43.7834" lon="7.09649">
        <ele>720.59997558594</ele>
        <time>2023-08-02T08:54:19.000Z</time>
      </trkpt>
      <trkpt lat="43.78342" lon="7.09651">
        <ele>721.20001220703</ele>
        <time>2023-08-02T08:54:20.000Z</time>
      </trkpt>
      <trkpt lat="43.78343" lon="7.09652">
        <ele>721.20001220703</ele>
        <time>2023-08-02T08:54:21.000Z</time>
      </trkpt>
      <trkpt lat="43.78345" lon="7.09654">
        <ele>721.40002441406</ele>
        <time>2023-08-02T08:54:22.000Z</time>
      </trkpt>
      <trkpt lat="43.78347" lon="7.09656">
        <ele>722</ele>
        <time>2023-08-02T08:54:23.000Z</time>
      </trkpt>
      <trkpt lat="43.78349" lon="7.09657">
        <ele>722</ele>
        <time>2023-08-02T08:54:24.000Z</time>
      </trkpt>
      <trkpt lat="43.7835" lon="7.09658">
        <ele>722.40002441406</ele>
        <time>2023-08-02T08:54:25.000Z</time>
      </trkpt>
      <trkpt lat="43.78352" lon="7.0966">
        <ele>723</ele>
        <time>2023-08-02T08:54:26.000Z</time>
      </trkpt>
      <trkpt lat="43.78354" lon="7.09662">
        <ele>723.40002441406</ele>
        <time>2023-08-02T08:54:27.000Z</time>
      </trkpt>
      <trkpt lat="43.78356" lon="7.09665">
        <ele>723.59997558594</ele>
        <time>2023-08-02T08:54:28.000Z</time>
      </trkpt>
      <trkpt lat="43.78358" lon="7.09668">
        <ele>724.20001220703</ele>
        <time>2023-08-02T08:54:29.000Z</time>
      </trkpt>
      <trkpt lat="43.78359" lon="7.0967">
        <ele>724.20001220703</ele>
        <time>2023-08-02T08:54:30.000Z</time>
      </trkpt>
      <trkpt lat="43.7836" lon="7.09672">
        <ele>724.40002441406</ele>
        <time>2023-08-02T08:54:31.000Z</time>
      </trkpt>
      <trkpt lat="43.78361" lon="7.09675">
        <ele>724.59997558594</ele>
        <time>2023-08-02T08:54:32.000Z</time>
      </trkpt>
      <trkpt lat="43.78363" lon="7.09677">
        <ele>724.59997558594</ele>
        <time>2023-08-02T08:54:33.000Z</time>
      </trkpt>
      <trkpt lat="43.78364" lon="7.09679">
        <ele>725.40002441406</ele>
        <time>2023-08-02T08:54:34.000Z</time>
      </trkpt>
      <trkpt lat="43.78366" lon="7.09682">
        <ele>725.59997558594</ele>
        <time>2023-08-02T08:54:35.000Z</time>
      </trkpt>
      <trkpt lat="43.78367" lon="7.09685">
        <ele>725.59997558594</ele>
        <time>2023-08-02T08:54:36.000Z</time>
      </trkpt>
      <trkpt lat="43.78369" lon="7.09687">
        <ele>725.59997558594</ele>
        <time>2023-08-02T08:54:37.000Z</time>
      </trkpt>
      <trkpt lat="43.7837" lon="7.0969">
        <ele>725.59997558594</ele>
        <time>2023-08-02T08:54:38.000Z</time>
      </trkpt>
      <trkpt lat="43.78372" lon="7.09693">
        <ele>725.59997558594</ele>
        <time>2023-08-02T08:54:39.000Z</time>
      </trkpt>
      <trkpt lat="43.78373" lon="7.09695">
        <ele>726.20001220703</ele>
        <time>2023-08-02T08:54:40.000Z</time>
      </trkpt>
      <trkpt lat="43.78374" lon="7.09698">
        <ele>726.59997558594</ele>
        <time>2023-08-02T08:54:41.000Z</time>
      </trkpt>
      <trkpt lat="43.78374" lon="7.09701">
        <ele>726.59997558594</ele>
        <time>2023-08-02T08:54:42.000Z</time>
      </trkpt>
      <trkpt lat="43.78375" lon="7.09704">
        <ele>727</ele>
        <time>2023-08-02T08:54:43.000Z</time>
      </trkpt>
      <trkpt lat="43.78376" lon="7.09707">
        <ele>727.40002441406</ele>
        <time>2023-08-02T08:54:44.000Z</time>
      </trkpt>
      <trkpt lat="43.78377" lon="7.0971">
        <ele>727.79998779297</ele>
        <time>2023-08-02T08:54:45.000Z</time>
      </trkpt>
      <trkpt lat="43.78377" lon="7.09713">
        <ele>727.79998779297</ele>
        <time>2023-08-02T08:54:46.000Z</time>
      </trkpt>
      <trkpt lat="43.78376" lon="7.09716">
        <ele>728</ele>
        <time>2023-08-02T08:54:47.000Z</time>
      </trkpt>
      <trkpt lat="43.78377" lon="7.09719">
        <ele>728.20001220703</ele>
        <time>2023-08-02T08:54:48.000Z</time>
      </trkpt>
      <trkpt lat="43.78377" lon="7.09722">
        <ele>728.40002441406</ele>
        <time>2023-08-02T08:54:49.000Z</time>
      </trkpt>
      <trkpt lat="43.78378" lon="7.09725">
        <ele>728.59997558594</ele>
        <time>2023-08-02T08:54:50.000Z</time>
      </trkpt>
      <trkpt lat="43.78379" lon="7.09727">
        <ele>728.59997558594</ele>
        <time>2023-08-02T08:54:51.000Z</time>
      </trkpt>
      <trkpt lat="43.7838" lon="7.09729">
        <ele>728.79998779297</ele>
        <time>2023-08-02T08:54:52.000Z</time>
      </trkpt>
      <trkpt lat="43.78381" lon="7.09732">
        <ele>728.79998779297</ele>
        <time>2023-08-02T08:54:53.000Z</time>
      </trkpt>
      <trkpt lat="43.78382" lon="7.09733">
        <ele>729</ele>
        <time>2023-08-02T08:54:54.000Z</time>
      </trkpt>
      <trkpt lat="43.78383" lon="7.09734">
        <ele>729.40002441406</ele>
        <time>2023-08-02T08:54:55.000Z</time>
      </trkpt>
      <trkpt lat="43.78383" lon="7.09736">
        <ele>729.40002441406</ele>
        <time>2023-08-02T08:54:56.000Z</time>
      </trkpt>
      <trkpt lat="43.78383" lon="7.09737">
        <ele>729.59997558594</ele>
        <time>2023-08-02T08:54:57.000Z</time>
      </trkpt>
      <trkpt lat="43.78383" lon="7.09739">
        <ele>729.79998779297</ele>
        <time>2023-08-02T08:54:58.000Z</time>
      </trkpt>
      <trkpt lat="43.78382" lon="7.0974">
        <ele>730</ele>
        <time>2023-08-02T08:54:59.000Z</time>
      </trkpt>
      <trkpt lat="43.78381" lon="7.09741">
        <ele>730</ele>
        <time>2023-08-02T08:55:00.000Z</time>
      </trkpt>
      <trkpt lat="43.78379" lon="7.0974">
        <ele>730.20001220703</ele>
        <time>2023-08-02T08:55:01.000Z</time>
      </trkpt>
      <trkpt lat="43.78377" lon="7.09739">
        <ele>730.20001220703</ele>
        <time>2023-08-02T08:55:02.000Z</time>
      </trkpt>
      <trkpt lat="43.78377" lon="7.09739">
        <ele>730.20001220703</ele>
        <time>2023-08-02T08:55:03.000Z</time>
      </trkpt>
      <trkpt lat="43.78377" lon="7.09739">
        <ele>730.20001220703</ele>
        <time>2023-08-02T08:55:04.000Z</time>
      </trkpt>
      <trkpt lat="43.78377" lon="7.09738">
        <ele>730.20001220703</ele>
        <time>2023-08-02T08:55:05.000Z</time>
      </trkpt>
      <trkpt lat="43.78377" lon="7.09739">
        <ele>730.20001220703</ele>
        <time>2023-08-02T08:55:06.000Z</time>
      </trkpt>
      <trkpt lat="43.78377" lon="7.09739">
        <ele>730.20001220703</ele>
        <time>2023-08-02T08:55:07.000Z</time>
      </trkpt>
      <trkpt lat="43.78377" lon="7.09739">
        <ele>730.20001220703</ele>
        <time>2023-08-02T08:55:08.000Z</time>
      </trkpt>
      <trkpt lat="43.78377" lon="7.09739">
        <ele>730.20001220703</ele>
        <time>2023-08-02T08:55:09.000Z</time>
      </trkpt>
      <trkpt lat="43.78377" lon="7.09739">
        <ele>730.20001220703</ele>
        <time>2023-08-02T08:55:10.000Z</time>
      </trkpt>
      <trkpt lat="43.78377" lon="7.09739">
        <ele>730.20001220703</ele>
        <time>2023-08-02T08:55:11.000Z</time>
      </trkpt>
      <trkpt lat="43.78377" lon="7.09739">
        <ele>730.20001220703</ele>
        <time>2023-08-02T08:55:12.000Z</time>
      </trkpt>
      <trkpt lat="43.78377" lon="7.09739">
        <ele>730</ele>
        <time>2023-08-02T08:55:13.000Z</time>
      </trkpt>
      <trkpt lat="43.78377" lon="7.09739">
        <ele>729.79998779297</ele>
        <time>2023-08-02T08:55:14.000Z</time>
      </trkpt>
      <trkpt lat="43.78377" lon="7.09739">
        <ele>729.79998779297</ele>
        <time>2023-08-02T08:55:15.000Z</time>
      </trkpt>
      <trkpt lat="43.78377" lon="7.09739">
        <ele>729.79998779297</ele>
        <time>2023-08-02T08:55:16.000Z</time>
      </trkpt>
      <trkpt lat="43.78377" lon="7.09739">
        <ele>729.79998779297</ele>
        <time>2023-08-02T08:55:17.000Z</time>
      </trkpt>
      <trkpt lat="43.78377" lon="7.09739">
        <ele>730</ele>
        <time>2023-08-02T08:55:18.000Z</time>
      </trkpt>
      <trkpt lat="43.78377" lon="7.09739">
        <ele>730</ele>
        <time>2023-08-02T08:55:19.000Z</time>
      </trkpt>
      <trkpt lat="43.78377" lon="7.09739">
        <ele>730</ele>
        <time>2023-08-02T08:55:20.000Z</time>
      </trkpt>
      <trkpt lat="43.78377" lon="7.09739">
        <ele>730.20001220703</ele>
        <time>2023-08-02T08:55:21.000Z</time>
      </trkpt>
      <trkpt lat="43.78377" lon="7.09739">
        <ele>730.20001220703</ele>
        <time>2023-08-02T08:55:22.000Z</time>
      </trkpt>
      <trkpt lat="43.78377" lon="7.09739">
        <ele>730.20001220703</ele>
        <time>2023-08-02T08:55:23.000Z</time>
      </trkpt>
      <trkpt lat="43.78377" lon="7.09739">
        <ele>730.40002441406</ele>
        <time>2023-08-02T08:55:24.000Z</time>
      </trkpt>
      <trkpt lat="43.78377" lon="7.09739">
        <ele>730.59997558594</ele>
        <time>2023-08-02T08:55:25.000Z</time>
      </trkpt>
      <trkpt lat="43.78377" lon="7.09739">
        <ele>730.59997558594</ele>
        <time>2023-08-02T08:55:26.000Z</time>
      </trkpt>
      <trkpt lat="43.78377" lon="7.09739">
        <ele>730.79998779297</ele>
        <time>2023-08-02T08:55:27.000Z</time>
      </trkpt>
      <trkpt lat="43.78377" lon="7.09739">
        <ele>730.79998779297</ele>
        <time>2023-08-02T08:55:28.000Z</time>
      </trkpt>
      <trkpt lat="43.78377" lon="7.09739">
        <ele>731</ele>
        <time>2023-08-02T08:55:29.000Z</time>
      </trkpt>
      <trkpt lat="43.78377" lon="7.09739">
        <ele>730.79998779297</ele>
        <time>2023-08-02T08:55:30.000Z</time>
      </trkpt>
      <trkpt lat="43.78377" lon="7.09739">
        <ele>731</ele>
        <time>2023-08-02T08:55:31.000Z</time>
      </trkpt>
      <trkpt lat="43.78377" lon="7.09739">
        <ele>731</ele>
        <time>2023-08-02T08:55:32.000Z</time>
      </trkpt>
      <trkpt lat="43.78377" lon="7.09739">
        <ele>731</ele>
        <time>2023-08-02T08:55:33.000Z</time>
      </trkpt>
      <trkpt lat="43.78377" lon="7.09739">
        <ele>730.79998779297</ele>
        <time>2023-08-02T08:55:34.000Z</time>
      </trkpt>
      <trkpt lat="43.78377" lon="7.09739">
        <ele>730.79998779297</ele>
        <time>2023-08-02T08:55:35.000Z</time>
      </trkpt>
      <trkpt lat="43.78377" lon="7.09739">
        <ele>730.79998779297</ele>
        <time>2023-08-02T08:55:36.000Z</time>
      </trkpt>
      <trkpt lat="43.78377" lon="7.09739">
        <ele>730.59997558594</ele>
        <time>2023-08-02T08:55:37.000Z</time>
      </trkpt>
      <trkpt lat="43.78377" lon="7.09739">
        <ele>730.59997558594</ele>
        <time>2023-08-02T08:55:38.000Z</time>
      </trkpt>
      <trkpt lat="43.78377" lon="7.09739">
        <ele>730.59997558594</ele>
        <time>2023-08-02T08:55:39.000Z</time>
      </trkpt>
      <trkpt lat="43.78377" lon="7.09739">
        <ele>730.59997558594</ele>
        <time>2023-08-02T08:55:40.000Z</time>
      </trkpt>
      <trkpt lat="43.78377" lon="7.09739">
        <ele>730.40002441406</ele>
        <time>2023-08-02T08:55:41.000Z</time>
      </trkpt>
      <trkpt lat="43.78377" lon="7.09739">
        <ele>730.20001220703</ele>
        <time>2023-08-02T08:55:42.000Z</time>
      </trkpt>
      <trkpt lat="43.78377" lon="7.09739">
        <ele>730.20001220703</ele>
        <time>2023-08-02T08:55:43.000Z</time>
      </trkpt>
      <trkpt lat="43.78377" lon="7.09739">
        <ele>730.20001220703</ele>
        <time>2023-08-02T08:55:44.000Z</time>
      </trkpt>
      <trkpt lat="43.78377" lon="7.09739">
        <ele>730.40002441406</ele>
        <time>2023-08-02T08:55:45.000Z</time>
      </trkpt>
      <trkpt lat="43.78377" lon="7.09739">
        <ele>730.59997558594</ele>
        <time>2023-08-02T08:55:46.000Z</time>
      </trkpt>
      <trkpt lat="43.78377" lon="7.09739">
        <ele>730.59997558594</ele>
        <time>2023-08-02T08:55:47.000Z</time>
      </trkpt>
      <trkpt lat="43.78377" lon="7.09739">
        <ele>730.59997558594</ele>
        <time>2023-08-02T08:55:48.000Z</time>
      </trkpt>
      <trkpt lat="43.78377" lon="7.09739">
        <ele>730.59997558594</ele>
        <time>2023-08-02T08:55:49.000Z</time>
      </trkpt>
      <trkpt lat="43.78377" lon="7.09739">
        <ele>730.59997558594</ele>
        <time>2023-08-02T08:55:50.000Z</time>
      </trkpt>
      <trkpt lat="43.78377" lon="7.09739">
        <ele>730.59997558594</ele>
        <time>2023-08-02T08:55:51.000Z</time>
      </trkpt>
      <trkpt lat="43.78377" lon="7.09739">
        <ele>730.40002441406</ele>
        <time>2023-08-02T08:55:52.000Z</time>
      </trkpt>
      <trkpt lat="43.78377" lon="7.09739">
        <ele>730.20001220703</ele>
        <time>2023-08-02T08:55:53.000Z</time>
      </trkpt>
      <trkpt lat="43.78377" lon="7.09739">
        <ele>730.20001220703</ele>
        <time>2023-08-02T08:55:54.000Z</time>
      </trkpt>
      <trkpt lat="43.78377" lon="7.09739">
        <ele>730.20001220703</ele>
        <time>2023-08-02T08:55:55.000Z</time>
      </trkpt>
      <trkpt lat="43.78377" lon="7.09739">
        <ele>730.20001220703</ele>
        <time>2023-08-02T08:55:56.000Z</time>
      </trkpt>
      <trkpt lat="43.78377" lon="7.09738">
        <ele>730.59997558594</ele>
        <time>2023-08-02T08:55:57.000Z</time>
      </trkpt>
      <trkpt lat="43.78377" lon="7.09738">
        <ele>730.59997558594</ele>
        <time>2023-08-02T08:55:58.000Z</time>
      </trkpt>
      <trkpt lat="43.78377" lon="7.09738">
        <ele>730.79998779297</ele>
        <time>2023-08-02T08:55:59.000Z</time>
      </trkpt>
      <trkpt lat="43.78377" lon="7.09738">
        <ele>730.79998779297</ele>
        <time>2023-08-02T08:56:00.000Z</time>
      </trkpt>
      <trkpt lat="43.78377" lon="7.09738">
        <ele>730.79998779297</ele>
        <time>2023-08-02T08:56:01.000Z</time>
      </trkpt>
      <trkpt lat="43.78377" lon="7.09738">
        <ele>731</ele>
        <time>2023-08-02T08:56:02.000Z</time>
      </trkpt>
      <trkpt lat="43.78377" lon="7.09738">
        <ele>730.79998779297</ele>
        <time>2023-08-02T08:56:03.000Z</time>
      </trkpt>
      <trkpt lat="43.78377" lon="7.09738">
        <ele>731</ele>
        <time>2023-08-02T08:56:04.000Z</time>
      </trkpt>
      <trkpt lat="43.78377" lon="7.09738">
        <ele>731</ele>
        <time>2023-08-02T08:56:05.000Z</time>
      </trkpt>
      <trkpt lat="43.78377" lon="7.09738">
        <ele>731</ele>
        <time>2023-08-02T08:56:06.000Z</time>
      </trkpt>
      <trkpt lat="43.78377" lon="7.09739">
        <ele>731</ele>
        <time>2023-08-02T08:56:07.000Z</time>
      </trkpt>
      <trkpt lat="43.78376" lon="7.0974">
        <ele>731</ele>
        <time>2023-08-02T08:56:08.000Z</time>
      </trkpt>
      <trkpt lat="43.78376" lon="7.09741">
        <ele>731</ele>
        <time>2023-08-02T08:56:09.000Z</time>
      </trkpt>
      <trkpt lat="43.78375" lon="7.09743">
        <ele>731</ele>
        <time>2023-08-02T08:56:10.000Z</time>
      </trkpt>
      <trkpt lat="43.78374" lon="7.09745">
        <ele>730.79998779297</ele>
        <time>2023-08-02T08:56:11.000Z</time>
      </trkpt>
      <trkpt lat="43.78373" lon="7.09748">
        <ele>730.59997558594</ele>
        <time>2023-08-02T08:56:12.000Z</time>
      </trkpt>
      <trkpt lat="43.78372" lon="7.09752">
        <ele>730.59997558594</ele>
        <time>2023-08-02T08:56:13.000Z</time>
      </trkpt>
      <trkpt lat="43.78371" lon="7.09757">
        <ele>730.59997558594</ele>
        <time>2023-08-02T08:56:14.000Z</time>
      </trkpt>
      <trkpt lat="43.7837" lon="7.09762">
        <ele>730.20001220703</ele>
        <time>2023-08-02T08:56:15.000Z</time>
      </trkpt>
      <trkpt lat="43.78369" lon="7.09767">
        <ele>730</ele>
        <time>2023-08-02T08:56:16.000Z</time>
      </trkpt>
      <trkpt lat="43.78367" lon="7.09773">
        <ele>729.40002441406</ele>
        <time>2023-08-02T08:56:17.000Z</time>
      </trkpt>
      <trkpt lat="43.78367" lon="7.09779">
        <ele>728.59997558594</ele>
        <time>2023-08-02T08:56:18.000Z</time>
      </trkpt>
      <trkpt lat="43.78367" lon="7.09786">
        <ele>728.40002441406</ele>
        <time>2023-08-02T08:56:19.000Z</time>
      </trkpt>
      <trkpt lat="43.78366" lon="7.09792">
        <ele>728.20001220703</ele>
        <time>2023-08-02T08:56:20.000Z</time>
      </trkpt>
      <trkpt lat="43.78365" lon="7.09799">
        <ele>727.79998779297</ele>
        <time>2023-08-02T08:56:21.000Z</time>
      </trkpt>
      <trkpt lat="43.78366" lon="7.09807">
        <ele>727.40002441406</ele>
        <time>2023-08-02T08:56:22.000Z</time>
      </trkpt>
      <trkpt lat="43.78366" lon="7.09815">
        <ele>726.40002441406</ele>
        <time>2023-08-02T08:56:23.000Z</time>
      </trkpt>
      <trkpt lat="43.78367" lon="7.09823">
        <ele>725.79998779297</ele>
        <time>2023-08-02T08:56:24.000Z</time>
      </trkpt>
      <trkpt lat="43.78368" lon="7.0983">
        <ele>725.40002441406</ele>
        <time>2023-08-02T08:56:25.000Z</time>
      </trkpt>
      <trkpt lat="43.78369" lon="7.09837">
        <ele>725.20001220703</ele>
        <time>2023-08-02T08:56:26.000Z</time>
      </trkpt>
      <trkpt lat="43.78368" lon="7.09841">
        <ele>724.79998779297</ele>
        <time>2023-08-02T08:56:27.000Z</time>
      </trkpt>
      <trkpt lat="43.78368" lon="7.09843">
        <ele>724.59997558594</ele>
        <time>2023-08-02T08:56:28.000Z</time>
      </trkpt>
      <trkpt lat="43.78368" lon="7.09843">
        <ele>724.59997558594</ele>
        <time>2023-08-02T08:56:29.000Z</time>
      </trkpt>
      <trkpt lat="43.78368" lon="7.09843">
        <ele>724</ele>
        <time>2023-08-02T08:56:30.000Z</time>
      </trkpt>
      <trkpt lat="43.78368" lon="7.09843">
        <ele>723.79998779297</ele>
        <time>2023-08-02T08:56:31.000Z</time>
      </trkpt>
      <trkpt lat="43.78368" lon="7.09842">
        <ele>723.79998779297</ele>
        <time>2023-08-02T08:56:32.000Z</time>
      </trkpt>
      <trkpt lat="43.78368" lon="7.09843">
        <ele>723.59997558594</ele>
        <time>2023-08-02T08:56:33.000Z</time>
      </trkpt>
      <trkpt lat="43.78369" lon="7.09845">
        <ele>723.59997558594</ele>
        <time>2023-08-02T08:56:34.000Z</time>
      </trkpt>
      <trkpt lat="43.78369" lon="7.09848">
        <ele>723.40002441406</ele>
        <time>2023-08-02T08:56:35.000Z</time>
      </trkpt>
      <trkpt lat="43.7837" lon="7.09852">
        <ele>723.40002441406</ele>
        <time>2023-08-02T08:56:36.000Z</time>
      </trkpt>
      <trkpt lat="43.7837" lon="7.09855">
        <ele>723.20001220703</ele>
        <time>2023-08-02T08:56:37.000Z</time>
      </trkpt>
      <trkpt lat="43.78371" lon="7.09859">
        <ele>723</ele>
        <time>2023-08-02T08:56:38.000Z</time>
      </trkpt>
      <trkpt lat="43.78371" lon="7.09863">
        <ele>723</ele>
        <time>2023-08-02T08:56:39.000Z</time>
      </trkpt>
      <trkpt lat="43.78372" lon="7.09868">
        <ele>723</ele>
        <time>2023-08-02T08:56:40.000Z</time>
      </trkpt>
      <trkpt lat="43.78372" lon="7.09873">
        <ele>723</ele>
        <time>2023-08-02T08:56:41.000Z</time>
      </trkpt>
      <trkpt lat="43.78373" lon="7.09879">
        <ele>722.59997558594</ele>
        <time>2023-08-02T08:56:42.000Z</time>
      </trkpt>
      <trkpt lat="43.78373" lon="7.09885">
        <ele>722.40002441406</ele>
        <time>2023-08-02T08:56:43.000Z</time>
      </trkpt>
      <trkpt lat="43.78374" lon="7.09891">
        <ele>721.20001220703</ele>
        <time>2023-08-02T08:56:44.000Z</time>
      </trkpt>
      <trkpt lat="43.78375" lon="7.09897">
        <ele>720.79998779297</ele>
        <time>2023-08-02T08:56:45.000Z</time>
      </trkpt>
      <trkpt lat="43.78375" lon="7.09904">
        <ele>720.20001220703</ele>
        <time>2023-08-02T08:56:46.000Z</time>
      </trkpt>
      <trkpt lat="43.78376" lon="7.09911">
        <ele>719.59997558594</ele>
        <time>2023-08-02T08:56:47.000Z</time>
      </trkpt>
      <trkpt lat="43.78376" lon="7.09918">
        <ele>719</ele>
        <time>2023-08-02T08:56:48.000Z</time>
      </trkpt>
      <trkpt lat="43.78377" lon="7.09926">
        <ele>718.59997558594</ele>
        <time>2023-08-02T08:56:49.000Z</time>
      </trkpt>
      <trkpt lat="43.78378" lon="7.09933">
        <ele>717.40002441406</ele>
        <time>2023-08-02T08:56:50.000Z</time>
      </trkpt>
      <trkpt lat="43.78377" lon="7.09938">
        <ele>717.20001220703</ele>
        <time>2023-08-02T08:56:51.000Z</time>
      </trkpt>
      <trkpt lat="43.78376" lon="7.09942">
        <ele>716.20001220703</ele>
        <time>2023-08-02T08:56:52.000Z</time>
      </trkpt>
      <trkpt lat="43.78375" lon="7.09947">
        <ele>714.59997558594</ele>
        <time>2023-08-02T08:56:53.000Z</time>
      </trkpt>
      <trkpt lat="43.78373" lon="7.09952">
        <ele>714</ele>
        <time>2023-08-02T08:56:54.000Z</time>
      </trkpt>
      <trkpt lat="43.7837" lon="7.09958">
        <ele>713.59997558594</ele>
        <time>2023-08-02T08:56:55.000Z</time>
      </trkpt>
      <trkpt lat="43.78368" lon="7.09964">
        <ele>712.79998779297</ele>
        <time>2023-08-02T08:56:56.000Z</time>
      </trkpt>
      <trkpt lat="43.78366" lon="7.09971">
        <ele>712</ele>
        <time>2023-08-02T08:56:57.000Z</time>
      </trkpt>
      <trkpt lat="43.78364" lon="7.09979">
        <ele>711.59997558594</ele>
        <time>2023-08-02T08:56:58.000Z</time>
      </trkpt>
      <trkpt lat="43.78361" lon="7.09985">
        <ele>711</ele>
        <time>2023-08-02T08:56:59.000Z</time>
      </trkpt>
      <trkpt lat="43.7836" lon="7.09988">
        <ele>709.59997558594</ele>
        <time>2023-08-02T08:57:00.000Z</time>
      </trkpt>
      <trkpt lat="43.78359" lon="7.09991">
        <ele>708.79998779297</ele>
        <time>2023-08-02T08:57:01.000Z</time>
      </trkpt>
      <trkpt lat="43.78358" lon="7.09993">
        <ele>708.59997558594</ele>
        <time>2023-08-02T08:57:02.000Z</time>
      </trkpt>
      <trkpt lat="43.78357" lon="7.09996">
        <ele>708.59997558594</ele>
        <time>2023-08-02T08:57:03.000Z</time>
      </trkpt>
      <trkpt lat="43.78357" lon="7.09998">
        <ele>708.59997558594</ele>
        <time>2023-08-02T08:57:04.000Z</time>
      </trkpt>
      <trkpt lat="43.78356" lon="7.1">
        <ele>708.79998779297</ele>
        <time>2023-08-02T08:57:05.000Z</time>
      </trkpt>
      <trkpt lat="43.78355" lon="7.10002">
        <ele>709</ele>
        <time>2023-08-02T08:57:06.000Z</time>
      </trkpt>
      <trkpt lat="43.78355" lon="7.10004">
        <ele>709</ele>
        <time>2023-08-02T08:57:07.000Z</time>
      </trkpt>
      <trkpt lat="43.78355" lon="7.10004">
        <ele>709.20001220703</ele>
        <time>2023-08-02T08:57:08.000Z</time>
      </trkpt>
      <trkpt lat="43.78355" lon="7.10004">
        <ele>709.40002441406</ele>
        <time>2023-08-02T08:57:09.000Z</time>
      </trkpt>
      <trkpt lat="43.78355" lon="7.10004">
        <ele>709.40002441406</ele>
        <time>2023-08-02T08:57:10.000Z</time>
      </trkpt>
      <trkpt lat="43.78355" lon="7.10004">
        <ele>709.40002441406</ele>
        <time>2023-08-02T08:57:11.000Z</time>
      </trkpt>
      <trkpt lat="43.78355" lon="7.10004">
        <ele>709.40002441406</ele>
        <time>2023-08-02T08:57:12.000Z</time>
      </trkpt>
      <trkpt lat="43.78355" lon="7.10004">
        <ele>709.40002441406</ele>
        <time>2023-08-02T08:57:13.000Z</time>
      </trkpt>
      <trkpt lat="43.78355" lon="7.10004">
        <ele>709.40002441406</ele>
        <time>2023-08-02T08:57:14.000Z</time>
      </trkpt>
      <trkpt lat="43.78355" lon="7.10004">
        <ele>709.40002441406</ele>
        <time>2023-08-02T08:57:15.000Z</time>
      </trkpt>
      <trkpt lat="43.78355" lon="7.10004">
        <ele>709.40002441406</ele>
        <time>2023-08-02T08:57:16.000Z</time>
      </trkpt>
      <trkpt lat="43.78355" lon="7.10004">
        <ele>709.40002441406</ele>
        <time>2023-08-02T08:57:17.000Z</time>
      </trkpt>
      <trkpt lat="43.78355" lon="7.10004">
        <ele>709.40002441406</ele>
        <time>2023-08-02T08:57:18.000Z</time>
      </trkpt>
      <trkpt lat="43.78355" lon="7.10004">
        <ele>709.40002441406</ele>
        <time>2023-08-02T08:57:19.000Z</time>
      </trkpt>
      <trkpt lat="43.78355" lon="7.10005">
        <ele>709.40002441406</ele>
        <time>2023-08-02T08:57:20.000Z</time>
      </trkpt>
      <trkpt lat="43.78354" lon="7.10007">
        <ele>709.40002441406</ele>
        <time>2023-08-02T08:57:21.000Z</time>
      </trkpt>
      <trkpt lat="43.78354" lon="7.10006">
        <ele>709.40002441406</ele>
        <time>2023-08-02T08:57:22.000Z</time>
      </trkpt>
      <trkpt lat="43.78354" lon="7.10007">
        <ele>709.40002441406</ele>
        <time>2023-08-02T08:57:23.000Z</time>
      </trkpt>
      <trkpt lat="43.78354" lon="7.10007">
        <ele>709.40002441406</ele>
        <time>2023-08-02T08:57:24.000Z</time>
      </trkpt>
      <trkpt lat="43.78354" lon="7.10009">
        <ele>709.59997558594</ele>
        <time>2023-08-02T08:57:25.000Z</time>
      </trkpt>
      <trkpt lat="43.78353" lon="7.10011">
        <ele>709.59997558594</ele>
        <time>2023-08-02T08:57:26.000Z</time>
      </trkpt>
      <trkpt lat="43.78353" lon="7.10013">
        <ele>709.59997558594</ele>
        <time>2023-08-02T08:57:27.000Z</time>
      </trkpt>
      <trkpt lat="43.78352" lon="7.10015">
        <ele>709.59997558594</ele>
        <time>2023-08-02T08:57:28.000Z</time>
      </trkpt>
      <trkpt lat="43.78351" lon="7.10018">
        <ele>709.59997558594</ele>
        <time>2023-08-02T08:57:29.000Z</time>
      </trkpt>
      <trkpt lat="43.78351" lon="7.10021">
        <ele>709.59997558594</ele>
        <time>2023-08-02T08:57:30.000Z</time>
      </trkpt>
      <trkpt lat="43.7835" lon="7.10025">
        <ele>709.79998779297</ele>
        <time>2023-08-02T08:57:31.000Z</time>
      </trkpt>
      <trkpt lat="43.7835" lon="7.10028">
        <ele>709.79998779297</ele>
        <time>2023-08-02T08:57:32.000Z</time>
      </trkpt>
      <trkpt lat="43.7835" lon="7.10031">
        <ele>710.20001220703</ele>
        <time>2023-08-02T08:57:33.000Z</time>
      </trkpt>
      <trkpt lat="43.78349" lon="7.10033">
        <ele>710.20001220703</ele>
        <time>2023-08-02T08:57:34.000Z</time>
      </trkpt>
      <trkpt lat="43.78349" lon="7.10035">
        <ele>710.20001220703</ele>
        <time>2023-08-02T08:57:35.000Z</time>
      </trkpt>
      <trkpt lat="43.78347" lon="7.10037">
        <ele>710.40002441406</ele>
        <time>2023-08-02T08:57:36.000Z</time>
      </trkpt>
      <trkpt lat="43.78346" lon="7.1004">
        <ele>710.40002441406</ele>
        <time>2023-08-02T08:57:37.000Z</time>
      </trkpt>
      <trkpt lat="43.78346" lon="7.10043">
        <ele>710.40002441406</ele>
        <time>2023-08-02T08:57:38.000Z</time>
      </trkpt>
      <trkpt lat="43.78345" lon="7.10046">
        <ele>710.20001220703</ele>
        <time>2023-08-02T08:57:39.000Z</time>
      </trkpt>
      <trkpt lat="43.78346" lon="7.10049">
        <ele>710</ele>
        <time>2023-08-02T08:57:40.000Z</time>
      </trkpt>
      <trkpt lat="43.78346" lon="7.10052">
        <ele>710</ele>
        <time>2023-08-02T08:57:41.000Z</time>
      </trkpt>
      <trkpt lat="43.78346" lon="7.10056">
        <ele>709.59997558594</ele>
        <time>2023-08-02T08:57:42.000Z</time>
      </trkpt>
      <trkpt lat="43.78346" lon="7.1006">
        <ele>709.40002441406</ele>
        <time>2023-08-02T08:57:43.000Z</time>
      </trkpt>
      <trkpt lat="43.78345" lon="7.10065">
        <ele>709.40002441406</ele>
        <time>2023-08-02T08:57:44.000Z</time>
      </trkpt>
      <trkpt lat="43.78346" lon="7.10069">
        <ele>709.40002441406</ele>
        <time>2023-08-02T08:57:45.000Z</time>
      </trkpt>
      <trkpt lat="43.78347" lon="7.10073">
        <ele>709.20001220703</ele>
        <time>2023-08-02T08:57:46.000Z</time>
      </trkpt>
      <trkpt lat="43.78348" lon="7.10077">
        <ele>708.79998779297</ele>
        <time>2023-08-02T08:57:47.000Z</time>
      </trkpt>
      <trkpt lat="43.78348" lon="7.10081">
        <ele>708.59997558594</ele>
        <time>2023-08-02T08:57:48.000Z</time>
      </trkpt>
      <trkpt lat="43.78349" lon="7.10086">
        <ele>708.40002441406</ele>
        <time>2023-08-02T08:57:49.000Z</time>
      </trkpt>
      <trkpt lat="43.78351" lon="7.10089">
        <ele>708.20001220703</ele>
        <time>2023-08-02T08:57:50.000Z</time>
      </trkpt>
      <trkpt lat="43.78353" lon="7.10091">
        <ele>708.20001220703</ele>
        <time>2023-08-02T08:57:51.000Z</time>
      </trkpt>
      <trkpt lat="43.78355" lon="7.10094">
        <ele>708.20001220703</ele>
        <time>2023-08-02T08:57:52.000Z</time>
      </trkpt>
      <trkpt lat="43.78356" lon="7.10096">
        <ele>708</ele>
        <time>2023-08-02T08:57:53.000Z</time>
      </trkpt>
      <trkpt lat="43.78358" lon="7.10098">
        <ele>708</ele>
        <time>2023-08-02T08:57:54.000Z</time>
      </trkpt>
      <trkpt lat="43.78358" lon="7.10101">
        <ele>708</ele>
        <time>2023-08-02T08:57:55.000Z</time>
      </trkpt>
      <trkpt lat="43.78359" lon="7.10105">
        <ele>708.40002441406</ele>
        <time>2023-08-02T08:57:56.000Z</time>
      </trkpt>
      <trkpt lat="43.78359" lon="7.10108">
        <ele>708.79998779297</ele>
        <time>2023-08-02T08:57:57.000Z</time>
      </trkpt>
      <trkpt lat="43.7836" lon="7.10112">
        <ele>708.79998779297</ele>
        <time>2023-08-02T08:57:58.000Z</time>
      </trkpt>
      <trkpt lat="43.78361" lon="7.10116">
        <ele>708.79998779297</ele>
        <time>2023-08-02T08:57:59.000Z</time>
      </trkpt>
      <trkpt lat="43.78362" lon="7.10118">
        <ele>708.79998779297</ele>
        <time>2023-08-02T08:58:00.000Z</time>
      </trkpt>
      <trkpt lat="43.78363" lon="7.10122">
        <ele>708.79998779297</ele>
        <time>2023-08-02T08:58:01.000Z</time>
      </trkpt>
      <trkpt lat="43.78363" lon="7.10126">
        <ele>708.79998779297</ele>
        <time>2023-08-02T08:58:02.000Z</time>
      </trkpt>
      <trkpt lat="43.78363" lon="7.10131">
        <ele>708.79998779297</ele>
        <time>2023-08-02T08:58:03.000Z</time>
      </trkpt>
      <trkpt lat="43.78363" lon="7.10134">
        <ele>708.59997558594</ele>
        <time>2023-08-02T08:58:04.000Z</time>
      </trkpt>
      <trkpt lat="43.78363" lon="7.10139">
        <ele>708.40002441406</ele>
        <time>2023-08-02T08:58:05.000Z</time>
      </trkpt>
      <trkpt lat="43.78364" lon="7.10143">
        <ele>707.59997558594</ele>
        <time>2023-08-02T08:58:06.000Z</time>
      </trkpt>
      <trkpt lat="43.78365" lon="7.10148">
        <ele>707.20001220703</ele>
        <time>2023-08-02T08:58:07.000Z</time>
      </trkpt>
      <trkpt lat="43.78366" lon="7.10154">
        <ele>706.59997558594</ele>
        <time>2023-08-02T08:58:08.000Z</time>
      </trkpt>
      <trkpt lat="43.78366" lon="7.10159">
        <ele>706.59997558594</ele>
        <time>2023-08-02T08:58:09.000Z</time>
      </trkpt>
      <trkpt lat="43.78366" lon="7.10163">
        <ele>706.40002441406</ele>
        <time>2023-08-02T08:58:10.000Z</time>
      </trkpt>
      <trkpt lat="43.78367" lon="7.10167">
        <ele>705.40002441406</ele>
        <time>2023-08-02T08:58:11.000Z</time>
      </trkpt>
      <trkpt lat="43.78369" lon="7.10172">
        <ele>704.79998779297</ele>
        <time>2023-08-02T08:58:12.000Z</time>
      </trkpt>
      <trkpt lat="43.7837" lon="7.10176">
        <ele>704.20001220703</ele>
        <time>2023-08-02T08:58:13.000Z</time>
      </trkpt>
      <trkpt lat="43.78371" lon="7.1018">
        <ele>704</ele>
        <time>2023-08-02T08:58:14.000Z</time>
      </trkpt>
      <trkpt lat="43.78372" lon="7.10184">
        <ele>704</ele>
        <time>2023-08-02T08:58:15.000Z</time>
      </trkpt>
      <trkpt lat="43.78373" lon="7.10188">
        <ele>704</ele>
        <time>2023-08-02T08:58:16.000Z</time>
      </trkpt>
      <trkpt lat="43.78373" lon="7.10191">
        <ele>703.79998779297</ele>
        <time>2023-08-02T08:58:17.000Z</time>
      </trkpt>
      <trkpt lat="43.78374" lon="7.10194">
        <ele>703.79998779297</ele>
        <time>2023-08-02T08:58:18.000Z</time>
      </trkpt>
      <trkpt lat="43.78374" lon="7.10197">
        <ele>703.79998779297</ele>
        <time>2023-08-02T08:58:19.000Z</time>
      </trkpt>
      <trkpt lat="43.78374" lon="7.10201">
        <ele>703.79998779297</ele>
        <time>2023-08-02T08:58:20.000Z</time>
      </trkpt>
      <trkpt lat="43.78375" lon="7.10206">
        <ele>703.79998779297</ele>
        <time>2023-08-02T08:58:21.000Z</time>
      </trkpt>
      <trkpt lat="43.78377" lon="7.10211">
        <ele>703.79998779297</ele>
        <time>2023-08-02T08:58:22.000Z</time>
      </trkpt>
      <trkpt lat="43.78378" lon="7.10215">
        <ele>703.59997558594</ele>
        <time>2023-08-02T08:58:23.000Z</time>
      </trkpt>
      <trkpt lat="43.7838" lon="7.1022">
        <ele>703.59997558594</ele>
        <time>2023-08-02T08:58:24.000Z</time>
      </trkpt>
      <trkpt lat="43.78381" lon="7.10224">
        <ele>702.79998779297</ele>
        <time>2023-08-02T08:58:25.000Z</time>
      </trkpt>
      <trkpt lat="43.78382" lon="7.10229">
        <ele>702.79998779297</ele>
        <time>2023-08-02T08:58:26.000Z</time>
      </trkpt>
      <trkpt lat="43.78384" lon="7.10234">
        <ele>702.79998779297</ele>
        <time>2023-08-02T08:58:27.000Z</time>
      </trkpt>
      <trkpt lat="43.78386" lon="7.10238">
        <ele>702.59997558594</ele>
        <time>2023-08-02T08:58:28.000Z</time>
      </trkpt>
      <trkpt lat="43.78388" lon="7.10242">
        <ele>702.59997558594</ele>
        <time>2023-08-02T08:58:29.000Z</time>
      </trkpt>
      <trkpt lat="43.7839" lon="7.10245">
        <ele>702.40002441406</ele>
        <time>2023-08-02T08:58:30.000Z</time>
      </trkpt>
      <trkpt lat="43.78391" lon="7.10248">
        <ele>702.20001220703</ele>
        <time>2023-08-02T08:58:31.000Z</time>
      </trkpt>
      <trkpt lat="43.78392" lon="7.10251">
        <ele>702.20001220703</ele>
        <time>2023-08-02T08:58:32.000Z</time>
      </trkpt>
      <trkpt lat="43.78392" lon="7.10254">
        <ele>702.20001220703</ele>
        <time>2023-08-02T08:58:33.000Z</time>
      </trkpt>
      <trkpt lat="43.78393" lon="7.10258">
        <ele>702.20001220703</ele>
        <time>2023-08-02T08:58:34.000Z</time>
      </trkpt>
      <trkpt lat="43.78394" lon="7.10263">
        <ele>702.20001220703</ele>
        <time>2023-08-02T08:58:35.000Z</time>
      </trkpt>
      <trkpt lat="43.78397" lon="7.10267">
        <ele>702.20001220703</ele>
        <time>2023-08-02T08:58:36.000Z</time>
      </trkpt>
      <trkpt lat="43.78399" lon="7.10269">
        <ele>702</ele>
        <time>2023-08-02T08:58:37.000Z</time>
      </trkpt>
      <trkpt lat="43.78401" lon="7.10271">
        <ele>702</ele>
        <time>2023-08-02T08:58:38.000Z</time>
      </trkpt>
      <trkpt lat="43.78402" lon="7.10273">
        <ele>702</ele>
        <time>2023-08-02T08:58:39.000Z</time>
      </trkpt>
      <trkpt lat="43.78403" lon="7.10276">
        <ele>702</ele>
        <time>2023-08-02T08:58:40.000Z</time>
      </trkpt>
      <trkpt lat="43.78405" lon="7.10279">
        <ele>702</ele>
        <time>2023-08-02T08:58:41.000Z</time>
      </trkpt>
      <trkpt lat="43.78407" lon="7.10283">
        <ele>702</ele>
        <time>2023-08-02T08:58:42.000Z</time>
      </trkpt>
      <trkpt lat="43.78408" lon="7.10289">
        <ele>702</ele>
        <time>2023-08-02T08:58:43.000Z</time>
      </trkpt>
      <trkpt lat="43.7841" lon="7.10294">
        <ele>702</ele>
        <time>2023-08-02T08:58:44.000Z</time>
      </trkpt>
      <trkpt lat="43.78413" lon="7.10298">
        <ele>701.79998779297</ele>
        <time>2023-08-02T08:58:45.000Z</time>
      </trkpt>
      <trkpt lat="43.78414" lon="7.10301">
        <ele>701.59997558594</ele>
        <time>2023-08-02T08:58:46.000Z</time>
      </trkpt>
      <trkpt lat="43.78415" lon="7.10304">
        <ele>701.40002441406</ele>
        <time>2023-08-02T08:58:47.000Z</time>
      </trkpt>
      <trkpt lat="43.78415" lon="7.10306">
        <ele>701</ele>
        <time>2023-08-02T08:58:48.000Z</time>
      </trkpt>
      <trkpt lat="43.78416" lon="7.10308">
        <ele>701</ele>
        <time>2023-08-02T08:58:49.000Z</time>
      </trkpt>
      <trkpt lat="43.78417" lon="7.1031">
        <ele>701</ele>
        <time>2023-08-02T08:58:50.000Z</time>
      </trkpt>
      <trkpt lat="43.78417" lon="7.10312">
        <ele>700.79998779297</ele>
        <time>2023-08-02T08:58:51.000Z</time>
      </trkpt>
      <trkpt lat="43.78417" lon="7.10315">
        <ele>700.59997558594</ele>
        <time>2023-08-02T08:58:52.000Z</time>
      </trkpt>
      <trkpt lat="43.78417" lon="7.10317">
        <ele>700.59997558594</ele>
        <time>2023-08-02T08:58:53.000Z</time>
      </trkpt>
      <trkpt lat="43.78417" lon="7.10321">
        <ele>700.40002441406</ele>
        <time>2023-08-02T08:58:54.000Z</time>
      </trkpt>
      <trkpt lat="43.78419" lon="7.10325">
        <ele>700.20001220703</ele>
        <time>2023-08-02T08:58:55.000Z</time>
      </trkpt>
      <trkpt lat="43.7842" lon="7.10329">
        <ele>699.79998779297</ele>
        <time>2023-08-02T08:58:56.000Z</time>
      </trkpt>
      <trkpt lat="43.78421" lon="7.10332">
        <ele>699.40002441406</ele>
        <time>2023-08-02T08:58:57.000Z</time>
      </trkpt>
      <trkpt lat="43.78421" lon="7.10336">
        <ele>699</ele>
        <time>2023-08-02T08:58:58.000Z</time>
      </trkpt>
      <trkpt lat="43.78421" lon="7.10339">
        <ele>698.40002441406</ele>
        <time>2023-08-02T08:58:59.000Z</time>
      </trkpt>
      <trkpt lat="43.78422" lon="7.10342">
        <ele>698</ele>
        <time>2023-08-02T08:59:00.000Z</time>
      </trkpt>
      <trkpt lat="43.78423" lon="7.10344">
        <ele>697.59997558594</ele>
        <time>2023-08-02T08:59:01.000Z</time>
      </trkpt>
      <trkpt lat="43.78424" lon="7.10347">
        <ele>697</ele>
        <time>2023-08-02T08:59:02.000Z</time>
      </trkpt>
      <trkpt lat="43.78425" lon="7.1035">
        <ele>696.20001220703</ele>
        <time>2023-08-02T08:59:03.000Z</time>
      </trkpt>
      <trkpt lat="43.78427" lon="7.10352">
        <ele>696</ele>
        <time>2023-08-02T08:59:04.000Z</time>
      </trkpt>
      <trkpt lat="43.78429" lon="7.10356">
        <ele>695.40002441406</ele>
        <time>2023-08-02T08:59:05.000Z</time>
      </trkpt>
      <trkpt lat="43.78431" lon="7.10361">
        <ele>695</ele>
        <time>2023-08-02T08:59:06.000Z</time>
      </trkpt>
      <trkpt lat="43.78433" lon="7.10366">
        <ele>694.40002441406</ele>
        <time>2023-08-02T08:59:07.000Z</time>
      </trkpt>
      <trkpt lat="43.78436" lon="7.1037">
        <ele>694.20001220703</ele>
        <time>2023-08-02T08:59:08.000Z</time>
      </trkpt>
      <trkpt lat="43.78439" lon="7.10374">
        <ele>693.79998779297</ele>
        <time>2023-08-02T08:59:09.000Z</time>
      </trkpt>
      <trkpt lat="43.7844" lon="7.10377">
        <ele>693.20001220703</ele>
        <time>2023-08-02T08:59:10.000Z</time>
      </trkpt>
      <trkpt lat="43.7844" lon="7.1038">
        <ele>693</ele>
        <time>2023-08-02T08:59:11.000Z</time>
      </trkpt>
      <trkpt lat="43.7844" lon="7.10382">
        <ele>692.59997558594</ele>
        <time>2023-08-02T08:59:12.000Z</time>
      </trkpt>
      <trkpt lat="43.78439" lon="7.10384">
        <ele>692.59997558594</ele>
        <time>2023-08-02T08:59:13.000Z</time>
      </trkpt>
      <trkpt lat="43.78439" lon="7.10386">
        <ele>692.40002441406</ele>
        <time>2023-08-02T08:59:14.000Z</time>
      </trkpt>
      <trkpt lat="43.78438" lon="7.10388">
        <ele>692.40002441406</ele>
        <time>2023-08-02T08:59:15.000Z</time>
      </trkpt>
      <trkpt lat="43.78438" lon="7.1039">
        <ele>692.40002441406</ele>
        <time>2023-08-02T08:59:16.000Z</time>
      </trkpt>
      <trkpt lat="43.78436" lon="7.10392">
        <ele>692.40002441406</ele>
        <time>2023-08-02T08:59:17.000Z</time>
      </trkpt>
      <trkpt lat="43.78435" lon="7.10396">
        <ele>691.79998779297</ele>
        <time>2023-08-02T08:59:18.000Z</time>
      </trkpt>
      <trkpt lat="43.78435" lon="7.104">
        <ele>691.79998779297</ele>
        <time>2023-08-02T08:59:19.000Z</time>
      </trkpt>
      <trkpt lat="43.78435" lon="7.10403">
        <ele>691.79998779297</ele>
        <time>2023-08-02T08:59:20.000Z</time>
      </trkpt>
      <trkpt lat="43.78435" lon="7.10406">
        <ele>691.20001220703</ele>
        <time>2023-08-02T08:59:21.000Z</time>
      </trkpt>
      <trkpt lat="43.78434" lon="7.10409">
        <ele>690.79998779297</ele>
        <time>2023-08-02T08:59:22.000Z</time>
      </trkpt>
      <trkpt lat="43.78433" lon="7.10411">
        <ele>690.20001220703</ele>
        <time>2023-08-02T08:59:23.000Z</time>
      </trkpt>
      <trkpt lat="43.78432" lon="7.10414">
        <ele>689.79998779297</ele>
        <time>2023-08-02T08:59:24.000Z</time>
      </trkpt>
      <trkpt lat="43.78432" lon="7.10416">
        <ele>689</ele>
        <time>2023-08-02T08:59:25.000Z</time>
      </trkpt>
      <trkpt lat="43.78431" lon="7.10417">
        <ele>688.40002441406</ele>
        <time>2023-08-02T08:59:26.000Z</time>
      </trkpt>
      <trkpt lat="43.78428" lon="7.1042">
        <ele>688.20001220703</ele>
        <time>2023-08-02T08:59:27.000Z</time>
      </trkpt>
      <trkpt lat="43.78426" lon="7.10422">
        <ele>687.59997558594</ele>
        <time>2023-08-02T08:59:28.000Z</time>
      </trkpt>
      <trkpt lat="43.78425" lon="7.10424">
        <ele>687.20001220703</ele>
        <time>2023-08-02T08:59:29.000Z</time>
      </trkpt>
      <trkpt lat="43.78424" lon="7.10426">
        <ele>687</ele>
        <time>2023-08-02T08:59:30.000Z</time>
      </trkpt>
      <trkpt lat="43.78423" lon="7.10428">
        <ele>685.79998779297</ele>
        <time>2023-08-02T08:59:31.000Z</time>
      </trkpt>
      <trkpt lat="43.78423" lon="7.10428">
        <ele>685.20001220703</ele>
        <time>2023-08-02T08:59:32.000Z</time>
      </trkpt>
      <trkpt lat="43.78423" lon="7.10428">
        <ele>685</ele>
        <time>2023-08-02T08:59:33.000Z</time>
      </trkpt>
      <trkpt lat="43.78423" lon="7.10428">
        <ele>684.59997558594</ele>
        <time>2023-08-02T08:59:34.000Z</time>
      </trkpt>
      <trkpt lat="43.78423" lon="7.10428">
        <ele>684.40002441406</ele>
        <time>2023-08-02T08:59:35.000Z</time>
      </trkpt>
      <trkpt lat="43.78423" lon="7.10428">
        <ele>684.20001220703</ele>
        <time>2023-08-02T08:59:36.000Z</time>
      </trkpt>
      <trkpt lat="43.78423" lon="7.10428">
        <ele>684.20001220703</ele>
        <time>2023-08-02T08:59:37.000Z</time>
      </trkpt>
      <trkpt lat="43.78423" lon="7.10428">
        <ele>684</ele>
        <time>2023-08-02T08:59:38.000Z</time>
      </trkpt>
      <trkpt lat="43.78423" lon="7.10428">
        <ele>684</ele>
        <time>2023-08-02T08:59:39.000Z</time>
      </trkpt>
      <trkpt lat="43.78423" lon="7.10428">
        <ele>684</ele>
        <time>2023-08-02T08:59:40.000Z</time>
      </trkpt>
      <trkpt lat="43.78423" lon="7.10428">
        <ele>684</ele>
        <time>2023-08-02T08:59:41.000Z</time>
      </trkpt>
      <trkpt lat="43.78423" lon="7.10428">
        <ele>684</ele>
        <time>2023-08-02T08:59:42.000Z</time>
      </trkpt>
      <trkpt lat="43.78423" lon="7.10428">
        <ele>684</ele>
        <time>2023-08-02T08:59:43.000Z</time>
      </trkpt>
      <trkpt lat="43.78423" lon="7.10428">
        <ele>683.79998779297</ele>
        <time>2023-08-02T08:59:44.000Z</time>
      </trkpt>
      <trkpt lat="43.78423" lon="7.10428">
        <ele>683.79998779297</ele>
        <time>2023-08-02T08:59:45.000Z</time>
      </trkpt>
      <trkpt lat="43.78423" lon="7.10428">
        <ele>683.79998779297</ele>
        <time>2023-08-02T08:59:46.000Z</time>
      </trkpt>
      <trkpt lat="43.78423" lon="7.10428">
        <ele>683.79998779297</ele>
        <time>2023-08-02T08:59:47.000Z</time>
      </trkpt>
      <trkpt lat="43.78423" lon="7.10428">
        <ele>684</ele>
        <time>2023-08-02T08:59:48.000Z</time>
      </trkpt>
      <trkpt lat="43.78423" lon="7.10428">
        <ele>684</ele>
        <time>2023-08-02T08:59:49.000Z</time>
      </trkpt>
      <trkpt lat="43.78423" lon="7.10428">
        <ele>684</ele>
        <time>2023-08-02T08:59:50.000Z</time>
      </trkpt>
      <trkpt lat="43.78423" lon="7.10428">
        <ele>684</ele>
        <time>2023-08-02T08:59:51.000Z</time>
      </trkpt>
      <trkpt lat="43.78423" lon="7.10428">
        <ele>684</ele>
        <time>2023-08-02T08:59:52.000Z</time>
      </trkpt>
      <trkpt lat="43.78423" lon="7.10428">
        <ele>684</ele>
        <time>2023-08-02T08:59:53.000Z</time>
      </trkpt>
      <trkpt lat="43.78423" lon="7.10428">
        <ele>684</ele>
        <time>2023-08-02T08:59:54.000Z</time>
      </trkpt>
      <trkpt lat="43.78423" lon="7.10428">
        <ele>684</ele>
        <time>2023-08-02T08:59:55.000Z</time>
      </trkpt>
      <trkpt lat="43.78423" lon="7.10428">
        <ele>684</ele>
        <time>2023-08-02T08:59:56.000Z</time>
      </trkpt>
      <trkpt lat="43.78423" lon="7.10428">
        <ele>684</ele>
        <time>2023-08-02T08:59:57.000Z</time>
      </trkpt>
      <trkpt lat="43.78423" lon="7.10428">
        <ele>684</ele>
        <time>2023-08-02T08:59:58.000Z</time>
      </trkpt>
      <trkpt lat="43.78423" lon="7.10428">
        <ele>683.79998779297</ele>
        <time>2023-08-02T08:59:59.000Z</time>
      </trkpt>
      <trkpt lat="43.78423" lon="7.10428">
        <ele>684</ele>
        <time>2023-08-02T09:00:00.000Z</time>
      </trkpt>
      <trkpt lat="43.78423" lon="7.10428">
        <ele>683.79998779297</ele>
        <time>2023-08-02T09:00:01.000Z</time>
      </trkpt>
      <trkpt lat="43.78423" lon="7.10428">
        <ele>683.79998779297</ele>
        <time>2023-08-02T09:00:02.000Z</time>
      </trkpt>
      <trkpt lat="43.78423" lon="7.10428">
        <ele>683.59997558594</ele>
        <time>2023-08-02T09:00:03.000Z</time>
      </trkpt>
      <trkpt lat="43.78423" lon="7.10428">
        <ele>683.59997558594</ele>
        <time>2023-08-02T09:00:04.000Z</time>
      </trkpt>
      <trkpt lat="43.78423" lon="7.10428">
        <ele>683.40002441406</ele>
        <time>2023-08-02T09:00:05.000Z</time>
      </trkpt>
      <trkpt lat="43.78423" lon="7.10428">
        <ele>683.20001220703</ele>
        <time>2023-08-02T09:00:06.000Z</time>
      </trkpt>
      <trkpt lat="43.78423" lon="7.10428">
        <ele>683.20001220703</ele>
        <time>2023-08-02T09:00:07.000Z</time>
      </trkpt>
      <trkpt lat="43.78423" lon="7.10427">
        <ele>683.20001220703</ele>
        <time>2023-08-02T09:00:08.000Z</time>
      </trkpt>
      <trkpt lat="43.78423" lon="7.10428">
        <ele>683.20001220703</ele>
        <time>2023-08-02T09:00:09.000Z</time>
      </trkpt>
      <trkpt lat="43.78423" lon="7.10427">
        <ele>683.20001220703</ele>
        <time>2023-08-02T09:00:10.000Z</time>
      </trkpt>
      <trkpt lat="43.78423" lon="7.10428">
        <ele>683.20001220703</ele>
        <time>2023-08-02T09:00:11.000Z</time>
      </trkpt>
      <trkpt lat="43.78423" lon="7.10428">
        <ele>683.20001220703</ele>
        <time>2023-08-02T09:00:12.000Z</time>
      </trkpt>
      <trkpt lat="43.78423" lon="7.10428">
        <ele>684</ele>
        <time>2023-08-02T09:00:13.000Z</time>
      </trkpt>
      <trkpt lat="43.78423" lon="7.10428">
        <ele>684</ele>
        <time>2023-08-02T09:00:14.000Z</time>
      </trkpt>
      <trkpt lat="43.78423" lon="7.10428">
        <ele>684</ele>
        <time>2023-08-02T09:00:15.000Z</time>
      </trkpt>
      <trkpt lat="43.78423" lon="7.10428">
        <ele>684</ele>
        <time>2023-08-02T09:00:16.000Z</time>
      </trkpt>
      <trkpt lat="43.78423" lon="7.10428">
        <ele>684</ele>
        <time>2023-08-02T09:00:17.000Z</time>
      </trkpt>
      <trkpt lat="43.78423" lon="7.10428">
        <ele>684</ele>
        <time>2023-08-02T09:00:18.000Z</time>
      </trkpt>
      <trkpt lat="43.78423" lon="7.10428">
        <ele>684</ele>
        <time>2023-08-02T09:00:19.000Z</time>
      </trkpt>
      <trkpt lat="43.78423" lon="7.10428">
        <ele>684</ele>
        <time>2023-08-02T09:00:20.000Z</time>
      </trkpt>
      <trkpt lat="43.78423" lon="7.10428">
        <ele>684</ele>
        <time>2023-08-02T09:00:21.000Z</time>
      </trkpt>
      <trkpt lat="43.78423" lon="7.10428">
        <ele>684</ele>
        <time>2023-08-02T09:00:22.000Z</time>
      </trkpt>
      <trkpt lat="43.78423" lon="7.10428">
        <ele>684</ele>
        <time>2023-08-02T09:00:23.000Z</time>
      </trkpt>
      <trkpt lat="43.78423" lon="7.10428">
        <ele>684</ele>
        <time>2023-08-02T09:00:24.000Z</time>
      </trkpt>
      <trkpt lat="43.78423" lon="7.10428">
        <ele>684</ele>
        <time>2023-08-02T09:00:25.000Z</time>
      </trkpt>
      <trkpt lat="43.78423" lon="7.10428">
        <ele>684</ele>
        <time>2023-08-02T09:00:26.000Z</time>
      </trkpt>
      <trkpt lat="43.78423" lon="7.10428">
        <ele>684</ele>
        <time>2023-08-02T09:00:27.000Z</time>
      </trkpt>
      <trkpt lat="43.78423" lon="7.10428">
        <ele>684</ele>
        <time>2023-08-02T09:00:28.000Z</time>
      </trkpt>
      <trkpt lat="43.78423" lon="7.10428">
        <ele>684</ele>
        <time>2023-08-02T09:00:29.000Z</time>
      </trkpt>
      <trkpt lat="43.78423" lon="7.10428">
        <ele>684</ele>
        <time>2023-08-02T09:00:30.000Z</time>
      </trkpt>
      <trkpt lat="43.78423" lon="7.10428">
        <ele>684</ele>
        <time>2023-08-02T09:00:31.000Z</time>
      </trkpt>
      <trkpt lat="43.78423" lon="7.10428">
        <ele>684</ele>
        <time>2023-08-02T09:00:32.000Z</time>
      </trkpt>
      <trkpt lat="43.78423" lon="7.10428">
        <ele>683.79998779297</ele>
        <time>2023-08-02T09:00:33.000Z</time>
      </trkpt>
      <trkpt lat="43.78423" lon="7.10428">
        <ele>683.79998779297</ele>
        <time>2023-08-02T09:00:34.000Z</time>
      </trkpt>
      <trkpt lat="43.78423" lon="7.10428">
        <ele>683.79998779297</ele>
        <time>2023-08-02T09:00:35.000Z</time>
      </trkpt>
      <trkpt lat="43.78423" lon="7.10428">
        <ele>683.79998779297</ele>
        <time>2023-08-02T09:00:36.000Z</time>
      </trkpt>
      <trkpt lat="43.78423" lon="7.10428">
        <ele>683.79998779297</ele>
        <time>2023-08-02T09:00:37.000Z</time>
      </trkpt>
      <trkpt lat="43.78423" lon="7.10428">
        <ele>683.79998779297</ele>
        <time>2023-08-02T09:00:38.000Z</time>
      </trkpt>
      <trkpt lat="43.78423" lon="7.10428">
        <ele>683.79998779297</ele>
        <time>2023-08-02T09:00:39.000Z</time>
      </trkpt>
      <trkpt lat="43.78423" lon="7.10428">
        <ele>683.79998779297</ele>
        <time>2023-08-02T09:00:40.000Z</time>
      </trkpt>
      <trkpt lat="43.78423" lon="7.10428">
        <ele>683.79998779297</ele>
        <time>2023-08-02T09:00:41.000Z</time>
      </trkpt>
      <trkpt lat="43.78423" lon="7.10428">
        <ele>683.79998779297</ele>
        <time>2023-08-02T09:00:42.000Z</time>
      </trkpt>
      <trkpt lat="43.78423" lon="7.10428">
        <ele>683.79998779297</ele>
        <time>2023-08-02T09:00:43.000Z</time>
      </trkpt>
      <trkpt lat="43.78423" lon="7.10428">
        <ele>683.79998779297</ele>
        <time>2023-08-02T09:00:44.000Z</time>
      </trkpt>
      <trkpt lat="43.78423" lon="7.10428">
        <ele>683.79998779297</ele>
        <time>2023-08-02T09:00:45.000Z</time>
      </trkpt>
      <trkpt lat="43.78423" lon="7.10428">
        <ele>683.79998779297</ele>
        <time>2023-08-02T09:00:46.000Z</time>
      </trkpt>
      <trkpt lat="43.78423" lon="7.10428">
        <ele>683.79998779297</ele>
        <time>2023-08-02T09:00:47.000Z</time>
      </trkpt>
      <trkpt lat="43.78423" lon="7.10428">
        <ele>683.79998779297</ele>
        <time>2023-08-02T09:00:48.000Z</time>
      </trkpt>
      <trkpt lat="43.78423" lon="7.10428">
        <ele>683.79998779297</ele>
        <time>2023-08-02T09:00:49.000Z</time>
      </trkpt>
      <trkpt lat="43.78423" lon="7.10428">
        <ele>683.79998779297</ele>
        <time>2023-08-02T09:00:50.000Z</time>
      </trkpt>
      <trkpt lat="43.78423" lon="7.10428">
        <ele>683.79998779297</ele>
        <time>2023-08-02T09:00:51.000Z</time>
      </trkpt>
      <trkpt lat="43.78423" lon="7.10428">
        <ele>683.79998779297</ele>
        <time>2023-08-02T09:00:52.000Z</time>
      </trkpt>
      <trkpt lat="43.78423" lon="7.10428">
        <ele>683.79998779297</ele>
        <time>2023-08-02T09:00:53.000Z</time>
      </trkpt>
      <trkpt lat="43.78423" lon="7.10428">
        <ele>683.79998779297</ele>
        <time>2023-08-02T09:00:54.000Z</time>
      </trkpt>
      <trkpt lat="43.78423" lon="7.10428">
        <ele>683.79998779297</ele>
        <time>2023-08-02T09:00:55.000Z</time>
      </trkpt>
      <trkpt lat="43.78423" lon="7.10428">
        <ele>683.79998779297</ele>
        <time>2023-08-02T09:00:56.000Z</time>
      </trkpt>
      <trkpt lat="43.78423" lon="7.10428">
        <ele>683.79998779297</ele>
        <time>2023-08-02T09:00:57.000Z</time>
      </trkpt>
      <trkpt lat="43.78423" lon="7.10428">
        <ele>683.79998779297</ele>
        <time>2023-08-02T09:00:58.000Z</time>
      </trkpt>
      <trkpt lat="43.78423" lon="7.10428">
        <ele>683.79998779297</ele>
        <time>2023-08-02T09:00:59.000Z</time>
      </trkpt>
      <trkpt lat="43.78423" lon="7.10428">
        <ele>683.79998779297</ele>
        <time>2023-08-02T09:01:00.000Z</time>
      </trkpt>
      <trkpt lat="43.78423" lon="7.10428">
        <ele>683.79998779297</ele>
        <time>2023-08-02T09:01:01.000Z</time>
      </trkpt>
      <trkpt lat="43.78423" lon="7.10428">
        <ele>683.79998779297</ele>
        <time>2023-08-02T09:01:02.000Z</time>
      </trkpt>
      <trkpt lat="43.78423" lon="7.10428">
        <ele>683.79998779297</ele>
        <time>2023-08-02T09:01:03.000Z</time>
      </trkpt>
      <trkpt lat="43.78423" lon="7.10428">
        <ele>683.79998779297</ele>
        <time>2023-08-02T09:01:04.000Z</time>
      </trkpt>
      <trkpt lat="43.78423" lon="7.10428">
        <ele>683.79998779297</ele>
        <time>2023-08-02T09:01:05.000Z</time>
      </trkpt>
      <trkpt lat="43.78423" lon="7.10428">
        <ele>683.79998779297</ele>
        <time>2023-08-02T09:01:06.000Z</time>
      </trkpt>
      <trkpt lat="43.78423" lon="7.10428">
        <ele>683.79998779297</ele>
        <time>2023-08-02T09:01:07.000Z</time>
      </trkpt>
      <trkpt lat="43.78423" lon="7.10428">
        <ele>683.79998779297</ele>
        <time>2023-08-02T09:01:08.000Z</time>
      </trkpt>
      <trkpt lat="43.78423" lon="7.10428">
        <ele>683.79998779297</ele>
        <time>2023-08-02T09:01:09.000Z</time>
      </trkpt>
      <trkpt lat="43.78423" lon="7.10428">
        <ele>683.79998779297</ele>
        <time>2023-08-02T09:01:10.000Z</time>
      </trkpt>
      <trkpt lat="43.78423" lon="7.10428">
        <ele>683.79998779297</ele>
        <time>2023-08-02T09:01:11.000Z</time>
      </trkpt>
      <trkpt lat="43.78423" lon="7.10428">
        <ele>683.79998779297</ele>
        <time>2023-08-02T09:01:12.000Z</time>
      </trkpt>
      <trkpt lat="43.78423" lon="7.10428">
        <ele>683.79998779297</ele>
        <time>2023-08-02T09:01:13.000Z</time>
      </trkpt>
      <trkpt lat="43.78423" lon="7.10428">
        <ele>683.79998779297</ele>
        <time>2023-08-02T09:01:14.000Z</time>
      </trkpt>
      <trkpt lat="43.78423" lon="7.10428">
        <ele>683.79998779297</ele>
        <time>2023-08-02T09:01:15.000Z</time>
      </trkpt>
      <trkpt lat="43.78423" lon="7.10428">
        <ele>683.79998779297</ele>
        <time>2023-08-02T09:01:16.000Z</time>
      </trkpt>
      <trkpt lat="43.78423" lon="7.10428">
        <ele>683.79998779297</ele>
        <time>2023-08-02T09:01:17.000Z</time>
      </trkpt>
      <trkpt lat="43.78423" lon="7.10428">
        <ele>683.79998779297</ele>
        <time>2023-08-02T09:01:18.000Z</time>
      </trkpt>
      <trkpt lat="43.78423" lon="7.10428">
        <ele>683.79998779297</ele>
        <time>2023-08-02T09:01:19.000Z</time>
      </trkpt>
      <trkpt lat="43.78423" lon="7.10428">
        <ele>683.79998779297</ele>
        <time>2023-08-02T09:01:20.000Z</time>
      </trkpt>
      <trkpt lat="43.78423" lon="7.10428">
        <ele>683.79998779297</ele>
        <time>2023-08-02T09:01:21.000Z</time>
      </trkpt>
      <trkpt lat="43.78423" lon="7.10428">
        <ele>683.79998779297</ele>
        <time>2023-08-02T09:01:22.000Z</time>
      </trkpt>
      <trkpt lat="43.78423" lon="7.10428">
        <ele>683.79998779297</ele>
        <time>2023-08-02T09:01:23.000Z</time>
      </trkpt>
      <trkpt lat="43.78423" lon="7.10428">
        <ele>683.79998779297</ele>
        <time>2023-08-02T09:01:24.000Z</time>
      </trkpt>
      <trkpt lat="43.78423" lon="7.10428">
        <ele>683.79998779297</ele>
        <time>2023-08-02T09:01:25.000Z</time>
      </trkpt>
      <trkpt lat="43.78423" lon="7.10428">
        <ele>683.79998779297</ele>
        <time>2023-08-02T09:01:26.000Z</time>
      </trkpt>
      <trkpt lat="43.78423" lon="7.10428">
        <ele>683.79998779297</ele>
        <time>2023-08-02T09:01:27.000Z</time>
      </trkpt>
      <trkpt lat="43.78423" lon="7.10428">
        <ele>683.79998779297</ele>
        <time>2023-08-02T09:01:28.000Z</time>
      </trkpt>
      <trkpt lat="43.78423" lon="7.10428">
        <ele>683.79998779297</ele>
        <time>2023-08-02T09:01:29.000Z</time>
      </trkpt>
      <trkpt lat="43.78423" lon="7.10428">
        <ele>683.79998779297</ele>
        <time>2023-08-02T09:01:30.000Z</time>
      </trkpt>
      <trkpt lat="43.78423" lon="7.10428">
        <ele>683.79998779297</ele>
        <time>2023-08-02T09:01:31.000Z</time>
      </trkpt>
      <trkpt lat="43.78423" lon="7.10428">
        <ele>683.79998779297</ele>
        <time>2023-08-02T09:01:32.000Z</time>
      </trkpt>
      <trkpt lat="43.78423" lon="7.10428">
        <ele>683.79998779297</ele>
        <time>2023-08-02T09:01:33.000Z</time>
      </trkpt>
      <trkpt lat="43.78423" lon="7.10428">
        <ele>683.79998779297</ele>
        <time>2023-08-02T09:01:34.000Z</time>
      </trkpt>
      <trkpt lat="43.78423" lon="7.10428">
        <ele>683.79998779297</ele>
        <time>2023-08-02T09:01:35.000Z</time>
      </trkpt>
      <trkpt lat="43.78423" lon="7.10428">
        <ele>683.79998779297</ele>
        <time>2023-08-02T09:01:36.000Z</time>
      </trkpt>
      <trkpt lat="43.78423" lon="7.10428">
        <ele>683.79998779297</ele>
        <time>2023-08-02T09:01:37.000Z</time>
      </trkpt>
      <trkpt lat="43.78423" lon="7.10428">
        <ele>683.79998779297</ele>
        <time>2023-08-02T09:01:38.000Z</time>
      </trkpt>
      <trkpt lat="43.78423" lon="7.10428">
        <ele>683.79998779297</ele>
        <time>2023-08-02T09:01:39.000Z</time>
      </trkpt>
      <trkpt lat="43.78423" lon="7.10428">
        <ele>683.79998779297</ele>
        <time>2023-08-02T09:01:40.000Z</time>
      </trkpt>
      <trkpt lat="43.78423" lon="7.10428">
        <ele>683.79998779297</ele>
        <time>2023-08-02T09:01:41.000Z</time>
      </trkpt>
      <trkpt lat="43.78423" lon="7.10428">
        <ele>683.79998779297</ele>
        <time>2023-08-02T09:01:42.000Z</time>
      </trkpt>
      <trkpt lat="43.78423" lon="7.10428">
        <ele>683.79998779297</ele>
        <time>2023-08-02T09:01:43.000Z</time>
      </trkpt>
      <trkpt lat="43.78423" lon="7.10428">
        <ele>683.79998779297</ele>
        <time>2023-08-02T09:01:44.000Z</time>
      </trkpt>
      <trkpt lat="43.78423" lon="7.10428">
        <ele>683.79998779297</ele>
        <time>2023-08-02T09:01:45.000Z</time>
      </trkpt>
      <trkpt lat="43.78423" lon="7.10428">
        <ele>683.79998779297</ele>
        <time>2023-08-02T09:01:46.000Z</time>
      </trkpt>
      <trkpt lat="43.78423" lon="7.10428">
        <ele>683.79998779297</ele>
        <time>2023-08-02T09:01:47.000Z</time>
      </trkpt>
      <trkpt lat="43.78423" lon="7.10428">
        <ele>683.79998779297</ele>
        <time>2023-08-02T09:01:48.000Z</time>
      </trkpt>
      <trkpt lat="43.78423" lon="7.10428">
        <ele>683.79998779297</ele>
        <time>2023-08-02T09:01:49.000Z</time>
      </trkpt>
      <trkpt lat="43.78423" lon="7.10428">
        <ele>683.79998779297</ele>
        <time>2023-08-02T09:01:50.000Z</time>
      </trkpt>
      <trkpt lat="43.78423" lon="7.10428">
        <ele>683.79998779297</ele>
        <time>2023-08-02T09:01:51.000Z</time>
      </trkpt>
      <trkpt lat="43.78423" lon="7.10428">
        <ele>683.79998779297</ele>
        <time>2023-08-02T09:01:52.000Z</time>
      </trkpt>
      <trkpt lat="43.78423" lon="7.10428">
        <ele>683.79998779297</ele>
        <time>2023-08-02T09:01:53.000Z</time>
      </trkpt>
      <trkpt lat="43.78423" lon="7.10428">
        <ele>683.79998779297</ele>
        <time>2023-08-02T09:01:54.000Z</time>
      </trkpt>
      <trkpt lat="43.78423" lon="7.10428">
        <ele>683.79998779297</ele>
        <time>2023-08-02T09:01:55.000Z</time>
      </trkpt>
      <trkpt lat="43.78423" lon="7.10428">
        <ele>683.79998779297</ele>
        <time>2023-08-02T09:01:56.000Z</time>
      </trkpt>
      <trkpt lat="43.78423" lon="7.10428">
        <ele>683.79998779297</ele>
        <time>2023-08-02T09:01:57.000Z</time>
      </trkpt>
      <trkpt lat="43.78423" lon="7.10428">
        <ele>683.79998779297</ele>
        <time>2023-08-02T09:01:58.000Z</time>
      </trkpt>
      <trkpt lat="43.78423" lon="7.10428">
        <ele>683.79998779297</ele>
        <time>2023-08-02T09:01:59.000Z</time>
      </trkpt>
      <trkpt lat="43.78423" lon="7.10428">
        <ele>683.79998779297</ele>
        <time>2023-08-02T09:02:00.000Z</time>
      </trkpt>
      <trkpt lat="43.78423" lon="7.10428">
        <ele>683.79998779297</ele>
        <time>2023-08-02T09:02:01.000Z</time>
      </trkpt>
      <trkpt lat="43.78423" lon="7.10428">
        <ele>683.79998779297</ele>
        <time>2023-08-02T09:02:02.000Z</time>
      </trkpt>
      <trkpt lat="43.78423" lon="7.10428">
        <ele>683.79998779297</ele>
        <time>2023-08-02T09:02:03.000Z</time>
      </trkpt>
      <trkpt lat="43.78423" lon="7.10428">
        <ele>683.79998779297</ele>
        <time>2023-08-02T09:02:04.000Z</time>
      </trkpt>
      <trkpt lat="43.78423" lon="7.10428">
        <ele>683.79998779297</ele>
        <time>2023-08-02T09:02:05.000Z</time>
      </trkpt>
      <trkpt lat="43.78423" lon="7.10428">
        <ele>683.79998779297</ele>
        <time>2023-08-02T09:02:06.000Z</time>
      </trkpt>
      <trkpt lat="43.78423" lon="7.10428">
        <ele>683.79998779297</ele>
        <time>2023-08-02T09:02:07.000Z</time>
      </trkpt>
      <trkpt lat="43.78423" lon="7.10428">
        <ele>683.79998779297</ele>
        <time>2023-08-02T09:02:08.000Z</time>
      </trkpt>
      <trkpt lat="43.78423" lon="7.10428">
        <ele>683.79998779297</ele>
        <time>2023-08-02T09:02:09.000Z</time>
      </trkpt>
      <trkpt lat="43.78423" lon="7.10428">
        <ele>683.79998779297</ele>
        <time>2023-08-02T09:02:10.000Z</time>
      </trkpt>
      <trkpt lat="43.78423" lon="7.10428">
        <ele>683.79998779297</ele>
        <time>2023-08-02T09:02:11.000Z</time>
      </trkpt>
      <trkpt lat="43.78423" lon="7.10428">
        <ele>683.79998779297</ele>
        <time>2023-08-02T09:02:12.000Z</time>
      </trkpt>
      <trkpt lat="43.78423" lon="7.10428">
        <ele>683.79998779297</ele>
        <time>2023-08-02T09:02:13.000Z</time>
      </trkpt>
      <trkpt lat="43.78423" lon="7.10428">
        <ele>683.79998779297</ele>
        <time>2023-08-02T09:02:14.000Z</time>
      </trkpt>
      <trkpt lat="43.78423" lon="7.10428">
        <ele>683.79998779297</ele>
        <time>2023-08-02T09:02:15.000Z</time>
      </trkpt>
      <trkpt lat="43.78423" lon="7.10428">
        <ele>683.79998779297</ele>
        <time>2023-08-02T09:02:16.000Z</time>
      </trkpt>
      <trkpt lat="43.78423" lon="7.10428">
        <ele>683.79998779297</ele>
        <time>2023-08-02T09:02:17.000Z</time>
      </trkpt>
      <trkpt lat="43.78423" lon="7.10428">
        <ele>683.79998779297</ele>
        <time>2023-08-02T09:02:18.000Z</time>
      </trkpt>
      <trkpt lat="43.78423" lon="7.10428">
        <ele>683.79998779297</ele>
        <time>2023-08-02T09:02:19.000Z</time>
      </trkpt>
      <trkpt lat="43.78423" lon="7.10428">
        <ele>683.79998779297</ele>
        <time>2023-08-02T09:02:20.000Z</time>
      </trkpt>
      <trkpt lat="43.78423" lon="7.10428">
        <ele>683.79998779297</ele>
        <time>2023-08-02T09:02:21.000Z</time>
      </trkpt>
      <trkpt lat="43.78423" lon="7.10428">
        <ele>683.79998779297</ele>
        <time>2023-08-02T09:02:22.000Z</time>
      </trkpt>
      <trkpt lat="43.78423" lon="7.10428">
        <ele>683.79998779297</ele>
        <time>2023-08-02T09:02:23.000Z</time>
      </trkpt>
      <trkpt lat="43.78423" lon="7.10428">
        <ele>683.79998779297</ele>
        <time>2023-08-02T09:02:24.000Z</time>
      </trkpt>
      <trkpt lat="43.78423" lon="7.10428">
        <ele>683.79998779297</ele>
        <time>2023-08-02T09:02:25.000Z</time>
      </trkpt>
      <trkpt lat="43.78423" lon="7.10428">
        <ele>683.79998779297</ele>
        <time>2023-08-02T09:02:26.000Z</time>
      </trkpt>
      <trkpt lat="43.78423" lon="7.10428">
        <ele>683.79998779297</ele>
        <time>2023-08-02T09:02:27.000Z</time>
      </trkpt>
      <trkpt lat="43.78423" lon="7.10428">
        <ele>683.79998779297</ele>
        <time>2023-08-02T09:02:28.000Z</time>
      </trkpt>
      <trkpt lat="43.78423" lon="7.10428">
        <ele>683.79998779297</ele>
        <time>2023-08-02T09:02:29.000Z</time>
      </trkpt>
      <trkpt lat="43.78423" lon="7.10428">
        <ele>683.79998779297</ele>
        <time>2023-08-02T09:02:30.000Z</time>
      </trkpt>
      <trkpt lat="43.78423" lon="7.10428">
        <ele>683.79998779297</ele>
        <time>2023-08-02T09:02:31.000Z</time>
      </trkpt>
      <trkpt lat="43.78423" lon="7.10428">
        <ele>683.79998779297</ele>
        <time>2023-08-02T09:02:32.000Z</time>
      </trkpt>
      <trkpt lat="43.78423" lon="7.10428">
        <ele>683.79998779297</ele>
        <time>2023-08-02T09:02:33.000Z</time>
      </trkpt>
      <trkpt lat="43.78423" lon="7.10428">
        <ele>683.79998779297</ele>
        <time>2023-08-02T09:02:34.000Z</time>
      </trkpt>
      <trkpt lat="43.78423" lon="7.10428">
        <ele>683.79998779297</ele>
        <time>2023-08-02T09:02:35.000Z</time>
      </trkpt>
      <trkpt lat="43.78423" lon="7.10428">
        <ele>683.79998779297</ele>
        <time>2023-08-02T09:02:36.000Z</time>
      </trkpt>
      <trkpt lat="43.78423" lon="7.10428">
        <ele>683.79998779297</ele>
        <time>2023-08-02T09:02:37.000Z</time>
      </trkpt>
      <trkpt lat="43.78423" lon="7.10428">
        <ele>683.79998779297</ele>
        <time>2023-08-02T09:02:38.000Z</time>
      </trkpt>
      <trkpt lat="43.78423" lon="7.10428">
        <ele>683.79998779297</ele>
        <time>2023-08-02T09:02:39.000Z</time>
      </trkpt>
      <trkpt lat="43.78423" lon="7.10428">
        <ele>683.79998779297</ele>
        <time>2023-08-02T09:02:40.000Z</time>
      </trkpt>
      <trkpt lat="43.78423" lon="7.10428">
        <ele>683.79998779297</ele>
        <time>2023-08-02T09:02:41.000Z</time>
      </trkpt>
      <trkpt lat="43.78423" lon="7.10428">
        <ele>683.79998779297</ele>
        <time>2023-08-02T09:02:42.000Z</time>
      </trkpt>
      <trkpt lat="43.78423" lon="7.10428">
        <ele>683.79998779297</ele>
        <time>2023-08-02T09:02:43.000Z</time>
      </trkpt>
      <trkpt lat="43.78423" lon="7.10428">
        <ele>683.79998779297</ele>
        <time>2023-08-02T09:02:44.000Z</time>
      </trkpt>
      <trkpt lat="43.78423" lon="7.10428">
        <ele>683.79998779297</ele>
        <time>2023-08-02T09:02:45.000Z</time>
      </trkpt>
      <trkpt lat="43.78423" lon="7.10428">
        <ele>683.79998779297</ele>
        <time>2023-08-02T09:02:46.000Z</time>
      </trkpt>
      <trkpt lat="43.78423" lon="7.10428">
        <ele>683.79998779297</ele>
        <time>2023-08-02T09:02:47.000Z</time>
      </trkpt>
      <trkpt lat="43.78423" lon="7.10428">
        <ele>683.79998779297</ele>
        <time>2023-08-02T09:02:48.000Z</time>
      </trkpt>
      <trkpt lat="43.78423" lon="7.10428">
        <ele>683.79998779297</ele>
        <time>2023-08-02T09:02:49.000Z</time>
      </trkpt>
      <trkpt lat="43.78423" lon="7.10428">
        <ele>683.79998779297</ele>
        <time>2023-08-02T09:02:50.000Z</time>
      </trkpt>
      <trkpt lat="43.78423" lon="7.10428">
        <ele>683.79998779297</ele>
        <time>2023-08-02T09:02:51.000Z</time>
      </trkpt>
      <trkpt lat="43.78423" lon="7.10428">
        <ele>683.79998779297</ele>
        <time>2023-08-02T09:02:52.000Z</time>
      </trkpt>
      <trkpt lat="43.78423" lon="7.10428">
        <ele>683.79998779297</ele>
        <time>2023-08-02T09:02:53.000Z</time>
      </trkpt>
      <trkpt lat="43.78423" lon="7.10428">
        <ele>683.79998779297</ele>
        <time>2023-08-02T09:02:54.000Z</time>
      </trkpt>
      <trkpt lat="43.78423" lon="7.10428">
        <ele>683.79998779297</ele>
        <time>2023-08-02T09:02:55.000Z</time>
      </trkpt>
      <trkpt lat="43.78423" lon="7.10428">
        <ele>683.79998779297</ele>
        <time>2023-08-02T09:02:56.000Z</time>
      </trkpt>
      <trkpt lat="43.78423" lon="7.10428">
        <ele>683.79998779297</ele>
        <time>2023-08-02T09:02:57.000Z</time>
      </trkpt>
      <trkpt lat="43.78423" lon="7.10428">
        <ele>683.79998779297</ele>
        <time>2023-08-02T09:02:58.000Z</time>
      </trkpt>
      <trkpt lat="43.78423" lon="7.10428">
        <ele>683.79998779297</ele>
        <time>2023-08-02T09:02:59.000Z</time>
      </trkpt>
      <trkpt lat="43.78423" lon="7.10428">
        <ele>683.79998779297</ele>
        <time>2023-08-02T09:03:00.000Z</time>
      </trkpt>
      <trkpt lat="43.78423" lon="7.10428">
        <ele>683.79998779297</ele>
        <time>2023-08-02T09:03:01.000Z</time>
      </trkpt>
      <trkpt lat="43.78424" lon="7.10428">
        <ele>683.79998779297</ele>
        <time>2023-08-02T09:03:02.000Z</time>
      </trkpt>
      <trkpt lat="43.78424" lon="7.10428">
        <ele>683.79998779297</ele>
        <time>2023-08-02T09:03:03.000Z</time>
      </trkpt>
      <trkpt lat="43.78424" lon="7.10428">
        <ele>683.79998779297</ele>
        <time>2023-08-02T09:03:04.000Z</time>
      </trkpt>
      <trkpt lat="43.78424" lon="7.10428">
        <ele>683.79998779297</ele>
        <time>2023-08-02T09:03:05.000Z</time>
      </trkpt>
      <trkpt lat="43.78424" lon="7.10428">
        <ele>683.79998779297</ele>
        <time>2023-08-02T09:03:06.000Z</time>
      </trkpt>
      <trkpt lat="43.78424" lon="7.10428">
        <ele>683.79998779297</ele>
        <time>2023-08-02T09:03:07.000Z</time>
      </trkpt>
      <trkpt lat="43.78424" lon="7.10428">
        <ele>683.79998779297</ele>
        <time>2023-08-02T09:03:08.000Z</time>
      </trkpt>
      <trkpt lat="43.78424" lon="7.10428">
        <ele>683.79998779297</ele>
        <time>2023-08-02T09:03:09.000Z</time>
      </trkpt>
      <trkpt lat="43.78424" lon="7.10428">
        <ele>683.79998779297</ele>
        <time>2023-08-02T09:03:10.000Z</time>
      </trkpt>
      <trkpt lat="43.78424" lon="7.10428">
        <ele>683.79998779297</ele>
        <time>2023-08-02T09:03:11.000Z</time>
      </trkpt>
      <trkpt lat="43.78424" lon="7.10428">
        <ele>683.79998779297</ele>
        <time>2023-08-02T09:03:12.000Z</time>
      </trkpt>
      <trkpt lat="43.78426" lon="7.10428">
        <ele>683.79998779297</ele>
        <time>2023-08-02T09:03:13.000Z</time>
      </trkpt>
      <trkpt lat="43.78426" lon="7.10428">
        <ele>683.79998779297</ele>
        <time>2023-08-02T09:03:14.000Z</time>
      </trkpt>
      <trkpt lat="43.78426" lon="7.10428">
        <ele>683.79998779297</ele>
        <time>2023-08-02T09:03:15.000Z</time>
      </trkpt>
      <trkpt lat="43.78426" lon="7.10428">
        <ele>683.79998779297</ele>
        <time>2023-08-02T09:03:16.000Z</time>
      </trkpt>
      <trkpt lat="43.78426" lon="7.10428">
        <ele>683.79998779297</ele>
        <time>2023-08-02T09:03:17.000Z</time>
      </trkpt>
      <trkpt lat="43.78426" lon="7.10428">
        <ele>683.79998779297</ele>
        <time>2023-08-02T09:03:18.000Z</time>
      </trkpt>
      <trkpt lat="43.78426" lon="7.10428">
        <ele>683.79998779297</ele>
        <time>2023-08-02T09:03:19.000Z</time>
      </trkpt>
      <trkpt lat="43.78426" lon="7.10428">
        <ele>683.79998779297</ele>
        <time>2023-08-02T09:03:20.000Z</time>
      </trkpt>
      <trkpt lat="43.78426" lon="7.10428">
        <ele>683.79998779297</ele>
        <time>2023-08-02T09:03:21.000Z</time>
      </trkpt>
      <trkpt lat="43.78426" lon="7.10429">
        <ele>683.79998779297</ele>
        <time>2023-08-02T09:03:22.000Z</time>
      </trkpt>
      <trkpt lat="43.78425" lon="7.10431">
        <ele>683.79998779297</ele>
        <time>2023-08-02T09:03:23.000Z</time>
      </trkpt>
      <trkpt lat="43.78424" lon="7.10433">
        <ele>684</ele>
        <time>2023-08-02T09:03:24.000Z</time>
      </trkpt>
      <trkpt lat="43.78424" lon="7.10436">
        <ele>684</ele>
        <time>2023-08-02T09:03:25.000Z</time>
      </trkpt>
      <trkpt lat="43.78423" lon="7.10439">
        <ele>684</ele>
        <time>2023-08-02T09:03:26.000Z</time>
      </trkpt>
      <trkpt lat="43.78421" lon="7.10443">
        <ele>683.79998779297</ele>
        <time>2023-08-02T09:03:27.000Z</time>
      </trkpt>
      <trkpt lat="43.78421" lon="7.10446">
        <ele>683.79998779297</ele>
        <time>2023-08-02T09:03:28.000Z</time>
      </trkpt>
      <trkpt lat="43.78421" lon="7.10449">
        <ele>683.59997558594</ele>
        <time>2023-08-02T09:03:29.000Z</time>
      </trkpt>
      <trkpt lat="43.7842" lon="7.10451">
        <ele>683.20001220703</ele>
        <time>2023-08-02T09:03:30.000Z</time>
      </trkpt>
      <trkpt lat="43.78419" lon="7.10453">
        <ele>683</ele>
        <time>2023-08-02T09:03:31.000Z</time>
      </trkpt>
      <trkpt lat="43.78419" lon="7.10455">
        <ele>683</ele>
        <time>2023-08-02T09:03:32.000Z</time>
      </trkpt>
      <trkpt lat="43.78418" lon="7.10458">
        <ele>683</ele>
        <time>2023-08-02T09:03:33.000Z</time>
      </trkpt>
      <trkpt lat="43.78417" lon="7.10462">
        <ele>682.59997558594</ele>
        <time>2023-08-02T09:03:34.000Z</time>
      </trkpt>
      <trkpt lat="43.78415" lon="7.10465">
        <ele>682.40002441406</ele>
        <time>2023-08-02T09:03:35.000Z</time>
      </trkpt>
      <trkpt lat="43.78415" lon="7.10468">
        <ele>682.20001220703</ele>
        <time>2023-08-02T09:03:36.000Z</time>
      </trkpt>
      <trkpt lat="43.78414" lon="7.10472">
        <ele>682.20001220703</ele>
        <time>2023-08-02T09:03:37.000Z</time>
      </trkpt>
      <trkpt lat="43.78414" lon="7.10475">
        <ele>682.20001220703</ele>
        <time>2023-08-02T09:03:38.000Z</time>
      </trkpt>
      <trkpt lat="43.78414" lon="7.10477">
        <ele>682.20001220703</ele>
        <time>2023-08-02T09:03:39.000Z</time>
      </trkpt>
      <trkpt lat="43.78415" lon="7.10479">
        <ele>682.20001220703</ele>
        <time>2023-08-02T09:03:40.000Z</time>
      </trkpt>
      <trkpt lat="43.78415" lon="7.10482">
        <ele>682.59997558594</ele>
        <time>2023-08-02T09:03:41.000Z</time>
      </trkpt>
      <trkpt lat="43.78415" lon="7.10485">
        <ele>682.79998779297</ele>
        <time>2023-08-02T09:03:42.000Z</time>
      </trkpt>
      <trkpt lat="43.78416" lon="7.10486">
        <ele>683</ele>
        <time>2023-08-02T09:03:43.000Z</time>
      </trkpt>
      <trkpt lat="43.78416" lon="7.10485">
        <ele>683</ele>
        <time>2023-08-02T09:03:44.000Z</time>
      </trkpt>
      <trkpt lat="43.78416" lon="7.10486">
        <ele>683.20001220703</ele>
        <time>2023-08-02T09:03:45.000Z</time>
      </trkpt>
      <trkpt lat="43.78416" lon="7.10486">
        <ele>683.20001220703</ele>
        <time>2023-08-02T09:03:46.000Z</time>
      </trkpt>
      <trkpt lat="43.78416" lon="7.10486">
        <ele>683.59997558594</ele>
        <time>2023-08-02T09:03:47.000Z</time>
      </trkpt>
      <trkpt lat="43.78416" lon="7.10486">
        <ele>683.59997558594</ele>
        <time>2023-08-02T09:03:48.000Z</time>
      </trkpt>
      <trkpt lat="43.78416" lon="7.10487">
        <ele>683.59997558594</ele>
        <time>2023-08-02T09:03:49.000Z</time>
      </trkpt>
      <trkpt lat="43.78416" lon="7.10487">
        <ele>683.59997558594</ele>
        <time>2023-08-02T09:03:50.000Z</time>
      </trkpt>
      <trkpt lat="43.78416" lon="7.10486">
        <ele>683.59997558594</ele>
        <time>2023-08-02T09:03:51.000Z</time>
      </trkpt>
      <trkpt lat="43.78416" lon="7.10486">
        <ele>683.59997558594</ele>
        <time>2023-08-02T09:03:52.000Z</time>
      </trkpt>
      <trkpt lat="43.78416" lon="7.10487">
        <ele>683.59997558594</ele>
        <time>2023-08-02T09:03:53.000Z</time>
      </trkpt>
      <trkpt lat="43.78416" lon="7.10487">
        <ele>683.40002441406</ele>
        <time>2023-08-02T09:03:54.000Z</time>
      </trkpt>
      <trkpt lat="43.78416" lon="7.10489">
        <ele>683.20001220703</ele>
        <time>2023-08-02T09:03:55.000Z</time>
      </trkpt>
      <trkpt lat="43.78416" lon="7.10491">
        <ele>683</ele>
        <time>2023-08-02T09:03:56.000Z</time>
      </trkpt>
      <trkpt lat="43.78416" lon="7.10493">
        <ele>683</ele>
        <time>2023-08-02T09:03:57.000Z</time>
      </trkpt>
      <trkpt lat="43.78415" lon="7.10494">
        <ele>682.79998779297</ele>
        <time>2023-08-02T09:03:58.000Z</time>
      </trkpt>
      <trkpt lat="43.78416" lon="7.10495">
        <ele>682.59997558594</ele>
        <time>2023-08-02T09:03:59.000Z</time>
      </trkpt>
      <trkpt lat="43.78415" lon="7.10495">
        <ele>682.59997558594</ele>
        <time>2023-08-02T09:04:00.000Z</time>
      </trkpt>
      <trkpt lat="43.78415" lon="7.10495">
        <ele>682.59997558594</ele>
        <time>2023-08-02T09:04:01.000Z</time>
      </trkpt>
      <trkpt lat="43.78415" lon="7.10495">
        <ele>682.59997558594</ele>
        <time>2023-08-02T09:04:02.000Z</time>
      </trkpt>
      <trkpt lat="43.78416" lon="7.10495">
        <ele>682.59997558594</ele>
        <time>2023-08-02T09:04:03.000Z</time>
      </trkpt>
      <trkpt lat="43.78416" lon="7.10495">
        <ele>682.59997558594</ele>
        <time>2023-08-02T09:04:04.000Z</time>
      </trkpt>
      <trkpt lat="43.78415" lon="7.10495">
        <ele>682.59997558594</ele>
        <time>2023-08-02T09:04:05.000Z</time>
      </trkpt>
      <trkpt lat="43.78415" lon="7.10495">
        <ele>682.79998779297</ele>
        <time>2023-08-02T09:04:06.000Z</time>
      </trkpt>
      <trkpt lat="43.78415" lon="7.10495">
        <ele>682.79998779297</ele>
        <time>2023-08-02T09:04:07.000Z</time>
      </trkpt>
      <trkpt lat="43.78415" lon="7.10495">
        <ele>682.79998779297</ele>
        <time>2023-08-02T09:04:08.000Z</time>
      </trkpt>
      <trkpt lat="43.78415" lon="7.10495">
        <ele>682.79998779297</ele>
        <time>2023-08-02T09:04:09.000Z</time>
      </trkpt>
      <trkpt lat="43.78415" lon="7.10495">
        <ele>682.79998779297</ele>
        <time>2023-08-02T09:04:10.000Z</time>
      </trkpt>
      <trkpt lat="43.78415" lon="7.10495">
        <ele>682.79998779297</ele>
        <time>2023-08-02T09:04:11.000Z</time>
      </trkpt>
      <trkpt lat="43.78415" lon="7.10495">
        <ele>682.79998779297</ele>
        <time>2023-08-02T09:04:12.000Z</time>
      </trkpt>
      <trkpt lat="43.78415" lon="7.10495">
        <ele>682.79998779297</ele>
        <time>2023-08-02T09:04:13.000Z</time>
      </trkpt>
      <trkpt lat="43.78415" lon="7.10495">
        <ele>682.79998779297</ele>
        <time>2023-08-02T09:04:14.000Z</time>
      </trkpt>
      <trkpt lat="43.78415" lon="7.10495">
        <ele>682.79998779297</ele>
        <time>2023-08-02T09:04:15.000Z</time>
      </trkpt>
      <trkpt lat="43.78415" lon="7.10495">
        <ele>682.79998779297</ele>
        <time>2023-08-02T09:04:16.000Z</time>
      </trkpt>
      <trkpt lat="43.78415" lon="7.10495">
        <ele>682.79998779297</ele>
        <time>2023-08-02T09:04:17.000Z</time>
      </trkpt>
      <trkpt lat="43.78415" lon="7.10495">
        <ele>682.79998779297</ele>
        <time>2023-08-02T09:04:18.000Z</time>
      </trkpt>
      <trkpt lat="43.78415" lon="7.10495">
        <ele>682.79998779297</ele>
        <time>2023-08-02T09:04:19.000Z</time>
      </trkpt>
      <trkpt lat="43.78415" lon="7.10495">
        <ele>682.79998779297</ele>
        <time>2023-08-02T09:04:20.000Z</time>
      </trkpt>
      <trkpt lat="43.78415" lon="7.10495">
        <ele>682.59997558594</ele>
        <time>2023-08-02T09:04:21.000Z</time>
      </trkpt>
      <trkpt lat="43.78415" lon="7.10495">
        <ele>682.59997558594</ele>
        <time>2023-08-02T09:04:22.000Z</time>
      </trkpt>
      <trkpt lat="43.78415" lon="7.10495">
        <ele>682.59997558594</ele>
        <time>2023-08-02T09:04:23.000Z</time>
      </trkpt>
      <trkpt lat="43.78416" lon="7.10495">
        <ele>682.59997558594</ele>
        <time>2023-08-02T09:04:24.000Z</time>
      </trkpt>
      <trkpt lat="43.78416" lon="7.10496">
        <ele>682.59997558594</ele>
        <time>2023-08-02T09:04:25.000Z</time>
      </trkpt>
      <trkpt lat="43.78416" lon="7.10495">
        <ele>682.59997558594</ele>
        <time>2023-08-02T09:04:26.000Z</time>
      </trkpt>
      <trkpt lat="43.78416" lon="7.10495">
        <ele>682.59997558594</ele>
        <time>2023-08-02T09:04:27.000Z</time>
      </trkpt>
      <trkpt lat="43.78416" lon="7.10495">
        <ele>682.59997558594</ele>
        <time>2023-08-02T09:04:28.000Z</time>
      </trkpt>
      <trkpt lat="43.78416" lon="7.10495">
        <ele>682.59997558594</ele>
        <time>2023-08-02T09:04:29.000Z</time>
      </trkpt>
      <trkpt lat="43.78416" lon="7.10495">
        <ele>682.40002441406</ele>
        <time>2023-08-02T09:04:30.000Z</time>
      </trkpt>
      <trkpt lat="43.78416" lon="7.10495">
        <ele>682.40002441406</ele>
        <time>2023-08-02T09:04:31.000Z</time>
      </trkpt>
      <trkpt lat="43.78416" lon="7.10495">
        <ele>682.40002441406</ele>
        <time>2023-08-02T09:04:32.000Z</time>
      </trkpt>
      <trkpt lat="43.78416" lon="7.10495">
        <ele>682.40002441406</ele>
        <time>2023-08-02T09:04:33.000Z</time>
      </trkpt>
      <trkpt lat="43.78416" lon="7.10495">
        <ele>682.40002441406</ele>
        <time>2023-08-02T09:04:34.000Z</time>
      </trkpt>
      <trkpt lat="43.78416" lon="7.10495">
        <ele>682.40002441406</ele>
        <time>2023-08-02T09:04:35.000Z</time>
      </trkpt>
      <trkpt lat="43.78416" lon="7.10495">
        <ele>682.40002441406</ele>
        <time>2023-08-02T09:04:36.000Z</time>
      </trkpt>
      <trkpt lat="43.78416" lon="7.10495">
        <ele>682.40002441406</ele>
        <time>2023-08-02T09:04:37.000Z</time>
      </trkpt>
      <trkpt lat="43.78416" lon="7.10495">
        <ele>682.40002441406</ele>
        <time>2023-08-02T09:04:38.000Z</time>
      </trkpt>
      <trkpt lat="43.78416" lon="7.10495">
        <ele>682.20001220703</ele>
        <time>2023-08-02T09:04:39.000Z</time>
      </trkpt>
      <trkpt lat="43.78416" lon="7.10495">
        <ele>682.20001220703</ele>
        <time>2023-08-02T09:04:40.000Z</time>
      </trkpt>
      <trkpt lat="43.78416" lon="7.10495">
        <ele>682.20001220703</ele>
        <time>2023-08-02T09:04:41.000Z</time>
      </trkpt>
      <trkpt lat="43.78416" lon="7.10495">
        <ele>682.20001220703</ele>
        <time>2023-08-02T09:04:42.000Z</time>
      </trkpt>
      <trkpt lat="43.78418" lon="7.10495">
        <ele>682.20001220703</ele>
        <time>2023-08-02T09:04:43.000Z</time>
      </trkpt>
      <trkpt lat="43.78418" lon="7.10495">
        <ele>682.20001220703</ele>
        <time>2023-08-02T09:04:44.000Z</time>
      </trkpt>
      <trkpt lat="43.78418" lon="7.10495">
        <ele>682.20001220703</ele>
        <time>2023-08-02T09:04:45.000Z</time>
      </trkpt>
      <trkpt lat="43.78418" lon="7.10495">
        <ele>682.20001220703</ele>
        <time>2023-08-02T09:04:46.000Z</time>
      </trkpt>
      <trkpt lat="43.78418" lon="7.10495">
        <ele>682.20001220703</ele>
        <time>2023-08-02T09:04:47.000Z</time>
      </trkpt>
      <trkpt lat="43.78418" lon="7.10495">
        <ele>682.20001220703</ele>
        <time>2023-08-02T09:04:48.000Z</time>
      </trkpt>
      <trkpt lat="43.78418" lon="7.10495">
        <ele>682.20001220703</ele>
        <time>2023-08-02T09:04:49.000Z</time>
      </trkpt>
      <trkpt lat="43.78418" lon="7.10495">
        <ele>682.20001220703</ele>
        <time>2023-08-02T09:04:50.000Z</time>
      </trkpt>
      <trkpt lat="43.78418" lon="7.10495">
        <ele>682.20001220703</ele>
        <time>2023-08-02T09:04:51.000Z</time>
      </trkpt>
      <trkpt lat="43.78418" lon="7.10495">
        <ele>682.20001220703</ele>
        <time>2023-08-02T09:04:52.000Z</time>
      </trkpt>
      <trkpt lat="43.78418" lon="7.10495">
        <ele>682.20001220703</ele>
        <time>2023-08-02T09:04:53.000Z</time>
      </trkpt>
      <trkpt lat="43.78418" lon="7.10495">
        <ele>682.20001220703</ele>
        <time>2023-08-02T09:04:54.000Z</time>
      </trkpt>
      <trkpt lat="43.78418" lon="7.10495">
        <ele>682.20001220703</ele>
        <time>2023-08-02T09:04:55.000Z</time>
      </trkpt>
      <trkpt lat="43.78418" lon="7.10495">
        <ele>682.20001220703</ele>
        <time>2023-08-02T09:04:56.000Z</time>
      </trkpt>
      <trkpt lat="43.78418" lon="7.10495">
        <ele>682.20001220703</ele>
        <time>2023-08-02T09:04:57.000Z</time>
      </trkpt>
      <trkpt lat="43.78418" lon="7.10495">
        <ele>682.20001220703</ele>
        <time>2023-08-02T09:04:58.000Z</time>
      </trkpt>
      <trkpt lat="43.78418" lon="7.10495">
        <ele>682.20001220703</ele>
        <time>2023-08-02T09:04:59.000Z</time>
      </trkpt>
      <trkpt lat="43.78418" lon="7.10495">
        <ele>682.20001220703</ele>
        <time>2023-08-02T09:05:00.000Z</time>
      </trkpt>
      <trkpt lat="43.78418" lon="7.10495">
        <ele>682.20001220703</ele>
        <time>2023-08-02T09:05:01.000Z</time>
      </trkpt>
      <trkpt lat="43.78418" lon="7.10495">
        <ele>682.20001220703</ele>
        <time>2023-08-02T09:05:02.000Z</time>
      </trkpt>
      <trkpt lat="43.78417" lon="7.10495">
        <ele>682.20001220703</ele>
        <time>2023-08-02T09:05:03.000Z</time>
      </trkpt>
      <trkpt lat="43.78418" lon="7.10495">
        <ele>682.20001220703</ele>
        <time>2023-08-02T09:05:04.000Z</time>
      </trkpt>
      <trkpt lat="43.78417" lon="7.10495">
        <ele>682.20001220703</ele>
        <time>2023-08-02T09:05:05.000Z</time>
      </trkpt>
      <trkpt lat="43.78418" lon="7.10495">
        <ele>682.20001220703</ele>
        <time>2023-08-02T09:05:06.000Z</time>
      </trkpt>
      <trkpt lat="43.78417" lon="7.10495">
        <ele>682.20001220703</ele>
        <time>2023-08-02T09:05:07.000Z</time>
      </trkpt>
      <trkpt lat="43.78417" lon="7.10495">
        <ele>682.20001220703</ele>
        <time>2023-08-02T09:05:08.000Z</time>
      </trkpt>
      <trkpt lat="43.78417" lon="7.10495">
        <ele>682.20001220703</ele>
        <time>2023-08-02T09:05:09.000Z</time>
      </trkpt>
      <trkpt lat="43.78417" lon="7.10495">
        <ele>682.20001220703</ele>
        <time>2023-08-02T09:05:10.000Z</time>
      </trkpt>
      <trkpt lat="43.78417" lon="7.10495">
        <ele>682.40002441406</ele>
        <time>2023-08-02T09:05:11.000Z</time>
      </trkpt>
      <trkpt lat="43.78416" lon="7.10495">
        <ele>682.40002441406</ele>
        <time>2023-08-02T09:05:12.000Z</time>
      </trkpt>
      <trkpt lat="43.78416" lon="7.10495">
        <ele>682.59997558594</ele>
        <time>2023-08-02T09:05:13.000Z</time>
      </trkpt>
      <trkpt lat="43.78416" lon="7.10495">
        <ele>682.59997558594</ele>
        <time>2023-08-02T09:05:14.000Z</time>
      </trkpt>
      <trkpt lat="43.78415" lon="7.10496">
        <ele>682.59997558594</ele>
        <time>2023-08-02T09:05:15.000Z</time>
      </trkpt>
      <trkpt lat="43.78415" lon="7.10496">
        <ele>682.59997558594</ele>
        <time>2023-08-02T09:05:16.000Z</time>
      </trkpt>
      <trkpt lat="43.78415" lon="7.10497">
        <ele>682.79998779297</ele>
        <time>2023-08-02T09:05:17.000Z</time>
      </trkpt>
      <trkpt lat="43.78414" lon="7.10497">
        <ele>682.79998779297</ele>
        <time>2023-08-02T09:05:18.000Z</time>
      </trkpt>
      <trkpt lat="43.78414" lon="7.10497">
        <ele>682.79998779297</ele>
        <time>2023-08-02T09:05:19.000Z</time>
      </trkpt>
      <trkpt lat="43.78414" lon="7.10499">
        <ele>682.79998779297</ele>
        <time>2023-08-02T09:05:20.000Z</time>
      </trkpt>
      <trkpt lat="43.78414" lon="7.10502">
        <ele>682.79998779297</ele>
        <time>2023-08-02T09:05:21.000Z</time>
      </trkpt>
      <trkpt lat="43.78413" lon="7.10505">
        <ele>682.59997558594</ele>
        <time>2023-08-02T09:05:22.000Z</time>
      </trkpt>
      <trkpt lat="43.78413" lon="7.10508">
        <ele>682.59997558594</ele>
        <time>2023-08-02T09:05:23.000Z</time>
      </trkpt>
      <trkpt lat="43.78413" lon="7.10512">
        <ele>682.59997558594</ele>
        <time>2023-08-02T09:05:24.000Z</time>
      </trkpt>
      <trkpt lat="43.78413" lon="7.10515">
        <ele>682.59997558594</ele>
        <time>2023-08-02T09:05:25.000Z</time>
      </trkpt>
      <trkpt lat="43.78412" lon="7.10517">
        <ele>682.59997558594</ele>
        <time>2023-08-02T09:05:26.000Z</time>
      </trkpt>
      <trkpt lat="43.78411" lon="7.1052">
        <ele>682.59997558594</ele>
        <time>2023-08-02T09:05:27.000Z</time>
      </trkpt>
      <trkpt lat="43.7841" lon="7.10522">
        <ele>682.79998779297</ele>
        <time>2023-08-02T09:05:28.000Z</time>
      </trkpt>
      <trkpt lat="43.78408" lon="7.10526">
        <ele>683</ele>
        <time>2023-08-02T09:05:29.000Z</time>
      </trkpt>
      <trkpt lat="43.78407" lon="7.10529">
        <ele>683</ele>
        <time>2023-08-02T09:05:30.000Z</time>
      </trkpt>
      <trkpt lat="43.78406" lon="7.10531">
        <ele>683</ele>
        <time>2023-08-02T09:05:31.000Z</time>
      </trkpt>
      <trkpt lat="43.78406" lon="7.10532">
        <ele>683</ele>
        <time>2023-08-02T09:05:32.000Z</time>
      </trkpt>
      <trkpt lat="43.78406" lon="7.10532">
        <ele>683</ele>
        <time>2023-08-02T09:05:33.000Z</time>
      </trkpt>
      <trkpt lat="43.78406" lon="7.10532">
        <ele>683</ele>
        <time>2023-08-02T09:05:34.000Z</time>
      </trkpt>
      <trkpt lat="43.78406" lon="7.10532">
        <ele>683</ele>
        <time>2023-08-02T09:05:35.000Z</time>
      </trkpt>
      <trkpt lat="43.78406" lon="7.10532">
        <ele>683</ele>
        <time>2023-08-02T09:05:36.000Z</time>
      </trkpt>
      <trkpt lat="43.78406" lon="7.10532">
        <ele>682.79998779297</ele>
        <time>2023-08-02T09:05:37.000Z</time>
      </trkpt>
      <trkpt lat="43.78406" lon="7.10532">
        <ele>682.79998779297</ele>
        <time>2023-08-02T09:05:38.000Z</time>
      </trkpt>
      <trkpt lat="43.78406" lon="7.10532">
        <ele>682.79998779297</ele>
        <time>2023-08-02T09:05:39.000Z</time>
      </trkpt>
      <trkpt lat="43.78406" lon="7.10532">
        <ele>682.79998779297</ele>
        <time>2023-08-02T09:05:40.000Z</time>
      </trkpt>
      <trkpt lat="43.78406" lon="7.10532">
        <ele>682.79998779297</ele>
        <time>2023-08-02T09:05:41.000Z</time>
      </trkpt>
      <trkpt lat="43.78406" lon="7.10532">
        <ele>682.79998779297</ele>
        <time>2023-08-02T09:05:42.000Z</time>
      </trkpt>
      <trkpt lat="43.78406" lon="7.10532">
        <ele>682.79998779297</ele>
        <time>2023-08-02T09:05:43.000Z</time>
      </trkpt>
      <trkpt lat="43.78406" lon="7.10532">
        <ele>682.79998779297</ele>
        <time>2023-08-02T09:05:44.000Z</time>
      </trkpt>
      <trkpt lat="43.78406" lon="7.10532">
        <ele>682.79998779297</ele>
        <time>2023-08-02T09:05:45.000Z</time>
      </trkpt>
      <trkpt lat="43.78406" lon="7.10532">
        <ele>682.79998779297</ele>
        <time>2023-08-02T09:05:46.000Z</time>
      </trkpt>
      <trkpt lat="43.78406" lon="7.10532">
        <ele>682.79998779297</ele>
        <time>2023-08-02T09:05:47.000Z</time>
      </trkpt>
      <trkpt lat="43.78406" lon="7.10532">
        <ele>682.79998779297</ele>
        <time>2023-08-02T09:05:48.000Z</time>
      </trkpt>
      <trkpt lat="43.78406" lon="7.10532">
        <ele>682.79998779297</ele>
        <time>2023-08-02T09:05:49.000Z</time>
      </trkpt>
      <trkpt lat="43.78406" lon="7.10532">
        <ele>682.79998779297</ele>
        <time>2023-08-02T09:05:50.000Z</time>
      </trkpt>
      <trkpt lat="43.78406" lon="7.10532">
        <ele>682.79998779297</ele>
        <time>2023-08-02T09:05:51.000Z</time>
      </trkpt>
      <trkpt lat="43.78406" lon="7.10532">
        <ele>682.79998779297</ele>
        <time>2023-08-02T09:05:52.000Z</time>
      </trkpt>
      <trkpt lat="43.78406" lon="7.10532">
        <ele>682.79998779297</ele>
        <time>2023-08-02T09:05:53.000Z</time>
      </trkpt>
      <trkpt lat="43.78406" lon="7.10532">
        <ele>682.79998779297</ele>
        <time>2023-08-02T09:05:54.000Z</time>
      </trkpt>
      <trkpt lat="43.78406" lon="7.10533">
        <ele>682.79998779297</ele>
        <time>2023-08-02T09:05:55.000Z</time>
      </trkpt>
      <trkpt lat="43.78405" lon="7.10534">
        <ele>682.79998779297</ele>
        <time>2023-08-02T09:05:56.000Z</time>
      </trkpt>
      <trkpt lat="43.78404" lon="7.10535">
        <ele>682.59997558594</ele>
        <time>2023-08-02T09:05:57.000Z</time>
      </trkpt>
      <trkpt lat="43.78403" lon="7.10536">
        <ele>682.59997558594</ele>
        <time>2023-08-02T09:05:58.000Z</time>
      </trkpt>
      <trkpt lat="43.78402" lon="7.10537">
        <ele>682.59997558594</ele>
        <time>2023-08-02T09:05:59.000Z</time>
      </trkpt>
      <trkpt lat="43.784" lon="7.10539">
        <ele>682.59997558594</ele>
        <time>2023-08-02T09:06:00.000Z</time>
      </trkpt>
      <trkpt lat="43.78399" lon="7.10539">
        <ele>682.40002441406</ele>
        <time>2023-08-02T09:06:01.000Z</time>
      </trkpt>
      <trkpt lat="43.78398" lon="7.10541">
        <ele>682.20001220703</ele>
        <time>2023-08-02T09:06:02.000Z</time>
      </trkpt>
      <trkpt lat="43.78398" lon="7.10543">
        <ele>681.79998779297</ele>
        <time>2023-08-02T09:06:03.000Z</time>
      </trkpt>
      <trkpt lat="43.78397" lon="7.10546">
        <ele>681.20001220703</ele>
        <time>2023-08-02T09:06:04.000Z</time>
      </trkpt>
      <trkpt lat="43.78397" lon="7.10548">
        <ele>681</ele>
        <time>2023-08-02T09:06:05.000Z</time>
      </trkpt>
      <trkpt lat="43.78396" lon="7.1055">
        <ele>680.79998779297</ele>
        <time>2023-08-02T09:06:06.000Z</time>
      </trkpt>
      <trkpt lat="43.78394" lon="7.10552">
        <ele>680.59997558594</ele>
        <time>2023-08-02T09:06:07.000Z</time>
      </trkpt>
      <trkpt lat="43.78393" lon="7.10555">
        <ele>680.40002441406</ele>
        <time>2023-08-02T09:06:08.000Z</time>
      </trkpt>
      <trkpt lat="43.78393" lon="7.10558">
        <ele>680.20001220703</ele>
        <time>2023-08-02T09:06:09.000Z</time>
      </trkpt>
      <trkpt lat="43.78393" lon="7.10561">
        <ele>679.79998779297</ele>
        <time>2023-08-02T09:06:10.000Z</time>
      </trkpt>
      <trkpt lat="43.78393" lon="7.10564">
        <ele>679.59997558594</ele>
        <time>2023-08-02T09:06:11.000Z</time>
      </trkpt>
      <trkpt lat="43.78393" lon="7.10567">
        <ele>679.59997558594</ele>
        <time>2023-08-02T09:06:12.000Z</time>
      </trkpt>
      <trkpt lat="43.78394" lon="7.1057">
        <ele>679.40002441406</ele>
        <time>2023-08-02T09:06:13.000Z</time>
      </trkpt>
      <trkpt lat="43.78395" lon="7.10574">
        <ele>679.20001220703</ele>
        <time>2023-08-02T09:06:14.000Z</time>
      </trkpt>
      <trkpt lat="43.78395" lon="7.10576">
        <ele>679.20001220703</ele>
        <time>2023-08-02T09:06:15.000Z</time>
      </trkpt>
      <trkpt lat="43.78395" lon="7.10578">
        <ele>679.20001220703</ele>
        <time>2023-08-02T09:06:16.000Z</time>
      </trkpt>
      <trkpt lat="43.78396" lon="7.10582">
        <ele>679.20001220703</ele>
        <time>2023-08-02T09:06:17.000Z</time>
      </trkpt>
      <trkpt lat="43.78397" lon="7.10586">
        <ele>679</ele>
        <time>2023-08-02T09:06:18.000Z</time>
      </trkpt>
      <trkpt lat="43.78398" lon="7.10589">
        <ele>679</ele>
        <time>2023-08-02T09:06:19.000Z</time>
      </trkpt>
      <trkpt lat="43.78399" lon="7.10593">
        <ele>678.79998779297</ele>
        <time>2023-08-02T09:06:20.000Z</time>
      </trkpt>
      <trkpt lat="43.78401" lon="7.10596">
        <ele>678.59997558594</ele>
        <time>2023-08-02T09:06:21.000Z</time>
      </trkpt>
      <trkpt lat="43.78403" lon="7.10599">
        <ele>678.40002441406</ele>
        <time>2023-08-02T09:06:22.000Z</time>
      </trkpt>
      <trkpt lat="43.78405" lon="7.10602">
        <ele>678.40002441406</ele>
        <time>2023-08-02T09:06:23.000Z</time>
      </trkpt>
      <trkpt lat="43.78406" lon="7.10604">
        <ele>678.40002441406</ele>
        <time>2023-08-02T09:06:24.000Z</time>
      </trkpt>
      <trkpt lat="43.78407" lon="7.10606">
        <ele>678.40002441406</ele>
        <time>2023-08-02T09:06:25.000Z</time>
      </trkpt>
      <trkpt lat="43.78407" lon="7.10605">
        <ele>678.40002441406</ele>
        <time>2023-08-02T09:06:26.000Z</time>
      </trkpt>
      <trkpt lat="43.78408" lon="7.10605">
        <ele>678.40002441406</ele>
        <time>2023-08-02T09:06:27.000Z</time>
      </trkpt>
      <trkpt lat="43.78408" lon="7.10605">
        <ele>678.40002441406</ele>
        <time>2023-08-02T09:06:28.000Z</time>
      </trkpt>
      <trkpt lat="43.78408" lon="7.10605">
        <ele>678.40002441406</ele>
        <time>2023-08-02T09:06:29.000Z</time>
      </trkpt>
      <trkpt lat="43.78408" lon="7.10605">
        <ele>678.40002441406</ele>
        <time>2023-08-02T09:06:30.000Z</time>
      </trkpt>
      <trkpt lat="43.78408" lon="7.10605">
        <ele>678.40002441406</ele>
        <time>2023-08-02T09:06:31.000Z</time>
      </trkpt>
      <trkpt lat="43.78408" lon="7.10605">
        <ele>678.40002441406</ele>
        <time>2023-08-02T09:06:32.000Z</time>
      </trkpt>
      <trkpt lat="43.78408" lon="7.10605">
        <ele>678.40002441406</ele>
        <time>2023-08-02T09:06:33.000Z</time>
      </trkpt>
      <trkpt lat="43.78408" lon="7.10605">
        <ele>678.40002441406</ele>
        <time>2023-08-02T09:06:34.000Z</time>
      </trkpt>
      <trkpt lat="43.78408" lon="7.10605">
        <ele>678.40002441406</ele>
        <time>2023-08-02T09:06:35.000Z</time>
      </trkpt>
      <trkpt lat="43.78408" lon="7.10605">
        <ele>678.40002441406</ele>
        <time>2023-08-02T09:06:36.000Z</time>
      </trkpt>
      <trkpt lat="43.78408" lon="7.10605">
        <ele>678.40002441406</ele>
        <time>2023-08-02T09:06:37.000Z</time>
      </trkpt>
      <trkpt lat="43.78408" lon="7.10605">
        <ele>678.40002441406</ele>
        <time>2023-08-02T09:06:38.000Z</time>
      </trkpt>
      <trkpt lat="43.78408" lon="7.10605">
        <ele>678.40002441406</ele>
        <time>2023-08-02T09:06:39.000Z</time>
      </trkpt>
      <trkpt lat="43.78408" lon="7.10605">
        <ele>678.40002441406</ele>
        <time>2023-08-02T09:06:40.000Z</time>
      </trkpt>
      <trkpt lat="43.78408" lon="7.10605">
        <ele>678.20001220703</ele>
        <time>2023-08-02T09:06:41.000Z</time>
      </trkpt>
      <trkpt lat="43.78408" lon="7.10605">
        <ele>678.20001220703</ele>
        <time>2023-08-02T09:06:42.000Z</time>
      </trkpt>
      <trkpt lat="43.78408" lon="7.10605">
        <ele>678.20001220703</ele>
        <time>2023-08-02T09:06:43.000Z</time>
      </trkpt>
      <trkpt lat="43.78408" lon="7.10605">
        <ele>678.40002441406</ele>
        <time>2023-08-02T09:06:44.000Z</time>
      </trkpt>
      <trkpt lat="43.78408" lon="7.10605">
        <ele>678.40002441406</ele>
        <time>2023-08-02T09:06:45.000Z</time>
      </trkpt>
      <trkpt lat="43.78408" lon="7.10605">
        <ele>678.40002441406</ele>
        <time>2023-08-02T09:06:46.000Z</time>
      </trkpt>
      <trkpt lat="43.78408" lon="7.10605">
        <ele>678.40002441406</ele>
        <time>2023-08-02T09:06:47.000Z</time>
      </trkpt>
      <trkpt lat="43.78408" lon="7.10605">
        <ele>678.40002441406</ele>
        <time>2023-08-02T09:06:48.000Z</time>
      </trkpt>
      <trkpt lat="43.78408" lon="7.10605">
        <ele>678.40002441406</ele>
        <time>2023-08-02T09:06:49.000Z</time>
      </trkpt>
      <trkpt lat="43.78408" lon="7.10605">
        <ele>678.40002441406</ele>
        <time>2023-08-02T09:06:50.000Z</time>
      </trkpt>
      <trkpt lat="43.78408" lon="7.10605">
        <ele>678.40002441406</ele>
        <time>2023-08-02T09:06:51.000Z</time>
      </trkpt>
      <trkpt lat="43.78408" lon="7.10605">
        <ele>678.40002441406</ele>
        <time>2023-08-02T09:06:52.000Z</time>
      </trkpt>
      <trkpt lat="43.78408" lon="7.10605">
        <ele>678.20001220703</ele>
        <time>2023-08-02T09:06:53.000Z</time>
      </trkpt>
      <trkpt lat="43.78408" lon="7.10605">
        <ele>678.20001220703</ele>
        <time>2023-08-02T09:06:54.000Z</time>
      </trkpt>
      <trkpt lat="43.78408" lon="7.10605">
        <ele>678.20001220703</ele>
        <time>2023-08-02T09:06:55.000Z</time>
      </trkpt>
      <trkpt lat="43.78408" lon="7.10605">
        <ele>678.20001220703</ele>
        <time>2023-08-02T09:06:56.000Z</time>
      </trkpt>
      <trkpt lat="43.78408" lon="7.10605">
        <ele>678.40002441406</ele>
        <time>2023-08-02T09:06:57.000Z</time>
      </trkpt>
      <trkpt lat="43.78408" lon="7.10605">
        <ele>678.79998779297</ele>
        <time>2023-08-02T09:06:58.000Z</time>
      </trkpt>
      <trkpt lat="43.78408" lon="7.10605">
        <ele>678.79998779297</ele>
        <time>2023-08-02T09:06:59.000Z</time>
      </trkpt>
      <trkpt lat="43.78408" lon="7.10605">
        <ele>678.79998779297</ele>
        <time>2023-08-02T09:07:00.000Z</time>
      </trkpt>
      <trkpt lat="43.78408" lon="7.10605">
        <ele>678.79998779297</ele>
        <time>2023-08-02T09:07:01.000Z</time>
      </trkpt>
      <trkpt lat="43.78408" lon="7.10605">
        <ele>678.40002441406</ele>
        <time>2023-08-02T09:07:02.000Z</time>
      </trkpt>
      <trkpt lat="43.78408" lon="7.10605">
        <ele>678</ele>
        <time>2023-08-02T09:07:03.000Z</time>
      </trkpt>
      <trkpt lat="43.78408" lon="7.10605">
        <ele>677.79998779297</ele>
        <time>2023-08-02T09:07:04.000Z</time>
      </trkpt>
      <trkpt lat="43.78408" lon="7.10605">
        <ele>677.79998779297</ele>
        <time>2023-08-02T09:07:05.000Z</time>
      </trkpt>
      <trkpt lat="43.78408" lon="7.10605">
        <ele>678</ele>
        <time>2023-08-02T09:07:06.000Z</time>
      </trkpt>
      <trkpt lat="43.78408" lon="7.10605">
        <ele>678</ele>
        <time>2023-08-02T09:07:07.000Z</time>
      </trkpt>
      <trkpt lat="43.78408" lon="7.10605">
        <ele>678</ele>
        <time>2023-08-02T09:07:08.000Z</time>
      </trkpt>
      <trkpt lat="43.78408" lon="7.10605">
        <ele>677.79998779297</ele>
        <time>2023-08-02T09:07:09.000Z</time>
      </trkpt>
      <trkpt lat="43.78408" lon="7.10605">
        <ele>677.79998779297</ele>
        <time>2023-08-02T09:07:10.000Z</time>
      </trkpt>
      <trkpt lat="43.78408" lon="7.10605">
        <ele>678</ele>
        <time>2023-08-02T09:07:11.000Z</time>
      </trkpt>
      <trkpt lat="43.78408" lon="7.10605">
        <ele>678</ele>
        <time>2023-08-02T09:07:12.000Z</time>
      </trkpt>
      <trkpt lat="43.78408" lon="7.10605">
        <ele>678.20001220703</ele>
        <time>2023-08-02T09:07:13.000Z</time>
      </trkpt>
      <trkpt lat="43.78408" lon="7.10605">
        <ele>678</ele>
        <time>2023-08-02T09:07:14.000Z</time>
      </trkpt>
      <trkpt lat="43.78408" lon="7.10605">
        <ele>678.20001220703</ele>
        <time>2023-08-02T09:07:15.000Z</time>
      </trkpt>
      <trkpt lat="43.78408" lon="7.10605">
        <ele>678.40002441406</ele>
        <time>2023-08-02T09:07:16.000Z</time>
      </trkpt>
      <trkpt lat="43.78408" lon="7.10606">
        <ele>678.40002441406</ele>
        <time>2023-08-02T09:07:17.000Z</time>
      </trkpt>
      <trkpt lat="43.78409" lon="7.10607">
        <ele>678.40002441406</ele>
        <time>2023-08-02T09:07:18.000Z</time>
      </trkpt>
      <trkpt lat="43.78409" lon="7.10607">
        <ele>678.40002441406</ele>
        <time>2023-08-02T09:07:19.000Z</time>
      </trkpt>
      <trkpt lat="43.78409" lon="7.10607">
        <ele>678.20001220703</ele>
        <time>2023-08-02T09:07:20.000Z</time>
      </trkpt>
      <trkpt lat="43.78409" lon="7.10607">
        <ele>678.20001220703</ele>
        <time>2023-08-02T09:07:21.000Z</time>
      </trkpt>
      <trkpt lat="43.78409" lon="7.10607">
        <ele>678.20001220703</ele>
        <time>2023-08-02T09:07:22.000Z</time>
      </trkpt>
      <trkpt lat="43.78409" lon="7.10608">
        <ele>678.20001220703</ele>
        <time>2023-08-02T09:07:23.000Z</time>
      </trkpt>
      <trkpt lat="43.78409" lon="7.10609">
        <ele>678.20001220703</ele>
        <time>2023-08-02T09:07:24.000Z</time>
      </trkpt>
      <trkpt lat="43.78409" lon="7.10609">
        <ele>678.20001220703</ele>
        <time>2023-08-02T09:07:25.000Z</time>
      </trkpt>
      <trkpt lat="43.78409" lon="7.10609">
        <ele>678.20001220703</ele>
        <time>2023-08-02T09:07:26.000Z</time>
      </trkpt>
      <trkpt lat="43.78409" lon="7.10609">
        <ele>678</ele>
        <time>2023-08-02T09:07:27.000Z</time>
      </trkpt>
      <trkpt lat="43.78408" lon="7.10609">
        <ele>677.79998779297</ele>
        <time>2023-08-02T09:07:28.000Z</time>
      </trkpt>
      <trkpt lat="43.78408" lon="7.1061">
        <ele>677.59997558594</ele>
        <time>2023-08-02T09:07:29.000Z</time>
      </trkpt>
      <trkpt lat="43.78408" lon="7.1061">
        <ele>677.59997558594</ele>
        <time>2023-08-02T09:07:30.000Z</time>
      </trkpt>
      <trkpt lat="43.78408" lon="7.1061">
        <ele>677.40002441406</ele>
        <time>2023-08-02T09:07:31.000Z</time>
      </trkpt>
      <trkpt lat="43.78407" lon="7.10611">
        <ele>677.40002441406</ele>
        <time>2023-08-02T09:07:32.000Z</time>
      </trkpt>
      <trkpt lat="43.78407" lon="7.10611">
        <ele>677.20001220703</ele>
        <time>2023-08-02T09:07:33.000Z</time>
      </trkpt>
      <trkpt lat="43.78407" lon="7.10612">
        <ele>677.20001220703</ele>
        <time>2023-08-02T09:07:34.000Z</time>
      </trkpt>
      <trkpt lat="43.78407" lon="7.10612">
        <ele>677</ele>
        <time>2023-08-02T09:07:35.000Z</time>
      </trkpt>
      <trkpt lat="43.78407" lon="7.10612">
        <ele>677</ele>
        <time>2023-08-02T09:07:36.000Z</time>
      </trkpt>
      <trkpt lat="43.78407" lon="7.10613">
        <ele>676.79998779297</ele>
        <time>2023-08-02T09:07:37.000Z</time>
      </trkpt>
      <trkpt lat="43.78407" lon="7.10613">
        <ele>676.79998779297</ele>
        <time>2023-08-02T09:07:38.000Z</time>
      </trkpt>
      <trkpt lat="43.78407" lon="7.10613">
        <ele>676.59997558594</ele>
        <time>2023-08-02T09:07:39.000Z</time>
      </trkpt>
      <trkpt lat="43.78407" lon="7.10613">
        <ele>676.59997558594</ele>
        <time>2023-08-02T09:07:40.000Z</time>
      </trkpt>
      <trkpt lat="43.78407" lon="7.10614">
        <ele>676.59997558594</ele>
        <time>2023-08-02T09:07:41.000Z</time>
      </trkpt>
      <trkpt lat="43.78407" lon="7.10614">
        <ele>676.59997558594</ele>
        <time>2023-08-02T09:07:42.000Z</time>
      </trkpt>
      <trkpt lat="43.78407" lon="7.10614">
        <ele>676.40002441406</ele>
        <time>2023-08-02T09:07:43.000Z</time>
      </trkpt>
      <trkpt lat="43.78407" lon="7.10616">
        <ele>676.20001220703</ele>
        <time>2023-08-02T09:07:44.000Z</time>
      </trkpt>
      <trkpt lat="43.78406" lon="7.10618">
        <ele>676.20001220703</ele>
        <time>2023-08-02T09:07:45.000Z</time>
      </trkpt>
      <trkpt lat="43.78406" lon="7.10621">
        <ele>676</ele>
        <time>2023-08-02T09:07:46.000Z</time>
      </trkpt>
      <trkpt lat="43.78406" lon="7.10622">
        <ele>675.79998779297</ele>
        <time>2023-08-02T09:07:47.000Z</time>
      </trkpt>
      <trkpt lat="43.78406" lon="7.10625">
        <ele>675.40002441406</ele>
        <time>2023-08-02T09:07:48.000Z</time>
      </trkpt>
      <trkpt lat="43.78406" lon="7.10627">
        <ele>674.79998779297</ele>
        <time>2023-08-02T09:07:49.000Z</time>
      </trkpt>
      <trkpt lat="43.78406" lon="7.10628">
        <ele>674</ele>
        <time>2023-08-02T09:07:50.000Z</time>
      </trkpt>
      <trkpt lat="43.78407" lon="7.10628">
        <ele>673.79998779297</ele>
        <time>2023-08-02T09:07:51.000Z</time>
      </trkpt>
      <trkpt lat="43.78407" lon="7.10628">
        <ele>672.79998779297</ele>
        <time>2023-08-02T09:07:52.000Z</time>
      </trkpt>
      <trkpt lat="43.78407" lon="7.10628">
        <ele>672.40002441406</ele>
        <time>2023-08-02T09:07:53.000Z</time>
      </trkpt>
      <trkpt lat="43.78407" lon="7.10628">
        <ele>672.20001220703</ele>
        <time>2023-08-02T09:07:54.000Z</time>
      </trkpt>
      <trkpt lat="43.78407" lon="7.10628">
        <ele>672</ele>
        <time>2023-08-02T09:07:55.000Z</time>
      </trkpt>
      <trkpt lat="43.78407" lon="7.10628">
        <ele>671.79998779297</ele>
        <time>2023-08-02T09:07:56.000Z</time>
      </trkpt>
      <trkpt lat="43.78407" lon="7.10628">
        <ele>671.59997558594</ele>
        <time>2023-08-02T09:07:57.000Z</time>
      </trkpt>
      <trkpt lat="43.78407" lon="7.10628">
        <ele>671.40002441406</ele>
        <time>2023-08-02T09:07:58.000Z</time>
      </trkpt>
      <trkpt lat="43.78407" lon="7.10628">
        <ele>671.40002441406</ele>
        <time>2023-08-02T09:07:59.000Z</time>
      </trkpt>
      <trkpt lat="43.78407" lon="7.10628">
        <ele>671.40002441406</ele>
        <time>2023-08-02T09:08:00.000Z</time>
      </trkpt>
      <trkpt lat="43.78407" lon="7.10628">
        <ele>671.40002441406</ele>
        <time>2023-08-02T09:08:01.000Z</time>
      </trkpt>
      <trkpt lat="43.78407" lon="7.10628">
        <ele>671.40002441406</ele>
        <time>2023-08-02T09:08:02.000Z</time>
      </trkpt>
      <trkpt lat="43.78407" lon="7.10628">
        <ele>671.40002441406</ele>
        <time>2023-08-02T09:08:03.000Z</time>
      </trkpt>
      <trkpt lat="43.78407" lon="7.10628">
        <ele>671.40002441406</ele>
        <time>2023-08-02T09:08:04.000Z</time>
      </trkpt>
      <trkpt lat="43.78407" lon="7.10628">
        <ele>671.40002441406</ele>
        <time>2023-08-02T09:08:05.000Z</time>
      </trkpt>
      <trkpt lat="43.78407" lon="7.10628">
        <ele>671.40002441406</ele>
        <time>2023-08-02T09:08:06.000Z</time>
      </trkpt>
      <trkpt lat="43.78407" lon="7.10628">
        <ele>671.40002441406</ele>
        <time>2023-08-02T09:08:07.000Z</time>
      </trkpt>
      <trkpt lat="43.78407" lon="7.10628">
        <ele>671.59997558594</ele>
        <time>2023-08-02T09:08:08.000Z</time>
      </trkpt>
      <trkpt lat="43.78407" lon="7.10628">
        <ele>671.59997558594</ele>
        <time>2023-08-02T09:08:09.000Z</time>
      </trkpt>
      <trkpt lat="43.78407" lon="7.10628">
        <ele>671.59997558594</ele>
        <time>2023-08-02T09:08:10.000Z</time>
      </trkpt>
      <trkpt lat="43.78407" lon="7.10628">
        <ele>671.59997558594</ele>
        <time>2023-08-02T09:08:11.000Z</time>
      </trkpt>
      <trkpt lat="43.78407" lon="7.10628">
        <ele>671.59997558594</ele>
        <time>2023-08-02T09:08:12.000Z</time>
      </trkpt>
      <trkpt lat="43.78407" lon="7.10628">
        <ele>671.59997558594</ele>
        <time>2023-08-02T09:08:13.000Z</time>
      </trkpt>
      <trkpt lat="43.78407" lon="7.10628">
        <ele>671.59997558594</ele>
        <time>2023-08-02T09:08:14.000Z</time>
      </trkpt>
      <trkpt lat="43.78407" lon="7.10628">
        <ele>671.59997558594</ele>
        <time>2023-08-02T09:08:15.000Z</time>
      </trkpt>
      <trkpt lat="43.78407" lon="7.10628">
        <ele>671.59997558594</ele>
        <time>2023-08-02T09:08:16.000Z</time>
      </trkpt>
      <trkpt lat="43.78407" lon="7.10628">
        <ele>671.59997558594</ele>
        <time>2023-08-02T09:08:17.000Z</time>
      </trkpt>
      <trkpt lat="43.78407" lon="7.10628">
        <ele>671.59997558594</ele>
        <time>2023-08-02T09:08:18.000Z</time>
      </trkpt>
      <trkpt lat="43.78407" lon="7.10628">
        <ele>671.59997558594</ele>
        <time>2023-08-02T09:08:19.000Z</time>
      </trkpt>
      <trkpt lat="43.78407" lon="7.10628">
        <ele>671.59997558594</ele>
        <time>2023-08-02T09:08:20.000Z</time>
      </trkpt>
      <trkpt lat="43.78407" lon="7.10628">
        <ele>671.59997558594</ele>
        <time>2023-08-02T09:08:21.000Z</time>
      </trkpt>
      <trkpt lat="43.78407" lon="7.10628">
        <ele>671.59997558594</ele>
        <time>2023-08-02T09:08:22.000Z</time>
      </trkpt>
      <trkpt lat="43.78407" lon="7.10628">
        <ele>671.79998779297</ele>
        <time>2023-08-02T09:08:23.000Z</time>
      </trkpt>
      <trkpt lat="43.78407" lon="7.10628">
        <ele>671.79998779297</ele>
        <time>2023-08-02T09:08:24.000Z</time>
      </trkpt>
      <trkpt lat="43.78407" lon="7.10628">
        <ele>671.79998779297</ele>
        <time>2023-08-02T09:08:25.000Z</time>
      </trkpt>
      <trkpt lat="43.78407" lon="7.10628">
        <ele>671.79998779297</ele>
        <time>2023-08-02T09:08:26.000Z</time>
      </trkpt>
      <trkpt lat="43.78407" lon="7.10628">
        <ele>671.79998779297</ele>
        <time>2023-08-02T09:08:27.000Z</time>
      </trkpt>
      <trkpt lat="43.78407" lon="7.10628">
        <ele>671.79998779297</ele>
        <time>2023-08-02T09:08:28.000Z</time>
      </trkpt>
      <trkpt lat="43.78407" lon="7.10628">
        <ele>671.79998779297</ele>
        <time>2023-08-02T09:08:29.000Z</time>
      </trkpt>
      <trkpt lat="43.78407" lon="7.10628">
        <ele>671.79998779297</ele>
        <time>2023-08-02T09:08:30.000Z</time>
      </trkpt>
      <trkpt lat="43.78407" lon="7.10628">
        <ele>671.79998779297</ele>
        <time>2023-08-02T09:08:31.000Z</time>
      </trkpt>
      <trkpt lat="43.78407" lon="7.10628">
        <ele>671.79998779297</ele>
        <time>2023-08-02T09:08:32.000Z</time>
      </trkpt>
      <trkpt lat="43.78407" lon="7.10628">
        <ele>671.79998779297</ele>
        <time>2023-08-02T09:08:33.000Z</time>
      </trkpt>
      <trkpt lat="43.78407" lon="7.10628">
        <ele>671.79998779297</ele>
        <time>2023-08-02T09:08:34.000Z</time>
      </trkpt>
      <trkpt lat="43.78407" lon="7.10628">
        <ele>671.79998779297</ele>
        <time>2023-08-02T09:08:35.000Z</time>
      </trkpt>
      <trkpt lat="43.78407" lon="7.10628">
        <ele>671.79998779297</ele>
        <time>2023-08-02T09:08:36.000Z</time>
      </trkpt>
      <trkpt lat="43.78407" lon="7.10628">
        <ele>671.79998779297</ele>
        <time>2023-08-02T09:08:37.000Z</time>
      </trkpt>
      <trkpt lat="43.78407" lon="7.10628">
        <ele>671.79998779297</ele>
        <time>2023-08-02T09:08:38.000Z</time>
      </trkpt>
      <trkpt lat="43.78407" lon="7.10628">
        <ele>671.79998779297</ele>
        <time>2023-08-02T09:08:39.000Z</time>
      </trkpt>
      <trkpt lat="43.78407" lon="7.10628">
        <ele>671.79998779297</ele>
        <time>2023-08-02T09:08:40.000Z</time>
      </trkpt>
      <trkpt lat="43.78407" lon="7.10628">
        <ele>671.79998779297</ele>
        <time>2023-08-02T09:08:41.000Z</time>
      </trkpt>
      <trkpt lat="43.78407" lon="7.10628">
        <ele>671.79998779297</ele>
        <time>2023-08-02T09:08:42.000Z</time>
      </trkpt>
      <trkpt lat="43.78407" lon="7.10628">
        <ele>671.79998779297</ele>
        <time>2023-08-02T09:08:43.000Z</time>
      </trkpt>
      <trkpt lat="43.78407" lon="7.10628">
        <ele>671.79998779297</ele>
        <time>2023-08-02T09:08:44.000Z</time>
      </trkpt>
      <trkpt lat="43.78407" lon="7.10628">
        <ele>671.59997558594</ele>
        <time>2023-08-02T09:08:45.000Z</time>
      </trkpt>
      <trkpt lat="43.78407" lon="7.10628">
        <ele>671.59997558594</ele>
        <time>2023-08-02T09:08:46.000Z</time>
      </trkpt>
      <trkpt lat="43.78407" lon="7.10628">
        <ele>671.79998779297</ele>
        <time>2023-08-02T09:08:47.000Z</time>
      </trkpt>
      <trkpt lat="43.78407" lon="7.10628">
        <ele>671.79998779297</ele>
        <time>2023-08-02T09:08:48.000Z</time>
      </trkpt>
      <trkpt lat="43.78407" lon="7.10628">
        <ele>671.79998779297</ele>
        <time>2023-08-02T09:08:49.000Z</time>
      </trkpt>
      <trkpt lat="43.78407" lon="7.10628">
        <ele>671.79998779297</ele>
        <time>2023-08-02T09:08:50.000Z</time>
      </trkpt>
      <trkpt lat="43.78407" lon="7.10628">
        <ele>672</ele>
        <time>2023-08-02T09:08:51.000Z</time>
      </trkpt>
      <trkpt lat="43.78407" lon="7.10628">
        <ele>672</ele>
        <time>2023-08-02T09:08:52.000Z</time>
      </trkpt>
      <trkpt lat="43.78407" lon="7.10628">
        <ele>672</ele>
        <time>2023-08-02T09:08:53.000Z</time>
      </trkpt>
      <trkpt lat="43.78407" lon="7.10628">
        <ele>672</ele>
        <time>2023-08-02T09:08:54.000Z</time>
      </trkpt>
      <trkpt lat="43.78407" lon="7.10628">
        <ele>672</ele>
        <time>2023-08-02T09:08:55.000Z</time>
      </trkpt>
      <trkpt lat="43.78407" lon="7.10628">
        <ele>672</ele>
        <time>2023-08-02T09:08:56.000Z</time>
      </trkpt>
      <trkpt lat="43.78407" lon="7.10628">
        <ele>672</ele>
        <time>2023-08-02T09:08:57.000Z</time>
      </trkpt>
      <trkpt lat="43.78407" lon="7.10628">
        <ele>672</ele>
        <time>2023-08-02T09:08:58.000Z</time>
      </trkpt>
      <trkpt lat="43.78407" lon="7.10628">
        <ele>672</ele>
        <time>2023-08-02T09:08:59.000Z</time>
      </trkpt>
      <trkpt lat="43.78407" lon="7.10628">
        <ele>672</ele>
        <time>2023-08-02T09:09:00.000Z</time>
      </trkpt>
      <trkpt lat="43.78406" lon="7.10629">
        <ele>672</ele>
        <time>2023-08-02T09:09:01.000Z</time>
      </trkpt>
      <trkpt lat="43.78406" lon="7.10631">
        <ele>672</ele>
        <time>2023-08-02T09:09:02.000Z</time>
      </trkpt>
      <trkpt lat="43.78405" lon="7.10634">
        <ele>672</ele>
        <time>2023-08-02T09:09:03.000Z</time>
      </trkpt>
      <trkpt lat="43.78404" lon="7.10636">
        <ele>672</ele>
        <time>2023-08-02T09:09:04.000Z</time>
      </trkpt>
      <trkpt lat="43.78404" lon="7.10637">
        <ele>672</ele>
        <time>2023-08-02T09:09:05.000Z</time>
      </trkpt>
      <trkpt lat="43.78404" lon="7.10637">
        <ele>672</ele>
        <time>2023-08-02T09:09:06.000Z</time>
      </trkpt>
      <trkpt lat="43.78404" lon="7.10638">
        <ele>671.40002441406</ele>
        <time>2023-08-02T09:09:07.000Z</time>
      </trkpt>
      <trkpt lat="43.78404" lon="7.10638">
        <ele>671.20001220703</ele>
        <time>2023-08-02T09:09:08.000Z</time>
      </trkpt>
      <trkpt lat="43.78404" lon="7.10638">
        <ele>670.79998779297</ele>
        <time>2023-08-02T09:09:09.000Z</time>
      </trkpt>
      <trkpt lat="43.78404" lon="7.10638">
        <ele>670.79998779297</ele>
        <time>2023-08-02T09:09:10.000Z</time>
      </trkpt>
      <trkpt lat="43.78404" lon="7.10638">
        <ele>670.59997558594</ele>
        <time>2023-08-02T09:09:11.000Z</time>
      </trkpt>
      <trkpt lat="43.78404" lon="7.10638">
        <ele>670.40002441406</ele>
        <time>2023-08-02T09:09:12.000Z</time>
      </trkpt>
      <trkpt lat="43.78404" lon="7.10638">
        <ele>670.40002441406</ele>
        <time>2023-08-02T09:09:13.000Z</time>
      </trkpt>
      <trkpt lat="43.78404" lon="7.10638">
        <ele>670.40002441406</ele>
        <time>2023-08-02T09:09:14.000Z</time>
      </trkpt>
      <trkpt lat="43.78404" lon="7.10638">
        <ele>670.40002441406</ele>
        <time>2023-08-02T09:09:15.000Z</time>
      </trkpt>
      <trkpt lat="43.78404" lon="7.10638">
        <ele>670.40002441406</ele>
        <time>2023-08-02T09:09:16.000Z</time>
      </trkpt>
      <trkpt lat="43.78404" lon="7.10638">
        <ele>670.40002441406</ele>
        <time>2023-08-02T09:09:17.000Z</time>
      </trkpt>
      <trkpt lat="43.78404" lon="7.10638">
        <ele>670.40002441406</ele>
        <time>2023-08-02T09:09:18.000Z</time>
      </trkpt>
      <trkpt lat="43.78404" lon="7.10642">
        <ele>670.40002441406</ele>
        <time>2023-08-02T09:09:19.000Z</time>
      </trkpt>
      <trkpt lat="43.78403" lon="7.10647">
        <ele>670.40002441406</ele>
        <time>2023-08-02T09:09:20.000Z</time>
      </trkpt>
      <trkpt lat="43.78403" lon="7.10651">
        <ele>670.40002441406</ele>
        <time>2023-08-02T09:09:21.000Z</time>
      </trkpt>
      <trkpt lat="43.78402" lon="7.10654">
        <ele>670.40002441406</ele>
        <time>2023-08-02T09:09:22.000Z</time>
      </trkpt>
      <trkpt lat="43.78401" lon="7.10659">
        <ele>670.40002441406</ele>
        <time>2023-08-02T09:09:23.000Z</time>
      </trkpt>
      <trkpt lat="43.784" lon="7.10663">
        <ele>670</ele>
        <time>2023-08-02T09:09:24.000Z</time>
      </trkpt>
      <trkpt lat="43.78399" lon="7.10667">
        <ele>669.20001220703</ele>
        <time>2023-08-02T09:09:25.000Z</time>
      </trkpt>
      <trkpt lat="43.78398" lon="7.10671">
        <ele>668.79998779297</ele>
        <time>2023-08-02T09:09:26.000Z</time>
      </trkpt>
      <trkpt lat="43.78396" lon="7.10676">
        <ele>668.20001220703</ele>
        <time>2023-08-02T09:09:27.000Z</time>
      </trkpt>
      <trkpt lat="43.78394" lon="7.10679">
        <ele>668</ele>
        <time>2023-08-02T09:09:28.000Z</time>
      </trkpt>
      <trkpt lat="43.78392" lon="7.10684">
        <ele>667.79998779297</ele>
        <time>2023-08-02T09:09:29.000Z</time>
      </trkpt>
      <trkpt lat="43.78391" lon="7.10688">
        <ele>667.40002441406</ele>
        <time>2023-08-02T09:09:30.000Z</time>
      </trkpt>
      <trkpt lat="43.7839" lon="7.10692">
        <ele>667.40002441406</ele>
        <time>2023-08-02T09:09:31.000Z</time>
      </trkpt>
      <trkpt lat="43.78388" lon="7.10696">
        <ele>667.40002441406</ele>
        <time>2023-08-02T09:09:32.000Z</time>
      </trkpt>
      <trkpt lat="43.78387" lon="7.10699">
        <ele>667.20001220703</ele>
        <time>2023-08-02T09:09:33.000Z</time>
      </trkpt>
      <trkpt lat="43.78386" lon="7.10702">
        <ele>666.79998779297</ele>
        <time>2023-08-02T09:09:34.000Z</time>
      </trkpt>
      <trkpt lat="43.78384" lon="7.10705">
        <ele>666.79998779297</ele>
        <time>2023-08-02T09:09:35.000Z</time>
      </trkpt>
      <trkpt lat="43.78383" lon="7.10708">
        <ele>666.79998779297</ele>
        <time>2023-08-02T09:09:36.000Z</time>
      </trkpt>
      <trkpt lat="43.78381" lon="7.10711">
        <ele>666.79998779297</ele>
        <time>2023-08-02T09:09:37.000Z</time>
      </trkpt>
      <trkpt lat="43.7838" lon="7.10715">
        <ele>667</ele>
        <time>2023-08-02T09:09:38.000Z</time>
      </trkpt>
      <trkpt lat="43.78377" lon="7.10718">
        <ele>667.20001220703</ele>
        <time>2023-08-02T09:09:39.000Z</time>
      </trkpt>
      <trkpt lat="43.78375" lon="7.10722">
        <ele>667.20001220703</ele>
        <time>2023-08-02T09:09:40.000Z</time>
      </trkpt>
      <trkpt lat="43.78372" lon="7.10725">
        <ele>667.20001220703</ele>
        <time>2023-08-02T09:09:41.000Z</time>
      </trkpt>
      <trkpt lat="43.7837" lon="7.10729">
        <ele>667.20001220703</ele>
        <time>2023-08-02T09:09:42.000Z</time>
      </trkpt>
      <trkpt lat="43.78369" lon="7.10733">
        <ele>666.59997558594</ele>
        <time>2023-08-02T09:09:43.000Z</time>
      </trkpt>
      <trkpt lat="43.78368" lon="7.10736">
        <ele>666.20001220703</ele>
        <time>2023-08-02T09:09:44.000Z</time>
      </trkpt>
      <trkpt lat="43.78367" lon="7.1074">
        <ele>666.20001220703</ele>
        <time>2023-08-02T09:09:45.000Z</time>
      </trkpt>
      <trkpt lat="43.78366" lon="7.10745">
        <ele>666</ele>
        <time>2023-08-02T09:09:46.000Z</time>
      </trkpt>
      <trkpt lat="43.78365" lon="7.10749">
        <ele>666</ele>
        <time>2023-08-02T09:09:47.000Z</time>
      </trkpt>
      <trkpt lat="43.78364" lon="7.10754">
        <ele>665.79998779297</ele>
        <time>2023-08-02T09:09:48.000Z</time>
      </trkpt>
      <trkpt lat="43.78363" lon="7.10758">
        <ele>665.79998779297</ele>
        <time>2023-08-02T09:09:49.000Z</time>
      </trkpt>
      <trkpt lat="43.78362" lon="7.10762">
        <ele>665.79998779297</ele>
        <time>2023-08-02T09:09:50.000Z</time>
      </trkpt>
      <trkpt lat="43.78361" lon="7.10765">
        <ele>666</ele>
        <time>2023-08-02T09:09:51.000Z</time>
      </trkpt>
      <trkpt lat="43.78361" lon="7.10768">
        <ele>666</ele>
        <time>2023-08-02T09:09:52.000Z</time>
      </trkpt>
      <trkpt lat="43.78361" lon="7.10772">
        <ele>666.40002441406</ele>
        <time>2023-08-02T09:09:53.000Z</time>
      </trkpt>
      <trkpt lat="43.78361" lon="7.10777">
        <ele>666.59997558594</ele>
        <time>2023-08-02T09:09:54.000Z</time>
      </trkpt>
      <trkpt lat="43.78361" lon="7.1078">
        <ele>666.59997558594</ele>
        <time>2023-08-02T09:09:55.000Z</time>
      </trkpt>
      <trkpt lat="43.7836" lon="7.10783">
        <ele>666.79998779297</ele>
        <time>2023-08-02T09:09:56.000Z</time>
      </trkpt>
      <trkpt lat="43.7836" lon="7.10787">
        <ele>666.79998779297</ele>
        <time>2023-08-02T09:09:57.000Z</time>
      </trkpt>
      <trkpt lat="43.78359" lon="7.10791">
        <ele>666.79998779297</ele>
        <time>2023-08-02T09:09:58.000Z</time>
      </trkpt>
      <trkpt lat="43.78358" lon="7.10795">
        <ele>666.79998779297</ele>
        <time>2023-08-02T09:09:59.000Z</time>
      </trkpt>
      <trkpt lat="43.78357" lon="7.108">
        <ele>666.79998779297</ele>
        <time>2023-08-02T09:10:00.000Z</time>
      </trkpt>
      <trkpt lat="43.78357" lon="7.10804">
        <ele>666.79998779297</ele>
        <time>2023-08-02T09:10:01.000Z</time>
      </trkpt>
      <trkpt lat="43.78356" lon="7.10809">
        <ele>666.79998779297</ele>
        <time>2023-08-02T09:10:02.000Z</time>
      </trkpt>
      <trkpt lat="43.78356" lon="7.10812">
        <ele>666.79998779297</ele>
        <time>2023-08-02T09:10:03.000Z</time>
      </trkpt>
      <trkpt lat="43.78356" lon="7.10815">
        <ele>667</ele>
        <time>2023-08-02T09:10:04.000Z</time>
      </trkpt>
      <trkpt lat="43.78355" lon="7.10818">
        <ele>667</ele>
        <time>2023-08-02T09:10:05.000Z</time>
      </trkpt>
      <trkpt lat="43.78355" lon="7.1082">
        <ele>667</ele>
        <time>2023-08-02T09:10:06.000Z</time>
      </trkpt>
      <trkpt lat="43.78356" lon="7.10821">
        <ele>667</ele>
        <time>2023-08-02T09:10:07.000Z</time>
      </trkpt>
      <trkpt lat="43.78356" lon="7.10822">
        <ele>667</ele>
        <time>2023-08-02T09:10:08.000Z</time>
      </trkpt>
      <trkpt lat="43.78356" lon="7.10822">
        <ele>667.20001220703</ele>
        <time>2023-08-02T09:10:09.000Z</time>
      </trkpt>
      <trkpt lat="43.78356" lon="7.10822">
        <ele>667.20001220703</ele>
        <time>2023-08-02T09:10:10.000Z</time>
      </trkpt>
      <trkpt lat="43.78356" lon="7.10822">
        <ele>667.20001220703</ele>
        <time>2023-08-02T09:10:11.000Z</time>
      </trkpt>
      <trkpt lat="43.78356" lon="7.10822">
        <ele>667.20001220703</ele>
        <time>2023-08-02T09:10:12.000Z</time>
      </trkpt>
      <trkpt lat="43.78356" lon="7.10822">
        <ele>667</ele>
        <time>2023-08-02T09:10:13.000Z</time>
      </trkpt>
      <trkpt lat="43.78356" lon="7.10822">
        <ele>667</ele>
        <time>2023-08-02T09:10:14.000Z</time>
      </trkpt>
      <trkpt lat="43.78356" lon="7.10822">
        <ele>666.79998779297</ele>
        <time>2023-08-02T09:10:15.000Z</time>
      </trkpt>
      <trkpt lat="43.78356" lon="7.10822">
        <ele>666.79998779297</ele>
        <time>2023-08-02T09:10:16.000Z</time>
      </trkpt>
      <trkpt lat="43.78356" lon="7.10822">
        <ele>666.79998779297</ele>
        <time>2023-08-02T09:10:17.000Z</time>
      </trkpt>
      <trkpt lat="43.78356" lon="7.10822">
        <ele>666.79998779297</ele>
        <time>2023-08-02T09:10:18.000Z</time>
      </trkpt>
      <trkpt lat="43.78356" lon="7.10822">
        <ele>666.79998779297</ele>
        <time>2023-08-02T09:10:19.000Z</time>
      </trkpt>
      <trkpt lat="43.78356" lon="7.10822">
        <ele>666.79998779297</ele>
        <time>2023-08-02T09:10:20.000Z</time>
      </trkpt>
      <trkpt lat="43.78356" lon="7.10822">
        <ele>666.79998779297</ele>
        <time>2023-08-02T09:10:21.000Z</time>
      </trkpt>
      <trkpt lat="43.78356" lon="7.10822">
        <ele>666.79998779297</ele>
        <time>2023-08-02T09:10:22.000Z</time>
      </trkpt>
      <trkpt lat="43.78356" lon="7.10822">
        <ele>666.79998779297</ele>
        <time>2023-08-02T09:10:23.000Z</time>
      </trkpt>
      <trkpt lat="43.78356" lon="7.10822">
        <ele>666.79998779297</ele>
        <time>2023-08-02T09:10:24.000Z</time>
      </trkpt>
      <trkpt lat="43.78356" lon="7.10822">
        <ele>666.79998779297</ele>
        <time>2023-08-02T09:10:25.000Z</time>
      </trkpt>
      <trkpt lat="43.78356" lon="7.10822">
        <ele>666.59997558594</ele>
        <time>2023-08-02T09:10:26.000Z</time>
      </trkpt>
      <trkpt lat="43.78356" lon="7.10822">
        <ele>666.59997558594</ele>
        <time>2023-08-02T09:10:27.000Z</time>
      </trkpt>
      <trkpt lat="43.78356" lon="7.10822">
        <ele>666.59997558594</ele>
        <time>2023-08-02T09:10:28.000Z</time>
      </trkpt>
      <trkpt lat="43.78356" lon="7.10822">
        <ele>666.59997558594</ele>
        <time>2023-08-02T09:10:29.000Z</time>
      </trkpt>
      <trkpt lat="43.78356" lon="7.10822">
        <ele>666.59997558594</ele>
        <time>2023-08-02T09:10:30.000Z</time>
      </trkpt>
      <trkpt lat="43.78356" lon="7.10822">
        <ele>666.59997558594</ele>
        <time>2023-08-02T09:10:31.000Z</time>
      </trkpt>
      <trkpt lat="43.78356" lon="7.10822">
        <ele>666.59997558594</ele>
        <time>2023-08-02T09:10:32.000Z</time>
      </trkpt>
      <trkpt lat="43.78356" lon="7.10822">
        <ele>666.59997558594</ele>
        <time>2023-08-02T09:10:33.000Z</time>
      </trkpt>
      <trkpt lat="43.78356" lon="7.10822">
        <ele>666.59997558594</ele>
        <time>2023-08-02T09:10:34.000Z</time>
      </trkpt>
      <trkpt lat="43.78356" lon="7.10822">
        <ele>666.40002441406</ele>
        <time>2023-08-02T09:10:35.000Z</time>
      </trkpt>
      <trkpt lat="43.78356" lon="7.10822">
        <ele>666.40002441406</ele>
        <time>2023-08-02T09:10:36.000Z</time>
      </trkpt>
      <trkpt lat="43.78356" lon="7.10822">
        <ele>666.40002441406</ele>
        <time>2023-08-02T09:10:37.000Z</time>
      </trkpt>
      <trkpt lat="43.78356" lon="7.10822">
        <ele>666.40002441406</ele>
        <time>2023-08-02T09:10:38.000Z</time>
      </trkpt>
      <trkpt lat="43.78356" lon="7.10822">
        <ele>666.40002441406</ele>
        <time>2023-08-02T09:10:39.000Z</time>
      </trkpt>
      <trkpt lat="43.78356" lon="7.10822">
        <ele>666.40002441406</ele>
        <time>2023-08-02T09:10:40.000Z</time>
      </trkpt>
      <trkpt lat="43.78356" lon="7.10822">
        <ele>666.40002441406</ele>
        <time>2023-08-02T09:10:41.000Z</time>
      </trkpt>
      <trkpt lat="43.78356" lon="7.10822">
        <ele>666.40002441406</ele>
        <time>2023-08-02T09:10:42.000Z</time>
      </trkpt>
      <trkpt lat="43.78356" lon="7.10822">
        <ele>666.20001220703</ele>
        <time>2023-08-02T09:10:43.000Z</time>
      </trkpt>
      <trkpt lat="43.78356" lon="7.10822">
        <ele>666.20001220703</ele>
        <time>2023-08-02T09:10:44.000Z</time>
      </trkpt>
      <trkpt lat="43.78356" lon="7.10822">
        <ele>666.20001220703</ele>
        <time>2023-08-02T09:10:45.000Z</time>
      </trkpt>
      <trkpt lat="43.78356" lon="7.10822">
        <ele>666.20001220703</ele>
        <time>2023-08-02T09:10:46.000Z</time>
      </trkpt>
      <trkpt lat="43.78356" lon="7.10822">
        <ele>666.20001220703</ele>
        <time>2023-08-02T09:10:47.000Z</time>
      </trkpt>
      <trkpt lat="43.78356" lon="7.10822">
        <ele>666.20001220703</ele>
        <time>2023-08-02T09:10:48.000Z</time>
      </trkpt>
      <trkpt lat="43.78356" lon="7.10822">
        <ele>666.20001220703</ele>
        <time>2023-08-02T09:10:49.000Z</time>
      </trkpt>
      <trkpt lat="43.78356" lon="7.10822">
        <ele>666.20001220703</ele>
        <time>2023-08-02T09:10:50.000Z</time>
      </trkpt>
      <trkpt lat="43.78356" lon="7.10822">
        <ele>666.20001220703</ele>
        <time>2023-08-02T09:10:51.000Z</time>
      </trkpt>
      <trkpt lat="43.78356" lon="7.10822">
        <ele>666.20001220703</ele>
        <time>2023-08-02T09:10:52.000Z</time>
      </trkpt>
      <trkpt lat="43.78356" lon="7.10822">
        <ele>666.20001220703</ele>
        <time>2023-08-02T09:10:53.000Z</time>
      </trkpt>
      <trkpt lat="43.78356" lon="7.10822">
        <ele>666.20001220703</ele>
        <time>2023-08-02T09:10:54.000Z</time>
      </trkpt>
      <trkpt lat="43.78356" lon="7.10822">
        <ele>666.20001220703</ele>
        <time>2023-08-02T09:10:55.000Z</time>
      </trkpt>
      <trkpt lat="43.78356" lon="7.10822">
        <ele>666.20001220703</ele>
        <time>2023-08-02T09:10:56.000Z</time>
      </trkpt>
      <trkpt lat="43.78356" lon="7.10822">
        <ele>666.20001220703</ele>
        <time>2023-08-02T09:10:57.000Z</time>
      </trkpt>
      <trkpt lat="43.78356" lon="7.10822">
        <ele>666.20001220703</ele>
        <time>2023-08-02T09:10:58.000Z</time>
      </trkpt>
      <trkpt lat="43.78356" lon="7.10822">
        <ele>666.20001220703</ele>
        <time>2023-08-02T09:10:59.000Z</time>
      </trkpt>
      <trkpt lat="43.78356" lon="7.10822">
        <ele>666.20001220703</ele>
        <time>2023-08-02T09:11:00.000Z</time>
      </trkpt>
      <trkpt lat="43.78356" lon="7.10822">
        <ele>666.20001220703</ele>
        <time>2023-08-02T09:11:01.000Z</time>
      </trkpt>
      <trkpt lat="43.78356" lon="7.10822">
        <ele>666.20001220703</ele>
        <time>2023-08-02T09:11:02.000Z</time>
      </trkpt>
      <trkpt lat="43.78356" lon="7.10822">
        <ele>666.20001220703</ele>
        <time>2023-08-02T09:11:03.000Z</time>
      </trkpt>
      <trkpt lat="43.78356" lon="7.10822">
        <ele>666.20001220703</ele>
        <time>2023-08-02T09:11:04.000Z</time>
      </trkpt>
      <trkpt lat="43.78356" lon="7.10822">
        <ele>666</ele>
        <time>2023-08-02T09:11:05.000Z</time>
      </trkpt>
      <trkpt lat="43.78355" lon="7.1082">
        <ele>666</ele>
        <time>2023-08-02T09:11:06.000Z</time>
      </trkpt>
      <trkpt lat="43.78355" lon="7.1082">
        <ele>666</ele>
        <time>2023-08-02T09:11:07.000Z</time>
      </trkpt>
      <trkpt lat="43.78355" lon="7.1082">
        <ele>666</ele>
        <time>2023-08-02T09:11:08.000Z</time>
      </trkpt>
      <trkpt lat="43.78355" lon="7.1082">
        <ele>666</ele>
        <time>2023-08-02T09:11:09.000Z</time>
      </trkpt>
      <trkpt lat="43.78355" lon="7.1082">
        <ele>666.20001220703</ele>
        <time>2023-08-02T09:11:10.000Z</time>
      </trkpt>
      <trkpt lat="43.78355" lon="7.1082">
        <ele>666.20001220703</ele>
        <time>2023-08-02T09:11:11.000Z</time>
      </trkpt>
      <trkpt lat="43.78355" lon="7.1082">
        <ele>666.20001220703</ele>
        <time>2023-08-02T09:11:12.000Z</time>
      </trkpt>
      <trkpt lat="43.78355" lon="7.1082">
        <ele>666.20001220703</ele>
        <time>2023-08-02T09:11:13.000Z</time>
      </trkpt>
      <trkpt lat="43.78355" lon="7.1082">
        <ele>666.20001220703</ele>
        <time>2023-08-02T09:11:14.000Z</time>
      </trkpt>
      <trkpt lat="43.78354" lon="7.10823">
        <ele>666.20001220703</ele>
        <time>2023-08-02T09:11:15.000Z</time>
      </trkpt>
      <trkpt lat="43.78353" lon="7.10826">
        <ele>666.20001220703</ele>
        <time>2023-08-02T09:11:16.000Z</time>
      </trkpt>
      <trkpt lat="43.78352" lon="7.10829">
        <ele>666.20001220703</ele>
        <time>2023-08-02T09:11:17.000Z</time>
      </trkpt>
      <trkpt lat="43.78351" lon="7.10832">
        <ele>666.20001220703</ele>
        <time>2023-08-02T09:11:18.000Z</time>
      </trkpt>
      <trkpt lat="43.78349" lon="7.10835">
        <ele>666.20001220703</ele>
        <time>2023-08-02T09:11:19.000Z</time>
      </trkpt>
      <trkpt lat="43.78348" lon="7.10839">
        <ele>666.20001220703</ele>
        <time>2023-08-02T09:11:20.000Z</time>
      </trkpt>
      <trkpt lat="43.78347" lon="7.10842">
        <ele>666.20001220703</ele>
        <time>2023-08-02T09:11:21.000Z</time>
      </trkpt>
      <trkpt lat="43.78346" lon="7.10845">
        <ele>665.79998779297</ele>
        <time>2023-08-02T09:11:22.000Z</time>
      </trkpt>
      <trkpt lat="43.78346" lon="7.10847">
        <ele>665.40002441406</ele>
        <time>2023-08-02T09:11:23.000Z</time>
      </trkpt>
      <trkpt lat="43.78345" lon="7.10848">
        <ele>665.20001220703</ele>
        <time>2023-08-02T09:11:24.000Z</time>
      </trkpt>
      <trkpt lat="43.78344" lon="7.1085">
        <ele>665</ele>
        <time>2023-08-02T09:11:25.000Z</time>
      </trkpt>
      <trkpt lat="43.78343" lon="7.10852">
        <ele>665</ele>
        <time>2023-08-02T09:11:26.000Z</time>
      </trkpt>
      <trkpt lat="43.78341" lon="7.10854">
        <ele>664.79998779297</ele>
        <time>2023-08-02T09:11:27.000Z</time>
      </trkpt>
      <trkpt lat="43.78339" lon="7.10856">
        <ele>664.59997558594</ele>
        <time>2023-08-02T09:11:28.000Z</time>
      </trkpt>
      <trkpt lat="43.78338" lon="7.10859">
        <ele>664.40002441406</ele>
        <time>2023-08-02T09:11:29.000Z</time>
      </trkpt>
      <trkpt lat="43.78337" lon="7.10861">
        <ele>664.40002441406</ele>
        <time>2023-08-02T09:11:30.000Z</time>
      </trkpt>
      <trkpt lat="43.78335" lon="7.10864">
        <ele>664.40002441406</ele>
        <time>2023-08-02T09:11:31.000Z</time>
      </trkpt>
      <trkpt lat="43.78334" lon="7.10867">
        <ele>664.20001220703</ele>
        <time>2023-08-02T09:11:32.000Z</time>
      </trkpt>
      <trkpt lat="43.78334" lon="7.1087">
        <ele>664.20001220703</ele>
        <time>2023-08-02T09:11:33.000Z</time>
      </trkpt>
      <trkpt lat="43.78334" lon="7.10872">
        <ele>664.20001220703</ele>
        <time>2023-08-02T09:11:34.000Z</time>
      </trkpt>
      <trkpt lat="43.78333" lon="7.10873">
        <ele>664.20001220703</ele>
        <time>2023-08-02T09:11:35.000Z</time>
      </trkpt>
      <trkpt lat="43.78332" lon="7.10875">
        <ele>663.79998779297</ele>
        <time>2023-08-02T09:11:36.000Z</time>
      </trkpt>
      <trkpt lat="43.7833" lon="7.10877">
        <ele>663.79998779297</ele>
        <time>2023-08-02T09:11:37.000Z</time>
      </trkpt>
      <trkpt lat="43.78329" lon="7.10879">
        <ele>663.79998779297</ele>
        <time>2023-08-02T09:11:38.000Z</time>
      </trkpt>
      <trkpt lat="43.78328" lon="7.1088">
        <ele>663.59997558594</ele>
        <time>2023-08-02T09:11:39.000Z</time>
      </trkpt>
      <trkpt lat="43.78328" lon="7.10883">
        <ele>663.40002441406</ele>
        <time>2023-08-02T09:11:40.000Z</time>
      </trkpt>
      <trkpt lat="43.78327" lon="7.10885">
        <ele>663</ele>
        <time>2023-08-02T09:11:41.000Z</time>
      </trkpt>
      <trkpt lat="43.78326" lon="7.10886">
        <ele>662.79998779297</ele>
        <time>2023-08-02T09:11:42.000Z</time>
      </trkpt>
      <trkpt lat="43.78325" lon="7.10889">
        <ele>662.79998779297</ele>
        <time>2023-08-02T09:11:43.000Z</time>
      </trkpt>
      <trkpt lat="43.78326" lon="7.10892">
        <ele>662.79998779297</ele>
        <time>2023-08-02T09:11:44.000Z</time>
      </trkpt>
      <trkpt lat="43.78326" lon="7.10894">
        <ele>662.79998779297</ele>
        <time>2023-08-02T09:11:45.000Z</time>
      </trkpt>
      <trkpt lat="43.78326" lon="7.10896">
        <ele>662.59997558594</ele>
        <time>2023-08-02T09:11:46.000Z</time>
      </trkpt>
      <trkpt lat="43.78326" lon="7.10899">
        <ele>662.40002441406</ele>
        <time>2023-08-02T09:11:47.000Z</time>
      </trkpt>
      <trkpt lat="43.78327" lon="7.10901">
        <ele>662.40002441406</ele>
        <time>2023-08-02T09:11:48.000Z</time>
      </trkpt>
      <trkpt lat="43.78328" lon="7.10904">
        <ele>662.20001220703</ele>
        <time>2023-08-02T09:11:49.000Z</time>
      </trkpt>
      <trkpt lat="43.78329" lon="7.10907">
        <ele>662</ele>
        <time>2023-08-02T09:11:50.000Z</time>
      </trkpt>
      <trkpt lat="43.78329" lon="7.10911">
        <ele>661.59997558594</ele>
        <time>2023-08-02T09:11:51.000Z</time>
      </trkpt>
      <trkpt lat="43.78329" lon="7.10913">
        <ele>661.40002441406</ele>
        <time>2023-08-02T09:11:52.000Z</time>
      </trkpt>
      <trkpt lat="43.78327" lon="7.10914">
        <ele>661.20001220703</ele>
        <time>2023-08-02T09:11:53.000Z</time>
      </trkpt>
      <trkpt lat="43.78325" lon="7.10915">
        <ele>661.20001220703</ele>
        <time>2023-08-02T09:11:54.000Z</time>
      </trkpt>
      <trkpt lat="43.78323" lon="7.10916">
        <ele>661.20001220703</ele>
        <time>2023-08-02T09:11:55.000Z</time>
      </trkpt>
      <trkpt lat="43.78322" lon="7.10917">
        <ele>661.20001220703</ele>
        <time>2023-08-02T09:11:56.000Z</time>
      </trkpt>
      <trkpt lat="43.78321" lon="7.10918">
        <ele>661.20001220703</ele>
        <time>2023-08-02T09:11:57.000Z</time>
      </trkpt>
      <trkpt lat="43.78321" lon="7.10918">
        <ele>661.20001220703</ele>
        <time>2023-08-02T09:11:58.000Z</time>
      </trkpt>
      <trkpt lat="43.7832" lon="7.10918">
        <ele>661.20001220703</ele>
        <time>2023-08-02T09:11:59.000Z</time>
      </trkpt>
      <trkpt lat="43.78319" lon="7.10919">
        <ele>661.20001220703</ele>
        <time>2023-08-02T09:12:00.000Z</time>
      </trkpt>
      <trkpt lat="43.78319" lon="7.10919">
        <ele>661.20001220703</ele>
        <time>2023-08-02T09:12:01.000Z</time>
      </trkpt>
      <trkpt lat="43.78318" lon="7.1092">
        <ele>661.20001220703</ele>
        <time>2023-08-02T09:12:02.000Z</time>
      </trkpt>
      <trkpt lat="43.78317" lon="7.1092">
        <ele>661.20001220703</ele>
        <time>2023-08-02T09:12:03.000Z</time>
      </trkpt>
      <trkpt lat="43.78316" lon="7.10921">
        <ele>661.20001220703</ele>
        <time>2023-08-02T09:12:04.000Z</time>
      </trkpt>
      <trkpt lat="43.78316" lon="7.10921">
        <ele>661.20001220703</ele>
        <time>2023-08-02T09:12:05.000Z</time>
      </trkpt>
      <trkpt lat="43.78316" lon="7.10922">
        <ele>661.20001220703</ele>
        <time>2023-08-02T09:12:06.000Z</time>
      </trkpt>
      <trkpt lat="43.78316" lon="7.10922">
        <ele>661.20001220703</ele>
        <time>2023-08-02T09:12:07.000Z</time>
      </trkpt>
      <trkpt lat="43.78315" lon="7.10922">
        <ele>661.20001220703</ele>
        <time>2023-08-02T09:12:08.000Z</time>
      </trkpt>
      <trkpt lat="43.78314" lon="7.10922">
        <ele>661.20001220703</ele>
        <time>2023-08-02T09:12:09.000Z</time>
      </trkpt>
      <trkpt lat="43.78314" lon="7.10923">
        <ele>661.20001220703</ele>
        <time>2023-08-02T09:12:10.000Z</time>
      </trkpt>
      <trkpt lat="43.78312" lon="7.10924">
        <ele>661.20001220703</ele>
        <time>2023-08-02T09:12:11.000Z</time>
      </trkpt>
      <trkpt lat="43.7831" lon="7.10925">
        <ele>661.20001220703</ele>
        <time>2023-08-02T09:12:12.000Z</time>
      </trkpt>
      <trkpt lat="43.78309" lon="7.10926">
        <ele>661.20001220703</ele>
        <time>2023-08-02T09:12:13.000Z</time>
      </trkpt>
      <trkpt lat="43.78308" lon="7.10927">
        <ele>661</ele>
        <time>2023-08-02T09:12:14.000Z</time>
      </trkpt>
      <trkpt lat="43.78307" lon="7.10928">
        <ele>660.79998779297</ele>
        <time>2023-08-02T09:12:15.000Z</time>
      </trkpt>
      <trkpt lat="43.78306" lon="7.10928">
        <ele>660.79998779297</ele>
        <time>2023-08-02T09:12:16.000Z</time>
      </trkpt>
      <trkpt lat="43.78305" lon="7.10929">
        <ele>660.79998779297</ele>
        <time>2023-08-02T09:12:17.000Z</time>
      </trkpt>
      <trkpt lat="43.78303" lon="7.10931">
        <ele>660.79998779297</ele>
        <time>2023-08-02T09:12:18.000Z</time>
      </trkpt>
      <trkpt lat="43.78301" lon="7.10933">
        <ele>660.79998779297</ele>
        <time>2023-08-02T09:12:19.000Z</time>
      </trkpt>
      <trkpt lat="43.78299" lon="7.10936">
        <ele>661</ele>
        <time>2023-08-02T09:12:20.000Z</time>
      </trkpt>
      <trkpt lat="43.78297" lon="7.10939">
        <ele>661</ele>
        <time>2023-08-02T09:12:21.000Z</time>
      </trkpt>
      <trkpt lat="43.78297" lon="7.1094">
        <ele>661</ele>
        <time>2023-08-02T09:12:22.000Z</time>
      </trkpt>
      <trkpt lat="43.78296" lon="7.1094">
        <ele>661</ele>
        <time>2023-08-02T09:12:23.000Z</time>
      </trkpt>
      <trkpt lat="43.78295" lon="7.10941">
        <ele>661.40002441406</ele>
        <time>2023-08-02T09:12:24.000Z</time>
      </trkpt>
      <trkpt lat="43.78295" lon="7.10941">
        <ele>661.79998779297</ele>
        <time>2023-08-02T09:12:25.000Z</time>
      </trkpt>
      <trkpt lat="43.78294" lon="7.10942">
        <ele>662</ele>
        <time>2023-08-02T09:12:26.000Z</time>
      </trkpt>
      <trkpt lat="43.78294" lon="7.10942">
        <ele>662.40002441406</ele>
        <time>2023-08-02T09:12:27.000Z</time>
      </trkpt>
      <trkpt lat="43.78294" lon="7.10942">
        <ele>662.59997558594</ele>
        <time>2023-08-02T09:12:28.000Z</time>
      </trkpt>
      <trkpt lat="43.78294" lon="7.10942">
        <ele>662.79998779297</ele>
        <time>2023-08-02T09:12:29.000Z</time>
      </trkpt>
      <trkpt lat="43.78294" lon="7.10942">
        <ele>662.79998779297</ele>
        <time>2023-08-02T09:12:30.000Z</time>
      </trkpt>
      <trkpt lat="43.78293" lon="7.10942">
        <ele>663</ele>
        <time>2023-08-02T09:12:31.000Z</time>
      </trkpt>
      <trkpt lat="43.78293" lon="7.10943">
        <ele>663</ele>
        <time>2023-08-02T09:12:32.000Z</time>
      </trkpt>
      <trkpt lat="43.78293" lon="7.10943">
        <ele>663</ele>
        <time>2023-08-02T09:12:33.000Z</time>
      </trkpt>
      <trkpt lat="43.78293" lon="7.10943">
        <ele>663</ele>
        <time>2023-08-02T09:12:34.000Z</time>
      </trkpt>
      <trkpt lat="43.78292" lon="7.10944">
        <ele>663</ele>
        <time>2023-08-02T09:12:35.000Z</time>
      </trkpt>
      <trkpt lat="43.78291" lon="7.10944">
        <ele>663</ele>
        <time>2023-08-02T09:12:36.000Z</time>
      </trkpt>
      <trkpt lat="43.7829" lon="7.10945">
        <ele>663.20001220703</ele>
        <time>2023-08-02T09:12:37.000Z</time>
      </trkpt>
      <trkpt lat="43.7829" lon="7.10946">
        <ele>663.20001220703</ele>
        <time>2023-08-02T09:12:38.000Z</time>
      </trkpt>
      <trkpt lat="43.78288" lon="7.10948">
        <ele>663.20001220703</ele>
        <time>2023-08-02T09:12:39.000Z</time>
      </trkpt>
      <trkpt lat="43.78287" lon="7.1095">
        <ele>663.20001220703</ele>
        <time>2023-08-02T09:12:40.000Z</time>
      </trkpt>
      <trkpt lat="43.78286" lon="7.10952">
        <ele>663.20001220703</ele>
        <time>2023-08-02T09:12:41.000Z</time>
      </trkpt>
      <trkpt lat="43.78284" lon="7.10954">
        <ele>663.20001220703</ele>
        <time>2023-08-02T09:12:42.000Z</time>
      </trkpt>
      <trkpt lat="43.78283" lon="7.10956">
        <ele>663.40002441406</ele>
        <time>2023-08-02T09:12:43.000Z</time>
      </trkpt>
      <trkpt lat="43.78282" lon="7.10958">
        <ele>663.59997558594</ele>
        <time>2023-08-02T09:12:44.000Z</time>
      </trkpt>
      <trkpt lat="43.78281" lon="7.10959">
        <ele>663.79998779297</ele>
        <time>2023-08-02T09:12:45.000Z</time>
      </trkpt>
      <trkpt lat="43.7828" lon="7.1096">
        <ele>663.79998779297</ele>
        <time>2023-08-02T09:12:46.000Z</time>
      </trkpt>
      <trkpt lat="43.78279" lon="7.1096">
        <ele>664.40002441406</ele>
        <time>2023-08-02T09:12:47.000Z</time>
      </trkpt>
      <trkpt lat="43.78279" lon="7.10961">
        <ele>664.59997558594</ele>
        <time>2023-08-02T09:12:48.000Z</time>
      </trkpt>
      <trkpt lat="43.78279" lon="7.10961">
        <ele>664.59997558594</ele>
        <time>2023-08-02T09:12:49.000Z</time>
      </trkpt>
      <trkpt lat="43.78279" lon="7.10961">
        <ele>665</ele>
        <time>2023-08-02T09:12:50.000Z</time>
      </trkpt>
      <trkpt lat="43.78279" lon="7.10961">
        <ele>665</ele>
        <time>2023-08-02T09:12:51.000Z</time>
      </trkpt>
      <trkpt lat="43.78278" lon="7.10962">
        <ele>665</ele>
        <time>2023-08-02T09:12:52.000Z</time>
      </trkpt>
      <trkpt lat="43.78278" lon="7.10962">
        <ele>665</ele>
        <time>2023-08-02T09:12:53.000Z</time>
      </trkpt>
      <trkpt lat="43.78277" lon="7.10963">
        <ele>665.20001220703</ele>
        <time>2023-08-02T09:12:54.000Z</time>
      </trkpt>
      <trkpt lat="43.78277" lon="7.10963">
        <ele>665.20001220703</ele>
        <time>2023-08-02T09:12:55.000Z</time>
      </trkpt>
      <trkpt lat="43.78277" lon="7.10964">
        <ele>665.20001220703</ele>
        <time>2023-08-02T09:12:56.000Z</time>
      </trkpt>
      <trkpt lat="43.78277" lon="7.10965">
        <ele>665.40002441406</ele>
        <time>2023-08-02T09:12:57.000Z</time>
      </trkpt>
      <trkpt lat="43.78276" lon="7.10965">
        <ele>665.40002441406</ele>
        <time>2023-08-02T09:12:58.000Z</time>
      </trkpt>
      <trkpt lat="43.78276" lon="7.10966">
        <ele>665.40002441406</ele>
        <time>2023-08-02T09:12:59.000Z</time>
      </trkpt>
      <trkpt lat="43.78277" lon="7.10966">
        <ele>665.40002441406</ele>
        <time>2023-08-02T09:13:00.000Z</time>
      </trkpt>
      <trkpt lat="43.78277" lon="7.10966">
        <ele>665.40002441406</ele>
        <time>2023-08-02T09:13:01.000Z</time>
      </trkpt>
      <trkpt lat="43.78276" lon="7.10966">
        <ele>665.40002441406</ele>
        <time>2023-08-02T09:13:02.000Z</time>
      </trkpt>
      <trkpt lat="43.78276" lon="7.10967">
        <ele>665.20001220703</ele>
        <time>2023-08-02T09:13:03.000Z</time>
      </trkpt>
      <trkpt lat="43.78275" lon="7.1097">
        <ele>665.20001220703</ele>
        <time>2023-08-02T09:13:04.000Z</time>
      </trkpt>
      <trkpt lat="43.78274" lon="7.10971">
        <ele>665.20001220703</ele>
        <time>2023-08-02T09:13:05.000Z</time>
      </trkpt>
      <trkpt lat="43.78273" lon="7.10972">
        <ele>665.20001220703</ele>
        <time>2023-08-02T09:13:06.000Z</time>
      </trkpt>
      <trkpt lat="43.78272" lon="7.10974">
        <ele>665.20001220703</ele>
        <time>2023-08-02T09:13:07.000Z</time>
      </trkpt>
      <trkpt lat="43.78271" lon="7.10975">
        <ele>665.20001220703</ele>
        <time>2023-08-02T09:13:08.000Z</time>
      </trkpt>
      <trkpt lat="43.78272" lon="7.10975">
        <ele>665.20001220703</ele>
        <time>2023-08-02T09:13:09.000Z</time>
      </trkpt>
      <trkpt lat="43.78271" lon="7.10976">
        <ele>665.20001220703</ele>
        <time>2023-08-02T09:13:10.000Z</time>
      </trkpt>
      <trkpt lat="43.78271" lon="7.10976">
        <ele>665.20001220703</ele>
        <time>2023-08-02T09:13:11.000Z</time>
      </trkpt>
      <trkpt lat="43.78271" lon="7.10976">
        <ele>665.20001220703</ele>
        <time>2023-08-02T09:13:12.000Z</time>
      </trkpt>
      <trkpt lat="43.78271" lon="7.10976">
        <ele>665.40002441406</ele>
        <time>2023-08-02T09:13:13.000Z</time>
      </trkpt>
      <trkpt lat="43.78271" lon="7.10976">
        <ele>665.40002441406</ele>
        <time>2023-08-02T09:13:14.000Z</time>
      </trkpt>
      <trkpt lat="43.78271" lon="7.10976">
        <ele>665.40002441406</ele>
        <time>2023-08-02T09:13:15.000Z</time>
      </trkpt>
      <trkpt lat="43.78271" lon="7.10976">
        <ele>665.40002441406</ele>
        <time>2023-08-02T09:13:16.000Z</time>
      </trkpt>
      <trkpt lat="43.78271" lon="7.10976">
        <ele>665.40002441406</ele>
        <time>2023-08-02T09:13:17.000Z</time>
      </trkpt>
      <trkpt lat="43.7827" lon="7.10977">
        <ele>665.59997558594</ele>
        <time>2023-08-02T09:13:18.000Z</time>
      </trkpt>
      <trkpt lat="43.7827" lon="7.10978">
        <ele>665.59997558594</ele>
        <time>2023-08-02T09:13:19.000Z</time>
      </trkpt>
      <trkpt lat="43.7827" lon="7.10978">
        <ele>665.59997558594</ele>
        <time>2023-08-02T09:13:20.000Z</time>
      </trkpt>
      <trkpt lat="43.7827" lon="7.10979">
        <ele>665.59997558594</ele>
        <time>2023-08-02T09:13:21.000Z</time>
      </trkpt>
      <trkpt lat="43.78269" lon="7.10979">
        <ele>665.59997558594</ele>
        <time>2023-08-02T09:13:22.000Z</time>
      </trkpt>
      <trkpt lat="43.78269" lon="7.10979">
        <ele>665.79998779297</ele>
        <time>2023-08-02T09:13:23.000Z</time>
      </trkpt>
      <trkpt lat="43.78268" lon="7.1098">
        <ele>665.59997558594</ele>
        <time>2023-08-02T09:13:24.000Z</time>
      </trkpt>
      <trkpt lat="43.78268" lon="7.10979">
        <ele>665.59997558594</ele>
        <time>2023-08-02T09:13:25.000Z</time>
      </trkpt>
      <trkpt lat="43.78268" lon="7.1098">
        <ele>665.59997558594</ele>
        <time>2023-08-02T09:13:26.000Z</time>
      </trkpt>
      <trkpt lat="43.78267" lon="7.1098">
        <ele>665.79998779297</ele>
        <time>2023-08-02T09:13:27.000Z</time>
      </trkpt>
      <trkpt lat="43.78267" lon="7.1098">
        <ele>665.59997558594</ele>
        <time>2023-08-02T09:13:28.000Z</time>
      </trkpt>
      <trkpt lat="43.78266" lon="7.10981">
        <ele>665.59997558594</ele>
        <time>2023-08-02T09:13:29.000Z</time>
      </trkpt>
      <trkpt lat="43.78265" lon="7.10981">
        <ele>665.59997558594</ele>
        <time>2023-08-02T09:13:30.000Z</time>
      </trkpt>
      <trkpt lat="43.78265" lon="7.10981">
        <ele>665.59997558594</ele>
        <time>2023-08-02T09:13:31.000Z</time>
      </trkpt>
      <trkpt lat="43.78264" lon="7.10982">
        <ele>665.59997558594</ele>
        <time>2023-08-02T09:13:32.000Z</time>
      </trkpt>
      <trkpt lat="43.78264" lon="7.10982">
        <ele>665.59997558594</ele>
        <time>2023-08-02T09:13:33.000Z</time>
      </trkpt>
      <trkpt lat="43.78263" lon="7.10982">
        <ele>665.40002441406</ele>
        <time>2023-08-02T09:13:34.000Z</time>
      </trkpt>
      <trkpt lat="43.78263" lon="7.10983">
        <ele>665.40002441406</ele>
        <time>2023-08-02T09:13:35.000Z</time>
      </trkpt>
      <trkpt lat="43.78263" lon="7.10983">
        <ele>665.40002441406</ele>
        <time>2023-08-02T09:13:36.000Z</time>
      </trkpt>
      <trkpt lat="43.78263" lon="7.10983">
        <ele>665.40002441406</ele>
        <time>2023-08-02T09:13:37.000Z</time>
      </trkpt>
      <trkpt lat="43.78263" lon="7.10983">
        <ele>665.40002441406</ele>
        <time>2023-08-02T09:13:38.000Z</time>
      </trkpt>
      <trkpt lat="43.78263" lon="7.10983">
        <ele>665.40002441406</ele>
        <time>2023-08-02T09:13:39.000Z</time>
      </trkpt>
      <trkpt lat="43.78263" lon="7.10983">
        <ele>665.40002441406</ele>
        <time>2023-08-02T09:13:40.000Z</time>
      </trkpt>
      <trkpt lat="43.78263" lon="7.10983">
        <ele>665.20001220703</ele>
        <time>2023-08-02T09:13:41.000Z</time>
      </trkpt>
      <trkpt lat="43.78263" lon="7.10983">
        <ele>665.20001220703</ele>
        <time>2023-08-02T09:13:42.000Z</time>
      </trkpt>
      <trkpt lat="43.78263" lon="7.10983">
        <ele>665.20001220703</ele>
        <time>2023-08-02T09:13:43.000Z</time>
      </trkpt>
      <trkpt lat="43.78263" lon="7.10983">
        <ele>665.20001220703</ele>
        <time>2023-08-02T09:13:44.000Z</time>
      </trkpt>
      <trkpt lat="43.78263" lon="7.10983">
        <ele>665.20001220703</ele>
        <time>2023-08-02T09:13:45.000Z</time>
      </trkpt>
      <trkpt lat="43.78263" lon="7.10983">
        <ele>665.20001220703</ele>
        <time>2023-08-02T09:13:46.000Z</time>
      </trkpt>
      <trkpt lat="43.78264" lon="7.10983">
        <ele>665.20001220703</ele>
        <time>2023-08-02T09:13:47.000Z</time>
      </trkpt>
      <trkpt lat="43.78263" lon="7.10983">
        <ele>665.20001220703</ele>
        <time>2023-08-02T09:13:48.000Z</time>
      </trkpt>
      <trkpt lat="43.78263" lon="7.10983">
        <ele>665.20001220703</ele>
        <time>2023-08-02T09:13:49.000Z</time>
      </trkpt>
      <trkpt lat="43.78263" lon="7.10983">
        <ele>665</ele>
        <time>2023-08-02T09:13:50.000Z</time>
      </trkpt>
      <trkpt lat="43.78263" lon="7.10983">
        <ele>665</ele>
        <time>2023-08-02T09:13:51.000Z</time>
      </trkpt>
      <trkpt lat="43.78263" lon="7.10983">
        <ele>665</ele>
        <time>2023-08-02T09:13:52.000Z</time>
      </trkpt>
      <trkpt lat="43.78263" lon="7.10983">
        <ele>665</ele>
        <time>2023-08-02T09:13:53.000Z</time>
      </trkpt>
      <trkpt lat="43.78263" lon="7.10983">
        <ele>665</ele>
        <time>2023-08-02T09:13:54.000Z</time>
      </trkpt>
      <trkpt lat="43.78263" lon="7.10983">
        <ele>665</ele>
        <time>2023-08-02T09:13:55.000Z</time>
      </trkpt>
      <trkpt lat="43.78263" lon="7.10983">
        <ele>665</ele>
        <time>2023-08-02T09:13:56.000Z</time>
      </trkpt>
      <trkpt lat="43.78263" lon="7.10983">
        <ele>665</ele>
        <time>2023-08-02T09:13:57.000Z</time>
      </trkpt>
      <trkpt lat="43.78263" lon="7.10983">
        <ele>665</ele>
        <time>2023-08-02T09:13:58.000Z</time>
      </trkpt>
      <trkpt lat="43.78263" lon="7.10983">
        <ele>664.79998779297</ele>
        <time>2023-08-02T09:13:59.000Z</time>
      </trkpt>
      <trkpt lat="43.78263" lon="7.10983">
        <ele>664.79998779297</ele>
        <time>2023-08-02T09:14:00.000Z</time>
      </trkpt>
      <trkpt lat="43.78263" lon="7.10983">
        <ele>664.79998779297</ele>
        <time>2023-08-02T09:14:01.000Z</time>
      </trkpt>
      <trkpt lat="43.78263" lon="7.10983">
        <ele>664.79998779297</ele>
        <time>2023-08-02T09:14:02.000Z</time>
      </trkpt>
      <trkpt lat="43.78263" lon="7.10983">
        <ele>664.79998779297</ele>
        <time>2023-08-02T09:14:03.000Z</time>
      </trkpt>
      <trkpt lat="43.78263" lon="7.10983">
        <ele>664.79998779297</ele>
        <time>2023-08-02T09:14:04.000Z</time>
      </trkpt>
      <trkpt lat="43.78263" lon="7.10983">
        <ele>664.79998779297</ele>
        <time>2023-08-02T09:14:05.000Z</time>
      </trkpt>
      <trkpt lat="43.78263" lon="7.10983">
        <ele>664.79998779297</ele>
        <time>2023-08-02T09:14:06.000Z</time>
      </trkpt>
      <trkpt lat="43.78263" lon="7.10983">
        <ele>664.79998779297</ele>
        <time>2023-08-02T09:14:07.000Z</time>
      </trkpt>
      <trkpt lat="43.78263" lon="7.10983">
        <ele>664.79998779297</ele>
        <time>2023-08-02T09:14:08.000Z</time>
      </trkpt>
      <trkpt lat="43.78263" lon="7.10983">
        <ele>664.79998779297</ele>
        <time>2023-08-02T09:14:09.000Z</time>
      </trkpt>
      <trkpt lat="43.78263" lon="7.10983">
        <ele>664.79998779297</ele>
        <time>2023-08-02T09:14:10.000Z</time>
      </trkpt>
      <trkpt lat="43.78263" lon="7.10983">
        <ele>664.79998779297</ele>
        <time>2023-08-02T09:14:11.000Z</time>
      </trkpt>
      <trkpt lat="43.78263" lon="7.10983">
        <ele>664.79998779297</ele>
        <time>2023-08-02T09:14:12.000Z</time>
      </trkpt>
      <trkpt lat="43.78263" lon="7.10983">
        <ele>664.59997558594</ele>
        <time>2023-08-02T09:14:13.000Z</time>
      </trkpt>
      <trkpt lat="43.78263" lon="7.10983">
        <ele>664.59997558594</ele>
        <time>2023-08-02T09:14:14.000Z</time>
      </trkpt>
      <trkpt lat="43.78263" lon="7.10983">
        <ele>664.59997558594</ele>
        <time>2023-08-02T09:14:15.000Z</time>
      </trkpt>
      <trkpt lat="43.78263" lon="7.10983">
        <ele>664.59997558594</ele>
        <time>2023-08-02T09:14:16.000Z</time>
      </trkpt>
      <trkpt lat="43.78263" lon="7.10983">
        <ele>664.59997558594</ele>
        <time>2023-08-02T09:14:17.000Z</time>
      </trkpt>
      <trkpt lat="43.78263" lon="7.10983">
        <ele>664.59997558594</ele>
        <time>2023-08-02T09:14:18.000Z</time>
      </trkpt>
      <trkpt lat="43.78263" lon="7.10983">
        <ele>664.59997558594</ele>
        <time>2023-08-02T09:14:19.000Z</time>
      </trkpt>
      <trkpt lat="43.78263" lon="7.10983">
        <ele>664.40002441406</ele>
        <time>2023-08-02T09:14:20.000Z</time>
      </trkpt>
      <trkpt lat="43.78263" lon="7.10983">
        <ele>664.40002441406</ele>
        <time>2023-08-02T09:14:21.000Z</time>
      </trkpt>
      <trkpt lat="43.78263" lon="7.10983">
        <ele>664.40002441406</ele>
        <time>2023-08-02T09:14:22.000Z</time>
      </trkpt>
      <trkpt lat="43.78263" lon="7.10983">
        <ele>664.40002441406</ele>
        <time>2023-08-02T09:14:23.000Z</time>
      </trkpt>
      <trkpt lat="43.78263" lon="7.10983">
        <ele>664.40002441406</ele>
        <time>2023-08-02T09:14:24.000Z</time>
      </trkpt>
      <trkpt lat="43.78263" lon="7.10983">
        <ele>664.40002441406</ele>
        <time>2023-08-02T09:14:25.000Z</time>
      </trkpt>
      <trkpt lat="43.78263" lon="7.10983">
        <ele>664.40002441406</ele>
        <time>2023-08-02T09:14:26.000Z</time>
      </trkpt>
      <trkpt lat="43.78263" lon="7.10983">
        <ele>664.40002441406</ele>
        <time>2023-08-02T09:14:27.000Z</time>
      </trkpt>
      <trkpt lat="43.78263" lon="7.10983">
        <ele>664.20001220703</ele>
        <time>2023-08-02T09:14:28.000Z</time>
      </trkpt>
      <trkpt lat="43.78263" lon="7.10983">
        <ele>664.40002441406</ele>
        <time>2023-08-02T09:14:29.000Z</time>
      </trkpt>
      <trkpt lat="43.78263" lon="7.10983">
        <ele>664.20001220703</ele>
        <time>2023-08-02T09:14:30.000Z</time>
      </trkpt>
      <trkpt lat="43.78263" lon="7.10983">
        <ele>664.20001220703</ele>
        <time>2023-08-02T09:14:31.000Z</time>
      </trkpt>
      <trkpt lat="43.78263" lon="7.10983">
        <ele>664.20001220703</ele>
        <time>2023-08-02T09:14:32.000Z</time>
      </trkpt>
      <trkpt lat="43.78263" lon="7.10983">
        <ele>664.20001220703</ele>
        <time>2023-08-02T09:14:33.000Z</time>
      </trkpt>
      <trkpt lat="43.78263" lon="7.10983">
        <ele>664.20001220703</ele>
        <time>2023-08-02T09:14:34.000Z</time>
      </trkpt>
      <trkpt lat="43.78263" lon="7.10983">
        <ele>664.20001220703</ele>
        <time>2023-08-02T09:14:35.000Z</time>
      </trkpt>
      <trkpt lat="43.78263" lon="7.10983">
        <ele>664.20001220703</ele>
        <time>2023-08-02T09:14:36.000Z</time>
      </trkpt>
      <trkpt lat="43.78263" lon="7.10983">
        <ele>664.20001220703</ele>
        <time>2023-08-02T09:14:37.000Z</time>
      </trkpt>
      <trkpt lat="43.78264" lon="7.10983">
        <ele>664.20001220703</ele>
        <time>2023-08-02T09:14:38.000Z</time>
      </trkpt>
      <trkpt lat="43.78264" lon="7.10983">
        <ele>664.20001220703</ele>
        <time>2023-08-02T09:14:39.000Z</time>
      </trkpt>
      <trkpt lat="43.78264" lon="7.10983">
        <ele>664.20001220703</ele>
        <time>2023-08-02T09:14:40.000Z</time>
      </trkpt>
      <trkpt lat="43.78264" lon="7.10983">
        <ele>664.20001220703</ele>
        <time>2023-08-02T09:14:41.000Z</time>
      </trkpt>
      <trkpt lat="43.78264" lon="7.10983">
        <ele>664.20001220703</ele>
        <time>2023-08-02T09:14:42.000Z</time>
      </trkpt>
      <trkpt lat="43.78263" lon="7.10983">
        <ele>664.20001220703</ele>
        <time>2023-08-02T09:14:43.000Z</time>
      </trkpt>
      <trkpt lat="43.78263" lon="7.10983">
        <ele>664.20001220703</ele>
        <time>2023-08-02T09:14:44.000Z</time>
      </trkpt>
      <trkpt lat="43.78263" lon="7.10983">
        <ele>664</ele>
        <time>2023-08-02T09:14:45.000Z</time>
      </trkpt>
      <trkpt lat="43.78263" lon="7.10983">
        <ele>664</ele>
        <time>2023-08-02T09:14:46.000Z</time>
      </trkpt>
      <trkpt lat="43.78263" lon="7.10983">
        <ele>664</ele>
        <time>2023-08-02T09:14:47.000Z</time>
      </trkpt>
      <trkpt lat="43.78263" lon="7.10983">
        <ele>664</ele>
        <time>2023-08-02T09:14:48.000Z</time>
      </trkpt>
      <trkpt lat="43.78263" lon="7.10983">
        <ele>664</ele>
        <time>2023-08-02T09:14:49.000Z</time>
      </trkpt>
      <trkpt lat="43.78263" lon="7.10983">
        <ele>664</ele>
        <time>2023-08-02T09:14:50.000Z</time>
      </trkpt>
      <trkpt lat="43.78263" lon="7.10983">
        <ele>664</ele>
        <time>2023-08-02T09:14:51.000Z</time>
      </trkpt>
      <trkpt lat="43.78263" lon="7.10983">
        <ele>664</ele>
        <time>2023-08-02T09:14:52.000Z</time>
      </trkpt>
      <trkpt lat="43.78263" lon="7.10983">
        <ele>664</ele>
        <time>2023-08-02T09:14:53.000Z</time>
      </trkpt>
      <trkpt lat="43.78263" lon="7.10983">
        <ele>664</ele>
        <time>2023-08-02T09:14:54.000Z</time>
      </trkpt>
      <trkpt lat="43.78263" lon="7.10983">
        <ele>664</ele>
        <time>2023-08-02T09:14:55.000Z</time>
      </trkpt>
      <trkpt lat="43.78263" lon="7.10983">
        <ele>664</ele>
        <time>2023-08-02T09:14:56.000Z</time>
      </trkpt>
      <trkpt lat="43.78263" lon="7.10983">
        <ele>664</ele>
        <time>2023-08-02T09:14:57.000Z</time>
      </trkpt>
      <trkpt lat="43.78263" lon="7.10983">
        <ele>664</ele>
        <time>2023-08-02T09:14:58.000Z</time>
      </trkpt>
      <trkpt lat="43.78263" lon="7.10983">
        <ele>664</ele>
        <time>2023-08-02T09:14:59.000Z</time>
      </trkpt>
      <trkpt lat="43.78263" lon="7.10983">
        <ele>664</ele>
        <time>2023-08-02T09:15:00.000Z</time>
      </trkpt>
      <trkpt lat="43.78263" lon="7.10983">
        <ele>664</ele>
        <time>2023-08-02T09:15:01.000Z</time>
      </trkpt>
      <trkpt lat="43.78263" lon="7.10983">
        <ele>664</ele>
        <time>2023-08-02T09:15:02.000Z</time>
      </trkpt>
      <trkpt lat="43.78263" lon="7.10983">
        <ele>664</ele>
        <time>2023-08-02T09:15:03.000Z</time>
      </trkpt>
      <trkpt lat="43.78263" lon="7.10983">
        <ele>664</ele>
        <time>2023-08-02T09:15:04.000Z</time>
      </trkpt>
      <trkpt lat="43.78263" lon="7.10983">
        <ele>664</ele>
        <time>2023-08-02T09:15:05.000Z</time>
      </trkpt>
      <trkpt lat="43.78263" lon="7.10983">
        <ele>664</ele>
        <time>2023-08-02T09:15:06.000Z</time>
      </trkpt>
      <trkpt lat="43.78263" lon="7.10983">
        <ele>664</ele>
        <time>2023-08-02T09:15:07.000Z</time>
      </trkpt>
      <trkpt lat="43.78263" lon="7.10983">
        <ele>664</ele>
        <time>2023-08-02T09:15:08.000Z</time>
      </trkpt>
      <trkpt lat="43.78263" lon="7.10983">
        <ele>664</ele>
        <time>2023-08-02T09:15:09.000Z</time>
      </trkpt>
      <trkpt lat="43.78263" lon="7.10983">
        <ele>664</ele>
        <time>2023-08-02T09:15:10.000Z</time>
      </trkpt>
      <trkpt lat="43.78263" lon="7.10983">
        <ele>663.79998779297</ele>
        <time>2023-08-02T09:15:11.000Z</time>
      </trkpt>
      <trkpt lat="43.78263" lon="7.10983">
        <ele>663.79998779297</ele>
        <time>2023-08-02T09:15:12.000Z</time>
      </trkpt>
      <trkpt lat="43.78263" lon="7.10983">
        <ele>663.79998779297</ele>
        <time>2023-08-02T09:15:13.000Z</time>
      </trkpt>
      <trkpt lat="43.78263" lon="7.10983">
        <ele>663.79998779297</ele>
        <time>2023-08-02T09:15:14.000Z</time>
      </trkpt>
      <trkpt lat="43.78263" lon="7.10983">
        <ele>663.79998779297</ele>
        <time>2023-08-02T09:15:15.000Z</time>
      </trkpt>
      <trkpt lat="43.78263" lon="7.10983">
        <ele>663.79998779297</ele>
        <time>2023-08-02T09:15:16.000Z</time>
      </trkpt>
      <trkpt lat="43.78263" lon="7.10983">
        <ele>663.79998779297</ele>
        <time>2023-08-02T09:15:17.000Z</time>
      </trkpt>
      <trkpt lat="43.78263" lon="7.10983">
        <ele>663.79998779297</ele>
        <time>2023-08-02T09:15:18.000Z</time>
      </trkpt>
      <trkpt lat="43.78263" lon="7.10983">
        <ele>663.79998779297</ele>
        <time>2023-08-02T09:15:19.000Z</time>
      </trkpt>
      <trkpt lat="43.78263" lon="7.10983">
        <ele>663.79998779297</ele>
        <time>2023-08-02T09:15:20.000Z</time>
      </trkpt>
      <trkpt lat="43.78263" lon="7.10983">
        <ele>663.79998779297</ele>
        <time>2023-08-02T09:15:21.000Z</time>
      </trkpt>
      <trkpt lat="43.78263" lon="7.10983">
        <ele>663.79998779297</ele>
        <time>2023-08-02T09:15:22.000Z</time>
      </trkpt>
      <trkpt lat="43.78263" lon="7.10983">
        <ele>663.79998779297</ele>
        <time>2023-08-02T09:15:23.000Z</time>
      </trkpt>
      <trkpt lat="43.78263" lon="7.10983">
        <ele>663.79998779297</ele>
        <time>2023-08-02T09:15:24.000Z</time>
      </trkpt>
      <trkpt lat="43.78263" lon="7.10983">
        <ele>663.79998779297</ele>
        <time>2023-08-02T09:15:25.000Z</time>
      </trkpt>
      <trkpt lat="43.78263" lon="7.10983">
        <ele>663.79998779297</ele>
        <time>2023-08-02T09:15:26.000Z</time>
      </trkpt>
      <trkpt lat="43.78263" lon="7.10983">
        <ele>663.59997558594</ele>
        <time>2023-08-02T09:15:27.000Z</time>
      </trkpt>
      <trkpt lat="43.78263" lon="7.10983">
        <ele>663.59997558594</ele>
        <time>2023-08-02T09:15:28.000Z</time>
      </trkpt>
      <trkpt lat="43.78263" lon="7.10983">
        <ele>663.59997558594</ele>
        <time>2023-08-02T09:15:29.000Z</time>
      </trkpt>
      <trkpt lat="43.78263" lon="7.10983">
        <ele>663.59997558594</ele>
        <time>2023-08-02T09:15:30.000Z</time>
      </trkpt>
      <trkpt lat="43.78263" lon="7.10983">
        <ele>663.59997558594</ele>
        <time>2023-08-02T09:15:31.000Z</time>
      </trkpt>
      <trkpt lat="43.78263" lon="7.10983">
        <ele>663.59997558594</ele>
        <time>2023-08-02T09:15:32.000Z</time>
      </trkpt>
      <trkpt lat="43.78263" lon="7.10983">
        <ele>663.59997558594</ele>
        <time>2023-08-02T09:15:33.000Z</time>
      </trkpt>
      <trkpt lat="43.78263" lon="7.10983">
        <ele>663.59997558594</ele>
        <time>2023-08-02T09:15:34.000Z</time>
      </trkpt>
      <trkpt lat="43.78263" lon="7.10983">
        <ele>663.59997558594</ele>
        <time>2023-08-02T09:15:35.000Z</time>
      </trkpt>
      <trkpt lat="43.78263" lon="7.10983">
        <ele>663.59997558594</ele>
        <time>2023-08-02T09:15:36.000Z</time>
      </trkpt>
      <trkpt lat="43.78263" lon="7.10983">
        <ele>663.59997558594</ele>
        <time>2023-08-02T09:15:37.000Z</time>
      </trkpt>
      <trkpt lat="43.78263" lon="7.10983">
        <ele>663.59997558594</ele>
        <time>2023-08-02T09:15:38.000Z</time>
      </trkpt>
      <trkpt lat="43.78263" lon="7.10983">
        <ele>663.59997558594</ele>
        <time>2023-08-02T09:15:39.000Z</time>
      </trkpt>
      <trkpt lat="43.78263" lon="7.10983">
        <ele>663.59997558594</ele>
        <time>2023-08-02T09:15:40.000Z</time>
      </trkpt>
      <trkpt lat="43.78263" lon="7.10983">
        <ele>663.59997558594</ele>
        <time>2023-08-02T09:15:41.000Z</time>
      </trkpt>
      <trkpt lat="43.78263" lon="7.10983">
        <ele>663.59997558594</ele>
        <time>2023-08-02T09:15:42.000Z</time>
      </trkpt>
      <trkpt lat="43.78263" lon="7.10983">
        <ele>663.59997558594</ele>
        <time>2023-08-02T09:15:43.000Z</time>
      </trkpt>
      <trkpt lat="43.78263" lon="7.10983">
        <ele>663.59997558594</ele>
        <time>2023-08-02T09:15:44.000Z</time>
      </trkpt>
      <trkpt lat="43.78263" lon="7.10983">
        <ele>663.59997558594</ele>
        <time>2023-08-02T09:15:45.000Z</time>
      </trkpt>
      <trkpt lat="43.78263" lon="7.10983">
        <ele>663.59997558594</ele>
        <time>2023-08-02T09:15:46.000Z</time>
      </trkpt>
      <trkpt lat="43.78263" lon="7.10983">
        <ele>663.59997558594</ele>
        <time>2023-08-02T09:15:47.000Z</time>
      </trkpt>
      <trkpt lat="43.78263" lon="7.10983">
        <ele>663.40002441406</ele>
        <time>2023-08-02T09:15:48.000Z</time>
      </trkpt>
      <trkpt lat="43.78263" lon="7.10983">
        <ele>663.40002441406</ele>
        <time>2023-08-02T09:15:49.000Z</time>
      </trkpt>
      <trkpt lat="43.78263" lon="7.10983">
        <ele>663.40002441406</ele>
        <time>2023-08-02T09:15:50.000Z</time>
      </trkpt>
      <trkpt lat="43.78263" lon="7.10983">
        <ele>663.40002441406</ele>
        <time>2023-08-02T09:15:51.000Z</time>
      </trkpt>
      <trkpt lat="43.78263" lon="7.10983">
        <ele>663.40002441406</ele>
        <time>2023-08-02T09:15:52.000Z</time>
      </trkpt>
      <trkpt lat="43.78263" lon="7.10983">
        <ele>663.40002441406</ele>
        <time>2023-08-02T09:15:53.000Z</time>
      </trkpt>
      <trkpt lat="43.78263" lon="7.10983">
        <ele>663.40002441406</ele>
        <time>2023-08-02T09:15:54.000Z</time>
      </trkpt>
      <trkpt lat="43.78263" lon="7.10983">
        <ele>663.40002441406</ele>
        <time>2023-08-02T09:15:55.000Z</time>
      </trkpt>
      <trkpt lat="43.78263" lon="7.10983">
        <ele>663.40002441406</ele>
        <time>2023-08-02T09:15:56.000Z</time>
      </trkpt>
      <trkpt lat="43.78263" lon="7.10983">
        <ele>663.40002441406</ele>
        <time>2023-08-02T09:15:57.000Z</time>
      </trkpt>
      <trkpt lat="43.78264" lon="7.10983">
        <ele>663.40002441406</ele>
        <time>2023-08-02T09:15:58.000Z</time>
      </trkpt>
      <trkpt lat="43.78264" lon="7.10983">
        <ele>663.40002441406</ele>
        <time>2023-08-02T09:15:59.000Z</time>
      </trkpt>
      <trkpt lat="43.78264" lon="7.10983">
        <ele>663.40002441406</ele>
        <time>2023-08-02T09:16:00.000Z</time>
      </trkpt>
      <trkpt lat="43.78263" lon="7.10983">
        <ele>663.40002441406</ele>
        <time>2023-08-02T09:16:01.000Z</time>
      </trkpt>
      <trkpt lat="43.78263" lon="7.10983">
        <ele>663.40002441406</ele>
        <time>2023-08-02T09:16:02.000Z</time>
      </trkpt>
      <trkpt lat="43.78263" lon="7.10983">
        <ele>663.40002441406</ele>
        <time>2023-08-02T09:16:03.000Z</time>
      </trkpt>
      <trkpt lat="43.78263" lon="7.10983">
        <ele>663.40002441406</ele>
        <time>2023-08-02T09:16:04.000Z</time>
      </trkpt>
      <trkpt lat="43.78263" lon="7.10983">
        <ele>663.40002441406</ele>
        <time>2023-08-02T09:16:05.000Z</time>
      </trkpt>
      <trkpt lat="43.78263" lon="7.10983">
        <ele>663.40002441406</ele>
        <time>2023-08-02T09:16:06.000Z</time>
      </trkpt>
      <trkpt lat="43.78263" lon="7.10983">
        <ele>663.40002441406</ele>
        <time>2023-08-02T09:16:07.000Z</time>
      </trkpt>
      <trkpt lat="43.78263" lon="7.10983">
        <ele>663.40002441406</ele>
        <time>2023-08-02T09:16:08.000Z</time>
      </trkpt>
      <trkpt lat="43.78263" lon="7.10983">
        <ele>663.40002441406</ele>
        <time>2023-08-02T09:16:09.000Z</time>
      </trkpt>
      <trkpt lat="43.78263" lon="7.10983">
        <ele>663.40002441406</ele>
        <time>2023-08-02T09:16:10.000Z</time>
      </trkpt>
      <trkpt lat="43.78263" lon="7.10983">
        <ele>663.40002441406</ele>
        <time>2023-08-02T09:16:11.000Z</time>
      </trkpt>
      <trkpt lat="43.78263" lon="7.10983">
        <ele>663.40002441406</ele>
        <time>2023-08-02T09:16:12.000Z</time>
      </trkpt>
      <trkpt lat="43.78263" lon="7.10983">
        <ele>663.59997558594</ele>
        <time>2023-08-02T09:16:13.000Z</time>
      </trkpt>
      <trkpt lat="43.78263" lon="7.10983">
        <ele>663.59997558594</ele>
        <time>2023-08-02T09:16:14.000Z</time>
      </trkpt>
      <trkpt lat="43.78263" lon="7.10983">
        <ele>663.59997558594</ele>
        <time>2023-08-02T09:16:15.000Z</time>
      </trkpt>
      <trkpt lat="43.78263" lon="7.10983">
        <ele>663.59997558594</ele>
        <time>2023-08-02T09:16:16.000Z</time>
      </trkpt>
      <trkpt lat="43.78263" lon="7.10983">
        <ele>663.59997558594</ele>
        <time>2023-08-02T09:16:17.000Z</time>
      </trkpt>
      <trkpt lat="43.78263" lon="7.10983">
        <ele>663.59997558594</ele>
        <time>2023-08-02T09:16:18.000Z</time>
      </trkpt>
      <trkpt lat="43.78263" lon="7.10983">
        <ele>663.59997558594</ele>
        <time>2023-08-02T09:16:19.000Z</time>
      </trkpt>
      <trkpt lat="43.78263" lon="7.10983">
        <ele>663.59997558594</ele>
        <time>2023-08-02T09:16:20.000Z</time>
      </trkpt>
      <trkpt lat="43.78263" lon="7.10983">
        <ele>663.59997558594</ele>
        <time>2023-08-02T09:16:21.000Z</time>
      </trkpt>
      <trkpt lat="43.78263" lon="7.10983">
        <ele>663.59997558594</ele>
        <time>2023-08-02T09:16:22.000Z</time>
      </trkpt>
      <trkpt lat="43.78263" lon="7.10983">
        <ele>663.59997558594</ele>
        <time>2023-08-02T09:16:23.000Z</time>
      </trkpt>
      <trkpt lat="43.78263" lon="7.10983">
        <ele>663.59997558594</ele>
        <time>2023-08-02T09:16:24.000Z</time>
      </trkpt>
      <trkpt lat="43.78263" lon="7.10983">
        <ele>663.59997558594</ele>
        <time>2023-08-02T09:16:25.000Z</time>
      </trkpt>
      <trkpt lat="43.78263" lon="7.10983">
        <ele>663.59997558594</ele>
        <time>2023-08-02T09:16:26.000Z</time>
      </trkpt>
      <trkpt lat="43.78263" lon="7.10983">
        <ele>663.59997558594</ele>
        <time>2023-08-02T09:16:27.000Z</time>
      </trkpt>
      <trkpt lat="43.78263" lon="7.10983">
        <ele>663.59997558594</ele>
        <time>2023-08-02T09:16:28.000Z</time>
      </trkpt>
      <trkpt lat="43.78263" lon="7.10983">
        <ele>663.59997558594</ele>
        <time>2023-08-02T09:16:29.000Z</time>
      </trkpt>
      <trkpt lat="43.78263" lon="7.10983">
        <ele>663.59997558594</ele>
        <time>2023-08-02T09:16:30.000Z</time>
      </trkpt>
      <trkpt lat="43.78263" lon="7.10983">
        <ele>663.59997558594</ele>
        <time>2023-08-02T09:16:31.000Z</time>
      </trkpt>
      <trkpt lat="43.78263" lon="7.10983">
        <ele>663.59997558594</ele>
        <time>2023-08-02T09:16:32.000Z</time>
      </trkpt>
      <trkpt lat="43.78263" lon="7.10983">
        <ele>663.59997558594</ele>
        <time>2023-08-02T09:16:33.000Z</time>
      </trkpt>
      <trkpt lat="43.78263" lon="7.10983">
        <ele>663.59997558594</ele>
        <time>2023-08-02T09:16:34.000Z</time>
      </trkpt>
      <trkpt lat="43.78263" lon="7.10983">
        <ele>663.59997558594</ele>
        <time>2023-08-02T09:16:35.000Z</time>
      </trkpt>
      <trkpt lat="43.78263" lon="7.10983">
        <ele>663.59997558594</ele>
        <time>2023-08-02T09:16:36.000Z</time>
      </trkpt>
      <trkpt lat="43.78263" lon="7.10983">
        <ele>663.59997558594</ele>
        <time>2023-08-02T09:16:37.000Z</time>
      </trkpt>
      <trkpt lat="43.78263" lon="7.10983">
        <ele>663.59997558594</ele>
        <time>2023-08-02T09:16:38.000Z</time>
      </trkpt>
      <trkpt lat="43.78263" lon="7.10983">
        <ele>663.59997558594</ele>
        <time>2023-08-02T09:16:39.000Z</time>
      </trkpt>
      <trkpt lat="43.78263" lon="7.10983">
        <ele>663.59997558594</ele>
        <time>2023-08-02T09:16:40.000Z</time>
      </trkpt>
      <trkpt lat="43.78263" lon="7.10983">
        <ele>663.59997558594</ele>
        <time>2023-08-02T09:16:41.000Z</time>
      </trkpt>
      <trkpt lat="43.78263" lon="7.10983">
        <ele>663.59997558594</ele>
        <time>2023-08-02T09:16:42.000Z</time>
      </trkpt>
      <trkpt lat="43.78263" lon="7.10983">
        <ele>663.59997558594</ele>
        <time>2023-08-02T09:16:43.000Z</time>
      </trkpt>
      <trkpt lat="43.78263" lon="7.10983">
        <ele>663.59997558594</ele>
        <time>2023-08-02T09:16:44.000Z</time>
      </trkpt>
      <trkpt lat="43.78263" lon="7.10983">
        <ele>663.59997558594</ele>
        <time>2023-08-02T09:16:45.000Z</time>
      </trkpt>
      <trkpt lat="43.78263" lon="7.10983">
        <ele>663.59997558594</ele>
        <time>2023-08-02T09:16:46.000Z</time>
      </trkpt>
      <trkpt lat="43.78263" lon="7.10983">
        <ele>663.59997558594</ele>
        <time>2023-08-02T09:16:47.000Z</time>
      </trkpt>
      <trkpt lat="43.78263" lon="7.10983">
        <ele>663.59997558594</ele>
        <time>2023-08-02T09:16:48.000Z</time>
      </trkpt>
      <trkpt lat="43.78263" lon="7.10983">
        <ele>663.59997558594</ele>
        <time>2023-08-02T09:16:49.000Z</time>
      </trkpt>
      <trkpt lat="43.78263" lon="7.10983">
        <ele>663.59997558594</ele>
        <time>2023-08-02T09:16:50.000Z</time>
      </trkpt>
      <trkpt lat="43.78263" lon="7.10983">
        <ele>663.59997558594</ele>
        <time>2023-08-02T09:16:51.000Z</time>
      </trkpt>
      <trkpt lat="43.78263" lon="7.10983">
        <ele>663.59997558594</ele>
        <time>2023-08-02T09:16:52.000Z</time>
      </trkpt>
      <trkpt lat="43.78263" lon="7.10983">
        <ele>663.59997558594</ele>
        <time>2023-08-02T09:16:53.000Z</time>
      </trkpt>
      <trkpt lat="43.78263" lon="7.10983">
        <ele>663.59997558594</ele>
        <time>2023-08-02T09:16:54.000Z</time>
      </trkpt>
      <trkpt lat="43.78263" lon="7.10983">
        <ele>663.59997558594</ele>
        <time>2023-08-02T09:16:55.000Z</time>
      </trkpt>
      <trkpt lat="43.78263" lon="7.10983">
        <ele>663.59997558594</ele>
        <time>2023-08-02T09:16:56.000Z</time>
      </trkpt>
      <trkpt lat="43.78263" lon="7.10983">
        <ele>663.59997558594</ele>
        <time>2023-08-02T09:16:57.000Z</time>
      </trkpt>
      <trkpt lat="43.78263" lon="7.10983">
        <ele>663.59997558594</ele>
        <time>2023-08-02T09:16:58.000Z</time>
      </trkpt>
      <trkpt lat="43.78263" lon="7.10983">
        <ele>663.59997558594</ele>
        <time>2023-08-02T09:16:59.000Z</time>
      </trkpt>
      <trkpt lat="43.78263" lon="7.10983">
        <ele>663.59997558594</ele>
        <time>2023-08-02T09:17:00.000Z</time>
      </trkpt>
      <trkpt lat="43.78263" lon="7.10983">
        <ele>663.59997558594</ele>
        <time>2023-08-02T09:17:01.000Z</time>
      </trkpt>
      <trkpt lat="43.78263" lon="7.10983">
        <ele>663.59997558594</ele>
        <time>2023-08-02T09:17:02.000Z</time>
      </trkpt>
      <trkpt lat="43.78263" lon="7.10983">
        <ele>663.59997558594</ele>
        <time>2023-08-02T09:17:03.000Z</time>
      </trkpt>
      <trkpt lat="43.78263" lon="7.10983">
        <ele>663.59997558594</ele>
        <time>2023-08-02T09:17:04.000Z</time>
      </trkpt>
      <trkpt lat="43.78263" lon="7.10983">
        <ele>663.59997558594</ele>
        <time>2023-08-02T09:17:05.000Z</time>
      </trkpt>
      <trkpt lat="43.78263" lon="7.10983">
        <ele>663.59997558594</ele>
        <time>2023-08-02T09:17:06.000Z</time>
      </trkpt>
      <trkpt lat="43.78263" lon="7.10983">
        <ele>663.59997558594</ele>
        <time>2023-08-02T09:17:07.000Z</time>
      </trkpt>
      <trkpt lat="43.78263" lon="7.10983">
        <ele>663.59997558594</ele>
        <time>2023-08-02T09:17:08.000Z</time>
      </trkpt>
      <trkpt lat="43.78263" lon="7.10983">
        <ele>663.59997558594</ele>
        <time>2023-08-02T09:17:09.000Z</time>
      </trkpt>
      <trkpt lat="43.78263" lon="7.10983">
        <ele>663.59997558594</ele>
        <time>2023-08-02T09:17:10.000Z</time>
      </trkpt>
      <trkpt lat="43.78263" lon="7.10983">
        <ele>663.59997558594</ele>
        <time>2023-08-02T09:17:11.000Z</time>
      </trkpt>
      <trkpt lat="43.78263" lon="7.10983">
        <ele>663.59997558594</ele>
        <time>2023-08-02T09:17:12.000Z</time>
      </trkpt>
      <trkpt lat="43.78263" lon="7.10983">
        <ele>663.59997558594</ele>
        <time>2023-08-02T09:17:13.000Z</time>
      </trkpt>
      <trkpt lat="43.78263" lon="7.10983">
        <ele>663.59997558594</ele>
        <time>2023-08-02T09:17:14.000Z</time>
      </trkpt>
      <trkpt lat="43.78263" lon="7.10983">
        <ele>663.59997558594</ele>
        <time>2023-08-02T09:17:15.000Z</time>
      </trkpt>
      <trkpt lat="43.78263" lon="7.10983">
        <ele>663.59997558594</ele>
        <time>2023-08-02T09:17:16.000Z</time>
      </trkpt>
      <trkpt lat="43.78263" lon="7.10983">
        <ele>663.59997558594</ele>
        <time>2023-08-02T09:17:17.000Z</time>
      </trkpt>
      <trkpt lat="43.78262" lon="7.10982">
        <ele>663.59997558594</ele>
        <time>2023-08-02T09:17:18.000Z</time>
      </trkpt>
      <trkpt lat="43.78262" lon="7.10982">
        <ele>663.59997558594</ele>
        <time>2023-08-02T09:17:19.000Z</time>
      </trkpt>
      <trkpt lat="43.78262" lon="7.10982">
        <ele>663.59997558594</ele>
        <time>2023-08-02T09:17:20.000Z</time>
      </trkpt>
      <trkpt lat="43.78262" lon="7.10983">
        <ele>663.59997558594</ele>
        <time>2023-08-02T09:17:21.000Z</time>
      </trkpt>
      <trkpt lat="43.78261" lon="7.10985">
        <ele>663.59997558594</ele>
        <time>2023-08-02T09:17:22.000Z</time>
      </trkpt>
      <trkpt lat="43.78261" lon="7.10985">
        <ele>663.59997558594</ele>
        <time>2023-08-02T09:17:23.000Z</time>
      </trkpt>
      <trkpt lat="43.78261" lon="7.10986">
        <ele>663.59997558594</ele>
        <time>2023-08-02T09:17:24.000Z</time>
      </trkpt>
      <trkpt lat="43.78261" lon="7.10986">
        <ele>663.59997558594</ele>
        <time>2023-08-02T09:17:25.000Z</time>
      </trkpt>
      <trkpt lat="43.78261" lon="7.10986">
        <ele>663.59997558594</ele>
        <time>2023-08-02T09:17:26.000Z</time>
      </trkpt>
      <trkpt lat="43.78261" lon="7.10987">
        <ele>663.59997558594</ele>
        <time>2023-08-02T09:17:27.000Z</time>
      </trkpt>
      <trkpt lat="43.78261" lon="7.10988">
        <ele>663.59997558594</ele>
        <time>2023-08-02T09:17:28.000Z</time>
      </trkpt>
      <trkpt lat="43.78261" lon="7.10988">
        <ele>663.59997558594</ele>
        <time>2023-08-02T09:17:29.000Z</time>
      </trkpt>
      <trkpt lat="43.78261" lon="7.10988">
        <ele>663.59997558594</ele>
        <time>2023-08-02T09:17:30.000Z</time>
      </trkpt>
      <trkpt lat="43.78261" lon="7.10988">
        <ele>663.59997558594</ele>
        <time>2023-08-02T09:17:31.000Z</time>
      </trkpt>
      <trkpt lat="43.78261" lon="7.10988">
        <ele>663.59997558594</ele>
        <time>2023-08-02T09:17:32.000Z</time>
      </trkpt>
      <trkpt lat="43.78261" lon="7.10988">
        <ele>663.59997558594</ele>
        <time>2023-08-02T09:17:33.000Z</time>
      </trkpt>
      <trkpt lat="43.78261" lon="7.10988">
        <ele>663.59997558594</ele>
        <time>2023-08-02T09:17:34.000Z</time>
      </trkpt>
      <trkpt lat="43.78261" lon="7.10988">
        <ele>663.59997558594</ele>
        <time>2023-08-02T09:17:35.000Z</time>
      </trkpt>
      <trkpt lat="43.78261" lon="7.10988">
        <ele>663.59997558594</ele>
        <time>2023-08-02T09:17:36.000Z</time>
      </trkpt>
      <trkpt lat="43.78261" lon="7.10988">
        <ele>663.59997558594</ele>
        <time>2023-08-02T09:17:37.000Z</time>
      </trkpt>
      <trkpt lat="43.78261" lon="7.10988">
        <ele>663.59997558594</ele>
        <time>2023-08-02T09:17:38.000Z</time>
      </trkpt>
      <trkpt lat="43.78261" lon="7.10988">
        <ele>663.59997558594</ele>
        <time>2023-08-02T09:17:39.000Z</time>
      </trkpt>
      <trkpt lat="43.78261" lon="7.10988">
        <ele>663.59997558594</ele>
        <time>2023-08-02T09:17:40.000Z</time>
      </trkpt>
      <trkpt lat="43.78261" lon="7.10988">
        <ele>663.59997558594</ele>
        <time>2023-08-02T09:17:41.000Z</time>
      </trkpt>
      <trkpt lat="43.78261" lon="7.10988">
        <ele>663.59997558594</ele>
        <time>2023-08-02T09:17:42.000Z</time>
      </trkpt>
      <trkpt lat="43.78261" lon="7.10988">
        <ele>663.59997558594</ele>
        <time>2023-08-02T09:17:43.000Z</time>
      </trkpt>
      <trkpt lat="43.78261" lon="7.10988">
        <ele>663.59997558594</ele>
        <time>2023-08-02T09:17:44.000Z</time>
      </trkpt>
      <trkpt lat="43.78261" lon="7.10988">
        <ele>663.59997558594</ele>
        <time>2023-08-02T09:17:45.000Z</time>
      </trkpt>
      <trkpt lat="43.78261" lon="7.10988">
        <ele>663.59997558594</ele>
        <time>2023-08-02T09:17:46.000Z</time>
      </trkpt>
      <trkpt lat="43.78261" lon="7.10988">
        <ele>663.59997558594</ele>
        <time>2023-08-02T09:17:47.000Z</time>
      </trkpt>
      <trkpt lat="43.78261" lon="7.10988">
        <ele>663.59997558594</ele>
        <time>2023-08-02T09:17:48.000Z</time>
      </trkpt>
      <trkpt lat="43.78261" lon="7.10988">
        <ele>663.59997558594</ele>
        <time>2023-08-02T09:17:49.000Z</time>
      </trkpt>
      <trkpt lat="43.78261" lon="7.10988">
        <ele>663.59997558594</ele>
        <time>2023-08-02T09:17:50.000Z</time>
      </trkpt>
      <trkpt lat="43.78261" lon="7.10988">
        <ele>663.59997558594</ele>
        <time>2023-08-02T09:17:51.000Z</time>
      </trkpt>
      <trkpt lat="43.78261" lon="7.10988">
        <ele>663.59997558594</ele>
        <time>2023-08-02T09:17:52.000Z</time>
      </trkpt>
      <trkpt lat="43.78261" lon="7.10988">
        <ele>663.59997558594</ele>
        <time>2023-08-02T09:17:53.000Z</time>
      </trkpt>
      <trkpt lat="43.78261" lon="7.10988">
        <ele>663.59997558594</ele>
        <time>2023-08-02T09:17:54.000Z</time>
      </trkpt>
      <trkpt lat="43.78261" lon="7.10988">
        <ele>663.59997558594</ele>
        <time>2023-08-02T09:17:55.000Z</time>
      </trkpt>
      <trkpt lat="43.78261" lon="7.10988">
        <ele>663.59997558594</ele>
        <time>2023-08-02T09:17:56.000Z</time>
      </trkpt>
      <trkpt lat="43.78261" lon="7.10988">
        <ele>663.59997558594</ele>
        <time>2023-08-02T09:17:57.000Z</time>
      </trkpt>
      <trkpt lat="43.78261" lon="7.10988">
        <ele>663.59997558594</ele>
        <time>2023-08-02T09:17:58.000Z</time>
      </trkpt>
      <trkpt lat="43.78261" lon="7.10988">
        <ele>663.59997558594</ele>
        <time>2023-08-02T09:17:59.000Z</time>
      </trkpt>
      <trkpt lat="43.78261" lon="7.10988">
        <ele>663.59997558594</ele>
        <time>2023-08-02T09:18:00.000Z</time>
      </trkpt>
      <trkpt lat="43.78261" lon="7.10988">
        <ele>663.59997558594</ele>
        <time>2023-08-02T09:18:01.000Z</time>
      </trkpt>
      <trkpt lat="43.78261" lon="7.10988">
        <ele>663.59997558594</ele>
        <time>2023-08-02T09:18:02.000Z</time>
      </trkpt>
      <trkpt lat="43.78261" lon="7.10988">
        <ele>663.59997558594</ele>
        <time>2023-08-02T09:18:03.000Z</time>
      </trkpt>
      <trkpt lat="43.78261" lon="7.10988">
        <ele>663.59997558594</ele>
        <time>2023-08-02T09:18:04.000Z</time>
      </trkpt>
      <trkpt lat="43.78261" lon="7.10988">
        <ele>663.59997558594</ele>
        <time>2023-08-02T09:18:05.000Z</time>
      </trkpt>
      <trkpt lat="43.78261" lon="7.10988">
        <ele>663.59997558594</ele>
        <time>2023-08-02T09:18:06.000Z</time>
      </trkpt>
      <trkpt lat="43.78261" lon="7.10988">
        <ele>663.59997558594</ele>
        <time>2023-08-02T09:18:07.000Z</time>
      </trkpt>
      <trkpt lat="43.78261" lon="7.10988">
        <ele>663.59997558594</ele>
        <time>2023-08-02T09:18:08.000Z</time>
      </trkpt>
      <trkpt lat="43.78261" lon="7.10988">
        <ele>663.59997558594</ele>
        <time>2023-08-02T09:18:09.000Z</time>
      </trkpt>
      <trkpt lat="43.78261" lon="7.10988">
        <ele>663.59997558594</ele>
        <time>2023-08-02T09:18:10.000Z</time>
      </trkpt>
      <trkpt lat="43.78261" lon="7.10988">
        <ele>663.59997558594</ele>
        <time>2023-08-02T09:18:11.000Z</time>
      </trkpt>
      <trkpt lat="43.78261" lon="7.10988">
        <ele>663.59997558594</ele>
        <time>2023-08-02T09:18:12.000Z</time>
      </trkpt>
      <trkpt lat="43.78261" lon="7.10988">
        <ele>663.59997558594</ele>
        <time>2023-08-02T09:18:13.000Z</time>
      </trkpt>
      <trkpt lat="43.78261" lon="7.10988">
        <ele>663.59997558594</ele>
        <time>2023-08-02T09:18:14.000Z</time>
      </trkpt>
      <trkpt lat="43.78261" lon="7.10988">
        <ele>663.59997558594</ele>
        <time>2023-08-02T09:18:15.000Z</time>
      </trkpt>
      <trkpt lat="43.78261" lon="7.10988">
        <ele>663.59997558594</ele>
        <time>2023-08-02T09:18:16.000Z</time>
      </trkpt>
      <trkpt lat="43.78261" lon="7.10988">
        <ele>663.59997558594</ele>
        <time>2023-08-02T09:18:17.000Z</time>
      </trkpt>
      <trkpt lat="43.78261" lon="7.10988">
        <ele>663.59997558594</ele>
        <time>2023-08-02T09:18:18.000Z</time>
      </trkpt>
      <trkpt lat="43.78261" lon="7.10988">
        <ele>663.59997558594</ele>
        <time>2023-08-02T09:18:19.000Z</time>
      </trkpt>
      <trkpt lat="43.78261" lon="7.10988">
        <ele>663.59997558594</ele>
        <time>2023-08-02T09:18:20.000Z</time>
      </trkpt>
      <trkpt lat="43.78261" lon="7.10988">
        <ele>663.59997558594</ele>
        <time>2023-08-02T09:18:21.000Z</time>
      </trkpt>
      <trkpt lat="43.78261" lon="7.10988">
        <ele>663.59997558594</ele>
        <time>2023-08-02T09:18:22.000Z</time>
      </trkpt>
      <trkpt lat="43.78261" lon="7.10988">
        <ele>663.59997558594</ele>
        <time>2023-08-02T09:18:23.000Z</time>
      </trkpt>
      <trkpt lat="43.78261" lon="7.10988">
        <ele>663.59997558594</ele>
        <time>2023-08-02T09:18:24.000Z</time>
      </trkpt>
      <trkpt lat="43.78261" lon="7.10988">
        <ele>663.59997558594</ele>
        <time>2023-08-02T09:18:25.000Z</time>
      </trkpt>
      <trkpt lat="43.78261" lon="7.10988">
        <ele>663.59997558594</ele>
        <time>2023-08-02T09:18:26.000Z</time>
      </trkpt>
      <trkpt lat="43.78261" lon="7.10988">
        <ele>663.59997558594</ele>
        <time>2023-08-02T09:18:27.000Z</time>
      </trkpt>
      <trkpt lat="43.78261" lon="7.10988">
        <ele>663.59997558594</ele>
        <time>2023-08-02T09:18:28.000Z</time>
      </trkpt>
      <trkpt lat="43.78261" lon="7.10988">
        <ele>663.59997558594</ele>
        <time>2023-08-02T09:18:29.000Z</time>
      </trkpt>
      <trkpt lat="43.78261" lon="7.10988">
        <ele>663.59997558594</ele>
        <time>2023-08-02T09:18:30.000Z</time>
      </trkpt>
      <trkpt lat="43.78261" lon="7.10988">
        <ele>663.59997558594</ele>
        <time>2023-08-02T09:18:31.000Z</time>
      </trkpt>
      <trkpt lat="43.78261" lon="7.10988">
        <ele>663.59997558594</ele>
        <time>2023-08-02T09:18:32.000Z</time>
      </trkpt>
      <trkpt lat="43.78261" lon="7.10988">
        <ele>663.59997558594</ele>
        <time>2023-08-02T09:18:33.000Z</time>
      </trkpt>
      <trkpt lat="43.78261" lon="7.10988">
        <ele>663.59997558594</ele>
        <time>2023-08-02T09:18:34.000Z</time>
      </trkpt>
      <trkpt lat="43.78261" lon="7.10988">
        <ele>663.59997558594</ele>
        <time>2023-08-02T09:18:35.000Z</time>
      </trkpt>
      <trkpt lat="43.78261" lon="7.10988">
        <ele>663.59997558594</ele>
        <time>2023-08-02T09:18:36.000Z</time>
      </trkpt>
      <trkpt lat="43.78261" lon="7.10988">
        <ele>663.59997558594</ele>
        <time>2023-08-02T09:18:37.000Z</time>
      </trkpt>
      <trkpt lat="43.78261" lon="7.10988">
        <ele>663.59997558594</ele>
        <time>2023-08-02T09:18:38.000Z</time>
      </trkpt>
      <trkpt lat="43.78261" lon="7.10988">
        <ele>663.59997558594</ele>
        <time>2023-08-02T09:18:39.000Z</time>
      </trkpt>
      <trkpt lat="43.78261" lon="7.10988">
        <ele>663.59997558594</ele>
        <time>2023-08-02T09:18:40.000Z</time>
      </trkpt>
      <trkpt lat="43.78261" lon="7.10988">
        <ele>663.59997558594</ele>
        <time>2023-08-02T09:18:41.000Z</time>
      </trkpt>
      <trkpt lat="43.78261" lon="7.10988">
        <ele>663.59997558594</ele>
        <time>2023-08-02T09:18:42.000Z</time>
      </trkpt>
      <trkpt lat="43.78261" lon="7.10988">
        <ele>663.59997558594</ele>
        <time>2023-08-02T09:18:43.000Z</time>
      </trkpt>
      <trkpt lat="43.78261" lon="7.10988">
        <ele>663.59997558594</ele>
        <time>2023-08-02T09:18:44.000Z</time>
      </trkpt>
      <trkpt lat="43.78261" lon="7.10988">
        <ele>663.59997558594</ele>
        <time>2023-08-02T09:18:45.000Z</time>
      </trkpt>
      <trkpt lat="43.78261" lon="7.10988">
        <ele>663.59997558594</ele>
        <time>2023-08-02T09:18:46.000Z</time>
      </trkpt>
      <trkpt lat="43.78261" lon="7.10988">
        <ele>663.59997558594</ele>
        <time>2023-08-02T09:18:47.000Z</time>
      </trkpt>
      <trkpt lat="43.78261" lon="7.10988">
        <ele>663.59997558594</ele>
        <time>2023-08-02T09:18:48.000Z</time>
      </trkpt>
      <trkpt lat="43.78261" lon="7.10988">
        <ele>663.59997558594</ele>
        <time>2023-08-02T09:18:49.000Z</time>
      </trkpt>
      <trkpt lat="43.78261" lon="7.10988">
        <ele>663.59997558594</ele>
        <time>2023-08-02T09:18:50.000Z</time>
      </trkpt>
      <trkpt lat="43.78261" lon="7.10988">
        <ele>663.59997558594</ele>
        <time>2023-08-02T09:18:51.000Z</time>
      </trkpt>
      <trkpt lat="43.78261" lon="7.10988">
        <ele>663.59997558594</ele>
        <time>2023-08-02T09:18:52.000Z</time>
      </trkpt>
      <trkpt lat="43.78261" lon="7.10988">
        <ele>663.59997558594</ele>
        <time>2023-08-02T09:18:53.000Z</time>
      </trkpt>
      <trkpt lat="43.78261" lon="7.10988">
        <ele>663.59997558594</ele>
        <time>2023-08-02T09:18:54.000Z</time>
      </trkpt>
      <trkpt lat="43.78261" lon="7.10988">
        <ele>663.59997558594</ele>
        <time>2023-08-02T09:18:55.000Z</time>
      </trkpt>
      <trkpt lat="43.78261" lon="7.10988">
        <ele>663.59997558594</ele>
        <time>2023-08-02T09:18:56.000Z</time>
      </trkpt>
      <trkpt lat="43.78261" lon="7.10988">
        <ele>663.59997558594</ele>
        <time>2023-08-02T09:18:57.000Z</time>
      </trkpt>
      <trkpt lat="43.78261" lon="7.10988">
        <ele>663.59997558594</ele>
        <time>2023-08-02T09:18:58.000Z</time>
      </trkpt>
      <trkpt lat="43.78261" lon="7.10988">
        <ele>663.59997558594</ele>
        <time>2023-08-02T09:18:59.000Z</time>
      </trkpt>
      <trkpt lat="43.78261" lon="7.10988">
        <ele>663.59997558594</ele>
        <time>2023-08-02T09:19:00.000Z</time>
      </trkpt>
      <trkpt lat="43.78261" lon="7.10988">
        <ele>663.59997558594</ele>
        <time>2023-08-02T09:19:01.000Z</time>
      </trkpt>
      <trkpt lat="43.78261" lon="7.10988">
        <ele>663.59997558594</ele>
        <time>2023-08-02T09:19:02.000Z</time>
      </trkpt>
      <trkpt lat="43.78261" lon="7.10988">
        <ele>663.59997558594</ele>
        <time>2023-08-02T09:19:03.000Z</time>
      </trkpt>
      <trkpt lat="43.78261" lon="7.10988">
        <ele>663.59997558594</ele>
        <time>2023-08-02T09:19:04.000Z</time>
      </trkpt>
      <trkpt lat="43.78261" lon="7.10988">
        <ele>663.59997558594</ele>
        <time>2023-08-02T09:19:05.000Z</time>
      </trkpt>
      <trkpt lat="43.78261" lon="7.10988">
        <ele>663.59997558594</ele>
        <time>2023-08-02T09:19:06.000Z</time>
      </trkpt>
      <trkpt lat="43.78261" lon="7.10988">
        <ele>663.59997558594</ele>
        <time>2023-08-02T09:19:07.000Z</time>
      </trkpt>
      <trkpt lat="43.78261" lon="7.10988">
        <ele>663.59997558594</ele>
        <time>2023-08-02T09:19:08.000Z</time>
      </trkpt>
      <trkpt lat="43.78261" lon="7.10988">
        <ele>663.59997558594</ele>
        <time>2023-08-02T09:19:09.000Z</time>
      </trkpt>
      <trkpt lat="43.78261" lon="7.10988">
        <ele>663.59997558594</ele>
        <time>2023-08-02T09:19:10.000Z</time>
      </trkpt>
      <trkpt lat="43.78261" lon="7.10988">
        <ele>663.59997558594</ele>
        <time>2023-08-02T09:19:11.000Z</time>
      </trkpt>
      <trkpt lat="43.78261" lon="7.10988">
        <ele>663.59997558594</ele>
        <time>2023-08-02T09:19:12.000Z</time>
      </trkpt>
      <trkpt lat="43.78261" lon="7.10988">
        <ele>663.59997558594</ele>
        <time>2023-08-02T09:19:13.000Z</time>
      </trkpt>
      <trkpt lat="43.78261" lon="7.10988">
        <ele>663.59997558594</ele>
        <time>2023-08-02T09:19:14.000Z</time>
      </trkpt>
      <trkpt lat="43.78261" lon="7.10988">
        <ele>663.59997558594</ele>
        <time>2023-08-02T09:19:15.000Z</time>
      </trkpt>
      <trkpt lat="43.78261" lon="7.10988">
        <ele>663.59997558594</ele>
        <time>2023-08-02T09:19:16.000Z</time>
      </trkpt>
      <trkpt lat="43.78261" lon="7.10988">
        <ele>663.59997558594</ele>
        <time>2023-08-02T09:19:17.000Z</time>
      </trkpt>
      <trkpt lat="43.78261" lon="7.10988">
        <ele>663.59997558594</ele>
        <time>2023-08-02T09:19:18.000Z</time>
      </trkpt>
      <trkpt lat="43.78261" lon="7.10988">
        <ele>663.59997558594</ele>
        <time>2023-08-02T09:19:19.000Z</time>
      </trkpt>
      <trkpt lat="43.78261" lon="7.10988">
        <ele>663.59997558594</ele>
        <time>2023-08-02T09:19:20.000Z</time>
      </trkpt>
      <trkpt lat="43.78261" lon="7.10988">
        <ele>663.59997558594</ele>
        <time>2023-08-02T09:19:21.000Z</time>
      </trkpt>
      <trkpt lat="43.78261" lon="7.10988">
        <ele>663.59997558594</ele>
        <time>2023-08-02T09:19:22.000Z</time>
      </trkpt>
      <trkpt lat="43.78261" lon="7.10988">
        <ele>663.59997558594</ele>
        <time>2023-08-02T09:19:23.000Z</time>
      </trkpt>
      <trkpt lat="43.78261" lon="7.10988">
        <ele>663.59997558594</ele>
        <time>2023-08-02T09:19:24.000Z</time>
      </trkpt>
      <trkpt lat="43.78261" lon="7.10988">
        <ele>663.59997558594</ele>
        <time>2023-08-02T09:19:25.000Z</time>
      </trkpt>
      <trkpt lat="43.78261" lon="7.10988">
        <ele>663.59997558594</ele>
        <time>2023-08-02T09:19:26.000Z</time>
      </trkpt>
      <trkpt lat="43.78261" lon="7.10988">
        <ele>663.59997558594</ele>
        <time>2023-08-02T09:19:27.000Z</time>
      </trkpt>
      <trkpt lat="43.78261" lon="7.10988">
        <ele>663.59997558594</ele>
        <time>2023-08-02T09:19:28.000Z</time>
      </trkpt>
      <trkpt lat="43.78261" lon="7.10988">
        <ele>663.59997558594</ele>
        <time>2023-08-02T09:19:29.000Z</time>
      </trkpt>
      <trkpt lat="43.78261" lon="7.10988">
        <ele>663.59997558594</ele>
        <time>2023-08-02T09:19:30.000Z</time>
      </trkpt>
      <trkpt lat="43.78261" lon="7.10988">
        <ele>663.59997558594</ele>
        <time>2023-08-02T09:19:31.000Z</time>
      </trkpt>
      <trkpt lat="43.78261" lon="7.10988">
        <ele>663.59997558594</ele>
        <time>2023-08-02T09:19:32.000Z</time>
      </trkpt>
      <trkpt lat="43.78261" lon="7.10988">
        <ele>663.59997558594</ele>
        <time>2023-08-02T09:19:33.000Z</time>
      </trkpt>
      <trkpt lat="43.78261" lon="7.10988">
        <ele>663.59997558594</ele>
        <time>2023-08-02T09:19:34.000Z</time>
      </trkpt>
      <trkpt lat="43.78261" lon="7.10988">
        <ele>663.59997558594</ele>
        <time>2023-08-02T09:19:35.000Z</time>
      </trkpt>
      <trkpt lat="43.78261" lon="7.10988">
        <ele>663.59997558594</ele>
        <time>2023-08-02T09:19:36.000Z</time>
      </trkpt>
      <trkpt lat="43.78261" lon="7.10988">
        <ele>663.59997558594</ele>
        <time>2023-08-02T09:19:37.000Z</time>
      </trkpt>
      <trkpt lat="43.78262" lon="7.10988">
        <ele>663.59997558594</ele>
        <time>2023-08-02T09:19:38.000Z</time>
      </trkpt>
      <trkpt lat="43.78262" lon="7.10988">
        <ele>663.59997558594</ele>
        <time>2023-08-02T09:19:39.000Z</time>
      </trkpt>
      <trkpt lat="43.78261" lon="7.10988">
        <ele>663.59997558594</ele>
        <time>2023-08-02T09:19:40.000Z</time>
      </trkpt>
      <trkpt lat="43.78261" lon="7.10988">
        <ele>663.59997558594</ele>
        <time>2023-08-02T09:19:41.000Z</time>
      </trkpt>
      <trkpt lat="43.7826" lon="7.10988">
        <ele>663.59997558594</ele>
        <time>2023-08-02T09:19:42.000Z</time>
      </trkpt>
      <trkpt lat="43.7826" lon="7.10988">
        <ele>663.59997558594</ele>
        <time>2023-08-02T09:19:43.000Z</time>
      </trkpt>
      <trkpt lat="43.7826" lon="7.10988">
        <ele>663.59997558594</ele>
        <time>2023-08-02T09:19:44.000Z</time>
      </trkpt>
      <trkpt lat="43.7826" lon="7.10989">
        <ele>663.59997558594</ele>
        <time>2023-08-02T09:19:45.000Z</time>
      </trkpt>
      <trkpt lat="43.78259" lon="7.10989">
        <ele>663.59997558594</ele>
        <time>2023-08-02T09:19:46.000Z</time>
      </trkpt>
      <trkpt lat="43.78259" lon="7.1099">
        <ele>663.59997558594</ele>
        <time>2023-08-02T09:19:47.000Z</time>
      </trkpt>
      <trkpt lat="43.78259" lon="7.1099">
        <ele>663.59997558594</ele>
        <time>2023-08-02T09:19:48.000Z</time>
      </trkpt>
      <trkpt lat="43.78259" lon="7.1099">
        <ele>663.59997558594</ele>
        <time>2023-08-02T09:19:49.000Z</time>
      </trkpt>
      <trkpt lat="43.78259" lon="7.1099">
        <ele>663.59997558594</ele>
        <time>2023-08-02T09:19:50.000Z</time>
      </trkpt>
      <trkpt lat="43.78259" lon="7.1099">
        <ele>663.59997558594</ele>
        <time>2023-08-02T09:19:51.000Z</time>
      </trkpt>
      <trkpt lat="43.78259" lon="7.1099">
        <ele>663.59997558594</ele>
        <time>2023-08-02T09:19:52.000Z</time>
      </trkpt>
      <trkpt lat="43.78259" lon="7.1099">
        <ele>663.59997558594</ele>
        <time>2023-08-02T09:19:53.000Z</time>
      </trkpt>
      <trkpt lat="43.78259" lon="7.1099">
        <ele>663.59997558594</ele>
        <time>2023-08-02T09:19:54.000Z</time>
      </trkpt>
      <trkpt lat="43.78259" lon="7.1099">
        <ele>663.59997558594</ele>
        <time>2023-08-02T09:19:55.000Z</time>
      </trkpt>
      <trkpt lat="43.78259" lon="7.1099">
        <ele>663.59997558594</ele>
        <time>2023-08-02T09:19:56.000Z</time>
      </trkpt>
      <trkpt lat="43.78259" lon="7.1099">
        <ele>663.59997558594</ele>
        <time>2023-08-02T09:19:57.000Z</time>
      </trkpt>
      <trkpt lat="43.78259" lon="7.1099">
        <ele>663.59997558594</ele>
        <time>2023-08-02T09:19:58.000Z</time>
      </trkpt>
      <trkpt lat="43.78259" lon="7.1099">
        <ele>663.59997558594</ele>
        <time>2023-08-02T09:19:59.000Z</time>
      </trkpt>
      <trkpt lat="43.78259" lon="7.1099">
        <ele>663.59997558594</ele>
        <time>2023-08-02T09:20:00.000Z</time>
      </trkpt>
      <trkpt lat="43.78259" lon="7.1099">
        <ele>663.59997558594</ele>
        <time>2023-08-02T09:20:01.000Z</time>
      </trkpt>
      <trkpt lat="43.78259" lon="7.1099">
        <ele>663.59997558594</ele>
        <time>2023-08-02T09:20:02.000Z</time>
      </trkpt>
      <trkpt lat="43.78259" lon="7.1099">
        <ele>663.59997558594</ele>
        <time>2023-08-02T09:20:03.000Z</time>
      </trkpt>
      <trkpt lat="43.78259" lon="7.1099">
        <ele>663.59997558594</ele>
        <time>2023-08-02T09:20:04.000Z</time>
      </trkpt>
      <trkpt lat="43.78259" lon="7.1099">
        <ele>663.59997558594</ele>
        <time>2023-08-02T09:20:05.000Z</time>
      </trkpt>
      <trkpt lat="43.78259" lon="7.1099">
        <ele>663.59997558594</ele>
        <time>2023-08-02T09:20:06.000Z</time>
      </trkpt>
      <trkpt lat="43.78259" lon="7.1099">
        <ele>663.59997558594</ele>
        <time>2023-08-02T09:20:07.000Z</time>
      </trkpt>
      <trkpt lat="43.78259" lon="7.1099">
        <ele>663.59997558594</ele>
        <time>2023-08-02T09:20:08.000Z</time>
      </trkpt>
      <trkpt lat="43.78259" lon="7.1099">
        <ele>663.59997558594</ele>
        <time>2023-08-02T09:20:09.000Z</time>
      </trkpt>
      <trkpt lat="43.78259" lon="7.1099">
        <ele>663.59997558594</ele>
        <time>2023-08-02T09:20:10.000Z</time>
      </trkpt>
      <trkpt lat="43.78259" lon="7.1099">
        <ele>663.59997558594</ele>
        <time>2023-08-02T09:20:11.000Z</time>
      </trkpt>
      <trkpt lat="43.78259" lon="7.1099">
        <ele>663.59997558594</ele>
        <time>2023-08-02T09:20:12.000Z</time>
      </trkpt>
      <trkpt lat="43.78259" lon="7.1099">
        <ele>663.59997558594</ele>
        <time>2023-08-02T09:20:13.000Z</time>
      </trkpt>
      <trkpt lat="43.78259" lon="7.1099">
        <ele>663.59997558594</ele>
        <time>2023-08-02T09:20:14.000Z</time>
      </trkpt>
      <trkpt lat="43.78259" lon="7.1099">
        <ele>663.59997558594</ele>
        <time>2023-08-02T09:20:15.000Z</time>
      </trkpt>
      <trkpt lat="43.78259" lon="7.1099">
        <ele>663.59997558594</ele>
        <time>2023-08-02T09:20:16.000Z</time>
      </trkpt>
      <trkpt lat="43.78259" lon="7.1099">
        <ele>663.59997558594</ele>
        <time>2023-08-02T09:20:17.000Z</time>
      </trkpt>
      <trkpt lat="43.78259" lon="7.1099">
        <ele>663.59997558594</ele>
        <time>2023-08-02T09:20:18.000Z</time>
      </trkpt>
      <trkpt lat="43.78259" lon="7.1099">
        <ele>663.59997558594</ele>
        <time>2023-08-02T09:20:19.000Z</time>
      </trkpt>
      <trkpt lat="43.78259" lon="7.1099">
        <ele>663.59997558594</ele>
        <time>2023-08-02T09:20:20.000Z</time>
      </trkpt>
      <trkpt lat="43.78259" lon="7.1099">
        <ele>663.59997558594</ele>
        <time>2023-08-02T09:20:21.000Z</time>
      </trkpt>
      <trkpt lat="43.78259" lon="7.1099">
        <ele>663.59997558594</ele>
        <time>2023-08-02T09:20:22.000Z</time>
      </trkpt>
      <trkpt lat="43.78259" lon="7.1099">
        <ele>663.59997558594</ele>
        <time>2023-08-02T09:20:23.000Z</time>
      </trkpt>
      <trkpt lat="43.78259" lon="7.1099">
        <ele>663.59997558594</ele>
        <time>2023-08-02T09:20:24.000Z</time>
      </trkpt>
      <trkpt lat="43.78259" lon="7.1099">
        <ele>663.59997558594</ele>
        <time>2023-08-02T09:20:25.000Z</time>
      </trkpt>
      <trkpt lat="43.78259" lon="7.1099">
        <ele>663.59997558594</ele>
        <time>2023-08-02T09:20:26.000Z</time>
      </trkpt>
      <trkpt lat="43.78259" lon="7.1099">
        <ele>663.59997558594</ele>
        <time>2023-08-02T09:20:27.000Z</time>
      </trkpt>
      <trkpt lat="43.78259" lon="7.1099">
        <ele>663.59997558594</ele>
        <time>2023-08-02T09:20:28.000Z</time>
      </trkpt>
      <trkpt lat="43.78259" lon="7.1099">
        <ele>663.59997558594</ele>
        <time>2023-08-02T09:20:29.000Z</time>
      </trkpt>
      <trkpt lat="43.78259" lon="7.1099">
        <ele>663.59997558594</ele>
        <time>2023-08-02T09:20:30.000Z</time>
      </trkpt>
      <trkpt lat="43.78259" lon="7.1099">
        <ele>663.59997558594</ele>
        <time>2023-08-02T09:20:31.000Z</time>
      </trkpt>
      <trkpt lat="43.78259" lon="7.1099">
        <ele>663.59997558594</ele>
        <time>2023-08-02T09:20:32.000Z</time>
      </trkpt>
      <trkpt lat="43.78259" lon="7.1099">
        <ele>663.59997558594</ele>
        <time>2023-08-02T09:20:33.000Z</time>
      </trkpt>
      <trkpt lat="43.78259" lon="7.1099">
        <ele>663.59997558594</ele>
        <time>2023-08-02T09:20:34.000Z</time>
      </trkpt>
      <trkpt lat="43.78259" lon="7.1099">
        <ele>663.59997558594</ele>
        <time>2023-08-02T09:20:35.000Z</time>
      </trkpt>
      <trkpt lat="43.78259" lon="7.1099">
        <ele>663.59997558594</ele>
        <time>2023-08-02T09:20:36.000Z</time>
      </trkpt>
      <trkpt lat="43.78259" lon="7.1099">
        <ele>663.59997558594</ele>
        <time>2023-08-02T09:20:37.000Z</time>
      </trkpt>
      <trkpt lat="43.78259" lon="7.1099">
        <ele>663.59997558594</ele>
        <time>2023-08-02T09:20:38.000Z</time>
      </trkpt>
      <trkpt lat="43.78259" lon="7.1099">
        <ele>663.59997558594</ele>
        <time>2023-08-02T09:20:39.000Z</time>
      </trkpt>
      <trkpt lat="43.78259" lon="7.1099">
        <ele>663.59997558594</ele>
        <time>2023-08-02T09:20:40.000Z</time>
      </trkpt>
      <trkpt lat="43.78259" lon="7.1099">
        <ele>663.59997558594</ele>
        <time>2023-08-02T09:20:41.000Z</time>
      </trkpt>
      <trkpt lat="43.78259" lon="7.1099">
        <ele>663.59997558594</ele>
        <time>2023-08-02T09:20:42.000Z</time>
      </trkpt>
      <trkpt lat="43.78259" lon="7.1099">
        <ele>663.59997558594</ele>
        <time>2023-08-02T09:20:43.000Z</time>
      </trkpt>
      <trkpt lat="43.78259" lon="7.1099">
        <ele>663.59997558594</ele>
        <time>2023-08-02T09:20:44.000Z</time>
      </trkpt>
      <trkpt lat="43.78259" lon="7.1099">
        <ele>663.59997558594</ele>
        <time>2023-08-02T09:20:45.000Z</time>
      </trkpt>
      <trkpt lat="43.78259" lon="7.1099">
        <ele>663.59997558594</ele>
        <time>2023-08-02T09:20:46.000Z</time>
      </trkpt>
      <trkpt lat="43.78259" lon="7.1099">
        <ele>663.59997558594</ele>
        <time>2023-08-02T09:20:47.000Z</time>
      </trkpt>
      <trkpt lat="43.78259" lon="7.1099">
        <ele>663.59997558594</ele>
        <time>2023-08-02T09:20:48.000Z</time>
      </trkpt>
      <trkpt lat="43.78259" lon="7.1099">
        <ele>663.59997558594</ele>
        <time>2023-08-02T09:20:49.000Z</time>
      </trkpt>
      <trkpt lat="43.78259" lon="7.1099">
        <ele>663.59997558594</ele>
        <time>2023-08-02T09:20:50.000Z</time>
      </trkpt>
      <trkpt lat="43.78259" lon="7.1099">
        <ele>663.59997558594</ele>
        <time>2023-08-02T09:20:51.000Z</time>
      </trkpt>
      <trkpt lat="43.78259" lon="7.1099">
        <ele>663.59997558594</ele>
        <time>2023-08-02T09:20:52.000Z</time>
      </trkpt>
      <trkpt lat="43.78259" lon="7.1099">
        <ele>663.59997558594</ele>
        <time>2023-08-02T09:20:53.000Z</time>
      </trkpt>
      <trkpt lat="43.78259" lon="7.1099">
        <ele>663.59997558594</ele>
        <time>2023-08-02T09:20:54.000Z</time>
      </trkpt>
      <trkpt lat="43.78259" lon="7.1099">
        <ele>663.59997558594</ele>
        <time>2023-08-02T09:20:55.000Z</time>
      </trkpt>
      <trkpt lat="43.78259" lon="7.1099">
        <ele>663.59997558594</ele>
        <time>2023-08-02T09:20:56.000Z</time>
      </trkpt>
      <trkpt lat="43.78259" lon="7.1099">
        <ele>663.59997558594</ele>
        <time>2023-08-02T09:20:57.000Z</time>
      </trkpt>
      <trkpt lat="43.78259" lon="7.1099">
        <ele>663.59997558594</ele>
        <time>2023-08-02T09:20:58.000Z</time>
      </trkpt>
      <trkpt lat="43.78259" lon="7.1099">
        <ele>663.59997558594</ele>
        <time>2023-08-02T09:20:59.000Z</time>
      </trkpt>
      <trkpt lat="43.78259" lon="7.1099">
        <ele>663.59997558594</ele>
        <time>2023-08-02T09:21:00.000Z</time>
      </trkpt>
      <trkpt lat="43.78259" lon="7.1099">
        <ele>663.59997558594</ele>
        <time>2023-08-02T09:21:01.000Z</time>
      </trkpt>
      <trkpt lat="43.78259" lon="7.1099">
        <ele>663.59997558594</ele>
        <time>2023-08-02T09:21:02.000Z</time>
      </trkpt>
      <trkpt lat="43.78259" lon="7.1099">
        <ele>663.59997558594</ele>
        <time>2023-08-02T09:21:03.000Z</time>
      </trkpt>
      <trkpt lat="43.78259" lon="7.1099">
        <ele>663.59997558594</ele>
        <time>2023-08-02T09:21:04.000Z</time>
      </trkpt>
      <trkpt lat="43.78259" lon="7.1099">
        <ele>663.59997558594</ele>
        <time>2023-08-02T09:21:05.000Z</time>
      </trkpt>
      <trkpt lat="43.78259" lon="7.10991">
        <ele>663.59997558594</ele>
        <time>2023-08-02T09:21:06.000Z</time>
      </trkpt>
      <trkpt lat="43.78259" lon="7.10991">
        <ele>663.59997558594</ele>
        <time>2023-08-02T09:21:07.000Z</time>
      </trkpt>
      <trkpt lat="43.7826" lon="7.10991">
        <ele>663.59997558594</ele>
        <time>2023-08-02T09:21:08.000Z</time>
      </trkpt>
      <trkpt lat="43.78259" lon="7.10991">
        <ele>663.59997558594</ele>
        <time>2023-08-02T09:21:09.000Z</time>
      </trkpt>
      <trkpt lat="43.78259" lon="7.10991">
        <ele>663.59997558594</ele>
        <time>2023-08-02T09:21:10.000Z</time>
      </trkpt>
      <trkpt lat="43.78259" lon="7.10991">
        <ele>663.59997558594</ele>
        <time>2023-08-02T09:21:11.000Z</time>
      </trkpt>
      <trkpt lat="43.78259" lon="7.10991">
        <ele>663.59997558594</ele>
        <time>2023-08-02T09:21:12.000Z</time>
      </trkpt>
      <trkpt lat="43.78259" lon="7.10991">
        <ele>663.59997558594</ele>
        <time>2023-08-02T09:21:13.000Z</time>
      </trkpt>
      <trkpt lat="43.78259" lon="7.10991">
        <ele>663.59997558594</ele>
        <time>2023-08-02T09:21:14.000Z</time>
      </trkpt>
      <trkpt lat="43.78259" lon="7.10991">
        <ele>663.59997558594</ele>
        <time>2023-08-02T09:21:15.000Z</time>
      </trkpt>
      <trkpt lat="43.78259" lon="7.10991">
        <ele>663.59997558594</ele>
        <time>2023-08-02T09:21:16.000Z</time>
      </trkpt>
      <trkpt lat="43.78259" lon="7.10991">
        <ele>663.59997558594</ele>
        <time>2023-08-02T09:21:17.000Z</time>
      </trkpt>
      <trkpt lat="43.78259" lon="7.10991">
        <ele>663.59997558594</ele>
        <time>2023-08-02T09:21:18.000Z</time>
      </trkpt>
      <trkpt lat="43.78259" lon="7.10991">
        <ele>663.59997558594</ele>
        <time>2023-08-02T09:21:19.000Z</time>
      </trkpt>
      <trkpt lat="43.78259" lon="7.10991">
        <ele>663.59997558594</ele>
        <time>2023-08-02T09:21:20.000Z</time>
      </trkpt>
      <trkpt lat="43.78259" lon="7.10991">
        <ele>663.59997558594</ele>
        <time>2023-08-02T09:21:21.000Z</time>
      </trkpt>
      <trkpt lat="43.78259" lon="7.10991">
        <ele>663.59997558594</ele>
        <time>2023-08-02T09:21:22.000Z</time>
      </trkpt>
      <trkpt lat="43.78259" lon="7.10991">
        <ele>663.59997558594</ele>
        <time>2023-08-02T09:21:23.000Z</time>
      </trkpt>
      <trkpt lat="43.78259" lon="7.10991">
        <ele>663.59997558594</ele>
        <time>2023-08-02T09:21:24.000Z</time>
      </trkpt>
      <trkpt lat="43.78259" lon="7.10991">
        <ele>663.59997558594</ele>
        <time>2023-08-02T09:21:25.000Z</time>
      </trkpt>
      <trkpt lat="43.78259" lon="7.10991">
        <ele>663.59997558594</ele>
        <time>2023-08-02T09:21:26.000Z</time>
      </trkpt>
      <trkpt lat="43.78259" lon="7.10992">
        <ele>663.59997558594</ele>
        <time>2023-08-02T09:21:27.000Z</time>
      </trkpt>
      <trkpt lat="43.78259" lon="7.10992">
        <ele>663.59997558594</ele>
        <time>2023-08-02T09:21:28.000Z</time>
      </trkpt>
      <trkpt lat="43.78259" lon="7.10994">
        <ele>663.59997558594</ele>
        <time>2023-08-02T09:21:29.000Z</time>
      </trkpt>
      <trkpt lat="43.78258" lon="7.10995">
        <ele>663.59997558594</ele>
        <time>2023-08-02T09:21:30.000Z</time>
      </trkpt>
      <trkpt lat="43.78256" lon="7.10996">
        <ele>663.59997558594</ele>
        <time>2023-08-02T09:21:31.000Z</time>
      </trkpt>
      <trkpt lat="43.78255" lon="7.10998">
        <ele>663.59997558594</ele>
        <time>2023-08-02T09:21:32.000Z</time>
      </trkpt>
      <trkpt lat="43.78254" lon="7.11">
        <ele>663.59997558594</ele>
        <time>2023-08-02T09:21:33.000Z</time>
      </trkpt>
      <trkpt lat="43.78253" lon="7.11001">
        <ele>663.59997558594</ele>
        <time>2023-08-02T09:21:34.000Z</time>
      </trkpt>
      <trkpt lat="43.78253" lon="7.11002">
        <ele>663.59997558594</ele>
        <time>2023-08-02T09:21:35.000Z</time>
      </trkpt>
      <trkpt lat="43.78252" lon="7.11003">
        <ele>663.59997558594</ele>
        <time>2023-08-02T09:21:36.000Z</time>
      </trkpt>
      <trkpt lat="43.78252" lon="7.11003">
        <ele>663.59997558594</ele>
        <time>2023-08-02T09:21:37.000Z</time>
      </trkpt>
      <trkpt lat="43.78252" lon="7.11003">
        <ele>663.79998779297</ele>
        <time>2023-08-02T09:21:38.000Z</time>
      </trkpt>
      <trkpt lat="43.78251" lon="7.11003">
        <ele>663.79998779297</ele>
        <time>2023-08-02T09:21:39.000Z</time>
      </trkpt>
      <trkpt lat="43.78251" lon="7.11003">
        <ele>664</ele>
        <time>2023-08-02T09:21:40.000Z</time>
      </trkpt>
      <trkpt lat="43.78251" lon="7.11003">
        <ele>664</ele>
        <time>2023-08-02T09:21:41.000Z</time>
      </trkpt>
      <trkpt lat="43.7825" lon="7.11003">
        <ele>664</ele>
        <time>2023-08-02T09:21:42.000Z</time>
      </trkpt>
      <trkpt lat="43.78248" lon="7.11004">
        <ele>664</ele>
        <time>2023-08-02T09:21:43.000Z</time>
      </trkpt>
      <trkpt lat="43.78247" lon="7.11006">
        <ele>664</ele>
        <time>2023-08-02T09:21:44.000Z</time>
      </trkpt>
      <trkpt lat="43.78246" lon="7.11009">
        <ele>663.79998779297</ele>
        <time>2023-08-02T09:21:45.000Z</time>
      </trkpt>
      <trkpt lat="43.78246" lon="7.11011">
        <ele>663.79998779297</ele>
        <time>2023-08-02T09:21:46.000Z</time>
      </trkpt>
      <trkpt lat="43.78245" lon="7.11013">
        <ele>663.79998779297</ele>
        <time>2023-08-02T09:21:47.000Z</time>
      </trkpt>
      <trkpt lat="43.78244" lon="7.11014">
        <ele>663.79998779297</ele>
        <time>2023-08-02T09:21:48.000Z</time>
      </trkpt>
      <trkpt lat="43.78243" lon="7.11016">
        <ele>663.79998779297</ele>
        <time>2023-08-02T09:21:49.000Z</time>
      </trkpt>
      <trkpt lat="43.78242" lon="7.11018">
        <ele>664</ele>
        <time>2023-08-02T09:21:50.000Z</time>
      </trkpt>
      <trkpt lat="43.78241" lon="7.1102">
        <ele>664</ele>
        <time>2023-08-02T09:21:51.000Z</time>
      </trkpt>
      <trkpt lat="43.7824" lon="7.11022">
        <ele>664.20001220703</ele>
        <time>2023-08-02T09:21:52.000Z</time>
      </trkpt>
      <trkpt lat="43.78239" lon="7.11024">
        <ele>664.20001220703</ele>
        <time>2023-08-02T09:21:53.000Z</time>
      </trkpt>
      <trkpt lat="43.78238" lon="7.11026">
        <ele>664.20001220703</ele>
        <time>2023-08-02T09:21:54.000Z</time>
      </trkpt>
      <trkpt lat="43.78237" lon="7.11029">
        <ele>664.40002441406</ele>
        <time>2023-08-02T09:21:55.000Z</time>
      </trkpt>
      <trkpt lat="43.78237" lon="7.11032">
        <ele>664.59997558594</ele>
        <time>2023-08-02T09:21:56.000Z</time>
      </trkpt>
      <trkpt lat="43.78236" lon="7.11035">
        <ele>664.59997558594</ele>
        <time>2023-08-02T09:21:57.000Z</time>
      </trkpt>
      <trkpt lat="43.78235" lon="7.11037">
        <ele>664.79998779297</ele>
        <time>2023-08-02T09:21:58.000Z</time>
      </trkpt>
      <trkpt lat="43.78235" lon="7.11039">
        <ele>664.79998779297</ele>
        <time>2023-08-02T09:21:59.000Z</time>
      </trkpt>
      <trkpt lat="43.78235" lon="7.11042">
        <ele>665.40002441406</ele>
        <time>2023-08-02T09:22:00.000Z</time>
      </trkpt>
      <trkpt lat="43.78235" lon="7.11044">
        <ele>665.79998779297</ele>
        <time>2023-08-02T09:22:01.000Z</time>
      </trkpt>
      <trkpt lat="43.78235" lon="7.11046">
        <ele>666.20001220703</ele>
        <time>2023-08-02T09:22:02.000Z</time>
      </trkpt>
      <trkpt lat="43.78235" lon="7.11049">
        <ele>666.79998779297</ele>
        <time>2023-08-02T09:22:03.000Z</time>
      </trkpt>
      <trkpt lat="43.78234" lon="7.11049">
        <ele>667.20001220703</ele>
        <time>2023-08-02T09:22:04.000Z</time>
      </trkpt>
      <trkpt lat="43.78234" lon="7.11049">
        <ele>667.79998779297</ele>
        <time>2023-08-02T09:22:05.000Z</time>
      </trkpt>
      <trkpt lat="43.78234" lon="7.11049">
        <ele>668.20001220703</ele>
        <time>2023-08-02T09:22:06.000Z</time>
      </trkpt>
      <trkpt lat="43.78234" lon="7.1105">
        <ele>668.79998779297</ele>
        <time>2023-08-02T09:22:07.000Z</time>
      </trkpt>
      <trkpt lat="43.78234" lon="7.11051">
        <ele>669</ele>
        <time>2023-08-02T09:22:08.000Z</time>
      </trkpt>
      <trkpt lat="43.78234" lon="7.11051">
        <ele>669</ele>
        <time>2023-08-02T09:22:09.000Z</time>
      </trkpt>
      <trkpt lat="43.78233" lon="7.11051">
        <ele>669.20001220703</ele>
        <time>2023-08-02T09:22:10.000Z</time>
      </trkpt>
      <trkpt lat="43.78233" lon="7.11051">
        <ele>669.20001220703</ele>
        <time>2023-08-02T09:22:11.000Z</time>
      </trkpt>
      <trkpt lat="43.78233" lon="7.11051">
        <ele>669.20001220703</ele>
        <time>2023-08-02T09:22:12.000Z</time>
      </trkpt>
      <trkpt lat="43.78233" lon="7.11052">
        <ele>669.20001220703</ele>
        <time>2023-08-02T09:22:13.000Z</time>
      </trkpt>
      <trkpt lat="43.78232" lon="7.11053">
        <ele>669.40002441406</ele>
        <time>2023-08-02T09:22:14.000Z</time>
      </trkpt>
      <trkpt lat="43.78232" lon="7.11053">
        <ele>669.40002441406</ele>
        <time>2023-08-02T09:22:15.000Z</time>
      </trkpt>
      <trkpt lat="43.78231" lon="7.11053">
        <ele>669.40002441406</ele>
        <time>2023-08-02T09:22:16.000Z</time>
      </trkpt>
      <trkpt lat="43.78232" lon="7.11053">
        <ele>669.40002441406</ele>
        <time>2023-08-02T09:22:17.000Z</time>
      </trkpt>
      <trkpt lat="43.78231" lon="7.11053">
        <ele>669.40002441406</ele>
        <time>2023-08-02T09:22:18.000Z</time>
      </trkpt>
      <trkpt lat="43.7823" lon="7.11055">
        <ele>669.40002441406</ele>
        <time>2023-08-02T09:22:19.000Z</time>
      </trkpt>
      <trkpt lat="43.7823" lon="7.11056">
        <ele>669.40002441406</ele>
        <time>2023-08-02T09:22:20.000Z</time>
      </trkpt>
      <trkpt lat="43.78229" lon="7.11057">
        <ele>669.40002441406</ele>
        <time>2023-08-02T09:22:21.000Z</time>
      </trkpt>
      <trkpt lat="43.78228" lon="7.11058">
        <ele>669.40002441406</ele>
        <time>2023-08-02T09:22:22.000Z</time>
      </trkpt>
      <trkpt lat="43.78228" lon="7.11059">
        <ele>669.40002441406</ele>
        <time>2023-08-02T09:22:23.000Z</time>
      </trkpt>
      <trkpt lat="43.78227" lon="7.11059">
        <ele>669.40002441406</ele>
        <time>2023-08-02T09:22:24.000Z</time>
      </trkpt>
      <trkpt lat="43.78227" lon="7.11061">
        <ele>669.40002441406</ele>
        <time>2023-08-02T09:22:25.000Z</time>
      </trkpt>
      <trkpt lat="43.78227" lon="7.1106">
        <ele>669.40002441406</ele>
        <time>2023-08-02T09:22:26.000Z</time>
      </trkpt>
      <trkpt lat="43.78227" lon="7.1106">
        <ele>669.59997558594</ele>
        <time>2023-08-02T09:22:27.000Z</time>
      </trkpt>
      <trkpt lat="43.78228" lon="7.11061">
        <ele>669.59997558594</ele>
        <time>2023-08-02T09:22:28.000Z</time>
      </trkpt>
      <trkpt lat="43.78228" lon="7.11062">
        <ele>669.79998779297</ele>
        <time>2023-08-02T09:22:29.000Z</time>
      </trkpt>
      <trkpt lat="43.78228" lon="7.11063">
        <ele>669.79998779297</ele>
        <time>2023-08-02T09:22:30.000Z</time>
      </trkpt>
      <trkpt lat="43.78228" lon="7.11064">
        <ele>669.79998779297</ele>
        <time>2023-08-02T09:22:31.000Z</time>
      </trkpt>
      <trkpt lat="43.78228" lon="7.11065">
        <ele>669.79998779297</ele>
        <time>2023-08-02T09:22:32.000Z</time>
      </trkpt>
      <trkpt lat="43.78228" lon="7.11066">
        <ele>669.79998779297</ele>
        <time>2023-08-02T09:22:33.000Z</time>
      </trkpt>
      <trkpt lat="43.78228" lon="7.11066">
        <ele>670</ele>
        <time>2023-08-02T09:22:34.000Z</time>
      </trkpt>
      <trkpt lat="43.78228" lon="7.11066">
        <ele>670</ele>
        <time>2023-08-02T09:22:35.000Z</time>
      </trkpt>
      <trkpt lat="43.78228" lon="7.11066">
        <ele>670.20001220703</ele>
        <time>2023-08-02T09:22:36.000Z</time>
      </trkpt>
      <trkpt lat="43.78228" lon="7.11066">
        <ele>670.40002441406</ele>
        <time>2023-08-02T09:22:37.000Z</time>
      </trkpt>
      <trkpt lat="43.78228" lon="7.11066">
        <ele>670.59997558594</ele>
        <time>2023-08-02T09:22:38.000Z</time>
      </trkpt>
      <trkpt lat="43.78228" lon="7.11066">
        <ele>670.59997558594</ele>
        <time>2023-08-02T09:22:39.000Z</time>
      </trkpt>
      <trkpt lat="43.78228" lon="7.11066">
        <ele>670.59997558594</ele>
        <time>2023-08-02T09:22:40.000Z</time>
      </trkpt>
      <trkpt lat="43.78228" lon="7.11066">
        <ele>670.59997558594</ele>
        <time>2023-08-02T09:22:41.000Z</time>
      </trkpt>
      <trkpt lat="43.78228" lon="7.11066">
        <ele>670.59997558594</ele>
        <time>2023-08-02T09:22:42.000Z</time>
      </trkpt>
      <trkpt lat="43.78228" lon="7.11066">
        <ele>670.59997558594</ele>
        <time>2023-08-02T09:22:43.000Z</time>
      </trkpt>
      <trkpt lat="43.78228" lon="7.11066">
        <ele>670.59997558594</ele>
        <time>2023-08-02T09:22:44.000Z</time>
      </trkpt>
      <trkpt lat="43.78228" lon="7.11066">
        <ele>670.59997558594</ele>
        <time>2023-08-02T09:22:45.000Z</time>
      </trkpt>
      <trkpt lat="43.78228" lon="7.11066">
        <ele>670.59997558594</ele>
        <time>2023-08-02T09:22:46.000Z</time>
      </trkpt>
      <trkpt lat="43.78228" lon="7.11066">
        <ele>670.59997558594</ele>
        <time>2023-08-02T09:22:47.000Z</time>
      </trkpt>
      <trkpt lat="43.78228" lon="7.11066">
        <ele>670.59997558594</ele>
        <time>2023-08-02T09:22:48.000Z</time>
      </trkpt>
      <trkpt lat="43.78228" lon="7.11066">
        <ele>670.59997558594</ele>
        <time>2023-08-02T09:22:49.000Z</time>
      </trkpt>
      <trkpt lat="43.78228" lon="7.11066">
        <ele>670.59997558594</ele>
        <time>2023-08-02T09:22:50.000Z</time>
      </trkpt>
      <trkpt lat="43.78228" lon="7.11066">
        <ele>670.59997558594</ele>
        <time>2023-08-02T09:22:51.000Z</time>
      </trkpt>
      <trkpt lat="43.78228" lon="7.11066">
        <ele>670.59997558594</ele>
        <time>2023-08-02T09:22:52.000Z</time>
      </trkpt>
      <trkpt lat="43.78227" lon="7.11068">
        <ele>670.59997558594</ele>
        <time>2023-08-02T09:22:53.000Z</time>
      </trkpt>
      <trkpt lat="43.78227" lon="7.11069">
        <ele>670.59997558594</ele>
        <time>2023-08-02T09:22:54.000Z</time>
      </trkpt>
      <trkpt lat="43.78227" lon="7.11069">
        <ele>670.59997558594</ele>
        <time>2023-08-02T09:22:55.000Z</time>
      </trkpt>
      <trkpt lat="43.78227" lon="7.1107">
        <ele>670.59997558594</ele>
        <time>2023-08-02T09:22:56.000Z</time>
      </trkpt>
      <trkpt lat="43.78227" lon="7.11072">
        <ele>670.59997558594</ele>
        <time>2023-08-02T09:22:57.000Z</time>
      </trkpt>
      <trkpt lat="43.78227" lon="7.11073">
        <ele>670.59997558594</ele>
        <time>2023-08-02T09:22:58.000Z</time>
      </trkpt>
      <trkpt lat="43.78227" lon="7.11072">
        <ele>670.59997558594</ele>
        <time>2023-08-02T09:22:59.000Z</time>
      </trkpt>
      <trkpt lat="43.78227" lon="7.11073">
        <ele>670.79998779297</ele>
        <time>2023-08-02T09:23:00.000Z</time>
      </trkpt>
      <trkpt lat="43.78227" lon="7.11073">
        <ele>670.79998779297</ele>
        <time>2023-08-02T09:23:01.000Z</time>
      </trkpt>
      <trkpt lat="43.78227" lon="7.11073">
        <ele>671</ele>
        <time>2023-08-02T09:23:02.000Z</time>
      </trkpt>
      <trkpt lat="43.78227" lon="7.11074">
        <ele>671.20001220703</ele>
        <time>2023-08-02T09:23:03.000Z</time>
      </trkpt>
      <trkpt lat="43.78227" lon="7.11074">
        <ele>671.40002441406</ele>
        <time>2023-08-02T09:23:04.000Z</time>
      </trkpt>
      <trkpt lat="43.78227" lon="7.11074">
        <ele>671.40002441406</ele>
        <time>2023-08-02T09:23:05.000Z</time>
      </trkpt>
      <trkpt lat="43.78227" lon="7.11075">
        <ele>671.40002441406</ele>
        <time>2023-08-02T09:23:06.000Z</time>
      </trkpt>
      <trkpt lat="43.78227" lon="7.11075">
        <ele>671.40002441406</ele>
        <time>2023-08-02T09:23:07.000Z</time>
      </trkpt>
      <trkpt lat="43.78227" lon="7.11075">
        <ele>671.40002441406</ele>
        <time>2023-08-02T09:23:08.000Z</time>
      </trkpt>
      <trkpt lat="43.78227" lon="7.11075">
        <ele>671.59997558594</ele>
        <time>2023-08-02T09:23:09.000Z</time>
      </trkpt>
      <trkpt lat="43.78227" lon="7.11075">
        <ele>671.79998779297</ele>
        <time>2023-08-02T09:23:10.000Z</time>
      </trkpt>
      <trkpt lat="43.78227" lon="7.11075">
        <ele>671.79998779297</ele>
        <time>2023-08-02T09:23:11.000Z</time>
      </trkpt>
      <trkpt lat="43.78227" lon="7.11076">
        <ele>671.79998779297</ele>
        <time>2023-08-02T09:23:12.000Z</time>
      </trkpt>
      <trkpt lat="43.78227" lon="7.11076">
        <ele>672</ele>
        <time>2023-08-02T09:23:13.000Z</time>
      </trkpt>
      <trkpt lat="43.78227" lon="7.11076">
        <ele>672</ele>
        <time>2023-08-02T09:23:14.000Z</time>
      </trkpt>
      <trkpt lat="43.78226" lon="7.11076">
        <ele>672.20001220703</ele>
        <time>2023-08-02T09:23:15.000Z</time>
      </trkpt>
      <trkpt lat="43.78226" lon="7.11076">
        <ele>672.20001220703</ele>
        <time>2023-08-02T09:23:16.000Z</time>
      </trkpt>
      <trkpt lat="43.78225" lon="7.11076">
        <ele>672.20001220703</ele>
        <time>2023-08-02T09:23:17.000Z</time>
      </trkpt>
      <trkpt lat="43.78225" lon="7.11077">
        <ele>672.20001220703</ele>
        <time>2023-08-02T09:23:18.000Z</time>
      </trkpt>
      <trkpt lat="43.78225" lon="7.11077">
        <ele>672.20001220703</ele>
        <time>2023-08-02T09:23:19.000Z</time>
      </trkpt>
      <trkpt lat="43.78224" lon="7.11077">
        <ele>672.20001220703</ele>
        <time>2023-08-02T09:23:20.000Z</time>
      </trkpt>
      <trkpt lat="43.78224" lon="7.11078">
        <ele>672.20001220703</ele>
        <time>2023-08-02T09:23:21.000Z</time>
      </trkpt>
      <trkpt lat="43.78223" lon="7.11079">
        <ele>672.20001220703</ele>
        <time>2023-08-02T09:23:22.000Z</time>
      </trkpt>
      <trkpt lat="43.78223" lon="7.11079">
        <ele>672.20001220703</ele>
        <time>2023-08-02T09:23:23.000Z</time>
      </trkpt>
      <trkpt lat="43.78223" lon="7.1108">
        <ele>672.20001220703</ele>
        <time>2023-08-02T09:23:24.000Z</time>
      </trkpt>
      <trkpt lat="43.78222" lon="7.11081">
        <ele>672.40002441406</ele>
        <time>2023-08-02T09:23:25.000Z</time>
      </trkpt>
      <trkpt lat="43.78222" lon="7.11082">
        <ele>672.40002441406</ele>
        <time>2023-08-02T09:23:26.000Z</time>
      </trkpt>
      <trkpt lat="43.78222" lon="7.11081">
        <ele>672.59997558594</ele>
        <time>2023-08-02T09:23:27.000Z</time>
      </trkpt>
      <trkpt lat="43.78222" lon="7.11081">
        <ele>672.59997558594</ele>
        <time>2023-08-02T09:23:28.000Z</time>
      </trkpt>
      <trkpt lat="43.78222" lon="7.11081">
        <ele>672.59997558594</ele>
        <time>2023-08-02T09:23:29.000Z</time>
      </trkpt>
      <trkpt lat="43.78222" lon="7.11082">
        <ele>672.59997558594</ele>
        <time>2023-08-02T09:23:30.000Z</time>
      </trkpt>
      <trkpt lat="43.78222" lon="7.11082">
        <ele>672.59997558594</ele>
        <time>2023-08-02T09:23:31.000Z</time>
      </trkpt>
      <trkpt lat="43.78222" lon="7.11082">
        <ele>673</ele>
        <time>2023-08-02T09:23:32.000Z</time>
      </trkpt>
      <trkpt lat="43.78222" lon="7.11083">
        <ele>673</ele>
        <time>2023-08-02T09:23:33.000Z</time>
      </trkpt>
      <trkpt lat="43.78222" lon="7.11084">
        <ele>673</ele>
        <time>2023-08-02T09:23:34.000Z</time>
      </trkpt>
      <trkpt lat="43.78221" lon="7.11084">
        <ele>673</ele>
        <time>2023-08-02T09:23:35.000Z</time>
      </trkpt>
      <trkpt lat="43.78221" lon="7.11085">
        <ele>673</ele>
        <time>2023-08-02T09:23:36.000Z</time>
      </trkpt>
      <trkpt lat="43.78221" lon="7.11086">
        <ele>673.20001220703</ele>
        <time>2023-08-02T09:23:37.000Z</time>
      </trkpt>
      <trkpt lat="43.7822" lon="7.11088">
        <ele>673.20001220703</ele>
        <time>2023-08-02T09:23:38.000Z</time>
      </trkpt>
      <trkpt lat="43.7822" lon="7.11089">
        <ele>673.20001220703</ele>
        <time>2023-08-02T09:23:39.000Z</time>
      </trkpt>
      <trkpt lat="43.78219" lon="7.1109">
        <ele>673.20001220703</ele>
        <time>2023-08-02T09:23:40.000Z</time>
      </trkpt>
      <trkpt lat="43.78219" lon="7.11091">
        <ele>673.20001220703</ele>
        <time>2023-08-02T09:23:41.000Z</time>
      </trkpt>
      <trkpt lat="43.78219" lon="7.11091">
        <ele>673.20001220703</ele>
        <time>2023-08-02T09:23:42.000Z</time>
      </trkpt>
      <trkpt lat="43.78219" lon="7.11091">
        <ele>673.20001220703</ele>
        <time>2023-08-02T09:23:43.000Z</time>
      </trkpt>
      <trkpt lat="43.78219" lon="7.11092">
        <ele>673.20001220703</ele>
        <time>2023-08-02T09:23:44.000Z</time>
      </trkpt>
      <trkpt lat="43.78219" lon="7.11092">
        <ele>673.20001220703</ele>
        <time>2023-08-02T09:23:45.000Z</time>
      </trkpt>
      <trkpt lat="43.78219" lon="7.11092">
        <ele>673.40002441406</ele>
        <time>2023-08-02T09:23:46.000Z</time>
      </trkpt>
      <trkpt lat="43.78219" lon="7.11092">
        <ele>673.20001220703</ele>
        <time>2023-08-02T09:23:47.000Z</time>
      </trkpt>
      <trkpt lat="43.78219" lon="7.11092">
        <ele>673.20001220703</ele>
        <time>2023-08-02T09:23:48.000Z</time>
      </trkpt>
      <trkpt lat="43.78219" lon="7.11092">
        <ele>673.20001220703</ele>
        <time>2023-08-02T09:23:49.000Z</time>
      </trkpt>
      <trkpt lat="43.78219" lon="7.11092">
        <ele>673.20001220703</ele>
        <time>2023-08-02T09:23:50.000Z</time>
      </trkpt>
      <trkpt lat="43.78219" lon="7.11092">
        <ele>673</ele>
        <time>2023-08-02T09:23:51.000Z</time>
      </trkpt>
      <trkpt lat="43.78219" lon="7.11092">
        <ele>673</ele>
        <time>2023-08-02T09:23:52.000Z</time>
      </trkpt>
      <trkpt lat="43.78219" lon="7.11092">
        <ele>673</ele>
        <time>2023-08-02T09:23:53.000Z</time>
      </trkpt>
      <trkpt lat="43.78219" lon="7.11092">
        <ele>673</ele>
        <time>2023-08-02T09:23:54.000Z</time>
      </trkpt>
      <trkpt lat="43.78219" lon="7.11092">
        <ele>673</ele>
        <time>2023-08-02T09:23:55.000Z</time>
      </trkpt>
      <trkpt lat="43.78219" lon="7.11092">
        <ele>673</ele>
        <time>2023-08-02T09:23:56.000Z</time>
      </trkpt>
      <trkpt lat="43.78219" lon="7.11092">
        <ele>673</ele>
        <time>2023-08-02T09:23:57.000Z</time>
      </trkpt>
      <trkpt lat="43.78219" lon="7.11092">
        <ele>673</ele>
        <time>2023-08-02T09:23:58.000Z</time>
      </trkpt>
      <trkpt lat="43.78219" lon="7.11092">
        <ele>672.79998779297</ele>
        <time>2023-08-02T09:23:59.000Z</time>
      </trkpt>
      <trkpt lat="43.78219" lon="7.11092">
        <ele>672.79998779297</ele>
        <time>2023-08-02T09:24:00.000Z</time>
      </trkpt>
      <trkpt lat="43.78219" lon="7.11092">
        <ele>672.79998779297</ele>
        <time>2023-08-02T09:24:01.000Z</time>
      </trkpt>
      <trkpt lat="43.78219" lon="7.11092">
        <ele>672.79998779297</ele>
        <time>2023-08-02T09:24:02.000Z</time>
      </trkpt>
      <trkpt lat="43.78219" lon="7.11092">
        <ele>672.79998779297</ele>
        <time>2023-08-02T09:24:03.000Z</time>
      </trkpt>
      <trkpt lat="43.78219" lon="7.11092">
        <ele>672.79998779297</ele>
        <time>2023-08-02T09:24:04.000Z</time>
      </trkpt>
      <trkpt lat="43.78219" lon="7.11092">
        <ele>672.79998779297</ele>
        <time>2023-08-02T09:24:05.000Z</time>
      </trkpt>
      <trkpt lat="43.78219" lon="7.11092">
        <ele>672.59997558594</ele>
        <time>2023-08-02T09:24:06.000Z</time>
      </trkpt>
      <trkpt lat="43.78219" lon="7.11092">
        <ele>672.59997558594</ele>
        <time>2023-08-02T09:24:07.000Z</time>
      </trkpt>
      <trkpt lat="43.78219" lon="7.11092">
        <ele>672.59997558594</ele>
        <time>2023-08-02T09:24:08.000Z</time>
      </trkpt>
      <trkpt lat="43.78219" lon="7.11092">
        <ele>672.59997558594</ele>
        <time>2023-08-02T09:24:09.000Z</time>
      </trkpt>
      <trkpt lat="43.78219" lon="7.11092">
        <ele>672.59997558594</ele>
        <time>2023-08-02T09:24:10.000Z</time>
      </trkpt>
      <trkpt lat="43.78219" lon="7.11092">
        <ele>672.59997558594</ele>
        <time>2023-08-02T09:24:11.000Z</time>
      </trkpt>
      <trkpt lat="43.78219" lon="7.11092">
        <ele>672.59997558594</ele>
        <time>2023-08-02T09:24:12.000Z</time>
      </trkpt>
      <trkpt lat="43.78219" lon="7.11092">
        <ele>672.59997558594</ele>
        <time>2023-08-02T09:24:13.000Z</time>
      </trkpt>
      <trkpt lat="43.78219" lon="7.11092">
        <ele>672.59997558594</ele>
        <time>2023-08-02T09:24:14.000Z</time>
      </trkpt>
      <trkpt lat="43.78219" lon="7.11092">
        <ele>672.59997558594</ele>
        <time>2023-08-02T09:24:15.000Z</time>
      </trkpt>
      <trkpt lat="43.78219" lon="7.11092">
        <ele>672.59997558594</ele>
        <time>2023-08-02T09:24:16.000Z</time>
      </trkpt>
      <trkpt lat="43.78219" lon="7.11092">
        <ele>672.59997558594</ele>
        <time>2023-08-02T09:24:17.000Z</time>
      </trkpt>
      <trkpt lat="43.78219" lon="7.11092">
        <ele>672.59997558594</ele>
        <time>2023-08-02T09:24:18.000Z</time>
      </trkpt>
      <trkpt lat="43.78219" lon="7.11092">
        <ele>672.59997558594</ele>
        <time>2023-08-02T09:24:19.000Z</time>
      </trkpt>
      <trkpt lat="43.78219" lon="7.11092">
        <ele>672.59997558594</ele>
        <time>2023-08-02T09:24:20.000Z</time>
      </trkpt>
      <trkpt lat="43.78219" lon="7.11092">
        <ele>672.59997558594</ele>
        <time>2023-08-02T09:24:21.000Z</time>
      </trkpt>
      <trkpt lat="43.78219" lon="7.11092">
        <ele>672.40002441406</ele>
        <time>2023-08-02T09:24:22.000Z</time>
      </trkpt>
      <trkpt lat="43.78219" lon="7.11092">
        <ele>672.40002441406</ele>
        <time>2023-08-02T09:24:23.000Z</time>
      </trkpt>
      <trkpt lat="43.78219" lon="7.11092">
        <ele>672.40002441406</ele>
        <time>2023-08-02T09:24:24.000Z</time>
      </trkpt>
      <trkpt lat="43.78219" lon="7.11092">
        <ele>672.20001220703</ele>
        <time>2023-08-02T09:24:25.000Z</time>
      </trkpt>
      <trkpt lat="43.78219" lon="7.11092">
        <ele>672.20001220703</ele>
        <time>2023-08-02T09:24:26.000Z</time>
      </trkpt>
      <trkpt lat="43.78219" lon="7.11092">
        <ele>672.20001220703</ele>
        <time>2023-08-02T09:24:27.000Z</time>
      </trkpt>
      <trkpt lat="43.78219" lon="7.11092">
        <ele>672.20001220703</ele>
        <time>2023-08-02T09:24:28.000Z</time>
      </trkpt>
      <trkpt lat="43.78219" lon="7.11092">
        <ele>672.20001220703</ele>
        <time>2023-08-02T09:24:29.000Z</time>
      </trkpt>
      <trkpt lat="43.78219" lon="7.11092">
        <ele>672.20001220703</ele>
        <time>2023-08-02T09:24:30.000Z</time>
      </trkpt>
      <trkpt lat="43.78219" lon="7.11092">
        <ele>672.20001220703</ele>
        <time>2023-08-02T09:24:31.000Z</time>
      </trkpt>
      <trkpt lat="43.78219" lon="7.11092">
        <ele>672.20001220703</ele>
        <time>2023-08-02T09:24:32.000Z</time>
      </trkpt>
      <trkpt lat="43.78219" lon="7.11092">
        <ele>672.20001220703</ele>
        <time>2023-08-02T09:24:33.000Z</time>
      </trkpt>
      <trkpt lat="43.78219" lon="7.11092">
        <ele>672.20001220703</ele>
        <time>2023-08-02T09:24:34.000Z</time>
      </trkpt>
      <trkpt lat="43.78219" lon="7.11092">
        <ele>672.20001220703</ele>
        <time>2023-08-02T09:24:35.000Z</time>
      </trkpt>
      <trkpt lat="43.78219" lon="7.11092">
        <ele>672</ele>
        <time>2023-08-02T09:24:36.000Z</time>
      </trkpt>
      <trkpt lat="43.78219" lon="7.11092">
        <ele>672</ele>
        <time>2023-08-02T09:24:37.000Z</time>
      </trkpt>
      <trkpt lat="43.78219" lon="7.11092">
        <ele>672</ele>
        <time>2023-08-02T09:24:38.000Z</time>
      </trkpt>
      <trkpt lat="43.78219" lon="7.11092">
        <ele>672</ele>
        <time>2023-08-02T09:24:39.000Z</time>
      </trkpt>
      <trkpt lat="43.78219" lon="7.11092">
        <ele>672.20001220703</ele>
        <time>2023-08-02T09:24:40.000Z</time>
      </trkpt>
      <trkpt lat="43.78219" lon="7.11092">
        <ele>672.20001220703</ele>
        <time>2023-08-02T09:24:41.000Z</time>
      </trkpt>
      <trkpt lat="43.78219" lon="7.11092">
        <ele>672.20001220703</ele>
        <time>2023-08-02T09:24:42.000Z</time>
      </trkpt>
      <trkpt lat="43.78219" lon="7.11092">
        <ele>672.20001220703</ele>
        <time>2023-08-02T09:24:43.000Z</time>
      </trkpt>
      <trkpt lat="43.78219" lon="7.11092">
        <ele>672.20001220703</ele>
        <time>2023-08-02T09:24:44.000Z</time>
      </trkpt>
      <trkpt lat="43.78219" lon="7.11092">
        <ele>672.20001220703</ele>
        <time>2023-08-02T09:24:45.000Z</time>
      </trkpt>
      <trkpt lat="43.78219" lon="7.11092">
        <ele>672.20001220703</ele>
        <time>2023-08-02T09:24:46.000Z</time>
      </trkpt>
      <trkpt lat="43.78219" lon="7.11092">
        <ele>672.20001220703</ele>
        <time>2023-08-02T09:24:47.000Z</time>
      </trkpt>
      <trkpt lat="43.78219" lon="7.11092">
        <ele>672.20001220703</ele>
        <time>2023-08-02T09:24:48.000Z</time>
      </trkpt>
      <trkpt lat="43.78219" lon="7.11092">
        <ele>672.20001220703</ele>
        <time>2023-08-02T09:24:49.000Z</time>
      </trkpt>
      <trkpt lat="43.78219" lon="7.11092">
        <ele>672.20001220703</ele>
        <time>2023-08-02T09:24:50.000Z</time>
      </trkpt>
      <trkpt lat="43.78219" lon="7.11092">
        <ele>672.20001220703</ele>
        <time>2023-08-02T09:24:51.000Z</time>
      </trkpt>
      <trkpt lat="43.78219" lon="7.11092">
        <ele>672.20001220703</ele>
        <time>2023-08-02T09:24:52.000Z</time>
      </trkpt>
      <trkpt lat="43.78219" lon="7.11092">
        <ele>672.20001220703</ele>
        <time>2023-08-02T09:24:53.000Z</time>
      </trkpt>
      <trkpt lat="43.78219" lon="7.11092">
        <ele>672.40002441406</ele>
        <time>2023-08-02T09:24:54.000Z</time>
      </trkpt>
      <trkpt lat="43.78219" lon="7.11092">
        <ele>672.40002441406</ele>
        <time>2023-08-02T09:24:55.000Z</time>
      </trkpt>
      <trkpt lat="43.78219" lon="7.11092">
        <ele>672.40002441406</ele>
        <time>2023-08-02T09:24:56.000Z</time>
      </trkpt>
      <trkpt lat="43.78219" lon="7.11092">
        <ele>672.40002441406</ele>
        <time>2023-08-02T09:24:57.000Z</time>
      </trkpt>
      <trkpt lat="43.78219" lon="7.11092">
        <ele>672.40002441406</ele>
        <time>2023-08-02T09:24:58.000Z</time>
      </trkpt>
      <trkpt lat="43.78219" lon="7.11092">
        <ele>672.20001220703</ele>
        <time>2023-08-02T09:24:59.000Z</time>
      </trkpt>
      <trkpt lat="43.78219" lon="7.11092">
        <ele>672.20001220703</ele>
        <time>2023-08-02T09:25:00.000Z</time>
      </trkpt>
      <trkpt lat="43.78219" lon="7.11092">
        <ele>672.20001220703</ele>
        <time>2023-08-02T09:25:01.000Z</time>
      </trkpt>
      <trkpt lat="43.78219" lon="7.11092">
        <ele>672.20001220703</ele>
        <time>2023-08-02T09:25:02.000Z</time>
      </trkpt>
      <trkpt lat="43.78219" lon="7.11092">
        <ele>672.20001220703</ele>
        <time>2023-08-02T09:25:03.000Z</time>
      </trkpt>
      <trkpt lat="43.78219" lon="7.11092">
        <ele>672.20001220703</ele>
        <time>2023-08-02T09:25:04.000Z</time>
      </trkpt>
      <trkpt lat="43.78219" lon="7.11092">
        <ele>672.20001220703</ele>
        <time>2023-08-02T09:25:05.000Z</time>
      </trkpt>
      <trkpt lat="43.78219" lon="7.11092">
        <ele>672.20001220703</ele>
        <time>2023-08-02T09:25:06.000Z</time>
      </trkpt>
      <trkpt lat="43.78219" lon="7.11092">
        <ele>672.20001220703</ele>
        <time>2023-08-02T09:25:07.000Z</time>
      </trkpt>
      <trkpt lat="43.78219" lon="7.11092">
        <ele>672.20001220703</ele>
        <time>2023-08-02T09:25:08.000Z</time>
      </trkpt>
      <trkpt lat="43.78219" lon="7.11092">
        <ele>672.20001220703</ele>
        <time>2023-08-02T09:25:09.000Z</time>
      </trkpt>
      <trkpt lat="43.78219" lon="7.11092">
        <ele>672.20001220703</ele>
        <time>2023-08-02T09:25:10.000Z</time>
      </trkpt>
      <trkpt lat="43.78219" lon="7.11092">
        <ele>672.20001220703</ele>
        <time>2023-08-02T09:25:11.000Z</time>
      </trkpt>
      <trkpt lat="43.78219" lon="7.11092">
        <ele>672.20001220703</ele>
        <time>2023-08-02T09:25:12.000Z</time>
      </trkpt>
      <trkpt lat="43.78219" lon="7.11092">
        <ele>672.20001220703</ele>
        <time>2023-08-02T09:25:13.000Z</time>
      </trkpt>
      <trkpt lat="43.78219" lon="7.11093">
        <ele>672.20001220703</ele>
        <time>2023-08-02T09:25:14.000Z</time>
      </trkpt>
      <trkpt lat="43.78219" lon="7.11092">
        <ele>672.20001220703</ele>
        <time>2023-08-02T09:25:15.000Z</time>
      </trkpt>
      <trkpt lat="43.78219" lon="7.11092">
        <ele>672.20001220703</ele>
        <time>2023-08-02T09:25:16.000Z</time>
      </trkpt>
      <trkpt lat="43.78219" lon="7.11092">
        <ele>672.20001220703</ele>
        <time>2023-08-02T09:25:17.000Z</time>
      </trkpt>
      <trkpt lat="43.78219" lon="7.11092">
        <ele>672</ele>
        <time>2023-08-02T09:25:18.000Z</time>
      </trkpt>
      <trkpt lat="43.78219" lon="7.11092">
        <ele>672</ele>
        <time>2023-08-02T09:25:19.000Z</time>
      </trkpt>
      <trkpt lat="43.78219" lon="7.11092">
        <ele>672</ele>
        <time>2023-08-02T09:25:20.000Z</time>
      </trkpt>
      <trkpt lat="43.78219" lon="7.11092">
        <ele>671.79998779297</ele>
        <time>2023-08-02T09:25:21.000Z</time>
      </trkpt>
      <trkpt lat="43.78219" lon="7.11092">
        <ele>671.79998779297</ele>
        <time>2023-08-02T09:25:22.000Z</time>
      </trkpt>
      <trkpt lat="43.78219" lon="7.11092">
        <ele>671.79998779297</ele>
        <time>2023-08-02T09:25:23.000Z</time>
      </trkpt>
      <trkpt lat="43.78219" lon="7.11092">
        <ele>671.79998779297</ele>
        <time>2023-08-02T09:25:24.000Z</time>
      </trkpt>
      <trkpt lat="43.78219" lon="7.11092">
        <ele>671.79998779297</ele>
        <time>2023-08-02T09:25:25.000Z</time>
      </trkpt>
      <trkpt lat="43.78219" lon="7.11092">
        <ele>672</ele>
        <time>2023-08-02T09:25:26.000Z</time>
      </trkpt>
      <trkpt lat="43.78219" lon="7.11092">
        <ele>672</ele>
        <time>2023-08-02T09:25:27.000Z</time>
      </trkpt>
      <trkpt lat="43.78219" lon="7.11092">
        <ele>672</ele>
        <time>2023-08-02T09:25:28.000Z</time>
      </trkpt>
      <trkpt lat="43.78219" lon="7.11092">
        <ele>672</ele>
        <time>2023-08-02T09:25:29.000Z</time>
      </trkpt>
      <trkpt lat="43.78219" lon="7.11092">
        <ele>672</ele>
        <time>2023-08-02T09:25:30.000Z</time>
      </trkpt>
      <trkpt lat="43.78219" lon="7.11092">
        <ele>672.20001220703</ele>
        <time>2023-08-02T09:25:31.000Z</time>
      </trkpt>
      <trkpt lat="43.78218" lon="7.11093">
        <ele>672.20001220703</ele>
        <time>2023-08-02T09:25:32.000Z</time>
      </trkpt>
      <trkpt lat="43.78217" lon="7.11093">
        <ele>672.20001220703</ele>
        <time>2023-08-02T09:25:33.000Z</time>
      </trkpt>
      <trkpt lat="43.78215" lon="7.11093">
        <ele>672.40002441406</ele>
        <time>2023-08-02T09:25:34.000Z</time>
      </trkpt>
      <trkpt lat="43.78214" lon="7.11094">
        <ele>672.40002441406</ele>
        <time>2023-08-02T09:25:35.000Z</time>
      </trkpt>
      <trkpt lat="43.78212" lon="7.11095">
        <ele>672.40002441406</ele>
        <time>2023-08-02T09:25:36.000Z</time>
      </trkpt>
      <trkpt lat="43.78211" lon="7.11096">
        <ele>672.40002441406</ele>
        <time>2023-08-02T09:25:37.000Z</time>
      </trkpt>
      <trkpt lat="43.7821" lon="7.11098">
        <ele>672.20001220703</ele>
        <time>2023-08-02T09:25:38.000Z</time>
      </trkpt>
      <trkpt lat="43.78209" lon="7.111">
        <ele>672</ele>
        <time>2023-08-02T09:25:39.000Z</time>
      </trkpt>
      <trkpt lat="43.78208" lon="7.11101">
        <ele>672</ele>
        <time>2023-08-02T09:25:40.000Z</time>
      </trkpt>
      <trkpt lat="43.78207" lon="7.11103">
        <ele>672</ele>
        <time>2023-08-02T09:25:41.000Z</time>
      </trkpt>
      <trkpt lat="43.78206" lon="7.11104">
        <ele>671.79998779297</ele>
        <time>2023-08-02T09:25:42.000Z</time>
      </trkpt>
      <trkpt lat="43.78205" lon="7.11106">
        <ele>671.79998779297</ele>
        <time>2023-08-02T09:25:43.000Z</time>
      </trkpt>
      <trkpt lat="43.78204" lon="7.11108">
        <ele>671.79998779297</ele>
        <time>2023-08-02T09:25:44.000Z</time>
      </trkpt>
      <trkpt lat="43.78204" lon="7.11109">
        <ele>671.79998779297</ele>
        <time>2023-08-02T09:25:45.000Z</time>
      </trkpt>
      <trkpt lat="43.78203" lon="7.1111">
        <ele>671.79998779297</ele>
        <time>2023-08-02T09:25:46.000Z</time>
      </trkpt>
      <trkpt lat="43.78202" lon="7.11111">
        <ele>671.79998779297</ele>
        <time>2023-08-02T09:25:47.000Z</time>
      </trkpt>
      <trkpt lat="43.78201" lon="7.11113">
        <ele>671.79998779297</ele>
        <time>2023-08-02T09:25:48.000Z</time>
      </trkpt>
      <trkpt lat="43.78201" lon="7.11115">
        <ele>671.79998779297</ele>
        <time>2023-08-02T09:25:49.000Z</time>
      </trkpt>
      <trkpt lat="43.782" lon="7.11116">
        <ele>671.79998779297</ele>
        <time>2023-08-02T09:25:50.000Z</time>
      </trkpt>
      <trkpt lat="43.782" lon="7.11115">
        <ele>671.79998779297</ele>
        <time>2023-08-02T09:25:51.000Z</time>
      </trkpt>
      <trkpt lat="43.782" lon="7.11115">
        <ele>671.79998779297</ele>
        <time>2023-08-02T09:25:52.000Z</time>
      </trkpt>
      <trkpt lat="43.78199" lon="7.11116">
        <ele>671.79998779297</ele>
        <time>2023-08-02T09:25:53.000Z</time>
      </trkpt>
      <trkpt lat="43.78198" lon="7.11116">
        <ele>671.79998779297</ele>
        <time>2023-08-02T09:25:54.000Z</time>
      </trkpt>
      <trkpt lat="43.78197" lon="7.11117">
        <ele>671.79998779297</ele>
        <time>2023-08-02T09:25:55.000Z</time>
      </trkpt>
      <trkpt lat="43.78196" lon="7.11119">
        <ele>671.79998779297</ele>
        <time>2023-08-02T09:25:56.000Z</time>
      </trkpt>
      <trkpt lat="43.78195" lon="7.1112">
        <ele>671.59997558594</ele>
        <time>2023-08-02T09:25:57.000Z</time>
      </trkpt>
      <trkpt lat="43.78193" lon="7.11122">
        <ele>671.40002441406</ele>
        <time>2023-08-02T09:25:58.000Z</time>
      </trkpt>
      <trkpt lat="43.78191" lon="7.11124">
        <ele>671.20001220703</ele>
        <time>2023-08-02T09:25:59.000Z</time>
      </trkpt>
      <trkpt lat="43.78189" lon="7.11125">
        <ele>671.20001220703</ele>
        <time>2023-08-02T09:26:00.000Z</time>
      </trkpt>
      <trkpt lat="43.78187" lon="7.11125">
        <ele>671</ele>
        <time>2023-08-02T09:26:01.000Z</time>
      </trkpt>
      <trkpt lat="43.78185" lon="7.11126">
        <ele>670.79998779297</ele>
        <time>2023-08-02T09:26:02.000Z</time>
      </trkpt>
      <trkpt lat="43.78183" lon="7.11127">
        <ele>670.20001220703</ele>
        <time>2023-08-02T09:26:03.000Z</time>
      </trkpt>
      <trkpt lat="43.78181" lon="7.11128">
        <ele>669.79998779297</ele>
        <time>2023-08-02T09:26:04.000Z</time>
      </trkpt>
      <trkpt lat="43.7818" lon="7.1113">
        <ele>669.79998779297</ele>
        <time>2023-08-02T09:26:05.000Z</time>
      </trkpt>
      <trkpt lat="43.78179" lon="7.11132">
        <ele>669.40002441406</ele>
        <time>2023-08-02T09:26:06.000Z</time>
      </trkpt>
      <trkpt lat="43.78178" lon="7.11134">
        <ele>668.79998779297</ele>
        <time>2023-08-02T09:26:07.000Z</time>
      </trkpt>
      <trkpt lat="43.78178" lon="7.11136">
        <ele>668.59997558594</ele>
        <time>2023-08-02T09:26:08.000Z</time>
      </trkpt>
      <trkpt lat="43.78177" lon="7.11138">
        <ele>668.20001220703</ele>
        <time>2023-08-02T09:26:09.000Z</time>
      </trkpt>
      <trkpt lat="43.78175" lon="7.11141">
        <ele>668</ele>
        <time>2023-08-02T09:26:10.000Z</time>
      </trkpt>
      <trkpt lat="43.78174" lon="7.11143">
        <ele>667.59997558594</ele>
        <time>2023-08-02T09:26:11.000Z</time>
      </trkpt>
      <trkpt lat="43.78172" lon="7.11145">
        <ele>667.20001220703</ele>
        <time>2023-08-02T09:26:12.000Z</time>
      </trkpt>
      <trkpt lat="43.7817" lon="7.11146">
        <ele>667.20001220703</ele>
        <time>2023-08-02T09:26:13.000Z</time>
      </trkpt>
      <trkpt lat="43.78169" lon="7.11147">
        <ele>666.79998779297</ele>
        <time>2023-08-02T09:26:14.000Z</time>
      </trkpt>
      <trkpt lat="43.78167" lon="7.11148">
        <ele>666.79998779297</ele>
        <time>2023-08-02T09:26:15.000Z</time>
      </trkpt>
      <trkpt lat="43.78165" lon="7.1115">
        <ele>666.59997558594</ele>
        <time>2023-08-02T09:26:16.000Z</time>
      </trkpt>
      <trkpt lat="43.78163" lon="7.11152">
        <ele>666.20001220703</ele>
        <time>2023-08-02T09:26:17.000Z</time>
      </trkpt>
      <trkpt lat="43.78161" lon="7.11156">
        <ele>666.20001220703</ele>
        <time>2023-08-02T09:26:18.000Z</time>
      </trkpt>
      <trkpt lat="43.78159" lon="7.11159">
        <ele>665.59997558594</ele>
        <time>2023-08-02T09:26:19.000Z</time>
      </trkpt>
      <trkpt lat="43.78156" lon="7.11162">
        <ele>665</ele>
        <time>2023-08-02T09:26:20.000Z</time>
      </trkpt>
      <trkpt lat="43.78154" lon="7.11164">
        <ele>665</ele>
        <time>2023-08-02T09:26:21.000Z</time>
      </trkpt>
      <trkpt lat="43.78152" lon="7.11168">
        <ele>664.79998779297</ele>
        <time>2023-08-02T09:26:22.000Z</time>
      </trkpt>
      <trkpt lat="43.7815" lon="7.11171">
        <ele>664.59997558594</ele>
        <time>2023-08-02T09:26:23.000Z</time>
      </trkpt>
      <trkpt lat="43.78149" lon="7.11175">
        <ele>664.40002441406</ele>
        <time>2023-08-02T09:26:24.000Z</time>
      </trkpt>
      <trkpt lat="43.78147" lon="7.11178">
        <ele>664.20001220703</ele>
        <time>2023-08-02T09:26:25.000Z</time>
      </trkpt>
      <trkpt lat="43.78145" lon="7.11181">
        <ele>664</ele>
        <time>2023-08-02T09:26:26.000Z</time>
      </trkpt>
      <trkpt lat="43.78145" lon="7.11183">
        <ele>663.20001220703</ele>
        <time>2023-08-02T09:26:27.000Z</time>
      </trkpt>
      <trkpt lat="43.78144" lon="7.11186">
        <ele>663.20001220703</ele>
        <time>2023-08-02T09:26:28.000Z</time>
      </trkpt>
      <trkpt lat="43.78142" lon="7.11188">
        <ele>663.20001220703</ele>
        <time>2023-08-02T09:26:29.000Z</time>
      </trkpt>
      <trkpt lat="43.7814" lon="7.11191">
        <ele>663.20001220703</ele>
        <time>2023-08-02T09:26:30.000Z</time>
      </trkpt>
      <trkpt lat="43.78138" lon="7.11193">
        <ele>663</ele>
        <time>2023-08-02T09:26:31.000Z</time>
      </trkpt>
      <trkpt lat="43.78136" lon="7.11194">
        <ele>662.79998779297</ele>
        <time>2023-08-02T09:26:32.000Z</time>
      </trkpt>
      <trkpt lat="43.78134" lon="7.11195">
        <ele>662.40002441406</ele>
        <time>2023-08-02T09:26:33.000Z</time>
      </trkpt>
      <trkpt lat="43.78133" lon="7.11197">
        <ele>662.20001220703</ele>
        <time>2023-08-02T09:26:34.000Z</time>
      </trkpt>
      <trkpt lat="43.78132" lon="7.11199">
        <ele>661.79998779297</ele>
        <time>2023-08-02T09:26:35.000Z</time>
      </trkpt>
      <trkpt lat="43.78131" lon="7.11202">
        <ele>661.79998779297</ele>
        <time>2023-08-02T09:26:36.000Z</time>
      </trkpt>
      <trkpt lat="43.78129" lon="7.11206">
        <ele>661.20001220703</ele>
        <time>2023-08-02T09:26:37.000Z</time>
      </trkpt>
      <trkpt lat="43.78127" lon="7.1121">
        <ele>661</ele>
        <time>2023-08-02T09:26:38.000Z</time>
      </trkpt>
      <trkpt lat="43.78125" lon="7.11214">
        <ele>660.59997558594</ele>
        <time>2023-08-02T09:26:39.000Z</time>
      </trkpt>
      <trkpt lat="43.78124" lon="7.11218">
        <ele>660.59997558594</ele>
        <time>2023-08-02T09:26:40.000Z</time>
      </trkpt>
      <trkpt lat="43.78123" lon="7.11222">
        <ele>660.40002441406</ele>
        <time>2023-08-02T09:26:41.000Z</time>
      </trkpt>
      <trkpt lat="43.78122" lon="7.11227">
        <ele>660.40002441406</ele>
        <time>2023-08-02T09:26:42.000Z</time>
      </trkpt>
      <trkpt lat="43.78121" lon="7.11232">
        <ele>660</ele>
        <time>2023-08-02T09:26:43.000Z</time>
      </trkpt>
      <trkpt lat="43.78121" lon="7.11237">
        <ele>659.59997558594</ele>
        <time>2023-08-02T09:26:44.000Z</time>
      </trkpt>
      <trkpt lat="43.78121" lon="7.11241">
        <ele>659.20001220703</ele>
        <time>2023-08-02T09:26:45.000Z</time>
      </trkpt>
      <trkpt lat="43.7812" lon="7.11245">
        <ele>659.20001220703</ele>
        <time>2023-08-02T09:26:46.000Z</time>
      </trkpt>
      <trkpt lat="43.78119" lon="7.11249">
        <ele>659</ele>
        <time>2023-08-02T09:26:47.000Z</time>
      </trkpt>
      <trkpt lat="43.78118" lon="7.11253">
        <ele>659</ele>
        <time>2023-08-02T09:26:48.000Z</time>
      </trkpt>
      <trkpt lat="43.78119" lon="7.11257">
        <ele>658.79998779297</ele>
        <time>2023-08-02T09:26:49.000Z</time>
      </trkpt>
      <trkpt lat="43.78119" lon="7.11261">
        <ele>658.59997558594</ele>
        <time>2023-08-02T09:26:50.000Z</time>
      </trkpt>
      <trkpt lat="43.7812" lon="7.11264">
        <ele>658.59997558594</ele>
        <time>2023-08-02T09:26:51.000Z</time>
      </trkpt>
      <trkpt lat="43.7812" lon="7.11266">
        <ele>658.59997558594</ele>
        <time>2023-08-02T09:26:52.000Z</time>
      </trkpt>
      <trkpt lat="43.78119" lon="7.11268">
        <ele>658.79998779297</ele>
        <time>2023-08-02T09:26:53.000Z</time>
      </trkpt>
      <trkpt lat="43.78118" lon="7.11271">
        <ele>658.59997558594</ele>
        <time>2023-08-02T09:26:54.000Z</time>
      </trkpt>
      <trkpt lat="43.78118" lon="7.11274">
        <ele>658.59997558594</ele>
        <time>2023-08-02T09:26:55.000Z</time>
      </trkpt>
      <trkpt lat="43.78118" lon="7.11278">
        <ele>658.59997558594</ele>
        <time>2023-08-02T09:26:56.000Z</time>
      </trkpt>
      <trkpt lat="43.78119" lon="7.1128">
        <ele>658.59997558594</ele>
        <time>2023-08-02T09:26:57.000Z</time>
      </trkpt>
      <trkpt lat="43.7812" lon="7.11282">
        <ele>658.59997558594</ele>
        <time>2023-08-02T09:26:58.000Z</time>
      </trkpt>
      <trkpt lat="43.7812" lon="7.11283">
        <ele>658.40002441406</ele>
        <time>2023-08-02T09:26:59.000Z</time>
      </trkpt>
      <trkpt lat="43.7812" lon="7.11282">
        <ele>658.40002441406</ele>
        <time>2023-08-02T09:27:00.000Z</time>
      </trkpt>
      <trkpt lat="43.7812" lon="7.11282">
        <ele>658.40002441406</ele>
        <time>2023-08-02T09:27:01.000Z</time>
      </trkpt>
      <trkpt lat="43.7812" lon="7.11282">
        <ele>658.59997558594</ele>
        <time>2023-08-02T09:27:02.000Z</time>
      </trkpt>
      <trkpt lat="43.7812" lon="7.11282">
        <ele>658.59997558594</ele>
        <time>2023-08-02T09:27:03.000Z</time>
      </trkpt>
      <trkpt lat="43.7812" lon="7.11282">
        <ele>658.59997558594</ele>
        <time>2023-08-02T09:27:04.000Z</time>
      </trkpt>
      <trkpt lat="43.7812" lon="7.11282">
        <ele>658.59997558594</ele>
        <time>2023-08-02T09:27:05.000Z</time>
      </trkpt>
      <trkpt lat="43.7812" lon="7.11282">
        <ele>658.59997558594</ele>
        <time>2023-08-02T09:27:06.000Z</time>
      </trkpt>
      <trkpt lat="43.7812" lon="7.11282">
        <ele>658.59997558594</ele>
        <time>2023-08-02T09:27:07.000Z</time>
      </trkpt>
      <trkpt lat="43.7812" lon="7.11282">
        <ele>658.40002441406</ele>
        <time>2023-08-02T09:27:08.000Z</time>
      </trkpt>
      <trkpt lat="43.7812" lon="7.11282">
        <ele>658.40002441406</ele>
        <time>2023-08-02T09:27:09.000Z</time>
      </trkpt>
      <trkpt lat="43.7812" lon="7.11282">
        <ele>658.40002441406</ele>
        <time>2023-08-02T09:27:10.000Z</time>
      </trkpt>
      <trkpt lat="43.7812" lon="7.11282">
        <ele>658.20001220703</ele>
        <time>2023-08-02T09:27:11.000Z</time>
      </trkpt>
      <trkpt lat="43.7812" lon="7.11282">
        <ele>658.40002441406</ele>
        <time>2023-08-02T09:27:12.000Z</time>
      </trkpt>
      <trkpt lat="43.7812" lon="7.11282">
        <ele>658.59997558594</ele>
        <time>2023-08-02T09:27:13.000Z</time>
      </trkpt>
      <trkpt lat="43.7812" lon="7.11282">
        <ele>658.59997558594</ele>
        <time>2023-08-02T09:27:14.000Z</time>
      </trkpt>
      <trkpt lat="43.7812" lon="7.11282">
        <ele>658.59997558594</ele>
        <time>2023-08-02T09:27:15.000Z</time>
      </trkpt>
      <trkpt lat="43.7812" lon="7.11282">
        <ele>658.40002441406</ele>
        <time>2023-08-02T09:27:16.000Z</time>
      </trkpt>
      <trkpt lat="43.7812" lon="7.11282">
        <ele>658.40002441406</ele>
        <time>2023-08-02T09:27:17.000Z</time>
      </trkpt>
      <trkpt lat="43.7812" lon="7.11282">
        <ele>658.40002441406</ele>
        <time>2023-08-02T09:27:18.000Z</time>
      </trkpt>
      <trkpt lat="43.7812" lon="7.11282">
        <ele>658.40002441406</ele>
        <time>2023-08-02T09:27:19.000Z</time>
      </trkpt>
      <trkpt lat="43.7812" lon="7.11282">
        <ele>658.40002441406</ele>
        <time>2023-08-02T09:27:20.000Z</time>
      </trkpt>
      <trkpt lat="43.7812" lon="7.11282">
        <ele>658.40002441406</ele>
        <time>2023-08-02T09:27:21.000Z</time>
      </trkpt>
      <trkpt lat="43.7812" lon="7.11282">
        <ele>658.40002441406</ele>
        <time>2023-08-02T09:27:22.000Z</time>
      </trkpt>
      <trkpt lat="43.7812" lon="7.11282">
        <ele>658.20001220703</ele>
        <time>2023-08-02T09:27:23.000Z</time>
      </trkpt>
      <trkpt lat="43.7812" lon="7.11282">
        <ele>658.40002441406</ele>
        <time>2023-08-02T09:27:24.000Z</time>
      </trkpt>
      <trkpt lat="43.7812" lon="7.11282">
        <ele>658.40002441406</ele>
        <time>2023-08-02T09:27:25.000Z</time>
      </trkpt>
      <trkpt lat="43.7812" lon="7.11282">
        <ele>658.20001220703</ele>
        <time>2023-08-02T09:27:26.000Z</time>
      </trkpt>
      <trkpt lat="43.7812" lon="7.11282">
        <ele>658.20001220703</ele>
        <time>2023-08-02T09:27:27.000Z</time>
      </trkpt>
      <trkpt lat="43.7812" lon="7.11282">
        <ele>658.20001220703</ele>
        <time>2023-08-02T09:27:28.000Z</time>
      </trkpt>
      <trkpt lat="43.7812" lon="7.11282">
        <ele>658.20001220703</ele>
        <time>2023-08-02T09:27:29.000Z</time>
      </trkpt>
      <trkpt lat="43.7812" lon="7.11282">
        <ele>658.20001220703</ele>
        <time>2023-08-02T09:27:30.000Z</time>
      </trkpt>
      <trkpt lat="43.7812" lon="7.11282">
        <ele>658.20001220703</ele>
        <time>2023-08-02T09:27:31.000Z</time>
      </trkpt>
      <trkpt lat="43.7812" lon="7.11282">
        <ele>658.20001220703</ele>
        <time>2023-08-02T09:27:32.000Z</time>
      </trkpt>
      <trkpt lat="43.7812" lon="7.11282">
        <ele>658.20001220703</ele>
        <time>2023-08-02T09:27:33.000Z</time>
      </trkpt>
      <trkpt lat="43.7812" lon="7.11282">
        <ele>658</ele>
        <time>2023-08-02T09:27:34.000Z</time>
      </trkpt>
      <trkpt lat="43.7812" lon="7.11282">
        <ele>658</ele>
        <time>2023-08-02T09:27:35.000Z</time>
      </trkpt>
      <trkpt lat="43.7812" lon="7.11282">
        <ele>658</ele>
        <time>2023-08-02T09:27:36.000Z</time>
      </trkpt>
      <trkpt lat="43.7812" lon="7.11282">
        <ele>658.20001220703</ele>
        <time>2023-08-02T09:27:37.000Z</time>
      </trkpt>
      <trkpt lat="43.7812" lon="7.11282">
        <ele>658.59997558594</ele>
        <time>2023-08-02T09:27:38.000Z</time>
      </trkpt>
      <trkpt lat="43.7812" lon="7.11282">
        <ele>658.59997558594</ele>
        <time>2023-08-02T09:27:39.000Z</time>
      </trkpt>
      <trkpt lat="43.7812" lon="7.11282">
        <ele>658.59997558594</ele>
        <time>2023-08-02T09:27:40.000Z</time>
      </trkpt>
      <trkpt lat="43.7812" lon="7.11282">
        <ele>658.59997558594</ele>
        <time>2023-08-02T09:27:41.000Z</time>
      </trkpt>
      <trkpt lat="43.7812" lon="7.11282">
        <ele>658.59997558594</ele>
        <time>2023-08-02T09:27:42.000Z</time>
      </trkpt>
      <trkpt lat="43.7812" lon="7.11282">
        <ele>658.59997558594</ele>
        <time>2023-08-02T09:27:43.000Z</time>
      </trkpt>
      <trkpt lat="43.7812" lon="7.11282">
        <ele>658.40002441406</ele>
        <time>2023-08-02T09:27:44.000Z</time>
      </trkpt>
      <trkpt lat="43.7812" lon="7.11282">
        <ele>658.20001220703</ele>
        <time>2023-08-02T09:27:45.000Z</time>
      </trkpt>
      <trkpt lat="43.7812" lon="7.11282">
        <ele>658.20001220703</ele>
        <time>2023-08-02T09:27:46.000Z</time>
      </trkpt>
      <trkpt lat="43.7812" lon="7.11282">
        <ele>658.20001220703</ele>
        <time>2023-08-02T09:27:47.000Z</time>
      </trkpt>
      <trkpt lat="43.7812" lon="7.11282">
        <ele>658.20001220703</ele>
        <time>2023-08-02T09:27:48.000Z</time>
      </trkpt>
      <trkpt lat="43.7812" lon="7.11282">
        <ele>658.20001220703</ele>
        <time>2023-08-02T09:27:49.000Z</time>
      </trkpt>
      <trkpt lat="43.7812" lon="7.11282">
        <ele>658.20001220703</ele>
        <time>2023-08-02T09:27:50.000Z</time>
      </trkpt>
      <trkpt lat="43.7812" lon="7.11282">
        <ele>658.20001220703</ele>
        <time>2023-08-02T09:27:51.000Z</time>
      </trkpt>
      <trkpt lat="43.7812" lon="7.11282">
        <ele>658.20001220703</ele>
        <time>2023-08-02T09:27:52.000Z</time>
      </trkpt>
      <trkpt lat="43.7812" lon="7.11282">
        <ele>658.20001220703</ele>
        <time>2023-08-02T09:27:53.000Z</time>
      </trkpt>
      <trkpt lat="43.7812" lon="7.11282">
        <ele>658</ele>
        <time>2023-08-02T09:27:54.000Z</time>
      </trkpt>
      <trkpt lat="43.7812" lon="7.11282">
        <ele>658</ele>
        <time>2023-08-02T09:27:55.000Z</time>
      </trkpt>
      <trkpt lat="43.7812" lon="7.11282">
        <ele>658</ele>
        <time>2023-08-02T09:27:56.000Z</time>
      </trkpt>
      <trkpt lat="43.7812" lon="7.11282">
        <ele>658</ele>
        <time>2023-08-02T09:27:57.000Z</time>
      </trkpt>
      <trkpt lat="43.7812" lon="7.11282">
        <ele>658</ele>
        <time>2023-08-02T09:27:58.000Z</time>
      </trkpt>
      <trkpt lat="43.7812" lon="7.11283">
        <ele>658</ele>
        <time>2023-08-02T09:27:59.000Z</time>
      </trkpt>
      <trkpt lat="43.7812" lon="7.11283">
        <ele>658</ele>
        <time>2023-08-02T09:28:00.000Z</time>
      </trkpt>
      <trkpt lat="43.7812" lon="7.11283">
        <ele>658</ele>
        <time>2023-08-02T09:28:01.000Z</time>
      </trkpt>
      <trkpt lat="43.7812" lon="7.11283">
        <ele>658</ele>
        <time>2023-08-02T09:28:02.000Z</time>
      </trkpt>
      <trkpt lat="43.7812" lon="7.11283">
        <ele>658</ele>
        <time>2023-08-02T09:28:03.000Z</time>
      </trkpt>
      <trkpt lat="43.7812" lon="7.11283">
        <ele>658</ele>
        <time>2023-08-02T09:28:04.000Z</time>
      </trkpt>
      <trkpt lat="43.7812" lon="7.11283">
        <ele>658</ele>
        <time>2023-08-02T09:28:05.000Z</time>
      </trkpt>
      <trkpt lat="43.7812" lon="7.11283">
        <ele>658</ele>
        <time>2023-08-02T09:28:06.000Z</time>
      </trkpt>
      <trkpt lat="43.7812" lon="7.11283">
        <ele>658</ele>
        <time>2023-08-02T09:28:07.000Z</time>
      </trkpt>
      <trkpt lat="43.7812" lon="7.11283">
        <ele>658</ele>
        <time>2023-08-02T09:28:08.000Z</time>
      </trkpt>
      <trkpt lat="43.7812" lon="7.11283">
        <ele>658</ele>
        <time>2023-08-02T09:28:09.000Z</time>
      </trkpt>
      <trkpt lat="43.7812" lon="7.11283">
        <ele>658</ele>
        <time>2023-08-02T09:28:10.000Z</time>
      </trkpt>
      <trkpt lat="43.7812" lon="7.11283">
        <ele>658</ele>
        <time>2023-08-02T09:28:11.000Z</time>
      </trkpt>
      <trkpt lat="43.7812" lon="7.11283">
        <ele>658</ele>
        <time>2023-08-02T09:28:12.000Z</time>
      </trkpt>
      <trkpt lat="43.7812" lon="7.11283">
        <ele>658</ele>
        <time>2023-08-02T09:28:13.000Z</time>
      </trkpt>
      <trkpt lat="43.7812" lon="7.11283">
        <ele>658</ele>
        <time>2023-08-02T09:28:14.000Z</time>
      </trkpt>
      <trkpt lat="43.7812" lon="7.11283">
        <ele>658</ele>
        <time>2023-08-02T09:28:15.000Z</time>
      </trkpt>
      <trkpt lat="43.7812" lon="7.11283">
        <ele>658</ele>
        <time>2023-08-02T09:28:16.000Z</time>
      </trkpt>
      <trkpt lat="43.7812" lon="7.11283">
        <ele>658</ele>
        <time>2023-08-02T09:28:17.000Z</time>
      </trkpt>
      <trkpt lat="43.7812" lon="7.11282">
        <ele>658</ele>
        <time>2023-08-02T09:28:18.000Z</time>
      </trkpt>
      <trkpt lat="43.7812" lon="7.11282">
        <ele>658</ele>
        <time>2023-08-02T09:28:19.000Z</time>
      </trkpt>
      <trkpt lat="43.7812" lon="7.11282">
        <ele>658</ele>
        <time>2023-08-02T09:28:20.000Z</time>
      </trkpt>
      <trkpt lat="43.7812" lon="7.11282">
        <ele>658</ele>
        <time>2023-08-02T09:28:21.000Z</time>
      </trkpt>
      <trkpt lat="43.7812" lon="7.11282">
        <ele>658</ele>
        <time>2023-08-02T09:28:22.000Z</time>
      </trkpt>
      <trkpt lat="43.7812" lon="7.11282">
        <ele>658</ele>
        <time>2023-08-02T09:28:23.000Z</time>
      </trkpt>
      <trkpt lat="43.7812" lon="7.11282">
        <ele>657.79998779297</ele>
        <time>2023-08-02T09:28:24.000Z</time>
      </trkpt>
      <trkpt lat="43.7812" lon="7.11282">
        <ele>657.79998779297</ele>
        <time>2023-08-02T09:28:25.000Z</time>
      </trkpt>
      <trkpt lat="43.7812" lon="7.11282">
        <ele>657.79998779297</ele>
        <time>2023-08-02T09:28:26.000Z</time>
      </trkpt>
      <trkpt lat="43.7812" lon="7.11282">
        <ele>657.79998779297</ele>
        <time>2023-08-02T09:28:27.000Z</time>
      </trkpt>
      <trkpt lat="43.7812" lon="7.11282">
        <ele>657.79998779297</ele>
        <time>2023-08-02T09:28:28.000Z</time>
      </trkpt>
      <trkpt lat="43.7812" lon="7.11283">
        <ele>658</ele>
        <time>2023-08-02T09:28:29.000Z</time>
      </trkpt>
      <trkpt lat="43.78121" lon="7.11283">
        <ele>658</ele>
        <time>2023-08-02T09:28:30.000Z</time>
      </trkpt>
      <trkpt lat="43.78121" lon="7.11283">
        <ele>658</ele>
        <time>2023-08-02T09:28:31.000Z</time>
      </trkpt>
      <trkpt lat="43.78121" lon="7.11283">
        <ele>658</ele>
        <time>2023-08-02T09:28:32.000Z</time>
      </trkpt>
      <trkpt lat="43.78121" lon="7.11283">
        <ele>658</ele>
        <time>2023-08-02T09:28:33.000Z</time>
      </trkpt>
      <trkpt lat="43.78121" lon="7.11283">
        <ele>658</ele>
        <time>2023-08-02T09:28:34.000Z</time>
      </trkpt>
      <trkpt lat="43.78121" lon="7.11283">
        <ele>658</ele>
        <time>2023-08-02T09:28:35.000Z</time>
      </trkpt>
      <trkpt lat="43.78121" lon="7.11283">
        <ele>657.79998779297</ele>
        <time>2023-08-02T09:28:36.000Z</time>
      </trkpt>
      <trkpt lat="43.78121" lon="7.11283">
        <ele>657.79998779297</ele>
        <time>2023-08-02T09:28:37.000Z</time>
      </trkpt>
      <trkpt lat="43.78121" lon="7.11283">
        <ele>658</ele>
        <time>2023-08-02T09:28:38.000Z</time>
      </trkpt>
      <trkpt lat="43.78121" lon="7.11283">
        <ele>658</ele>
        <time>2023-08-02T09:28:39.000Z</time>
      </trkpt>
      <trkpt lat="43.78121" lon="7.11283">
        <ele>658</ele>
        <time>2023-08-02T09:28:40.000Z</time>
      </trkpt>
      <trkpt lat="43.78121" lon="7.11283">
        <ele>658</ele>
        <time>2023-08-02T09:28:41.000Z</time>
      </trkpt>
      <trkpt lat="43.78121" lon="7.11283">
        <ele>658</ele>
        <time>2023-08-02T09:28:42.000Z</time>
      </trkpt>
      <trkpt lat="43.78121" lon="7.11283">
        <ele>658</ele>
        <time>2023-08-02T09:28:43.000Z</time>
      </trkpt>
      <trkpt lat="43.78121" lon="7.11283">
        <ele>658</ele>
        <time>2023-08-02T09:28:44.000Z</time>
      </trkpt>
      <trkpt lat="43.78121" lon="7.11284">
        <ele>658</ele>
        <time>2023-08-02T09:28:45.000Z</time>
      </trkpt>
      <trkpt lat="43.78121" lon="7.11283">
        <ele>658</ele>
        <time>2023-08-02T09:28:46.000Z</time>
      </trkpt>
      <trkpt lat="43.78122" lon="7.11284">
        <ele>658</ele>
        <time>2023-08-02T09:28:47.000Z</time>
      </trkpt>
      <trkpt lat="43.78122" lon="7.11284">
        <ele>658</ele>
        <time>2023-08-02T09:28:48.000Z</time>
      </trkpt>
      <trkpt lat="43.78121" lon="7.11284">
        <ele>658</ele>
        <time>2023-08-02T09:28:49.000Z</time>
      </trkpt>
      <trkpt lat="43.78122" lon="7.11284">
        <ele>658</ele>
        <time>2023-08-02T09:28:50.000Z</time>
      </trkpt>
      <trkpt lat="43.78122" lon="7.11286">
        <ele>658</ele>
        <time>2023-08-02T09:28:51.000Z</time>
      </trkpt>
      <trkpt lat="43.78123" lon="7.11287">
        <ele>658.20001220703</ele>
        <time>2023-08-02T09:28:52.000Z</time>
      </trkpt>
      <trkpt lat="43.78123" lon="7.11287">
        <ele>658.20001220703</ele>
        <time>2023-08-02T09:28:53.000Z</time>
      </trkpt>
      <trkpt lat="43.78123" lon="7.11288">
        <ele>658.40002441406</ele>
        <time>2023-08-02T09:28:54.000Z</time>
      </trkpt>
      <trkpt lat="43.78124" lon="7.11289">
        <ele>658.40002441406</ele>
        <time>2023-08-02T09:28:55.000Z</time>
      </trkpt>
      <trkpt lat="43.78124" lon="7.11291">
        <ele>658.59997558594</ele>
        <time>2023-08-02T09:28:56.000Z</time>
      </trkpt>
      <trkpt lat="43.78125" lon="7.11292">
        <ele>658.79998779297</ele>
        <time>2023-08-02T09:28:57.000Z</time>
      </trkpt>
      <trkpt lat="43.78125" lon="7.11294">
        <ele>658.79998779297</ele>
        <time>2023-08-02T09:28:58.000Z</time>
      </trkpt>
      <trkpt lat="43.78126" lon="7.11296">
        <ele>658.79998779297</ele>
        <time>2023-08-02T09:28:59.000Z</time>
      </trkpt>
      <trkpt lat="43.78127" lon="7.11298">
        <ele>659</ele>
        <time>2023-08-02T09:29:00.000Z</time>
      </trkpt>
      <trkpt lat="43.78127" lon="7.113">
        <ele>659</ele>
        <time>2023-08-02T09:29:01.000Z</time>
      </trkpt>
      <trkpt lat="43.78128" lon="7.11303">
        <ele>659</ele>
        <time>2023-08-02T09:29:02.000Z</time>
      </trkpt>
      <trkpt lat="43.78129" lon="7.11305">
        <ele>659.40002441406</ele>
        <time>2023-08-02T09:29:03.000Z</time>
      </trkpt>
      <trkpt lat="43.7813" lon="7.11307">
        <ele>659.59997558594</ele>
        <time>2023-08-02T09:29:04.000Z</time>
      </trkpt>
      <trkpt lat="43.78131" lon="7.11309">
        <ele>659.59997558594</ele>
        <time>2023-08-02T09:29:05.000Z</time>
      </trkpt>
      <trkpt lat="43.78132" lon="7.11312">
        <ele>659.59997558594</ele>
        <time>2023-08-02T09:29:06.000Z</time>
      </trkpt>
      <trkpt lat="43.78134" lon="7.11314">
        <ele>659.79998779297</ele>
        <time>2023-08-02T09:29:07.000Z</time>
      </trkpt>
      <trkpt lat="43.78134" lon="7.11316">
        <ele>660</ele>
        <time>2023-08-02T09:29:08.000Z</time>
      </trkpt>
      <trkpt lat="43.78134" lon="7.11318">
        <ele>660.20001220703</ele>
        <time>2023-08-02T09:29:09.000Z</time>
      </trkpt>
      <trkpt lat="43.78134" lon="7.11318">
        <ele>660.20001220703</ele>
        <time>2023-08-02T09:29:10.000Z</time>
      </trkpt>
      <trkpt lat="43.78134" lon="7.11318">
        <ele>660.40002441406</ele>
        <time>2023-08-02T09:29:11.000Z</time>
      </trkpt>
      <trkpt lat="43.78134" lon="7.11318">
        <ele>660.40002441406</ele>
        <time>2023-08-02T09:29:12.000Z</time>
      </trkpt>
      <trkpt lat="43.78134" lon="7.11318">
        <ele>660.59997558594</ele>
        <time>2023-08-02T09:29:13.000Z</time>
      </trkpt>
      <trkpt lat="43.78134" lon="7.11318">
        <ele>660.59997558594</ele>
        <time>2023-08-02T09:29:14.000Z</time>
      </trkpt>
      <trkpt lat="43.78134" lon="7.11318">
        <ele>660.59997558594</ele>
        <time>2023-08-02T09:29:15.000Z</time>
      </trkpt>
      <trkpt lat="43.78134" lon="7.11318">
        <ele>660.59997558594</ele>
        <time>2023-08-02T09:29:16.000Z</time>
      </trkpt>
      <trkpt lat="43.78134" lon="7.11318">
        <ele>660.59997558594</ele>
        <time>2023-08-02T09:29:17.000Z</time>
      </trkpt>
      <trkpt lat="43.78134" lon="7.11318">
        <ele>660.59997558594</ele>
        <time>2023-08-02T09:29:18.000Z</time>
      </trkpt>
      <trkpt lat="43.78134" lon="7.11318">
        <ele>660.59997558594</ele>
        <time>2023-08-02T09:29:19.000Z</time>
      </trkpt>
      <trkpt lat="43.78134" lon="7.11318">
        <ele>660.59997558594</ele>
        <time>2023-08-02T09:29:20.000Z</time>
      </trkpt>
      <trkpt lat="43.78134" lon="7.11318">
        <ele>660.59997558594</ele>
        <time>2023-08-02T09:29:21.000Z</time>
      </trkpt>
      <trkpt lat="43.78134" lon="7.11318">
        <ele>660.59997558594</ele>
        <time>2023-08-02T09:29:22.000Z</time>
      </trkpt>
      <trkpt lat="43.78134" lon="7.11318">
        <ele>660.59997558594</ele>
        <time>2023-08-02T09:29:23.000Z</time>
      </trkpt>
      <trkpt lat="43.78134" lon="7.11318">
        <ele>660.59997558594</ele>
        <time>2023-08-02T09:29:24.000Z</time>
      </trkpt>
      <trkpt lat="43.78134" lon="7.11318">
        <ele>660.59997558594</ele>
        <time>2023-08-02T09:29:25.000Z</time>
      </trkpt>
      <trkpt lat="43.78134" lon="7.11318">
        <ele>660.59997558594</ele>
        <time>2023-08-02T09:29:26.000Z</time>
      </trkpt>
      <trkpt lat="43.78134" lon="7.11318">
        <ele>660.59997558594</ele>
        <time>2023-08-02T09:29:27.000Z</time>
      </trkpt>
      <trkpt lat="43.78134" lon="7.11318">
        <ele>660.59997558594</ele>
        <time>2023-08-02T09:29:28.000Z</time>
      </trkpt>
      <trkpt lat="43.78134" lon="7.11318">
        <ele>660.79998779297</ele>
        <time>2023-08-02T09:29:29.000Z</time>
      </trkpt>
      <trkpt lat="43.78134" lon="7.11318">
        <ele>660.79998779297</ele>
        <time>2023-08-02T09:29:30.000Z</time>
      </trkpt>
      <trkpt lat="43.78134" lon="7.11318">
        <ele>660.79998779297</ele>
        <time>2023-08-02T09:29:31.000Z</time>
      </trkpt>
      <trkpt lat="43.78134" lon="7.11318">
        <ele>660.79998779297</ele>
        <time>2023-08-02T09:29:32.000Z</time>
      </trkpt>
      <trkpt lat="43.78134" lon="7.11318">
        <ele>660.79998779297</ele>
        <time>2023-08-02T09:29:33.000Z</time>
      </trkpt>
      <trkpt lat="43.78134" lon="7.11318">
        <ele>660.59997558594</ele>
        <time>2023-08-02T09:29:34.000Z</time>
      </trkpt>
      <trkpt lat="43.78134" lon="7.11318">
        <ele>660.59997558594</ele>
        <time>2023-08-02T09:29:35.000Z</time>
      </trkpt>
      <trkpt lat="43.78134" lon="7.11318">
        <ele>660.59997558594</ele>
        <time>2023-08-02T09:29:36.000Z</time>
      </trkpt>
      <trkpt lat="43.78134" lon="7.11318">
        <ele>660.59997558594</ele>
        <time>2023-08-02T09:29:37.000Z</time>
      </trkpt>
      <trkpt lat="43.78134" lon="7.11318">
        <ele>660.40002441406</ele>
        <time>2023-08-02T09:29:38.000Z</time>
      </trkpt>
      <trkpt lat="43.78134" lon="7.11318">
        <ele>660.40002441406</ele>
        <time>2023-08-02T09:29:39.000Z</time>
      </trkpt>
      <trkpt lat="43.78134" lon="7.11318">
        <ele>660.40002441406</ele>
        <time>2023-08-02T09:29:40.000Z</time>
      </trkpt>
      <trkpt lat="43.78134" lon="7.11318">
        <ele>660.40002441406</ele>
        <time>2023-08-02T09:29:41.000Z</time>
      </trkpt>
      <trkpt lat="43.78134" lon="7.11318">
        <ele>660.40002441406</ele>
        <time>2023-08-02T09:29:42.000Z</time>
      </trkpt>
      <trkpt lat="43.78134" lon="7.11318">
        <ele>660.40002441406</ele>
        <time>2023-08-02T09:29:43.000Z</time>
      </trkpt>
      <trkpt lat="43.78134" lon="7.11318">
        <ele>660.40002441406</ele>
        <time>2023-08-02T09:29:44.000Z</time>
      </trkpt>
      <trkpt lat="43.78134" lon="7.11318">
        <ele>660.40002441406</ele>
        <time>2023-08-02T09:29:45.000Z</time>
      </trkpt>
      <trkpt lat="43.78134" lon="7.11318">
        <ele>660.40002441406</ele>
        <time>2023-08-02T09:29:46.000Z</time>
      </trkpt>
      <trkpt lat="43.78134" lon="7.11318">
        <ele>660.40002441406</ele>
        <time>2023-08-02T09:29:47.000Z</time>
      </trkpt>
      <trkpt lat="43.78134" lon="7.11318">
        <ele>660.40002441406</ele>
        <time>2023-08-02T09:29:48.000Z</time>
      </trkpt>
      <trkpt lat="43.78134" lon="7.11318">
        <ele>660.40002441406</ele>
        <time>2023-08-02T09:29:49.000Z</time>
      </trkpt>
      <trkpt lat="43.78134" lon="7.11318">
        <ele>660.40002441406</ele>
        <time>2023-08-02T09:29:50.000Z</time>
      </trkpt>
      <trkpt lat="43.78134" lon="7.11318">
        <ele>660.40002441406</ele>
        <time>2023-08-02T09:29:51.000Z</time>
      </trkpt>
      <trkpt lat="43.78134" lon="7.11318">
        <ele>660.40002441406</ele>
        <time>2023-08-02T09:29:52.000Z</time>
      </trkpt>
      <trkpt lat="43.78134" lon="7.11318">
        <ele>660.40002441406</ele>
        <time>2023-08-02T09:29:53.000Z</time>
      </trkpt>
      <trkpt lat="43.78134" lon="7.11318">
        <ele>660.40002441406</ele>
        <time>2023-08-02T09:29:54.000Z</time>
      </trkpt>
      <trkpt lat="43.78134" lon="7.11318">
        <ele>660.40002441406</ele>
        <time>2023-08-02T09:29:55.000Z</time>
      </trkpt>
      <trkpt lat="43.78134" lon="7.11318">
        <ele>660.40002441406</ele>
        <time>2023-08-02T09:29:56.000Z</time>
      </trkpt>
      <trkpt lat="43.78134" lon="7.11318">
        <ele>660.40002441406</ele>
        <time>2023-08-02T09:29:57.000Z</time>
      </trkpt>
      <trkpt lat="43.78134" lon="7.11318">
        <ele>660.40002441406</ele>
        <time>2023-08-02T09:29:58.000Z</time>
      </trkpt>
      <trkpt lat="43.78134" lon="7.11318">
        <ele>660.40002441406</ele>
        <time>2023-08-02T09:29:59.000Z</time>
      </trkpt>
      <trkpt lat="43.78134" lon="7.11318">
        <ele>660.40002441406</ele>
        <time>2023-08-02T09:30:00.000Z</time>
      </trkpt>
      <trkpt lat="43.78134" lon="7.11318">
        <ele>660.40002441406</ele>
        <time>2023-08-02T09:30:01.000Z</time>
      </trkpt>
      <trkpt lat="43.78134" lon="7.11318">
        <ele>660.40002441406</ele>
        <time>2023-08-02T09:30:02.000Z</time>
      </trkpt>
      <trkpt lat="43.78134" lon="7.11318">
        <ele>660.40002441406</ele>
        <time>2023-08-02T09:30:03.000Z</time>
      </trkpt>
      <trkpt lat="43.78134" lon="7.11318">
        <ele>660.40002441406</ele>
        <time>2023-08-02T09:30:04.000Z</time>
      </trkpt>
      <trkpt lat="43.78134" lon="7.11318">
        <ele>660.40002441406</ele>
        <time>2023-08-02T09:30:05.000Z</time>
      </trkpt>
      <trkpt lat="43.78134" lon="7.11318">
        <ele>660.40002441406</ele>
        <time>2023-08-02T09:30:06.000Z</time>
      </trkpt>
      <trkpt lat="43.78134" lon="7.11318">
        <ele>660.40002441406</ele>
        <time>2023-08-02T09:30:07.000Z</time>
      </trkpt>
      <trkpt lat="43.78134" lon="7.11318">
        <ele>660.40002441406</ele>
        <time>2023-08-02T09:30:08.000Z</time>
      </trkpt>
      <trkpt lat="43.78134" lon="7.11318">
        <ele>660.40002441406</ele>
        <time>2023-08-02T09:30:09.000Z</time>
      </trkpt>
      <trkpt lat="43.78134" lon="7.11318">
        <ele>660.40002441406</ele>
        <time>2023-08-02T09:30:10.000Z</time>
      </trkpt>
      <trkpt lat="43.78134" lon="7.11318">
        <ele>660.40002441406</ele>
        <time>2023-08-02T09:30:11.000Z</time>
      </trkpt>
      <trkpt lat="43.78134" lon="7.11318">
        <ele>660.40002441406</ele>
        <time>2023-08-02T09:30:12.000Z</time>
      </trkpt>
      <trkpt lat="43.78134" lon="7.11318">
        <ele>660.40002441406</ele>
        <time>2023-08-02T09:30:13.000Z</time>
      </trkpt>
      <trkpt lat="43.78134" lon="7.11318">
        <ele>660.40002441406</ele>
        <time>2023-08-02T09:30:14.000Z</time>
      </trkpt>
      <trkpt lat="43.78134" lon="7.11318">
        <ele>660.40002441406</ele>
        <time>2023-08-02T09:30:15.000Z</time>
      </trkpt>
      <trkpt lat="43.78134" lon="7.11318">
        <ele>660.40002441406</ele>
        <time>2023-08-02T09:30:16.000Z</time>
      </trkpt>
      <trkpt lat="43.78134" lon="7.11318">
        <ele>660.40002441406</ele>
        <time>2023-08-02T09:30:17.000Z</time>
      </trkpt>
      <trkpt lat="43.78134" lon="7.11318">
        <ele>660.40002441406</ele>
        <time>2023-08-02T09:30:18.000Z</time>
      </trkpt>
      <trkpt lat="43.78134" lon="7.11318">
        <ele>660.40002441406</ele>
        <time>2023-08-02T09:30:19.000Z</time>
      </trkpt>
      <trkpt lat="43.78134" lon="7.11318">
        <ele>660.40002441406</ele>
        <time>2023-08-02T09:30:20.000Z</time>
      </trkpt>
      <trkpt lat="43.78134" lon="7.11318">
        <ele>660.40002441406</ele>
        <time>2023-08-02T09:30:21.000Z</time>
      </trkpt>
      <trkpt lat="43.78134" lon="7.11318">
        <ele>660.40002441406</ele>
        <time>2023-08-02T09:30:22.000Z</time>
      </trkpt>
      <trkpt lat="43.78134" lon="7.11318">
        <ele>660.40002441406</ele>
        <time>2023-08-02T09:30:23.000Z</time>
      </trkpt>
      <trkpt lat="43.78134" lon="7.11318">
        <ele>660.40002441406</ele>
        <time>2023-08-02T09:30:24.000Z</time>
      </trkpt>
      <trkpt lat="43.78134" lon="7.11318">
        <ele>660.40002441406</ele>
        <time>2023-08-02T09:30:25.000Z</time>
      </trkpt>
      <trkpt lat="43.78134" lon="7.11318">
        <ele>660.40002441406</ele>
        <time>2023-08-02T09:30:26.000Z</time>
      </trkpt>
      <trkpt lat="43.78134" lon="7.11318">
        <ele>660.40002441406</ele>
        <time>2023-08-02T09:30:27.000Z</time>
      </trkpt>
      <trkpt lat="43.78134" lon="7.11318">
        <ele>660.40002441406</ele>
        <time>2023-08-02T09:30:28.000Z</time>
      </trkpt>
      <trkpt lat="43.78134" lon="7.11318">
        <ele>660.40002441406</ele>
        <time>2023-08-02T09:30:29.000Z</time>
      </trkpt>
      <trkpt lat="43.78134" lon="7.11318">
        <ele>660.40002441406</ele>
        <time>2023-08-02T09:30:30.000Z</time>
      </trkpt>
      <trkpt lat="43.78134" lon="7.11318">
        <ele>660.40002441406</ele>
        <time>2023-08-02T09:30:31.000Z</time>
      </trkpt>
      <trkpt lat="43.78134" lon="7.11318">
        <ele>660.40002441406</ele>
        <time>2023-08-02T09:30:32.000Z</time>
      </trkpt>
      <trkpt lat="43.78134" lon="7.11318">
        <ele>660.40002441406</ele>
        <time>2023-08-02T09:30:33.000Z</time>
      </trkpt>
      <trkpt lat="43.78134" lon="7.11318">
        <ele>660.40002441406</ele>
        <time>2023-08-02T09:30:34.000Z</time>
      </trkpt>
      <trkpt lat="43.78134" lon="7.11318">
        <ele>660.40002441406</ele>
        <time>2023-08-02T09:30:35.000Z</time>
      </trkpt>
      <trkpt lat="43.78134" lon="7.11318">
        <ele>660.40002441406</ele>
        <time>2023-08-02T09:30:36.000Z</time>
      </trkpt>
      <trkpt lat="43.78134" lon="7.11318">
        <ele>660.40002441406</ele>
        <time>2023-08-02T09:30:37.000Z</time>
      </trkpt>
      <trkpt lat="43.78134" lon="7.11318">
        <ele>660.40002441406</ele>
        <time>2023-08-02T09:30:38.000Z</time>
      </trkpt>
      <trkpt lat="43.78134" lon="7.11318">
        <ele>660.40002441406</ele>
        <time>2023-08-02T09:30:39.000Z</time>
      </trkpt>
      <trkpt lat="43.78134" lon="7.11318">
        <ele>660.40002441406</ele>
        <time>2023-08-02T09:30:40.000Z</time>
      </trkpt>
      <trkpt lat="43.78134" lon="7.11318">
        <ele>660.40002441406</ele>
        <time>2023-08-02T09:30:41.000Z</time>
      </trkpt>
      <trkpt lat="43.78134" lon="7.11318">
        <ele>660.40002441406</ele>
        <time>2023-08-02T09:30:42.000Z</time>
      </trkpt>
      <trkpt lat="43.78134" lon="7.11318">
        <ele>660.40002441406</ele>
        <time>2023-08-02T09:30:43.000Z</time>
      </trkpt>
      <trkpt lat="43.78134" lon="7.11318">
        <ele>660.40002441406</ele>
        <time>2023-08-02T09:30:44.000Z</time>
      </trkpt>
      <trkpt lat="43.78134" lon="7.11318">
        <ele>660.40002441406</ele>
        <time>2023-08-02T09:30:45.000Z</time>
      </trkpt>
      <trkpt lat="43.78134" lon="7.11318">
        <ele>660.40002441406</ele>
        <time>2023-08-02T09:30:46.000Z</time>
      </trkpt>
      <trkpt lat="43.78134" lon="7.11318">
        <ele>660.40002441406</ele>
        <time>2023-08-02T09:30:47.000Z</time>
      </trkpt>
      <trkpt lat="43.78134" lon="7.11318">
        <ele>660.40002441406</ele>
        <time>2023-08-02T09:30:48.000Z</time>
      </trkpt>
      <trkpt lat="43.78134" lon="7.11318">
        <ele>660.40002441406</ele>
        <time>2023-08-02T09:30:49.000Z</time>
      </trkpt>
      <trkpt lat="43.78134" lon="7.11318">
        <ele>660.40002441406</ele>
        <time>2023-08-02T09:30:50.000Z</time>
      </trkpt>
      <trkpt lat="43.78134" lon="7.11318">
        <ele>660.40002441406</ele>
        <time>2023-08-02T09:30:51.000Z</time>
      </trkpt>
      <trkpt lat="43.78134" lon="7.11318">
        <ele>660.40002441406</ele>
        <time>2023-08-02T09:30:52.000Z</time>
      </trkpt>
      <trkpt lat="43.78134" lon="7.11318">
        <ele>660.40002441406</ele>
        <time>2023-08-02T09:30:53.000Z</time>
      </trkpt>
      <trkpt lat="43.78134" lon="7.11318">
        <ele>660.40002441406</ele>
        <time>2023-08-02T09:30:54.000Z</time>
      </trkpt>
      <trkpt lat="43.78134" lon="7.11318">
        <ele>660.40002441406</ele>
        <time>2023-08-02T09:30:55.000Z</time>
      </trkpt>
      <trkpt lat="43.78134" lon="7.11318">
        <ele>660.40002441406</ele>
        <time>2023-08-02T09:30:56.000Z</time>
      </trkpt>
      <trkpt lat="43.78134" lon="7.11318">
        <ele>660.40002441406</ele>
        <time>2023-08-02T09:30:57.000Z</time>
      </trkpt>
      <trkpt lat="43.78134" lon="7.11318">
        <ele>660.40002441406</ele>
        <time>2023-08-02T09:30:58.000Z</time>
      </trkpt>
      <trkpt lat="43.78134" lon="7.11318">
        <ele>660.40002441406</ele>
        <time>2023-08-02T09:30:59.000Z</time>
      </trkpt>
      <trkpt lat="43.78134" lon="7.11318">
        <ele>660.40002441406</ele>
        <time>2023-08-02T09:31:00.000Z</time>
      </trkpt>
      <trkpt lat="43.78134" lon="7.11318">
        <ele>660.40002441406</ele>
        <time>2023-08-02T09:31:01.000Z</time>
      </trkpt>
      <trkpt lat="43.78134" lon="7.11318">
        <ele>660.40002441406</ele>
        <time>2023-08-02T09:31:02.000Z</time>
      </trkpt>
      <trkpt lat="43.78134" lon="7.11318">
        <ele>660.40002441406</ele>
        <time>2023-08-02T09:31:03.000Z</time>
      </trkpt>
      <trkpt lat="43.78134" lon="7.11318">
        <ele>660.40002441406</ele>
        <time>2023-08-02T09:31:04.000Z</time>
      </trkpt>
      <trkpt lat="43.78134" lon="7.11318">
        <ele>660.40002441406</ele>
        <time>2023-08-02T09:31:05.000Z</time>
      </trkpt>
      <trkpt lat="43.78134" lon="7.11318">
        <ele>660.40002441406</ele>
        <time>2023-08-02T09:31:06.000Z</time>
      </trkpt>
      <trkpt lat="43.78134" lon="7.11318">
        <ele>660.40002441406</ele>
        <time>2023-08-02T09:31:07.000Z</time>
      </trkpt>
      <trkpt lat="43.78134" lon="7.11318">
        <ele>660.40002441406</ele>
        <time>2023-08-02T09:31:08.000Z</time>
      </trkpt>
      <trkpt lat="43.78134" lon="7.11318">
        <ele>660.40002441406</ele>
        <time>2023-08-02T09:31:09.000Z</time>
      </trkpt>
      <trkpt lat="43.78134" lon="7.11318">
        <ele>660.40002441406</ele>
        <time>2023-08-02T09:31:10.000Z</time>
      </trkpt>
      <trkpt lat="43.78134" lon="7.11318">
        <ele>660.40002441406</ele>
        <time>2023-08-02T09:31:11.000Z</time>
      </trkpt>
      <trkpt lat="43.78134" lon="7.11318">
        <ele>660.40002441406</ele>
        <time>2023-08-02T09:31:12.000Z</time>
      </trkpt>
      <trkpt lat="43.78134" lon="7.11318">
        <ele>660.40002441406</ele>
        <time>2023-08-02T09:31:13.000Z</time>
      </trkpt>
      <trkpt lat="43.78134" lon="7.11318">
        <ele>660.40002441406</ele>
        <time>2023-08-02T09:31:14.000Z</time>
      </trkpt>
      <trkpt lat="43.78134" lon="7.11318">
        <ele>660.40002441406</ele>
        <time>2023-08-02T09:31:15.000Z</time>
      </trkpt>
      <trkpt lat="43.78134" lon="7.11318">
        <ele>660.40002441406</ele>
        <time>2023-08-02T09:31:16.000Z</time>
      </trkpt>
      <trkpt lat="43.78134" lon="7.11318">
        <ele>660.40002441406</ele>
        <time>2023-08-02T09:31:17.000Z</time>
      </trkpt>
      <trkpt lat="43.78134" lon="7.11318">
        <ele>660.40002441406</ele>
        <time>2023-08-02T09:31:18.000Z</time>
      </trkpt>
      <trkpt lat="43.78134" lon="7.11318">
        <ele>660.40002441406</ele>
        <time>2023-08-02T09:31:19.000Z</time>
      </trkpt>
      <trkpt lat="43.78134" lon="7.11318">
        <ele>660.40002441406</ele>
        <time>2023-08-02T09:31:20.000Z</time>
      </trkpt>
      <trkpt lat="43.78134" lon="7.11318">
        <ele>660.40002441406</ele>
        <time>2023-08-02T09:31:21.000Z</time>
      </trkpt>
      <trkpt lat="43.78134" lon="7.11318">
        <ele>660.40002441406</ele>
        <time>2023-08-02T09:31:22.000Z</time>
      </trkpt>
      <trkpt lat="43.78134" lon="7.11318">
        <ele>660.40002441406</ele>
        <time>2023-08-02T09:31:23.000Z</time>
      </trkpt>
      <trkpt lat="43.78134" lon="7.11318">
        <ele>660.40002441406</ele>
        <time>2023-08-02T09:31:24.000Z</time>
      </trkpt>
      <trkpt lat="43.78134" lon="7.11318">
        <ele>660.40002441406</ele>
        <time>2023-08-02T09:31:25.000Z</time>
      </trkpt>
      <trkpt lat="43.78134" lon="7.11318">
        <ele>660.40002441406</ele>
        <time>2023-08-02T09:31:26.000Z</time>
      </trkpt>
      <trkpt lat="43.78134" lon="7.11318">
        <ele>660.40002441406</ele>
        <time>2023-08-02T09:31:27.000Z</time>
      </trkpt>
      <trkpt lat="43.78134" lon="7.11318">
        <ele>660.40002441406</ele>
        <time>2023-08-02T09:31:28.000Z</time>
      </trkpt>
      <trkpt lat="43.78134" lon="7.11318">
        <ele>660.40002441406</ele>
        <time>2023-08-02T09:31:29.000Z</time>
      </trkpt>
      <trkpt lat="43.78134" lon="7.11318">
        <ele>660.40002441406</ele>
        <time>2023-08-02T09:31:30.000Z</time>
      </trkpt>
      <trkpt lat="43.78134" lon="7.11318">
        <ele>660.40002441406</ele>
        <time>2023-08-02T09:31:31.000Z</time>
      </trkpt>
      <trkpt lat="43.78134" lon="7.11318">
        <ele>660.40002441406</ele>
        <time>2023-08-02T09:31:32.000Z</time>
      </trkpt>
      <trkpt lat="43.78134" lon="7.11318">
        <ele>660.40002441406</ele>
        <time>2023-08-02T09:31:33.000Z</time>
      </trkpt>
      <trkpt lat="43.78134" lon="7.11318">
        <ele>660.40002441406</ele>
        <time>2023-08-02T09:31:34.000Z</time>
      </trkpt>
      <trkpt lat="43.78134" lon="7.11318">
        <ele>660.40002441406</ele>
        <time>2023-08-02T09:31:35.000Z</time>
      </trkpt>
      <trkpt lat="43.78134" lon="7.11318">
        <ele>660.40002441406</ele>
        <time>2023-08-02T09:31:36.000Z</time>
      </trkpt>
      <trkpt lat="43.78134" lon="7.11318">
        <ele>660.40002441406</ele>
        <time>2023-08-02T09:31:37.000Z</time>
      </trkpt>
      <trkpt lat="43.78134" lon="7.11318">
        <ele>660.40002441406</ele>
        <time>2023-08-02T09:31:38.000Z</time>
      </trkpt>
      <trkpt lat="43.78134" lon="7.11318">
        <ele>660.40002441406</ele>
        <time>2023-08-02T09:31:39.000Z</time>
      </trkpt>
      <trkpt lat="43.78134" lon="7.11318">
        <ele>660.40002441406</ele>
        <time>2023-08-02T09:31:40.000Z</time>
      </trkpt>
      <trkpt lat="43.78134" lon="7.11318">
        <ele>660.40002441406</ele>
        <time>2023-08-02T09:31:41.000Z</time>
      </trkpt>
      <trkpt lat="43.78134" lon="7.11318">
        <ele>660.40002441406</ele>
        <time>2023-08-02T09:31:42.000Z</time>
      </trkpt>
      <trkpt lat="43.78134" lon="7.11318">
        <ele>660.40002441406</ele>
        <time>2023-08-02T09:31:43.000Z</time>
      </trkpt>
      <trkpt lat="43.78134" lon="7.11318">
        <ele>660.40002441406</ele>
        <time>2023-08-02T09:31:44.000Z</time>
      </trkpt>
      <trkpt lat="43.78134" lon="7.11318">
        <ele>660.40002441406</ele>
        <time>2023-08-02T09:31:45.000Z</time>
      </trkpt>
      <trkpt lat="43.78134" lon="7.11318">
        <ele>660.40002441406</ele>
        <time>2023-08-02T09:31:46.000Z</time>
      </trkpt>
      <trkpt lat="43.78134" lon="7.11318">
        <ele>660.40002441406</ele>
        <time>2023-08-02T09:31:47.000Z</time>
      </trkpt>
      <trkpt lat="43.78134" lon="7.11318">
        <ele>660.40002441406</ele>
        <time>2023-08-02T09:31:48.000Z</time>
      </trkpt>
      <trkpt lat="43.78135" lon="7.11318">
        <ele>660.40002441406</ele>
        <time>2023-08-02T09:31:49.000Z</time>
      </trkpt>
      <trkpt lat="43.78135" lon="7.11318">
        <ele>660.40002441406</ele>
        <time>2023-08-02T09:31:50.000Z</time>
      </trkpt>
      <trkpt lat="43.78135" lon="7.11318">
        <ele>660.40002441406</ele>
        <time>2023-08-02T09:31:51.000Z</time>
      </trkpt>
      <trkpt lat="43.78135" lon="7.11318">
        <ele>660.40002441406</ele>
        <time>2023-08-02T09:31:52.000Z</time>
      </trkpt>
      <trkpt lat="43.78135" lon="7.11318">
        <ele>660.40002441406</ele>
        <time>2023-08-02T09:31:53.000Z</time>
      </trkpt>
      <trkpt lat="43.78135" lon="7.11318">
        <ele>660.40002441406</ele>
        <time>2023-08-02T09:31:54.000Z</time>
      </trkpt>
      <trkpt lat="43.78135" lon="7.11318">
        <ele>660.40002441406</ele>
        <time>2023-08-02T09:31:55.000Z</time>
      </trkpt>
      <trkpt lat="43.78135" lon="7.11318">
        <ele>660.40002441406</ele>
        <time>2023-08-02T09:31:56.000Z</time>
      </trkpt>
      <trkpt lat="43.78135" lon="7.11318">
        <ele>660.40002441406</ele>
        <time>2023-08-02T09:31:57.000Z</time>
      </trkpt>
      <trkpt lat="43.78135" lon="7.11318">
        <ele>660.40002441406</ele>
        <time>2023-08-02T09:31:58.000Z</time>
      </trkpt>
      <trkpt lat="43.78135" lon="7.11318">
        <ele>660.40002441406</ele>
        <time>2023-08-02T09:31:59.000Z</time>
      </trkpt>
      <trkpt lat="43.78135" lon="7.11318">
        <ele>660.40002441406</ele>
        <time>2023-08-02T09:32:00.000Z</time>
      </trkpt>
      <trkpt lat="43.78135" lon="7.11317">
        <ele>660.40002441406</ele>
        <time>2023-08-02T09:32:01.000Z</time>
      </trkpt>
      <trkpt lat="43.78136" lon="7.11317">
        <ele>660.40002441406</ele>
        <time>2023-08-02T09:32:02.000Z</time>
      </trkpt>
      <trkpt lat="43.78136" lon="7.11317">
        <ele>660.40002441406</ele>
        <time>2023-08-02T09:32:03.000Z</time>
      </trkpt>
      <trkpt lat="43.78136" lon="7.11317">
        <ele>660.40002441406</ele>
        <time>2023-08-02T09:32:04.000Z</time>
      </trkpt>
      <trkpt lat="43.78136" lon="7.11317">
        <ele>660.40002441406</ele>
        <time>2023-08-02T09:32:05.000Z</time>
      </trkpt>
      <trkpt lat="43.78136" lon="7.11317">
        <ele>660.40002441406</ele>
        <time>2023-08-02T09:32:06.000Z</time>
      </trkpt>
      <trkpt lat="43.78136" lon="7.11317">
        <ele>660.40002441406</ele>
        <time>2023-08-02T09:32:07.000Z</time>
      </trkpt>
      <trkpt lat="43.78136" lon="7.11317">
        <ele>660.40002441406</ele>
        <time>2023-08-02T09:32:08.000Z</time>
      </trkpt>
      <trkpt lat="43.78135" lon="7.11317">
        <ele>660.40002441406</ele>
        <time>2023-08-02T09:32:09.000Z</time>
      </trkpt>
      <trkpt lat="43.78135" lon="7.11317">
        <ele>660.40002441406</ele>
        <time>2023-08-02T09:32:10.000Z</time>
      </trkpt>
      <trkpt lat="43.78135" lon="7.11317">
        <ele>660.40002441406</ele>
        <time>2023-08-02T09:32:11.000Z</time>
      </trkpt>
      <trkpt lat="43.78135" lon="7.11317">
        <ele>660.40002441406</ele>
        <time>2023-08-02T09:32:12.000Z</time>
      </trkpt>
      <trkpt lat="43.78135" lon="7.11317">
        <ele>660.40002441406</ele>
        <time>2023-08-02T09:32:13.000Z</time>
      </trkpt>
      <trkpt lat="43.78135" lon="7.11317">
        <ele>660.40002441406</ele>
        <time>2023-08-02T09:32:14.000Z</time>
      </trkpt>
      <trkpt lat="43.78135" lon="7.11319">
        <ele>660.40002441406</ele>
        <time>2023-08-02T09:32:15.000Z</time>
      </trkpt>
      <trkpt lat="43.78137" lon="7.1132">
        <ele>660.40002441406</ele>
        <time>2023-08-02T09:32:16.000Z</time>
      </trkpt>
      <trkpt lat="43.78138" lon="7.11322">
        <ele>660.40002441406</ele>
        <time>2023-08-02T09:32:17.000Z</time>
      </trkpt>
      <trkpt lat="43.78139" lon="7.11324">
        <ele>660.40002441406</ele>
        <time>2023-08-02T09:32:18.000Z</time>
      </trkpt>
      <trkpt lat="43.78139" lon="7.11325">
        <ele>660.40002441406</ele>
        <time>2023-08-02T09:32:19.000Z</time>
      </trkpt>
      <trkpt lat="43.78139" lon="7.11327">
        <ele>660.40002441406</ele>
        <time>2023-08-02T09:32:20.000Z</time>
      </trkpt>
      <trkpt lat="43.7814" lon="7.11329">
        <ele>660.59997558594</ele>
        <time>2023-08-02T09:32:21.000Z</time>
      </trkpt>
      <trkpt lat="43.7814" lon="7.11331">
        <ele>660.59997558594</ele>
        <time>2023-08-02T09:32:22.000Z</time>
      </trkpt>
      <trkpt lat="43.78142" lon="7.11334">
        <ele>660.59997558594</ele>
        <time>2023-08-02T09:32:23.000Z</time>
      </trkpt>
      <trkpt lat="43.78144" lon="7.11335">
        <ele>660.59997558594</ele>
        <time>2023-08-02T09:32:24.000Z</time>
      </trkpt>
      <trkpt lat="43.78145" lon="7.11337">
        <ele>660.59997558594</ele>
        <time>2023-08-02T09:32:25.000Z</time>
      </trkpt>
      <trkpt lat="43.78145" lon="7.11339">
        <ele>660.59997558594</ele>
        <time>2023-08-02T09:32:26.000Z</time>
      </trkpt>
      <trkpt lat="43.78145" lon="7.11342">
        <ele>660.59997558594</ele>
        <time>2023-08-02T09:32:27.000Z</time>
      </trkpt>
      <trkpt lat="43.78146" lon="7.11344">
        <ele>660.59997558594</ele>
        <time>2023-08-02T09:32:28.000Z</time>
      </trkpt>
      <trkpt lat="43.78147" lon="7.11346">
        <ele>660.59997558594</ele>
        <time>2023-08-02T09:32:29.000Z</time>
      </trkpt>
      <trkpt lat="43.78148" lon="7.11348">
        <ele>660.59997558594</ele>
        <time>2023-08-02T09:32:30.000Z</time>
      </trkpt>
      <trkpt lat="43.78149" lon="7.1135">
        <ele>660.59997558594</ele>
        <time>2023-08-02T09:32:31.000Z</time>
      </trkpt>
      <trkpt lat="43.78149" lon="7.11353">
        <ele>660.40002441406</ele>
        <time>2023-08-02T09:32:32.000Z</time>
      </trkpt>
      <trkpt lat="43.7815" lon="7.11356">
        <ele>660.40002441406</ele>
        <time>2023-08-02T09:32:33.000Z</time>
      </trkpt>
      <trkpt lat="43.78152" lon="7.11359">
        <ele>660.40002441406</ele>
        <time>2023-08-02T09:32:34.000Z</time>
      </trkpt>
      <trkpt lat="43.78153" lon="7.11361">
        <ele>660.20001220703</ele>
        <time>2023-08-02T09:32:35.000Z</time>
      </trkpt>
      <trkpt lat="43.78154" lon="7.11363">
        <ele>660.20001220703</ele>
        <time>2023-08-02T09:32:36.000Z</time>
      </trkpt>
      <trkpt lat="43.78156" lon="7.11366">
        <ele>660.20001220703</ele>
        <time>2023-08-02T09:32:37.000Z</time>
      </trkpt>
      <trkpt lat="43.78157" lon="7.11368">
        <ele>660</ele>
        <time>2023-08-02T09:32:38.000Z</time>
      </trkpt>
      <trkpt lat="43.78158" lon="7.11372">
        <ele>660</ele>
        <time>2023-08-02T09:32:39.000Z</time>
      </trkpt>
      <trkpt lat="43.7816" lon="7.11375">
        <ele>660</ele>
        <time>2023-08-02T09:32:40.000Z</time>
      </trkpt>
      <trkpt lat="43.78162" lon="7.11377">
        <ele>660</ele>
        <time>2023-08-02T09:32:41.000Z</time>
      </trkpt>
      <trkpt lat="43.78163" lon="7.11379">
        <ele>660.20001220703</ele>
        <time>2023-08-02T09:32:42.000Z</time>
      </trkpt>
      <trkpt lat="43.78164" lon="7.11381">
        <ele>660.20001220703</ele>
        <time>2023-08-02T09:32:43.000Z</time>
      </trkpt>
      <trkpt lat="43.78165" lon="7.11383">
        <ele>660.20001220703</ele>
        <time>2023-08-02T09:32:44.000Z</time>
      </trkpt>
      <trkpt lat="43.78164" lon="7.11386">
        <ele>660.20001220703</ele>
        <time>2023-08-02T09:32:45.000Z</time>
      </trkpt>
      <trkpt lat="43.78165" lon="7.11389">
        <ele>660.20001220703</ele>
        <time>2023-08-02T09:32:46.000Z</time>
      </trkpt>
      <trkpt lat="43.78165" lon="7.11392">
        <ele>660.20001220703</ele>
        <time>2023-08-02T09:32:47.000Z</time>
      </trkpt>
      <trkpt lat="43.78166" lon="7.11395">
        <ele>660.20001220703</ele>
        <time>2023-08-02T09:32:48.000Z</time>
      </trkpt>
      <trkpt lat="43.78168" lon="7.11397">
        <ele>660</ele>
        <time>2023-08-02T09:32:49.000Z</time>
      </trkpt>
      <trkpt lat="43.78169" lon="7.11399">
        <ele>659.59997558594</ele>
        <time>2023-08-02T09:32:50.000Z</time>
      </trkpt>
      <trkpt lat="43.7817" lon="7.114">
        <ele>659</ele>
        <time>2023-08-02T09:32:51.000Z</time>
      </trkpt>
      <trkpt lat="43.78172" lon="7.11403">
        <ele>659</ele>
        <time>2023-08-02T09:32:52.000Z</time>
      </trkpt>
      <trkpt lat="43.78174" lon="7.11404">
        <ele>659</ele>
        <time>2023-08-02T09:32:53.000Z</time>
      </trkpt>
      <trkpt lat="43.78175" lon="7.11406">
        <ele>659</ele>
        <time>2023-08-02T09:32:54.000Z</time>
      </trkpt>
      <trkpt lat="43.78176" lon="7.11409">
        <ele>659</ele>
        <time>2023-08-02T09:32:55.000Z</time>
      </trkpt>
      <trkpt lat="43.78176" lon="7.11412">
        <ele>659</ele>
        <time>2023-08-02T09:32:56.000Z</time>
      </trkpt>
      <trkpt lat="43.78176" lon="7.11416">
        <ele>659.20001220703</ele>
        <time>2023-08-02T09:32:57.000Z</time>
      </trkpt>
      <trkpt lat="43.78177" lon="7.1142">
        <ele>659.20001220703</ele>
        <time>2023-08-02T09:32:58.000Z</time>
      </trkpt>
      <trkpt lat="43.78178" lon="7.11423">
        <ele>659.20001220703</ele>
        <time>2023-08-02T09:32:59.000Z</time>
      </trkpt>
      <trkpt lat="43.78179" lon="7.11425">
        <ele>659.20001220703</ele>
        <time>2023-08-02T09:33:00.000Z</time>
      </trkpt>
      <trkpt lat="43.78179" lon="7.11425">
        <ele>659</ele>
        <time>2023-08-02T09:33:01.000Z</time>
      </trkpt>
      <trkpt lat="43.78179" lon="7.11426">
        <ele>659</ele>
        <time>2023-08-02T09:33:02.000Z</time>
      </trkpt>
      <trkpt lat="43.7818" lon="7.11427">
        <ele>659</ele>
        <time>2023-08-02T09:33:03.000Z</time>
      </trkpt>
      <trkpt lat="43.7818" lon="7.11428">
        <ele>659</ele>
        <time>2023-08-02T09:33:04.000Z</time>
      </trkpt>
      <trkpt lat="43.7818" lon="7.11428">
        <ele>659</ele>
        <time>2023-08-02T09:33:05.000Z</time>
      </trkpt>
      <trkpt lat="43.7818" lon="7.11428">
        <ele>659</ele>
        <time>2023-08-02T09:33:06.000Z</time>
      </trkpt>
      <trkpt lat="43.78179" lon="7.1143">
        <ele>659</ele>
        <time>2023-08-02T09:33:07.000Z</time>
      </trkpt>
      <trkpt lat="43.78179" lon="7.11432">
        <ele>659</ele>
        <time>2023-08-02T09:33:08.000Z</time>
      </trkpt>
      <trkpt lat="43.7818" lon="7.11434">
        <ele>659</ele>
        <time>2023-08-02T09:33:09.000Z</time>
      </trkpt>
      <trkpt lat="43.7818" lon="7.11435">
        <ele>659</ele>
        <time>2023-08-02T09:33:10.000Z</time>
      </trkpt>
      <trkpt lat="43.78181" lon="7.11437">
        <ele>659</ele>
        <time>2023-08-02T09:33:11.000Z</time>
      </trkpt>
      <trkpt lat="43.78181" lon="7.11439">
        <ele>658.79998779297</ele>
        <time>2023-08-02T09:33:12.000Z</time>
      </trkpt>
      <trkpt lat="43.78181" lon="7.11442">
        <ele>658.79998779297</ele>
        <time>2023-08-02T09:33:13.000Z</time>
      </trkpt>
      <trkpt lat="43.78181" lon="7.11445">
        <ele>658.40002441406</ele>
        <time>2023-08-02T09:33:14.000Z</time>
      </trkpt>
      <trkpt lat="43.78182" lon="7.11448">
        <ele>658.40002441406</ele>
        <time>2023-08-02T09:33:15.000Z</time>
      </trkpt>
      <trkpt lat="43.78181" lon="7.1145">
        <ele>658.20001220703</ele>
        <time>2023-08-02T09:33:16.000Z</time>
      </trkpt>
      <trkpt lat="43.78181" lon="7.11453">
        <ele>658.20001220703</ele>
        <time>2023-08-02T09:33:17.000Z</time>
      </trkpt>
      <trkpt lat="43.78182" lon="7.11457">
        <ele>658</ele>
        <time>2023-08-02T09:33:18.000Z</time>
      </trkpt>
      <trkpt lat="43.78182" lon="7.11459">
        <ele>657.79998779297</ele>
        <time>2023-08-02T09:33:19.000Z</time>
      </trkpt>
      <trkpt lat="43.78183" lon="7.1146">
        <ele>657.79998779297</ele>
        <time>2023-08-02T09:33:20.000Z</time>
      </trkpt>
      <trkpt lat="43.78183" lon="7.11461">
        <ele>657.79998779297</ele>
        <time>2023-08-02T09:33:21.000Z</time>
      </trkpt>
      <trkpt lat="43.78184" lon="7.11464">
        <ele>657.79998779297</ele>
        <time>2023-08-02T09:33:22.000Z</time>
      </trkpt>
      <trkpt lat="43.78185" lon="7.11467">
        <ele>657.79998779297</ele>
        <time>2023-08-02T09:33:23.000Z</time>
      </trkpt>
      <trkpt lat="43.78185" lon="7.11469">
        <ele>657.79998779297</ele>
        <time>2023-08-02T09:33:24.000Z</time>
      </trkpt>
      <trkpt lat="43.78186" lon="7.11471">
        <ele>658</ele>
        <time>2023-08-02T09:33:25.000Z</time>
      </trkpt>
      <trkpt lat="43.78186" lon="7.11473">
        <ele>658</ele>
        <time>2023-08-02T09:33:26.000Z</time>
      </trkpt>
      <trkpt lat="43.78187" lon="7.11475">
        <ele>658.79998779297</ele>
        <time>2023-08-02T09:33:27.000Z</time>
      </trkpt>
      <trkpt lat="43.78187" lon="7.11477">
        <ele>659</ele>
        <time>2023-08-02T09:33:28.000Z</time>
      </trkpt>
      <trkpt lat="43.78188" lon="7.11477">
        <ele>659.20001220703</ele>
        <time>2023-08-02T09:33:29.000Z</time>
      </trkpt>
      <trkpt lat="43.78188" lon="7.11478">
        <ele>659.20001220703</ele>
        <time>2023-08-02T09:33:30.000Z</time>
      </trkpt>
      <trkpt lat="43.78188" lon="7.1148">
        <ele>659.20001220703</ele>
        <time>2023-08-02T09:33:31.000Z</time>
      </trkpt>
      <trkpt lat="43.78189" lon="7.11482">
        <ele>659.40002441406</ele>
        <time>2023-08-02T09:33:32.000Z</time>
      </trkpt>
      <trkpt lat="43.7819" lon="7.11484">
        <ele>659.40002441406</ele>
        <time>2023-08-02T09:33:33.000Z</time>
      </trkpt>
      <trkpt lat="43.78191" lon="7.11486">
        <ele>659.40002441406</ele>
        <time>2023-08-02T09:33:34.000Z</time>
      </trkpt>
      <trkpt lat="43.78193" lon="7.11488">
        <ele>659.59997558594</ele>
        <time>2023-08-02T09:33:35.000Z</time>
      </trkpt>
      <trkpt lat="43.78194" lon="7.11491">
        <ele>659.79998779297</ele>
        <time>2023-08-02T09:33:36.000Z</time>
      </trkpt>
      <trkpt lat="43.78195" lon="7.11494">
        <ele>659.79998779297</ele>
        <time>2023-08-02T09:33:37.000Z</time>
      </trkpt>
      <trkpt lat="43.78196" lon="7.11496">
        <ele>659.79998779297</ele>
        <time>2023-08-02T09:33:38.000Z</time>
      </trkpt>
      <trkpt lat="43.78196" lon="7.11498">
        <ele>660.40002441406</ele>
        <time>2023-08-02T09:33:39.000Z</time>
      </trkpt>
      <trkpt lat="43.78197" lon="7.11502">
        <ele>660.59997558594</ele>
        <time>2023-08-02T09:33:40.000Z</time>
      </trkpt>
      <trkpt lat="43.78197" lon="7.11506">
        <ele>661</ele>
        <time>2023-08-02T09:33:41.000Z</time>
      </trkpt>
      <trkpt lat="43.78198" lon="7.1151">
        <ele>661.20001220703</ele>
        <time>2023-08-02T09:33:42.000Z</time>
      </trkpt>
      <trkpt lat="43.78199" lon="7.11512">
        <ele>661.20001220703</ele>
        <time>2023-08-02T09:33:43.000Z</time>
      </trkpt>
      <trkpt lat="43.782" lon="7.11515">
        <ele>661.40002441406</ele>
        <time>2023-08-02T09:33:44.000Z</time>
      </trkpt>
      <trkpt lat="43.78202" lon="7.11516">
        <ele>661.40002441406</ele>
        <time>2023-08-02T09:33:45.000Z</time>
      </trkpt>
      <trkpt lat="43.78204" lon="7.11518">
        <ele>661.40002441406</ele>
        <time>2023-08-02T09:33:46.000Z</time>
      </trkpt>
      <trkpt lat="43.78205" lon="7.1152">
        <ele>661.40002441406</ele>
        <time>2023-08-02T09:33:47.000Z</time>
      </trkpt>
      <trkpt lat="43.78207" lon="7.11522">
        <ele>661.40002441406</ele>
        <time>2023-08-02T09:33:48.000Z</time>
      </trkpt>
      <trkpt lat="43.78208" lon="7.11523">
        <ele>661.40002441406</ele>
        <time>2023-08-02T09:33:49.000Z</time>
      </trkpt>
      <trkpt lat="43.78208" lon="7.11526">
        <ele>662</ele>
        <time>2023-08-02T09:33:50.000Z</time>
      </trkpt>
      <trkpt lat="43.78209" lon="7.11529">
        <ele>662.40002441406</ele>
        <time>2023-08-02T09:33:51.000Z</time>
      </trkpt>
      <trkpt lat="43.7821" lon="7.11531">
        <ele>662.59997558594</ele>
        <time>2023-08-02T09:33:52.000Z</time>
      </trkpt>
      <trkpt lat="43.7821" lon="7.11532">
        <ele>662.59997558594</ele>
        <time>2023-08-02T09:33:53.000Z</time>
      </trkpt>
      <trkpt lat="43.7821" lon="7.11533">
        <ele>662.59997558594</ele>
        <time>2023-08-02T09:33:54.000Z</time>
      </trkpt>
      <trkpt lat="43.7821" lon="7.11535">
        <ele>662.59997558594</ele>
        <time>2023-08-02T09:33:55.000Z</time>
      </trkpt>
      <trkpt lat="43.78211" lon="7.11536">
        <ele>662.59997558594</ele>
        <time>2023-08-02T09:33:56.000Z</time>
      </trkpt>
      <trkpt lat="43.78211" lon="7.11537">
        <ele>662.59997558594</ele>
        <time>2023-08-02T09:33:57.000Z</time>
      </trkpt>
      <trkpt lat="43.78212" lon="7.11539">
        <ele>662.59997558594</ele>
        <time>2023-08-02T09:33:58.000Z</time>
      </trkpt>
      <trkpt lat="43.78212" lon="7.11541">
        <ele>662.40002441406</ele>
        <time>2023-08-02T09:33:59.000Z</time>
      </trkpt>
      <trkpt lat="43.78211" lon="7.11543">
        <ele>662.40002441406</ele>
        <time>2023-08-02T09:34:00.000Z</time>
      </trkpt>
      <trkpt lat="43.78209" lon="7.11545">
        <ele>661.59997558594</ele>
        <time>2023-08-02T09:34:01.000Z</time>
      </trkpt>
      <trkpt lat="43.78207" lon="7.11547">
        <ele>661.40002441406</ele>
        <time>2023-08-02T09:34:02.000Z</time>
      </trkpt>
      <trkpt lat="43.78205" lon="7.11549">
        <ele>661.40002441406</ele>
        <time>2023-08-02T09:34:03.000Z</time>
      </trkpt>
      <trkpt lat="43.78204" lon="7.11551">
        <ele>661.40002441406</ele>
        <time>2023-08-02T09:34:04.000Z</time>
      </trkpt>
      <trkpt lat="43.78204" lon="7.11552">
        <ele>661.40002441406</ele>
        <time>2023-08-02T09:34:05.000Z</time>
      </trkpt>
      <trkpt lat="43.78204" lon="7.11553">
        <ele>661.40002441406</ele>
        <time>2023-08-02T09:34:06.000Z</time>
      </trkpt>
      <trkpt lat="43.78204" lon="7.11553">
        <ele>661.40002441406</ele>
        <time>2023-08-02T09:34:07.000Z</time>
      </trkpt>
      <trkpt lat="43.78204" lon="7.11553">
        <ele>661.59997558594</ele>
        <time>2023-08-02T09:34:08.000Z</time>
      </trkpt>
      <trkpt lat="43.78204" lon="7.11553">
        <ele>661.79998779297</ele>
        <time>2023-08-02T09:34:09.000Z</time>
      </trkpt>
      <trkpt lat="43.78205" lon="7.11555">
        <ele>662</ele>
        <time>2023-08-02T09:34:10.000Z</time>
      </trkpt>
      <trkpt lat="43.78205" lon="7.11555">
        <ele>662</ele>
        <time>2023-08-02T09:34:11.000Z</time>
      </trkpt>
      <trkpt lat="43.78205" lon="7.11555">
        <ele>662</ele>
        <time>2023-08-02T09:34:12.000Z</time>
      </trkpt>
      <trkpt lat="43.78206" lon="7.11555">
        <ele>662</ele>
        <time>2023-08-02T09:34:13.000Z</time>
      </trkpt>
      <trkpt lat="43.78206" lon="7.11555">
        <ele>662</ele>
        <time>2023-08-02T09:34:14.000Z</time>
      </trkpt>
      <trkpt lat="43.78206" lon="7.11555">
        <ele>662</ele>
        <time>2023-08-02T09:34:15.000Z</time>
      </trkpt>
      <trkpt lat="43.78206" lon="7.11555">
        <ele>662</ele>
        <time>2023-08-02T09:34:16.000Z</time>
      </trkpt>
      <trkpt lat="43.78206" lon="7.11555">
        <ele>662</ele>
        <time>2023-08-02T09:34:17.000Z</time>
      </trkpt>
      <trkpt lat="43.78206" lon="7.11555">
        <ele>661.79998779297</ele>
        <time>2023-08-02T09:34:18.000Z</time>
      </trkpt>
      <trkpt lat="43.78206" lon="7.11555">
        <ele>661.79998779297</ele>
        <time>2023-08-02T09:34:19.000Z</time>
      </trkpt>
      <trkpt lat="43.78206" lon="7.11555">
        <ele>661.79998779297</ele>
        <time>2023-08-02T09:34:20.000Z</time>
      </trkpt>
      <trkpt lat="43.78206" lon="7.11556">
        <ele>661.79998779297</ele>
        <time>2023-08-02T09:34:21.000Z</time>
      </trkpt>
      <trkpt lat="43.78206" lon="7.11557">
        <ele>661.79998779297</ele>
        <time>2023-08-02T09:34:22.000Z</time>
      </trkpt>
      <trkpt lat="43.78206" lon="7.11559">
        <ele>661.79998779297</ele>
        <time>2023-08-02T09:34:23.000Z</time>
      </trkpt>
      <trkpt lat="43.78206" lon="7.11561">
        <ele>661.79998779297</ele>
        <time>2023-08-02T09:34:24.000Z</time>
      </trkpt>
      <trkpt lat="43.78206" lon="7.11563">
        <ele>661.79998779297</ele>
        <time>2023-08-02T09:34:25.000Z</time>
      </trkpt>
      <trkpt lat="43.78205" lon="7.11566">
        <ele>661.79998779297</ele>
        <time>2023-08-02T09:34:26.000Z</time>
      </trkpt>
      <trkpt lat="43.78203" lon="7.11568">
        <ele>661.79998779297</ele>
        <time>2023-08-02T09:34:27.000Z</time>
      </trkpt>
      <trkpt lat="43.78202" lon="7.11571">
        <ele>661.79998779297</ele>
        <time>2023-08-02T09:34:28.000Z</time>
      </trkpt>
      <trkpt lat="43.78201" lon="7.11575">
        <ele>661.79998779297</ele>
        <time>2023-08-02T09:34:29.000Z</time>
      </trkpt>
      <trkpt lat="43.78201" lon="7.11578">
        <ele>661.59997558594</ele>
        <time>2023-08-02T09:34:30.000Z</time>
      </trkpt>
      <trkpt lat="43.78201" lon="7.1158">
        <ele>661.59997558594</ele>
        <time>2023-08-02T09:34:31.000Z</time>
      </trkpt>
      <trkpt lat="43.782" lon="7.11583">
        <ele>661.59997558594</ele>
        <time>2023-08-02T09:34:32.000Z</time>
      </trkpt>
      <trkpt lat="43.78199" lon="7.11585">
        <ele>661.20001220703</ele>
        <time>2023-08-02T09:34:33.000Z</time>
      </trkpt>
      <trkpt lat="43.78198" lon="7.11587">
        <ele>661</ele>
        <time>2023-08-02T09:34:34.000Z</time>
      </trkpt>
      <trkpt lat="43.78196" lon="7.11588">
        <ele>660.59997558594</ele>
        <time>2023-08-02T09:34:35.000Z</time>
      </trkpt>
      <trkpt lat="43.78195" lon="7.11588">
        <ele>660.20001220703</ele>
        <time>2023-08-02T09:34:36.000Z</time>
      </trkpt>
      <trkpt lat="43.78193" lon="7.11586">
        <ele>660</ele>
        <time>2023-08-02T09:34:37.000Z</time>
      </trkpt>
      <trkpt lat="43.78192" lon="7.11585">
        <ele>660</ele>
        <time>2023-08-02T09:34:38.000Z</time>
      </trkpt>
      <trkpt lat="43.7819" lon="7.11585">
        <ele>660</ele>
        <time>2023-08-02T09:34:39.000Z</time>
      </trkpt>
      <trkpt lat="43.78188" lon="7.11584">
        <ele>660</ele>
        <time>2023-08-02T09:34:40.000Z</time>
      </trkpt>
      <trkpt lat="43.78186" lon="7.11583">
        <ele>660.20001220703</ele>
        <time>2023-08-02T09:34:41.000Z</time>
      </trkpt>
      <trkpt lat="43.78184" lon="7.11581">
        <ele>660.40002441406</ele>
        <time>2023-08-02T09:34:42.000Z</time>
      </trkpt>
      <trkpt lat="43.78182" lon="7.11579">
        <ele>660.59997558594</ele>
        <time>2023-08-02T09:34:43.000Z</time>
      </trkpt>
      <trkpt lat="43.7818" lon="7.11577">
        <ele>660.59997558594</ele>
        <time>2023-08-02T09:34:44.000Z</time>
      </trkpt>
      <trkpt lat="43.78178" lon="7.11575">
        <ele>660.59997558594</ele>
        <time>2023-08-02T09:34:45.000Z</time>
      </trkpt>
      <trkpt lat="43.78176" lon="7.11573">
        <ele>660.79998779297</ele>
        <time>2023-08-02T09:34:46.000Z</time>
      </trkpt>
      <trkpt lat="43.78174" lon="7.11572">
        <ele>661.20001220703</ele>
        <time>2023-08-02T09:34:47.000Z</time>
      </trkpt>
      <trkpt lat="43.78173" lon="7.1157">
        <ele>661.40002441406</ele>
        <time>2023-08-02T09:34:48.000Z</time>
      </trkpt>
      <trkpt lat="43.78171" lon="7.11568">
        <ele>661.40002441406</ele>
        <time>2023-08-02T09:34:49.000Z</time>
      </trkpt>
      <trkpt lat="43.7817" lon="7.11567">
        <ele>661.59997558594</ele>
        <time>2023-08-02T09:34:50.000Z</time>
      </trkpt>
      <trkpt lat="43.78169" lon="7.11567">
        <ele>661.59997558594</ele>
        <time>2023-08-02T09:34:51.000Z</time>
      </trkpt>
      <trkpt lat="43.78168" lon="7.11567">
        <ele>661.59997558594</ele>
        <time>2023-08-02T09:34:52.000Z</time>
      </trkpt>
      <trkpt lat="43.78168" lon="7.11567">
        <ele>661.59997558594</ele>
        <time>2023-08-02T09:34:53.000Z</time>
      </trkpt>
      <trkpt lat="43.78167" lon="7.11567">
        <ele>661.59997558594</ele>
        <time>2023-08-02T09:34:54.000Z</time>
      </trkpt>
      <trkpt lat="43.78167" lon="7.11567">
        <ele>661.59997558594</ele>
        <time>2023-08-02T09:34:55.000Z</time>
      </trkpt>
      <trkpt lat="43.78167" lon="7.11567">
        <ele>661.59997558594</ele>
        <time>2023-08-02T09:34:56.000Z</time>
      </trkpt>
      <trkpt lat="43.78167" lon="7.11567">
        <ele>661.59997558594</ele>
        <time>2023-08-02T09:34:57.000Z</time>
      </trkpt>
      <trkpt lat="43.78167" lon="7.11567">
        <ele>661.59997558594</ele>
        <time>2023-08-02T09:34:58.000Z</time>
      </trkpt>
      <trkpt lat="43.78167" lon="7.11567">
        <ele>661.59997558594</ele>
        <time>2023-08-02T09:34:59.000Z</time>
      </trkpt>
      <trkpt lat="43.78167" lon="7.11567">
        <ele>661.40002441406</ele>
        <time>2023-08-02T09:35:00.000Z</time>
      </trkpt>
      <trkpt lat="43.78167" lon="7.11567">
        <ele>661.40002441406</ele>
        <time>2023-08-02T09:35:01.000Z</time>
      </trkpt>
      <trkpt lat="43.78167" lon="7.11567">
        <ele>661.40002441406</ele>
        <time>2023-08-02T09:35:02.000Z</time>
      </trkpt>
      <trkpt lat="43.78167" lon="7.11567">
        <ele>661.40002441406</ele>
        <time>2023-08-02T09:35:03.000Z</time>
      </trkpt>
      <trkpt lat="43.78167" lon="7.11567">
        <ele>661.20001220703</ele>
        <time>2023-08-02T09:35:04.000Z</time>
      </trkpt>
      <trkpt lat="43.78167" lon="7.11567">
        <ele>661.20001220703</ele>
        <time>2023-08-02T09:35:05.000Z</time>
      </trkpt>
      <trkpt lat="43.78167" lon="7.11567">
        <ele>661.20001220703</ele>
        <time>2023-08-02T09:35:06.000Z</time>
      </trkpt>
      <trkpt lat="43.78167" lon="7.11567">
        <ele>661.20001220703</ele>
        <time>2023-08-02T09:35:07.000Z</time>
      </trkpt>
      <trkpt lat="43.78167" lon="7.11567">
        <ele>661.20001220703</ele>
        <time>2023-08-02T09:35:08.000Z</time>
      </trkpt>
      <trkpt lat="43.78167" lon="7.11567">
        <ele>661.20001220703</ele>
        <time>2023-08-02T09:35:09.000Z</time>
      </trkpt>
      <trkpt lat="43.78167" lon="7.11567">
        <ele>661.20001220703</ele>
        <time>2023-08-02T09:35:10.000Z</time>
      </trkpt>
      <trkpt lat="43.78167" lon="7.11567">
        <ele>661.20001220703</ele>
        <time>2023-08-02T09:35:11.000Z</time>
      </trkpt>
      <trkpt lat="43.78167" lon="7.11567">
        <ele>661.20001220703</ele>
        <time>2023-08-02T09:35:12.000Z</time>
      </trkpt>
      <trkpt lat="43.78167" lon="7.11567">
        <ele>661.20001220703</ele>
        <time>2023-08-02T09:35:13.000Z</time>
      </trkpt>
      <trkpt lat="43.78167" lon="7.11567">
        <ele>661.20001220703</ele>
        <time>2023-08-02T09:35:14.000Z</time>
      </trkpt>
      <trkpt lat="43.78167" lon="7.11567">
        <ele>661.20001220703</ele>
        <time>2023-08-02T09:35:15.000Z</time>
      </trkpt>
      <trkpt lat="43.78167" lon="7.11567">
        <ele>661.20001220703</ele>
        <time>2023-08-02T09:35:16.000Z</time>
      </trkpt>
      <trkpt lat="43.78167" lon="7.11567">
        <ele>661.40002441406</ele>
        <time>2023-08-02T09:35:17.000Z</time>
      </trkpt>
      <trkpt lat="43.78167" lon="7.11567">
        <ele>661.40002441406</ele>
        <time>2023-08-02T09:35:18.000Z</time>
      </trkpt>
      <trkpt lat="43.78167" lon="7.11567">
        <ele>661.40002441406</ele>
        <time>2023-08-02T09:35:19.000Z</time>
      </trkpt>
      <trkpt lat="43.78167" lon="7.11567">
        <ele>661.40002441406</ele>
        <time>2023-08-02T09:35:20.000Z</time>
      </trkpt>
      <trkpt lat="43.78167" lon="7.11567">
        <ele>661.40002441406</ele>
        <time>2023-08-02T09:35:21.000Z</time>
      </trkpt>
      <trkpt lat="43.78167" lon="7.11567">
        <ele>661.40002441406</ele>
        <time>2023-08-02T09:35:22.000Z</time>
      </trkpt>
      <trkpt lat="43.78167" lon="7.11567">
        <ele>661.40002441406</ele>
        <time>2023-08-02T09:35:23.000Z</time>
      </trkpt>
      <trkpt lat="43.78167" lon="7.11567">
        <ele>661.40002441406</ele>
        <time>2023-08-02T09:35:24.000Z</time>
      </trkpt>
      <trkpt lat="43.78167" lon="7.11567">
        <ele>661.40002441406</ele>
        <time>2023-08-02T09:35:25.000Z</time>
      </trkpt>
      <trkpt lat="43.78167" lon="7.11567">
        <ele>661.40002441406</ele>
        <time>2023-08-02T09:35:26.000Z</time>
      </trkpt>
      <trkpt lat="43.78167" lon="7.11567">
        <ele>661.40002441406</ele>
        <time>2023-08-02T09:35:27.000Z</time>
      </trkpt>
      <trkpt lat="43.78167" lon="7.11567">
        <ele>661.40002441406</ele>
        <time>2023-08-02T09:35:28.000Z</time>
      </trkpt>
      <trkpt lat="43.78167" lon="7.11567">
        <ele>661.40002441406</ele>
        <time>2023-08-02T09:35:29.000Z</time>
      </trkpt>
      <trkpt lat="43.78167" lon="7.11567">
        <ele>661.40002441406</ele>
        <time>2023-08-02T09:35:30.000Z</time>
      </trkpt>
      <trkpt lat="43.78167" lon="7.11567">
        <ele>661.59997558594</ele>
        <time>2023-08-02T09:35:31.000Z</time>
      </trkpt>
      <trkpt lat="43.78167" lon="7.11567">
        <ele>661.59997558594</ele>
        <time>2023-08-02T09:35:32.000Z</time>
      </trkpt>
      <trkpt lat="43.78167" lon="7.11567">
        <ele>661.59997558594</ele>
        <time>2023-08-02T09:35:33.000Z</time>
      </trkpt>
      <trkpt lat="43.78167" lon="7.11567">
        <ele>661.59997558594</ele>
        <time>2023-08-02T09:35:34.000Z</time>
      </trkpt>
      <trkpt lat="43.78167" lon="7.11567">
        <ele>661.59997558594</ele>
        <time>2023-08-02T09:35:35.000Z</time>
      </trkpt>
      <trkpt lat="43.78167" lon="7.11567">
        <ele>661.59997558594</ele>
        <time>2023-08-02T09:35:36.000Z</time>
      </trkpt>
      <trkpt lat="43.78167" lon="7.11567">
        <ele>661.59997558594</ele>
        <time>2023-08-02T09:35:37.000Z</time>
      </trkpt>
      <trkpt lat="43.78167" lon="7.11567">
        <ele>661.59997558594</ele>
        <time>2023-08-02T09:35:38.000Z</time>
      </trkpt>
      <trkpt lat="43.78167" lon="7.11567">
        <ele>661.59997558594</ele>
        <time>2023-08-02T09:35:39.000Z</time>
      </trkpt>
      <trkpt lat="43.78167" lon="7.11567">
        <ele>661.59997558594</ele>
        <time>2023-08-02T09:35:40.000Z</time>
      </trkpt>
      <trkpt lat="43.78167" lon="7.11567">
        <ele>661.59997558594</ele>
        <time>2023-08-02T09:35:41.000Z</time>
      </trkpt>
      <trkpt lat="43.78167" lon="7.11567">
        <ele>661.59997558594</ele>
        <time>2023-08-02T09:35:42.000Z</time>
      </trkpt>
      <trkpt lat="43.78167" lon="7.11567">
        <ele>661.59997558594</ele>
        <time>2023-08-02T09:35:43.000Z</time>
      </trkpt>
      <trkpt lat="43.78167" lon="7.11567">
        <ele>661.59997558594</ele>
        <time>2023-08-02T09:35:44.000Z</time>
      </trkpt>
      <trkpt lat="43.78167" lon="7.11567">
        <ele>661.59997558594</ele>
        <time>2023-08-02T09:35:45.000Z</time>
      </trkpt>
      <trkpt lat="43.78167" lon="7.11567">
        <ele>661.59997558594</ele>
        <time>2023-08-02T09:35:46.000Z</time>
      </trkpt>
      <trkpt lat="43.78167" lon="7.11567">
        <ele>661.59997558594</ele>
        <time>2023-08-02T09:35:47.000Z</time>
      </trkpt>
      <trkpt lat="43.78167" lon="7.11567">
        <ele>661.59997558594</ele>
        <time>2023-08-02T09:35:48.000Z</time>
      </trkpt>
      <trkpt lat="43.78167" lon="7.11567">
        <ele>661.59997558594</ele>
        <time>2023-08-02T09:35:49.000Z</time>
      </trkpt>
      <trkpt lat="43.78167" lon="7.11567">
        <ele>661.59997558594</ele>
        <time>2023-08-02T09:35:50.000Z</time>
      </trkpt>
      <trkpt lat="43.78167" lon="7.11567">
        <ele>661.79998779297</ele>
        <time>2023-08-02T09:35:51.000Z</time>
      </trkpt>
      <trkpt lat="43.78167" lon="7.11567">
        <ele>661.79998779297</ele>
        <time>2023-08-02T09:35:52.000Z</time>
      </trkpt>
      <trkpt lat="43.78167" lon="7.11567">
        <ele>661.79998779297</ele>
        <time>2023-08-02T09:35:53.000Z</time>
      </trkpt>
      <trkpt lat="43.78167" lon="7.11567">
        <ele>661.79998779297</ele>
        <time>2023-08-02T09:35:54.000Z</time>
      </trkpt>
      <trkpt lat="43.78167" lon="7.11567">
        <ele>661.79998779297</ele>
        <time>2023-08-02T09:35:55.000Z</time>
      </trkpt>
      <trkpt lat="43.78167" lon="7.11567">
        <ele>661.79998779297</ele>
        <time>2023-08-02T09:35:56.000Z</time>
      </trkpt>
      <trkpt lat="43.78167" lon="7.11567">
        <ele>661.79998779297</ele>
        <time>2023-08-02T09:35:57.000Z</time>
      </trkpt>
      <trkpt lat="43.78167" lon="7.11567">
        <ele>661.79998779297</ele>
        <time>2023-08-02T09:35:58.000Z</time>
      </trkpt>
      <trkpt lat="43.78167" lon="7.11567">
        <ele>661.79998779297</ele>
        <time>2023-08-02T09:35:59.000Z</time>
      </trkpt>
      <trkpt lat="43.78167" lon="7.11567">
        <ele>661.79998779297</ele>
        <time>2023-08-02T09:36:00.000Z</time>
      </trkpt>
      <trkpt lat="43.78167" lon="7.11567">
        <ele>661.79998779297</ele>
        <time>2023-08-02T09:36:01.000Z</time>
      </trkpt>
      <trkpt lat="43.78167" lon="7.11567">
        <ele>661.79998779297</ele>
        <time>2023-08-02T09:36:02.000Z</time>
      </trkpt>
      <trkpt lat="43.78167" lon="7.11567">
        <ele>661.79998779297</ele>
        <time>2023-08-02T09:36:03.000Z</time>
      </trkpt>
      <trkpt lat="43.78167" lon="7.11567">
        <ele>661.79998779297</ele>
        <time>2023-08-02T09:36:04.000Z</time>
      </trkpt>
      <trkpt lat="43.78167" lon="7.11567">
        <ele>661.79998779297</ele>
        <time>2023-08-02T09:36:05.000Z</time>
      </trkpt>
      <trkpt lat="43.78167" lon="7.11567">
        <ele>661.79998779297</ele>
        <time>2023-08-02T09:36:06.000Z</time>
      </trkpt>
      <trkpt lat="43.78167" lon="7.11567">
        <ele>661.79998779297</ele>
        <time>2023-08-02T09:36:07.000Z</time>
      </trkpt>
      <trkpt lat="43.78167" lon="7.11567">
        <ele>661.79998779297</ele>
        <time>2023-08-02T09:36:08.000Z</time>
      </trkpt>
      <trkpt lat="43.78167" lon="7.11567">
        <ele>661.79998779297</ele>
        <time>2023-08-02T09:36:09.000Z</time>
      </trkpt>
      <trkpt lat="43.78167" lon="7.11567">
        <ele>661.79998779297</ele>
        <time>2023-08-02T09:36:10.000Z</time>
      </trkpt>
      <trkpt lat="43.78167" lon="7.11567">
        <ele>661.79998779297</ele>
        <time>2023-08-02T09:36:11.000Z</time>
      </trkpt>
      <trkpt lat="43.78167" lon="7.11567">
        <ele>661.79998779297</ele>
        <time>2023-08-02T09:36:12.000Z</time>
      </trkpt>
      <trkpt lat="43.78167" lon="7.11567">
        <ele>661.79998779297</ele>
        <time>2023-08-02T09:36:13.000Z</time>
      </trkpt>
      <trkpt lat="43.78167" lon="7.11567">
        <ele>661.79998779297</ele>
        <time>2023-08-02T09:36:14.000Z</time>
      </trkpt>
      <trkpt lat="43.78167" lon="7.11567">
        <ele>661.79998779297</ele>
        <time>2023-08-02T09:36:15.000Z</time>
      </trkpt>
      <trkpt lat="43.78167" lon="7.11567">
        <ele>661.79998779297</ele>
        <time>2023-08-02T09:36:16.000Z</time>
      </trkpt>
      <trkpt lat="43.78167" lon="7.11567">
        <ele>661.79998779297</ele>
        <time>2023-08-02T09:36:17.000Z</time>
      </trkpt>
      <trkpt lat="43.78167" lon="7.11567">
        <ele>661.79998779297</ele>
        <time>2023-08-02T09:36:18.000Z</time>
      </trkpt>
      <trkpt lat="43.78167" lon="7.11567">
        <ele>661.79998779297</ele>
        <time>2023-08-02T09:36:19.000Z</time>
      </trkpt>
      <trkpt lat="43.78167" lon="7.11567">
        <ele>661.79998779297</ele>
        <time>2023-08-02T09:36:20.000Z</time>
      </trkpt>
      <trkpt lat="43.78167" lon="7.11567">
        <ele>661.79998779297</ele>
        <time>2023-08-02T09:36:21.000Z</time>
      </trkpt>
      <trkpt lat="43.78167" lon="7.11567">
        <ele>661.79998779297</ele>
        <time>2023-08-02T09:36:22.000Z</time>
      </trkpt>
      <trkpt lat="43.78167" lon="7.11567">
        <ele>661.79998779297</ele>
        <time>2023-08-02T09:36:23.000Z</time>
      </trkpt>
      <trkpt lat="43.78167" lon="7.11567">
        <ele>661.79998779297</ele>
        <time>2023-08-02T09:36:24.000Z</time>
      </trkpt>
      <trkpt lat="43.78167" lon="7.11567">
        <ele>661.79998779297</ele>
        <time>2023-08-02T09:36:25.000Z</time>
      </trkpt>
      <trkpt lat="43.78167" lon="7.11567">
        <ele>661.79998779297</ele>
        <time>2023-08-02T09:36:26.000Z</time>
      </trkpt>
      <trkpt lat="43.78167" lon="7.11567">
        <ele>661.79998779297</ele>
        <time>2023-08-02T09:36:27.000Z</time>
      </trkpt>
      <trkpt lat="43.78167" lon="7.11567">
        <ele>661.79998779297</ele>
        <time>2023-08-02T09:36:28.000Z</time>
      </trkpt>
      <trkpt lat="43.78167" lon="7.11567">
        <ele>661.79998779297</ele>
        <time>2023-08-02T09:36:29.000Z</time>
      </trkpt>
      <trkpt lat="43.78167" lon="7.11567">
        <ele>661.79998779297</ele>
        <time>2023-08-02T09:36:30.000Z</time>
      </trkpt>
      <trkpt lat="43.78167" lon="7.11567">
        <ele>661.79998779297</ele>
        <time>2023-08-02T09:36:31.000Z</time>
      </trkpt>
      <trkpt lat="43.78167" lon="7.11567">
        <ele>661.79998779297</ele>
        <time>2023-08-02T09:36:32.000Z</time>
      </trkpt>
      <trkpt lat="43.78167" lon="7.11567">
        <ele>661.79998779297</ele>
        <time>2023-08-02T09:36:33.000Z</time>
      </trkpt>
      <trkpt lat="43.78167" lon="7.11567">
        <ele>661.79998779297</ele>
        <time>2023-08-02T09:36:34.000Z</time>
      </trkpt>
      <trkpt lat="43.78167" lon="7.11567">
        <ele>661.79998779297</ele>
        <time>2023-08-02T09:36:35.000Z</time>
      </trkpt>
      <trkpt lat="43.78167" lon="7.11567">
        <ele>661.79998779297</ele>
        <time>2023-08-02T09:36:36.000Z</time>
      </trkpt>
      <trkpt lat="43.78167" lon="7.11567">
        <ele>661.79998779297</ele>
        <time>2023-08-02T09:36:37.000Z</time>
      </trkpt>
      <trkpt lat="43.78167" lon="7.11567">
        <ele>661.79998779297</ele>
        <time>2023-08-02T09:36:38.000Z</time>
      </trkpt>
      <trkpt lat="43.78167" lon="7.11567">
        <ele>661.79998779297</ele>
        <time>2023-08-02T09:36:39.000Z</time>
      </trkpt>
      <trkpt lat="43.78167" lon="7.11567">
        <ele>661.79998779297</ele>
        <time>2023-08-02T09:36:40.000Z</time>
      </trkpt>
      <trkpt lat="43.78167" lon="7.11567">
        <ele>662</ele>
        <time>2023-08-02T09:36:41.000Z</time>
      </trkpt>
      <trkpt lat="43.78167" lon="7.11567">
        <ele>662</ele>
        <time>2023-08-02T09:36:42.000Z</time>
      </trkpt>
      <trkpt lat="43.78167" lon="7.11567">
        <ele>662</ele>
        <time>2023-08-02T09:36:43.000Z</time>
      </trkpt>
      <trkpt lat="43.78167" lon="7.11567">
        <ele>662</ele>
        <time>2023-08-02T09:36:44.000Z</time>
      </trkpt>
      <trkpt lat="43.78167" lon="7.11567">
        <ele>662</ele>
        <time>2023-08-02T09:36:45.000Z</time>
      </trkpt>
      <trkpt lat="43.78167" lon="7.11567">
        <ele>662</ele>
        <time>2023-08-02T09:36:46.000Z</time>
      </trkpt>
      <trkpt lat="43.78167" lon="7.11567">
        <ele>662</ele>
        <time>2023-08-02T09:36:47.000Z</time>
      </trkpt>
      <trkpt lat="43.78167" lon="7.11567">
        <ele>662</ele>
        <time>2023-08-02T09:36:48.000Z</time>
      </trkpt>
      <trkpt lat="43.78167" lon="7.11567">
        <ele>662</ele>
        <time>2023-08-02T09:36:49.000Z</time>
      </trkpt>
      <trkpt lat="43.78167" lon="7.11567">
        <ele>662</ele>
        <time>2023-08-02T09:36:50.000Z</time>
      </trkpt>
      <trkpt lat="43.78167" lon="7.11567">
        <ele>662</ele>
        <time>2023-08-02T09:36:51.000Z</time>
      </trkpt>
      <trkpt lat="43.78167" lon="7.11567">
        <ele>662</ele>
        <time>2023-08-02T09:36:52.000Z</time>
      </trkpt>
      <trkpt lat="43.78167" lon="7.11567">
        <ele>662</ele>
        <time>2023-08-02T09:36:53.000Z</time>
      </trkpt>
      <trkpt lat="43.78167" lon="7.11567">
        <ele>662</ele>
        <time>2023-08-02T09:36:54.000Z</time>
      </trkpt>
      <trkpt lat="43.78167" lon="7.11567">
        <ele>662</ele>
        <time>2023-08-02T09:36:55.000Z</time>
      </trkpt>
      <trkpt lat="43.78167" lon="7.11567">
        <ele>662</ele>
        <time>2023-08-02T09:36:56.000Z</time>
      </trkpt>
      <trkpt lat="43.78167" lon="7.11567">
        <ele>662</ele>
        <time>2023-08-02T09:36:57.000Z</time>
      </trkpt>
      <trkpt lat="43.78167" lon="7.11567">
        <ele>662</ele>
        <time>2023-08-02T09:36:58.000Z</time>
      </trkpt>
      <trkpt lat="43.78167" lon="7.11567">
        <ele>662</ele>
        <time>2023-08-02T09:36:59.000Z</time>
      </trkpt>
      <trkpt lat="43.78167" lon="7.11567">
        <ele>662</ele>
        <time>2023-08-02T09:37:00.000Z</time>
      </trkpt>
      <trkpt lat="43.78167" lon="7.11567">
        <ele>662</ele>
        <time>2023-08-02T09:37:01.000Z</time>
      </trkpt>
      <trkpt lat="43.78167" lon="7.11567">
        <ele>662</ele>
        <time>2023-08-02T09:37:02.000Z</time>
      </trkpt>
      <trkpt lat="43.78167" lon="7.11567">
        <ele>662</ele>
        <time>2023-08-02T09:37:03.000Z</time>
      </trkpt>
      <trkpt lat="43.78167" lon="7.11567">
        <ele>662</ele>
        <time>2023-08-02T09:37:04.000Z</time>
      </trkpt>
      <trkpt lat="43.78167" lon="7.11567">
        <ele>662</ele>
        <time>2023-08-02T09:37:05.000Z</time>
      </trkpt>
      <trkpt lat="43.78167" lon="7.11567">
        <ele>662</ele>
        <time>2023-08-02T09:37:06.000Z</time>
      </trkpt>
      <trkpt lat="43.78167" lon="7.11567">
        <ele>662</ele>
        <time>2023-08-02T09:37:07.000Z</time>
      </trkpt>
      <trkpt lat="43.78167" lon="7.11567">
        <ele>662.20001220703</ele>
        <time>2023-08-02T09:37:08.000Z</time>
      </trkpt>
      <trkpt lat="43.78167" lon="7.11567">
        <ele>662.20001220703</ele>
        <time>2023-08-02T09:37:09.000Z</time>
      </trkpt>
      <trkpt lat="43.78167" lon="7.11567">
        <ele>662.20001220703</ele>
        <time>2023-08-02T09:37:10.000Z</time>
      </trkpt>
      <trkpt lat="43.78167" lon="7.11567">
        <ele>662.20001220703</ele>
        <time>2023-08-02T09:37:11.000Z</time>
      </trkpt>
      <trkpt lat="43.78167" lon="7.11567">
        <ele>662.20001220703</ele>
        <time>2023-08-02T09:37:12.000Z</time>
      </trkpt>
      <trkpt lat="43.78167" lon="7.11567">
        <ele>662.20001220703</ele>
        <time>2023-08-02T09:37:13.000Z</time>
      </trkpt>
      <trkpt lat="43.78167" lon="7.11567">
        <ele>662.20001220703</ele>
        <time>2023-08-02T09:37:14.000Z</time>
      </trkpt>
      <trkpt lat="43.78167" lon="7.11567">
        <ele>662.20001220703</ele>
        <time>2023-08-02T09:37:15.000Z</time>
      </trkpt>
      <trkpt lat="43.78167" lon="7.11567">
        <ele>662.20001220703</ele>
        <time>2023-08-02T09:37:16.000Z</time>
      </trkpt>
      <trkpt lat="43.78167" lon="7.11567">
        <ele>662.20001220703</ele>
        <time>2023-08-02T09:37:17.000Z</time>
      </trkpt>
      <trkpt lat="43.78167" lon="7.11567">
        <ele>662.20001220703</ele>
        <time>2023-08-02T09:37:18.000Z</time>
      </trkpt>
      <trkpt lat="43.78167" lon="7.11567">
        <ele>662.20001220703</ele>
        <time>2023-08-02T09:37:19.000Z</time>
      </trkpt>
      <trkpt lat="43.78167" lon="7.11567">
        <ele>662.20001220703</ele>
        <time>2023-08-02T09:37:20.000Z</time>
      </trkpt>
      <trkpt lat="43.78167" lon="7.11567">
        <ele>662.20001220703</ele>
        <time>2023-08-02T09:37:21.000Z</time>
      </trkpt>
      <trkpt lat="43.78167" lon="7.11567">
        <ele>662.20001220703</ele>
        <time>2023-08-02T09:37:22.000Z</time>
      </trkpt>
      <trkpt lat="43.78167" lon="7.11567">
        <ele>662.20001220703</ele>
        <time>2023-08-02T09:37:23.000Z</time>
      </trkpt>
      <trkpt lat="43.78167" lon="7.11567">
        <ele>662.20001220703</ele>
        <time>2023-08-02T09:37:24.000Z</time>
      </trkpt>
      <trkpt lat="43.78167" lon="7.11567">
        <ele>662.20001220703</ele>
        <time>2023-08-02T09:37:25.000Z</time>
      </trkpt>
      <trkpt lat="43.78167" lon="7.11567">
        <ele>662.20001220703</ele>
        <time>2023-08-02T09:37:26.000Z</time>
      </trkpt>
      <trkpt lat="43.78167" lon="7.11567">
        <ele>662.20001220703</ele>
        <time>2023-08-02T09:37:27.000Z</time>
      </trkpt>
      <trkpt lat="43.78167" lon="7.11567">
        <ele>662.20001220703</ele>
        <time>2023-08-02T09:37:28.000Z</time>
      </trkpt>
      <trkpt lat="43.78167" lon="7.11567">
        <ele>662.20001220703</ele>
        <time>2023-08-02T09:37:29.000Z</time>
      </trkpt>
      <trkpt lat="43.78167" lon="7.11567">
        <ele>662.20001220703</ele>
        <time>2023-08-02T09:37:30.000Z</time>
      </trkpt>
      <trkpt lat="43.78167" lon="7.11567">
        <ele>662.20001220703</ele>
        <time>2023-08-02T09:37:31.000Z</time>
      </trkpt>
      <trkpt lat="43.78167" lon="7.11567">
        <ele>662.20001220703</ele>
        <time>2023-08-02T09:37:32.000Z</time>
      </trkpt>
      <trkpt lat="43.78167" lon="7.11567">
        <ele>662.20001220703</ele>
        <time>2023-08-02T09:37:33.000Z</time>
      </trkpt>
      <trkpt lat="43.78167" lon="7.11567">
        <ele>662.20001220703</ele>
        <time>2023-08-02T09:37:34.000Z</time>
      </trkpt>
      <trkpt lat="43.78167" lon="7.11567">
        <ele>662.20001220703</ele>
        <time>2023-08-02T09:37:35.000Z</time>
      </trkpt>
      <trkpt lat="43.78167" lon="7.11567">
        <ele>662.20001220703</ele>
        <time>2023-08-02T09:37:36.000Z</time>
      </trkpt>
      <trkpt lat="43.78167" lon="7.11567">
        <ele>662.20001220703</ele>
        <time>2023-08-02T09:37:37.000Z</time>
      </trkpt>
      <trkpt lat="43.78167" lon="7.11567">
        <ele>662.20001220703</ele>
        <time>2023-08-02T09:37:38.000Z</time>
      </trkpt>
      <trkpt lat="43.78167" lon="7.11567">
        <ele>662.20001220703</ele>
        <time>2023-08-02T09:37:39.000Z</time>
      </trkpt>
      <trkpt lat="43.78167" lon="7.11567">
        <ele>662.20001220703</ele>
        <time>2023-08-02T09:37:40.000Z</time>
      </trkpt>
      <trkpt lat="43.78167" lon="7.11567">
        <ele>662.20001220703</ele>
        <time>2023-08-02T09:37:41.000Z</time>
      </trkpt>
      <trkpt lat="43.78167" lon="7.11567">
        <ele>662.20001220703</ele>
        <time>2023-08-02T09:37:42.000Z</time>
      </trkpt>
      <trkpt lat="43.78167" lon="7.11567">
        <ele>662.20001220703</ele>
        <time>2023-08-02T09:37:43.000Z</time>
      </trkpt>
      <trkpt lat="43.78167" lon="7.11567">
        <ele>662.20001220703</ele>
        <time>2023-08-02T09:37:44.000Z</time>
      </trkpt>
      <trkpt lat="43.78167" lon="7.11567">
        <ele>662.20001220703</ele>
        <time>2023-08-02T09:37:45.000Z</time>
      </trkpt>
      <trkpt lat="43.78167" lon="7.11567">
        <ele>662.20001220703</ele>
        <time>2023-08-02T09:37:46.000Z</time>
      </trkpt>
      <trkpt lat="43.78167" lon="7.11567">
        <ele>662.20001220703</ele>
        <time>2023-08-02T09:37:47.000Z</time>
      </trkpt>
      <trkpt lat="43.78167" lon="7.11567">
        <ele>662.20001220703</ele>
        <time>2023-08-02T09:37:48.000Z</time>
      </trkpt>
      <trkpt lat="43.78167" lon="7.11567">
        <ele>662.20001220703</ele>
        <time>2023-08-02T09:37:49.000Z</time>
      </trkpt>
      <trkpt lat="43.78167" lon="7.11567">
        <ele>662.20001220703</ele>
        <time>2023-08-02T09:37:50.000Z</time>
      </trkpt>
      <trkpt lat="43.78167" lon="7.11567">
        <ele>662.20001220703</ele>
        <time>2023-08-02T09:37:51.000Z</time>
      </trkpt>
      <trkpt lat="43.78167" lon="7.11567">
        <ele>662.20001220703</ele>
        <time>2023-08-02T09:37:52.000Z</time>
      </trkpt>
      <trkpt lat="43.78167" lon="7.11567">
        <ele>662.20001220703</ele>
        <time>2023-08-02T09:37:53.000Z</time>
      </trkpt>
      <trkpt lat="43.78167" lon="7.11567">
        <ele>662.20001220703</ele>
        <time>2023-08-02T09:37:54.000Z</time>
      </trkpt>
      <trkpt lat="43.78167" lon="7.11567">
        <ele>662.20001220703</ele>
        <time>2023-08-02T09:37:55.000Z</time>
      </trkpt>
      <trkpt lat="43.78167" lon="7.11567">
        <ele>662.20001220703</ele>
        <time>2023-08-02T09:37:56.000Z</time>
      </trkpt>
      <trkpt lat="43.78167" lon="7.11567">
        <ele>662.20001220703</ele>
        <time>2023-08-02T09:37:57.000Z</time>
      </trkpt>
      <trkpt lat="43.78167" lon="7.11567">
        <ele>662.20001220703</ele>
        <time>2023-08-02T09:37:58.000Z</time>
      </trkpt>
      <trkpt lat="43.78167" lon="7.11567">
        <ele>662.20001220703</ele>
        <time>2023-08-02T09:37:59.000Z</time>
      </trkpt>
      <trkpt lat="43.78167" lon="7.11567">
        <ele>662.20001220703</ele>
        <time>2023-08-02T09:38:00.000Z</time>
      </trkpt>
      <trkpt lat="43.78167" lon="7.11567">
        <ele>662.20001220703</ele>
        <time>2023-08-02T09:38:01.000Z</time>
      </trkpt>
      <trkpt lat="43.78167" lon="7.11567">
        <ele>662.20001220703</ele>
        <time>2023-08-02T09:38:02.000Z</time>
      </trkpt>
      <trkpt lat="43.78167" lon="7.11567">
        <ele>662.20001220703</ele>
        <time>2023-08-02T09:38:03.000Z</time>
      </trkpt>
      <trkpt lat="43.78167" lon="7.11567">
        <ele>662.20001220703</ele>
        <time>2023-08-02T09:38:04.000Z</time>
      </trkpt>
      <trkpt lat="43.78167" lon="7.11567">
        <ele>662.20001220703</ele>
        <time>2023-08-02T09:38:05.000Z</time>
      </trkpt>
      <trkpt lat="43.78167" lon="7.11567">
        <ele>662.20001220703</ele>
        <time>2023-08-02T09:38:06.000Z</time>
      </trkpt>
      <trkpt lat="43.78167" lon="7.11567">
        <ele>662.20001220703</ele>
        <time>2023-08-02T09:38:07.000Z</time>
      </trkpt>
      <trkpt lat="43.78167" lon="7.11567">
        <ele>662.20001220703</ele>
        <time>2023-08-02T09:38:08.000Z</time>
      </trkpt>
      <trkpt lat="43.78167" lon="7.11567">
        <ele>662.20001220703</ele>
        <time>2023-08-02T09:38:09.000Z</time>
      </trkpt>
      <trkpt lat="43.78167" lon="7.11567">
        <ele>662.20001220703</ele>
        <time>2023-08-02T09:38:10.000Z</time>
      </trkpt>
      <trkpt lat="43.78167" lon="7.11567">
        <ele>662.20001220703</ele>
        <time>2023-08-02T09:38:11.000Z</time>
      </trkpt>
      <trkpt lat="43.78167" lon="7.11567">
        <ele>662.20001220703</ele>
        <time>2023-08-02T09:38:12.000Z</time>
      </trkpt>
      <trkpt lat="43.78167" lon="7.11567">
        <ele>662.20001220703</ele>
        <time>2023-08-02T09:38:13.000Z</time>
      </trkpt>
      <trkpt lat="43.78167" lon="7.11567">
        <ele>662.20001220703</ele>
        <time>2023-08-02T09:38:14.000Z</time>
      </trkpt>
      <trkpt lat="43.78167" lon="7.11567">
        <ele>662.20001220703</ele>
        <time>2023-08-02T09:38:15.000Z</time>
      </trkpt>
      <trkpt lat="43.78167" lon="7.11567">
        <ele>662.20001220703</ele>
        <time>2023-08-02T09:38:16.000Z</time>
      </trkpt>
      <trkpt lat="43.78167" lon="7.11567">
        <ele>662.20001220703</ele>
        <time>2023-08-02T09:38:17.000Z</time>
      </trkpt>
      <trkpt lat="43.78167" lon="7.11567">
        <ele>662.20001220703</ele>
        <time>2023-08-02T09:38:18.000Z</time>
      </trkpt>
      <trkpt lat="43.78167" lon="7.11567">
        <ele>662.20001220703</ele>
        <time>2023-08-02T09:38:19.000Z</time>
      </trkpt>
      <trkpt lat="43.78167" lon="7.11567">
        <ele>662.20001220703</ele>
        <time>2023-08-02T09:38:20.000Z</time>
      </trkpt>
      <trkpt lat="43.78167" lon="7.11567">
        <ele>662.20001220703</ele>
        <time>2023-08-02T09:38:21.000Z</time>
      </trkpt>
      <trkpt lat="43.78167" lon="7.11567">
        <ele>662.20001220703</ele>
        <time>2023-08-02T09:38:22.000Z</time>
      </trkpt>
      <trkpt lat="43.78167" lon="7.11567">
        <ele>662.20001220703</ele>
        <time>2023-08-02T09:38:23.000Z</time>
      </trkpt>
      <trkpt lat="43.78167" lon="7.11567">
        <ele>662.20001220703</ele>
        <time>2023-08-02T09:38:24.000Z</time>
      </trkpt>
      <trkpt lat="43.78167" lon="7.11567">
        <ele>662.20001220703</ele>
        <time>2023-08-02T09:38:25.000Z</time>
      </trkpt>
      <trkpt lat="43.78167" lon="7.11567">
        <ele>662.20001220703</ele>
        <time>2023-08-02T09:38:26.000Z</time>
      </trkpt>
      <trkpt lat="43.78167" lon="7.11567">
        <ele>662.20001220703</ele>
        <time>2023-08-02T09:38:27.000Z</time>
      </trkpt>
      <trkpt lat="43.78167" lon="7.11567">
        <ele>662.20001220703</ele>
        <time>2023-08-02T09:38:28.000Z</time>
      </trkpt>
      <trkpt lat="43.78167" lon="7.11567">
        <ele>662.20001220703</ele>
        <time>2023-08-02T09:38:29.000Z</time>
      </trkpt>
      <trkpt lat="43.78167" lon="7.11567">
        <ele>662.20001220703</ele>
        <time>2023-08-02T09:38:30.000Z</time>
      </trkpt>
      <trkpt lat="43.78167" lon="7.11567">
        <ele>662.20001220703</ele>
        <time>2023-08-02T09:38:31.000Z</time>
      </trkpt>
      <trkpt lat="43.78167" lon="7.11567">
        <ele>662.20001220703</ele>
        <time>2023-08-02T09:38:32.000Z</time>
      </trkpt>
      <trkpt lat="43.78167" lon="7.11568">
        <ele>662.20001220703</ele>
        <time>2023-08-02T09:38:33.000Z</time>
      </trkpt>
      <trkpt lat="43.78167" lon="7.11568">
        <ele>662.20001220703</ele>
        <time>2023-08-02T09:38:34.000Z</time>
      </trkpt>
      <trkpt lat="43.78167" lon="7.11568">
        <ele>662.20001220703</ele>
        <time>2023-08-02T09:38:35.000Z</time>
      </trkpt>
      <trkpt lat="43.78167" lon="7.11568">
        <ele>662.20001220703</ele>
        <time>2023-08-02T09:38:36.000Z</time>
      </trkpt>
      <trkpt lat="43.78167" lon="7.11568">
        <ele>662.20001220703</ele>
        <time>2023-08-02T09:38:37.000Z</time>
      </trkpt>
      <trkpt lat="43.78167" lon="7.11567">
        <ele>662.20001220703</ele>
        <time>2023-08-02T09:38:38.000Z</time>
      </trkpt>
      <trkpt lat="43.78167" lon="7.11567">
        <ele>662.20001220703</ele>
        <time>2023-08-02T09:38:39.000Z</time>
      </trkpt>
      <trkpt lat="43.78167" lon="7.11567">
        <ele>662.20001220703</ele>
        <time>2023-08-02T09:38:40.000Z</time>
      </trkpt>
      <trkpt lat="43.78167" lon="7.11566">
        <ele>662.20001220703</ele>
        <time>2023-08-02T09:38:41.000Z</time>
      </trkpt>
      <trkpt lat="43.78167" lon="7.11566">
        <ele>662.20001220703</ele>
        <time>2023-08-02T09:38:42.000Z</time>
      </trkpt>
      <trkpt lat="43.78166" lon="7.11565">
        <ele>662.20001220703</ele>
        <time>2023-08-02T09:38:43.000Z</time>
      </trkpt>
      <trkpt lat="43.78165" lon="7.11565">
        <ele>662.20001220703</ele>
        <time>2023-08-02T09:38:44.000Z</time>
      </trkpt>
      <trkpt lat="43.78165" lon="7.11564">
        <ele>662.20001220703</ele>
        <time>2023-08-02T09:38:45.000Z</time>
      </trkpt>
      <trkpt lat="43.78165" lon="7.11564">
        <ele>662.20001220703</ele>
        <time>2023-08-02T09:38:46.000Z</time>
      </trkpt>
      <trkpt lat="43.78164" lon="7.11563">
        <ele>662.20001220703</ele>
        <time>2023-08-02T09:38:47.000Z</time>
      </trkpt>
      <trkpt lat="43.78164" lon="7.11563">
        <ele>662.20001220703</ele>
        <time>2023-08-02T09:38:48.000Z</time>
      </trkpt>
      <trkpt lat="43.78163" lon="7.11563">
        <ele>662.20001220703</ele>
        <time>2023-08-02T09:38:49.000Z</time>
      </trkpt>
      <trkpt lat="43.78163" lon="7.11563">
        <ele>662.20001220703</ele>
        <time>2023-08-02T09:38:50.000Z</time>
      </trkpt>
      <trkpt lat="43.78163" lon="7.11563">
        <ele>662.20001220703</ele>
        <time>2023-08-02T09:38:51.000Z</time>
      </trkpt>
      <trkpt lat="43.78163" lon="7.11563">
        <ele>662.20001220703</ele>
        <time>2023-08-02T09:38:52.000Z</time>
      </trkpt>
      <trkpt lat="43.78163" lon="7.11563">
        <ele>662.20001220703</ele>
        <time>2023-08-02T09:38:53.000Z</time>
      </trkpt>
      <trkpt lat="43.78163" lon="7.11563">
        <ele>662.20001220703</ele>
        <time>2023-08-02T09:38:54.000Z</time>
      </trkpt>
      <trkpt lat="43.78163" lon="7.11563">
        <ele>662.20001220703</ele>
        <time>2023-08-02T09:38:55.000Z</time>
      </trkpt>
      <trkpt lat="43.78163" lon="7.11562">
        <ele>662.20001220703</ele>
        <time>2023-08-02T09:38:56.000Z</time>
      </trkpt>
      <trkpt lat="43.78162" lon="7.1156">
        <ele>662.20001220703</ele>
        <time>2023-08-02T09:38:57.000Z</time>
      </trkpt>
      <trkpt lat="43.78161" lon="7.11558">
        <ele>662.20001220703</ele>
        <time>2023-08-02T09:38:58.000Z</time>
      </trkpt>
      <trkpt lat="43.7816" lon="7.11555">
        <ele>662.20001220703</ele>
        <time>2023-08-02T09:38:59.000Z</time>
      </trkpt>
      <trkpt lat="43.78158" lon="7.11553">
        <ele>662.20001220703</ele>
        <time>2023-08-02T09:39:00.000Z</time>
      </trkpt>
      <trkpt lat="43.78157" lon="7.11551">
        <ele>662.20001220703</ele>
        <time>2023-08-02T09:39:01.000Z</time>
      </trkpt>
      <trkpt lat="43.78157" lon="7.1155">
        <ele>662</ele>
        <time>2023-08-02T09:39:02.000Z</time>
      </trkpt>
      <trkpt lat="43.78156" lon="7.11548">
        <ele>661.79998779297</ele>
        <time>2023-08-02T09:39:03.000Z</time>
      </trkpt>
      <trkpt lat="43.78156" lon="7.11546">
        <ele>661.59997558594</ele>
        <time>2023-08-02T09:39:04.000Z</time>
      </trkpt>
      <trkpt lat="43.78155" lon="7.11545">
        <ele>661.59997558594</ele>
        <time>2023-08-02T09:39:05.000Z</time>
      </trkpt>
      <trkpt lat="43.78154" lon="7.11543">
        <ele>661.59997558594</ele>
        <time>2023-08-02T09:39:06.000Z</time>
      </trkpt>
      <trkpt lat="43.78152" lon="7.11542">
        <ele>661.59997558594</ele>
        <time>2023-08-02T09:39:07.000Z</time>
      </trkpt>
      <trkpt lat="43.78151" lon="7.1154">
        <ele>661.40002441406</ele>
        <time>2023-08-02T09:39:08.000Z</time>
      </trkpt>
      <trkpt lat="43.7815" lon="7.11537">
        <ele>661.20001220703</ele>
        <time>2023-08-02T09:39:09.000Z</time>
      </trkpt>
      <trkpt lat="43.78148" lon="7.11534">
        <ele>661.20001220703</ele>
        <time>2023-08-02T09:39:10.000Z</time>
      </trkpt>
      <trkpt lat="43.78146" lon="7.11533">
        <ele>661.20001220703</ele>
        <time>2023-08-02T09:39:11.000Z</time>
      </trkpt>
      <trkpt lat="43.78144" lon="7.1153">
        <ele>661.20001220703</ele>
        <time>2023-08-02T09:39:12.000Z</time>
      </trkpt>
      <trkpt lat="43.78142" lon="7.11527">
        <ele>661.20001220703</ele>
        <time>2023-08-02T09:39:13.000Z</time>
      </trkpt>
      <trkpt lat="43.78141" lon="7.11525">
        <ele>661.20001220703</ele>
        <time>2023-08-02T09:39:14.000Z</time>
      </trkpt>
      <trkpt lat="43.78139" lon="7.11523">
        <ele>661.20001220703</ele>
        <time>2023-08-02T09:39:15.000Z</time>
      </trkpt>
      <trkpt lat="43.78137" lon="7.11521">
        <ele>661.40002441406</ele>
        <time>2023-08-02T09:39:16.000Z</time>
      </trkpt>
      <trkpt lat="43.78135" lon="7.1152">
        <ele>661.40002441406</ele>
        <time>2023-08-02T09:39:17.000Z</time>
      </trkpt>
      <trkpt lat="43.78134" lon="7.11518">
        <ele>661.79998779297</ele>
        <time>2023-08-02T09:39:18.000Z</time>
      </trkpt>
      <trkpt lat="43.78133" lon="7.11517">
        <ele>661.79998779297</ele>
        <time>2023-08-02T09:39:19.000Z</time>
      </trkpt>
      <trkpt lat="43.78131" lon="7.11517">
        <ele>661.79998779297</ele>
        <time>2023-08-02T09:39:20.000Z</time>
      </trkpt>
      <trkpt lat="43.78131" lon="7.11517">
        <ele>662</ele>
        <time>2023-08-02T09:39:21.000Z</time>
      </trkpt>
      <trkpt lat="43.78131" lon="7.11517">
        <ele>662</ele>
        <time>2023-08-02T09:39:22.000Z</time>
      </trkpt>
      <trkpt lat="43.78131" lon="7.11517">
        <ele>662.20001220703</ele>
        <time>2023-08-02T09:39:23.000Z</time>
      </trkpt>
      <trkpt lat="43.78131" lon="7.11518">
        <ele>662.59997558594</ele>
        <time>2023-08-02T09:39:24.000Z</time>
      </trkpt>
      <trkpt lat="43.78131" lon="7.11518">
        <ele>662.59997558594</ele>
        <time>2023-08-02T09:39:25.000Z</time>
      </trkpt>
      <trkpt lat="43.78131" lon="7.11518">
        <ele>662.59997558594</ele>
        <time>2023-08-02T09:39:26.000Z</time>
      </trkpt>
      <trkpt lat="43.7813" lon="7.11519">
        <ele>662.59997558594</ele>
        <time>2023-08-02T09:39:27.000Z</time>
      </trkpt>
      <trkpt lat="43.78129" lon="7.11518">
        <ele>662.59997558594</ele>
        <time>2023-08-02T09:39:28.000Z</time>
      </trkpt>
      <trkpt lat="43.78129" lon="7.11518">
        <ele>662.59997558594</ele>
        <time>2023-08-02T09:39:29.000Z</time>
      </trkpt>
      <trkpt lat="43.78129" lon="7.11518">
        <ele>662.59997558594</ele>
        <time>2023-08-02T09:39:30.000Z</time>
      </trkpt>
      <trkpt lat="43.78128" lon="7.11518">
        <ele>662.79998779297</ele>
        <time>2023-08-02T09:39:31.000Z</time>
      </trkpt>
      <trkpt lat="43.78127" lon="7.11519">
        <ele>662.79998779297</ele>
        <time>2023-08-02T09:39:32.000Z</time>
      </trkpt>
      <trkpt lat="43.78127" lon="7.11519">
        <ele>663</ele>
        <time>2023-08-02T09:39:33.000Z</time>
      </trkpt>
      <trkpt lat="43.78127" lon="7.1152">
        <ele>663</ele>
        <time>2023-08-02T09:39:34.000Z</time>
      </trkpt>
      <trkpt lat="43.78126" lon="7.1152">
        <ele>663.20001220703</ele>
        <time>2023-08-02T09:39:35.000Z</time>
      </trkpt>
      <trkpt lat="43.78126" lon="7.11521">
        <ele>663.20001220703</ele>
        <time>2023-08-02T09:39:36.000Z</time>
      </trkpt>
      <trkpt lat="43.78126" lon="7.11521">
        <ele>663.40002441406</ele>
        <time>2023-08-02T09:39:37.000Z</time>
      </trkpt>
      <trkpt lat="43.78126" lon="7.11521">
        <ele>663.59997558594</ele>
        <time>2023-08-02T09:39:38.000Z</time>
      </trkpt>
      <trkpt lat="43.78126" lon="7.11521">
        <ele>663.79998779297</ele>
        <time>2023-08-02T09:39:39.000Z</time>
      </trkpt>
      <trkpt lat="43.78126" lon="7.11521">
        <ele>663.79998779297</ele>
        <time>2023-08-02T09:39:40.000Z</time>
      </trkpt>
      <trkpt lat="43.78126" lon="7.11521">
        <ele>663.79998779297</ele>
        <time>2023-08-02T09:39:41.000Z</time>
      </trkpt>
      <trkpt lat="43.78125" lon="7.1152">
        <ele>663.79998779297</ele>
        <time>2023-08-02T09:39:42.000Z</time>
      </trkpt>
      <trkpt lat="43.78125" lon="7.1152">
        <ele>663.79998779297</ele>
        <time>2023-08-02T09:39:43.000Z</time>
      </trkpt>
      <trkpt lat="43.78124" lon="7.1152">
        <ele>663.79998779297</ele>
        <time>2023-08-02T09:39:44.000Z</time>
      </trkpt>
      <trkpt lat="43.78123" lon="7.11519">
        <ele>664</ele>
        <time>2023-08-02T09:39:45.000Z</time>
      </trkpt>
      <trkpt lat="43.78123" lon="7.11519">
        <ele>664.20001220703</ele>
        <time>2023-08-02T09:39:46.000Z</time>
      </trkpt>
      <trkpt lat="43.78123" lon="7.11519">
        <ele>664.20001220703</ele>
        <time>2023-08-02T09:39:47.000Z</time>
      </trkpt>
      <trkpt lat="43.78122" lon="7.1152">
        <ele>664.40002441406</ele>
        <time>2023-08-02T09:39:48.000Z</time>
      </trkpt>
      <trkpt lat="43.78121" lon="7.11521">
        <ele>664.40002441406</ele>
        <time>2023-08-02T09:39:49.000Z</time>
      </trkpt>
      <trkpt lat="43.78121" lon="7.11521">
        <ele>664.40002441406</ele>
        <time>2023-08-02T09:39:50.000Z</time>
      </trkpt>
      <trkpt lat="43.78121" lon="7.11521">
        <ele>664.59997558594</ele>
        <time>2023-08-02T09:39:51.000Z</time>
      </trkpt>
      <trkpt lat="43.78121" lon="7.11521">
        <ele>664.59997558594</ele>
        <time>2023-08-02T09:39:52.000Z</time>
      </trkpt>
      <trkpt lat="43.7812" lon="7.11522">
        <ele>664.79998779297</ele>
        <time>2023-08-02T09:39:53.000Z</time>
      </trkpt>
      <trkpt lat="43.7812" lon="7.11523">
        <ele>664.79998779297</ele>
        <time>2023-08-02T09:39:54.000Z</time>
      </trkpt>
      <trkpt lat="43.7812" lon="7.11523">
        <ele>664.79998779297</ele>
        <time>2023-08-02T09:39:55.000Z</time>
      </trkpt>
      <trkpt lat="43.7812" lon="7.11523">
        <ele>664.79998779297</ele>
        <time>2023-08-02T09:39:56.000Z</time>
      </trkpt>
      <trkpt lat="43.7812" lon="7.11523">
        <ele>665</ele>
        <time>2023-08-02T09:39:57.000Z</time>
      </trkpt>
      <trkpt lat="43.7812" lon="7.11523">
        <ele>665</ele>
        <time>2023-08-02T09:39:58.000Z</time>
      </trkpt>
      <trkpt lat="43.7812" lon="7.11523">
        <ele>665.20001220703</ele>
        <time>2023-08-02T09:39:59.000Z</time>
      </trkpt>
      <trkpt lat="43.7812" lon="7.11525">
        <ele>665.20001220703</ele>
        <time>2023-08-02T09:40:00.000Z</time>
      </trkpt>
      <trkpt lat="43.78121" lon="7.11525">
        <ele>665.20001220703</ele>
        <time>2023-08-02T09:40:01.000Z</time>
      </trkpt>
      <trkpt lat="43.78121" lon="7.11525">
        <ele>665.20001220703</ele>
        <time>2023-08-02T09:40:02.000Z</time>
      </trkpt>
      <trkpt lat="43.78121" lon="7.11526">
        <ele>665.40002441406</ele>
        <time>2023-08-02T09:40:03.000Z</time>
      </trkpt>
      <trkpt lat="43.78121" lon="7.11527">
        <ele>665.40002441406</ele>
        <time>2023-08-02T09:40:04.000Z</time>
      </trkpt>
      <trkpt lat="43.78121" lon="7.11528">
        <ele>665.59997558594</ele>
        <time>2023-08-02T09:40:05.000Z</time>
      </trkpt>
      <trkpt lat="43.78121" lon="7.11528">
        <ele>665.59997558594</ele>
        <time>2023-08-02T09:40:06.000Z</time>
      </trkpt>
      <trkpt lat="43.7812" lon="7.11528">
        <ele>665.59997558594</ele>
        <time>2023-08-02T09:40:07.000Z</time>
      </trkpt>
      <trkpt lat="43.7812" lon="7.11528">
        <ele>665.59997558594</ele>
        <time>2023-08-02T09:40:08.000Z</time>
      </trkpt>
      <trkpt lat="43.7812" lon="7.11528">
        <ele>665.79998779297</ele>
        <time>2023-08-02T09:40:09.000Z</time>
      </trkpt>
      <trkpt lat="43.7812" lon="7.11529">
        <ele>665.79998779297</ele>
        <time>2023-08-02T09:40:10.000Z</time>
      </trkpt>
      <trkpt lat="43.7812" lon="7.11529">
        <ele>665.79998779297</ele>
        <time>2023-08-02T09:40:11.000Z</time>
      </trkpt>
      <trkpt lat="43.7812" lon="7.11528">
        <ele>665.79998779297</ele>
        <time>2023-08-02T09:40:12.000Z</time>
      </trkpt>
      <trkpt lat="43.7812" lon="7.11528">
        <ele>666</ele>
        <time>2023-08-02T09:40:13.000Z</time>
      </trkpt>
      <trkpt lat="43.7812" lon="7.11528">
        <ele>666</ele>
        <time>2023-08-02T09:40:14.000Z</time>
      </trkpt>
      <trkpt lat="43.7812" lon="7.11528">
        <ele>666</ele>
        <time>2023-08-02T09:40:15.000Z</time>
      </trkpt>
      <trkpt lat="43.78119" lon="7.11528">
        <ele>666</ele>
        <time>2023-08-02T09:40:16.000Z</time>
      </trkpt>
      <trkpt lat="43.78119" lon="7.11528">
        <ele>666</ele>
        <time>2023-08-02T09:40:17.000Z</time>
      </trkpt>
      <trkpt lat="43.78118" lon="7.11528">
        <ele>666</ele>
        <time>2023-08-02T09:40:18.000Z</time>
      </trkpt>
      <trkpt lat="43.78118" lon="7.11529">
        <ele>666</ele>
        <time>2023-08-02T09:40:19.000Z</time>
      </trkpt>
      <trkpt lat="43.78118" lon="7.11529">
        <ele>666</ele>
        <time>2023-08-02T09:40:20.000Z</time>
      </trkpt>
      <trkpt lat="43.78118" lon="7.11529">
        <ele>666.20001220703</ele>
        <time>2023-08-02T09:40:21.000Z</time>
      </trkpt>
      <trkpt lat="43.78117" lon="7.11529">
        <ele>666.20001220703</ele>
        <time>2023-08-02T09:40:22.000Z</time>
      </trkpt>
      <trkpt lat="43.78118" lon="7.11529">
        <ele>666.40002441406</ele>
        <time>2023-08-02T09:40:23.000Z</time>
      </trkpt>
      <trkpt lat="43.78118" lon="7.11529">
        <ele>666.40002441406</ele>
        <time>2023-08-02T09:40:24.000Z</time>
      </trkpt>
      <trkpt lat="43.78117" lon="7.11529">
        <ele>666.59997558594</ele>
        <time>2023-08-02T09:40:25.000Z</time>
      </trkpt>
      <trkpt lat="43.78117" lon="7.1153">
        <ele>666.79998779297</ele>
        <time>2023-08-02T09:40:26.000Z</time>
      </trkpt>
      <trkpt lat="43.78116" lon="7.1153">
        <ele>666.79998779297</ele>
        <time>2023-08-02T09:40:27.000Z</time>
      </trkpt>
      <trkpt lat="43.78116" lon="7.11531">
        <ele>666.79998779297</ele>
        <time>2023-08-02T09:40:28.000Z</time>
      </trkpt>
      <trkpt lat="43.78115" lon="7.11531">
        <ele>666.79998779297</ele>
        <time>2023-08-02T09:40:29.000Z</time>
      </trkpt>
      <trkpt lat="43.78114" lon="7.11532">
        <ele>667</ele>
        <time>2023-08-02T09:40:30.000Z</time>
      </trkpt>
      <trkpt lat="43.78114" lon="7.11531">
        <ele>667</ele>
        <time>2023-08-02T09:40:31.000Z</time>
      </trkpt>
      <trkpt lat="43.78114" lon="7.11532">
        <ele>667.20001220703</ele>
        <time>2023-08-02T09:40:32.000Z</time>
      </trkpt>
      <trkpt lat="43.78113" lon="7.11532">
        <ele>667.40002441406</ele>
        <time>2023-08-02T09:40:33.000Z</time>
      </trkpt>
      <trkpt lat="43.78113" lon="7.11532">
        <ele>667.59997558594</ele>
        <time>2023-08-02T09:40:34.000Z</time>
      </trkpt>
      <trkpt lat="43.78112" lon="7.11532">
        <ele>668</ele>
        <time>2023-08-02T09:40:35.000Z</time>
      </trkpt>
      <trkpt lat="43.78111" lon="7.11533">
        <ele>668</ele>
        <time>2023-08-02T09:40:36.000Z</time>
      </trkpt>
      <trkpt lat="43.78111" lon="7.11533">
        <ele>668</ele>
        <time>2023-08-02T09:40:37.000Z</time>
      </trkpt>
      <trkpt lat="43.7811" lon="7.11533">
        <ele>668.20001220703</ele>
        <time>2023-08-02T09:40:38.000Z</time>
      </trkpt>
      <trkpt lat="43.7811" lon="7.11534">
        <ele>668.20001220703</ele>
        <time>2023-08-02T09:40:39.000Z</time>
      </trkpt>
      <trkpt lat="43.78109" lon="7.11534">
        <ele>668.20001220703</ele>
        <time>2023-08-02T09:40:40.000Z</time>
      </trkpt>
      <trkpt lat="43.78108" lon="7.11534">
        <ele>668.20001220703</ele>
        <time>2023-08-02T09:40:41.000Z</time>
      </trkpt>
      <trkpt lat="43.78108" lon="7.11535">
        <ele>668.40002441406</ele>
        <time>2023-08-02T09:40:42.000Z</time>
      </trkpt>
      <trkpt lat="43.78108" lon="7.11535">
        <ele>668.40002441406</ele>
        <time>2023-08-02T09:40:43.000Z</time>
      </trkpt>
      <trkpt lat="43.78107" lon="7.11535">
        <ele>668.59997558594</ele>
        <time>2023-08-02T09:40:44.000Z</time>
      </trkpt>
      <trkpt lat="43.78107" lon="7.11535">
        <ele>668.79998779297</ele>
        <time>2023-08-02T09:40:45.000Z</time>
      </trkpt>
      <trkpt lat="43.78106" lon="7.11535">
        <ele>668.79998779297</ele>
        <time>2023-08-02T09:40:46.000Z</time>
      </trkpt>
      <trkpt lat="43.78106" lon="7.11535">
        <ele>669</ele>
        <time>2023-08-02T09:40:47.000Z</time>
      </trkpt>
      <trkpt lat="43.78106" lon="7.11535">
        <ele>669</ele>
        <time>2023-08-02T09:40:48.000Z</time>
      </trkpt>
      <trkpt lat="43.78106" lon="7.11535">
        <ele>669.20001220703</ele>
        <time>2023-08-02T09:40:49.000Z</time>
      </trkpt>
      <trkpt lat="43.78106" lon="7.11536">
        <ele>669.40002441406</ele>
        <time>2023-08-02T09:40:50.000Z</time>
      </trkpt>
      <trkpt lat="43.78105" lon="7.11536">
        <ele>669.40002441406</ele>
        <time>2023-08-02T09:40:51.000Z</time>
      </trkpt>
      <trkpt lat="43.78105" lon="7.11536">
        <ele>669.40002441406</ele>
        <time>2023-08-02T09:40:52.000Z</time>
      </trkpt>
      <trkpt lat="43.78105" lon="7.11536">
        <ele>669.40002441406</ele>
        <time>2023-08-02T09:40:53.000Z</time>
      </trkpt>
      <trkpt lat="43.78105" lon="7.11536">
        <ele>669.59997558594</ele>
        <time>2023-08-02T09:40:54.000Z</time>
      </trkpt>
      <trkpt lat="43.78105" lon="7.11536">
        <ele>669.59997558594</ele>
        <time>2023-08-02T09:40:55.000Z</time>
      </trkpt>
      <trkpt lat="43.78105" lon="7.11536">
        <ele>669.59997558594</ele>
        <time>2023-08-02T09:40:56.000Z</time>
      </trkpt>
      <trkpt lat="43.78105" lon="7.11536">
        <ele>669.59997558594</ele>
        <time>2023-08-02T09:40:57.000Z</time>
      </trkpt>
      <trkpt lat="43.78104" lon="7.11535">
        <ele>669.79998779297</ele>
        <time>2023-08-02T09:40:58.000Z</time>
      </trkpt>
      <trkpt lat="43.78104" lon="7.11535">
        <ele>669.79998779297</ele>
        <time>2023-08-02T09:40:59.000Z</time>
      </trkpt>
      <trkpt lat="43.78104" lon="7.11535">
        <ele>669.79998779297</ele>
        <time>2023-08-02T09:41:00.000Z</time>
      </trkpt>
      <trkpt lat="43.78103" lon="7.11535">
        <ele>669.79998779297</ele>
        <time>2023-08-02T09:41:01.000Z</time>
      </trkpt>
      <trkpt lat="43.78102" lon="7.11535">
        <ele>669.79998779297</ele>
        <time>2023-08-02T09:41:02.000Z</time>
      </trkpt>
      <trkpt lat="43.78102" lon="7.11536">
        <ele>670</ele>
        <time>2023-08-02T09:41:03.000Z</time>
      </trkpt>
      <trkpt lat="43.78101" lon="7.11536">
        <ele>670</ele>
        <time>2023-08-02T09:41:04.000Z</time>
      </trkpt>
      <trkpt lat="43.78101" lon="7.11536">
        <ele>670</ele>
        <time>2023-08-02T09:41:05.000Z</time>
      </trkpt>
      <trkpt lat="43.78101" lon="7.11537">
        <ele>670</ele>
        <time>2023-08-02T09:41:06.000Z</time>
      </trkpt>
      <trkpt lat="43.78101" lon="7.11537">
        <ele>670</ele>
        <time>2023-08-02T09:41:07.000Z</time>
      </trkpt>
      <trkpt lat="43.78101" lon="7.11537">
        <ele>670.20001220703</ele>
        <time>2023-08-02T09:41:08.000Z</time>
      </trkpt>
      <trkpt lat="43.78101" lon="7.11537">
        <ele>670.20001220703</ele>
        <time>2023-08-02T09:41:09.000Z</time>
      </trkpt>
      <trkpt lat="43.78101" lon="7.11537">
        <ele>670.40002441406</ele>
        <time>2023-08-02T09:41:10.000Z</time>
      </trkpt>
      <trkpt lat="43.781" lon="7.11538">
        <ele>670.59997558594</ele>
        <time>2023-08-02T09:41:11.000Z</time>
      </trkpt>
      <trkpt lat="43.78101" lon="7.11538">
        <ele>670.59997558594</ele>
        <time>2023-08-02T09:41:12.000Z</time>
      </trkpt>
      <trkpt lat="43.78101" lon="7.11538">
        <ele>670.59997558594</ele>
        <time>2023-08-02T09:41:13.000Z</time>
      </trkpt>
      <trkpt lat="43.78101" lon="7.11538">
        <ele>670.59997558594</ele>
        <time>2023-08-02T09:41:14.000Z</time>
      </trkpt>
      <trkpt lat="43.78101" lon="7.11538">
        <ele>670.59997558594</ele>
        <time>2023-08-02T09:41:15.000Z</time>
      </trkpt>
      <trkpt lat="43.78101" lon="7.11538">
        <ele>670.59997558594</ele>
        <time>2023-08-02T09:41:16.000Z</time>
      </trkpt>
      <trkpt lat="43.781" lon="7.11538">
        <ele>670.59997558594</ele>
        <time>2023-08-02T09:41:17.000Z</time>
      </trkpt>
      <trkpt lat="43.78099" lon="7.11539">
        <ele>670.59997558594</ele>
        <time>2023-08-02T09:41:18.000Z</time>
      </trkpt>
      <trkpt lat="43.78099" lon="7.11539">
        <ele>670.59997558594</ele>
        <time>2023-08-02T09:41:19.000Z</time>
      </trkpt>
      <trkpt lat="43.78098" lon="7.11539">
        <ele>670.59997558594</ele>
        <time>2023-08-02T09:41:20.000Z</time>
      </trkpt>
      <trkpt lat="43.78098" lon="7.11539">
        <ele>670.79998779297</ele>
        <time>2023-08-02T09:41:21.000Z</time>
      </trkpt>
      <trkpt lat="43.78098" lon="7.11539">
        <ele>671</ele>
        <time>2023-08-02T09:41:22.000Z</time>
      </trkpt>
      <trkpt lat="43.78098" lon="7.11539">
        <ele>671</ele>
        <time>2023-08-02T09:41:23.000Z</time>
      </trkpt>
      <trkpt lat="43.78098" lon="7.11539">
        <ele>671</ele>
        <time>2023-08-02T09:41:24.000Z</time>
      </trkpt>
      <trkpt lat="43.78097" lon="7.1154">
        <ele>671</ele>
        <time>2023-08-02T09:41:25.000Z</time>
      </trkpt>
      <trkpt lat="43.78096" lon="7.11541">
        <ele>671.20001220703</ele>
        <time>2023-08-02T09:41:26.000Z</time>
      </trkpt>
      <trkpt lat="43.78094" lon="7.11542">
        <ele>671.20001220703</ele>
        <time>2023-08-02T09:41:27.000Z</time>
      </trkpt>
      <trkpt lat="43.78093" lon="7.11544">
        <ele>671.20001220703</ele>
        <time>2023-08-02T09:41:28.000Z</time>
      </trkpt>
      <trkpt lat="43.78092" lon="7.11546">
        <ele>671.20001220703</ele>
        <time>2023-08-02T09:41:29.000Z</time>
      </trkpt>
      <trkpt lat="43.78091" lon="7.11548">
        <ele>671.40002441406</ele>
        <time>2023-08-02T09:41:30.000Z</time>
      </trkpt>
      <trkpt lat="43.78089" lon="7.11548">
        <ele>671.40002441406</ele>
        <time>2023-08-02T09:41:31.000Z</time>
      </trkpt>
      <trkpt lat="43.78088" lon="7.11548">
        <ele>671.79998779297</ele>
        <time>2023-08-02T09:41:32.000Z</time>
      </trkpt>
      <trkpt lat="43.78086" lon="7.11547">
        <ele>672.40002441406</ele>
        <time>2023-08-02T09:41:33.000Z</time>
      </trkpt>
      <trkpt lat="43.78084" lon="7.11547">
        <ele>672.79998779297</ele>
        <time>2023-08-02T09:41:34.000Z</time>
      </trkpt>
      <trkpt lat="43.78083" lon="7.11547">
        <ele>673.20001220703</ele>
        <time>2023-08-02T09:41:35.000Z</time>
      </trkpt>
      <trkpt lat="43.7808" lon="7.11547">
        <ele>673.59997558594</ele>
        <time>2023-08-02T09:41:36.000Z</time>
      </trkpt>
      <trkpt lat="43.78078" lon="7.11547">
        <ele>673.79998779297</ele>
        <time>2023-08-02T09:41:37.000Z</time>
      </trkpt>
      <trkpt lat="43.78077" lon="7.11547">
        <ele>674.20001220703</ele>
        <time>2023-08-02T09:41:38.000Z</time>
      </trkpt>
      <trkpt lat="43.78078" lon="7.11548">
        <ele>674.40002441406</ele>
        <time>2023-08-02T09:41:39.000Z</time>
      </trkpt>
      <trkpt lat="43.78077" lon="7.11548">
        <ele>674.40002441406</ele>
        <time>2023-08-02T09:41:40.000Z</time>
      </trkpt>
      <trkpt lat="43.78075" lon="7.11548">
        <ele>674.79998779297</ele>
        <time>2023-08-02T09:41:41.000Z</time>
      </trkpt>
      <trkpt lat="43.78073" lon="7.11548">
        <ele>674.79998779297</ele>
        <time>2023-08-02T09:41:42.000Z</time>
      </trkpt>
      <trkpt lat="43.78071" lon="7.11548">
        <ele>675</ele>
        <time>2023-08-02T09:41:43.000Z</time>
      </trkpt>
      <trkpt lat="43.7807" lon="7.11548">
        <ele>675</ele>
        <time>2023-08-02T09:41:44.000Z</time>
      </trkpt>
      <trkpt lat="43.78067" lon="7.11548">
        <ele>675.59997558594</ele>
        <time>2023-08-02T09:41:45.000Z</time>
      </trkpt>
      <trkpt lat="43.78065" lon="7.11547">
        <ele>675.79998779297</ele>
        <time>2023-08-02T09:41:46.000Z</time>
      </trkpt>
      <trkpt lat="43.78063" lon="7.11548">
        <ele>676</ele>
        <time>2023-08-02T09:41:47.000Z</time>
      </trkpt>
      <trkpt lat="43.78061" lon="7.11548">
        <ele>676.40002441406</ele>
        <time>2023-08-02T09:41:48.000Z</time>
      </trkpt>
      <trkpt lat="43.78059" lon="7.11548">
        <ele>676.79998779297</ele>
        <time>2023-08-02T09:41:49.000Z</time>
      </trkpt>
      <trkpt lat="43.78057" lon="7.11548">
        <ele>677.20001220703</ele>
        <time>2023-08-02T09:41:50.000Z</time>
      </trkpt>
      <trkpt lat="43.78055" lon="7.11548">
        <ele>677.40002441406</ele>
        <time>2023-08-02T09:41:51.000Z</time>
      </trkpt>
      <trkpt lat="43.78053" lon="7.1155">
        <ele>677.79998779297</ele>
        <time>2023-08-02T09:41:52.000Z</time>
      </trkpt>
      <trkpt lat="43.78051" lon="7.11551">
        <ele>678</ele>
        <time>2023-08-02T09:41:53.000Z</time>
      </trkpt>
      <trkpt lat="43.78049" lon="7.1155">
        <ele>678.40002441406</ele>
        <time>2023-08-02T09:41:54.000Z</time>
      </trkpt>
      <trkpt lat="43.78048" lon="7.11549">
        <ele>678.59997558594</ele>
        <time>2023-08-02T09:41:55.000Z</time>
      </trkpt>
      <trkpt lat="43.78046" lon="7.11549">
        <ele>678.59997558594</ele>
        <time>2023-08-02T09:41:56.000Z</time>
      </trkpt>
      <trkpt lat="43.78044" lon="7.11549">
        <ele>678.79998779297</ele>
        <time>2023-08-02T09:41:57.000Z</time>
      </trkpt>
      <trkpt lat="43.78043" lon="7.11551">
        <ele>679.40002441406</ele>
        <time>2023-08-02T09:41:58.000Z</time>
      </trkpt>
      <trkpt lat="43.78041" lon="7.11553">
        <ele>679.79998779297</ele>
        <time>2023-08-02T09:41:59.000Z</time>
      </trkpt>
      <trkpt lat="43.78038" lon="7.11553">
        <ele>680</ele>
        <time>2023-08-02T09:42:00.000Z</time>
      </trkpt>
      <trkpt lat="43.78036" lon="7.11554">
        <ele>680.40002441406</ele>
        <time>2023-08-02T09:42:01.000Z</time>
      </trkpt>
      <trkpt lat="43.78034" lon="7.11556">
        <ele>680.59997558594</ele>
        <time>2023-08-02T09:42:02.000Z</time>
      </trkpt>
      <trkpt lat="43.78032" lon="7.11556">
        <ele>681.40002441406</ele>
        <time>2023-08-02T09:42:03.000Z</time>
      </trkpt>
      <trkpt lat="43.7803" lon="7.11556">
        <ele>681.59997558594</ele>
        <time>2023-08-02T09:42:04.000Z</time>
      </trkpt>
      <trkpt lat="43.78028" lon="7.11558">
        <ele>682.20001220703</ele>
        <time>2023-08-02T09:42:05.000Z</time>
      </trkpt>
      <trkpt lat="43.78026" lon="7.11559">
        <ele>682.79998779297</ele>
        <time>2023-08-02T09:42:06.000Z</time>
      </trkpt>
      <trkpt lat="43.78025" lon="7.11561">
        <ele>683.40002441406</ele>
        <time>2023-08-02T09:42:07.000Z</time>
      </trkpt>
      <trkpt lat="43.78024" lon="7.11562">
        <ele>684</ele>
        <time>2023-08-02T09:42:08.000Z</time>
      </trkpt>
      <trkpt lat="43.78023" lon="7.11563">
        <ele>684.20001220703</ele>
        <time>2023-08-02T09:42:09.000Z</time>
      </trkpt>
      <trkpt lat="43.78023" lon="7.11563">
        <ele>684.79998779297</ele>
        <time>2023-08-02T09:42:10.000Z</time>
      </trkpt>
      <trkpt lat="43.78023" lon="7.11563">
        <ele>685.20001220703</ele>
        <time>2023-08-02T09:42:11.000Z</time>
      </trkpt>
      <trkpt lat="43.78023" lon="7.11563">
        <ele>685.40002441406</ele>
        <time>2023-08-02T09:42:12.000Z</time>
      </trkpt>
      <trkpt lat="43.78023" lon="7.11563">
        <ele>685.79998779297</ele>
        <time>2023-08-02T09:42:13.000Z</time>
      </trkpt>
      <trkpt lat="43.78023" lon="7.11563">
        <ele>685.79998779297</ele>
        <time>2023-08-02T09:42:14.000Z</time>
      </trkpt>
      <trkpt lat="43.78023" lon="7.11563">
        <ele>686</ele>
        <time>2023-08-02T09:42:15.000Z</time>
      </trkpt>
      <trkpt lat="43.78023" lon="7.11563">
        <ele>686</ele>
        <time>2023-08-02T09:42:16.000Z</time>
      </trkpt>
      <trkpt lat="43.78023" lon="7.11563">
        <ele>686</ele>
        <time>2023-08-02T09:42:17.000Z</time>
      </trkpt>
      <trkpt lat="43.78023" lon="7.11563">
        <ele>686</ele>
        <time>2023-08-02T09:42:18.000Z</time>
      </trkpt>
      <trkpt lat="43.78023" lon="7.11563">
        <ele>686</ele>
        <time>2023-08-02T09:42:19.000Z</time>
      </trkpt>
      <trkpt lat="43.78023" lon="7.11563">
        <ele>686</ele>
        <time>2023-08-02T09:42:20.000Z</time>
      </trkpt>
      <trkpt lat="43.78023" lon="7.11563">
        <ele>686</ele>
        <time>2023-08-02T09:42:21.000Z</time>
      </trkpt>
      <trkpt lat="43.78023" lon="7.11563">
        <ele>686</ele>
        <time>2023-08-02T09:42:22.000Z</time>
      </trkpt>
      <trkpt lat="43.78023" lon="7.11563">
        <ele>686</ele>
        <time>2023-08-02T09:42:23.000Z</time>
      </trkpt>
      <trkpt lat="43.78023" lon="7.11563">
        <ele>685.79998779297</ele>
        <time>2023-08-02T09:42:24.000Z</time>
      </trkpt>
      <trkpt lat="43.78023" lon="7.11563">
        <ele>685.79998779297</ele>
        <time>2023-08-02T09:42:25.000Z</time>
      </trkpt>
      <trkpt lat="43.78023" lon="7.11563">
        <ele>685.79998779297</ele>
        <time>2023-08-02T09:42:26.000Z</time>
      </trkpt>
      <trkpt lat="43.78023" lon="7.11563">
        <ele>685.79998779297</ele>
        <time>2023-08-02T09:42:27.000Z</time>
      </trkpt>
      <trkpt lat="43.78023" lon="7.11563">
        <ele>685.79998779297</ele>
        <time>2023-08-02T09:42:28.000Z</time>
      </trkpt>
      <trkpt lat="43.78023" lon="7.11563">
        <ele>685.79998779297</ele>
        <time>2023-08-02T09:42:29.000Z</time>
      </trkpt>
      <trkpt lat="43.78023" lon="7.11563">
        <ele>685.79998779297</ele>
        <time>2023-08-02T09:42:30.000Z</time>
      </trkpt>
      <trkpt lat="43.78023" lon="7.11563">
        <ele>685.79998779297</ele>
        <time>2023-08-02T09:42:31.000Z</time>
      </trkpt>
      <trkpt lat="43.78023" lon="7.11563">
        <ele>686</ele>
        <time>2023-08-02T09:42:32.000Z</time>
      </trkpt>
      <trkpt lat="43.78023" lon="7.11563">
        <ele>686</ele>
        <time>2023-08-02T09:42:33.000Z</time>
      </trkpt>
      <trkpt lat="43.78023" lon="7.11563">
        <ele>686</ele>
        <time>2023-08-02T09:42:34.000Z</time>
      </trkpt>
      <trkpt lat="43.78023" lon="7.11563">
        <ele>686</ele>
        <time>2023-08-02T09:42:35.000Z</time>
      </trkpt>
      <trkpt lat="43.78023" lon="7.11563">
        <ele>686</ele>
        <time>2023-08-02T09:42:36.000Z</time>
      </trkpt>
      <trkpt lat="43.78022" lon="7.11564">
        <ele>686</ele>
        <time>2023-08-02T09:42:37.000Z</time>
      </trkpt>
      <trkpt lat="43.78022" lon="7.11564">
        <ele>686</ele>
        <time>2023-08-02T09:42:38.000Z</time>
      </trkpt>
      <trkpt lat="43.78022" lon="7.11565">
        <ele>686</ele>
        <time>2023-08-02T09:42:39.000Z</time>
      </trkpt>
      <trkpt lat="43.78022" lon="7.11565">
        <ele>686.20001220703</ele>
        <time>2023-08-02T09:42:40.000Z</time>
      </trkpt>
      <trkpt lat="43.78022" lon="7.11565">
        <ele>686.20001220703</ele>
        <time>2023-08-02T09:42:41.000Z</time>
      </trkpt>
      <trkpt lat="43.78022" lon="7.11565">
        <ele>686.40002441406</ele>
        <time>2023-08-02T09:42:42.000Z</time>
      </trkpt>
      <trkpt lat="43.78022" lon="7.11565">
        <ele>686.40002441406</ele>
        <time>2023-08-02T09:42:43.000Z</time>
      </trkpt>
      <trkpt lat="43.78022" lon="7.11565">
        <ele>686.40002441406</ele>
        <time>2023-08-02T09:42:44.000Z</time>
      </trkpt>
      <trkpt lat="43.78022" lon="7.11565">
        <ele>686.40002441406</ele>
        <time>2023-08-02T09:42:45.000Z</time>
      </trkpt>
      <trkpt lat="43.78022" lon="7.11565">
        <ele>686.59997558594</ele>
        <time>2023-08-02T09:42:46.000Z</time>
      </trkpt>
      <trkpt lat="43.78022" lon="7.11565">
        <ele>686.59997558594</ele>
        <time>2023-08-02T09:42:47.000Z</time>
      </trkpt>
      <trkpt lat="43.78022" lon="7.11565">
        <ele>686.59997558594</ele>
        <time>2023-08-02T09:42:48.000Z</time>
      </trkpt>
      <trkpt lat="43.78022" lon="7.11565">
        <ele>686.59997558594</ele>
        <time>2023-08-02T09:42:49.000Z</time>
      </trkpt>
      <trkpt lat="43.78022" lon="7.11565">
        <ele>686.59997558594</ele>
        <time>2023-08-02T09:42:50.000Z</time>
      </trkpt>
      <trkpt lat="43.78022" lon="7.11565">
        <ele>686.59997558594</ele>
        <time>2023-08-02T09:42:51.000Z</time>
      </trkpt>
      <trkpt lat="43.78021" lon="7.11565">
        <ele>686.59997558594</ele>
        <time>2023-08-02T09:42:52.000Z</time>
      </trkpt>
      <trkpt lat="43.78021" lon="7.11565">
        <ele>686.59997558594</ele>
        <time>2023-08-02T09:42:53.000Z</time>
      </trkpt>
      <trkpt lat="43.78021" lon="7.11565">
        <ele>686.59997558594</ele>
        <time>2023-08-02T09:42:54.000Z</time>
      </trkpt>
      <trkpt lat="43.78021" lon="7.11565">
        <ele>686.79998779297</ele>
        <time>2023-08-02T09:42:55.000Z</time>
      </trkpt>
      <trkpt lat="43.78021" lon="7.11565">
        <ele>687</ele>
        <time>2023-08-02T09:42:56.000Z</time>
      </trkpt>
      <trkpt lat="43.78021" lon="7.11565">
        <ele>687</ele>
        <time>2023-08-02T09:42:57.000Z</time>
      </trkpt>
      <trkpt lat="43.78021" lon="7.11565">
        <ele>687</ele>
        <time>2023-08-02T09:42:58.000Z</time>
      </trkpt>
      <trkpt lat="43.78021" lon="7.11565">
        <ele>687</ele>
        <time>2023-08-02T09:42:59.000Z</time>
      </trkpt>
      <trkpt lat="43.78021" lon="7.11565">
        <ele>687</ele>
        <time>2023-08-02T09:43:00.000Z</time>
      </trkpt>
      <trkpt lat="43.78021" lon="7.11565">
        <ele>687</ele>
        <time>2023-08-02T09:43:01.000Z</time>
      </trkpt>
      <trkpt lat="43.78021" lon="7.11565">
        <ele>687</ele>
        <time>2023-08-02T09:43:02.000Z</time>
      </trkpt>
      <trkpt lat="43.78021" lon="7.11565">
        <ele>687</ele>
        <time>2023-08-02T09:43:03.000Z</time>
      </trkpt>
      <trkpt lat="43.78021" lon="7.11565">
        <ele>687</ele>
        <time>2023-08-02T09:43:04.000Z</time>
      </trkpt>
      <trkpt lat="43.78021" lon="7.11565">
        <ele>687</ele>
        <time>2023-08-02T09:43:05.000Z</time>
      </trkpt>
      <trkpt lat="43.7802" lon="7.11565">
        <ele>687</ele>
        <time>2023-08-02T09:43:06.000Z</time>
      </trkpt>
      <trkpt lat="43.7802" lon="7.11565">
        <ele>687.20001220703</ele>
        <time>2023-08-02T09:43:07.000Z</time>
      </trkpt>
      <trkpt lat="43.7802" lon="7.11566">
        <ele>687.20001220703</ele>
        <time>2023-08-02T09:43:08.000Z</time>
      </trkpt>
      <trkpt lat="43.7802" lon="7.11567">
        <ele>687.20001220703</ele>
        <time>2023-08-02T09:43:09.000Z</time>
      </trkpt>
      <trkpt lat="43.78019" lon="7.11567">
        <ele>687.40002441406</ele>
        <time>2023-08-02T09:43:10.000Z</time>
      </trkpt>
      <trkpt lat="43.78019" lon="7.11567">
        <ele>687.40002441406</ele>
        <time>2023-08-02T09:43:11.000Z</time>
      </trkpt>
      <trkpt lat="43.78019" lon="7.11567">
        <ele>687.40002441406</ele>
        <time>2023-08-02T09:43:12.000Z</time>
      </trkpt>
      <trkpt lat="43.78019" lon="7.11567">
        <ele>687.40002441406</ele>
        <time>2023-08-02T09:43:13.000Z</time>
      </trkpt>
      <trkpt lat="43.78019" lon="7.11567">
        <ele>687.59997558594</ele>
        <time>2023-08-02T09:43:14.000Z</time>
      </trkpt>
      <trkpt lat="43.78019" lon="7.11567">
        <ele>687.79998779297</ele>
        <time>2023-08-02T09:43:15.000Z</time>
      </trkpt>
      <trkpt lat="43.78019" lon="7.11567">
        <ele>687.79998779297</ele>
        <time>2023-08-02T09:43:16.000Z</time>
      </trkpt>
      <trkpt lat="43.78019" lon="7.11567">
        <ele>687.79998779297</ele>
        <time>2023-08-02T09:43:17.000Z</time>
      </trkpt>
      <trkpt lat="43.78019" lon="7.11567">
        <ele>687.79998779297</ele>
        <time>2023-08-02T09:43:18.000Z</time>
      </trkpt>
      <trkpt lat="43.78018" lon="7.11568">
        <ele>688</ele>
        <time>2023-08-02T09:43:19.000Z</time>
      </trkpt>
      <trkpt lat="43.78018" lon="7.11568">
        <ele>688</ele>
        <time>2023-08-02T09:43:20.000Z</time>
      </trkpt>
      <trkpt lat="43.78018" lon="7.11568">
        <ele>688</ele>
        <time>2023-08-02T09:43:21.000Z</time>
      </trkpt>
      <trkpt lat="43.78017" lon="7.11569">
        <ele>688</ele>
        <time>2023-08-02T09:43:22.000Z</time>
      </trkpt>
      <trkpt lat="43.78017" lon="7.11569">
        <ele>688</ele>
        <time>2023-08-02T09:43:23.000Z</time>
      </trkpt>
      <trkpt lat="43.78017" lon="7.1157">
        <ele>688.20001220703</ele>
        <time>2023-08-02T09:43:24.000Z</time>
      </trkpt>
      <trkpt lat="43.78017" lon="7.11571">
        <ele>688.40002441406</ele>
        <time>2023-08-02T09:43:25.000Z</time>
      </trkpt>
      <trkpt lat="43.78016" lon="7.11571">
        <ele>688.59997558594</ele>
        <time>2023-08-02T09:43:26.000Z</time>
      </trkpt>
      <trkpt lat="43.78016" lon="7.11571">
        <ele>688.59997558594</ele>
        <time>2023-08-02T09:43:27.000Z</time>
      </trkpt>
      <trkpt lat="43.78015" lon="7.11572">
        <ele>688.79998779297</ele>
        <time>2023-08-02T09:43:28.000Z</time>
      </trkpt>
      <trkpt lat="43.78014" lon="7.11572">
        <ele>689.20001220703</ele>
        <time>2023-08-02T09:43:29.000Z</time>
      </trkpt>
      <trkpt lat="43.78014" lon="7.11573">
        <ele>689.40002441406</ele>
        <time>2023-08-02T09:43:30.000Z</time>
      </trkpt>
      <trkpt lat="43.78013" lon="7.11574">
        <ele>689.59997558594</ele>
        <time>2023-08-02T09:43:31.000Z</time>
      </trkpt>
      <trkpt lat="43.78013" lon="7.11574">
        <ele>689.79998779297</ele>
        <time>2023-08-02T09:43:32.000Z</time>
      </trkpt>
      <trkpt lat="43.78012" lon="7.11575">
        <ele>690.20001220703</ele>
        <time>2023-08-02T09:43:33.000Z</time>
      </trkpt>
      <trkpt lat="43.78012" lon="7.11575">
        <ele>690.20001220703</ele>
        <time>2023-08-02T09:43:34.000Z</time>
      </trkpt>
      <trkpt lat="43.78011" lon="7.11576">
        <ele>690.59997558594</ele>
        <time>2023-08-02T09:43:35.000Z</time>
      </trkpt>
      <trkpt lat="43.78011" lon="7.11577">
        <ele>690.59997558594</ele>
        <time>2023-08-02T09:43:36.000Z</time>
      </trkpt>
      <trkpt lat="43.7801" lon="7.11577">
        <ele>690.79998779297</ele>
        <time>2023-08-02T09:43:37.000Z</time>
      </trkpt>
      <trkpt lat="43.78009" lon="7.11576">
        <ele>691</ele>
        <time>2023-08-02T09:43:38.000Z</time>
      </trkpt>
      <trkpt lat="43.78009" lon="7.11576">
        <ele>691.20001220703</ele>
        <time>2023-08-02T09:43:39.000Z</time>
      </trkpt>
      <trkpt lat="43.78008" lon="7.11576">
        <ele>691.20001220703</ele>
        <time>2023-08-02T09:43:40.000Z</time>
      </trkpt>
      <trkpt lat="43.78007" lon="7.11576">
        <ele>691.59997558594</ele>
        <time>2023-08-02T09:43:41.000Z</time>
      </trkpt>
      <trkpt lat="43.78006" lon="7.11577">
        <ele>691.79998779297</ele>
        <time>2023-08-02T09:43:42.000Z</time>
      </trkpt>
      <trkpt lat="43.78005" lon="7.11577">
        <ele>691.79998779297</ele>
        <time>2023-08-02T09:43:43.000Z</time>
      </trkpt>
      <trkpt lat="43.78004" lon="7.11578">
        <ele>692</ele>
        <time>2023-08-02T09:43:44.000Z</time>
      </trkpt>
      <trkpt lat="43.78004" lon="7.11579">
        <ele>692.20001220703</ele>
        <time>2023-08-02T09:43:45.000Z</time>
      </trkpt>
      <trkpt lat="43.78003" lon="7.11581">
        <ele>692.20001220703</ele>
        <time>2023-08-02T09:43:46.000Z</time>
      </trkpt>
      <trkpt lat="43.78003" lon="7.11582">
        <ele>692.40002441406</ele>
        <time>2023-08-02T09:43:47.000Z</time>
      </trkpt>
      <trkpt lat="43.78004" lon="7.11583">
        <ele>692.59997558594</ele>
        <time>2023-08-02T09:43:48.000Z</time>
      </trkpt>
      <trkpt lat="43.78004" lon="7.11584">
        <ele>692.79998779297</ele>
        <time>2023-08-02T09:43:49.000Z</time>
      </trkpt>
      <trkpt lat="43.78004" lon="7.11585">
        <ele>693</ele>
        <time>2023-08-02T09:43:50.000Z</time>
      </trkpt>
      <trkpt lat="43.78004" lon="7.11585">
        <ele>693</ele>
        <time>2023-08-02T09:43:51.000Z</time>
      </trkpt>
      <trkpt lat="43.78004" lon="7.11586">
        <ele>693.20001220703</ele>
        <time>2023-08-02T09:43:52.000Z</time>
      </trkpt>
      <trkpt lat="43.78003" lon="7.11586">
        <ele>693.40002441406</ele>
        <time>2023-08-02T09:43:53.000Z</time>
      </trkpt>
      <trkpt lat="43.78003" lon="7.11587">
        <ele>693.59997558594</ele>
        <time>2023-08-02T09:43:54.000Z</time>
      </trkpt>
      <trkpt lat="43.78003" lon="7.11588">
        <ele>693.79998779297</ele>
        <time>2023-08-02T09:43:55.000Z</time>
      </trkpt>
      <trkpt lat="43.78002" lon="7.11589">
        <ele>694</ele>
        <time>2023-08-02T09:43:56.000Z</time>
      </trkpt>
      <trkpt lat="43.78002" lon="7.11589">
        <ele>694.20001220703</ele>
        <time>2023-08-02T09:43:57.000Z</time>
      </trkpt>
      <trkpt lat="43.78001" lon="7.1159">
        <ele>694.40002441406</ele>
        <time>2023-08-02T09:43:58.000Z</time>
      </trkpt>
      <trkpt lat="43.78001" lon="7.1159">
        <ele>694.59997558594</ele>
        <time>2023-08-02T09:43:59.000Z</time>
      </trkpt>
      <trkpt lat="43.78001" lon="7.11591">
        <ele>695</ele>
        <time>2023-08-02T09:44:00.000Z</time>
      </trkpt>
      <trkpt lat="43.78" lon="7.11591">
        <ele>695</ele>
        <time>2023-08-02T09:44:01.000Z</time>
      </trkpt>
      <trkpt lat="43.78" lon="7.11592">
        <ele>695</ele>
        <time>2023-08-02T09:44:02.000Z</time>
      </trkpt>
      <trkpt lat="43.77999" lon="7.11593">
        <ele>695.40002441406</ele>
        <time>2023-08-02T09:44:03.000Z</time>
      </trkpt>
      <trkpt lat="43.77999" lon="7.11593">
        <ele>695.40002441406</ele>
        <time>2023-08-02T09:44:04.000Z</time>
      </trkpt>
      <trkpt lat="43.77998" lon="7.11594">
        <ele>695.59997558594</ele>
        <time>2023-08-02T09:44:05.000Z</time>
      </trkpt>
      <trkpt lat="43.77998" lon="7.11595">
        <ele>695.79998779297</ele>
        <time>2023-08-02T09:44:06.000Z</time>
      </trkpt>
      <trkpt lat="43.77998" lon="7.11596">
        <ele>696</ele>
        <time>2023-08-02T09:44:07.000Z</time>
      </trkpt>
      <trkpt lat="43.77997" lon="7.11597">
        <ele>696.20001220703</ele>
        <time>2023-08-02T09:44:08.000Z</time>
      </trkpt>
      <trkpt lat="43.77997" lon="7.11598">
        <ele>696.40002441406</ele>
        <time>2023-08-02T09:44:09.000Z</time>
      </trkpt>
      <trkpt lat="43.77996" lon="7.11598">
        <ele>696.40002441406</ele>
        <time>2023-08-02T09:44:10.000Z</time>
      </trkpt>
      <trkpt lat="43.77996" lon="7.11599">
        <ele>696.59997558594</ele>
        <time>2023-08-02T09:44:11.000Z</time>
      </trkpt>
      <trkpt lat="43.77995" lon="7.11599">
        <ele>696.79998779297</ele>
        <time>2023-08-02T09:44:12.000Z</time>
      </trkpt>
      <trkpt lat="43.77994" lon="7.116">
        <ele>697</ele>
        <time>2023-08-02T09:44:13.000Z</time>
      </trkpt>
      <trkpt lat="43.77993" lon="7.11601">
        <ele>697</ele>
        <time>2023-08-02T09:44:14.000Z</time>
      </trkpt>
      <trkpt lat="43.77993" lon="7.11601">
        <ele>697.20001220703</ele>
        <time>2023-08-02T09:44:15.000Z</time>
      </trkpt>
      <trkpt lat="43.77993" lon="7.11601">
        <ele>697.40002441406</ele>
        <time>2023-08-02T09:44:16.000Z</time>
      </trkpt>
      <trkpt lat="43.77993" lon="7.11601">
        <ele>697.40002441406</ele>
        <time>2023-08-02T09:44:17.000Z</time>
      </trkpt>
      <trkpt lat="43.77993" lon="7.11601">
        <ele>697.40002441406</ele>
        <time>2023-08-02T09:44:18.000Z</time>
      </trkpt>
      <trkpt lat="43.77993" lon="7.11601">
        <ele>697.59997558594</ele>
        <time>2023-08-02T09:44:19.000Z</time>
      </trkpt>
      <trkpt lat="43.77993" lon="7.11602">
        <ele>697.59997558594</ele>
        <time>2023-08-02T09:44:20.000Z</time>
      </trkpt>
      <trkpt lat="43.77992" lon="7.11602">
        <ele>697.59997558594</ele>
        <time>2023-08-02T09:44:21.000Z</time>
      </trkpt>
      <trkpt lat="43.77992" lon="7.11602">
        <ele>697.59997558594</ele>
        <time>2023-08-02T09:44:22.000Z</time>
      </trkpt>
      <trkpt lat="43.77992" lon="7.11602">
        <ele>697.59997558594</ele>
        <time>2023-08-02T09:44:23.000Z</time>
      </trkpt>
      <trkpt lat="43.77992" lon="7.11602">
        <ele>697.59997558594</ele>
        <time>2023-08-02T09:44:24.000Z</time>
      </trkpt>
      <trkpt lat="43.77992" lon="7.11602">
        <ele>697.59997558594</ele>
        <time>2023-08-02T09:44:25.000Z</time>
      </trkpt>
      <trkpt lat="43.77992" lon="7.11602">
        <ele>697.59997558594</ele>
        <time>2023-08-02T09:44:26.000Z</time>
      </trkpt>
      <trkpt lat="43.77992" lon="7.11602">
        <ele>697.59997558594</ele>
        <time>2023-08-02T09:44:27.000Z</time>
      </trkpt>
      <trkpt lat="43.77992" lon="7.11602">
        <ele>697.59997558594</ele>
        <time>2023-08-02T09:44:28.000Z</time>
      </trkpt>
      <trkpt lat="43.77992" lon="7.11602">
        <ele>697.59997558594</ele>
        <time>2023-08-02T09:44:29.000Z</time>
      </trkpt>
      <trkpt lat="43.77992" lon="7.11602">
        <ele>697.59997558594</ele>
        <time>2023-08-02T09:44:30.000Z</time>
      </trkpt>
      <trkpt lat="43.77992" lon="7.11602">
        <ele>697.59997558594</ele>
        <time>2023-08-02T09:44:31.000Z</time>
      </trkpt>
      <trkpt lat="43.77992" lon="7.11602">
        <ele>697.59997558594</ele>
        <time>2023-08-02T09:44:32.000Z</time>
      </trkpt>
      <trkpt lat="43.77992" lon="7.11602">
        <ele>697.59997558594</ele>
        <time>2023-08-02T09:44:33.000Z</time>
      </trkpt>
      <trkpt lat="43.77992" lon="7.11602">
        <ele>697.59997558594</ele>
        <time>2023-08-02T09:44:34.000Z</time>
      </trkpt>
      <trkpt lat="43.77992" lon="7.11602">
        <ele>697.59997558594</ele>
        <time>2023-08-02T09:44:35.000Z</time>
      </trkpt>
      <trkpt lat="43.77992" lon="7.11602">
        <ele>697.59997558594</ele>
        <time>2023-08-02T09:44:36.000Z</time>
      </trkpt>
      <trkpt lat="43.77992" lon="7.11602">
        <ele>697.59997558594</ele>
        <time>2023-08-02T09:44:37.000Z</time>
      </trkpt>
      <trkpt lat="43.77992" lon="7.11602">
        <ele>697.59997558594</ele>
        <time>2023-08-02T09:44:38.000Z</time>
      </trkpt>
      <trkpt lat="43.77992" lon="7.11602">
        <ele>697.59997558594</ele>
        <time>2023-08-02T09:44:39.000Z</time>
      </trkpt>
      <trkpt lat="43.77992" lon="7.11602">
        <ele>697.79998779297</ele>
        <time>2023-08-02T09:44:40.000Z</time>
      </trkpt>
      <trkpt lat="43.77992" lon="7.11602">
        <ele>697.79998779297</ele>
        <time>2023-08-02T09:44:41.000Z</time>
      </trkpt>
      <trkpt lat="43.77992" lon="7.11602">
        <ele>697.79998779297</ele>
        <time>2023-08-02T09:44:42.000Z</time>
      </trkpt>
      <trkpt lat="43.77992" lon="7.11602">
        <ele>697.79998779297</ele>
        <time>2023-08-02T09:44:43.000Z</time>
      </trkpt>
      <trkpt lat="43.77992" lon="7.11602">
        <ele>697.79998779297</ele>
        <time>2023-08-02T09:44:44.000Z</time>
      </trkpt>
      <trkpt lat="43.77992" lon="7.11602">
        <ele>697.59997558594</ele>
        <time>2023-08-02T09:44:45.000Z</time>
      </trkpt>
      <trkpt lat="43.77992" lon="7.11602">
        <ele>697.59997558594</ele>
        <time>2023-08-02T09:44:46.000Z</time>
      </trkpt>
      <trkpt lat="43.77992" lon="7.11602">
        <ele>697.59997558594</ele>
        <time>2023-08-02T09:44:47.000Z</time>
      </trkpt>
      <trkpt lat="43.77992" lon="7.11602">
        <ele>697.59997558594</ele>
        <time>2023-08-02T09:44:48.000Z</time>
      </trkpt>
      <trkpt lat="43.77992" lon="7.11602">
        <ele>697.59997558594</ele>
        <time>2023-08-02T09:44:49.000Z</time>
      </trkpt>
      <trkpt lat="43.77992" lon="7.11602">
        <ele>697.59997558594</ele>
        <time>2023-08-02T09:44:50.000Z</time>
      </trkpt>
      <trkpt lat="43.77992" lon="7.11602">
        <ele>697.59997558594</ele>
        <time>2023-08-02T09:44:51.000Z</time>
      </trkpt>
      <trkpt lat="43.77992" lon="7.11602">
        <ele>697.59997558594</ele>
        <time>2023-08-02T09:44:52.000Z</time>
      </trkpt>
      <trkpt lat="43.77992" lon="7.11602">
        <ele>697.79998779297</ele>
        <time>2023-08-02T09:44:53.000Z</time>
      </trkpt>
      <trkpt lat="43.77992" lon="7.11602">
        <ele>697.79998779297</ele>
        <time>2023-08-02T09:44:54.000Z</time>
      </trkpt>
      <trkpt lat="43.77992" lon="7.11602">
        <ele>697.79998779297</ele>
        <time>2023-08-02T09:44:55.000Z</time>
      </trkpt>
      <trkpt lat="43.77992" lon="7.11602">
        <ele>697.79998779297</ele>
        <time>2023-08-02T09:44:56.000Z</time>
      </trkpt>
      <trkpt lat="43.77992" lon="7.11602">
        <ele>697.79998779297</ele>
        <time>2023-08-02T09:44:57.000Z</time>
      </trkpt>
      <trkpt lat="43.77992" lon="7.11602">
        <ele>697.79998779297</ele>
        <time>2023-08-02T09:44:58.000Z</time>
      </trkpt>
      <trkpt lat="43.77992" lon="7.11602">
        <ele>697.79998779297</ele>
        <time>2023-08-02T09:44:59.000Z</time>
      </trkpt>
      <trkpt lat="43.77992" lon="7.11602">
        <ele>697.79998779297</ele>
        <time>2023-08-02T09:45:00.000Z</time>
      </trkpt>
      <trkpt lat="43.77992" lon="7.11602">
        <ele>697.79998779297</ele>
        <time>2023-08-02T09:45:01.000Z</time>
      </trkpt>
      <trkpt lat="43.77992" lon="7.11602">
        <ele>697.79998779297</ele>
        <time>2023-08-02T09:45:02.000Z</time>
      </trkpt>
      <trkpt lat="43.77992" lon="7.11602">
        <ele>697.79998779297</ele>
        <time>2023-08-02T09:45:03.000Z</time>
      </trkpt>
      <trkpt lat="43.77992" lon="7.11602">
        <ele>697.79998779297</ele>
        <time>2023-08-02T09:45:04.000Z</time>
      </trkpt>
      <trkpt lat="43.77992" lon="7.11602">
        <ele>697.79998779297</ele>
        <time>2023-08-02T09:45:05.000Z</time>
      </trkpt>
      <trkpt lat="43.77992" lon="7.11602">
        <ele>697.79998779297</ele>
        <time>2023-08-02T09:45:06.000Z</time>
      </trkpt>
      <trkpt lat="43.77992" lon="7.11602">
        <ele>697.79998779297</ele>
        <time>2023-08-02T09:45:07.000Z</time>
      </trkpt>
      <trkpt lat="43.77992" lon="7.11602">
        <ele>697.79998779297</ele>
        <time>2023-08-02T09:45:08.000Z</time>
      </trkpt>
      <trkpt lat="43.77991" lon="7.11602">
        <ele>697.79998779297</ele>
        <time>2023-08-02T09:45:09.000Z</time>
      </trkpt>
      <trkpt lat="43.77991" lon="7.11603">
        <ele>697.79998779297</ele>
        <time>2023-08-02T09:45:10.000Z</time>
      </trkpt>
      <trkpt lat="43.7799" lon="7.11604">
        <ele>697.79998779297</ele>
        <time>2023-08-02T09:45:11.000Z</time>
      </trkpt>
      <trkpt lat="43.7799" lon="7.11604">
        <ele>698</ele>
        <time>2023-08-02T09:45:12.000Z</time>
      </trkpt>
      <trkpt lat="43.7799" lon="7.11605">
        <ele>698</ele>
        <time>2023-08-02T09:45:13.000Z</time>
      </trkpt>
      <trkpt lat="43.7799" lon="7.11606">
        <ele>698</ele>
        <time>2023-08-02T09:45:14.000Z</time>
      </trkpt>
      <trkpt lat="43.77989" lon="7.11607">
        <ele>698</ele>
        <time>2023-08-02T09:45:15.000Z</time>
      </trkpt>
      <trkpt lat="43.77989" lon="7.11607">
        <ele>698</ele>
        <time>2023-08-02T09:45:16.000Z</time>
      </trkpt>
      <trkpt lat="43.77989" lon="7.11608">
        <ele>698.20001220703</ele>
        <time>2023-08-02T09:45:17.000Z</time>
      </trkpt>
      <trkpt lat="43.77989" lon="7.11608">
        <ele>698.20001220703</ele>
        <time>2023-08-02T09:45:18.000Z</time>
      </trkpt>
      <trkpt lat="43.77989" lon="7.11608">
        <ele>698.20001220703</ele>
        <time>2023-08-02T09:45:19.000Z</time>
      </trkpt>
      <trkpt lat="43.77989" lon="7.11608">
        <ele>698.40002441406</ele>
        <time>2023-08-02T09:45:20.000Z</time>
      </trkpt>
      <trkpt lat="43.77988" lon="7.11608">
        <ele>698.40002441406</ele>
        <time>2023-08-02T09:45:21.000Z</time>
      </trkpt>
      <trkpt lat="43.77988" lon="7.11608">
        <ele>698.59997558594</ele>
        <time>2023-08-02T09:45:22.000Z</time>
      </trkpt>
      <trkpt lat="43.77988" lon="7.11608">
        <ele>698.59997558594</ele>
        <time>2023-08-02T09:45:23.000Z</time>
      </trkpt>
      <trkpt lat="43.77988" lon="7.11608">
        <ele>698.59997558594</ele>
        <time>2023-08-02T09:45:24.000Z</time>
      </trkpt>
      <trkpt lat="43.77988" lon="7.11608">
        <ele>698.59997558594</ele>
        <time>2023-08-02T09:45:25.000Z</time>
      </trkpt>
      <trkpt lat="43.77988" lon="7.11608">
        <ele>698.59997558594</ele>
        <time>2023-08-02T09:45:26.000Z</time>
      </trkpt>
      <trkpt lat="43.77988" lon="7.11608">
        <ele>698.59997558594</ele>
        <time>2023-08-02T09:45:27.000Z</time>
      </trkpt>
      <trkpt lat="43.77988" lon="7.11608">
        <ele>698.59997558594</ele>
        <time>2023-08-02T09:45:28.000Z</time>
      </trkpt>
      <trkpt lat="43.77988" lon="7.11608">
        <ele>698.40002441406</ele>
        <time>2023-08-02T09:45:29.000Z</time>
      </trkpt>
      <trkpt lat="43.77988" lon="7.11608">
        <ele>698.40002441406</ele>
        <time>2023-08-02T09:45:30.000Z</time>
      </trkpt>
      <trkpt lat="43.77988" lon="7.11608">
        <ele>698.40002441406</ele>
        <time>2023-08-02T09:45:31.000Z</time>
      </trkpt>
      <trkpt lat="43.77988" lon="7.11608">
        <ele>698.40002441406</ele>
        <time>2023-08-02T09:45:32.000Z</time>
      </trkpt>
      <trkpt lat="43.77988" lon="7.11608">
        <ele>698.40002441406</ele>
        <time>2023-08-02T09:45:33.000Z</time>
      </trkpt>
      <trkpt lat="43.77988" lon="7.11608">
        <ele>698.40002441406</ele>
        <time>2023-08-02T09:45:34.000Z</time>
      </trkpt>
      <trkpt lat="43.77988" lon="7.11608">
        <ele>698.40002441406</ele>
        <time>2023-08-02T09:45:35.000Z</time>
      </trkpt>
      <trkpt lat="43.77988" lon="7.11608">
        <ele>698.40002441406</ele>
        <time>2023-08-02T09:45:36.000Z</time>
      </trkpt>
      <trkpt lat="43.77988" lon="7.11608">
        <ele>698.40002441406</ele>
        <time>2023-08-02T09:45:37.000Z</time>
      </trkpt>
      <trkpt lat="43.77988" lon="7.11608">
        <ele>698.59997558594</ele>
        <time>2023-08-02T09:45:38.000Z</time>
      </trkpt>
      <trkpt lat="43.77988" lon="7.11608">
        <ele>698.59997558594</ele>
        <time>2023-08-02T09:45:39.000Z</time>
      </trkpt>
      <trkpt lat="43.77988" lon="7.11608">
        <ele>698.59997558594</ele>
        <time>2023-08-02T09:45:40.000Z</time>
      </trkpt>
      <trkpt lat="43.77988" lon="7.11608">
        <ele>698.59997558594</ele>
        <time>2023-08-02T09:45:41.000Z</time>
      </trkpt>
      <trkpt lat="43.77988" lon="7.11608">
        <ele>698.59997558594</ele>
        <time>2023-08-02T09:45:42.000Z</time>
      </trkpt>
      <trkpt lat="43.77988" lon="7.11608">
        <ele>698.59997558594</ele>
        <time>2023-08-02T09:45:43.000Z</time>
      </trkpt>
      <trkpt lat="43.77988" lon="7.11608">
        <ele>698.59997558594</ele>
        <time>2023-08-02T09:45:44.000Z</time>
      </trkpt>
      <trkpt lat="43.77988" lon="7.11608">
        <ele>698.59997558594</ele>
        <time>2023-08-02T09:45:45.000Z</time>
      </trkpt>
      <trkpt lat="43.77988" lon="7.11608">
        <ele>698.59997558594</ele>
        <time>2023-08-02T09:45:46.000Z</time>
      </trkpt>
      <trkpt lat="43.77988" lon="7.11608">
        <ele>698.59997558594</ele>
        <time>2023-08-02T09:45:47.000Z</time>
      </trkpt>
      <trkpt lat="43.77988" lon="7.11608">
        <ele>698.59997558594</ele>
        <time>2023-08-02T09:45:48.000Z</time>
      </trkpt>
      <trkpt lat="43.77988" lon="7.11608">
        <ele>698.59997558594</ele>
        <time>2023-08-02T09:45:49.000Z</time>
      </trkpt>
      <trkpt lat="43.77988" lon="7.11608">
        <ele>698.59997558594</ele>
        <time>2023-08-02T09:45:50.000Z</time>
      </trkpt>
      <trkpt lat="43.77988" lon="7.11608">
        <ele>698.59997558594</ele>
        <time>2023-08-02T09:45:51.000Z</time>
      </trkpt>
      <trkpt lat="43.77988" lon="7.11608">
        <ele>698.59997558594</ele>
        <time>2023-08-02T09:45:52.000Z</time>
      </trkpt>
      <trkpt lat="43.77988" lon="7.11608">
        <ele>698.59997558594</ele>
        <time>2023-08-02T09:45:53.000Z</time>
      </trkpt>
      <trkpt lat="43.77988" lon="7.11608">
        <ele>698.59997558594</ele>
        <time>2023-08-02T09:45:54.000Z</time>
      </trkpt>
      <trkpt lat="43.77988" lon="7.11608">
        <ele>698.59997558594</ele>
        <time>2023-08-02T09:45:55.000Z</time>
      </trkpt>
      <trkpt lat="43.77988" lon="7.11608">
        <ele>698.59997558594</ele>
        <time>2023-08-02T09:45:56.000Z</time>
      </trkpt>
      <trkpt lat="43.77988" lon="7.11608">
        <ele>698.59997558594</ele>
        <time>2023-08-02T09:45:57.000Z</time>
      </trkpt>
      <trkpt lat="43.77988" lon="7.11608">
        <ele>698.59997558594</ele>
        <time>2023-08-02T09:45:58.000Z</time>
      </trkpt>
      <trkpt lat="43.77988" lon="7.11608">
        <ele>698.59997558594</ele>
        <time>2023-08-02T09:45:59.000Z</time>
      </trkpt>
      <trkpt lat="43.77988" lon="7.11608">
        <ele>698.59997558594</ele>
        <time>2023-08-02T09:46:00.000Z</time>
      </trkpt>
      <trkpt lat="43.77988" lon="7.11608">
        <ele>698.59997558594</ele>
        <time>2023-08-02T09:46:01.000Z</time>
      </trkpt>
      <trkpt lat="43.77988" lon="7.11608">
        <ele>698.79998779297</ele>
        <time>2023-08-02T09:46:02.000Z</time>
      </trkpt>
      <trkpt lat="43.77988" lon="7.11608">
        <ele>698.79998779297</ele>
        <time>2023-08-02T09:46:03.000Z</time>
      </trkpt>
      <trkpt lat="43.77988" lon="7.11608">
        <ele>698.79998779297</ele>
        <time>2023-08-02T09:46:04.000Z</time>
      </trkpt>
      <trkpt lat="43.77988" lon="7.11608">
        <ele>698.79998779297</ele>
        <time>2023-08-02T09:46:05.000Z</time>
      </trkpt>
      <trkpt lat="43.77988" lon="7.11608">
        <ele>698.79998779297</ele>
        <time>2023-08-02T09:46:06.000Z</time>
      </trkpt>
      <trkpt lat="43.77988" lon="7.11608">
        <ele>698.79998779297</ele>
        <time>2023-08-02T09:46:07.000Z</time>
      </trkpt>
      <trkpt lat="43.77988" lon="7.11608">
        <ele>698.79998779297</ele>
        <time>2023-08-02T09:46:08.000Z</time>
      </trkpt>
      <trkpt lat="43.77988" lon="7.11608">
        <ele>698.79998779297</ele>
        <time>2023-08-02T09:46:09.000Z</time>
      </trkpt>
      <trkpt lat="43.77988" lon="7.11608">
        <ele>698.79998779297</ele>
        <time>2023-08-02T09:46:10.000Z</time>
      </trkpt>
      <trkpt lat="43.77988" lon="7.11608">
        <ele>698.79998779297</ele>
        <time>2023-08-02T09:46:11.000Z</time>
      </trkpt>
      <trkpt lat="43.77988" lon="7.11608">
        <ele>698.79998779297</ele>
        <time>2023-08-02T09:46:12.000Z</time>
      </trkpt>
      <trkpt lat="43.77988" lon="7.11608">
        <ele>698.79998779297</ele>
        <time>2023-08-02T09:46:13.000Z</time>
      </trkpt>
      <trkpt lat="43.77988" lon="7.11608">
        <ele>699</ele>
        <time>2023-08-02T09:46:14.000Z</time>
      </trkpt>
      <trkpt lat="43.77988" lon="7.11608">
        <ele>699</ele>
        <time>2023-08-02T09:46:15.000Z</time>
      </trkpt>
      <trkpt lat="43.77988" lon="7.11608">
        <ele>699</ele>
        <time>2023-08-02T09:46:16.000Z</time>
      </trkpt>
      <trkpt lat="43.77988" lon="7.11608">
        <ele>699</ele>
        <time>2023-08-02T09:46:17.000Z</time>
      </trkpt>
      <trkpt lat="43.77988" lon="7.11608">
        <ele>699</ele>
        <time>2023-08-02T09:46:18.000Z</time>
      </trkpt>
      <trkpt lat="43.77988" lon="7.11608">
        <ele>699</ele>
        <time>2023-08-02T09:46:19.000Z</time>
      </trkpt>
      <trkpt lat="43.77988" lon="7.11608">
        <ele>698.79998779297</ele>
        <time>2023-08-02T09:46:20.000Z</time>
      </trkpt>
      <trkpt lat="43.77988" lon="7.11608">
        <ele>698.79998779297</ele>
        <time>2023-08-02T09:46:21.000Z</time>
      </trkpt>
      <trkpt lat="43.77988" lon="7.11608">
        <ele>698.79998779297</ele>
        <time>2023-08-02T09:46:22.000Z</time>
      </trkpt>
      <trkpt lat="43.77988" lon="7.11608">
        <ele>698.79998779297</ele>
        <time>2023-08-02T09:46:23.000Z</time>
      </trkpt>
      <trkpt lat="43.77988" lon="7.11608">
        <ele>698.79998779297</ele>
        <time>2023-08-02T09:46:24.000Z</time>
      </trkpt>
      <trkpt lat="43.77988" lon="7.11608">
        <ele>698.79998779297</ele>
        <time>2023-08-02T09:46:25.000Z</time>
      </trkpt>
      <trkpt lat="43.77988" lon="7.11608">
        <ele>698.79998779297</ele>
        <time>2023-08-02T09:46:26.000Z</time>
      </trkpt>
      <trkpt lat="43.77988" lon="7.11608">
        <ele>698.79998779297</ele>
        <time>2023-08-02T09:46:27.000Z</time>
      </trkpt>
      <trkpt lat="43.77988" lon="7.11608">
        <ele>698.79998779297</ele>
        <time>2023-08-02T09:46:28.000Z</time>
      </trkpt>
      <trkpt lat="43.77988" lon="7.11608">
        <ele>698.79998779297</ele>
        <time>2023-08-02T09:46:29.000Z</time>
      </trkpt>
      <trkpt lat="43.77988" lon="7.11608">
        <ele>698.79998779297</ele>
        <time>2023-08-02T09:46:30.000Z</time>
      </trkpt>
      <trkpt lat="43.77988" lon="7.11608">
        <ele>698.79998779297</ele>
        <time>2023-08-02T09:46:31.000Z</time>
      </trkpt>
      <trkpt lat="43.77988" lon="7.11608">
        <ele>698.79998779297</ele>
        <time>2023-08-02T09:46:32.000Z</time>
      </trkpt>
      <trkpt lat="43.77988" lon="7.11608">
        <ele>698.79998779297</ele>
        <time>2023-08-02T09:46:33.000Z</time>
      </trkpt>
      <trkpt lat="43.77988" lon="7.11608">
        <ele>698.79998779297</ele>
        <time>2023-08-02T09:46:34.000Z</time>
      </trkpt>
      <trkpt lat="43.77988" lon="7.11608">
        <ele>698.79998779297</ele>
        <time>2023-08-02T09:46:35.000Z</time>
      </trkpt>
      <trkpt lat="43.77988" lon="7.11608">
        <ele>698.79998779297</ele>
        <time>2023-08-02T09:46:36.000Z</time>
      </trkpt>
      <trkpt lat="43.77988" lon="7.11608">
        <ele>698.79998779297</ele>
        <time>2023-08-02T09:46:37.000Z</time>
      </trkpt>
      <trkpt lat="43.77988" lon="7.11608">
        <ele>698.79998779297</ele>
        <time>2023-08-02T09:46:38.000Z</time>
      </trkpt>
      <trkpt lat="43.77988" lon="7.11608">
        <ele>698.79998779297</ele>
        <time>2023-08-02T09:46:39.000Z</time>
      </trkpt>
      <trkpt lat="43.77988" lon="7.11608">
        <ele>698.79998779297</ele>
        <time>2023-08-02T09:46:40.000Z</time>
      </trkpt>
      <trkpt lat="43.77988" lon="7.11608">
        <ele>698.79998779297</ele>
        <time>2023-08-02T09:46:41.000Z</time>
      </trkpt>
      <trkpt lat="43.77988" lon="7.11608">
        <ele>698.79998779297</ele>
        <time>2023-08-02T09:46:42.000Z</time>
      </trkpt>
      <trkpt lat="43.77988" lon="7.11608">
        <ele>698.79998779297</ele>
        <time>2023-08-02T09:46:43.000Z</time>
      </trkpt>
      <trkpt lat="43.77988" lon="7.11608">
        <ele>698.79998779297</ele>
        <time>2023-08-02T09:46:44.000Z</time>
      </trkpt>
      <trkpt lat="43.77988" lon="7.11608">
        <ele>698.79998779297</ele>
        <time>2023-08-02T09:46:45.000Z</time>
      </trkpt>
      <trkpt lat="43.77988" lon="7.11608">
        <ele>698.79998779297</ele>
        <time>2023-08-02T09:46:46.000Z</time>
      </trkpt>
      <trkpt lat="43.77988" lon="7.11608">
        <ele>698.79998779297</ele>
        <time>2023-08-02T09:46:47.000Z</time>
      </trkpt>
      <trkpt lat="43.77988" lon="7.11608">
        <ele>698.79998779297</ele>
        <time>2023-08-02T09:46:48.000Z</time>
      </trkpt>
      <trkpt lat="43.77988" lon="7.11608">
        <ele>698.79998779297</ele>
        <time>2023-08-02T09:46:49.000Z</time>
      </trkpt>
      <trkpt lat="43.77988" lon="7.11608">
        <ele>698.79998779297</ele>
        <time>2023-08-02T09:46:50.000Z</time>
      </trkpt>
      <trkpt lat="43.77988" lon="7.11608">
        <ele>698.79998779297</ele>
        <time>2023-08-02T09:46:51.000Z</time>
      </trkpt>
      <trkpt lat="43.77988" lon="7.11608">
        <ele>698.79998779297</ele>
        <time>2023-08-02T09:46:52.000Z</time>
      </trkpt>
      <trkpt lat="43.77988" lon="7.11608">
        <ele>698.79998779297</ele>
        <time>2023-08-02T09:46:53.000Z</time>
      </trkpt>
      <trkpt lat="43.77988" lon="7.11608">
        <ele>698.79998779297</ele>
        <time>2023-08-02T09:46:54.000Z</time>
      </trkpt>
      <trkpt lat="43.77988" lon="7.11608">
        <ele>698.79998779297</ele>
        <time>2023-08-02T09:46:55.000Z</time>
      </trkpt>
      <trkpt lat="43.77988" lon="7.11608">
        <ele>698.79998779297</ele>
        <time>2023-08-02T09:46:56.000Z</time>
      </trkpt>
      <trkpt lat="43.77988" lon="7.11608">
        <ele>698.79998779297</ele>
        <time>2023-08-02T09:46:57.000Z</time>
      </trkpt>
      <trkpt lat="43.77988" lon="7.11608">
        <ele>698.79998779297</ele>
        <time>2023-08-02T09:46:58.000Z</time>
      </trkpt>
      <trkpt lat="43.77988" lon="7.11608">
        <ele>698.79998779297</ele>
        <time>2023-08-02T09:46:59.000Z</time>
      </trkpt>
      <trkpt lat="43.77988" lon="7.11608">
        <ele>698.79998779297</ele>
        <time>2023-08-02T09:47:00.000Z</time>
      </trkpt>
      <trkpt lat="43.77988" lon="7.11608">
        <ele>698.79998779297</ele>
        <time>2023-08-02T09:47:01.000Z</time>
      </trkpt>
      <trkpt lat="43.77988" lon="7.11608">
        <ele>698.79998779297</ele>
        <time>2023-08-02T09:47:02.000Z</time>
      </trkpt>
      <trkpt lat="43.77988" lon="7.11608">
        <ele>698.79998779297</ele>
        <time>2023-08-02T09:47:03.000Z</time>
      </trkpt>
      <trkpt lat="43.77988" lon="7.11608">
        <ele>698.79998779297</ele>
        <time>2023-08-02T09:47:04.000Z</time>
      </trkpt>
      <trkpt lat="43.77988" lon="7.11608">
        <ele>698.79998779297</ele>
        <time>2023-08-02T09:47:05.000Z</time>
      </trkpt>
      <trkpt lat="43.77988" lon="7.11608">
        <ele>698.79998779297</ele>
        <time>2023-08-02T09:47:06.000Z</time>
      </trkpt>
      <trkpt lat="43.77988" lon="7.11608">
        <ele>698.79998779297</ele>
        <time>2023-08-02T09:47:07.000Z</time>
      </trkpt>
      <trkpt lat="43.77988" lon="7.11608">
        <ele>698.79998779297</ele>
        <time>2023-08-02T09:47:08.000Z</time>
      </trkpt>
      <trkpt lat="43.77988" lon="7.11608">
        <ele>698.79998779297</ele>
        <time>2023-08-02T09:47:09.000Z</time>
      </trkpt>
      <trkpt lat="43.77988" lon="7.11608">
        <ele>698.79998779297</ele>
        <time>2023-08-02T09:47:10.000Z</time>
      </trkpt>
      <trkpt lat="43.77988" lon="7.11608">
        <ele>698.79998779297</ele>
        <time>2023-08-02T09:47:11.000Z</time>
      </trkpt>
      <trkpt lat="43.77988" lon="7.11608">
        <ele>698.79998779297</ele>
        <time>2023-08-02T09:47:12.000Z</time>
      </trkpt>
      <trkpt lat="43.77988" lon="7.11608">
        <ele>698.79998779297</ele>
        <time>2023-08-02T09:47:13.000Z</time>
      </trkpt>
      <trkpt lat="43.77988" lon="7.11608">
        <ele>698.79998779297</ele>
        <time>2023-08-02T09:47:14.000Z</time>
      </trkpt>
      <trkpt lat="43.77988" lon="7.11608">
        <ele>698.79998779297</ele>
        <time>2023-08-02T09:47:15.000Z</time>
      </trkpt>
      <trkpt lat="43.77988" lon="7.11608">
        <ele>698.79998779297</ele>
        <time>2023-08-02T09:47:16.000Z</time>
      </trkpt>
      <trkpt lat="43.77988" lon="7.11608">
        <ele>698.79998779297</ele>
        <time>2023-08-02T09:47:17.000Z</time>
      </trkpt>
      <trkpt lat="43.77988" lon="7.11608">
        <ele>698.79998779297</ele>
        <time>2023-08-02T09:47:18.000Z</time>
      </trkpt>
      <trkpt lat="43.77988" lon="7.11608">
        <ele>698.79998779297</ele>
        <time>2023-08-02T09:47:19.000Z</time>
      </trkpt>
      <trkpt lat="43.77988" lon="7.11608">
        <ele>698.79998779297</ele>
        <time>2023-08-02T09:47:20.000Z</time>
      </trkpt>
      <trkpt lat="43.77988" lon="7.11608">
        <ele>698.79998779297</ele>
        <time>2023-08-02T09:47:21.000Z</time>
      </trkpt>
      <trkpt lat="43.77988" lon="7.11608">
        <ele>698.79998779297</ele>
        <time>2023-08-02T09:47:22.000Z</time>
      </trkpt>
      <trkpt lat="43.77988" lon="7.11608">
        <ele>698.79998779297</ele>
        <time>2023-08-02T09:47:23.000Z</time>
      </trkpt>
      <trkpt lat="43.77988" lon="7.11608">
        <ele>698.79998779297</ele>
        <time>2023-08-02T09:47:24.000Z</time>
      </trkpt>
      <trkpt lat="43.77988" lon="7.11608">
        <ele>698.79998779297</ele>
        <time>2023-08-02T09:47:25.000Z</time>
      </trkpt>
      <trkpt lat="43.77988" lon="7.11608">
        <ele>698.79998779297</ele>
        <time>2023-08-02T09:47:26.000Z</time>
      </trkpt>
      <trkpt lat="43.77988" lon="7.11608">
        <ele>698.79998779297</ele>
        <time>2023-08-02T09:47:27.000Z</time>
      </trkpt>
      <trkpt lat="43.77988" lon="7.11608">
        <ele>698.79998779297</ele>
        <time>2023-08-02T09:47:28.000Z</time>
      </trkpt>
      <trkpt lat="43.77988" lon="7.11608">
        <ele>698.79998779297</ele>
        <time>2023-08-02T09:47:29.000Z</time>
      </trkpt>
      <trkpt lat="43.77988" lon="7.11608">
        <ele>698.79998779297</ele>
        <time>2023-08-02T09:47:30.000Z</time>
      </trkpt>
      <trkpt lat="43.77988" lon="7.11608">
        <ele>698.79998779297</ele>
        <time>2023-08-02T09:47:31.000Z</time>
      </trkpt>
      <trkpt lat="43.77988" lon="7.11608">
        <ele>698.79998779297</ele>
        <time>2023-08-02T09:47:32.000Z</time>
      </trkpt>
      <trkpt lat="43.77988" lon="7.11608">
        <ele>698.79998779297</ele>
        <time>2023-08-02T09:47:33.000Z</time>
      </trkpt>
      <trkpt lat="43.77988" lon="7.11608">
        <ele>698.79998779297</ele>
        <time>2023-08-02T09:47:34.000Z</time>
      </trkpt>
      <trkpt lat="43.77988" lon="7.11608">
        <ele>698.79998779297</ele>
        <time>2023-08-02T09:47:35.000Z</time>
      </trkpt>
      <trkpt lat="43.77988" lon="7.11607">
        <ele>698.79998779297</ele>
        <time>2023-08-02T09:47:36.000Z</time>
      </trkpt>
      <trkpt lat="43.77988" lon="7.11607">
        <ele>698.79998779297</ele>
        <time>2023-08-02T09:47:37.000Z</time>
      </trkpt>
      <trkpt lat="43.77988" lon="7.11607">
        <ele>698.79998779297</ele>
        <time>2023-08-02T09:47:38.000Z</time>
      </trkpt>
      <trkpt lat="43.77988" lon="7.11607">
        <ele>698.79998779297</ele>
        <time>2023-08-02T09:47:39.000Z</time>
      </trkpt>
      <trkpt lat="43.77988" lon="7.11607">
        <ele>698.79998779297</ele>
        <time>2023-08-02T09:47:40.000Z</time>
      </trkpt>
      <trkpt lat="43.77988" lon="7.11607">
        <ele>698.79998779297</ele>
        <time>2023-08-02T09:47:41.000Z</time>
      </trkpt>
      <trkpt lat="43.77988" lon="7.11607">
        <ele>698.79998779297</ele>
        <time>2023-08-02T09:47:42.000Z</time>
      </trkpt>
      <trkpt lat="43.77988" lon="7.11607">
        <ele>698.79998779297</ele>
        <time>2023-08-02T09:47:43.000Z</time>
      </trkpt>
      <trkpt lat="43.77988" lon="7.11607">
        <ele>698.79998779297</ele>
        <time>2023-08-02T09:47:44.000Z</time>
      </trkpt>
      <trkpt lat="43.77988" lon="7.11607">
        <ele>698.79998779297</ele>
        <time>2023-08-02T09:47:45.000Z</time>
      </trkpt>
      <trkpt lat="43.77988" lon="7.11607">
        <ele>698.79998779297</ele>
        <time>2023-08-02T09:47:46.000Z</time>
      </trkpt>
      <trkpt lat="43.77988" lon="7.11607">
        <ele>698.79998779297</ele>
        <time>2023-08-02T09:47:47.000Z</time>
      </trkpt>
      <trkpt lat="43.77988" lon="7.11607">
        <ele>698.79998779297</ele>
        <time>2023-08-02T09:47:48.000Z</time>
      </trkpt>
      <trkpt lat="43.77988" lon="7.11606">
        <ele>698.79998779297</ele>
        <time>2023-08-02T09:47:49.000Z</time>
      </trkpt>
      <trkpt lat="43.77988" lon="7.11607">
        <ele>698.79998779297</ele>
        <time>2023-08-02T09:47:50.000Z</time>
      </trkpt>
      <trkpt lat="43.77988" lon="7.11608">
        <ele>698.79998779297</ele>
        <time>2023-08-02T09:47:51.000Z</time>
      </trkpt>
      <trkpt lat="43.77988" lon="7.11609">
        <ele>698.79998779297</ele>
        <time>2023-08-02T09:47:52.000Z</time>
      </trkpt>
      <trkpt lat="43.77988" lon="7.1161">
        <ele>698.79998779297</ele>
        <time>2023-08-02T09:47:53.000Z</time>
      </trkpt>
      <trkpt lat="43.77988" lon="7.11611">
        <ele>698.79998779297</ele>
        <time>2023-08-02T09:47:54.000Z</time>
      </trkpt>
      <trkpt lat="43.77988" lon="7.11612">
        <ele>698.79998779297</ele>
        <time>2023-08-02T09:47:55.000Z</time>
      </trkpt>
      <trkpt lat="43.77988" lon="7.11613">
        <ele>698.79998779297</ele>
        <time>2023-08-02T09:47:56.000Z</time>
      </trkpt>
      <trkpt lat="43.77988" lon="7.11613">
        <ele>698.79998779297</ele>
        <time>2023-08-02T09:47:57.000Z</time>
      </trkpt>
      <trkpt lat="43.77988" lon="7.11614">
        <ele>698.79998779297</ele>
        <time>2023-08-02T09:47:58.000Z</time>
      </trkpt>
      <trkpt lat="43.77987" lon="7.11614">
        <ele>698.79998779297</ele>
        <time>2023-08-02T09:47:59.000Z</time>
      </trkpt>
      <trkpt lat="43.77987" lon="7.11615">
        <ele>698.79998779297</ele>
        <time>2023-08-02T09:48:00.000Z</time>
      </trkpt>
      <trkpt lat="43.77987" lon="7.11616">
        <ele>698.79998779297</ele>
        <time>2023-08-02T09:48:01.000Z</time>
      </trkpt>
      <trkpt lat="43.77987" lon="7.11616">
        <ele>698.79998779297</ele>
        <time>2023-08-02T09:48:02.000Z</time>
      </trkpt>
      <trkpt lat="43.77987" lon="7.11616">
        <ele>698.79998779297</ele>
        <time>2023-08-02T09:48:03.000Z</time>
      </trkpt>
      <trkpt lat="43.77986" lon="7.11617">
        <ele>698.79998779297</ele>
        <time>2023-08-02T09:48:04.000Z</time>
      </trkpt>
      <trkpt lat="43.77986" lon="7.11618">
        <ele>698.79998779297</ele>
        <time>2023-08-02T09:48:05.000Z</time>
      </trkpt>
      <trkpt lat="43.77985" lon="7.11618">
        <ele>698.79998779297</ele>
        <time>2023-08-02T09:48:06.000Z</time>
      </trkpt>
      <trkpt lat="43.77985" lon="7.11619">
        <ele>698.79998779297</ele>
        <time>2023-08-02T09:48:07.000Z</time>
      </trkpt>
      <trkpt lat="43.77984" lon="7.11619">
        <ele>698.79998779297</ele>
        <time>2023-08-02T09:48:08.000Z</time>
      </trkpt>
      <trkpt lat="43.77983" lon="7.11619">
        <ele>700.59997558594</ele>
        <time>2023-08-02T09:48:09.000Z</time>
      </trkpt>
      <trkpt lat="43.77982" lon="7.11619">
        <ele>700.79998779297</ele>
        <time>2023-08-02T09:48:10.000Z</time>
      </trkpt>
      <trkpt lat="43.77981" lon="7.11619">
        <ele>701</ele>
        <time>2023-08-02T09:48:11.000Z</time>
      </trkpt>
      <trkpt lat="43.77981" lon="7.11619">
        <ele>701.20001220703</ele>
        <time>2023-08-02T09:48:12.000Z</time>
      </trkpt>
      <trkpt lat="43.7798" lon="7.11619">
        <ele>701.40002441406</ele>
        <time>2023-08-02T09:48:13.000Z</time>
      </trkpt>
      <trkpt lat="43.77979" lon="7.11618">
        <ele>701.59997558594</ele>
        <time>2023-08-02T09:48:14.000Z</time>
      </trkpt>
      <trkpt lat="43.77979" lon="7.11618">
        <ele>701.79998779297</ele>
        <time>2023-08-02T09:48:15.000Z</time>
      </trkpt>
      <trkpt lat="43.77978" lon="7.11618">
        <ele>702</ele>
        <time>2023-08-02T09:48:16.000Z</time>
      </trkpt>
      <trkpt lat="43.77977" lon="7.11618">
        <ele>702</ele>
        <time>2023-08-02T09:48:17.000Z</time>
      </trkpt>
      <trkpt lat="43.77976" lon="7.11618">
        <ele>702.20001220703</ele>
        <time>2023-08-02T09:48:18.000Z</time>
      </trkpt>
      <trkpt lat="43.77975" lon="7.11619">
        <ele>702.40002441406</ele>
        <time>2023-08-02T09:48:19.000Z</time>
      </trkpt>
      <trkpt lat="43.77975" lon="7.11619">
        <ele>702.59997558594</ele>
        <time>2023-08-02T09:48:20.000Z</time>
      </trkpt>
      <trkpt lat="43.77974" lon="7.1162">
        <ele>702.59997558594</ele>
        <time>2023-08-02T09:48:21.000Z</time>
      </trkpt>
      <trkpt lat="43.77974" lon="7.1162">
        <ele>702.79998779297</ele>
        <time>2023-08-02T09:48:22.000Z</time>
      </trkpt>
      <trkpt lat="43.77973" lon="7.11621">
        <ele>702.79998779297</ele>
        <time>2023-08-02T09:48:23.000Z</time>
      </trkpt>
      <trkpt lat="43.77973" lon="7.11622">
        <ele>703</ele>
        <time>2023-08-02T09:48:24.000Z</time>
      </trkpt>
      <trkpt lat="43.77972" lon="7.11622">
        <ele>703</ele>
        <time>2023-08-02T09:48:25.000Z</time>
      </trkpt>
      <trkpt lat="43.77971" lon="7.11622">
        <ele>703.40002441406</ele>
        <time>2023-08-02T09:48:26.000Z</time>
      </trkpt>
      <trkpt lat="43.77971" lon="7.11622">
        <ele>703.59997558594</ele>
        <time>2023-08-02T09:48:27.000Z</time>
      </trkpt>
      <trkpt lat="43.7797" lon="7.11622">
        <ele>703.59997558594</ele>
        <time>2023-08-02T09:48:28.000Z</time>
      </trkpt>
      <trkpt lat="43.77969" lon="7.11623">
        <ele>703.79998779297</ele>
        <time>2023-08-02T09:48:29.000Z</time>
      </trkpt>
      <trkpt lat="43.77969" lon="7.11624">
        <ele>703.79998779297</ele>
        <time>2023-08-02T09:48:30.000Z</time>
      </trkpt>
      <trkpt lat="43.77968" lon="7.11624">
        <ele>704</ele>
        <time>2023-08-02T09:48:31.000Z</time>
      </trkpt>
      <trkpt lat="43.77967" lon="7.11624">
        <ele>704</ele>
        <time>2023-08-02T09:48:32.000Z</time>
      </trkpt>
      <trkpt lat="43.77966" lon="7.11623">
        <ele>704.20001220703</ele>
        <time>2023-08-02T09:48:33.000Z</time>
      </trkpt>
      <trkpt lat="43.77966" lon="7.11623">
        <ele>704.40002441406</ele>
        <time>2023-08-02T09:48:34.000Z</time>
      </trkpt>
      <trkpt lat="43.77965" lon="7.11623">
        <ele>704.59997558594</ele>
        <time>2023-08-02T09:48:35.000Z</time>
      </trkpt>
      <trkpt lat="43.77964" lon="7.11623">
        <ele>704.79998779297</ele>
        <time>2023-08-02T09:48:36.000Z</time>
      </trkpt>
      <trkpt lat="43.77964" lon="7.11623">
        <ele>704.79998779297</ele>
        <time>2023-08-02T09:48:37.000Z</time>
      </trkpt>
      <trkpt lat="43.77963" lon="7.11624">
        <ele>705</ele>
        <time>2023-08-02T09:48:38.000Z</time>
      </trkpt>
      <trkpt lat="43.77963" lon="7.11624">
        <ele>705.20001220703</ele>
        <time>2023-08-02T09:48:39.000Z</time>
      </trkpt>
      <trkpt lat="43.77962" lon="7.11625">
        <ele>705.40002441406</ele>
        <time>2023-08-02T09:48:40.000Z</time>
      </trkpt>
      <trkpt lat="43.77962" lon="7.11626">
        <ele>705.40002441406</ele>
        <time>2023-08-02T09:48:41.000Z</time>
      </trkpt>
      <trkpt lat="43.77962" lon="7.11626">
        <ele>705.59997558594</ele>
        <time>2023-08-02T09:48:42.000Z</time>
      </trkpt>
      <trkpt lat="43.77962" lon="7.11627">
        <ele>705.59997558594</ele>
        <time>2023-08-02T09:48:43.000Z</time>
      </trkpt>
      <trkpt lat="43.77961" lon="7.11628">
        <ele>705.59997558594</ele>
        <time>2023-08-02T09:48:44.000Z</time>
      </trkpt>
      <trkpt lat="43.77961" lon="7.11629">
        <ele>705.79998779297</ele>
        <time>2023-08-02T09:48:45.000Z</time>
      </trkpt>
      <trkpt lat="43.77961" lon="7.1163">
        <ele>706</ele>
        <time>2023-08-02T09:48:46.000Z</time>
      </trkpt>
      <trkpt lat="43.7796" lon="7.1163">
        <ele>706.20001220703</ele>
        <time>2023-08-02T09:48:47.000Z</time>
      </trkpt>
      <trkpt lat="43.77959" lon="7.11631">
        <ele>706.40002441406</ele>
        <time>2023-08-02T09:48:48.000Z</time>
      </trkpt>
      <trkpt lat="43.77958" lon="7.11631">
        <ele>706.40002441406</ele>
        <time>2023-08-02T09:48:49.000Z</time>
      </trkpt>
      <trkpt lat="43.77957" lon="7.11631">
        <ele>706.59997558594</ele>
        <time>2023-08-02T09:48:50.000Z</time>
      </trkpt>
      <trkpt lat="43.77957" lon="7.11632">
        <ele>706.79998779297</ele>
        <time>2023-08-02T09:48:51.000Z</time>
      </trkpt>
      <trkpt lat="43.77956" lon="7.11631">
        <ele>707</ele>
        <time>2023-08-02T09:48:52.000Z</time>
      </trkpt>
      <trkpt lat="43.77955" lon="7.11631">
        <ele>707.20001220703</ele>
        <time>2023-08-02T09:48:53.000Z</time>
      </trkpt>
      <trkpt lat="43.77955" lon="7.11631">
        <ele>707.20001220703</ele>
        <time>2023-08-02T09:48:54.000Z</time>
      </trkpt>
      <trkpt lat="43.77954" lon="7.11631">
        <ele>707.20001220703</ele>
        <time>2023-08-02T09:48:55.000Z</time>
      </trkpt>
      <trkpt lat="43.77954" lon="7.11631">
        <ele>707.20001220703</ele>
        <time>2023-08-02T09:48:56.000Z</time>
      </trkpt>
      <trkpt lat="43.77953" lon="7.11631">
        <ele>707.40002441406</ele>
        <time>2023-08-02T09:48:57.000Z</time>
      </trkpt>
      <trkpt lat="43.77952" lon="7.11631">
        <ele>707.59997558594</ele>
        <time>2023-08-02T09:48:58.000Z</time>
      </trkpt>
      <trkpt lat="43.77951" lon="7.11631">
        <ele>707.59997558594</ele>
        <time>2023-08-02T09:48:59.000Z</time>
      </trkpt>
      <trkpt lat="43.77951" lon="7.11631">
        <ele>707.79998779297</ele>
        <time>2023-08-02T09:49:00.000Z</time>
      </trkpt>
      <trkpt lat="43.77949" lon="7.11631">
        <ele>707.79998779297</ele>
        <time>2023-08-02T09:49:01.000Z</time>
      </trkpt>
      <trkpt lat="43.77948" lon="7.11631">
        <ele>707.79998779297</ele>
        <time>2023-08-02T09:49:02.000Z</time>
      </trkpt>
      <trkpt lat="43.77948" lon="7.11631">
        <ele>707.79998779297</ele>
        <time>2023-08-02T09:49:03.000Z</time>
      </trkpt>
      <trkpt lat="43.77947" lon="7.11631">
        <ele>708</ele>
        <time>2023-08-02T09:49:04.000Z</time>
      </trkpt>
      <trkpt lat="43.77947" lon="7.11631">
        <ele>708</ele>
        <time>2023-08-02T09:49:05.000Z</time>
      </trkpt>
      <trkpt lat="43.77947" lon="7.11631">
        <ele>708</ele>
        <time>2023-08-02T09:49:06.000Z</time>
      </trkpt>
      <trkpt lat="43.77947" lon="7.11631">
        <ele>708.20001220703</ele>
        <time>2023-08-02T09:49:07.000Z</time>
      </trkpt>
      <trkpt lat="43.77947" lon="7.11631">
        <ele>708.20001220703</ele>
        <time>2023-08-02T09:49:08.000Z</time>
      </trkpt>
      <trkpt lat="43.77947" lon="7.11631">
        <ele>708.20001220703</ele>
        <time>2023-08-02T09:49:09.000Z</time>
      </trkpt>
      <trkpt lat="43.77947" lon="7.11631">
        <ele>708.20001220703</ele>
        <time>2023-08-02T09:49:10.000Z</time>
      </trkpt>
      <trkpt lat="43.77947" lon="7.11631">
        <ele>708.40002441406</ele>
        <time>2023-08-02T09:49:11.000Z</time>
      </trkpt>
      <trkpt lat="43.77947" lon="7.11631">
        <ele>708.40002441406</ele>
        <time>2023-08-02T09:49:12.000Z</time>
      </trkpt>
      <trkpt lat="43.77947" lon="7.11631">
        <ele>708.40002441406</ele>
        <time>2023-08-02T09:49:13.000Z</time>
      </trkpt>
      <trkpt lat="43.77947" lon="7.11631">
        <ele>708.40002441406</ele>
        <time>2023-08-02T09:49:14.000Z</time>
      </trkpt>
      <trkpt lat="43.77947" lon="7.11631">
        <ele>708.40002441406</ele>
        <time>2023-08-02T09:49:15.000Z</time>
      </trkpt>
      <trkpt lat="43.77947" lon="7.11631">
        <ele>708.40002441406</ele>
        <time>2023-08-02T09:49:16.000Z</time>
      </trkpt>
      <trkpt lat="43.77947" lon="7.11631">
        <ele>708.40002441406</ele>
        <time>2023-08-02T09:49:17.000Z</time>
      </trkpt>
      <trkpt lat="43.77947" lon="7.11631">
        <ele>708.40002441406</ele>
        <time>2023-08-02T09:49:18.000Z</time>
      </trkpt>
      <trkpt lat="43.77947" lon="7.11631">
        <ele>708.40002441406</ele>
        <time>2023-08-02T09:49:19.000Z</time>
      </trkpt>
      <trkpt lat="43.77947" lon="7.11631">
        <ele>708.40002441406</ele>
        <time>2023-08-02T09:49:20.000Z</time>
      </trkpt>
      <trkpt lat="43.77945" lon="7.11632">
        <ele>708.40002441406</ele>
        <time>2023-08-02T09:49:21.000Z</time>
      </trkpt>
      <trkpt lat="43.77944" lon="7.11634">
        <ele>708.40002441406</ele>
        <time>2023-08-02T09:49:22.000Z</time>
      </trkpt>
      <trkpt lat="43.77944" lon="7.11636">
        <ele>708.40002441406</ele>
        <time>2023-08-02T09:49:23.000Z</time>
      </trkpt>
      <trkpt lat="43.77943" lon="7.11637">
        <ele>708.40002441406</ele>
        <time>2023-08-02T09:49:24.000Z</time>
      </trkpt>
      <trkpt lat="43.77942" lon="7.11639">
        <ele>708.40002441406</ele>
        <time>2023-08-02T09:49:25.000Z</time>
      </trkpt>
      <trkpt lat="43.77941" lon="7.11642">
        <ele>708.40002441406</ele>
        <time>2023-08-02T09:49:26.000Z</time>
      </trkpt>
      <trkpt lat="43.77939" lon="7.11643">
        <ele>708.79998779297</ele>
        <time>2023-08-02T09:49:27.000Z</time>
      </trkpt>
      <trkpt lat="43.77938" lon="7.11644">
        <ele>709.20001220703</ele>
        <time>2023-08-02T09:49:28.000Z</time>
      </trkpt>
      <trkpt lat="43.77936" lon="7.11644">
        <ele>709.59997558594</ele>
        <time>2023-08-02T09:49:29.000Z</time>
      </trkpt>
      <trkpt lat="43.77934" lon="7.11643">
        <ele>709.79998779297</ele>
        <time>2023-08-02T09:49:30.000Z</time>
      </trkpt>
      <trkpt lat="43.77933" lon="7.11642">
        <ele>710.20001220703</ele>
        <time>2023-08-02T09:49:31.000Z</time>
      </trkpt>
      <trkpt lat="43.7793" lon="7.11642">
        <ele>710.59997558594</ele>
        <time>2023-08-02T09:49:32.000Z</time>
      </trkpt>
      <trkpt lat="43.77928" lon="7.11642">
        <ele>710.79998779297</ele>
        <time>2023-08-02T09:49:33.000Z</time>
      </trkpt>
      <trkpt lat="43.77927" lon="7.11643">
        <ele>711</ele>
        <time>2023-08-02T09:49:34.000Z</time>
      </trkpt>
      <trkpt lat="43.77926" lon="7.11645">
        <ele>711.20001220703</ele>
        <time>2023-08-02T09:49:35.000Z</time>
      </trkpt>
      <trkpt lat="43.77924" lon="7.11647">
        <ele>711.40002441406</ele>
        <time>2023-08-02T09:49:36.000Z</time>
      </trkpt>
      <trkpt lat="43.77923" lon="7.11648">
        <ele>711.79998779297</ele>
        <time>2023-08-02T09:49:37.000Z</time>
      </trkpt>
      <trkpt lat="43.77922" lon="7.1165">
        <ele>712</ele>
        <time>2023-08-02T09:49:38.000Z</time>
      </trkpt>
      <trkpt lat="43.77921" lon="7.11651">
        <ele>712.20001220703</ele>
        <time>2023-08-02T09:49:39.000Z</time>
      </trkpt>
      <trkpt lat="43.77919" lon="7.11652">
        <ele>712.40002441406</ele>
        <time>2023-08-02T09:49:40.000Z</time>
      </trkpt>
      <trkpt lat="43.77917" lon="7.11653">
        <ele>712.59997558594</ele>
        <time>2023-08-02T09:49:41.000Z</time>
      </trkpt>
      <trkpt lat="43.77916" lon="7.11655">
        <ele>712.79998779297</ele>
        <time>2023-08-02T09:49:42.000Z</time>
      </trkpt>
      <trkpt lat="43.77916" lon="7.11657">
        <ele>713.40002441406</ele>
        <time>2023-08-02T09:49:43.000Z</time>
      </trkpt>
      <trkpt lat="43.77915" lon="7.11659">
        <ele>713.79998779297</ele>
        <time>2023-08-02T09:49:44.000Z</time>
      </trkpt>
      <trkpt lat="43.77913" lon="7.11659">
        <ele>713.79998779297</ele>
        <time>2023-08-02T09:49:45.000Z</time>
      </trkpt>
      <trkpt lat="43.77912" lon="7.11661">
        <ele>714</ele>
        <time>2023-08-02T09:49:46.000Z</time>
      </trkpt>
      <trkpt lat="43.7791" lon="7.11662">
        <ele>714.59997558594</ele>
        <time>2023-08-02T09:49:47.000Z</time>
      </trkpt>
      <trkpt lat="43.77908" lon="7.11664">
        <ele>714.79998779297</ele>
        <time>2023-08-02T09:49:48.000Z</time>
      </trkpt>
      <trkpt lat="43.77906" lon="7.11665">
        <ele>715</ele>
        <time>2023-08-02T09:49:49.000Z</time>
      </trkpt>
      <trkpt lat="43.77905" lon="7.11667">
        <ele>715.59997558594</ele>
        <time>2023-08-02T09:49:50.000Z</time>
      </trkpt>
      <trkpt lat="43.77903" lon="7.11668">
        <ele>716.20001220703</ele>
        <time>2023-08-02T09:49:51.000Z</time>
      </trkpt>
      <trkpt lat="43.77901" lon="7.11669">
        <ele>716.40002441406</ele>
        <time>2023-08-02T09:49:52.000Z</time>
      </trkpt>
      <trkpt lat="43.77899" lon="7.1167">
        <ele>716.79998779297</ele>
        <time>2023-08-02T09:49:53.000Z</time>
      </trkpt>
      <trkpt lat="43.77897" lon="7.11671">
        <ele>717.20001220703</ele>
        <time>2023-08-02T09:49:54.000Z</time>
      </trkpt>
      <trkpt lat="43.77896" lon="7.11672">
        <ele>717.79998779297</ele>
        <time>2023-08-02T09:49:55.000Z</time>
      </trkpt>
      <trkpt lat="43.77894" lon="7.11674">
        <ele>718.40002441406</ele>
        <time>2023-08-02T09:49:56.000Z</time>
      </trkpt>
      <trkpt lat="43.77892" lon="7.11675">
        <ele>718.79998779297</ele>
        <time>2023-08-02T09:49:57.000Z</time>
      </trkpt>
      <trkpt lat="43.77891" lon="7.11677">
        <ele>719.20001220703</ele>
        <time>2023-08-02T09:49:58.000Z</time>
      </trkpt>
      <trkpt lat="43.77889" lon="7.11679">
        <ele>719.59997558594</ele>
        <time>2023-08-02T09:49:59.000Z</time>
      </trkpt>
      <trkpt lat="43.77888" lon="7.1168">
        <ele>720</ele>
        <time>2023-08-02T09:50:00.000Z</time>
      </trkpt>
      <trkpt lat="43.77888" lon="7.11682">
        <ele>720.40002441406</ele>
        <time>2023-08-02T09:50:01.000Z</time>
      </trkpt>
      <trkpt lat="43.77886" lon="7.11682">
        <ele>720.79998779297</ele>
        <time>2023-08-02T09:50:02.000Z</time>
      </trkpt>
      <trkpt lat="43.77885" lon="7.11683">
        <ele>721</ele>
        <time>2023-08-02T09:50:03.000Z</time>
      </trkpt>
      <trkpt lat="43.77883" lon="7.11684">
        <ele>721.59997558594</ele>
        <time>2023-08-02T09:50:04.000Z</time>
      </trkpt>
      <trkpt lat="43.77881" lon="7.11685">
        <ele>722</ele>
        <time>2023-08-02T09:50:05.000Z</time>
      </trkpt>
      <trkpt lat="43.7788" lon="7.11686">
        <ele>722.40002441406</ele>
        <time>2023-08-02T09:50:06.000Z</time>
      </trkpt>
      <trkpt lat="43.77878" lon="7.11686">
        <ele>722.59997558594</ele>
        <time>2023-08-02T09:50:07.000Z</time>
      </trkpt>
      <trkpt lat="43.77877" lon="7.11687">
        <ele>723</ele>
        <time>2023-08-02T09:50:08.000Z</time>
      </trkpt>
      <trkpt lat="43.77877" lon="7.11686">
        <ele>723</ele>
        <time>2023-08-02T09:50:09.000Z</time>
      </trkpt>
      <trkpt lat="43.77877" lon="7.11687">
        <ele>723.40002441406</ele>
        <time>2023-08-02T09:50:10.000Z</time>
      </trkpt>
      <trkpt lat="43.77877" lon="7.11687">
        <ele>723.79998779297</ele>
        <time>2023-08-02T09:50:11.000Z</time>
      </trkpt>
      <trkpt lat="43.77877" lon="7.11687">
        <ele>724</ele>
        <time>2023-08-02T09:50:12.000Z</time>
      </trkpt>
      <trkpt lat="43.77877" lon="7.11686">
        <ele>724</ele>
        <time>2023-08-02T09:50:13.000Z</time>
      </trkpt>
      <trkpt lat="43.77878" lon="7.11685">
        <ele>724</ele>
        <time>2023-08-02T09:50:14.000Z</time>
      </trkpt>
      <trkpt lat="43.77878" lon="7.11685">
        <ele>724.20001220703</ele>
        <time>2023-08-02T09:50:15.000Z</time>
      </trkpt>
      <trkpt lat="43.77878" lon="7.11686">
        <ele>724.20001220703</ele>
        <time>2023-08-02T09:50:16.000Z</time>
      </trkpt>
      <trkpt lat="43.77877" lon="7.11686">
        <ele>724.20001220703</ele>
        <time>2023-08-02T09:50:17.000Z</time>
      </trkpt>
      <trkpt lat="43.77875" lon="7.11687">
        <ele>724.20001220703</ele>
        <time>2023-08-02T09:50:18.000Z</time>
      </trkpt>
      <trkpt lat="43.77874" lon="7.11687">
        <ele>724.20001220703</ele>
        <time>2023-08-02T09:50:19.000Z</time>
      </trkpt>
      <trkpt lat="43.77872" lon="7.11688">
        <ele>724.20001220703</ele>
        <time>2023-08-02T09:50:20.000Z</time>
      </trkpt>
      <trkpt lat="43.77871" lon="7.11689">
        <ele>724.20001220703</ele>
        <time>2023-08-02T09:50:21.000Z</time>
      </trkpt>
      <trkpt lat="43.77869" lon="7.11691">
        <ele>724.40002441406</ele>
        <time>2023-08-02T09:50:22.000Z</time>
      </trkpt>
      <trkpt lat="43.77868" lon="7.11693">
        <ele>724.59997558594</ele>
        <time>2023-08-02T09:50:23.000Z</time>
      </trkpt>
      <trkpt lat="43.77867" lon="7.11694">
        <ele>725</ele>
        <time>2023-08-02T09:50:24.000Z</time>
      </trkpt>
      <trkpt lat="43.77865" lon="7.11694">
        <ele>725.20001220703</ele>
        <time>2023-08-02T09:50:25.000Z</time>
      </trkpt>
      <trkpt lat="43.77863" lon="7.11695">
        <ele>725.59997558594</ele>
        <time>2023-08-02T09:50:26.000Z</time>
      </trkpt>
      <trkpt lat="43.77861" lon="7.11695">
        <ele>725.79998779297</ele>
        <time>2023-08-02T09:50:27.000Z</time>
      </trkpt>
      <trkpt lat="43.77859" lon="7.11696">
        <ele>726.20001220703</ele>
        <time>2023-08-02T09:50:28.000Z</time>
      </trkpt>
      <trkpt lat="43.77857" lon="7.11696">
        <ele>726.40002441406</ele>
        <time>2023-08-02T09:50:29.000Z</time>
      </trkpt>
      <trkpt lat="43.77855" lon="7.11697">
        <ele>726.59997558594</ele>
        <time>2023-08-02T09:50:30.000Z</time>
      </trkpt>
      <trkpt lat="43.77853" lon="7.11697">
        <ele>726.79998779297</ele>
        <time>2023-08-02T09:50:31.000Z</time>
      </trkpt>
      <trkpt lat="43.77852" lon="7.11697">
        <ele>727</ele>
        <time>2023-08-02T09:50:32.000Z</time>
      </trkpt>
      <trkpt lat="43.7785" lon="7.11698">
        <ele>727</ele>
        <time>2023-08-02T09:50:33.000Z</time>
      </trkpt>
      <trkpt lat="43.77848" lon="7.11699">
        <ele>727.40002441406</ele>
        <time>2023-08-02T09:50:34.000Z</time>
      </trkpt>
      <trkpt lat="43.77846" lon="7.11699">
        <ele>727.59997558594</ele>
        <time>2023-08-02T09:50:35.000Z</time>
      </trkpt>
      <trkpt lat="43.77844" lon="7.11699">
        <ele>728</ele>
        <time>2023-08-02T09:50:36.000Z</time>
      </trkpt>
      <trkpt lat="43.77842" lon="7.11698">
        <ele>728.59997558594</ele>
        <time>2023-08-02T09:50:37.000Z</time>
      </trkpt>
      <trkpt lat="43.7784" lon="7.11698">
        <ele>729</ele>
        <time>2023-08-02T09:50:38.000Z</time>
      </trkpt>
      <trkpt lat="43.77838" lon="7.11699">
        <ele>729.40002441406</ele>
        <time>2023-08-02T09:50:39.000Z</time>
      </trkpt>
      <trkpt lat="43.77836" lon="7.117">
        <ele>729.59997558594</ele>
        <time>2023-08-02T09:50:40.000Z</time>
      </trkpt>
      <trkpt lat="43.77835" lon="7.11701">
        <ele>729.79998779297</ele>
        <time>2023-08-02T09:50:41.000Z</time>
      </trkpt>
      <trkpt lat="43.77833" lon="7.11702">
        <ele>730</ele>
        <time>2023-08-02T09:50:42.000Z</time>
      </trkpt>
      <trkpt lat="43.77831" lon="7.11703">
        <ele>730.59997558594</ele>
        <time>2023-08-02T09:50:43.000Z</time>
      </trkpt>
      <trkpt lat="43.77829" lon="7.11703">
        <ele>730.79998779297</ele>
        <time>2023-08-02T09:50:44.000Z</time>
      </trkpt>
      <trkpt lat="43.77827" lon="7.11703">
        <ele>731</ele>
        <time>2023-08-02T09:50:45.000Z</time>
      </trkpt>
      <trkpt lat="43.77825" lon="7.11702">
        <ele>731.59997558594</ele>
        <time>2023-08-02T09:50:46.000Z</time>
      </trkpt>
      <trkpt lat="43.77824" lon="7.11702">
        <ele>731.79998779297</ele>
        <time>2023-08-02T09:50:47.000Z</time>
      </trkpt>
      <trkpt lat="43.77822" lon="7.11702">
        <ele>732.40002441406</ele>
        <time>2023-08-02T09:50:48.000Z</time>
      </trkpt>
      <trkpt lat="43.7782" lon="7.11701">
        <ele>732.79998779297</ele>
        <time>2023-08-02T09:50:49.000Z</time>
      </trkpt>
      <trkpt lat="43.77818" lon="7.11701">
        <ele>733</ele>
        <time>2023-08-02T09:50:50.000Z</time>
      </trkpt>
      <trkpt lat="43.77817" lon="7.11701">
        <ele>733</ele>
        <time>2023-08-02T09:50:51.000Z</time>
      </trkpt>
      <trkpt lat="43.77816" lon="7.117">
        <ele>733.20001220703</ele>
        <time>2023-08-02T09:50:52.000Z</time>
      </trkpt>
      <trkpt lat="43.77814" lon="7.117">
        <ele>733.40002441406</ele>
        <time>2023-08-02T09:50:53.000Z</time>
      </trkpt>
      <trkpt lat="43.77813" lon="7.117">
        <ele>733.59997558594</ele>
        <time>2023-08-02T09:50:54.000Z</time>
      </trkpt>
      <trkpt lat="43.77813" lon="7.117">
        <ele>733.59997558594</ele>
        <time>2023-08-02T09:50:55.000Z</time>
      </trkpt>
      <trkpt lat="43.77813" lon="7.117">
        <ele>733.79998779297</ele>
        <time>2023-08-02T09:50:56.000Z</time>
      </trkpt>
      <trkpt lat="43.77813" lon="7.117">
        <ele>733.79998779297</ele>
        <time>2023-08-02T09:50:57.000Z</time>
      </trkpt>
      <trkpt lat="43.77813" lon="7.117">
        <ele>733.79998779297</ele>
        <time>2023-08-02T09:50:58.000Z</time>
      </trkpt>
      <trkpt lat="43.77813" lon="7.117">
        <ele>733.79998779297</ele>
        <time>2023-08-02T09:50:59.000Z</time>
      </trkpt>
      <trkpt lat="43.77813" lon="7.117">
        <ele>733.79998779297</ele>
        <time>2023-08-02T09:51:00.000Z</time>
      </trkpt>
      <trkpt lat="43.77813" lon="7.117">
        <ele>733.79998779297</ele>
        <time>2023-08-02T09:51:01.000Z</time>
      </trkpt>
      <trkpt lat="43.77813" lon="7.117">
        <ele>733.79998779297</ele>
        <time>2023-08-02T09:51:02.000Z</time>
      </trkpt>
      <trkpt lat="43.77813" lon="7.117">
        <ele>733.79998779297</ele>
        <time>2023-08-02T09:51:03.000Z</time>
      </trkpt>
      <trkpt lat="43.77813" lon="7.117">
        <ele>733.79998779297</ele>
        <time>2023-08-02T09:51:04.000Z</time>
      </trkpt>
      <trkpt lat="43.77813" lon="7.117">
        <ele>733.79998779297</ele>
        <time>2023-08-02T09:51:05.000Z</time>
      </trkpt>
      <trkpt lat="43.77813" lon="7.117">
        <ele>733.79998779297</ele>
        <time>2023-08-02T09:51:06.000Z</time>
      </trkpt>
      <trkpt lat="43.77813" lon="7.117">
        <ele>733.79998779297</ele>
        <time>2023-08-02T09:51:07.000Z</time>
      </trkpt>
      <trkpt lat="43.77813" lon="7.117">
        <ele>733.79998779297</ele>
        <time>2023-08-02T09:51:08.000Z</time>
      </trkpt>
      <trkpt lat="43.77813" lon="7.117">
        <ele>733.79998779297</ele>
        <time>2023-08-02T09:51:09.000Z</time>
      </trkpt>
      <trkpt lat="43.77813" lon="7.117">
        <ele>733.79998779297</ele>
        <time>2023-08-02T09:51:10.000Z</time>
      </trkpt>
      <trkpt lat="43.77813" lon="7.117">
        <ele>733.79998779297</ele>
        <time>2023-08-02T09:51:11.000Z</time>
      </trkpt>
      <trkpt lat="43.77813" lon="7.117">
        <ele>733.79998779297</ele>
        <time>2023-08-02T09:51:12.000Z</time>
      </trkpt>
      <trkpt lat="43.77813" lon="7.117">
        <ele>733.79998779297</ele>
        <time>2023-08-02T09:51:13.000Z</time>
      </trkpt>
      <trkpt lat="43.77813" lon="7.117">
        <ele>733.79998779297</ele>
        <time>2023-08-02T09:51:14.000Z</time>
      </trkpt>
      <trkpt lat="43.77813" lon="7.117">
        <ele>733.79998779297</ele>
        <time>2023-08-02T09:51:15.000Z</time>
      </trkpt>
      <trkpt lat="43.77813" lon="7.117">
        <ele>733.79998779297</ele>
        <time>2023-08-02T09:51:16.000Z</time>
      </trkpt>
      <trkpt lat="43.77813" lon="7.117">
        <ele>733.79998779297</ele>
        <time>2023-08-02T09:51:17.000Z</time>
      </trkpt>
      <trkpt lat="43.77813" lon="7.117">
        <ele>733.79998779297</ele>
        <time>2023-08-02T09:51:18.000Z</time>
      </trkpt>
      <trkpt lat="43.77813" lon="7.117">
        <ele>733.79998779297</ele>
        <time>2023-08-02T09:51:19.000Z</time>
      </trkpt>
      <trkpt lat="43.77813" lon="7.117">
        <ele>733.79998779297</ele>
        <time>2023-08-02T09:51:20.000Z</time>
      </trkpt>
      <trkpt lat="43.77813" lon="7.117">
        <ele>733.79998779297</ele>
        <time>2023-08-02T09:51:21.000Z</time>
      </trkpt>
      <trkpt lat="43.77813" lon="7.117">
        <ele>733.79998779297</ele>
        <time>2023-08-02T09:51:22.000Z</time>
      </trkpt>
      <trkpt lat="43.77813" lon="7.117">
        <ele>733.59997558594</ele>
        <time>2023-08-02T09:51:23.000Z</time>
      </trkpt>
      <trkpt lat="43.77813" lon="7.117">
        <ele>733.59997558594</ele>
        <time>2023-08-02T09:51:24.000Z</time>
      </trkpt>
      <trkpt lat="43.77813" lon="7.117">
        <ele>733.59997558594</ele>
        <time>2023-08-02T09:51:25.000Z</time>
      </trkpt>
      <trkpt lat="43.77813" lon="7.117">
        <ele>733.40002441406</ele>
        <time>2023-08-02T09:51:26.000Z</time>
      </trkpt>
      <trkpt lat="43.77813" lon="7.117">
        <ele>733.40002441406</ele>
        <time>2023-08-02T09:51:27.000Z</time>
      </trkpt>
      <trkpt lat="43.77813" lon="7.117">
        <ele>733.40002441406</ele>
        <time>2023-08-02T09:51:28.000Z</time>
      </trkpt>
      <trkpt lat="43.77813" lon="7.117">
        <ele>733.40002441406</ele>
        <time>2023-08-02T09:51:29.000Z</time>
      </trkpt>
      <trkpt lat="43.77813" lon="7.117">
        <ele>733.20001220703</ele>
        <time>2023-08-02T09:51:30.000Z</time>
      </trkpt>
      <trkpt lat="43.77813" lon="7.117">
        <ele>733.20001220703</ele>
        <time>2023-08-02T09:51:31.000Z</time>
      </trkpt>
      <trkpt lat="43.77813" lon="7.117">
        <ele>733.20001220703</ele>
        <time>2023-08-02T09:51:32.000Z</time>
      </trkpt>
      <trkpt lat="43.77813" lon="7.117">
        <ele>733.20001220703</ele>
        <time>2023-08-02T09:51:33.000Z</time>
      </trkpt>
      <trkpt lat="43.77813" lon="7.117">
        <ele>733.59997558594</ele>
        <time>2023-08-02T09:51:34.000Z</time>
      </trkpt>
      <trkpt lat="43.77813" lon="7.117">
        <ele>733.59997558594</ele>
        <time>2023-08-02T09:51:35.000Z</time>
      </trkpt>
      <trkpt lat="43.77813" lon="7.117">
        <ele>734.20001220703</ele>
        <time>2023-08-02T09:51:36.000Z</time>
      </trkpt>
      <trkpt lat="43.77813" lon="7.117">
        <ele>734.20001220703</ele>
        <time>2023-08-02T09:51:37.000Z</time>
      </trkpt>
      <trkpt lat="43.77813" lon="7.117">
        <ele>734.20001220703</ele>
        <time>2023-08-02T09:51:38.000Z</time>
      </trkpt>
      <trkpt lat="43.77813" lon="7.117">
        <ele>734.20001220703</ele>
        <time>2023-08-02T09:51:39.000Z</time>
      </trkpt>
      <trkpt lat="43.77813" lon="7.117">
        <ele>734.20001220703</ele>
        <time>2023-08-02T09:51:40.000Z</time>
      </trkpt>
      <trkpt lat="43.77813" lon="7.117">
        <ele>734</ele>
        <time>2023-08-02T09:51:41.000Z</time>
      </trkpt>
      <trkpt lat="43.77813" lon="7.117">
        <ele>734</ele>
        <time>2023-08-02T09:51:42.000Z</time>
      </trkpt>
      <trkpt lat="43.77813" lon="7.117">
        <ele>734</ele>
        <time>2023-08-02T09:51:43.000Z</time>
      </trkpt>
      <trkpt lat="43.77813" lon="7.117">
        <ele>734</ele>
        <time>2023-08-02T09:51:44.000Z</time>
      </trkpt>
      <trkpt lat="43.77813" lon="7.117">
        <ele>734</ele>
        <time>2023-08-02T09:51:45.000Z</time>
      </trkpt>
      <trkpt lat="43.77813" lon="7.117">
        <ele>734</ele>
        <time>2023-08-02T09:51:46.000Z</time>
      </trkpt>
      <trkpt lat="43.77813" lon="7.117">
        <ele>734</ele>
        <time>2023-08-02T09:51:47.000Z</time>
      </trkpt>
      <trkpt lat="43.77813" lon="7.117">
        <ele>734</ele>
        <time>2023-08-02T09:51:48.000Z</time>
      </trkpt>
      <trkpt lat="43.77813" lon="7.117">
        <ele>734</ele>
        <time>2023-08-02T09:51:49.000Z</time>
      </trkpt>
      <trkpt lat="43.77813" lon="7.117">
        <ele>734</ele>
        <time>2023-08-02T09:51:50.000Z</time>
      </trkpt>
      <trkpt lat="43.77813" lon="7.117">
        <ele>734</ele>
        <time>2023-08-02T09:51:51.000Z</time>
      </trkpt>
      <trkpt lat="43.77813" lon="7.117">
        <ele>734</ele>
        <time>2023-08-02T09:51:52.000Z</time>
      </trkpt>
      <trkpt lat="43.77813" lon="7.117">
        <ele>734</ele>
        <time>2023-08-02T09:51:53.000Z</time>
      </trkpt>
      <trkpt lat="43.77813" lon="7.11702">
        <ele>734</ele>
        <time>2023-08-02T09:51:54.000Z</time>
      </trkpt>
      <trkpt lat="43.77813" lon="7.11702">
        <ele>734</ele>
        <time>2023-08-02T09:51:55.000Z</time>
      </trkpt>
      <trkpt lat="43.77813" lon="7.11702">
        <ele>734</ele>
        <time>2023-08-02T09:51:56.000Z</time>
      </trkpt>
      <trkpt lat="43.77813" lon="7.11702">
        <ele>734</ele>
        <time>2023-08-02T09:51:57.000Z</time>
      </trkpt>
      <trkpt lat="43.77813" lon="7.11702">
        <ele>734</ele>
        <time>2023-08-02T09:51:58.000Z</time>
      </trkpt>
      <trkpt lat="43.77813" lon="7.11702">
        <ele>733.79998779297</ele>
        <time>2023-08-02T09:51:59.000Z</time>
      </trkpt>
      <trkpt lat="43.77813" lon="7.11702">
        <ele>733.79998779297</ele>
        <time>2023-08-02T09:52:00.000Z</time>
      </trkpt>
      <trkpt lat="43.77813" lon="7.11702">
        <ele>733.79998779297</ele>
        <time>2023-08-02T09:52:01.000Z</time>
      </trkpt>
      <trkpt lat="43.77813" lon="7.11702">
        <ele>733.79998779297</ele>
        <time>2023-08-02T09:52:02.000Z</time>
      </trkpt>
      <trkpt lat="43.77813" lon="7.11702">
        <ele>733.79998779297</ele>
        <time>2023-08-02T09:52:03.000Z</time>
      </trkpt>
      <trkpt lat="43.77813" lon="7.11702">
        <ele>734</ele>
        <time>2023-08-02T09:52:04.000Z</time>
      </trkpt>
      <trkpt lat="43.77813" lon="7.11702">
        <ele>734</ele>
        <time>2023-08-02T09:52:05.000Z</time>
      </trkpt>
      <trkpt lat="43.77813" lon="7.11702">
        <ele>734</ele>
        <time>2023-08-02T09:52:06.000Z</time>
      </trkpt>
      <trkpt lat="43.77813" lon="7.11702">
        <ele>734</ele>
        <time>2023-08-02T09:52:07.000Z</time>
      </trkpt>
      <trkpt lat="43.77813" lon="7.11702">
        <ele>734</ele>
        <time>2023-08-02T09:52:08.000Z</time>
      </trkpt>
      <trkpt lat="43.77813" lon="7.11702">
        <ele>734</ele>
        <time>2023-08-02T09:52:09.000Z</time>
      </trkpt>
      <trkpt lat="43.77813" lon="7.11702">
        <ele>734</ele>
        <time>2023-08-02T09:52:10.000Z</time>
      </trkpt>
      <trkpt lat="43.77813" lon="7.11702">
        <ele>734</ele>
        <time>2023-08-02T09:52:11.000Z</time>
      </trkpt>
      <trkpt lat="43.77813" lon="7.11702">
        <ele>733.79998779297</ele>
        <time>2023-08-02T09:52:12.000Z</time>
      </trkpt>
      <trkpt lat="43.77813" lon="7.11702">
        <ele>733.79998779297</ele>
        <time>2023-08-02T09:52:13.000Z</time>
      </trkpt>
      <trkpt lat="43.77813" lon="7.11702">
        <ele>733.79998779297</ele>
        <time>2023-08-02T09:52:14.000Z</time>
      </trkpt>
      <trkpt lat="43.77811" lon="7.11703">
        <ele>733.79998779297</ele>
        <time>2023-08-02T09:52:15.000Z</time>
      </trkpt>
      <trkpt lat="43.77811" lon="7.11703">
        <ele>733.79998779297</ele>
        <time>2023-08-02T09:52:16.000Z</time>
      </trkpt>
      <trkpt lat="43.77811" lon="7.11702">
        <ele>733.79998779297</ele>
        <time>2023-08-02T09:52:17.000Z</time>
      </trkpt>
      <trkpt lat="43.77811" lon="7.11702">
        <ele>733.79998779297</ele>
        <time>2023-08-02T09:52:18.000Z</time>
      </trkpt>
      <trkpt lat="43.77811" lon="7.11702">
        <ele>733.79998779297</ele>
        <time>2023-08-02T09:52:19.000Z</time>
      </trkpt>
      <trkpt lat="43.77811" lon="7.11702">
        <ele>733.79998779297</ele>
        <time>2023-08-02T09:52:20.000Z</time>
      </trkpt>
      <trkpt lat="43.77811" lon="7.11702">
        <ele>733.79998779297</ele>
        <time>2023-08-02T09:52:21.000Z</time>
      </trkpt>
      <trkpt lat="43.77811" lon="7.11702">
        <ele>733.79998779297</ele>
        <time>2023-08-02T09:52:22.000Z</time>
      </trkpt>
      <trkpt lat="43.77811" lon="7.11702">
        <ele>733.79998779297</ele>
        <time>2023-08-02T09:52:23.000Z</time>
      </trkpt>
      <trkpt lat="43.77811" lon="7.11702">
        <ele>733.79998779297</ele>
        <time>2023-08-02T09:52:24.000Z</time>
      </trkpt>
      <trkpt lat="43.77811" lon="7.11702">
        <ele>733.79998779297</ele>
        <time>2023-08-02T09:52:25.000Z</time>
      </trkpt>
      <trkpt lat="43.77811" lon="7.11702">
        <ele>733.79998779297</ele>
        <time>2023-08-02T09:52:26.000Z</time>
      </trkpt>
      <trkpt lat="43.77811" lon="7.11702">
        <ele>733.79998779297</ele>
        <time>2023-08-02T09:52:27.000Z</time>
      </trkpt>
      <trkpt lat="43.77811" lon="7.11702">
        <ele>733.79998779297</ele>
        <time>2023-08-02T09:52:28.000Z</time>
      </trkpt>
      <trkpt lat="43.77811" lon="7.11702">
        <ele>733.79998779297</ele>
        <time>2023-08-02T09:52:29.000Z</time>
      </trkpt>
      <trkpt lat="43.77811" lon="7.11702">
        <ele>733.79998779297</ele>
        <time>2023-08-02T09:52:30.000Z</time>
      </trkpt>
      <trkpt lat="43.77811" lon="7.11702">
        <ele>733.79998779297</ele>
        <time>2023-08-02T09:52:31.000Z</time>
      </trkpt>
      <trkpt lat="43.77811" lon="7.11702">
        <ele>733.79998779297</ele>
        <time>2023-08-02T09:52:32.000Z</time>
      </trkpt>
      <trkpt lat="43.77811" lon="7.11702">
        <ele>733.79998779297</ele>
        <time>2023-08-02T09:52:33.000Z</time>
      </trkpt>
      <trkpt lat="43.77811" lon="7.11702">
        <ele>733.79998779297</ele>
        <time>2023-08-02T09:52:34.000Z</time>
      </trkpt>
      <trkpt lat="43.77811" lon="7.11702">
        <ele>733.79998779297</ele>
        <time>2023-08-02T09:52:35.000Z</time>
      </trkpt>
      <trkpt lat="43.77811" lon="7.11702">
        <ele>733.79998779297</ele>
        <time>2023-08-02T09:52:36.000Z</time>
      </trkpt>
      <trkpt lat="43.77811" lon="7.11702">
        <ele>733.79998779297</ele>
        <time>2023-08-02T09:52:37.000Z</time>
      </trkpt>
      <trkpt lat="43.77811" lon="7.11702">
        <ele>733.79998779297</ele>
        <time>2023-08-02T09:52:38.000Z</time>
      </trkpt>
      <trkpt lat="43.77811" lon="7.11702">
        <ele>733.79998779297</ele>
        <time>2023-08-02T09:52:39.000Z</time>
      </trkpt>
      <trkpt lat="43.77811" lon="7.11702">
        <ele>733.79998779297</ele>
        <time>2023-08-02T09:52:40.000Z</time>
      </trkpt>
      <trkpt lat="43.77811" lon="7.11702">
        <ele>733.79998779297</ele>
        <time>2023-08-02T09:52:41.000Z</time>
      </trkpt>
      <trkpt lat="43.77811" lon="7.11702">
        <ele>733.79998779297</ele>
        <time>2023-08-02T09:52:42.000Z</time>
      </trkpt>
      <trkpt lat="43.77811" lon="7.11702">
        <ele>733.79998779297</ele>
        <time>2023-08-02T09:52:43.000Z</time>
      </trkpt>
      <trkpt lat="43.77811" lon="7.11702">
        <ele>733.79998779297</ele>
        <time>2023-08-02T09:52:44.000Z</time>
      </trkpt>
      <trkpt lat="43.77811" lon="7.11702">
        <ele>733.79998779297</ele>
        <time>2023-08-02T09:52:45.000Z</time>
      </trkpt>
      <trkpt lat="43.77811" lon="7.11702">
        <ele>733.79998779297</ele>
        <time>2023-08-02T09:52:46.000Z</time>
      </trkpt>
      <trkpt lat="43.77811" lon="7.11702">
        <ele>733.79998779297</ele>
        <time>2023-08-02T09:52:47.000Z</time>
      </trkpt>
      <trkpt lat="43.77811" lon="7.11702">
        <ele>733.79998779297</ele>
        <time>2023-08-02T09:52:48.000Z</time>
      </trkpt>
      <trkpt lat="43.77811" lon="7.11702">
        <ele>733.79998779297</ele>
        <time>2023-08-02T09:52:49.000Z</time>
      </trkpt>
      <trkpt lat="43.77811" lon="7.11702">
        <ele>733.79998779297</ele>
        <time>2023-08-02T09:52:50.000Z</time>
      </trkpt>
      <trkpt lat="43.77811" lon="7.11702">
        <ele>733.79998779297</ele>
        <time>2023-08-02T09:52:51.000Z</time>
      </trkpt>
      <trkpt lat="43.77811" lon="7.11702">
        <ele>733.79998779297</ele>
        <time>2023-08-02T09:52:52.000Z</time>
      </trkpt>
      <trkpt lat="43.77812" lon="7.11702">
        <ele>733.79998779297</ele>
        <time>2023-08-02T09:52:53.000Z</time>
      </trkpt>
      <trkpt lat="43.77812" lon="7.11702">
        <ele>733.79998779297</ele>
        <time>2023-08-02T09:52:54.000Z</time>
      </trkpt>
      <trkpt lat="43.77812" lon="7.11702">
        <ele>733.79998779297</ele>
        <time>2023-08-02T09:52:55.000Z</time>
      </trkpt>
      <trkpt lat="43.77812" lon="7.11702">
        <ele>733.79998779297</ele>
        <time>2023-08-02T09:52:56.000Z</time>
      </trkpt>
      <trkpt lat="43.77812" lon="7.11702">
        <ele>733.79998779297</ele>
        <time>2023-08-02T09:52:57.000Z</time>
      </trkpt>
      <trkpt lat="43.77812" lon="7.117">
        <ele>733.79998779297</ele>
        <time>2023-08-02T09:52:58.000Z</time>
      </trkpt>
      <trkpt lat="43.77811" lon="7.117">
        <ele>733.79998779297</ele>
        <time>2023-08-02T09:52:59.000Z</time>
      </trkpt>
      <trkpt lat="43.7781" lon="7.11699">
        <ele>733.79998779297</ele>
        <time>2023-08-02T09:53:00.000Z</time>
      </trkpt>
      <trkpt lat="43.77808" lon="7.117">
        <ele>733.79998779297</ele>
        <time>2023-08-02T09:53:01.000Z</time>
      </trkpt>
      <trkpt lat="43.77807" lon="7.117">
        <ele>733.79998779297</ele>
        <time>2023-08-02T09:53:02.000Z</time>
      </trkpt>
      <trkpt lat="43.77805" lon="7.117">
        <ele>733.79998779297</ele>
        <time>2023-08-02T09:53:03.000Z</time>
      </trkpt>
      <trkpt lat="43.77804" lon="7.117">
        <ele>734</ele>
        <time>2023-08-02T09:53:04.000Z</time>
      </trkpt>
      <trkpt lat="43.77802" lon="7.11702">
        <ele>734</ele>
        <time>2023-08-02T09:53:05.000Z</time>
      </trkpt>
      <trkpt lat="43.77799" lon="7.11703">
        <ele>734</ele>
        <time>2023-08-02T09:53:06.000Z</time>
      </trkpt>
      <trkpt lat="43.77797" lon="7.11705">
        <ele>734.20001220703</ele>
        <time>2023-08-02T09:53:07.000Z</time>
      </trkpt>
      <trkpt lat="43.77795" lon="7.11706">
        <ele>734.40002441406</ele>
        <time>2023-08-02T09:53:08.000Z</time>
      </trkpt>
      <trkpt lat="43.77792" lon="7.11707">
        <ele>734.59997558594</ele>
        <time>2023-08-02T09:53:09.000Z</time>
      </trkpt>
      <trkpt lat="43.7779" lon="7.11709">
        <ele>734.59997558594</ele>
        <time>2023-08-02T09:53:10.000Z</time>
      </trkpt>
      <trkpt lat="43.77788" lon="7.1171">
        <ele>734.79998779297</ele>
        <time>2023-08-02T09:53:11.000Z</time>
      </trkpt>
      <trkpt lat="43.77787" lon="7.11712">
        <ele>734.79998779297</ele>
        <time>2023-08-02T09:53:12.000Z</time>
      </trkpt>
      <trkpt lat="43.77785" lon="7.11713">
        <ele>735</ele>
        <time>2023-08-02T09:53:13.000Z</time>
      </trkpt>
      <trkpt lat="43.77782" lon="7.11714">
        <ele>735.20001220703</ele>
        <time>2023-08-02T09:53:14.000Z</time>
      </trkpt>
      <trkpt lat="43.7778" lon="7.11715">
        <ele>735.20001220703</ele>
        <time>2023-08-02T09:53:15.000Z</time>
      </trkpt>
      <trkpt lat="43.77778" lon="7.11715">
        <ele>735.40002441406</ele>
        <time>2023-08-02T09:53:16.000Z</time>
      </trkpt>
      <trkpt lat="43.77775" lon="7.11716">
        <ele>735.59997558594</ele>
        <time>2023-08-02T09:53:17.000Z</time>
      </trkpt>
      <trkpt lat="43.77773" lon="7.11718">
        <ele>735.59997558594</ele>
        <time>2023-08-02T09:53:18.000Z</time>
      </trkpt>
      <trkpt lat="43.7777" lon="7.1172">
        <ele>735.59997558594</ele>
        <time>2023-08-02T09:53:19.000Z</time>
      </trkpt>
      <trkpt lat="43.77768" lon="7.11722">
        <ele>735.59997558594</ele>
        <time>2023-08-02T09:53:20.000Z</time>
      </trkpt>
      <trkpt lat="43.77765" lon="7.11723">
        <ele>735.59997558594</ele>
        <time>2023-08-02T09:53:21.000Z</time>
      </trkpt>
      <trkpt lat="43.77763" lon="7.11725">
        <ele>735.59997558594</ele>
        <time>2023-08-02T09:53:22.000Z</time>
      </trkpt>
      <trkpt lat="43.7776" lon="7.11727">
        <ele>735.59997558594</ele>
        <time>2023-08-02T09:53:23.000Z</time>
      </trkpt>
      <trkpt lat="43.77757" lon="7.11729">
        <ele>735.79998779297</ele>
        <time>2023-08-02T09:53:24.000Z</time>
      </trkpt>
      <trkpt lat="43.77754" lon="7.11732">
        <ele>735.79998779297</ele>
        <time>2023-08-02T09:53:25.000Z</time>
      </trkpt>
      <trkpt lat="43.77753" lon="7.11736">
        <ele>735.79998779297</ele>
        <time>2023-08-02T09:53:26.000Z</time>
      </trkpt>
      <trkpt lat="43.77751" lon="7.11738">
        <ele>735.79998779297</ele>
        <time>2023-08-02T09:53:27.000Z</time>
      </trkpt>
      <trkpt lat="43.77749" lon="7.1174">
        <ele>735.79998779297</ele>
        <time>2023-08-02T09:53:28.000Z</time>
      </trkpt>
      <trkpt lat="43.77747" lon="7.11741">
        <ele>735.79998779297</ele>
        <time>2023-08-02T09:53:29.000Z</time>
      </trkpt>
      <trkpt lat="43.77746" lon="7.11744">
        <ele>735.79998779297</ele>
        <time>2023-08-02T09:53:30.000Z</time>
      </trkpt>
      <trkpt lat="43.77744" lon="7.11745">
        <ele>735.79998779297</ele>
        <time>2023-08-02T09:53:31.000Z</time>
      </trkpt>
      <trkpt lat="43.77741" lon="7.11747">
        <ele>735.79998779297</ele>
        <time>2023-08-02T09:53:32.000Z</time>
      </trkpt>
      <trkpt lat="43.77739" lon="7.1175">
        <ele>735.79998779297</ele>
        <time>2023-08-02T09:53:33.000Z</time>
      </trkpt>
      <trkpt lat="43.77736" lon="7.11753">
        <ele>735.79998779297</ele>
        <time>2023-08-02T09:53:34.000Z</time>
      </trkpt>
      <trkpt lat="43.77734" lon="7.11755">
        <ele>735.79998779297</ele>
        <time>2023-08-02T09:53:35.000Z</time>
      </trkpt>
      <trkpt lat="43.77731" lon="7.11757">
        <ele>735.79998779297</ele>
        <time>2023-08-02T09:53:36.000Z</time>
      </trkpt>
      <trkpt lat="43.77728" lon="7.11759">
        <ele>735.79998779297</ele>
        <time>2023-08-02T09:53:37.000Z</time>
      </trkpt>
      <trkpt lat="43.77726" lon="7.11761">
        <ele>736</ele>
        <time>2023-08-02T09:53:38.000Z</time>
      </trkpt>
      <trkpt lat="43.77724" lon="7.11764">
        <ele>736</ele>
        <time>2023-08-02T09:53:39.000Z</time>
      </trkpt>
      <trkpt lat="43.77722" lon="7.11767">
        <ele>736</ele>
        <time>2023-08-02T09:53:40.000Z</time>
      </trkpt>
      <trkpt lat="43.77721" lon="7.11769">
        <ele>736</ele>
        <time>2023-08-02T09:53:41.000Z</time>
      </trkpt>
      <trkpt lat="43.7772" lon="7.11771">
        <ele>736</ele>
        <time>2023-08-02T09:53:42.000Z</time>
      </trkpt>
      <trkpt lat="43.77718" lon="7.11773">
        <ele>736</ele>
        <time>2023-08-02T09:53:43.000Z</time>
      </trkpt>
      <trkpt lat="43.77717" lon="7.11776">
        <ele>736</ele>
        <time>2023-08-02T09:53:44.000Z</time>
      </trkpt>
      <trkpt lat="43.77714" lon="7.11779">
        <ele>736</ele>
        <time>2023-08-02T09:53:45.000Z</time>
      </trkpt>
      <trkpt lat="43.77713" lon="7.11783">
        <ele>736</ele>
        <time>2023-08-02T09:53:46.000Z</time>
      </trkpt>
      <trkpt lat="43.77712" lon="7.11788">
        <ele>736</ele>
        <time>2023-08-02T09:53:47.000Z</time>
      </trkpt>
      <trkpt lat="43.77711" lon="7.11792">
        <ele>736</ele>
        <time>2023-08-02T09:53:48.000Z</time>
      </trkpt>
      <trkpt lat="43.77709" lon="7.11796">
        <ele>735.79998779297</ele>
        <time>2023-08-02T09:53:49.000Z</time>
      </trkpt>
      <trkpt lat="43.77707" lon="7.118">
        <ele>735.79998779297</ele>
        <time>2023-08-02T09:53:50.000Z</time>
      </trkpt>
      <trkpt lat="43.77704" lon="7.11802">
        <ele>735.59997558594</ele>
        <time>2023-08-02T09:53:51.000Z</time>
      </trkpt>
      <trkpt lat="43.77703" lon="7.11806">
        <ele>735.59997558594</ele>
        <time>2023-08-02T09:53:52.000Z</time>
      </trkpt>
      <trkpt lat="43.77701" lon="7.1181">
        <ele>735.40002441406</ele>
        <time>2023-08-02T09:53:53.000Z</time>
      </trkpt>
      <trkpt lat="43.77698" lon="7.11814">
        <ele>735.20001220703</ele>
        <time>2023-08-02T09:53:54.000Z</time>
      </trkpt>
      <trkpt lat="43.77696" lon="7.11818">
        <ele>735</ele>
        <time>2023-08-02T09:53:55.000Z</time>
      </trkpt>
      <trkpt lat="43.77695" lon="7.11823">
        <ele>735</ele>
        <time>2023-08-02T09:53:56.000Z</time>
      </trkpt>
      <trkpt lat="43.77693" lon="7.11827">
        <ele>734.59997558594</ele>
        <time>2023-08-02T09:53:57.000Z</time>
      </trkpt>
      <trkpt lat="43.77691" lon="7.11829">
        <ele>734.20001220703</ele>
        <time>2023-08-02T09:53:58.000Z</time>
      </trkpt>
      <trkpt lat="43.77688" lon="7.11832">
        <ele>734</ele>
        <time>2023-08-02T09:53:59.000Z</time>
      </trkpt>
      <trkpt lat="43.77686" lon="7.11837">
        <ele>733.79998779297</ele>
        <time>2023-08-02T09:54:00.000Z</time>
      </trkpt>
      <trkpt lat="43.77683" lon="7.11842">
        <ele>733.40002441406</ele>
        <time>2023-08-02T09:54:01.000Z</time>
      </trkpt>
      <trkpt lat="43.77682" lon="7.11846">
        <ele>732.79998779297</ele>
        <time>2023-08-02T09:54:02.000Z</time>
      </trkpt>
      <trkpt lat="43.7768" lon="7.11851">
        <ele>732.59997558594</ele>
        <time>2023-08-02T09:54:03.000Z</time>
      </trkpt>
      <trkpt lat="43.7768" lon="7.11855">
        <ele>732.20001220703</ele>
        <time>2023-08-02T09:54:04.000Z</time>
      </trkpt>
      <trkpt lat="43.77679" lon="7.11859">
        <ele>731.40002441406</ele>
        <time>2023-08-02T09:54:05.000Z</time>
      </trkpt>
      <trkpt lat="43.77676" lon="7.11861">
        <ele>730.20001220703</ele>
        <time>2023-08-02T09:54:06.000Z</time>
      </trkpt>
      <trkpt lat="43.77674" lon="7.11861">
        <ele>729.79998779297</ele>
        <time>2023-08-02T09:54:07.000Z</time>
      </trkpt>
      <trkpt lat="43.77672" lon="7.11861">
        <ele>729.59997558594</ele>
        <time>2023-08-02T09:54:08.000Z</time>
      </trkpt>
      <trkpt lat="43.77669" lon="7.1186">
        <ele>729</ele>
        <time>2023-08-02T09:54:09.000Z</time>
      </trkpt>
      <trkpt lat="43.77666" lon="7.11861">
        <ele>729</ele>
        <time>2023-08-02T09:54:10.000Z</time>
      </trkpt>
      <trkpt lat="43.77664" lon="7.11862">
        <ele>729</ele>
        <time>2023-08-02T09:54:11.000Z</time>
      </trkpt>
      <trkpt lat="43.77663" lon="7.11864">
        <ele>729</ele>
        <time>2023-08-02T09:54:12.000Z</time>
      </trkpt>
      <trkpt lat="43.77662" lon="7.11866">
        <ele>729</ele>
        <time>2023-08-02T09:54:13.000Z</time>
      </trkpt>
      <trkpt lat="43.77661" lon="7.11867">
        <ele>729.20001220703</ele>
        <time>2023-08-02T09:54:14.000Z</time>
      </trkpt>
      <trkpt lat="43.77659" lon="7.11869">
        <ele>729.20001220703</ele>
        <time>2023-08-02T09:54:15.000Z</time>
      </trkpt>
      <trkpt lat="43.77658" lon="7.11869">
        <ele>729.20001220703</ele>
        <time>2023-08-02T09:54:16.000Z</time>
      </trkpt>
      <trkpt lat="43.77656" lon="7.1187">
        <ele>729.79998779297</ele>
        <time>2023-08-02T09:54:17.000Z</time>
      </trkpt>
      <trkpt lat="43.77655" lon="7.1187">
        <ele>730.20001220703</ele>
        <time>2023-08-02T09:54:18.000Z</time>
      </trkpt>
      <trkpt lat="43.77653" lon="7.1187">
        <ele>730.40002441406</ele>
        <time>2023-08-02T09:54:19.000Z</time>
      </trkpt>
      <trkpt lat="43.77652" lon="7.11871">
        <ele>730.59997558594</ele>
        <time>2023-08-02T09:54:20.000Z</time>
      </trkpt>
      <trkpt lat="43.77651" lon="7.11872">
        <ele>730.59997558594</ele>
        <time>2023-08-02T09:54:21.000Z</time>
      </trkpt>
      <trkpt lat="43.77649" lon="7.11872">
        <ele>730.59997558594</ele>
        <time>2023-08-02T09:54:22.000Z</time>
      </trkpt>
      <trkpt lat="43.77647" lon="7.11873">
        <ele>730.59997558594</ele>
        <time>2023-08-02T09:54:23.000Z</time>
      </trkpt>
      <trkpt lat="43.77644" lon="7.11874">
        <ele>730.59997558594</ele>
        <time>2023-08-02T09:54:24.000Z</time>
      </trkpt>
      <trkpt lat="43.77642" lon="7.11875">
        <ele>730.59997558594</ele>
        <time>2023-08-02T09:54:25.000Z</time>
      </trkpt>
      <trkpt lat="43.7764" lon="7.11877">
        <ele>730.40002441406</ele>
        <time>2023-08-02T09:54:26.000Z</time>
      </trkpt>
      <trkpt lat="43.77638" lon="7.11878">
        <ele>730.40002441406</ele>
        <time>2023-08-02T09:54:27.000Z</time>
      </trkpt>
      <trkpt lat="43.77636" lon="7.1188">
        <ele>730.40002441406</ele>
        <time>2023-08-02T09:54:28.000Z</time>
      </trkpt>
      <trkpt lat="43.77634" lon="7.11881">
        <ele>730.40002441406</ele>
        <time>2023-08-02T09:54:29.000Z</time>
      </trkpt>
      <trkpt lat="43.77631" lon="7.11882">
        <ele>730.40002441406</ele>
        <time>2023-08-02T09:54:30.000Z</time>
      </trkpt>
      <trkpt lat="43.77628" lon="7.11881">
        <ele>730.40002441406</ele>
        <time>2023-08-02T09:54:31.000Z</time>
      </trkpt>
      <trkpt lat="43.77626" lon="7.1188">
        <ele>730</ele>
        <time>2023-08-02T09:54:32.000Z</time>
      </trkpt>
      <trkpt lat="43.77624" lon="7.1188">
        <ele>730</ele>
        <time>2023-08-02T09:54:33.000Z</time>
      </trkpt>
      <trkpt lat="43.77621" lon="7.11879">
        <ele>730</ele>
        <time>2023-08-02T09:54:34.000Z</time>
      </trkpt>
      <trkpt lat="43.77619" lon="7.11878">
        <ele>730</ele>
        <time>2023-08-02T09:54:35.000Z</time>
      </trkpt>
      <trkpt lat="43.77617" lon="7.11876">
        <ele>730</ele>
        <time>2023-08-02T09:54:36.000Z</time>
      </trkpt>
      <trkpt lat="43.77615" lon="7.11874">
        <ele>730</ele>
        <time>2023-08-02T09:54:37.000Z</time>
      </trkpt>
      <trkpt lat="43.77613" lon="7.11872">
        <ele>730</ele>
        <time>2023-08-02T09:54:38.000Z</time>
      </trkpt>
      <trkpt lat="43.7761" lon="7.11872">
        <ele>729.79998779297</ele>
        <time>2023-08-02T09:54:39.000Z</time>
      </trkpt>
      <trkpt lat="43.77608" lon="7.11872">
        <ele>729.79998779297</ele>
        <time>2023-08-02T09:54:40.000Z</time>
      </trkpt>
      <trkpt lat="43.77605" lon="7.11872">
        <ele>729</ele>
        <time>2023-08-02T09:54:41.000Z</time>
      </trkpt>
      <trkpt lat="43.77604" lon="7.11874">
        <ele>729</ele>
        <time>2023-08-02T09:54:42.000Z</time>
      </trkpt>
      <trkpt lat="43.77602" lon="7.11876">
        <ele>729</ele>
        <time>2023-08-02T09:54:43.000Z</time>
      </trkpt>
      <trkpt lat="43.776" lon="7.11877">
        <ele>729</ele>
        <time>2023-08-02T09:54:44.000Z</time>
      </trkpt>
      <trkpt lat="43.77599" lon="7.11879">
        <ele>729</ele>
        <time>2023-08-02T09:54:45.000Z</time>
      </trkpt>
      <trkpt lat="43.77597" lon="7.11881">
        <ele>729.20001220703</ele>
        <time>2023-08-02T09:54:46.000Z</time>
      </trkpt>
      <trkpt lat="43.77595" lon="7.11882">
        <ele>729.20001220703</ele>
        <time>2023-08-02T09:54:47.000Z</time>
      </trkpt>
      <trkpt lat="43.77593" lon="7.11884">
        <ele>729.40002441406</ele>
        <time>2023-08-02T09:54:48.000Z</time>
      </trkpt>
      <trkpt lat="43.77591" lon="7.11886">
        <ele>729.59997558594</ele>
        <time>2023-08-02T09:54:49.000Z</time>
      </trkpt>
      <trkpt lat="43.77589" lon="7.11887">
        <ele>730</ele>
        <time>2023-08-02T09:54:50.000Z</time>
      </trkpt>
      <trkpt lat="43.77587" lon="7.11887">
        <ele>730.20001220703</ele>
        <time>2023-08-02T09:54:51.000Z</time>
      </trkpt>
      <trkpt lat="43.77586" lon="7.11888">
        <ele>730.20001220703</ele>
        <time>2023-08-02T09:54:52.000Z</time>
      </trkpt>
      <trkpt lat="43.77584" lon="7.1189">
        <ele>730.20001220703</ele>
        <time>2023-08-02T09:54:53.000Z</time>
      </trkpt>
      <trkpt lat="43.77583" lon="7.11892">
        <ele>730.20001220703</ele>
        <time>2023-08-02T09:54:54.000Z</time>
      </trkpt>
      <trkpt lat="43.7758" lon="7.11892">
        <ele>730.20001220703</ele>
        <time>2023-08-02T09:54:55.000Z</time>
      </trkpt>
      <trkpt lat="43.77578" lon="7.11893">
        <ele>730.20001220703</ele>
        <time>2023-08-02T09:54:56.000Z</time>
      </trkpt>
      <trkpt lat="43.77574" lon="7.11894">
        <ele>730.20001220703</ele>
        <time>2023-08-02T09:54:57.000Z</time>
      </trkpt>
      <trkpt lat="43.77571" lon="7.11894">
        <ele>730</ele>
        <time>2023-08-02T09:54:58.000Z</time>
      </trkpt>
      <trkpt lat="43.77569" lon="7.11895">
        <ele>730</ele>
        <time>2023-08-02T09:54:59.000Z</time>
      </trkpt>
      <trkpt lat="43.77566" lon="7.11895">
        <ele>729.59997558594</ele>
        <time>2023-08-02T09:55:00.000Z</time>
      </trkpt>
      <trkpt lat="43.77564" lon="7.11895">
        <ele>729.59997558594</ele>
        <time>2023-08-02T09:55:01.000Z</time>
      </trkpt>
      <trkpt lat="43.77561" lon="7.11894">
        <ele>729</ele>
        <time>2023-08-02T09:55:02.000Z</time>
      </trkpt>
      <trkpt lat="43.77557" lon="7.11895">
        <ele>728.79998779297</ele>
        <time>2023-08-02T09:55:03.000Z</time>
      </trkpt>
      <trkpt lat="43.77555" lon="7.11897">
        <ele>728.20001220703</ele>
        <time>2023-08-02T09:55:04.000Z</time>
      </trkpt>
      <trkpt lat="43.77551" lon="7.11898">
        <ele>727.40002441406</ele>
        <time>2023-08-02T09:55:05.000Z</time>
      </trkpt>
      <trkpt lat="43.77547" lon="7.11898">
        <ele>727</ele>
        <time>2023-08-02T09:55:06.000Z</time>
      </trkpt>
      <trkpt lat="43.77545" lon="7.11898">
        <ele>726.79998779297</ele>
        <time>2023-08-02T09:55:07.000Z</time>
      </trkpt>
      <trkpt lat="43.77543" lon="7.11898">
        <ele>726.79998779297</ele>
        <time>2023-08-02T09:55:08.000Z</time>
      </trkpt>
      <trkpt lat="43.77541" lon="7.11897">
        <ele>726.59997558594</ele>
        <time>2023-08-02T09:55:09.000Z</time>
      </trkpt>
      <trkpt lat="43.77539" lon="7.11897">
        <ele>726.59997558594</ele>
        <time>2023-08-02T09:55:10.000Z</time>
      </trkpt>
      <trkpt lat="43.77537" lon="7.11895">
        <ele>726.40002441406</ele>
        <time>2023-08-02T09:55:11.000Z</time>
      </trkpt>
      <trkpt lat="43.77535" lon="7.11893">
        <ele>726.40002441406</ele>
        <time>2023-08-02T09:55:12.000Z</time>
      </trkpt>
      <trkpt lat="43.77533" lon="7.11892">
        <ele>726.40002441406</ele>
        <time>2023-08-02T09:55:13.000Z</time>
      </trkpt>
      <trkpt lat="43.7753" lon="7.11889">
        <ele>726.40002441406</ele>
        <time>2023-08-02T09:55:14.000Z</time>
      </trkpt>
      <trkpt lat="43.77527" lon="7.11888">
        <ele>726.59997558594</ele>
        <time>2023-08-02T09:55:15.000Z</time>
      </trkpt>
      <trkpt lat="43.77524" lon="7.11887">
        <ele>726.59997558594</ele>
        <time>2023-08-02T09:55:16.000Z</time>
      </trkpt>
      <trkpt lat="43.77522" lon="7.11887">
        <ele>726.59997558594</ele>
        <time>2023-08-02T09:55:17.000Z</time>
      </trkpt>
      <trkpt lat="43.7752" lon="7.11887">
        <ele>726.59997558594</ele>
        <time>2023-08-02T09:55:18.000Z</time>
      </trkpt>
      <trkpt lat="43.77518" lon="7.11887">
        <ele>726.59997558594</ele>
        <time>2023-08-02T09:55:19.000Z</time>
      </trkpt>
      <trkpt lat="43.77516" lon="7.11885">
        <ele>727</ele>
        <time>2023-08-02T09:55:20.000Z</time>
      </trkpt>
      <trkpt lat="43.77514" lon="7.11884">
        <ele>727.40002441406</ele>
        <time>2023-08-02T09:55:21.000Z</time>
      </trkpt>
      <trkpt lat="43.77512" lon="7.11883">
        <ele>727.40002441406</ele>
        <time>2023-08-02T09:55:22.000Z</time>
      </trkpt>
      <trkpt lat="43.7751" lon="7.11881">
        <ele>727.59997558594</ele>
        <time>2023-08-02T09:55:23.000Z</time>
      </trkpt>
      <trkpt lat="43.77507" lon="7.1188">
        <ele>727.59997558594</ele>
        <time>2023-08-02T09:55:24.000Z</time>
      </trkpt>
      <trkpt lat="43.77504" lon="7.11879">
        <ele>727.59997558594</ele>
        <time>2023-08-02T09:55:25.000Z</time>
      </trkpt>
      <trkpt lat="43.77501" lon="7.11878">
        <ele>727.59997558594</ele>
        <time>2023-08-02T09:55:26.000Z</time>
      </trkpt>
      <trkpt lat="43.77498" lon="7.11879">
        <ele>727.59997558594</ele>
        <time>2023-08-02T09:55:27.000Z</time>
      </trkpt>
      <trkpt lat="43.77496" lon="7.11879">
        <ele>727.40002441406</ele>
        <time>2023-08-02T09:55:28.000Z</time>
      </trkpt>
      <trkpt lat="43.77493" lon="7.11878">
        <ele>727.20001220703</ele>
        <time>2023-08-02T09:55:29.000Z</time>
      </trkpt>
      <trkpt lat="43.7749" lon="7.11878">
        <ele>727.20001220703</ele>
        <time>2023-08-02T09:55:30.000Z</time>
      </trkpt>
      <trkpt lat="43.77488" lon="7.11877">
        <ele>727.20001220703</ele>
        <time>2023-08-02T09:55:31.000Z</time>
      </trkpt>
      <trkpt lat="43.77486" lon="7.11876">
        <ele>727.20001220703</ele>
        <time>2023-08-02T09:55:32.000Z</time>
      </trkpt>
      <trkpt lat="43.77484" lon="7.11875">
        <ele>727.20001220703</ele>
        <time>2023-08-02T09:55:33.000Z</time>
      </trkpt>
      <trkpt lat="43.77483" lon="7.11875">
        <ele>727.20001220703</ele>
        <time>2023-08-02T09:55:34.000Z</time>
      </trkpt>
      <trkpt lat="43.77482" lon="7.11874">
        <ele>727.20001220703</ele>
        <time>2023-08-02T09:55:35.000Z</time>
      </trkpt>
      <trkpt lat="43.7748" lon="7.11873">
        <ele>727.20001220703</ele>
        <time>2023-08-02T09:55:36.000Z</time>
      </trkpt>
      <trkpt lat="43.77479" lon="7.11872">
        <ele>727.20001220703</ele>
        <time>2023-08-02T09:55:37.000Z</time>
      </trkpt>
      <trkpt lat="43.77478" lon="7.11871">
        <ele>727.20001220703</ele>
        <time>2023-08-02T09:55:38.000Z</time>
      </trkpt>
      <trkpt lat="43.77476" lon="7.1187">
        <ele>727.20001220703</ele>
        <time>2023-08-02T09:55:39.000Z</time>
      </trkpt>
      <trkpt lat="43.77475" lon="7.11871">
        <ele>727</ele>
        <time>2023-08-02T09:55:40.000Z</time>
      </trkpt>
      <trkpt lat="43.77474" lon="7.11871">
        <ele>727</ele>
        <time>2023-08-02T09:55:41.000Z</time>
      </trkpt>
      <trkpt lat="43.77472" lon="7.11872">
        <ele>727</ele>
        <time>2023-08-02T09:55:42.000Z</time>
      </trkpt>
      <trkpt lat="43.77471" lon="7.11872">
        <ele>727</ele>
        <time>2023-08-02T09:55:43.000Z</time>
      </trkpt>
      <trkpt lat="43.77469" lon="7.11873">
        <ele>727</ele>
        <time>2023-08-02T09:55:44.000Z</time>
      </trkpt>
      <trkpt lat="43.77468" lon="7.11873">
        <ele>727</ele>
        <time>2023-08-02T09:55:45.000Z</time>
      </trkpt>
      <trkpt lat="43.77467" lon="7.11873">
        <ele>727</ele>
        <time>2023-08-02T09:55:46.000Z</time>
      </trkpt>
      <trkpt lat="43.77467" lon="7.11873">
        <ele>727</ele>
        <time>2023-08-02T09:55:47.000Z</time>
      </trkpt>
      <trkpt lat="43.77467" lon="7.11873">
        <ele>727</ele>
        <time>2023-08-02T09:55:48.000Z</time>
      </trkpt>
      <trkpt lat="43.77466" lon="7.11873">
        <ele>727</ele>
        <time>2023-08-02T09:55:49.000Z</time>
      </trkpt>
      <trkpt lat="43.77466" lon="7.11873">
        <ele>727.20001220703</ele>
        <time>2023-08-02T09:55:50.000Z</time>
      </trkpt>
      <trkpt lat="43.77465" lon="7.11873">
        <ele>727.20001220703</ele>
        <time>2023-08-02T09:55:51.000Z</time>
      </trkpt>
      <trkpt lat="43.77465" lon="7.11873">
        <ele>727.20001220703</ele>
        <time>2023-08-02T09:55:52.000Z</time>
      </trkpt>
      <trkpt lat="43.77465" lon="7.11873">
        <ele>727.20001220703</ele>
        <time>2023-08-02T09:55:53.000Z</time>
      </trkpt>
      <trkpt lat="43.77464" lon="7.11872">
        <ele>727.20001220703</ele>
        <time>2023-08-02T09:55:54.000Z</time>
      </trkpt>
      <trkpt lat="43.77464" lon="7.11873">
        <ele>727</ele>
        <time>2023-08-02T09:55:55.000Z</time>
      </trkpt>
      <trkpt lat="43.77464" lon="7.11873">
        <ele>727</ele>
        <time>2023-08-02T09:55:56.000Z</time>
      </trkpt>
      <trkpt lat="43.77463" lon="7.11873">
        <ele>727</ele>
        <time>2023-08-02T09:55:57.000Z</time>
      </trkpt>
      <trkpt lat="43.77463" lon="7.11873">
        <ele>727</ele>
        <time>2023-08-02T09:55:58.000Z</time>
      </trkpt>
      <trkpt lat="43.77463" lon="7.11874">
        <ele>727</ele>
        <time>2023-08-02T09:55:59.000Z</time>
      </trkpt>
      <trkpt lat="43.77463" lon="7.11874">
        <ele>727</ele>
        <time>2023-08-02T09:56:00.000Z</time>
      </trkpt>
      <trkpt lat="43.77463" lon="7.11875">
        <ele>727</ele>
        <time>2023-08-02T09:56:01.000Z</time>
      </trkpt>
      <trkpt lat="43.77462" lon="7.11874">
        <ele>727</ele>
        <time>2023-08-02T09:56:02.000Z</time>
      </trkpt>
      <trkpt lat="43.77462" lon="7.11875">
        <ele>727</ele>
        <time>2023-08-02T09:56:03.000Z</time>
      </trkpt>
      <trkpt lat="43.77463" lon="7.11875">
        <ele>727</ele>
        <time>2023-08-02T09:56:04.000Z</time>
      </trkpt>
      <trkpt lat="43.77462" lon="7.11876">
        <ele>727</ele>
        <time>2023-08-02T09:56:05.000Z</time>
      </trkpt>
      <trkpt lat="43.77462" lon="7.11876">
        <ele>727</ele>
        <time>2023-08-02T09:56:06.000Z</time>
      </trkpt>
      <trkpt lat="43.77461" lon="7.11876">
        <ele>727.20001220703</ele>
        <time>2023-08-02T09:56:07.000Z</time>
      </trkpt>
      <trkpt lat="43.77461" lon="7.11876">
        <ele>727.20001220703</ele>
        <time>2023-08-02T09:56:08.000Z</time>
      </trkpt>
      <trkpt lat="43.7746" lon="7.11877">
        <ele>727.20001220703</ele>
        <time>2023-08-02T09:56:09.000Z</time>
      </trkpt>
      <trkpt lat="43.7746" lon="7.11877">
        <ele>727.20001220703</ele>
        <time>2023-08-02T09:56:10.000Z</time>
      </trkpt>
      <trkpt lat="43.77459" lon="7.11878">
        <ele>727.40002441406</ele>
        <time>2023-08-02T09:56:11.000Z</time>
      </trkpt>
      <trkpt lat="43.77459" lon="7.11878">
        <ele>727.40002441406</ele>
        <time>2023-08-02T09:56:12.000Z</time>
      </trkpt>
      <trkpt lat="43.77459" lon="7.11878">
        <ele>727.40002441406</ele>
        <time>2023-08-02T09:56:13.000Z</time>
      </trkpt>
      <trkpt lat="43.77458" lon="7.11878">
        <ele>727.40002441406</ele>
        <time>2023-08-02T09:56:14.000Z</time>
      </trkpt>
      <trkpt lat="43.77457" lon="7.11878">
        <ele>727.40002441406</ele>
        <time>2023-08-02T09:56:15.000Z</time>
      </trkpt>
      <trkpt lat="43.77456" lon="7.11878">
        <ele>727.40002441406</ele>
        <time>2023-08-02T09:56:16.000Z</time>
      </trkpt>
      <trkpt lat="43.77456" lon="7.11878">
        <ele>727.40002441406</ele>
        <time>2023-08-02T09:56:17.000Z</time>
      </trkpt>
      <trkpt lat="43.77455" lon="7.11879">
        <ele>727.40002441406</ele>
        <time>2023-08-02T09:56:18.000Z</time>
      </trkpt>
      <trkpt lat="43.77455" lon="7.11879">
        <ele>727.40002441406</ele>
        <time>2023-08-02T09:56:19.000Z</time>
      </trkpt>
      <trkpt lat="43.77454" lon="7.11879">
        <ele>727.40002441406</ele>
        <time>2023-08-02T09:56:20.000Z</time>
      </trkpt>
      <trkpt lat="43.77454" lon="7.1188">
        <ele>727.40002441406</ele>
        <time>2023-08-02T09:56:21.000Z</time>
      </trkpt>
      <trkpt lat="43.77453" lon="7.1188">
        <ele>727.40002441406</ele>
        <time>2023-08-02T09:56:22.000Z</time>
      </trkpt>
      <trkpt lat="43.77452" lon="7.11881">
        <ele>727.40002441406</ele>
        <time>2023-08-02T09:56:23.000Z</time>
      </trkpt>
      <trkpt lat="43.77453" lon="7.1188">
        <ele>727.40002441406</ele>
        <time>2023-08-02T09:56:24.000Z</time>
      </trkpt>
      <trkpt lat="43.77453" lon="7.1188">
        <ele>727.40002441406</ele>
        <time>2023-08-02T09:56:25.000Z</time>
      </trkpt>
      <trkpt lat="43.77452" lon="7.1188">
        <ele>727.40002441406</ele>
        <time>2023-08-02T09:56:26.000Z</time>
      </trkpt>
      <trkpt lat="43.77452" lon="7.1188">
        <ele>727.40002441406</ele>
        <time>2023-08-02T09:56:27.000Z</time>
      </trkpt>
      <trkpt lat="43.77451" lon="7.1188">
        <ele>727.40002441406</ele>
        <time>2023-08-02T09:56:28.000Z</time>
      </trkpt>
      <trkpt lat="43.7745" lon="7.1188">
        <ele>727.40002441406</ele>
        <time>2023-08-02T09:56:29.000Z</time>
      </trkpt>
      <trkpt lat="43.7745" lon="7.1188">
        <ele>727.40002441406</ele>
        <time>2023-08-02T09:56:30.000Z</time>
      </trkpt>
      <trkpt lat="43.77449" lon="7.1188">
        <ele>727.20001220703</ele>
        <time>2023-08-02T09:56:31.000Z</time>
      </trkpt>
      <trkpt lat="43.77448" lon="7.11881">
        <ele>727.20001220703</ele>
        <time>2023-08-02T09:56:32.000Z</time>
      </trkpt>
      <trkpt lat="43.77448" lon="7.11881">
        <ele>727.20001220703</ele>
        <time>2023-08-02T09:56:33.000Z</time>
      </trkpt>
      <trkpt lat="43.77447" lon="7.11882">
        <ele>727.20001220703</ele>
        <time>2023-08-02T09:56:34.000Z</time>
      </trkpt>
      <trkpt lat="43.77447" lon="7.11883">
        <ele>727.20001220703</ele>
        <time>2023-08-02T09:56:35.000Z</time>
      </trkpt>
      <trkpt lat="43.77446" lon="7.11883">
        <ele>727</ele>
        <time>2023-08-02T09:56:36.000Z</time>
      </trkpt>
      <trkpt lat="43.77446" lon="7.11883">
        <ele>727</ele>
        <time>2023-08-02T09:56:37.000Z</time>
      </trkpt>
      <trkpt lat="43.77446" lon="7.11884">
        <ele>727</ele>
        <time>2023-08-02T09:56:38.000Z</time>
      </trkpt>
      <trkpt lat="43.77446" lon="7.11883">
        <ele>726.79998779297</ele>
        <time>2023-08-02T09:56:39.000Z</time>
      </trkpt>
      <trkpt lat="43.77446" lon="7.11884">
        <ele>726.79998779297</ele>
        <time>2023-08-02T09:56:40.000Z</time>
      </trkpt>
      <trkpt lat="43.77445" lon="7.11884">
        <ele>726.79998779297</ele>
        <time>2023-08-02T09:56:41.000Z</time>
      </trkpt>
      <trkpt lat="43.77444" lon="7.11885">
        <ele>726.79998779297</ele>
        <time>2023-08-02T09:56:42.000Z</time>
      </trkpt>
      <trkpt lat="43.77444" lon="7.11885">
        <ele>726.79998779297</ele>
        <time>2023-08-02T09:56:43.000Z</time>
      </trkpt>
      <trkpt lat="43.77445" lon="7.11885">
        <ele>726.79998779297</ele>
        <time>2023-08-02T09:56:44.000Z</time>
      </trkpt>
      <trkpt lat="43.77444" lon="7.11886">
        <ele>726.79998779297</ele>
        <time>2023-08-02T09:56:45.000Z</time>
      </trkpt>
      <trkpt lat="43.77444" lon="7.11886">
        <ele>726.79998779297</ele>
        <time>2023-08-02T09:56:46.000Z</time>
      </trkpt>
      <trkpt lat="43.77444" lon="7.11887">
        <ele>726.79998779297</ele>
        <time>2023-08-02T09:56:47.000Z</time>
      </trkpt>
      <trkpt lat="43.77443" lon="7.11887">
        <ele>726.79998779297</ele>
        <time>2023-08-02T09:56:48.000Z</time>
      </trkpt>
      <trkpt lat="43.77442" lon="7.11887">
        <ele>726.59997558594</ele>
        <time>2023-08-02T09:56:49.000Z</time>
      </trkpt>
      <trkpt lat="43.77441" lon="7.11888">
        <ele>726.59997558594</ele>
        <time>2023-08-02T09:56:50.000Z</time>
      </trkpt>
      <trkpt lat="43.77441" lon="7.11889">
        <ele>726.59997558594</ele>
        <time>2023-08-02T09:56:51.000Z</time>
      </trkpt>
      <trkpt lat="43.7744" lon="7.11889">
        <ele>726.59997558594</ele>
        <time>2023-08-02T09:56:52.000Z</time>
      </trkpt>
      <trkpt lat="43.77439" lon="7.1189">
        <ele>726.79998779297</ele>
        <time>2023-08-02T09:56:53.000Z</time>
      </trkpt>
      <trkpt lat="43.77439" lon="7.11891">
        <ele>726.79998779297</ele>
        <time>2023-08-02T09:56:54.000Z</time>
      </trkpt>
      <trkpt lat="43.77438" lon="7.11892">
        <ele>726.79998779297</ele>
        <time>2023-08-02T09:56:55.000Z</time>
      </trkpt>
      <trkpt lat="43.77438" lon="7.11893">
        <ele>726.79998779297</ele>
        <time>2023-08-02T09:56:56.000Z</time>
      </trkpt>
      <trkpt lat="43.77438" lon="7.11893">
        <ele>726.79998779297</ele>
        <time>2023-08-02T09:56:57.000Z</time>
      </trkpt>
      <trkpt lat="43.77438" lon="7.11893">
        <ele>726.79998779297</ele>
        <time>2023-08-02T09:56:58.000Z</time>
      </trkpt>
      <trkpt lat="43.77438" lon="7.11893">
        <ele>726.79998779297</ele>
        <time>2023-08-02T09:56:59.000Z</time>
      </trkpt>
      <trkpt lat="43.77438" lon="7.11893">
        <ele>726.79998779297</ele>
        <time>2023-08-02T09:57:00.000Z</time>
      </trkpt>
      <trkpt lat="43.77438" lon="7.11893">
        <ele>726.79998779297</ele>
        <time>2023-08-02T09:57:01.000Z</time>
      </trkpt>
      <trkpt lat="43.77438" lon="7.11894">
        <ele>726.79998779297</ele>
        <time>2023-08-02T09:57:02.000Z</time>
      </trkpt>
      <trkpt lat="43.77438" lon="7.11893">
        <ele>726.79998779297</ele>
        <time>2023-08-02T09:57:03.000Z</time>
      </trkpt>
      <trkpt lat="43.77438" lon="7.11893">
        <ele>726.79998779297</ele>
        <time>2023-08-02T09:57:04.000Z</time>
      </trkpt>
      <trkpt lat="43.77438" lon="7.11893">
        <ele>726.79998779297</ele>
        <time>2023-08-02T09:57:05.000Z</time>
      </trkpt>
      <trkpt lat="43.77438" lon="7.11894">
        <ele>726.79998779297</ele>
        <time>2023-08-02T09:57:06.000Z</time>
      </trkpt>
      <trkpt lat="43.77438" lon="7.11894">
        <ele>726.79998779297</ele>
        <time>2023-08-02T09:57:07.000Z</time>
      </trkpt>
      <trkpt lat="43.77438" lon="7.11894">
        <ele>726.79998779297</ele>
        <time>2023-08-02T09:57:08.000Z</time>
      </trkpt>
      <trkpt lat="43.77438" lon="7.11893">
        <ele>726.79998779297</ele>
        <time>2023-08-02T09:57:09.000Z</time>
      </trkpt>
      <trkpt lat="43.77438" lon="7.11894">
        <ele>726.79998779297</ele>
        <time>2023-08-02T09:57:10.000Z</time>
      </trkpt>
      <trkpt lat="43.77438" lon="7.11893">
        <ele>726.79998779297</ele>
        <time>2023-08-02T09:57:11.000Z</time>
      </trkpt>
      <trkpt lat="43.77438" lon="7.11893">
        <ele>726.79998779297</ele>
        <time>2023-08-02T09:57:12.000Z</time>
      </trkpt>
      <trkpt lat="43.77438" lon="7.11893">
        <ele>726.79998779297</ele>
        <time>2023-08-02T09:57:13.000Z</time>
      </trkpt>
      <trkpt lat="43.77438" lon="7.11894">
        <ele>726.79998779297</ele>
        <time>2023-08-02T09:57:14.000Z</time>
      </trkpt>
      <trkpt lat="43.77438" lon="7.11894">
        <ele>726.79998779297</ele>
        <time>2023-08-02T09:57:15.000Z</time>
      </trkpt>
      <trkpt lat="43.77438" lon="7.11893">
        <ele>726.79998779297</ele>
        <time>2023-08-02T09:57:16.000Z</time>
      </trkpt>
      <trkpt lat="43.77438" lon="7.11893">
        <ele>726.79998779297</ele>
        <time>2023-08-02T09:57:17.000Z</time>
      </trkpt>
      <trkpt lat="43.77438" lon="7.11893">
        <ele>726.79998779297</ele>
        <time>2023-08-02T09:57:18.000Z</time>
      </trkpt>
      <trkpt lat="43.77438" lon="7.11893">
        <ele>726.79998779297</ele>
        <time>2023-08-02T09:57:19.000Z</time>
      </trkpt>
      <trkpt lat="43.77438" lon="7.11893">
        <ele>726.79998779297</ele>
        <time>2023-08-02T09:57:20.000Z</time>
      </trkpt>
      <trkpt lat="43.77438" lon="7.11893">
        <ele>726.79998779297</ele>
        <time>2023-08-02T09:57:21.000Z</time>
      </trkpt>
      <trkpt lat="43.77438" lon="7.11893">
        <ele>726.79998779297</ele>
        <time>2023-08-02T09:57:22.000Z</time>
      </trkpt>
      <trkpt lat="43.77438" lon="7.11893">
        <ele>726.79998779297</ele>
        <time>2023-08-02T09:57:23.000Z</time>
      </trkpt>
      <trkpt lat="43.77438" lon="7.11893">
        <ele>726.79998779297</ele>
        <time>2023-08-02T09:57:24.000Z</time>
      </trkpt>
      <trkpt lat="43.77438" lon="7.11893">
        <ele>726.79998779297</ele>
        <time>2023-08-02T09:57:25.000Z</time>
      </trkpt>
      <trkpt lat="43.77438" lon="7.11893">
        <ele>726.79998779297</ele>
        <time>2023-08-02T09:57:26.000Z</time>
      </trkpt>
      <trkpt lat="43.77438" lon="7.11893">
        <ele>726.79998779297</ele>
        <time>2023-08-02T09:57:27.000Z</time>
      </trkpt>
      <trkpt lat="43.77438" lon="7.11893">
        <ele>726.79998779297</ele>
        <time>2023-08-02T09:57:28.000Z</time>
      </trkpt>
      <trkpt lat="43.77438" lon="7.11893">
        <ele>726.79998779297</ele>
        <time>2023-08-02T09:57:29.000Z</time>
      </trkpt>
      <trkpt lat="43.77438" lon="7.11893">
        <ele>726.79998779297</ele>
        <time>2023-08-02T09:57:30.000Z</time>
      </trkpt>
      <trkpt lat="43.77438" lon="7.11893">
        <ele>726.79998779297</ele>
        <time>2023-08-02T09:57:31.000Z</time>
      </trkpt>
      <trkpt lat="43.77438" lon="7.11893">
        <ele>726.79998779297</ele>
        <time>2023-08-02T09:57:32.000Z</time>
      </trkpt>
      <trkpt lat="43.77438" lon="7.11893">
        <ele>726.79998779297</ele>
        <time>2023-08-02T09:57:33.000Z</time>
      </trkpt>
      <trkpt lat="43.77438" lon="7.11893">
        <ele>726.79998779297</ele>
        <time>2023-08-02T09:57:34.000Z</time>
      </trkpt>
      <trkpt lat="43.77438" lon="7.11893">
        <ele>726.79998779297</ele>
        <time>2023-08-02T09:57:35.000Z</time>
      </trkpt>
      <trkpt lat="43.77438" lon="7.11893">
        <ele>726.79998779297</ele>
        <time>2023-08-02T09:57:36.000Z</time>
      </trkpt>
      <trkpt lat="43.77438" lon="7.11893">
        <ele>726.79998779297</ele>
        <time>2023-08-02T09:57:37.000Z</time>
      </trkpt>
      <trkpt lat="43.77438" lon="7.11893">
        <ele>726.79998779297</ele>
        <time>2023-08-02T09:57:38.000Z</time>
      </trkpt>
      <trkpt lat="43.77438" lon="7.11893">
        <ele>726.79998779297</ele>
        <time>2023-08-02T09:57:39.000Z</time>
      </trkpt>
      <trkpt lat="43.77438" lon="7.11893">
        <ele>726.79998779297</ele>
        <time>2023-08-02T09:57:40.000Z</time>
      </trkpt>
      <trkpt lat="43.77438" lon="7.11893">
        <ele>726.79998779297</ele>
        <time>2023-08-02T09:57:41.000Z</time>
      </trkpt>
      <trkpt lat="43.77438" lon="7.11893">
        <ele>726.79998779297</ele>
        <time>2023-08-02T09:57:42.000Z</time>
      </trkpt>
      <trkpt lat="43.77438" lon="7.11893">
        <ele>726.79998779297</ele>
        <time>2023-08-02T09:57:43.000Z</time>
      </trkpt>
      <trkpt lat="43.77438" lon="7.11893">
        <ele>726.79998779297</ele>
        <time>2023-08-02T09:57:44.000Z</time>
      </trkpt>
      <trkpt lat="43.77438" lon="7.11893">
        <ele>726.79998779297</ele>
        <time>2023-08-02T09:57:45.000Z</time>
      </trkpt>
      <trkpt lat="43.77438" lon="7.11893">
        <ele>726.79998779297</ele>
        <time>2023-08-02T09:57:46.000Z</time>
      </trkpt>
      <trkpt lat="43.77438" lon="7.11893">
        <ele>726.79998779297</ele>
        <time>2023-08-02T09:57:47.000Z</time>
      </trkpt>
      <trkpt lat="43.77438" lon="7.11893">
        <ele>726.79998779297</ele>
        <time>2023-08-02T09:57:48.000Z</time>
      </trkpt>
      <trkpt lat="43.77438" lon="7.11893">
        <ele>726.79998779297</ele>
        <time>2023-08-02T09:57:49.000Z</time>
      </trkpt>
      <trkpt lat="43.77438" lon="7.11893">
        <ele>726.79998779297</ele>
        <time>2023-08-02T09:57:50.000Z</time>
      </trkpt>
      <trkpt lat="43.77438" lon="7.11893">
        <ele>726.79998779297</ele>
        <time>2023-08-02T09:57:51.000Z</time>
      </trkpt>
      <trkpt lat="43.77438" lon="7.11893">
        <ele>726.79998779297</ele>
        <time>2023-08-02T09:57:52.000Z</time>
      </trkpt>
      <trkpt lat="43.77438" lon="7.11893">
        <ele>726.79998779297</ele>
        <time>2023-08-02T09:57:53.000Z</time>
      </trkpt>
      <trkpt lat="43.77438" lon="7.11893">
        <ele>726.79998779297</ele>
        <time>2023-08-02T09:57:54.000Z</time>
      </trkpt>
      <trkpt lat="43.77438" lon="7.11893">
        <ele>726.79998779297</ele>
        <time>2023-08-02T09:57:55.000Z</time>
      </trkpt>
      <trkpt lat="43.77438" lon="7.11893">
        <ele>726.79998779297</ele>
        <time>2023-08-02T09:57:56.000Z</time>
      </trkpt>
      <trkpt lat="43.77438" lon="7.11893">
        <ele>726.79998779297</ele>
        <time>2023-08-02T09:57:57.000Z</time>
      </trkpt>
      <trkpt lat="43.77438" lon="7.11893">
        <ele>726.79998779297</ele>
        <time>2023-08-02T09:57:58.000Z</time>
      </trkpt>
      <trkpt lat="43.77438" lon="7.11893">
        <ele>726.79998779297</ele>
        <time>2023-08-02T09:57:59.000Z</time>
      </trkpt>
      <trkpt lat="43.77438" lon="7.11893">
        <ele>726.79998779297</ele>
        <time>2023-08-02T09:58:00.000Z</time>
      </trkpt>
      <trkpt lat="43.77438" lon="7.11893">
        <ele>726.79998779297</ele>
        <time>2023-08-02T09:58:01.000Z</time>
      </trkpt>
      <trkpt lat="43.77438" lon="7.11894">
        <ele>726.79998779297</ele>
        <time>2023-08-02T09:58:02.000Z</time>
      </trkpt>
      <trkpt lat="43.77438" lon="7.11894">
        <ele>726.79998779297</ele>
        <time>2023-08-02T09:58:03.000Z</time>
      </trkpt>
      <trkpt lat="43.77438" lon="7.11894">
        <ele>726.79998779297</ele>
        <time>2023-08-02T09:58:04.000Z</time>
      </trkpt>
      <trkpt lat="43.77438" lon="7.11894">
        <ele>726.79998779297</ele>
        <time>2023-08-02T09:58:05.000Z</time>
      </trkpt>
      <trkpt lat="43.77438" lon="7.11894">
        <ele>726.79998779297</ele>
        <time>2023-08-02T09:58:06.000Z</time>
      </trkpt>
      <trkpt lat="43.77438" lon="7.11894">
        <ele>726.79998779297</ele>
        <time>2023-08-02T09:58:07.000Z</time>
      </trkpt>
      <trkpt lat="43.77438" lon="7.11894">
        <ele>726.79998779297</ele>
        <time>2023-08-02T09:58:08.000Z</time>
      </trkpt>
      <trkpt lat="43.77438" lon="7.11894">
        <ele>726.79998779297</ele>
        <time>2023-08-02T09:58:09.000Z</time>
      </trkpt>
      <trkpt lat="43.77438" lon="7.11894">
        <ele>726.79998779297</ele>
        <time>2023-08-02T09:58:10.000Z</time>
      </trkpt>
      <trkpt lat="43.77438" lon="7.11894">
        <ele>726.79998779297</ele>
        <time>2023-08-02T09:58:11.000Z</time>
      </trkpt>
      <trkpt lat="43.77438" lon="7.11894">
        <ele>726.79998779297</ele>
        <time>2023-08-02T09:58:12.000Z</time>
      </trkpt>
      <trkpt lat="43.77438" lon="7.11894">
        <ele>726.79998779297</ele>
        <time>2023-08-02T09:58:13.000Z</time>
      </trkpt>
      <trkpt lat="43.77438" lon="7.11894">
        <ele>726.79998779297</ele>
        <time>2023-08-02T09:58:14.000Z</time>
      </trkpt>
      <trkpt lat="43.77438" lon="7.11894">
        <ele>726.79998779297</ele>
        <time>2023-08-02T09:58:15.000Z</time>
      </trkpt>
      <trkpt lat="43.77438" lon="7.11894">
        <ele>726.79998779297</ele>
        <time>2023-08-02T09:58:16.000Z</time>
      </trkpt>
      <trkpt lat="43.77438" lon="7.11894">
        <ele>726.79998779297</ele>
        <time>2023-08-02T09:58:17.000Z</time>
      </trkpt>
      <trkpt lat="43.77438" lon="7.11894">
        <ele>726.79998779297</ele>
        <time>2023-08-02T09:58:18.000Z</time>
      </trkpt>
      <trkpt lat="43.77438" lon="7.11894">
        <ele>726.79998779297</ele>
        <time>2023-08-02T09:58:19.000Z</time>
      </trkpt>
      <trkpt lat="43.77438" lon="7.11894">
        <ele>726.79998779297</ele>
        <time>2023-08-02T09:58:20.000Z</time>
      </trkpt>
      <trkpt lat="43.77438" lon="7.11894">
        <ele>726.79998779297</ele>
        <time>2023-08-02T09:58:21.000Z</time>
      </trkpt>
      <trkpt lat="43.77438" lon="7.11894">
        <ele>726.79998779297</ele>
        <time>2023-08-02T09:58:22.000Z</time>
      </trkpt>
      <trkpt lat="43.77438" lon="7.11894">
        <ele>726.79998779297</ele>
        <time>2023-08-02T09:58:23.000Z</time>
      </trkpt>
      <trkpt lat="43.77438" lon="7.11894">
        <ele>726.79998779297</ele>
        <time>2023-08-02T09:58:24.000Z</time>
      </trkpt>
      <trkpt lat="43.77438" lon="7.11894">
        <ele>726.79998779297</ele>
        <time>2023-08-02T09:58:25.000Z</time>
      </trkpt>
      <trkpt lat="43.77438" lon="7.11894">
        <ele>726.79998779297</ele>
        <time>2023-08-02T09:58:26.000Z</time>
      </trkpt>
      <trkpt lat="43.77438" lon="7.11894">
        <ele>726.79998779297</ele>
        <time>2023-08-02T09:58:27.000Z</time>
      </trkpt>
      <trkpt lat="43.77438" lon="7.11894">
        <ele>726.79998779297</ele>
        <time>2023-08-02T09:58:28.000Z</time>
      </trkpt>
      <trkpt lat="43.77438" lon="7.11894">
        <ele>726.79998779297</ele>
        <time>2023-08-02T09:58:29.000Z</time>
      </trkpt>
      <trkpt lat="43.77438" lon="7.11894">
        <ele>726.79998779297</ele>
        <time>2023-08-02T09:58:30.000Z</time>
      </trkpt>
      <trkpt lat="43.77438" lon="7.11894">
        <ele>726.79998779297</ele>
        <time>2023-08-02T09:58:31.000Z</time>
      </trkpt>
      <trkpt lat="43.77438" lon="7.11894">
        <ele>726.79998779297</ele>
        <time>2023-08-02T09:58:32.000Z</time>
      </trkpt>
      <trkpt lat="43.77438" lon="7.11894">
        <ele>726.79998779297</ele>
        <time>2023-08-02T09:58:33.000Z</time>
      </trkpt>
      <trkpt lat="43.77438" lon="7.11894">
        <ele>726.79998779297</ele>
        <time>2023-08-02T09:58:34.000Z</time>
      </trkpt>
      <trkpt lat="43.77438" lon="7.11893">
        <ele>726.79998779297</ele>
        <time>2023-08-02T09:58:35.000Z</time>
      </trkpt>
      <trkpt lat="43.77438" lon="7.11893">
        <ele>726.79998779297</ele>
        <time>2023-08-02T09:58:36.000Z</time>
      </trkpt>
      <trkpt lat="43.77438" lon="7.11893">
        <ele>726.79998779297</ele>
        <time>2023-08-02T09:58:37.000Z</time>
      </trkpt>
      <trkpt lat="43.77438" lon="7.11894">
        <ele>726.79998779297</ele>
        <time>2023-08-02T09:58:38.000Z</time>
      </trkpt>
      <trkpt lat="43.77438" lon="7.11894">
        <ele>726.79998779297</ele>
        <time>2023-08-02T09:58:39.000Z</time>
      </trkpt>
      <trkpt lat="43.77438" lon="7.11894">
        <ele>726.79998779297</ele>
        <time>2023-08-02T09:58:40.000Z</time>
      </trkpt>
      <trkpt lat="43.77438" lon="7.11894">
        <ele>726.79998779297</ele>
        <time>2023-08-02T09:58:41.000Z</time>
      </trkpt>
      <trkpt lat="43.77438" lon="7.11894">
        <ele>726.79998779297</ele>
        <time>2023-08-02T09:58:42.000Z</time>
      </trkpt>
      <trkpt lat="43.77438" lon="7.11894">
        <ele>726.79998779297</ele>
        <time>2023-08-02T09:58:43.000Z</time>
      </trkpt>
      <trkpt lat="43.77438" lon="7.11894">
        <ele>726.79998779297</ele>
        <time>2023-08-02T09:58:44.000Z</time>
      </trkpt>
      <trkpt lat="43.77438" lon="7.11894">
        <ele>726.79998779297</ele>
        <time>2023-08-02T09:58:45.000Z</time>
      </trkpt>
      <trkpt lat="43.77438" lon="7.11894">
        <ele>726.79998779297</ele>
        <time>2023-08-02T09:58:46.000Z</time>
      </trkpt>
      <trkpt lat="43.77438" lon="7.11894">
        <ele>726.79998779297</ele>
        <time>2023-08-02T09:58:47.000Z</time>
      </trkpt>
      <trkpt lat="43.77438" lon="7.11894">
        <ele>726.79998779297</ele>
        <time>2023-08-02T09:58:48.000Z</time>
      </trkpt>
      <trkpt lat="43.77438" lon="7.11894">
        <ele>726.79998779297</ele>
        <time>2023-08-02T09:58:49.000Z</time>
      </trkpt>
      <trkpt lat="43.77438" lon="7.11894">
        <ele>726.79998779297</ele>
        <time>2023-08-02T09:58:50.000Z</time>
      </trkpt>
      <trkpt lat="43.77437" lon="7.11894">
        <ele>726.79998779297</ele>
        <time>2023-08-02T09:58:51.000Z</time>
      </trkpt>
      <trkpt lat="43.77437" lon="7.11895">
        <ele>726.79998779297</ele>
        <time>2023-08-02T09:58:52.000Z</time>
      </trkpt>
      <trkpt lat="43.77436" lon="7.11894">
        <ele>726.79998779297</ele>
        <time>2023-08-02T09:58:53.000Z</time>
      </trkpt>
      <trkpt lat="43.77436" lon="7.11894">
        <ele>726.79998779297</ele>
        <time>2023-08-02T09:58:54.000Z</time>
      </trkpt>
      <trkpt lat="43.77436" lon="7.11894">
        <ele>726.79998779297</ele>
        <time>2023-08-02T09:58:55.000Z</time>
      </trkpt>
      <trkpt lat="43.77436" lon="7.11894">
        <ele>726.79998779297</ele>
        <time>2023-08-02T09:58:56.000Z</time>
      </trkpt>
      <trkpt lat="43.77436" lon="7.11894">
        <ele>726.79998779297</ele>
        <time>2023-08-02T09:58:57.000Z</time>
      </trkpt>
      <trkpt lat="43.77436" lon="7.11894">
        <ele>726.79998779297</ele>
        <time>2023-08-02T09:58:58.000Z</time>
      </trkpt>
      <trkpt lat="43.77436" lon="7.11894">
        <ele>726.79998779297</ele>
        <time>2023-08-02T09:58:59.000Z</time>
      </trkpt>
      <trkpt lat="43.77436" lon="7.11894">
        <ele>726.79998779297</ele>
        <time>2023-08-02T09:59:00.000Z</time>
      </trkpt>
      <trkpt lat="43.77436" lon="7.11894">
        <ele>726.79998779297</ele>
        <time>2023-08-02T09:59:01.000Z</time>
      </trkpt>
      <trkpt lat="43.77436" lon="7.11894">
        <ele>726.79998779297</ele>
        <time>2023-08-02T09:59:02.000Z</time>
      </trkpt>
      <trkpt lat="43.77436" lon="7.11894">
        <ele>726.79998779297</ele>
        <time>2023-08-02T09:59:03.000Z</time>
      </trkpt>
      <trkpt lat="43.77436" lon="7.11894">
        <ele>726.79998779297</ele>
        <time>2023-08-02T09:59:04.000Z</time>
      </trkpt>
      <trkpt lat="43.77436" lon="7.11894">
        <ele>726.79998779297</ele>
        <time>2023-08-02T09:59:05.000Z</time>
      </trkpt>
      <trkpt lat="43.77436" lon="7.11894">
        <ele>726.79998779297</ele>
        <time>2023-08-02T09:59:06.000Z</time>
      </trkpt>
      <trkpt lat="43.77436" lon="7.11894">
        <ele>726.79998779297</ele>
        <time>2023-08-02T09:59:07.000Z</time>
      </trkpt>
      <trkpt lat="43.77436" lon="7.11894">
        <ele>726.79998779297</ele>
        <time>2023-08-02T09:59:08.000Z</time>
      </trkpt>
      <trkpt lat="43.77436" lon="7.11894">
        <ele>726.79998779297</ele>
        <time>2023-08-02T09:59:09.000Z</time>
      </trkpt>
      <trkpt lat="43.77436" lon="7.11894">
        <ele>726.79998779297</ele>
        <time>2023-08-02T09:59:10.000Z</time>
      </trkpt>
      <trkpt lat="43.77436" lon="7.11894">
        <ele>726.79998779297</ele>
        <time>2023-08-02T09:59:11.000Z</time>
      </trkpt>
      <trkpt lat="43.77436" lon="7.11894">
        <ele>726.79998779297</ele>
        <time>2023-08-02T09:59:12.000Z</time>
      </trkpt>
      <trkpt lat="43.77436" lon="7.11894">
        <ele>726.79998779297</ele>
        <time>2023-08-02T09:59:13.000Z</time>
      </trkpt>
      <trkpt lat="43.77436" lon="7.11894">
        <ele>726.79998779297</ele>
        <time>2023-08-02T09:59:14.000Z</time>
      </trkpt>
      <trkpt lat="43.77436" lon="7.11894">
        <ele>726.79998779297</ele>
        <time>2023-08-02T09:59:15.000Z</time>
      </trkpt>
      <trkpt lat="43.77436" lon="7.11894">
        <ele>726.79998779297</ele>
        <time>2023-08-02T09:59:16.000Z</time>
      </trkpt>
      <trkpt lat="43.77436" lon="7.11894">
        <ele>726.79998779297</ele>
        <time>2023-08-02T09:59:17.000Z</time>
      </trkpt>
      <trkpt lat="43.77436" lon="7.11894">
        <ele>726.79998779297</ele>
        <time>2023-08-02T09:59:18.000Z</time>
      </trkpt>
      <trkpt lat="43.77436" lon="7.11894">
        <ele>726.79998779297</ele>
        <time>2023-08-02T09:59:19.000Z</time>
      </trkpt>
      <trkpt lat="43.77436" lon="7.11894">
        <ele>726.79998779297</ele>
        <time>2023-08-02T09:59:20.000Z</time>
      </trkpt>
      <trkpt lat="43.77436" lon="7.11894">
        <ele>726.79998779297</ele>
        <time>2023-08-02T09:59:21.000Z</time>
      </trkpt>
      <trkpt lat="43.77434" lon="7.11894">
        <ele>726.79998779297</ele>
        <time>2023-08-02T09:59:22.000Z</time>
      </trkpt>
      <trkpt lat="43.77432" lon="7.11895">
        <ele>727</ele>
        <time>2023-08-02T09:59:23.000Z</time>
      </trkpt>
      <trkpt lat="43.77431" lon="7.11895">
        <ele>727</ele>
        <time>2023-08-02T09:59:24.000Z</time>
      </trkpt>
      <trkpt lat="43.77428" lon="7.11895">
        <ele>727</ele>
        <time>2023-08-02T09:59:25.000Z</time>
      </trkpt>
      <trkpt lat="43.77426" lon="7.11896">
        <ele>727</ele>
        <time>2023-08-02T09:59:26.000Z</time>
      </trkpt>
      <trkpt lat="43.77425" lon="7.11897">
        <ele>727</ele>
        <time>2023-08-02T09:59:27.000Z</time>
      </trkpt>
      <trkpt lat="43.77423" lon="7.11899">
        <ele>727</ele>
        <time>2023-08-02T09:59:28.000Z</time>
      </trkpt>
      <trkpt lat="43.77422" lon="7.119">
        <ele>727</ele>
        <time>2023-08-02T09:59:29.000Z</time>
      </trkpt>
      <trkpt lat="43.7742" lon="7.119">
        <ele>727.40002441406</ele>
        <time>2023-08-02T09:59:30.000Z</time>
      </trkpt>
      <trkpt lat="43.7742" lon="7.119">
        <ele>727.59997558594</ele>
        <time>2023-08-02T09:59:31.000Z</time>
      </trkpt>
      <trkpt lat="43.77418" lon="7.119">
        <ele>727.59997558594</ele>
        <time>2023-08-02T09:59:32.000Z</time>
      </trkpt>
      <trkpt lat="43.77417" lon="7.119">
        <ele>728</ele>
        <time>2023-08-02T09:59:33.000Z</time>
      </trkpt>
      <trkpt lat="43.77415" lon="7.119">
        <ele>728.20001220703</ele>
        <time>2023-08-02T09:59:34.000Z</time>
      </trkpt>
      <trkpt lat="43.77414" lon="7.119">
        <ele>728.40002441406</ele>
        <time>2023-08-02T09:59:35.000Z</time>
      </trkpt>
      <trkpt lat="43.77413" lon="7.11901">
        <ele>728.40002441406</ele>
        <time>2023-08-02T09:59:36.000Z</time>
      </trkpt>
      <trkpt lat="43.77412" lon="7.11902">
        <ele>728.59997558594</ele>
        <time>2023-08-02T09:59:37.000Z</time>
      </trkpt>
      <trkpt lat="43.77412" lon="7.11902">
        <ele>728.59997558594</ele>
        <time>2023-08-02T09:59:38.000Z</time>
      </trkpt>
      <trkpt lat="43.77411" lon="7.11902">
        <ele>728.59997558594</ele>
        <time>2023-08-02T09:59:39.000Z</time>
      </trkpt>
      <trkpt lat="43.77411" lon="7.11903">
        <ele>728.79998779297</ele>
        <time>2023-08-02T09:59:40.000Z</time>
      </trkpt>
      <trkpt lat="43.7741" lon="7.11903">
        <ele>728.79998779297</ele>
        <time>2023-08-02T09:59:41.000Z</time>
      </trkpt>
      <trkpt lat="43.7741" lon="7.11903">
        <ele>729</ele>
        <time>2023-08-02T09:59:42.000Z</time>
      </trkpt>
      <trkpt lat="43.77409" lon="7.11903">
        <ele>729.20001220703</ele>
        <time>2023-08-02T09:59:43.000Z</time>
      </trkpt>
      <trkpt lat="43.77408" lon="7.11903">
        <ele>729.20001220703</ele>
        <time>2023-08-02T09:59:44.000Z</time>
      </trkpt>
      <trkpt lat="43.77408" lon="7.11902">
        <ele>729.40002441406</ele>
        <time>2023-08-02T09:59:45.000Z</time>
      </trkpt>
      <trkpt lat="43.77408" lon="7.11902">
        <ele>729.40002441406</ele>
        <time>2023-08-02T09:59:46.000Z</time>
      </trkpt>
      <trkpt lat="43.77408" lon="7.11902">
        <ele>729.40002441406</ele>
        <time>2023-08-02T09:59:47.000Z</time>
      </trkpt>
      <trkpt lat="43.77407" lon="7.11903">
        <ele>729.40002441406</ele>
        <time>2023-08-02T09:59:48.000Z</time>
      </trkpt>
      <trkpt lat="43.77407" lon="7.11903">
        <ele>729.40002441406</ele>
        <time>2023-08-02T09:59:49.000Z</time>
      </trkpt>
      <trkpt lat="43.77407" lon="7.11904">
        <ele>729.40002441406</ele>
        <time>2023-08-02T09:59:50.000Z</time>
      </trkpt>
      <trkpt lat="43.77406" lon="7.11904">
        <ele>729.40002441406</ele>
        <time>2023-08-02T09:59:51.000Z</time>
      </trkpt>
      <trkpt lat="43.77406" lon="7.11905">
        <ele>729.40002441406</ele>
        <time>2023-08-02T09:59:52.000Z</time>
      </trkpt>
      <trkpt lat="43.77406" lon="7.11905">
        <ele>729.40002441406</ele>
        <time>2023-08-02T09:59:53.000Z</time>
      </trkpt>
      <trkpt lat="43.77405" lon="7.11906">
        <ele>729.59997558594</ele>
        <time>2023-08-02T09:59:54.000Z</time>
      </trkpt>
      <trkpt lat="43.77405" lon="7.11907">
        <ele>729.59997558594</ele>
        <time>2023-08-02T09:59:55.000Z</time>
      </trkpt>
      <trkpt lat="43.77404" lon="7.11907">
        <ele>729.79998779297</ele>
        <time>2023-08-02T09:59:56.000Z</time>
      </trkpt>
      <trkpt lat="43.77404" lon="7.11907">
        <ele>729.79998779297</ele>
        <time>2023-08-02T09:59:57.000Z</time>
      </trkpt>
      <trkpt lat="43.77404" lon="7.11907">
        <ele>730</ele>
        <time>2023-08-02T09:59:58.000Z</time>
      </trkpt>
      <trkpt lat="43.77404" lon="7.11906">
        <ele>730.20001220703</ele>
        <time>2023-08-02T09:59:59.000Z</time>
      </trkpt>
      <trkpt lat="43.77404" lon="7.11907">
        <ele>730.20001220703</ele>
        <time>2023-08-02T10:00:00.000Z</time>
      </trkpt>
      <trkpt lat="43.77404" lon="7.11907">
        <ele>730.20001220703</ele>
        <time>2023-08-02T10:00:01.000Z</time>
      </trkpt>
      <trkpt lat="43.77404" lon="7.11907">
        <ele>730.40002441406</ele>
        <time>2023-08-02T10:00:02.000Z</time>
      </trkpt>
      <trkpt lat="43.77404" lon="7.11908">
        <ele>730.40002441406</ele>
        <time>2023-08-02T10:00:03.000Z</time>
      </trkpt>
      <trkpt lat="43.77404" lon="7.11908">
        <ele>730.40002441406</ele>
        <time>2023-08-02T10:00:04.000Z</time>
      </trkpt>
      <trkpt lat="43.77404" lon="7.11908">
        <ele>730.40002441406</ele>
        <time>2023-08-02T10:00:05.000Z</time>
      </trkpt>
      <trkpt lat="43.77404" lon="7.11908">
        <ele>730.40002441406</ele>
        <time>2023-08-02T10:00:06.000Z</time>
      </trkpt>
      <trkpt lat="43.77404" lon="7.11908">
        <ele>730.40002441406</ele>
        <time>2023-08-02T10:00:07.000Z</time>
      </trkpt>
      <trkpt lat="43.77404" lon="7.11909">
        <ele>730.40002441406</ele>
        <time>2023-08-02T10:00:08.000Z</time>
      </trkpt>
      <trkpt lat="43.77403" lon="7.1191">
        <ele>730.59997558594</ele>
        <time>2023-08-02T10:00:09.000Z</time>
      </trkpt>
      <trkpt lat="43.77403" lon="7.1191">
        <ele>730.59997558594</ele>
        <time>2023-08-02T10:00:10.000Z</time>
      </trkpt>
      <trkpt lat="43.77402" lon="7.11911">
        <ele>730.59997558594</ele>
        <time>2023-08-02T10:00:11.000Z</time>
      </trkpt>
      <trkpt lat="43.77402" lon="7.11912">
        <ele>730.59997558594</ele>
        <time>2023-08-02T10:00:12.000Z</time>
      </trkpt>
      <trkpt lat="43.77401" lon="7.11912">
        <ele>730.79998779297</ele>
        <time>2023-08-02T10:00:13.000Z</time>
      </trkpt>
      <trkpt lat="43.774" lon="7.11913">
        <ele>730.79998779297</ele>
        <time>2023-08-02T10:00:14.000Z</time>
      </trkpt>
      <trkpt lat="43.77399" lon="7.11913">
        <ele>731</ele>
        <time>2023-08-02T10:00:15.000Z</time>
      </trkpt>
      <trkpt lat="43.77399" lon="7.11914">
        <ele>731</ele>
        <time>2023-08-02T10:00:16.000Z</time>
      </trkpt>
      <trkpt lat="43.77398" lon="7.11914">
        <ele>731.20001220703</ele>
        <time>2023-08-02T10:00:17.000Z</time>
      </trkpt>
      <trkpt lat="43.77398" lon="7.11915">
        <ele>731.40002441406</ele>
        <time>2023-08-02T10:00:18.000Z</time>
      </trkpt>
      <trkpt lat="43.77397" lon="7.11915">
        <ele>731.59997558594</ele>
        <time>2023-08-02T10:00:19.000Z</time>
      </trkpt>
      <trkpt lat="43.77397" lon="7.11914">
        <ele>731.59997558594</ele>
        <time>2023-08-02T10:00:20.000Z</time>
      </trkpt>
      <trkpt lat="43.77396" lon="7.11914">
        <ele>731.79998779297</ele>
        <time>2023-08-02T10:00:21.000Z</time>
      </trkpt>
      <trkpt lat="43.77395" lon="7.11914">
        <ele>732</ele>
        <time>2023-08-02T10:00:22.000Z</time>
      </trkpt>
      <trkpt lat="43.77394" lon="7.11914">
        <ele>732.20001220703</ele>
        <time>2023-08-02T10:00:23.000Z</time>
      </trkpt>
      <trkpt lat="43.77394" lon="7.11914">
        <ele>732.40002441406</ele>
        <time>2023-08-02T10:00:24.000Z</time>
      </trkpt>
      <trkpt lat="43.77393" lon="7.11915">
        <ele>732.40002441406</ele>
        <time>2023-08-02T10:00:25.000Z</time>
      </trkpt>
      <trkpt lat="43.77392" lon="7.11915">
        <ele>732.59997558594</ele>
        <time>2023-08-02T10:00:26.000Z</time>
      </trkpt>
      <trkpt lat="43.77391" lon="7.11915">
        <ele>732.79998779297</ele>
        <time>2023-08-02T10:00:27.000Z</time>
      </trkpt>
      <trkpt lat="43.7739" lon="7.11915">
        <ele>732.79998779297</ele>
        <time>2023-08-02T10:00:28.000Z</time>
      </trkpt>
      <trkpt lat="43.77389" lon="7.11916">
        <ele>732.79998779297</ele>
        <time>2023-08-02T10:00:29.000Z</time>
      </trkpt>
      <trkpt lat="43.77389" lon="7.11916">
        <ele>733</ele>
        <time>2023-08-02T10:00:30.000Z</time>
      </trkpt>
      <trkpt lat="43.77388" lon="7.11916">
        <ele>733</ele>
        <time>2023-08-02T10:00:31.000Z</time>
      </trkpt>
      <trkpt lat="43.77388" lon="7.11916">
        <ele>733.20001220703</ele>
        <time>2023-08-02T10:00:32.000Z</time>
      </trkpt>
      <trkpt lat="43.77388" lon="7.11916">
        <ele>733.40002441406</ele>
        <time>2023-08-02T10:00:33.000Z</time>
      </trkpt>
      <trkpt lat="43.77387" lon="7.11917">
        <ele>733.59997558594</ele>
        <time>2023-08-02T10:00:34.000Z</time>
      </trkpt>
      <trkpt lat="43.77387" lon="7.11917">
        <ele>733.59997558594</ele>
        <time>2023-08-02T10:00:35.000Z</time>
      </trkpt>
      <trkpt lat="43.77387" lon="7.11917">
        <ele>733.79998779297</ele>
        <time>2023-08-02T10:00:36.000Z</time>
      </trkpt>
      <trkpt lat="43.77386" lon="7.11918">
        <ele>734</ele>
        <time>2023-08-02T10:00:37.000Z</time>
      </trkpt>
      <trkpt lat="43.77385" lon="7.11918">
        <ele>734.20001220703</ele>
        <time>2023-08-02T10:00:38.000Z</time>
      </trkpt>
      <trkpt lat="43.77384" lon="7.11918">
        <ele>734.40002441406</ele>
        <time>2023-08-02T10:00:39.000Z</time>
      </trkpt>
      <trkpt lat="43.77384" lon="7.11917">
        <ele>734.59997558594</ele>
        <time>2023-08-02T10:00:40.000Z</time>
      </trkpt>
      <trkpt lat="43.77383" lon="7.11917">
        <ele>734.59997558594</ele>
        <time>2023-08-02T10:00:41.000Z</time>
      </trkpt>
      <trkpt lat="43.77382" lon="7.11917">
        <ele>734.79998779297</ele>
        <time>2023-08-02T10:00:42.000Z</time>
      </trkpt>
      <trkpt lat="43.77382" lon="7.11916">
        <ele>735</ele>
        <time>2023-08-02T10:00:43.000Z</time>
      </trkpt>
      <trkpt lat="43.77381" lon="7.11916">
        <ele>735</ele>
        <time>2023-08-02T10:00:44.000Z</time>
      </trkpt>
      <trkpt lat="43.77381" lon="7.11916">
        <ele>735.20001220703</ele>
        <time>2023-08-02T10:00:45.000Z</time>
      </trkpt>
      <trkpt lat="43.7738" lon="7.11916">
        <ele>735.20001220703</ele>
        <time>2023-08-02T10:00:46.000Z</time>
      </trkpt>
      <trkpt lat="43.77379" lon="7.11915">
        <ele>735.40002441406</ele>
        <time>2023-08-02T10:00:47.000Z</time>
      </trkpt>
      <trkpt lat="43.77379" lon="7.11915">
        <ele>735.59997558594</ele>
        <time>2023-08-02T10:00:48.000Z</time>
      </trkpt>
      <trkpt lat="43.77379" lon="7.11915">
        <ele>735.59997558594</ele>
        <time>2023-08-02T10:00:49.000Z</time>
      </trkpt>
      <trkpt lat="43.77379" lon="7.11915">
        <ele>735.59997558594</ele>
        <time>2023-08-02T10:00:50.000Z</time>
      </trkpt>
      <trkpt lat="43.77379" lon="7.11915">
        <ele>735.59997558594</ele>
        <time>2023-08-02T10:00:51.000Z</time>
      </trkpt>
      <trkpt lat="43.77379" lon="7.11915">
        <ele>735.79998779297</ele>
        <time>2023-08-02T10:00:52.000Z</time>
      </trkpt>
      <trkpt lat="43.77378" lon="7.11916">
        <ele>735.79998779297</ele>
        <time>2023-08-02T10:00:53.000Z</time>
      </trkpt>
      <trkpt lat="43.77377" lon="7.11916">
        <ele>735.79998779297</ele>
        <time>2023-08-02T10:00:54.000Z</time>
      </trkpt>
      <trkpt lat="43.77377" lon="7.11916">
        <ele>736</ele>
        <time>2023-08-02T10:00:55.000Z</time>
      </trkpt>
      <trkpt lat="43.77377" lon="7.11916">
        <ele>736</ele>
        <time>2023-08-02T10:00:56.000Z</time>
      </trkpt>
      <trkpt lat="43.77376" lon="7.11916">
        <ele>736</ele>
        <time>2023-08-02T10:00:57.000Z</time>
      </trkpt>
      <trkpt lat="43.77376" lon="7.11917">
        <ele>736</ele>
        <time>2023-08-02T10:00:58.000Z</time>
      </trkpt>
      <trkpt lat="43.77376" lon="7.11917">
        <ele>736</ele>
        <time>2023-08-02T10:00:59.000Z</time>
      </trkpt>
      <trkpt lat="43.77376" lon="7.11917">
        <ele>736.20001220703</ele>
        <time>2023-08-02T10:01:00.000Z</time>
      </trkpt>
      <trkpt lat="43.77375" lon="7.11917">
        <ele>736.20001220703</ele>
        <time>2023-08-02T10:01:01.000Z</time>
      </trkpt>
      <trkpt lat="43.77375" lon="7.11917">
        <ele>736.40002441406</ele>
        <time>2023-08-02T10:01:02.000Z</time>
      </trkpt>
      <trkpt lat="43.77375" lon="7.11917">
        <ele>736.40002441406</ele>
        <time>2023-08-02T10:01:03.000Z</time>
      </trkpt>
      <trkpt lat="43.77375" lon="7.11918">
        <ele>736.59997558594</ele>
        <time>2023-08-02T10:01:04.000Z</time>
      </trkpt>
      <trkpt lat="43.77374" lon="7.11918">
        <ele>736.59997558594</ele>
        <time>2023-08-02T10:01:05.000Z</time>
      </trkpt>
      <trkpt lat="43.77374" lon="7.11918">
        <ele>736.59997558594</ele>
        <time>2023-08-02T10:01:06.000Z</time>
      </trkpt>
      <trkpt lat="43.77373" lon="7.11918">
        <ele>736.79998779297</ele>
        <time>2023-08-02T10:01:07.000Z</time>
      </trkpt>
      <trkpt lat="43.77373" lon="7.11918">
        <ele>736.79998779297</ele>
        <time>2023-08-02T10:01:08.000Z</time>
      </trkpt>
      <trkpt lat="43.77372" lon="7.11918">
        <ele>736.79998779297</ele>
        <time>2023-08-02T10:01:09.000Z</time>
      </trkpt>
      <trkpt lat="43.77373" lon="7.11917">
        <ele>736.79998779297</ele>
        <time>2023-08-02T10:01:10.000Z</time>
      </trkpt>
      <trkpt lat="43.77372" lon="7.11918">
        <ele>737</ele>
        <time>2023-08-02T10:01:11.000Z</time>
      </trkpt>
      <trkpt lat="43.77372" lon="7.11917">
        <ele>737</ele>
        <time>2023-08-02T10:01:12.000Z</time>
      </trkpt>
      <trkpt lat="43.77372" lon="7.11917">
        <ele>737.20001220703</ele>
        <time>2023-08-02T10:01:13.000Z</time>
      </trkpt>
      <trkpt lat="43.77372" lon="7.11918">
        <ele>737.20001220703</ele>
        <time>2023-08-02T10:01:14.000Z</time>
      </trkpt>
      <trkpt lat="43.77372" lon="7.11918">
        <ele>737.20001220703</ele>
        <time>2023-08-02T10:01:15.000Z</time>
      </trkpt>
      <trkpt lat="43.77371" lon="7.11918">
        <ele>737.20001220703</ele>
        <time>2023-08-02T10:01:16.000Z</time>
      </trkpt>
      <trkpt lat="43.77371" lon="7.11918">
        <ele>737.20001220703</ele>
        <time>2023-08-02T10:01:17.000Z</time>
      </trkpt>
      <trkpt lat="43.77371" lon="7.11918">
        <ele>737.40002441406</ele>
        <time>2023-08-02T10:01:18.000Z</time>
      </trkpt>
      <trkpt lat="43.7737" lon="7.11919">
        <ele>737.40002441406</ele>
        <time>2023-08-02T10:01:19.000Z</time>
      </trkpt>
      <trkpt lat="43.7737" lon="7.11919">
        <ele>737.59997558594</ele>
        <time>2023-08-02T10:01:20.000Z</time>
      </trkpt>
      <trkpt lat="43.7737" lon="7.11919">
        <ele>737.59997558594</ele>
        <time>2023-08-02T10:01:21.000Z</time>
      </trkpt>
      <trkpt lat="43.7737" lon="7.11919">
        <ele>737.59997558594</ele>
        <time>2023-08-02T10:01:22.000Z</time>
      </trkpt>
      <trkpt lat="43.7737" lon="7.11918">
        <ele>737.59997558594</ele>
        <time>2023-08-02T10:01:23.000Z</time>
      </trkpt>
      <trkpt lat="43.77369" lon="7.11919">
        <ele>737.79998779297</ele>
        <time>2023-08-02T10:01:24.000Z</time>
      </trkpt>
      <trkpt lat="43.77369" lon="7.11919">
        <ele>737.79998779297</ele>
        <time>2023-08-02T10:01:25.000Z</time>
      </trkpt>
      <trkpt lat="43.77368" lon="7.11919">
        <ele>737.79998779297</ele>
        <time>2023-08-02T10:01:26.000Z</time>
      </trkpt>
      <trkpt lat="43.77368" lon="7.11919">
        <ele>737.79998779297</ele>
        <time>2023-08-02T10:01:27.000Z</time>
      </trkpt>
      <trkpt lat="43.77368" lon="7.11919">
        <ele>737.79998779297</ele>
        <time>2023-08-02T10:01:28.000Z</time>
      </trkpt>
      <trkpt lat="43.77367" lon="7.11919">
        <ele>738</ele>
        <time>2023-08-02T10:01:29.000Z</time>
      </trkpt>
      <trkpt lat="43.77367" lon="7.11918">
        <ele>738</ele>
        <time>2023-08-02T10:01:30.000Z</time>
      </trkpt>
      <trkpt lat="43.77366" lon="7.11918">
        <ele>738.20001220703</ele>
        <time>2023-08-02T10:01:31.000Z</time>
      </trkpt>
      <trkpt lat="43.77365" lon="7.11919">
        <ele>738.20001220703</ele>
        <time>2023-08-02T10:01:32.000Z</time>
      </trkpt>
      <trkpt lat="43.77363" lon="7.11918">
        <ele>738.40002441406</ele>
        <time>2023-08-02T10:01:33.000Z</time>
      </trkpt>
      <trkpt lat="43.77363" lon="7.11918">
        <ele>738.40002441406</ele>
        <time>2023-08-02T10:01:34.000Z</time>
      </trkpt>
      <trkpt lat="43.77362" lon="7.11918">
        <ele>738.40002441406</ele>
        <time>2023-08-02T10:01:35.000Z</time>
      </trkpt>
      <trkpt lat="43.77361" lon="7.11918">
        <ele>738.59997558594</ele>
        <time>2023-08-02T10:01:36.000Z</time>
      </trkpt>
      <trkpt lat="43.7736" lon="7.11918">
        <ele>738.59997558594</ele>
        <time>2023-08-02T10:01:37.000Z</time>
      </trkpt>
      <trkpt lat="43.7736" lon="7.11919">
        <ele>738.59997558594</ele>
        <time>2023-08-02T10:01:38.000Z</time>
      </trkpt>
      <trkpt lat="43.77359" lon="7.11919">
        <ele>738.79998779297</ele>
        <time>2023-08-02T10:01:39.000Z</time>
      </trkpt>
      <trkpt lat="43.77358" lon="7.11919">
        <ele>739</ele>
        <time>2023-08-02T10:01:40.000Z</time>
      </trkpt>
      <trkpt lat="43.77357" lon="7.1192">
        <ele>739</ele>
        <time>2023-08-02T10:01:41.000Z</time>
      </trkpt>
      <trkpt lat="43.77357" lon="7.1192">
        <ele>739.20001220703</ele>
        <time>2023-08-02T10:01:42.000Z</time>
      </trkpt>
      <trkpt lat="43.77356" lon="7.1192">
        <ele>739.20001220703</ele>
        <time>2023-08-02T10:01:43.000Z</time>
      </trkpt>
      <trkpt lat="43.77355" lon="7.1192">
        <ele>739.20001220703</ele>
        <time>2023-08-02T10:01:44.000Z</time>
      </trkpt>
      <trkpt lat="43.77355" lon="7.11921">
        <ele>739.40002441406</ele>
        <time>2023-08-02T10:01:45.000Z</time>
      </trkpt>
      <trkpt lat="43.77355" lon="7.1192">
        <ele>739.59997558594</ele>
        <time>2023-08-02T10:01:46.000Z</time>
      </trkpt>
      <trkpt lat="43.77355" lon="7.1192">
        <ele>739.79998779297</ele>
        <time>2023-08-02T10:01:47.000Z</time>
      </trkpt>
      <trkpt lat="43.77354" lon="7.11921">
        <ele>740</ele>
        <time>2023-08-02T10:01:48.000Z</time>
      </trkpt>
      <trkpt lat="43.77354" lon="7.11921">
        <ele>740</ele>
        <time>2023-08-02T10:01:49.000Z</time>
      </trkpt>
      <trkpt lat="43.77353" lon="7.11921">
        <ele>740</ele>
        <time>2023-08-02T10:01:50.000Z</time>
      </trkpt>
      <trkpt lat="43.77354" lon="7.11921">
        <ele>740.20001220703</ele>
        <time>2023-08-02T10:01:51.000Z</time>
      </trkpt>
      <trkpt lat="43.77354" lon="7.1192">
        <ele>740.20001220703</ele>
        <time>2023-08-02T10:01:52.000Z</time>
      </trkpt>
      <trkpt lat="43.77354" lon="7.1192">
        <ele>740.40002441406</ele>
        <time>2023-08-02T10:01:53.000Z</time>
      </trkpt>
      <trkpt lat="43.77354" lon="7.1192">
        <ele>740.59997558594</ele>
        <time>2023-08-02T10:01:54.000Z</time>
      </trkpt>
      <trkpt lat="43.77354" lon="7.11921">
        <ele>740.59997558594</ele>
        <time>2023-08-02T10:01:55.000Z</time>
      </trkpt>
      <trkpt lat="43.77354" lon="7.11921">
        <ele>740.59997558594</ele>
        <time>2023-08-02T10:01:56.000Z</time>
      </trkpt>
      <trkpt lat="43.77353" lon="7.11922">
        <ele>740.59997558594</ele>
        <time>2023-08-02T10:01:57.000Z</time>
      </trkpt>
      <trkpt lat="43.77353" lon="7.11923">
        <ele>740.59997558594</ele>
        <time>2023-08-02T10:01:58.000Z</time>
      </trkpt>
      <trkpt lat="43.77353" lon="7.11923">
        <ele>740.79998779297</ele>
        <time>2023-08-02T10:01:59.000Z</time>
      </trkpt>
      <trkpt lat="43.77353" lon="7.11924">
        <ele>740.79998779297</ele>
        <time>2023-08-02T10:02:00.000Z</time>
      </trkpt>
      <trkpt lat="43.77353" lon="7.11924">
        <ele>740.79998779297</ele>
        <time>2023-08-02T10:02:01.000Z</time>
      </trkpt>
      <trkpt lat="43.77352" lon="7.11924">
        <ele>740.79998779297</ele>
        <time>2023-08-02T10:02:02.000Z</time>
      </trkpt>
      <trkpt lat="43.77352" lon="7.11925">
        <ele>741</ele>
        <time>2023-08-02T10:02:03.000Z</time>
      </trkpt>
      <trkpt lat="43.77351" lon="7.11926">
        <ele>741</ele>
        <time>2023-08-02T10:02:04.000Z</time>
      </trkpt>
      <trkpt lat="43.77351" lon="7.11926">
        <ele>741</ele>
        <time>2023-08-02T10:02:05.000Z</time>
      </trkpt>
      <trkpt lat="43.77351" lon="7.11925">
        <ele>741.20001220703</ele>
        <time>2023-08-02T10:02:06.000Z</time>
      </trkpt>
      <trkpt lat="43.77351" lon="7.11926">
        <ele>741.20001220703</ele>
        <time>2023-08-02T10:02:07.000Z</time>
      </trkpt>
      <trkpt lat="43.7735" lon="7.11926">
        <ele>741.40002441406</ele>
        <time>2023-08-02T10:02:08.000Z</time>
      </trkpt>
      <trkpt lat="43.77349" lon="7.11927">
        <ele>741.59997558594</ele>
        <time>2023-08-02T10:02:09.000Z</time>
      </trkpt>
      <trkpt lat="43.77349" lon="7.11927">
        <ele>741.79998779297</ele>
        <time>2023-08-02T10:02:10.000Z</time>
      </trkpt>
      <trkpt lat="43.77349" lon="7.11927">
        <ele>741.79998779297</ele>
        <time>2023-08-02T10:02:11.000Z</time>
      </trkpt>
      <trkpt lat="43.77349" lon="7.11927">
        <ele>741.79998779297</ele>
        <time>2023-08-02T10:02:12.000Z</time>
      </trkpt>
      <trkpt lat="43.77349" lon="7.11927">
        <ele>742</ele>
        <time>2023-08-02T10:02:13.000Z</time>
      </trkpt>
      <trkpt lat="43.77349" lon="7.11927">
        <ele>742</ele>
        <time>2023-08-02T10:02:14.000Z</time>
      </trkpt>
      <trkpt lat="43.77349" lon="7.11927">
        <ele>742</ele>
        <time>2023-08-02T10:02:15.000Z</time>
      </trkpt>
      <trkpt lat="43.77349" lon="7.11927">
        <ele>742</ele>
        <time>2023-08-02T10:02:16.000Z</time>
      </trkpt>
      <trkpt lat="43.77349" lon="7.11927">
        <ele>742</ele>
        <time>2023-08-02T10:02:17.000Z</time>
      </trkpt>
      <trkpt lat="43.77349" lon="7.11927">
        <ele>742</ele>
        <time>2023-08-02T10:02:18.000Z</time>
      </trkpt>
      <trkpt lat="43.77349" lon="7.11927">
        <ele>742</ele>
        <time>2023-08-02T10:02:19.000Z</time>
      </trkpt>
      <trkpt lat="43.77349" lon="7.11926">
        <ele>742</ele>
        <time>2023-08-02T10:02:20.000Z</time>
      </trkpt>
      <trkpt lat="43.77349" lon="7.11927">
        <ele>742</ele>
        <time>2023-08-02T10:02:21.000Z</time>
      </trkpt>
      <trkpt lat="43.77349" lon="7.11926">
        <ele>742</ele>
        <time>2023-08-02T10:02:22.000Z</time>
      </trkpt>
      <trkpt lat="43.77349" lon="7.11926">
        <ele>742</ele>
        <time>2023-08-02T10:02:23.000Z</time>
      </trkpt>
      <trkpt lat="43.77349" lon="7.11926">
        <ele>742.20001220703</ele>
        <time>2023-08-02T10:02:24.000Z</time>
      </trkpt>
      <trkpt lat="43.77349" lon="7.11926">
        <ele>742.20001220703</ele>
        <time>2023-08-02T10:02:25.000Z</time>
      </trkpt>
      <trkpt lat="43.77348" lon="7.11926">
        <ele>742.20001220703</ele>
        <time>2023-08-02T10:02:26.000Z</time>
      </trkpt>
      <trkpt lat="43.77348" lon="7.11926">
        <ele>742</ele>
        <time>2023-08-02T10:02:27.000Z</time>
      </trkpt>
      <trkpt lat="43.77348" lon="7.11927">
        <ele>742.20001220703</ele>
        <time>2023-08-02T10:02:28.000Z</time>
      </trkpt>
      <trkpt lat="43.77348" lon="7.11927">
        <ele>742.20001220703</ele>
        <time>2023-08-02T10:02:29.000Z</time>
      </trkpt>
      <trkpt lat="43.77348" lon="7.11927">
        <ele>742.20001220703</ele>
        <time>2023-08-02T10:02:30.000Z</time>
      </trkpt>
      <trkpt lat="43.77347" lon="7.11928">
        <ele>742.20001220703</ele>
        <time>2023-08-02T10:02:31.000Z</time>
      </trkpt>
      <trkpt lat="43.77347" lon="7.11928">
        <ele>742.20001220703</ele>
        <time>2023-08-02T10:02:32.000Z</time>
      </trkpt>
      <trkpt lat="43.77346" lon="7.11928">
        <ele>742.40002441406</ele>
        <time>2023-08-02T10:02:33.000Z</time>
      </trkpt>
      <trkpt lat="43.77346" lon="7.11928">
        <ele>742.40002441406</ele>
        <time>2023-08-02T10:02:34.000Z</time>
      </trkpt>
      <trkpt lat="43.77345" lon="7.11929">
        <ele>742.59997558594</ele>
        <time>2023-08-02T10:02:35.000Z</time>
      </trkpt>
      <trkpt lat="43.77344" lon="7.11929">
        <ele>742.59997558594</ele>
        <time>2023-08-02T10:02:36.000Z</time>
      </trkpt>
      <trkpt lat="43.77344" lon="7.11929">
        <ele>742.79998779297</ele>
        <time>2023-08-02T10:02:37.000Z</time>
      </trkpt>
      <trkpt lat="43.77344" lon="7.1193">
        <ele>743</ele>
        <time>2023-08-02T10:02:38.000Z</time>
      </trkpt>
      <trkpt lat="43.77343" lon="7.1193">
        <ele>743</ele>
        <time>2023-08-02T10:02:39.000Z</time>
      </trkpt>
      <trkpt lat="43.77343" lon="7.1193">
        <ele>743.20001220703</ele>
        <time>2023-08-02T10:02:40.000Z</time>
      </trkpt>
      <trkpt lat="43.77343" lon="7.11931">
        <ele>743.20001220703</ele>
        <time>2023-08-02T10:02:41.000Z</time>
      </trkpt>
      <trkpt lat="43.77343" lon="7.11932">
        <ele>743.20001220703</ele>
        <time>2023-08-02T10:02:42.000Z</time>
      </trkpt>
      <trkpt lat="43.77343" lon="7.11932">
        <ele>743.40002441406</ele>
        <time>2023-08-02T10:02:43.000Z</time>
      </trkpt>
      <trkpt lat="43.77342" lon="7.11933">
        <ele>743.40002441406</ele>
        <time>2023-08-02T10:02:44.000Z</time>
      </trkpt>
      <trkpt lat="43.77342" lon="7.11933">
        <ele>743.59997558594</ele>
        <time>2023-08-02T10:02:45.000Z</time>
      </trkpt>
      <trkpt lat="43.77341" lon="7.11934">
        <ele>743.59997558594</ele>
        <time>2023-08-02T10:02:46.000Z</time>
      </trkpt>
      <trkpt lat="43.77341" lon="7.11934">
        <ele>743.79998779297</ele>
        <time>2023-08-02T10:02:47.000Z</time>
      </trkpt>
      <trkpt lat="43.77341" lon="7.11935">
        <ele>743.79998779297</ele>
        <time>2023-08-02T10:02:48.000Z</time>
      </trkpt>
      <trkpt lat="43.7734" lon="7.11935">
        <ele>744</ele>
        <time>2023-08-02T10:02:49.000Z</time>
      </trkpt>
      <trkpt lat="43.7734" lon="7.11936">
        <ele>744</ele>
        <time>2023-08-02T10:02:50.000Z</time>
      </trkpt>
      <trkpt lat="43.77339" lon="7.11936">
        <ele>744</ele>
        <time>2023-08-02T10:02:51.000Z</time>
      </trkpt>
      <trkpt lat="43.77339" lon="7.11937">
        <ele>744.20001220703</ele>
        <time>2023-08-02T10:02:52.000Z</time>
      </trkpt>
      <trkpt lat="43.77339" lon="7.11937">
        <ele>744.20001220703</ele>
        <time>2023-08-02T10:02:53.000Z</time>
      </trkpt>
      <trkpt lat="43.7734" lon="7.11938">
        <ele>744.40002441406</ele>
        <time>2023-08-02T10:02:54.000Z</time>
      </trkpt>
      <trkpt lat="43.7734" lon="7.11938">
        <ele>744.40002441406</ele>
        <time>2023-08-02T10:02:55.000Z</time>
      </trkpt>
      <trkpt lat="43.7734" lon="7.11938">
        <ele>744.59997558594</ele>
        <time>2023-08-02T10:02:56.000Z</time>
      </trkpt>
      <trkpt lat="43.7734" lon="7.11938">
        <ele>744.79998779297</ele>
        <time>2023-08-02T10:02:57.000Z</time>
      </trkpt>
      <trkpt lat="43.7734" lon="7.11937">
        <ele>744.79998779297</ele>
        <time>2023-08-02T10:02:58.000Z</time>
      </trkpt>
      <trkpt lat="43.7734" lon="7.11937">
        <ele>744.79998779297</ele>
        <time>2023-08-02T10:02:59.000Z</time>
      </trkpt>
      <trkpt lat="43.77341" lon="7.11936">
        <ele>744.79998779297</ele>
        <time>2023-08-02T10:03:00.000Z</time>
      </trkpt>
      <trkpt lat="43.77341" lon="7.11936">
        <ele>744.79998779297</ele>
        <time>2023-08-02T10:03:01.000Z</time>
      </trkpt>
      <trkpt lat="43.77341" lon="7.11937">
        <ele>744.79998779297</ele>
        <time>2023-08-02T10:03:02.000Z</time>
      </trkpt>
      <trkpt lat="43.77341" lon="7.11937">
        <ele>744.79998779297</ele>
        <time>2023-08-02T10:03:03.000Z</time>
      </trkpt>
      <trkpt lat="43.77341" lon="7.11937">
        <ele>744.79998779297</ele>
        <time>2023-08-02T10:03:04.000Z</time>
      </trkpt>
      <trkpt lat="43.77341" lon="7.11937">
        <ele>745</ele>
        <time>2023-08-02T10:03:05.000Z</time>
      </trkpt>
      <trkpt lat="43.77341" lon="7.11937">
        <ele>745</ele>
        <time>2023-08-02T10:03:06.000Z</time>
      </trkpt>
      <trkpt lat="43.77341" lon="7.11937">
        <ele>745</ele>
        <time>2023-08-02T10:03:07.000Z</time>
      </trkpt>
      <trkpt lat="43.77341" lon="7.11937">
        <ele>745</ele>
        <time>2023-08-02T10:03:08.000Z</time>
      </trkpt>
      <trkpt lat="43.77341" lon="7.11937">
        <ele>745</ele>
        <time>2023-08-02T10:03:09.000Z</time>
      </trkpt>
      <trkpt lat="43.77341" lon="7.11937">
        <ele>745</ele>
        <time>2023-08-02T10:03:10.000Z</time>
      </trkpt>
      <trkpt lat="43.77341" lon="7.11937">
        <ele>745</ele>
        <time>2023-08-02T10:03:11.000Z</time>
      </trkpt>
      <trkpt lat="43.77341" lon="7.11937">
        <ele>745</ele>
        <time>2023-08-02T10:03:12.000Z</time>
      </trkpt>
      <trkpt lat="43.77341" lon="7.11937">
        <ele>745</ele>
        <time>2023-08-02T10:03:13.000Z</time>
      </trkpt>
      <trkpt lat="43.77341" lon="7.11937">
        <ele>745</ele>
        <time>2023-08-02T10:03:14.000Z</time>
      </trkpt>
      <trkpt lat="43.77341" lon="7.11936">
        <ele>745</ele>
        <time>2023-08-02T10:03:15.000Z</time>
      </trkpt>
      <trkpt lat="43.77341" lon="7.11936">
        <ele>745</ele>
        <time>2023-08-02T10:03:16.000Z</time>
      </trkpt>
      <trkpt lat="43.77341" lon="7.11936">
        <ele>745</ele>
        <time>2023-08-02T10:03:17.000Z</time>
      </trkpt>
      <trkpt lat="43.77341" lon="7.11936">
        <ele>745</ele>
        <time>2023-08-02T10:03:18.000Z</time>
      </trkpt>
      <trkpt lat="43.77341" lon="7.11936">
        <ele>745</ele>
        <time>2023-08-02T10:03:19.000Z</time>
      </trkpt>
      <trkpt lat="43.77341" lon="7.11936">
        <ele>745</ele>
        <time>2023-08-02T10:03:20.000Z</time>
      </trkpt>
      <trkpt lat="43.77341" lon="7.11936">
        <ele>745</ele>
        <time>2023-08-02T10:03:21.000Z</time>
      </trkpt>
      <trkpt lat="43.7734" lon="7.11936">
        <ele>745</ele>
        <time>2023-08-02T10:03:22.000Z</time>
      </trkpt>
      <trkpt lat="43.7734" lon="7.11936">
        <ele>745</ele>
        <time>2023-08-02T10:03:23.000Z</time>
      </trkpt>
      <trkpt lat="43.7734" lon="7.11936">
        <ele>745</ele>
        <time>2023-08-02T10:03:24.000Z</time>
      </trkpt>
      <trkpt lat="43.7734" lon="7.11936">
        <ele>745.40002441406</ele>
        <time>2023-08-02T10:03:25.000Z</time>
      </trkpt>
      <trkpt lat="43.7734" lon="7.11937">
        <ele>745.40002441406</ele>
        <time>2023-08-02T10:03:26.000Z</time>
      </trkpt>
      <trkpt lat="43.77339" lon="7.11937">
        <ele>745.40002441406</ele>
        <time>2023-08-02T10:03:27.000Z</time>
      </trkpt>
      <trkpt lat="43.77338" lon="7.11938">
        <ele>745.40002441406</ele>
        <time>2023-08-02T10:03:28.000Z</time>
      </trkpt>
      <trkpt lat="43.77338" lon="7.11938">
        <ele>745.40002441406</ele>
        <time>2023-08-02T10:03:29.000Z</time>
      </trkpt>
      <trkpt lat="43.77338" lon="7.11938">
        <ele>745.40002441406</ele>
        <time>2023-08-02T10:03:30.000Z</time>
      </trkpt>
      <trkpt lat="43.77338" lon="7.11938">
        <ele>745.40002441406</ele>
        <time>2023-08-02T10:03:31.000Z</time>
      </trkpt>
      <trkpt lat="43.77338" lon="7.11938">
        <ele>745.40002441406</ele>
        <time>2023-08-02T10:03:32.000Z</time>
      </trkpt>
      <trkpt lat="43.77338" lon="7.11938">
        <ele>745.40002441406</ele>
        <time>2023-08-02T10:03:33.000Z</time>
      </trkpt>
      <trkpt lat="43.77338" lon="7.11938">
        <ele>745.40002441406</ele>
        <time>2023-08-02T10:03:34.000Z</time>
      </trkpt>
      <trkpt lat="43.77338" lon="7.11938">
        <ele>745.40002441406</ele>
        <time>2023-08-02T10:03:35.000Z</time>
      </trkpt>
      <trkpt lat="43.77338" lon="7.11938">
        <ele>745.40002441406</ele>
        <time>2023-08-02T10:03:36.000Z</time>
      </trkpt>
      <trkpt lat="43.77338" lon="7.11937">
        <ele>745.59997558594</ele>
        <time>2023-08-02T10:03:37.000Z</time>
      </trkpt>
      <trkpt lat="43.77337" lon="7.11937">
        <ele>745.59997558594</ele>
        <time>2023-08-02T10:03:38.000Z</time>
      </trkpt>
      <trkpt lat="43.77337" lon="7.11938">
        <ele>745.59997558594</ele>
        <time>2023-08-02T10:03:39.000Z</time>
      </trkpt>
      <trkpt lat="43.77337" lon="7.11938">
        <ele>745.59997558594</ele>
        <time>2023-08-02T10:03:40.000Z</time>
      </trkpt>
      <trkpt lat="43.77337" lon="7.11939">
        <ele>745.59997558594</ele>
        <time>2023-08-02T10:03:41.000Z</time>
      </trkpt>
      <trkpt lat="43.77336" lon="7.11939">
        <ele>745.59997558594</ele>
        <time>2023-08-02T10:03:42.000Z</time>
      </trkpt>
      <trkpt lat="43.77336" lon="7.1194">
        <ele>745.59997558594</ele>
        <time>2023-08-02T10:03:43.000Z</time>
      </trkpt>
      <trkpt lat="43.77336" lon="7.11941">
        <ele>745.79998779297</ele>
        <time>2023-08-02T10:03:44.000Z</time>
      </trkpt>
      <trkpt lat="43.77335" lon="7.11941">
        <ele>745.79998779297</ele>
        <time>2023-08-02T10:03:45.000Z</time>
      </trkpt>
      <trkpt lat="43.77335" lon="7.11942">
        <ele>745.79998779297</ele>
        <time>2023-08-02T10:03:46.000Z</time>
      </trkpt>
      <trkpt lat="43.77334" lon="7.11943">
        <ele>746</ele>
        <time>2023-08-02T10:03:47.000Z</time>
      </trkpt>
      <trkpt lat="43.77333" lon="7.11943">
        <ele>746</ele>
        <time>2023-08-02T10:03:48.000Z</time>
      </trkpt>
      <trkpt lat="43.77333" lon="7.11944">
        <ele>746</ele>
        <time>2023-08-02T10:03:49.000Z</time>
      </trkpt>
      <trkpt lat="43.77332" lon="7.11944">
        <ele>746.20001220703</ele>
        <time>2023-08-02T10:03:50.000Z</time>
      </trkpt>
      <trkpt lat="43.77332" lon="7.11945">
        <ele>746.40002441406</ele>
        <time>2023-08-02T10:03:51.000Z</time>
      </trkpt>
      <trkpt lat="43.77331" lon="7.11946">
        <ele>746.59997558594</ele>
        <time>2023-08-02T10:03:52.000Z</time>
      </trkpt>
      <trkpt lat="43.77331" lon="7.11946">
        <ele>746.79998779297</ele>
        <time>2023-08-02T10:03:53.000Z</time>
      </trkpt>
      <trkpt lat="43.77331" lon="7.11947">
        <ele>746.79998779297</ele>
        <time>2023-08-02T10:03:54.000Z</time>
      </trkpt>
      <trkpt lat="43.7733" lon="7.11948">
        <ele>747</ele>
        <time>2023-08-02T10:03:55.000Z</time>
      </trkpt>
      <trkpt lat="43.77329" lon="7.11948">
        <ele>747</ele>
        <time>2023-08-02T10:03:56.000Z</time>
      </trkpt>
      <trkpt lat="43.77329" lon="7.11948">
        <ele>747</ele>
        <time>2023-08-02T10:03:57.000Z</time>
      </trkpt>
      <trkpt lat="43.77329" lon="7.11948">
        <ele>747.20001220703</ele>
        <time>2023-08-02T10:03:58.000Z</time>
      </trkpt>
      <trkpt lat="43.77329" lon="7.11949">
        <ele>747.40002441406</ele>
        <time>2023-08-02T10:03:59.000Z</time>
      </trkpt>
      <trkpt lat="43.77329" lon="7.11949">
        <ele>747.59997558594</ele>
        <time>2023-08-02T10:04:00.000Z</time>
      </trkpt>
      <trkpt lat="43.77328" lon="7.11949">
        <ele>747.59997558594</ele>
        <time>2023-08-02T10:04:01.000Z</time>
      </trkpt>
      <trkpt lat="43.77327" lon="7.1195">
        <ele>747.79998779297</ele>
        <time>2023-08-02T10:04:02.000Z</time>
      </trkpt>
      <trkpt lat="43.77327" lon="7.1195">
        <ele>747.79998779297</ele>
        <time>2023-08-02T10:04:03.000Z</time>
      </trkpt>
      <trkpt lat="43.77326" lon="7.1195">
        <ele>748</ele>
        <time>2023-08-02T10:04:04.000Z</time>
      </trkpt>
      <trkpt lat="43.77326" lon="7.1195">
        <ele>748.20001220703</ele>
        <time>2023-08-02T10:04:05.000Z</time>
      </trkpt>
      <trkpt lat="43.77325" lon="7.1195">
        <ele>748.40002441406</ele>
        <time>2023-08-02T10:04:06.000Z</time>
      </trkpt>
      <trkpt lat="43.77325" lon="7.1195">
        <ele>748.59997558594</ele>
        <time>2023-08-02T10:04:07.000Z</time>
      </trkpt>
      <trkpt lat="43.77325" lon="7.1195">
        <ele>748.59997558594</ele>
        <time>2023-08-02T10:04:08.000Z</time>
      </trkpt>
      <trkpt lat="43.77324" lon="7.1195">
        <ele>748.59997558594</ele>
        <time>2023-08-02T10:04:09.000Z</time>
      </trkpt>
      <trkpt lat="43.77323" lon="7.1195">
        <ele>748.79998779297</ele>
        <time>2023-08-02T10:04:10.000Z</time>
      </trkpt>
      <trkpt lat="43.77323" lon="7.1195">
        <ele>748.79998779297</ele>
        <time>2023-08-02T10:04:11.000Z</time>
      </trkpt>
      <trkpt lat="43.77323" lon="7.11951">
        <ele>748.79998779297</ele>
        <time>2023-08-02T10:04:12.000Z</time>
      </trkpt>
      <trkpt lat="43.77323" lon="7.11952">
        <ele>749</ele>
        <time>2023-08-02T10:04:13.000Z</time>
      </trkpt>
      <trkpt lat="43.77323" lon="7.11953">
        <ele>749</ele>
        <time>2023-08-02T10:04:14.000Z</time>
      </trkpt>
      <trkpt lat="43.77322" lon="7.11953">
        <ele>749.40002441406</ele>
        <time>2023-08-02T10:04:15.000Z</time>
      </trkpt>
      <trkpt lat="43.77322" lon="7.11954">
        <ele>749.40002441406</ele>
        <time>2023-08-02T10:04:16.000Z</time>
      </trkpt>
      <trkpt lat="43.77322" lon="7.11955">
        <ele>749.59997558594</ele>
        <time>2023-08-02T10:04:17.000Z</time>
      </trkpt>
      <trkpt lat="43.77322" lon="7.11955">
        <ele>749.59997558594</ele>
        <time>2023-08-02T10:04:18.000Z</time>
      </trkpt>
      <trkpt lat="43.77321" lon="7.11956">
        <ele>749.79998779297</ele>
        <time>2023-08-02T10:04:19.000Z</time>
      </trkpt>
      <trkpt lat="43.7732" lon="7.11956">
        <ele>749.79998779297</ele>
        <time>2023-08-02T10:04:20.000Z</time>
      </trkpt>
      <trkpt lat="43.7732" lon="7.11957">
        <ele>749.79998779297</ele>
        <time>2023-08-02T10:04:21.000Z</time>
      </trkpt>
      <trkpt lat="43.77319" lon="7.11958">
        <ele>749.79998779297</ele>
        <time>2023-08-02T10:04:22.000Z</time>
      </trkpt>
      <trkpt lat="43.77318" lon="7.11958">
        <ele>750</ele>
        <time>2023-08-02T10:04:23.000Z</time>
      </trkpt>
      <trkpt lat="43.77318" lon="7.11959">
        <ele>750</ele>
        <time>2023-08-02T10:04:24.000Z</time>
      </trkpt>
      <trkpt lat="43.77317" lon="7.11959">
        <ele>750.20001220703</ele>
        <time>2023-08-02T10:04:25.000Z</time>
      </trkpt>
      <trkpt lat="43.77317" lon="7.1196">
        <ele>750.20001220703</ele>
        <time>2023-08-02T10:04:26.000Z</time>
      </trkpt>
      <trkpt lat="43.77316" lon="7.1196">
        <ele>750.40002441406</ele>
        <time>2023-08-02T10:04:27.000Z</time>
      </trkpt>
      <trkpt lat="43.77315" lon="7.1196">
        <ele>750.59997558594</ele>
        <time>2023-08-02T10:04:28.000Z</time>
      </trkpt>
      <trkpt lat="43.77314" lon="7.1196">
        <ele>750.59997558594</ele>
        <time>2023-08-02T10:04:29.000Z</time>
      </trkpt>
      <trkpt lat="43.77314" lon="7.11961">
        <ele>750.79998779297</ele>
        <time>2023-08-02T10:04:30.000Z</time>
      </trkpt>
      <trkpt lat="43.77313" lon="7.11961">
        <ele>750.79998779297</ele>
        <time>2023-08-02T10:04:31.000Z</time>
      </trkpt>
      <trkpt lat="43.77312" lon="7.11962">
        <ele>751</ele>
        <time>2023-08-02T10:04:32.000Z</time>
      </trkpt>
      <trkpt lat="43.77311" lon="7.11962">
        <ele>751.20001220703</ele>
        <time>2023-08-02T10:04:33.000Z</time>
      </trkpt>
      <trkpt lat="43.77309" lon="7.11963">
        <ele>751.20001220703</ele>
        <time>2023-08-02T10:04:34.000Z</time>
      </trkpt>
      <trkpt lat="43.77308" lon="7.11963">
        <ele>751.20001220703</ele>
        <time>2023-08-02T10:04:35.000Z</time>
      </trkpt>
      <trkpt lat="43.77307" lon="7.11964">
        <ele>751.40002441406</ele>
        <time>2023-08-02T10:04:36.000Z</time>
      </trkpt>
      <trkpt lat="43.77306" lon="7.11965">
        <ele>751.40002441406</ele>
        <time>2023-08-02T10:04:37.000Z</time>
      </trkpt>
      <trkpt lat="43.77306" lon="7.11966">
        <ele>751.59997558594</ele>
        <time>2023-08-02T10:04:38.000Z</time>
      </trkpt>
      <trkpt lat="43.77305" lon="7.11967">
        <ele>751.59997558594</ele>
        <time>2023-08-02T10:04:39.000Z</time>
      </trkpt>
      <trkpt lat="43.77305" lon="7.11967">
        <ele>751.79998779297</ele>
        <time>2023-08-02T10:04:40.000Z</time>
      </trkpt>
      <trkpt lat="43.77304" lon="7.11967">
        <ele>752</ele>
        <time>2023-08-02T10:04:41.000Z</time>
      </trkpt>
      <trkpt lat="43.77304" lon="7.11967">
        <ele>752.20001220703</ele>
        <time>2023-08-02T10:04:42.000Z</time>
      </trkpt>
      <trkpt lat="43.77303" lon="7.11967">
        <ele>752.20001220703</ele>
        <time>2023-08-02T10:04:43.000Z</time>
      </trkpt>
      <trkpt lat="43.77303" lon="7.11967">
        <ele>752.20001220703</ele>
        <time>2023-08-02T10:04:44.000Z</time>
      </trkpt>
      <trkpt lat="43.77303" lon="7.11967">
        <ele>752.20001220703</ele>
        <time>2023-08-02T10:04:45.000Z</time>
      </trkpt>
      <trkpt lat="43.77303" lon="7.11967">
        <ele>752.40002441406</ele>
        <time>2023-08-02T10:04:46.000Z</time>
      </trkpt>
      <trkpt lat="43.77303" lon="7.11967">
        <ele>752.40002441406</ele>
        <time>2023-08-02T10:04:47.000Z</time>
      </trkpt>
      <trkpt lat="43.77303" lon="7.11967">
        <ele>752.40002441406</ele>
        <time>2023-08-02T10:04:48.000Z</time>
      </trkpt>
      <trkpt lat="43.77303" lon="7.11967">
        <ele>752.40002441406</ele>
        <time>2023-08-02T10:04:49.000Z</time>
      </trkpt>
      <trkpt lat="43.77303" lon="7.11967">
        <ele>752.40002441406</ele>
        <time>2023-08-02T10:04:50.000Z</time>
      </trkpt>
      <trkpt lat="43.77303" lon="7.11967">
        <ele>752.40002441406</ele>
        <time>2023-08-02T10:04:51.000Z</time>
      </trkpt>
      <trkpt lat="43.77303" lon="7.11967">
        <ele>752.40002441406</ele>
        <time>2023-08-02T10:04:52.000Z</time>
      </trkpt>
      <trkpt lat="43.77303" lon="7.11967">
        <ele>752.40002441406</ele>
        <time>2023-08-02T10:04:53.000Z</time>
      </trkpt>
      <trkpt lat="43.77303" lon="7.11967">
        <ele>752.40002441406</ele>
        <time>2023-08-02T10:04:54.000Z</time>
      </trkpt>
      <trkpt lat="43.77303" lon="7.11967">
        <ele>752.40002441406</ele>
        <time>2023-08-02T10:04:55.000Z</time>
      </trkpt>
      <trkpt lat="43.77303" lon="7.11967">
        <ele>752.40002441406</ele>
        <time>2023-08-02T10:04:56.000Z</time>
      </trkpt>
      <trkpt lat="43.77303" lon="7.11967">
        <ele>752.40002441406</ele>
        <time>2023-08-02T10:04:57.000Z</time>
      </trkpt>
      <trkpt lat="43.77303" lon="7.11967">
        <ele>752.40002441406</ele>
        <time>2023-08-02T10:04:58.000Z</time>
      </trkpt>
      <trkpt lat="43.77303" lon="7.11967">
        <ele>752.40002441406</ele>
        <time>2023-08-02T10:04:59.000Z</time>
      </trkpt>
      <trkpt lat="43.77303" lon="7.11967">
        <ele>752.40002441406</ele>
        <time>2023-08-02T10:05:00.000Z</time>
      </trkpt>
      <trkpt lat="43.77303" lon="7.11967">
        <ele>752.40002441406</ele>
        <time>2023-08-02T10:05:01.000Z</time>
      </trkpt>
      <trkpt lat="43.77303" lon="7.11967">
        <ele>752.40002441406</ele>
        <time>2023-08-02T10:05:02.000Z</time>
      </trkpt>
      <trkpt lat="43.77303" lon="7.11967">
        <ele>752.40002441406</ele>
        <time>2023-08-02T10:05:03.000Z</time>
      </trkpt>
      <trkpt lat="43.77303" lon="7.11967">
        <ele>752.59997558594</ele>
        <time>2023-08-02T10:05:04.000Z</time>
      </trkpt>
      <trkpt lat="43.77303" lon="7.11967">
        <ele>752.59997558594</ele>
        <time>2023-08-02T10:05:05.000Z</time>
      </trkpt>
      <trkpt lat="43.77303" lon="7.11967">
        <ele>752.59997558594</ele>
        <time>2023-08-02T10:05:06.000Z</time>
      </trkpt>
      <trkpt lat="43.77303" lon="7.11967">
        <ele>752.59997558594</ele>
        <time>2023-08-02T10:05:07.000Z</time>
      </trkpt>
      <trkpt lat="43.77303" lon="7.11967">
        <ele>752.59997558594</ele>
        <time>2023-08-02T10:05:08.000Z</time>
      </trkpt>
      <trkpt lat="43.77303" lon="7.11967">
        <ele>752.59997558594</ele>
        <time>2023-08-02T10:05:09.000Z</time>
      </trkpt>
      <trkpt lat="43.77303" lon="7.11967">
        <ele>752.59997558594</ele>
        <time>2023-08-02T10:05:10.000Z</time>
      </trkpt>
      <trkpt lat="43.77303" lon="7.11967">
        <ele>752.59997558594</ele>
        <time>2023-08-02T10:05:11.000Z</time>
      </trkpt>
      <trkpt lat="43.77303" lon="7.11967">
        <ele>752.59997558594</ele>
        <time>2023-08-02T10:05:12.000Z</time>
      </trkpt>
      <trkpt lat="43.77303" lon="7.11967">
        <ele>752.59997558594</ele>
        <time>2023-08-02T10:05:13.000Z</time>
      </trkpt>
      <trkpt lat="43.77303" lon="7.11967">
        <ele>752.59997558594</ele>
        <time>2023-08-02T10:05:14.000Z</time>
      </trkpt>
      <trkpt lat="43.77303" lon="7.11967">
        <ele>752.59997558594</ele>
        <time>2023-08-02T10:05:15.000Z</time>
      </trkpt>
      <trkpt lat="43.77303" lon="7.11967">
        <ele>752.40002441406</ele>
        <time>2023-08-02T10:05:16.000Z</time>
      </trkpt>
      <trkpt lat="43.77303" lon="7.11967">
        <ele>752.59997558594</ele>
        <time>2023-08-02T10:05:17.000Z</time>
      </trkpt>
      <trkpt lat="43.77303" lon="7.11967">
        <ele>752.40002441406</ele>
        <time>2023-08-02T10:05:18.000Z</time>
      </trkpt>
      <trkpt lat="43.77303" lon="7.11967">
        <ele>752.40002441406</ele>
        <time>2023-08-02T10:05:19.000Z</time>
      </trkpt>
      <trkpt lat="43.77303" lon="7.11967">
        <ele>752.40002441406</ele>
        <time>2023-08-02T10:05:20.000Z</time>
      </trkpt>
      <trkpt lat="43.77303" lon="7.11967">
        <ele>752.59997558594</ele>
        <time>2023-08-02T10:05:21.000Z</time>
      </trkpt>
      <trkpt lat="43.77303" lon="7.11967">
        <ele>752.40002441406</ele>
        <time>2023-08-02T10:05:22.000Z</time>
      </trkpt>
      <trkpt lat="43.77303" lon="7.11967">
        <ele>752.59997558594</ele>
        <time>2023-08-02T10:05:23.000Z</time>
      </trkpt>
      <trkpt lat="43.77303" lon="7.11967">
        <ele>752.40002441406</ele>
        <time>2023-08-02T10:05:24.000Z</time>
      </trkpt>
      <trkpt lat="43.77303" lon="7.11967">
        <ele>752.59997558594</ele>
        <time>2023-08-02T10:05:25.000Z</time>
      </trkpt>
      <trkpt lat="43.77303" lon="7.11967">
        <ele>752.59997558594</ele>
        <time>2023-08-02T10:05:26.000Z</time>
      </trkpt>
      <trkpt lat="43.77303" lon="7.11967">
        <ele>752.59997558594</ele>
        <time>2023-08-02T10:05:27.000Z</time>
      </trkpt>
      <trkpt lat="43.77303" lon="7.11967">
        <ele>752.59997558594</ele>
        <time>2023-08-02T10:05:28.000Z</time>
      </trkpt>
      <trkpt lat="43.77303" lon="7.11967">
        <ele>752.59997558594</ele>
        <time>2023-08-02T10:05:29.000Z</time>
      </trkpt>
      <trkpt lat="43.77303" lon="7.11967">
        <ele>752.79998779297</ele>
        <time>2023-08-02T10:05:30.000Z</time>
      </trkpt>
      <trkpt lat="43.77303" lon="7.11967">
        <ele>752.79998779297</ele>
        <time>2023-08-02T10:05:31.000Z</time>
      </trkpt>
      <trkpt lat="43.77303" lon="7.11967">
        <ele>752.79998779297</ele>
        <time>2023-08-02T10:05:32.000Z</time>
      </trkpt>
      <trkpt lat="43.77303" lon="7.11967">
        <ele>752.79998779297</ele>
        <time>2023-08-02T10:05:33.000Z</time>
      </trkpt>
      <trkpt lat="43.77303" lon="7.11967">
        <ele>752.79998779297</ele>
        <time>2023-08-02T10:05:34.000Z</time>
      </trkpt>
      <trkpt lat="43.77304" lon="7.11967">
        <ele>752.59997558594</ele>
        <time>2023-08-02T10:05:35.000Z</time>
      </trkpt>
      <trkpt lat="43.77303" lon="7.11967">
        <ele>752.59997558594</ele>
        <time>2023-08-02T10:05:36.000Z</time>
      </trkpt>
      <trkpt lat="43.77304" lon="7.11967">
        <ele>752.59997558594</ele>
        <time>2023-08-02T10:05:37.000Z</time>
      </trkpt>
      <trkpt lat="43.77304" lon="7.11967">
        <ele>752.59997558594</ele>
        <time>2023-08-02T10:05:38.000Z</time>
      </trkpt>
      <trkpt lat="43.77304" lon="7.11967">
        <ele>752.59997558594</ele>
        <time>2023-08-02T10:05:39.000Z</time>
      </trkpt>
      <trkpt lat="43.77304" lon="7.11967">
        <ele>752.59997558594</ele>
        <time>2023-08-02T10:05:40.000Z</time>
      </trkpt>
      <trkpt lat="43.77304" lon="7.11967">
        <ele>752.59997558594</ele>
        <time>2023-08-02T10:05:41.000Z</time>
      </trkpt>
      <trkpt lat="43.77303" lon="7.11967">
        <ele>752.59997558594</ele>
        <time>2023-08-02T10:05:42.000Z</time>
      </trkpt>
      <trkpt lat="43.77303" lon="7.11967">
        <ele>752.59997558594</ele>
        <time>2023-08-02T10:05:43.000Z</time>
      </trkpt>
      <trkpt lat="43.77303" lon="7.11967">
        <ele>752.59997558594</ele>
        <time>2023-08-02T10:05:44.000Z</time>
      </trkpt>
      <trkpt lat="43.77303" lon="7.11967">
        <ele>752.59997558594</ele>
        <time>2023-08-02T10:05:45.000Z</time>
      </trkpt>
      <trkpt lat="43.77303" lon="7.11968">
        <ele>752.59997558594</ele>
        <time>2023-08-02T10:05:46.000Z</time>
      </trkpt>
      <trkpt lat="43.77303" lon="7.11968">
        <ele>752.59997558594</ele>
        <time>2023-08-02T10:05:47.000Z</time>
      </trkpt>
      <trkpt lat="43.77303" lon="7.11968">
        <ele>752.59997558594</ele>
        <time>2023-08-02T10:05:48.000Z</time>
      </trkpt>
      <trkpt lat="43.77303" lon="7.11968">
        <ele>752.59997558594</ele>
        <time>2023-08-02T10:05:49.000Z</time>
      </trkpt>
      <trkpt lat="43.77301" lon="7.11968">
        <ele>752.59997558594</ele>
        <time>2023-08-02T10:05:50.000Z</time>
      </trkpt>
      <trkpt lat="43.77299" lon="7.11967">
        <ele>752.59997558594</ele>
        <time>2023-08-02T10:05:51.000Z</time>
      </trkpt>
      <trkpt lat="43.77298" lon="7.11967">
        <ele>752.59997558594</ele>
        <time>2023-08-02T10:05:52.000Z</time>
      </trkpt>
      <trkpt lat="43.77297" lon="7.11966">
        <ele>752.79998779297</ele>
        <time>2023-08-02T10:05:53.000Z</time>
      </trkpt>
      <trkpt lat="43.77295" lon="7.11966">
        <ele>752.79998779297</ele>
        <time>2023-08-02T10:05:54.000Z</time>
      </trkpt>
      <trkpt lat="43.77293" lon="7.11966">
        <ele>752.79998779297</ele>
        <time>2023-08-02T10:05:55.000Z</time>
      </trkpt>
      <trkpt lat="43.77292" lon="7.11968">
        <ele>752.79998779297</ele>
        <time>2023-08-02T10:05:56.000Z</time>
      </trkpt>
      <trkpt lat="43.77291" lon="7.11969">
        <ele>753</ele>
        <time>2023-08-02T10:05:57.000Z</time>
      </trkpt>
      <trkpt lat="43.7729" lon="7.1197">
        <ele>753.20001220703</ele>
        <time>2023-08-02T10:05:58.000Z</time>
      </trkpt>
      <trkpt lat="43.77288" lon="7.11972">
        <ele>753.20001220703</ele>
        <time>2023-08-02T10:05:59.000Z</time>
      </trkpt>
      <trkpt lat="43.77288" lon="7.11973">
        <ele>753.40002441406</ele>
        <time>2023-08-02T10:06:00.000Z</time>
      </trkpt>
      <trkpt lat="43.77287" lon="7.11974">
        <ele>753.59997558594</ele>
        <time>2023-08-02T10:06:01.000Z</time>
      </trkpt>
      <trkpt lat="43.77285" lon="7.11976">
        <ele>753.79998779297</ele>
        <time>2023-08-02T10:06:02.000Z</time>
      </trkpt>
      <trkpt lat="43.77284" lon="7.11978">
        <ele>754.20001220703</ele>
        <time>2023-08-02T10:06:03.000Z</time>
      </trkpt>
      <trkpt lat="43.77282" lon="7.1198">
        <ele>754.40002441406</ele>
        <time>2023-08-02T10:06:04.000Z</time>
      </trkpt>
      <trkpt lat="43.7728" lon="7.11981">
        <ele>754.59997558594</ele>
        <time>2023-08-02T10:06:05.000Z</time>
      </trkpt>
      <trkpt lat="43.77279" lon="7.11982">
        <ele>755</ele>
        <time>2023-08-02T10:06:06.000Z</time>
      </trkpt>
      <trkpt lat="43.77278" lon="7.11984">
        <ele>755.40002441406</ele>
        <time>2023-08-02T10:06:07.000Z</time>
      </trkpt>
      <trkpt lat="43.77276" lon="7.11986">
        <ele>755.59997558594</ele>
        <time>2023-08-02T10:06:08.000Z</time>
      </trkpt>
      <trkpt lat="43.77275" lon="7.11988">
        <ele>756</ele>
        <time>2023-08-02T10:06:09.000Z</time>
      </trkpt>
      <trkpt lat="43.77274" lon="7.1199">
        <ele>756.20001220703</ele>
        <time>2023-08-02T10:06:10.000Z</time>
      </trkpt>
      <trkpt lat="43.77273" lon="7.11992">
        <ele>756.59997558594</ele>
        <time>2023-08-02T10:06:11.000Z</time>
      </trkpt>
      <trkpt lat="43.77271" lon="7.11994">
        <ele>756.79998779297</ele>
        <time>2023-08-02T10:06:12.000Z</time>
      </trkpt>
      <trkpt lat="43.77269" lon="7.11995">
        <ele>757</ele>
        <time>2023-08-02T10:06:13.000Z</time>
      </trkpt>
      <trkpt lat="43.77267" lon="7.11996">
        <ele>757.20001220703</ele>
        <time>2023-08-02T10:06:14.000Z</time>
      </trkpt>
      <trkpt lat="43.77265" lon="7.11996">
        <ele>757.40002441406</ele>
        <time>2023-08-02T10:06:15.000Z</time>
      </trkpt>
      <trkpt lat="43.77262" lon="7.11997">
        <ele>757.40002441406</ele>
        <time>2023-08-02T10:06:16.000Z</time>
      </trkpt>
      <trkpt lat="43.7726" lon="7.11998">
        <ele>757.40002441406</ele>
        <time>2023-08-02T10:06:17.000Z</time>
      </trkpt>
      <trkpt lat="43.77258" lon="7.11999">
        <ele>757.59997558594</ele>
        <time>2023-08-02T10:06:18.000Z</time>
      </trkpt>
      <trkpt lat="43.77256" lon="7.11999">
        <ele>757.79998779297</ele>
        <time>2023-08-02T10:06:19.000Z</time>
      </trkpt>
      <trkpt lat="43.77254" lon="7.12">
        <ele>758.20001220703</ele>
        <time>2023-08-02T10:06:20.000Z</time>
      </trkpt>
      <trkpt lat="43.77252" lon="7.12">
        <ele>758.79998779297</ele>
        <time>2023-08-02T10:06:21.000Z</time>
      </trkpt>
      <trkpt lat="43.7725" lon="7.11999">
        <ele>759.20001220703</ele>
        <time>2023-08-02T10:06:22.000Z</time>
      </trkpt>
      <trkpt lat="43.77248" lon="7.11999">
        <ele>759.59997558594</ele>
        <time>2023-08-02T10:06:23.000Z</time>
      </trkpt>
      <trkpt lat="43.77246" lon="7.12">
        <ele>760</ele>
        <time>2023-08-02T10:06:24.000Z</time>
      </trkpt>
      <trkpt lat="43.77243" lon="7.12002">
        <ele>760.20001220703</ele>
        <time>2023-08-02T10:06:25.000Z</time>
      </trkpt>
      <trkpt lat="43.77241" lon="7.12003">
        <ele>760.59997558594</ele>
        <time>2023-08-02T10:06:26.000Z</time>
      </trkpt>
      <trkpt lat="43.77239" lon="7.12004">
        <ele>761</ele>
        <time>2023-08-02T10:06:27.000Z</time>
      </trkpt>
      <trkpt lat="43.77237" lon="7.12005">
        <ele>761.40002441406</ele>
        <time>2023-08-02T10:06:28.000Z</time>
      </trkpt>
      <trkpt lat="43.77235" lon="7.12005">
        <ele>761.79998779297</ele>
        <time>2023-08-02T10:06:29.000Z</time>
      </trkpt>
      <trkpt lat="43.77234" lon="7.12006">
        <ele>762.20001220703</ele>
        <time>2023-08-02T10:06:30.000Z</time>
      </trkpt>
      <trkpt lat="43.77233" lon="7.12007">
        <ele>762.40002441406</ele>
        <time>2023-08-02T10:06:31.000Z</time>
      </trkpt>
      <trkpt lat="43.77232" lon="7.12006">
        <ele>763</ele>
        <time>2023-08-02T10:06:32.000Z</time>
      </trkpt>
      <trkpt lat="43.77232" lon="7.12006">
        <ele>763.20001220703</ele>
        <time>2023-08-02T10:06:33.000Z</time>
      </trkpt>
      <trkpt lat="43.77232" lon="7.12007">
        <ele>763.40002441406</ele>
        <time>2023-08-02T10:06:34.000Z</time>
      </trkpt>
      <trkpt lat="43.77232" lon="7.12008">
        <ele>763.59997558594</ele>
        <time>2023-08-02T10:06:35.000Z</time>
      </trkpt>
      <trkpt lat="43.77231" lon="7.1201">
        <ele>763.59997558594</ele>
        <time>2023-08-02T10:06:36.000Z</time>
      </trkpt>
      <trkpt lat="43.77231" lon="7.12012">
        <ele>763.59997558594</ele>
        <time>2023-08-02T10:06:37.000Z</time>
      </trkpt>
      <trkpt lat="43.77229" lon="7.12013">
        <ele>763.59997558594</ele>
        <time>2023-08-02T10:06:38.000Z</time>
      </trkpt>
      <trkpt lat="43.77228" lon="7.12014">
        <ele>763.59997558594</ele>
        <time>2023-08-02T10:06:39.000Z</time>
      </trkpt>
      <trkpt lat="43.77226" lon="7.12014">
        <ele>763.59997558594</ele>
        <time>2023-08-02T10:06:40.000Z</time>
      </trkpt>
      <trkpt lat="43.77224" lon="7.12014">
        <ele>763.59997558594</ele>
        <time>2023-08-02T10:06:41.000Z</time>
      </trkpt>
      <trkpt lat="43.77222" lon="7.12015">
        <ele>763.59997558594</ele>
        <time>2023-08-02T10:06:42.000Z</time>
      </trkpt>
      <trkpt lat="43.7722" lon="7.12016">
        <ele>764</ele>
        <time>2023-08-02T10:06:43.000Z</time>
      </trkpt>
      <trkpt lat="43.77218" lon="7.12016">
        <ele>764</ele>
        <time>2023-08-02T10:06:44.000Z</time>
      </trkpt>
      <trkpt lat="43.77216" lon="7.12016">
        <ele>764.20001220703</ele>
        <time>2023-08-02T10:06:45.000Z</time>
      </trkpt>
      <trkpt lat="43.77215" lon="7.12017">
        <ele>764.59997558594</ele>
        <time>2023-08-02T10:06:46.000Z</time>
      </trkpt>
      <trkpt lat="43.77213" lon="7.12017">
        <ele>765.20001220703</ele>
        <time>2023-08-02T10:06:47.000Z</time>
      </trkpt>
      <trkpt lat="43.77211" lon="7.12017">
        <ele>765.79998779297</ele>
        <time>2023-08-02T10:06:48.000Z</time>
      </trkpt>
      <trkpt lat="43.77209" lon="7.12018">
        <ele>765.79998779297</ele>
        <time>2023-08-02T10:06:49.000Z</time>
      </trkpt>
      <trkpt lat="43.77207" lon="7.12019">
        <ele>766</ele>
        <time>2023-08-02T10:06:50.000Z</time>
      </trkpt>
      <trkpt lat="43.77204" lon="7.1202">
        <ele>766.59997558594</ele>
        <time>2023-08-02T10:06:51.000Z</time>
      </trkpt>
      <trkpt lat="43.77202" lon="7.12021">
        <ele>766.79998779297</ele>
        <time>2023-08-02T10:06:52.000Z</time>
      </trkpt>
      <trkpt lat="43.77201" lon="7.12022">
        <ele>767.20001220703</ele>
        <time>2023-08-02T10:06:53.000Z</time>
      </trkpt>
      <trkpt lat="43.77199" lon="7.12024">
        <ele>767.40002441406</ele>
        <time>2023-08-02T10:06:54.000Z</time>
      </trkpt>
      <trkpt lat="43.77196" lon="7.12025">
        <ele>767.79998779297</ele>
        <time>2023-08-02T10:06:55.000Z</time>
      </trkpt>
      <trkpt lat="43.77194" lon="7.12025">
        <ele>768</ele>
        <time>2023-08-02T10:06:56.000Z</time>
      </trkpt>
      <trkpt lat="43.77192" lon="7.12025">
        <ele>768</ele>
        <time>2023-08-02T10:06:57.000Z</time>
      </trkpt>
      <trkpt lat="43.7719" lon="7.12023">
        <ele>768.20001220703</ele>
        <time>2023-08-02T10:06:58.000Z</time>
      </trkpt>
      <trkpt lat="43.77188" lon="7.12023">
        <ele>768.40002441406</ele>
        <time>2023-08-02T10:06:59.000Z</time>
      </trkpt>
      <trkpt lat="43.77186" lon="7.12023">
        <ele>768.59997558594</ele>
        <time>2023-08-02T10:07:00.000Z</time>
      </trkpt>
      <trkpt lat="43.77184" lon="7.12023">
        <ele>768.79998779297</ele>
        <time>2023-08-02T10:07:01.000Z</time>
      </trkpt>
      <trkpt lat="43.77182" lon="7.12024">
        <ele>768.79998779297</ele>
        <time>2023-08-02T10:07:02.000Z</time>
      </trkpt>
      <trkpt lat="43.7718" lon="7.12024">
        <ele>769</ele>
        <time>2023-08-02T10:07:03.000Z</time>
      </trkpt>
      <trkpt lat="43.77178" lon="7.12025">
        <ele>769.20001220703</ele>
        <time>2023-08-02T10:07:04.000Z</time>
      </trkpt>
      <trkpt lat="43.77176" lon="7.12024">
        <ele>769.40002441406</ele>
        <time>2023-08-02T10:07:05.000Z</time>
      </trkpt>
      <trkpt lat="43.77174" lon="7.12024">
        <ele>769.59997558594</ele>
        <time>2023-08-02T10:07:06.000Z</time>
      </trkpt>
      <trkpt lat="43.77172" lon="7.12025">
        <ele>769.59997558594</ele>
        <time>2023-08-02T10:07:07.000Z</time>
      </trkpt>
      <trkpt lat="43.77171" lon="7.12027">
        <ele>770.20001220703</ele>
        <time>2023-08-02T10:07:08.000Z</time>
      </trkpt>
      <trkpt lat="43.7717" lon="7.12029">
        <ele>770.40002441406</ele>
        <time>2023-08-02T10:07:09.000Z</time>
      </trkpt>
      <trkpt lat="43.7717" lon="7.1203">
        <ele>770.40002441406</ele>
        <time>2023-08-02T10:07:10.000Z</time>
      </trkpt>
      <trkpt lat="43.7717" lon="7.12033">
        <ele>770.59997558594</ele>
        <time>2023-08-02T10:07:11.000Z</time>
      </trkpt>
      <trkpt lat="43.77169" lon="7.12035">
        <ele>770.79998779297</ele>
        <time>2023-08-02T10:07:12.000Z</time>
      </trkpt>
      <trkpt lat="43.77167" lon="7.12037">
        <ele>770.79998779297</ele>
        <time>2023-08-02T10:07:13.000Z</time>
      </trkpt>
      <trkpt lat="43.77165" lon="7.12038">
        <ele>770.79998779297</ele>
        <time>2023-08-02T10:07:14.000Z</time>
      </trkpt>
      <trkpt lat="43.77163" lon="7.12037">
        <ele>770.79998779297</ele>
        <time>2023-08-02T10:07:15.000Z</time>
      </trkpt>
      <trkpt lat="43.7716" lon="7.12036">
        <ele>771</ele>
        <time>2023-08-02T10:07:16.000Z</time>
      </trkpt>
      <trkpt lat="43.77158" lon="7.12036">
        <ele>771.20001220703</ele>
        <time>2023-08-02T10:07:17.000Z</time>
      </trkpt>
      <trkpt lat="43.77157" lon="7.12036">
        <ele>771.20001220703</ele>
        <time>2023-08-02T10:07:18.000Z</time>
      </trkpt>
      <trkpt lat="43.77155" lon="7.12037">
        <ele>771.20001220703</ele>
        <time>2023-08-02T10:07:19.000Z</time>
      </trkpt>
      <trkpt lat="43.77153" lon="7.12038">
        <ele>771.20001220703</ele>
        <time>2023-08-02T10:07:20.000Z</time>
      </trkpt>
      <trkpt lat="43.77151" lon="7.12039">
        <ele>771.40002441406</ele>
        <time>2023-08-02T10:07:21.000Z</time>
      </trkpt>
      <trkpt lat="43.77149" lon="7.1204">
        <ele>771.59997558594</ele>
        <time>2023-08-02T10:07:22.000Z</time>
      </trkpt>
      <trkpt lat="43.77147" lon="7.12041">
        <ele>771.59997558594</ele>
        <time>2023-08-02T10:07:23.000Z</time>
      </trkpt>
      <trkpt lat="43.77145" lon="7.12042">
        <ele>771.79998779297</ele>
        <time>2023-08-02T10:07:24.000Z</time>
      </trkpt>
      <trkpt lat="43.77143" lon="7.12043">
        <ele>771.79998779297</ele>
        <time>2023-08-02T10:07:25.000Z</time>
      </trkpt>
      <trkpt lat="43.77141" lon="7.12044">
        <ele>772</ele>
        <time>2023-08-02T10:07:26.000Z</time>
      </trkpt>
      <trkpt lat="43.7714" lon="7.12046">
        <ele>772.20001220703</ele>
        <time>2023-08-02T10:07:27.000Z</time>
      </trkpt>
      <trkpt lat="43.77138" lon="7.12047">
        <ele>772.20001220703</ele>
        <time>2023-08-02T10:07:28.000Z</time>
      </trkpt>
      <trkpt lat="43.77136" lon="7.12048">
        <ele>772.40002441406</ele>
        <time>2023-08-02T10:07:29.000Z</time>
      </trkpt>
      <trkpt lat="43.77135" lon="7.1205">
        <ele>772.79998779297</ele>
        <time>2023-08-02T10:07:30.000Z</time>
      </trkpt>
      <trkpt lat="43.77133" lon="7.12051">
        <ele>772.79998779297</ele>
        <time>2023-08-02T10:07:31.000Z</time>
      </trkpt>
      <trkpt lat="43.77131" lon="7.12053">
        <ele>772.79998779297</ele>
        <time>2023-08-02T10:07:32.000Z</time>
      </trkpt>
      <trkpt lat="43.77129" lon="7.12054">
        <ele>773</ele>
        <time>2023-08-02T10:07:33.000Z</time>
      </trkpt>
      <trkpt lat="43.77127" lon="7.12055">
        <ele>773</ele>
        <time>2023-08-02T10:07:34.000Z</time>
      </trkpt>
      <trkpt lat="43.77125" lon="7.12057">
        <ele>773.20001220703</ele>
        <time>2023-08-02T10:07:35.000Z</time>
      </trkpt>
      <trkpt lat="43.77123" lon="7.12058">
        <ele>773.40002441406</ele>
        <time>2023-08-02T10:07:36.000Z</time>
      </trkpt>
      <trkpt lat="43.77122" lon="7.12059">
        <ele>773.59997558594</ele>
        <time>2023-08-02T10:07:37.000Z</time>
      </trkpt>
      <trkpt lat="43.7712" lon="7.1206">
        <ele>773.79998779297</ele>
        <time>2023-08-02T10:07:38.000Z</time>
      </trkpt>
      <trkpt lat="43.77118" lon="7.12061">
        <ele>773.79998779297</ele>
        <time>2023-08-02T10:07:39.000Z</time>
      </trkpt>
      <trkpt lat="43.77116" lon="7.12062">
        <ele>774</ele>
        <time>2023-08-02T10:07:40.000Z</time>
      </trkpt>
      <trkpt lat="43.77115" lon="7.12063">
        <ele>774</ele>
        <time>2023-08-02T10:07:41.000Z</time>
      </trkpt>
      <trkpt lat="43.77113" lon="7.12064">
        <ele>774.40002441406</ele>
        <time>2023-08-02T10:07:42.000Z</time>
      </trkpt>
      <trkpt lat="43.77111" lon="7.12064">
        <ele>774.59997558594</ele>
        <time>2023-08-02T10:07:43.000Z</time>
      </trkpt>
      <trkpt lat="43.77109" lon="7.12065">
        <ele>774.59997558594</ele>
        <time>2023-08-02T10:07:44.000Z</time>
      </trkpt>
      <trkpt lat="43.77107" lon="7.12066">
        <ele>774.79998779297</ele>
        <time>2023-08-02T10:07:45.000Z</time>
      </trkpt>
      <trkpt lat="43.77104" lon="7.12066">
        <ele>774.79998779297</ele>
        <time>2023-08-02T10:07:46.000Z</time>
      </trkpt>
      <trkpt lat="43.77102" lon="7.12066">
        <ele>774.79998779297</ele>
        <time>2023-08-02T10:07:47.000Z</time>
      </trkpt>
      <trkpt lat="43.771" lon="7.12067">
        <ele>774.79998779297</ele>
        <time>2023-08-02T10:07:48.000Z</time>
      </trkpt>
      <trkpt lat="43.77098" lon="7.12068">
        <ele>775</ele>
        <time>2023-08-02T10:07:49.000Z</time>
      </trkpt>
      <trkpt lat="43.77097" lon="7.1207">
        <ele>775.20001220703</ele>
        <time>2023-08-02T10:07:50.000Z</time>
      </trkpt>
      <trkpt lat="43.77096" lon="7.12071">
        <ele>775.20001220703</ele>
        <time>2023-08-02T10:07:51.000Z</time>
      </trkpt>
      <trkpt lat="43.77094" lon="7.12073">
        <ele>775.40002441406</ele>
        <time>2023-08-02T10:07:52.000Z</time>
      </trkpt>
      <trkpt lat="43.77093" lon="7.12072">
        <ele>775.40002441406</ele>
        <time>2023-08-02T10:07:53.000Z</time>
      </trkpt>
      <trkpt lat="43.77091" lon="7.12071">
        <ele>775.79998779297</ele>
        <time>2023-08-02T10:07:54.000Z</time>
      </trkpt>
      <trkpt lat="43.7709" lon="7.1207">
        <ele>776</ele>
        <time>2023-08-02T10:07:55.000Z</time>
      </trkpt>
      <trkpt lat="43.77088" lon="7.12069">
        <ele>776.20001220703</ele>
        <time>2023-08-02T10:07:56.000Z</time>
      </trkpt>
      <trkpt lat="43.77087" lon="7.12069">
        <ele>776.20001220703</ele>
        <time>2023-08-02T10:07:57.000Z</time>
      </trkpt>
      <trkpt lat="43.77085" lon="7.12069">
        <ele>776.40002441406</ele>
        <time>2023-08-02T10:07:58.000Z</time>
      </trkpt>
      <trkpt lat="43.77085" lon="7.1207">
        <ele>776.40002441406</ele>
        <time>2023-08-02T10:07:59.000Z</time>
      </trkpt>
      <trkpt lat="43.77084" lon="7.1207">
        <ele>776.40002441406</ele>
        <time>2023-08-02T10:08:00.000Z</time>
      </trkpt>
      <trkpt lat="43.77084" lon="7.12071">
        <ele>776.59997558594</ele>
        <time>2023-08-02T10:08:01.000Z</time>
      </trkpt>
      <trkpt lat="43.77083" lon="7.12073">
        <ele>776.59997558594</ele>
        <time>2023-08-02T10:08:02.000Z</time>
      </trkpt>
      <trkpt lat="43.77082" lon="7.12074">
        <ele>776.59997558594</ele>
        <time>2023-08-02T10:08:03.000Z</time>
      </trkpt>
      <trkpt lat="43.77081" lon="7.12075">
        <ele>776.59997558594</ele>
        <time>2023-08-02T10:08:04.000Z</time>
      </trkpt>
      <trkpt lat="43.7708" lon="7.12075">
        <ele>776.59997558594</ele>
        <time>2023-08-02T10:08:05.000Z</time>
      </trkpt>
      <trkpt lat="43.77079" lon="7.12075">
        <ele>776.79998779297</ele>
        <time>2023-08-02T10:08:06.000Z</time>
      </trkpt>
      <trkpt lat="43.77079" lon="7.12075">
        <ele>777</ele>
        <time>2023-08-02T10:08:07.000Z</time>
      </trkpt>
      <trkpt lat="43.7708" lon="7.12075">
        <ele>777</ele>
        <time>2023-08-02T10:08:08.000Z</time>
      </trkpt>
      <trkpt lat="43.77079" lon="7.12075">
        <ele>777</ele>
        <time>2023-08-02T10:08:09.000Z</time>
      </trkpt>
      <trkpt lat="43.77079" lon="7.12076">
        <ele>777</ele>
        <time>2023-08-02T10:08:10.000Z</time>
      </trkpt>
      <trkpt lat="43.77079" lon="7.12076">
        <ele>777</ele>
        <time>2023-08-02T10:08:11.000Z</time>
      </trkpt>
      <trkpt lat="43.77078" lon="7.12076">
        <ele>777</ele>
        <time>2023-08-02T10:08:12.000Z</time>
      </trkpt>
      <trkpt lat="43.77078" lon="7.12076">
        <ele>777</ele>
        <time>2023-08-02T10:08:13.000Z</time>
      </trkpt>
      <trkpt lat="43.77077" lon="7.12076">
        <ele>777</ele>
        <time>2023-08-02T10:08:14.000Z</time>
      </trkpt>
      <trkpt lat="43.77077" lon="7.12076">
        <ele>777</ele>
        <time>2023-08-02T10:08:15.000Z</time>
      </trkpt>
      <trkpt lat="43.77077" lon="7.12075">
        <ele>777</ele>
        <time>2023-08-02T10:08:16.000Z</time>
      </trkpt>
      <trkpt lat="43.77076" lon="7.12075">
        <ele>777</ele>
        <time>2023-08-02T10:08:17.000Z</time>
      </trkpt>
      <trkpt lat="43.77075" lon="7.12075">
        <ele>777</ele>
        <time>2023-08-02T10:08:18.000Z</time>
      </trkpt>
      <trkpt lat="43.77075" lon="7.12076">
        <ele>777</ele>
        <time>2023-08-02T10:08:19.000Z</time>
      </trkpt>
      <trkpt lat="43.77075" lon="7.12076">
        <ele>777.20001220703</ele>
        <time>2023-08-02T10:08:20.000Z</time>
      </trkpt>
      <trkpt lat="43.77074" lon="7.12076">
        <ele>777.20001220703</ele>
        <time>2023-08-02T10:08:21.000Z</time>
      </trkpt>
      <trkpt lat="43.77074" lon="7.12077">
        <ele>777.40002441406</ele>
        <time>2023-08-02T10:08:22.000Z</time>
      </trkpt>
      <trkpt lat="43.77073" lon="7.12077">
        <ele>777.40002441406</ele>
        <time>2023-08-02T10:08:23.000Z</time>
      </trkpt>
      <trkpt lat="43.77073" lon="7.12078">
        <ele>777.40002441406</ele>
        <time>2023-08-02T10:08:24.000Z</time>
      </trkpt>
      <trkpt lat="43.77073" lon="7.12078">
        <ele>777.40002441406</ele>
        <time>2023-08-02T10:08:25.000Z</time>
      </trkpt>
      <trkpt lat="43.77072" lon="7.12078">
        <ele>777.59997558594</ele>
        <time>2023-08-02T10:08:26.000Z</time>
      </trkpt>
      <trkpt lat="43.77071" lon="7.12079">
        <ele>777.59997558594</ele>
        <time>2023-08-02T10:08:27.000Z</time>
      </trkpt>
      <trkpt lat="43.77071" lon="7.12079">
        <ele>777.79998779297</ele>
        <time>2023-08-02T10:08:28.000Z</time>
      </trkpt>
      <trkpt lat="43.77071" lon="7.12079">
        <ele>777.79998779297</ele>
        <time>2023-08-02T10:08:29.000Z</time>
      </trkpt>
      <trkpt lat="43.77071" lon="7.12079">
        <ele>777.79998779297</ele>
        <time>2023-08-02T10:08:30.000Z</time>
      </trkpt>
      <trkpt lat="43.77071" lon="7.12078">
        <ele>777.79998779297</ele>
        <time>2023-08-02T10:08:31.000Z</time>
      </trkpt>
      <trkpt lat="43.77071" lon="7.12078">
        <ele>777.79998779297</ele>
        <time>2023-08-02T10:08:32.000Z</time>
      </trkpt>
      <trkpt lat="43.77071" lon="7.12078">
        <ele>777.79998779297</ele>
        <time>2023-08-02T10:08:33.000Z</time>
      </trkpt>
      <trkpt lat="43.77071" lon="7.12078">
        <ele>777.79998779297</ele>
        <time>2023-08-02T10:08:34.000Z</time>
      </trkpt>
      <trkpt lat="43.77071" lon="7.12078">
        <ele>777.79998779297</ele>
        <time>2023-08-02T10:08:35.000Z</time>
      </trkpt>
      <trkpt lat="43.77071" lon="7.12078">
        <ele>777.79998779297</ele>
        <time>2023-08-02T10:08:36.000Z</time>
      </trkpt>
      <trkpt lat="43.77071" lon="7.12078">
        <ele>777.79998779297</ele>
        <time>2023-08-02T10:08:37.000Z</time>
      </trkpt>
      <trkpt lat="43.77071" lon="7.12078">
        <ele>777.59997558594</ele>
        <time>2023-08-02T10:08:38.000Z</time>
      </trkpt>
      <trkpt lat="43.77071" lon="7.12078">
        <ele>777.40002441406</ele>
        <time>2023-08-02T10:08:39.000Z</time>
      </trkpt>
      <trkpt lat="43.77071" lon="7.12078">
        <ele>777.40002441406</ele>
        <time>2023-08-02T10:08:40.000Z</time>
      </trkpt>
      <trkpt lat="43.77071" lon="7.12078">
        <ele>777.40002441406</ele>
        <time>2023-08-02T10:08:41.000Z</time>
      </trkpt>
      <trkpt lat="43.77071" lon="7.12078">
        <ele>777.40002441406</ele>
        <time>2023-08-02T10:08:42.000Z</time>
      </trkpt>
      <trkpt lat="43.77071" lon="7.12078">
        <ele>777.40002441406</ele>
        <time>2023-08-02T10:08:43.000Z</time>
      </trkpt>
      <trkpt lat="43.77071" lon="7.12078">
        <ele>777.40002441406</ele>
        <time>2023-08-02T10:08:44.000Z</time>
      </trkpt>
      <trkpt lat="43.77071" lon="7.12078">
        <ele>777.40002441406</ele>
        <time>2023-08-02T10:08:45.000Z</time>
      </trkpt>
      <trkpt lat="43.77071" lon="7.12078">
        <ele>777.40002441406</ele>
        <time>2023-08-02T10:08:46.000Z</time>
      </trkpt>
      <trkpt lat="43.77071" lon="7.12078">
        <ele>777.40002441406</ele>
        <time>2023-08-02T10:08:47.000Z</time>
      </trkpt>
      <trkpt lat="43.77071" lon="7.12078">
        <ele>777.40002441406</ele>
        <time>2023-08-02T10:08:48.000Z</time>
      </trkpt>
      <trkpt lat="43.77071" lon="7.12078">
        <ele>777.40002441406</ele>
        <time>2023-08-02T10:08:49.000Z</time>
      </trkpt>
      <trkpt lat="43.77071" lon="7.12078">
        <ele>777.40002441406</ele>
        <time>2023-08-02T10:08:50.000Z</time>
      </trkpt>
      <trkpt lat="43.77071" lon="7.12078">
        <ele>777.40002441406</ele>
        <time>2023-08-02T10:08:51.000Z</time>
      </trkpt>
      <trkpt lat="43.77071" lon="7.12078">
        <ele>777.40002441406</ele>
        <time>2023-08-02T10:08:52.000Z</time>
      </trkpt>
      <trkpt lat="43.77071" lon="7.12078">
        <ele>777.40002441406</ele>
        <time>2023-08-02T10:08:53.000Z</time>
      </trkpt>
      <trkpt lat="43.77071" lon="7.12078">
        <ele>777.40002441406</ele>
        <time>2023-08-02T10:08:54.000Z</time>
      </trkpt>
      <trkpt lat="43.77071" lon="7.12078">
        <ele>777.40002441406</ele>
        <time>2023-08-02T10:08:55.000Z</time>
      </trkpt>
      <trkpt lat="43.77071" lon="7.12078">
        <ele>777.40002441406</ele>
        <time>2023-08-02T10:08:56.000Z</time>
      </trkpt>
      <trkpt lat="43.77071" lon="7.12078">
        <ele>777.40002441406</ele>
        <time>2023-08-02T10:08:57.000Z</time>
      </trkpt>
      <trkpt lat="43.77071" lon="7.12078">
        <ele>777.40002441406</ele>
        <time>2023-08-02T10:08:58.000Z</time>
      </trkpt>
      <trkpt lat="43.77071" lon="7.12078">
        <ele>777.40002441406</ele>
        <time>2023-08-02T10:08:59.000Z</time>
      </trkpt>
      <trkpt lat="43.77071" lon="7.12078">
        <ele>777.40002441406</ele>
        <time>2023-08-02T10:09:00.000Z</time>
      </trkpt>
      <trkpt lat="43.77071" lon="7.12078">
        <ele>777.40002441406</ele>
        <time>2023-08-02T10:09:01.000Z</time>
      </trkpt>
      <trkpt lat="43.77071" lon="7.12078">
        <ele>777.40002441406</ele>
        <time>2023-08-02T10:09:02.000Z</time>
      </trkpt>
      <trkpt lat="43.77071" lon="7.12078">
        <ele>777.40002441406</ele>
        <time>2023-08-02T10:09:03.000Z</time>
      </trkpt>
      <trkpt lat="43.77071" lon="7.12078">
        <ele>777.40002441406</ele>
        <time>2023-08-02T10:09:04.000Z</time>
      </trkpt>
      <trkpt lat="43.77071" lon="7.12078">
        <ele>777.40002441406</ele>
        <time>2023-08-02T10:09:05.000Z</time>
      </trkpt>
      <trkpt lat="43.77071" lon="7.12078">
        <ele>777.40002441406</ele>
        <time>2023-08-02T10:09:06.000Z</time>
      </trkpt>
      <trkpt lat="43.77071" lon="7.12078">
        <ele>777.40002441406</ele>
        <time>2023-08-02T10:09:07.000Z</time>
      </trkpt>
      <trkpt lat="43.77071" lon="7.12078">
        <ele>777.40002441406</ele>
        <time>2023-08-02T10:09:08.000Z</time>
      </trkpt>
      <trkpt lat="43.77071" lon="7.12078">
        <ele>777.40002441406</ele>
        <time>2023-08-02T10:09:09.000Z</time>
      </trkpt>
      <trkpt lat="43.77071" lon="7.12078">
        <ele>777.40002441406</ele>
        <time>2023-08-02T10:09:10.000Z</time>
      </trkpt>
      <trkpt lat="43.77071" lon="7.12078">
        <ele>777.40002441406</ele>
        <time>2023-08-02T10:09:11.000Z</time>
      </trkpt>
      <trkpt lat="43.77071" lon="7.12078">
        <ele>777.40002441406</ele>
        <time>2023-08-02T10:09:12.000Z</time>
      </trkpt>
      <trkpt lat="43.77071" lon="7.12078">
        <ele>777.40002441406</ele>
        <time>2023-08-02T10:09:13.000Z</time>
      </trkpt>
      <trkpt lat="43.77071" lon="7.12078">
        <ele>777.40002441406</ele>
        <time>2023-08-02T10:09:14.000Z</time>
      </trkpt>
      <trkpt lat="43.77071" lon="7.12078">
        <ele>777.40002441406</ele>
        <time>2023-08-02T10:09:15.000Z</time>
      </trkpt>
      <trkpt lat="43.77071" lon="7.12078">
        <ele>777.20001220703</ele>
        <time>2023-08-02T10:09:16.000Z</time>
      </trkpt>
      <trkpt lat="43.77071" lon="7.12078">
        <ele>777.20001220703</ele>
        <time>2023-08-02T10:09:17.000Z</time>
      </trkpt>
      <trkpt lat="43.77071" lon="7.12078">
        <ele>777.20001220703</ele>
        <time>2023-08-02T10:09:18.000Z</time>
      </trkpt>
      <trkpt lat="43.77071" lon="7.12078">
        <ele>777.20001220703</ele>
        <time>2023-08-02T10:09:19.000Z</time>
      </trkpt>
      <trkpt lat="43.77071" lon="7.12078">
        <ele>777.20001220703</ele>
        <time>2023-08-02T10:09:20.000Z</time>
      </trkpt>
      <trkpt lat="43.77071" lon="7.12078">
        <ele>777.20001220703</ele>
        <time>2023-08-02T10:09:21.000Z</time>
      </trkpt>
      <trkpt lat="43.77071" lon="7.12078">
        <ele>777.20001220703</ele>
        <time>2023-08-02T10:09:22.000Z</time>
      </trkpt>
      <trkpt lat="43.77071" lon="7.12078">
        <ele>777.20001220703</ele>
        <time>2023-08-02T10:09:23.000Z</time>
      </trkpt>
      <trkpt lat="43.77071" lon="7.12078">
        <ele>777.20001220703</ele>
        <time>2023-08-02T10:09:24.000Z</time>
      </trkpt>
      <trkpt lat="43.77071" lon="7.12078">
        <ele>777.20001220703</ele>
        <time>2023-08-02T10:09:25.000Z</time>
      </trkpt>
      <trkpt lat="43.77071" lon="7.12078">
        <ele>777.20001220703</ele>
        <time>2023-08-02T10:09:26.000Z</time>
      </trkpt>
      <trkpt lat="43.77071" lon="7.12078">
        <ele>777.20001220703</ele>
        <time>2023-08-02T10:09:27.000Z</time>
      </trkpt>
      <trkpt lat="43.77071" lon="7.12078">
        <ele>777.20001220703</ele>
        <time>2023-08-02T10:09:28.000Z</time>
      </trkpt>
      <trkpt lat="43.77071" lon="7.12078">
        <ele>777.20001220703</ele>
        <time>2023-08-02T10:09:29.000Z</time>
      </trkpt>
      <trkpt lat="43.77071" lon="7.12078">
        <ele>777.20001220703</ele>
        <time>2023-08-02T10:09:30.000Z</time>
      </trkpt>
      <trkpt lat="43.77071" lon="7.12078">
        <ele>777.20001220703</ele>
        <time>2023-08-02T10:09:31.000Z</time>
      </trkpt>
      <trkpt lat="43.77071" lon="7.12078">
        <ele>777.20001220703</ele>
        <time>2023-08-02T10:09:32.000Z</time>
      </trkpt>
      <trkpt lat="43.77071" lon="7.12078">
        <ele>777.20001220703</ele>
        <time>2023-08-02T10:09:33.000Z</time>
      </trkpt>
      <trkpt lat="43.77071" lon="7.12078">
        <ele>777.20001220703</ele>
        <time>2023-08-02T10:09:34.000Z</time>
      </trkpt>
      <trkpt lat="43.77071" lon="7.12078">
        <ele>777.20001220703</ele>
        <time>2023-08-02T10:09:35.000Z</time>
      </trkpt>
      <trkpt lat="43.77071" lon="7.12078">
        <ele>777.20001220703</ele>
        <time>2023-08-02T10:09:36.000Z</time>
      </trkpt>
      <trkpt lat="43.77071" lon="7.12078">
        <ele>777.20001220703</ele>
        <time>2023-08-02T10:09:37.000Z</time>
      </trkpt>
      <trkpt lat="43.77071" lon="7.12078">
        <ele>777.20001220703</ele>
        <time>2023-08-02T10:09:38.000Z</time>
      </trkpt>
      <trkpt lat="43.77071" lon="7.12078">
        <ele>777.20001220703</ele>
        <time>2023-08-02T10:09:39.000Z</time>
      </trkpt>
      <trkpt lat="43.77071" lon="7.12078">
        <ele>777.20001220703</ele>
        <time>2023-08-02T10:09:40.000Z</time>
      </trkpt>
      <trkpt lat="43.77071" lon="7.12078">
        <ele>777.20001220703</ele>
        <time>2023-08-02T10:09:41.000Z</time>
      </trkpt>
      <trkpt lat="43.77071" lon="7.12078">
        <ele>777.20001220703</ele>
        <time>2023-08-02T10:09:42.000Z</time>
      </trkpt>
      <trkpt lat="43.77071" lon="7.12078">
        <ele>777.20001220703</ele>
        <time>2023-08-02T10:09:43.000Z</time>
      </trkpt>
      <trkpt lat="43.77071" lon="7.12078">
        <ele>777.20001220703</ele>
        <time>2023-08-02T10:09:44.000Z</time>
      </trkpt>
      <trkpt lat="43.77071" lon="7.12078">
        <ele>777.20001220703</ele>
        <time>2023-08-02T10:09:45.000Z</time>
      </trkpt>
      <trkpt lat="43.77071" lon="7.12078">
        <ele>777.20001220703</ele>
        <time>2023-08-02T10:09:46.000Z</time>
      </trkpt>
      <trkpt lat="43.77071" lon="7.12078">
        <ele>777.20001220703</ele>
        <time>2023-08-02T10:09:47.000Z</time>
      </trkpt>
      <trkpt lat="43.77071" lon="7.12078">
        <ele>777.20001220703</ele>
        <time>2023-08-02T10:09:48.000Z</time>
      </trkpt>
      <trkpt lat="43.77071" lon="7.12078">
        <ele>777.20001220703</ele>
        <time>2023-08-02T10:09:49.000Z</time>
      </trkpt>
      <trkpt lat="43.77071" lon="7.12078">
        <ele>777.20001220703</ele>
        <time>2023-08-02T10:09:50.000Z</time>
      </trkpt>
      <trkpt lat="43.77071" lon="7.12078">
        <ele>777.20001220703</ele>
        <time>2023-08-02T10:09:51.000Z</time>
      </trkpt>
      <trkpt lat="43.77071" lon="7.12078">
        <ele>777.20001220703</ele>
        <time>2023-08-02T10:09:52.000Z</time>
      </trkpt>
      <trkpt lat="43.77071" lon="7.12078">
        <ele>777.20001220703</ele>
        <time>2023-08-02T10:09:53.000Z</time>
      </trkpt>
      <trkpt lat="43.77071" lon="7.12078">
        <ele>777.20001220703</ele>
        <time>2023-08-02T10:09:54.000Z</time>
      </trkpt>
      <trkpt lat="43.77071" lon="7.12078">
        <ele>777.20001220703</ele>
        <time>2023-08-02T10:09:55.000Z</time>
      </trkpt>
      <trkpt lat="43.77071" lon="7.12078">
        <ele>777.20001220703</ele>
        <time>2023-08-02T10:09:56.000Z</time>
      </trkpt>
      <trkpt lat="43.77071" lon="7.12078">
        <ele>777.20001220703</ele>
        <time>2023-08-02T10:09:57.000Z</time>
      </trkpt>
      <trkpt lat="43.77071" lon="7.12078">
        <ele>777.20001220703</ele>
        <time>2023-08-02T10:09:58.000Z</time>
      </trkpt>
      <trkpt lat="43.77071" lon="7.12078">
        <ele>777.20001220703</ele>
        <time>2023-08-02T10:09:59.000Z</time>
      </trkpt>
      <trkpt lat="43.77071" lon="7.12078">
        <ele>777.20001220703</ele>
        <time>2023-08-02T10:10:00.000Z</time>
      </trkpt>
      <trkpt lat="43.77071" lon="7.12078">
        <ele>777.20001220703</ele>
        <time>2023-08-02T10:10:01.000Z</time>
      </trkpt>
      <trkpt lat="43.77071" lon="7.12078">
        <ele>777.20001220703</ele>
        <time>2023-08-02T10:10:02.000Z</time>
      </trkpt>
      <trkpt lat="43.77071" lon="7.12078">
        <ele>777.20001220703</ele>
        <time>2023-08-02T10:10:03.000Z</time>
      </trkpt>
      <trkpt lat="43.77071" lon="7.12078">
        <ele>777.20001220703</ele>
        <time>2023-08-02T10:10:04.000Z</time>
      </trkpt>
      <trkpt lat="43.77071" lon="7.12078">
        <ele>777.20001220703</ele>
        <time>2023-08-02T10:10:05.000Z</time>
      </trkpt>
      <trkpt lat="43.77071" lon="7.12078">
        <ele>777.20001220703</ele>
        <time>2023-08-02T10:10:06.000Z</time>
      </trkpt>
      <trkpt lat="43.77071" lon="7.12078">
        <ele>777.20001220703</ele>
        <time>2023-08-02T10:10:07.000Z</time>
      </trkpt>
      <trkpt lat="43.77071" lon="7.12078">
        <ele>777.20001220703</ele>
        <time>2023-08-02T10:10:08.000Z</time>
      </trkpt>
      <trkpt lat="43.77071" lon="7.12078">
        <ele>777.20001220703</ele>
        <time>2023-08-02T10:10:09.000Z</time>
      </trkpt>
      <trkpt lat="43.77071" lon="7.12078">
        <ele>777.20001220703</ele>
        <time>2023-08-02T10:10:10.000Z</time>
      </trkpt>
      <trkpt lat="43.77071" lon="7.12078">
        <ele>777.20001220703</ele>
        <time>2023-08-02T10:10:11.000Z</time>
      </trkpt>
      <trkpt lat="43.77071" lon="7.12078">
        <ele>777.20001220703</ele>
        <time>2023-08-02T10:10:12.000Z</time>
      </trkpt>
      <trkpt lat="43.77071" lon="7.12078">
        <ele>777.20001220703</ele>
        <time>2023-08-02T10:10:13.000Z</time>
      </trkpt>
      <trkpt lat="43.77071" lon="7.12078">
        <ele>777.20001220703</ele>
        <time>2023-08-02T10:10:14.000Z</time>
      </trkpt>
      <trkpt lat="43.77071" lon="7.12078">
        <ele>777.20001220703</ele>
        <time>2023-08-02T10:10:15.000Z</time>
      </trkpt>
      <trkpt lat="43.77071" lon="7.12078">
        <ele>777.20001220703</ele>
        <time>2023-08-02T10:10:16.000Z</time>
      </trkpt>
      <trkpt lat="43.77071" lon="7.12078">
        <ele>777.20001220703</ele>
        <time>2023-08-02T10:10:17.000Z</time>
      </trkpt>
      <trkpt lat="43.77071" lon="7.12078">
        <ele>777.20001220703</ele>
        <time>2023-08-02T10:10:18.000Z</time>
      </trkpt>
      <trkpt lat="43.77071" lon="7.12078">
        <ele>777.20001220703</ele>
        <time>2023-08-02T10:10:19.000Z</time>
      </trkpt>
      <trkpt lat="43.77071" lon="7.12078">
        <ele>777.20001220703</ele>
        <time>2023-08-02T10:10:20.000Z</time>
      </trkpt>
      <trkpt lat="43.77071" lon="7.12078">
        <ele>777.20001220703</ele>
        <time>2023-08-02T10:10:21.000Z</time>
      </trkpt>
      <trkpt lat="43.77071" lon="7.12078">
        <ele>777.20001220703</ele>
        <time>2023-08-02T10:10:22.000Z</time>
      </trkpt>
      <trkpt lat="43.77071" lon="7.12078">
        <ele>777.20001220703</ele>
        <time>2023-08-02T10:10:23.000Z</time>
      </trkpt>
      <trkpt lat="43.7707" lon="7.12078">
        <ele>777.20001220703</ele>
        <time>2023-08-02T10:10:24.000Z</time>
      </trkpt>
      <trkpt lat="43.77071" lon="7.12078">
        <ele>777.20001220703</ele>
        <time>2023-08-02T10:10:25.000Z</time>
      </trkpt>
      <trkpt lat="43.77069" lon="7.12078">
        <ele>777.20001220703</ele>
        <time>2023-08-02T10:10:26.000Z</time>
      </trkpt>
      <trkpt lat="43.77069" lon="7.12078">
        <ele>777.20001220703</ele>
        <time>2023-08-02T10:10:27.000Z</time>
      </trkpt>
      <trkpt lat="43.77069" lon="7.12078">
        <ele>777.20001220703</ele>
        <time>2023-08-02T10:10:28.000Z</time>
      </trkpt>
      <trkpt lat="43.77069" lon="7.12078">
        <ele>777.20001220703</ele>
        <time>2023-08-02T10:10:29.000Z</time>
      </trkpt>
      <trkpt lat="43.77069" lon="7.12078">
        <ele>777.20001220703</ele>
        <time>2023-08-02T10:10:30.000Z</time>
      </trkpt>
      <trkpt lat="43.77069" lon="7.12078">
        <ele>777.20001220703</ele>
        <time>2023-08-02T10:10:31.000Z</time>
      </trkpt>
      <trkpt lat="43.77068" lon="7.12078">
        <ele>777.20001220703</ele>
        <time>2023-08-02T10:10:32.000Z</time>
      </trkpt>
      <trkpt lat="43.77067" lon="7.12077">
        <ele>777.20001220703</ele>
        <time>2023-08-02T10:10:33.000Z</time>
      </trkpt>
      <trkpt lat="43.77066" lon="7.12077">
        <ele>777</ele>
        <time>2023-08-02T10:10:34.000Z</time>
      </trkpt>
      <trkpt lat="43.77064" lon="7.12077">
        <ele>777.20001220703</ele>
        <time>2023-08-02T10:10:35.000Z</time>
      </trkpt>
      <trkpt lat="43.77063" lon="7.12078">
        <ele>777.20001220703</ele>
        <time>2023-08-02T10:10:36.000Z</time>
      </trkpt>
      <trkpt lat="43.77062" lon="7.12078">
        <ele>777.20001220703</ele>
        <time>2023-08-02T10:10:37.000Z</time>
      </trkpt>
      <trkpt lat="43.77061" lon="7.12078">
        <ele>777.20001220703</ele>
        <time>2023-08-02T10:10:38.000Z</time>
      </trkpt>
      <trkpt lat="43.7706" lon="7.12079">
        <ele>777.20001220703</ele>
        <time>2023-08-02T10:10:39.000Z</time>
      </trkpt>
      <trkpt lat="43.7706" lon="7.1208">
        <ele>777.20001220703</ele>
        <time>2023-08-02T10:10:40.000Z</time>
      </trkpt>
      <trkpt lat="43.77058" lon="7.12079">
        <ele>777.40002441406</ele>
        <time>2023-08-02T10:10:41.000Z</time>
      </trkpt>
      <trkpt lat="43.77057" lon="7.12079">
        <ele>777.40002441406</ele>
        <time>2023-08-02T10:10:42.000Z</time>
      </trkpt>
      <trkpt lat="43.77057" lon="7.12078">
        <ele>777.40002441406</ele>
        <time>2023-08-02T10:10:43.000Z</time>
      </trkpt>
      <trkpt lat="43.77056" lon="7.12077">
        <ele>777.40002441406</ele>
        <time>2023-08-02T10:10:44.000Z</time>
      </trkpt>
      <trkpt lat="43.77054" lon="7.12078">
        <ele>777.40002441406</ele>
        <time>2023-08-02T10:10:45.000Z</time>
      </trkpt>
      <trkpt lat="43.77053" lon="7.12078">
        <ele>777.40002441406</ele>
        <time>2023-08-02T10:10:46.000Z</time>
      </trkpt>
      <trkpt lat="43.77052" lon="7.12079">
        <ele>777.40002441406</ele>
        <time>2023-08-02T10:10:47.000Z</time>
      </trkpt>
      <trkpt lat="43.77051" lon="7.1208">
        <ele>777.40002441406</ele>
        <time>2023-08-02T10:10:48.000Z</time>
      </trkpt>
      <trkpt lat="43.7705" lon="7.12081">
        <ele>777.40002441406</ele>
        <time>2023-08-02T10:10:49.000Z</time>
      </trkpt>
      <trkpt lat="43.7705" lon="7.12082">
        <ele>777.20001220703</ele>
        <time>2023-08-02T10:10:50.000Z</time>
      </trkpt>
      <trkpt lat="43.77048" lon="7.12082">
        <ele>777.20001220703</ele>
        <time>2023-08-02T10:10:51.000Z</time>
      </trkpt>
      <trkpt lat="43.77045" lon="7.12082">
        <ele>777.20001220703</ele>
        <time>2023-08-02T10:10:52.000Z</time>
      </trkpt>
      <trkpt lat="43.77044" lon="7.12082">
        <ele>777.20001220703</ele>
        <time>2023-08-02T10:10:53.000Z</time>
      </trkpt>
      <trkpt lat="43.77042" lon="7.12081">
        <ele>777.20001220703</ele>
        <time>2023-08-02T10:10:54.000Z</time>
      </trkpt>
      <trkpt lat="43.7704" lon="7.1208">
        <ele>777.20001220703</ele>
        <time>2023-08-02T10:10:55.000Z</time>
      </trkpt>
      <trkpt lat="43.77038" lon="7.12078">
        <ele>777.20001220703</ele>
        <time>2023-08-02T10:10:56.000Z</time>
      </trkpt>
      <trkpt lat="43.77036" lon="7.12078">
        <ele>777.20001220703</ele>
        <time>2023-08-02T10:10:57.000Z</time>
      </trkpt>
      <trkpt lat="43.77035" lon="7.12078">
        <ele>777.20001220703</ele>
        <time>2023-08-02T10:10:58.000Z</time>
      </trkpt>
      <trkpt lat="43.77034" lon="7.12078">
        <ele>777</ele>
        <time>2023-08-02T10:10:59.000Z</time>
      </trkpt>
      <trkpt lat="43.77032" lon="7.12077">
        <ele>777</ele>
        <time>2023-08-02T10:11:00.000Z</time>
      </trkpt>
      <trkpt lat="43.77031" lon="7.12076">
        <ele>777</ele>
        <time>2023-08-02T10:11:01.000Z</time>
      </trkpt>
      <trkpt lat="43.7703" lon="7.12075">
        <ele>777</ele>
        <time>2023-08-02T10:11:02.000Z</time>
      </trkpt>
      <trkpt lat="43.7703" lon="7.12075">
        <ele>776.59997558594</ele>
        <time>2023-08-02T10:11:03.000Z</time>
      </trkpt>
      <trkpt lat="43.7703" lon="7.12076">
        <ele>776.40002441406</ele>
        <time>2023-08-02T10:11:04.000Z</time>
      </trkpt>
      <trkpt lat="43.7703" lon="7.12076">
        <ele>776.40002441406</ele>
        <time>2023-08-02T10:11:05.000Z</time>
      </trkpt>
      <trkpt lat="43.7703" lon="7.12076">
        <ele>776.40002441406</ele>
        <time>2023-08-02T10:11:06.000Z</time>
      </trkpt>
      <trkpt lat="43.7703" lon="7.12076">
        <ele>776.40002441406</ele>
        <time>2023-08-02T10:11:07.000Z</time>
      </trkpt>
      <trkpt lat="43.7703" lon="7.12075">
        <ele>776.40002441406</ele>
        <time>2023-08-02T10:11:08.000Z</time>
      </trkpt>
      <trkpt lat="43.77029" lon="7.12074">
        <ele>776.20001220703</ele>
        <time>2023-08-02T10:11:09.000Z</time>
      </trkpt>
      <trkpt lat="43.77029" lon="7.12073">
        <ele>776.20001220703</ele>
        <time>2023-08-02T10:11:10.000Z</time>
      </trkpt>
      <trkpt lat="43.77028" lon="7.12072">
        <ele>776.20001220703</ele>
        <time>2023-08-02T10:11:11.000Z</time>
      </trkpt>
      <trkpt lat="43.77027" lon="7.12072">
        <ele>776.20001220703</ele>
        <time>2023-08-02T10:11:12.000Z</time>
      </trkpt>
      <trkpt lat="43.77026" lon="7.12072">
        <ele>776</ele>
        <time>2023-08-02T10:11:13.000Z</time>
      </trkpt>
      <trkpt lat="43.77025" lon="7.12072">
        <ele>776</ele>
        <time>2023-08-02T10:11:14.000Z</time>
      </trkpt>
      <trkpt lat="43.77023" lon="7.12071">
        <ele>776</ele>
        <time>2023-08-02T10:11:15.000Z</time>
      </trkpt>
      <trkpt lat="43.77021" lon="7.12072">
        <ele>775.79998779297</ele>
        <time>2023-08-02T10:11:16.000Z</time>
      </trkpt>
      <trkpt lat="43.77018" lon="7.12072">
        <ele>775.40002441406</ele>
        <time>2023-08-02T10:11:17.000Z</time>
      </trkpt>
      <trkpt lat="43.77016" lon="7.12072">
        <ele>775.40002441406</ele>
        <time>2023-08-02T10:11:18.000Z</time>
      </trkpt>
      <trkpt lat="43.77014" lon="7.12072">
        <ele>775.40002441406</ele>
        <time>2023-08-02T10:11:19.000Z</time>
      </trkpt>
      <trkpt lat="43.77012" lon="7.12072">
        <ele>775.40002441406</ele>
        <time>2023-08-02T10:11:20.000Z</time>
      </trkpt>
      <trkpt lat="43.77011" lon="7.12072">
        <ele>775.40002441406</ele>
        <time>2023-08-02T10:11:21.000Z</time>
      </trkpt>
      <trkpt lat="43.77011" lon="7.12072">
        <ele>775.40002441406</ele>
        <time>2023-08-02T10:11:22.000Z</time>
      </trkpt>
      <trkpt lat="43.77011" lon="7.12072">
        <ele>775.40002441406</ele>
        <time>2023-08-02T10:11:23.000Z</time>
      </trkpt>
      <trkpt lat="43.77011" lon="7.12072">
        <ele>775.40002441406</ele>
        <time>2023-08-02T10:11:24.000Z</time>
      </trkpt>
      <trkpt lat="43.7701" lon="7.12072">
        <ele>775.20001220703</ele>
        <time>2023-08-02T10:11:25.000Z</time>
      </trkpt>
      <trkpt lat="43.7701" lon="7.12072">
        <ele>775.20001220703</ele>
        <time>2023-08-02T10:11:26.000Z</time>
      </trkpt>
      <trkpt lat="43.77009" lon="7.12071">
        <ele>775.20001220703</ele>
        <time>2023-08-02T10:11:27.000Z</time>
      </trkpt>
      <trkpt lat="43.77008" lon="7.1207">
        <ele>775.20001220703</ele>
        <time>2023-08-02T10:11:28.000Z</time>
      </trkpt>
      <trkpt lat="43.77008" lon="7.12069">
        <ele>775.20001220703</ele>
        <time>2023-08-02T10:11:29.000Z</time>
      </trkpt>
      <trkpt lat="43.77006" lon="7.12069">
        <ele>775.20001220703</ele>
        <time>2023-08-02T10:11:30.000Z</time>
      </trkpt>
      <trkpt lat="43.77006" lon="7.12069">
        <ele>775.20001220703</ele>
        <time>2023-08-02T10:11:31.000Z</time>
      </trkpt>
      <trkpt lat="43.77005" lon="7.12069">
        <ele>775</ele>
        <time>2023-08-02T10:11:32.000Z</time>
      </trkpt>
      <trkpt lat="43.77004" lon="7.12069">
        <ele>775</ele>
        <time>2023-08-02T10:11:33.000Z</time>
      </trkpt>
      <trkpt lat="43.77003" lon="7.12068">
        <ele>775</ele>
        <time>2023-08-02T10:11:34.000Z</time>
      </trkpt>
      <trkpt lat="43.77001" lon="7.12068">
        <ele>774.79998779297</ele>
        <time>2023-08-02T10:11:35.000Z</time>
      </trkpt>
      <trkpt lat="43.77" lon="7.12068">
        <ele>774.79998779297</ele>
        <time>2023-08-02T10:11:36.000Z</time>
      </trkpt>
      <trkpt lat="43.76999" lon="7.12069">
        <ele>774.79998779297</ele>
        <time>2023-08-02T10:11:37.000Z</time>
      </trkpt>
      <trkpt lat="43.76998" lon="7.12069">
        <ele>774.79998779297</ele>
        <time>2023-08-02T10:11:38.000Z</time>
      </trkpt>
      <trkpt lat="43.76997" lon="7.1207">
        <ele>774.79998779297</ele>
        <time>2023-08-02T10:11:39.000Z</time>
      </trkpt>
      <trkpt lat="43.76996" lon="7.12071">
        <ele>774.79998779297</ele>
        <time>2023-08-02T10:11:40.000Z</time>
      </trkpt>
      <trkpt lat="43.76996" lon="7.1207">
        <ele>775</ele>
        <time>2023-08-02T10:11:41.000Z</time>
      </trkpt>
      <trkpt lat="43.76996" lon="7.1207">
        <ele>775</ele>
        <time>2023-08-02T10:11:42.000Z</time>
      </trkpt>
      <trkpt lat="43.76996" lon="7.1207">
        <ele>775</ele>
        <time>2023-08-02T10:11:43.000Z</time>
      </trkpt>
      <trkpt lat="43.76995" lon="7.12069">
        <ele>775</ele>
        <time>2023-08-02T10:11:44.000Z</time>
      </trkpt>
      <trkpt lat="43.76995" lon="7.12069">
        <ele>775</ele>
        <time>2023-08-02T10:11:45.000Z</time>
      </trkpt>
      <trkpt lat="43.76994" lon="7.12069">
        <ele>775</ele>
        <time>2023-08-02T10:11:46.000Z</time>
      </trkpt>
      <trkpt lat="43.76994" lon="7.12068">
        <ele>775</ele>
        <time>2023-08-02T10:11:47.000Z</time>
      </trkpt>
      <trkpt lat="43.76993" lon="7.12068">
        <ele>775</ele>
        <time>2023-08-02T10:11:48.000Z</time>
      </trkpt>
      <trkpt lat="43.76992" lon="7.12067">
        <ele>775</ele>
        <time>2023-08-02T10:11:49.000Z</time>
      </trkpt>
      <trkpt lat="43.76991" lon="7.12068">
        <ele>775</ele>
        <time>2023-08-02T10:11:50.000Z</time>
      </trkpt>
      <trkpt lat="43.76991" lon="7.12068">
        <ele>774.79998779297</ele>
        <time>2023-08-02T10:11:51.000Z</time>
      </trkpt>
      <trkpt lat="43.76991" lon="7.12068">
        <ele>774.79998779297</ele>
        <time>2023-08-02T10:11:52.000Z</time>
      </trkpt>
      <trkpt lat="43.76991" lon="7.12069">
        <ele>774.79998779297</ele>
        <time>2023-08-02T10:11:53.000Z</time>
      </trkpt>
      <trkpt lat="43.7699" lon="7.12069">
        <ele>774.79998779297</ele>
        <time>2023-08-02T10:11:54.000Z</time>
      </trkpt>
      <trkpt lat="43.7699" lon="7.12069">
        <ele>775</ele>
        <time>2023-08-02T10:11:55.000Z</time>
      </trkpt>
      <trkpt lat="43.76989" lon="7.12069">
        <ele>775</ele>
        <time>2023-08-02T10:11:56.000Z</time>
      </trkpt>
      <trkpt lat="43.76989" lon="7.12069">
        <ele>775</ele>
        <time>2023-08-02T10:11:57.000Z</time>
      </trkpt>
      <trkpt lat="43.76989" lon="7.12069">
        <ele>775</ele>
        <time>2023-08-02T10:11:58.000Z</time>
      </trkpt>
      <trkpt lat="43.76988" lon="7.1207">
        <ele>775</ele>
        <time>2023-08-02T10:11:59.000Z</time>
      </trkpt>
      <trkpt lat="43.76988" lon="7.1207">
        <ele>774.79998779297</ele>
        <time>2023-08-02T10:12:00.000Z</time>
      </trkpt>
      <trkpt lat="43.76987" lon="7.1207">
        <ele>774.79998779297</ele>
        <time>2023-08-02T10:12:01.000Z</time>
      </trkpt>
      <trkpt lat="43.76986" lon="7.1207">
        <ele>774.79998779297</ele>
        <time>2023-08-02T10:12:02.000Z</time>
      </trkpt>
      <trkpt lat="43.76986" lon="7.1207">
        <ele>774.79998779297</ele>
        <time>2023-08-02T10:12:03.000Z</time>
      </trkpt>
      <trkpt lat="43.76985" lon="7.1207">
        <ele>774.79998779297</ele>
        <time>2023-08-02T10:12:04.000Z</time>
      </trkpt>
      <trkpt lat="43.76984" lon="7.1207">
        <ele>774.79998779297</ele>
        <time>2023-08-02T10:12:05.000Z</time>
      </trkpt>
      <trkpt lat="43.76984" lon="7.12071">
        <ele>774.79998779297</ele>
        <time>2023-08-02T10:12:06.000Z</time>
      </trkpt>
      <trkpt lat="43.76984" lon="7.12071">
        <ele>774.79998779297</ele>
        <time>2023-08-02T10:12:07.000Z</time>
      </trkpt>
      <trkpt lat="43.76983" lon="7.12071">
        <ele>774.79998779297</ele>
        <time>2023-08-02T10:12:08.000Z</time>
      </trkpt>
      <trkpt lat="43.76983" lon="7.12072">
        <ele>774.79998779297</ele>
        <time>2023-08-02T10:12:09.000Z</time>
      </trkpt>
      <trkpt lat="43.76982" lon="7.12073">
        <ele>774.79998779297</ele>
        <time>2023-08-02T10:12:10.000Z</time>
      </trkpt>
      <trkpt lat="43.76981" lon="7.12073">
        <ele>774.59997558594</ele>
        <time>2023-08-02T10:12:11.000Z</time>
      </trkpt>
      <trkpt lat="43.7698" lon="7.12073">
        <ele>774.59997558594</ele>
        <time>2023-08-02T10:12:12.000Z</time>
      </trkpt>
      <trkpt lat="43.76979" lon="7.12073">
        <ele>774.59997558594</ele>
        <time>2023-08-02T10:12:13.000Z</time>
      </trkpt>
      <trkpt lat="43.76979" lon="7.12073">
        <ele>774.59997558594</ele>
        <time>2023-08-02T10:12:14.000Z</time>
      </trkpt>
      <trkpt lat="43.76978" lon="7.12074">
        <ele>774.59997558594</ele>
        <time>2023-08-02T10:12:15.000Z</time>
      </trkpt>
      <trkpt lat="43.76978" lon="7.12074">
        <ele>774.59997558594</ele>
        <time>2023-08-02T10:12:16.000Z</time>
      </trkpt>
      <trkpt lat="43.76977" lon="7.12075">
        <ele>774.79998779297</ele>
        <time>2023-08-02T10:12:17.000Z</time>
      </trkpt>
      <trkpt lat="43.76977" lon="7.12075">
        <ele>774.79998779297</ele>
        <time>2023-08-02T10:12:18.000Z</time>
      </trkpt>
      <trkpt lat="43.76976" lon="7.12076">
        <ele>774.79998779297</ele>
        <time>2023-08-02T10:12:19.000Z</time>
      </trkpt>
      <trkpt lat="43.76976" lon="7.12077">
        <ele>774.79998779297</ele>
        <time>2023-08-02T10:12:20.000Z</time>
      </trkpt>
      <trkpt lat="43.76975" lon="7.12078">
        <ele>774.79998779297</ele>
        <time>2023-08-02T10:12:21.000Z</time>
      </trkpt>
      <trkpt lat="43.76975" lon="7.12078">
        <ele>774.79998779297</ele>
        <time>2023-08-02T10:12:22.000Z</time>
      </trkpt>
      <trkpt lat="43.76975" lon="7.12079">
        <ele>774.79998779297</ele>
        <time>2023-08-02T10:12:23.000Z</time>
      </trkpt>
      <trkpt lat="43.76974" lon="7.12079">
        <ele>774.79998779297</ele>
        <time>2023-08-02T10:12:24.000Z</time>
      </trkpt>
      <trkpt lat="43.76974" lon="7.12079">
        <ele>774.79998779297</ele>
        <time>2023-08-02T10:12:25.000Z</time>
      </trkpt>
      <trkpt lat="43.76973" lon="7.1208">
        <ele>774.79998779297</ele>
        <time>2023-08-02T10:12:26.000Z</time>
      </trkpt>
      <trkpt lat="43.76972" lon="7.12081">
        <ele>774.79998779297</ele>
        <time>2023-08-02T10:12:27.000Z</time>
      </trkpt>
      <trkpt lat="43.76971" lon="7.12083">
        <ele>774.79998779297</ele>
        <time>2023-08-02T10:12:28.000Z</time>
      </trkpt>
      <trkpt lat="43.7697" lon="7.12084">
        <ele>774.79998779297</ele>
        <time>2023-08-02T10:12:29.000Z</time>
      </trkpt>
      <trkpt lat="43.76969" lon="7.12085">
        <ele>774.79998779297</ele>
        <time>2023-08-02T10:12:30.000Z</time>
      </trkpt>
      <trkpt lat="43.76968" lon="7.12086">
        <ele>774.79998779297</ele>
        <time>2023-08-02T10:12:31.000Z</time>
      </trkpt>
      <trkpt lat="43.76966" lon="7.12088">
        <ele>774.79998779297</ele>
        <time>2023-08-02T10:12:32.000Z</time>
      </trkpt>
      <trkpt lat="43.76965" lon="7.12089">
        <ele>774.79998779297</ele>
        <time>2023-08-02T10:12:33.000Z</time>
      </trkpt>
      <trkpt lat="43.76964" lon="7.12089">
        <ele>774.79998779297</ele>
        <time>2023-08-02T10:12:34.000Z</time>
      </trkpt>
      <trkpt lat="43.76963" lon="7.12089">
        <ele>774.79998779297</ele>
        <time>2023-08-02T10:12:35.000Z</time>
      </trkpt>
      <trkpt lat="43.76961" lon="7.1209">
        <ele>775</ele>
        <time>2023-08-02T10:12:36.000Z</time>
      </trkpt>
      <trkpt lat="43.7696" lon="7.12091">
        <ele>775</ele>
        <time>2023-08-02T10:12:37.000Z</time>
      </trkpt>
      <trkpt lat="43.76958" lon="7.12092">
        <ele>775</ele>
        <time>2023-08-02T10:12:38.000Z</time>
      </trkpt>
      <trkpt lat="43.76957" lon="7.12093">
        <ele>775</ele>
        <time>2023-08-02T10:12:39.000Z</time>
      </trkpt>
      <trkpt lat="43.76956" lon="7.12093">
        <ele>775</ele>
        <time>2023-08-02T10:12:40.000Z</time>
      </trkpt>
      <trkpt lat="43.76956" lon="7.12093">
        <ele>774.79998779297</ele>
        <time>2023-08-02T10:12:41.000Z</time>
      </trkpt>
      <trkpt lat="43.76955" lon="7.12094">
        <ele>774.59997558594</ele>
        <time>2023-08-02T10:12:42.000Z</time>
      </trkpt>
      <trkpt lat="43.76954" lon="7.12095">
        <ele>774.59997558594</ele>
        <time>2023-08-02T10:12:43.000Z</time>
      </trkpt>
      <trkpt lat="43.76954" lon="7.12095">
        <ele>774.59997558594</ele>
        <time>2023-08-02T10:12:44.000Z</time>
      </trkpt>
      <trkpt lat="43.76953" lon="7.12096">
        <ele>774.59997558594</ele>
        <time>2023-08-02T10:12:45.000Z</time>
      </trkpt>
      <trkpt lat="43.76952" lon="7.12097">
        <ele>774.59997558594</ele>
        <time>2023-08-02T10:12:46.000Z</time>
      </trkpt>
      <trkpt lat="43.76951" lon="7.12098">
        <ele>774.59997558594</ele>
        <time>2023-08-02T10:12:47.000Z</time>
      </trkpt>
      <trkpt lat="43.7695" lon="7.12098">
        <ele>774.59997558594</ele>
        <time>2023-08-02T10:12:48.000Z</time>
      </trkpt>
      <trkpt lat="43.76949" lon="7.121">
        <ele>774.59997558594</ele>
        <time>2023-08-02T10:12:49.000Z</time>
      </trkpt>
      <trkpt lat="43.76949" lon="7.12101">
        <ele>774.40002441406</ele>
        <time>2023-08-02T10:12:50.000Z</time>
      </trkpt>
      <trkpt lat="43.76948" lon="7.12102">
        <ele>774.40002441406</ele>
        <time>2023-08-02T10:12:51.000Z</time>
      </trkpt>
      <trkpt lat="43.76948" lon="7.12103">
        <ele>774.59997558594</ele>
        <time>2023-08-02T10:12:52.000Z</time>
      </trkpt>
      <trkpt lat="43.76948" lon="7.12103">
        <ele>774.40002441406</ele>
        <time>2023-08-02T10:12:53.000Z</time>
      </trkpt>
      <trkpt lat="43.76947" lon="7.12102">
        <ele>774.40002441406</ele>
        <time>2023-08-02T10:12:54.000Z</time>
      </trkpt>
      <trkpt lat="43.76946" lon="7.12103">
        <ele>774.40002441406</ele>
        <time>2023-08-02T10:12:55.000Z</time>
      </trkpt>
      <trkpt lat="43.76946" lon="7.12104">
        <ele>774.40002441406</ele>
        <time>2023-08-02T10:12:56.000Z</time>
      </trkpt>
      <trkpt lat="43.76945" lon="7.12104">
        <ele>774.40002441406</ele>
        <time>2023-08-02T10:12:57.000Z</time>
      </trkpt>
      <trkpt lat="43.76944" lon="7.12105">
        <ele>774.40002441406</ele>
        <time>2023-08-02T10:12:58.000Z</time>
      </trkpt>
      <trkpt lat="43.76944" lon="7.12106">
        <ele>774.40002441406</ele>
        <time>2023-08-02T10:12:59.000Z</time>
      </trkpt>
      <trkpt lat="43.76943" lon="7.12107">
        <ele>774.40002441406</ele>
        <time>2023-08-02T10:13:00.000Z</time>
      </trkpt>
      <trkpt lat="43.76943" lon="7.12108">
        <ele>774.40002441406</ele>
        <time>2023-08-02T10:13:01.000Z</time>
      </trkpt>
      <trkpt lat="43.76943" lon="7.12108">
        <ele>774.20001220703</ele>
        <time>2023-08-02T10:13:02.000Z</time>
      </trkpt>
      <trkpt lat="43.76943" lon="7.12108">
        <ele>774.20001220703</ele>
        <time>2023-08-02T10:13:03.000Z</time>
      </trkpt>
      <trkpt lat="43.76943" lon="7.12108">
        <ele>774.20001220703</ele>
        <time>2023-08-02T10:13:04.000Z</time>
      </trkpt>
      <trkpt lat="43.76942" lon="7.12108">
        <ele>774.20001220703</ele>
        <time>2023-08-02T10:13:05.000Z</time>
      </trkpt>
      <trkpt lat="43.76942" lon="7.12109">
        <ele>774.20001220703</ele>
        <time>2023-08-02T10:13:06.000Z</time>
      </trkpt>
      <trkpt lat="43.76942" lon="7.12109">
        <ele>774.40002441406</ele>
        <time>2023-08-02T10:13:07.000Z</time>
      </trkpt>
      <trkpt lat="43.76942" lon="7.12109">
        <ele>774.40002441406</ele>
        <time>2023-08-02T10:13:08.000Z</time>
      </trkpt>
      <trkpt lat="43.76942" lon="7.1211">
        <ele>774.40002441406</ele>
        <time>2023-08-02T10:13:09.000Z</time>
      </trkpt>
      <trkpt lat="43.76942" lon="7.12111">
        <ele>774.40002441406</ele>
        <time>2023-08-02T10:13:10.000Z</time>
      </trkpt>
      <trkpt lat="43.76941" lon="7.12112">
        <ele>774.40002441406</ele>
        <time>2023-08-02T10:13:11.000Z</time>
      </trkpt>
      <trkpt lat="43.7694" lon="7.12113">
        <ele>774.40002441406</ele>
        <time>2023-08-02T10:13:12.000Z</time>
      </trkpt>
      <trkpt lat="43.7694" lon="7.12115">
        <ele>774.20001220703</ele>
        <time>2023-08-02T10:13:13.000Z</time>
      </trkpt>
      <trkpt lat="43.76939" lon="7.12115">
        <ele>774.40002441406</ele>
        <time>2023-08-02T10:13:14.000Z</time>
      </trkpt>
      <trkpt lat="43.76939" lon="7.12116">
        <ele>774.40002441406</ele>
        <time>2023-08-02T10:13:15.000Z</time>
      </trkpt>
      <trkpt lat="43.76939" lon="7.12117">
        <ele>774.40002441406</ele>
        <time>2023-08-02T10:13:16.000Z</time>
      </trkpt>
      <trkpt lat="43.76939" lon="7.12118">
        <ele>774.40002441406</ele>
        <time>2023-08-02T10:13:17.000Z</time>
      </trkpt>
      <trkpt lat="43.76939" lon="7.12119">
        <ele>774.40002441406</ele>
        <time>2023-08-02T10:13:18.000Z</time>
      </trkpt>
      <trkpt lat="43.76939" lon="7.1212">
        <ele>774.40002441406</ele>
        <time>2023-08-02T10:13:19.000Z</time>
      </trkpt>
      <trkpt lat="43.76939" lon="7.1212">
        <ele>774.20001220703</ele>
        <time>2023-08-02T10:13:20.000Z</time>
      </trkpt>
      <trkpt lat="43.76939" lon="7.12121">
        <ele>774.20001220703</ele>
        <time>2023-08-02T10:13:21.000Z</time>
      </trkpt>
      <trkpt lat="43.76939" lon="7.12122">
        <ele>774.20001220703</ele>
        <time>2023-08-02T10:13:22.000Z</time>
      </trkpt>
      <trkpt lat="43.76939" lon="7.12123">
        <ele>774</ele>
        <time>2023-08-02T10:13:23.000Z</time>
      </trkpt>
      <trkpt lat="43.76939" lon="7.12124">
        <ele>774</ele>
        <time>2023-08-02T10:13:24.000Z</time>
      </trkpt>
      <trkpt lat="43.76939" lon="7.12125">
        <ele>773.79998779297</ele>
        <time>2023-08-02T10:13:25.000Z</time>
      </trkpt>
      <trkpt lat="43.76938" lon="7.12125">
        <ele>773.79998779297</ele>
        <time>2023-08-02T10:13:26.000Z</time>
      </trkpt>
      <trkpt lat="43.76938" lon="7.12126">
        <ele>773.79998779297</ele>
        <time>2023-08-02T10:13:27.000Z</time>
      </trkpt>
      <trkpt lat="43.76937" lon="7.12127">
        <ele>773.79998779297</ele>
        <time>2023-08-02T10:13:28.000Z</time>
      </trkpt>
      <trkpt lat="43.76937" lon="7.12128">
        <ele>773.59997558594</ele>
        <time>2023-08-02T10:13:29.000Z</time>
      </trkpt>
      <trkpt lat="43.76936" lon="7.12129">
        <ele>773.59997558594</ele>
        <time>2023-08-02T10:13:30.000Z</time>
      </trkpt>
      <trkpt lat="43.76936" lon="7.1213">
        <ele>773.40002441406</ele>
        <time>2023-08-02T10:13:31.000Z</time>
      </trkpt>
      <trkpt lat="43.76936" lon="7.12131">
        <ele>773.40002441406</ele>
        <time>2023-08-02T10:13:32.000Z</time>
      </trkpt>
      <trkpt lat="43.76936" lon="7.12131">
        <ele>773.20001220703</ele>
        <time>2023-08-02T10:13:33.000Z</time>
      </trkpt>
      <trkpt lat="43.76936" lon="7.12132">
        <ele>773.20001220703</ele>
        <time>2023-08-02T10:13:34.000Z</time>
      </trkpt>
      <trkpt lat="43.76935" lon="7.12133">
        <ele>773</ele>
        <time>2023-08-02T10:13:35.000Z</time>
      </trkpt>
      <trkpt lat="43.76936" lon="7.12133">
        <ele>773</ele>
        <time>2023-08-02T10:13:36.000Z</time>
      </trkpt>
      <trkpt lat="43.76935" lon="7.12134">
        <ele>772.79998779297</ele>
        <time>2023-08-02T10:13:37.000Z</time>
      </trkpt>
      <trkpt lat="43.76935" lon="7.12134">
        <ele>772.79998779297</ele>
        <time>2023-08-02T10:13:38.000Z</time>
      </trkpt>
      <trkpt lat="43.76935" lon="7.12134">
        <ele>772.79998779297</ele>
        <time>2023-08-02T10:13:39.000Z</time>
      </trkpt>
      <trkpt lat="43.76935" lon="7.12135">
        <ele>772.59997558594</ele>
        <time>2023-08-02T10:13:40.000Z</time>
      </trkpt>
      <trkpt lat="43.76934" lon="7.12135">
        <ele>772.59997558594</ele>
        <time>2023-08-02T10:13:41.000Z</time>
      </trkpt>
      <trkpt lat="43.76934" lon="7.12135">
        <ele>772.59997558594</ele>
        <time>2023-08-02T10:13:42.000Z</time>
      </trkpt>
      <trkpt lat="43.76933" lon="7.12136">
        <ele>772.40002441406</ele>
        <time>2023-08-02T10:13:43.000Z</time>
      </trkpt>
      <trkpt lat="43.76933" lon="7.12137">
        <ele>772.20001220703</ele>
        <time>2023-08-02T10:13:44.000Z</time>
      </trkpt>
      <trkpt lat="43.76933" lon="7.12137">
        <ele>772</ele>
        <time>2023-08-02T10:13:45.000Z</time>
      </trkpt>
      <trkpt lat="43.76933" lon="7.12138">
        <ele>772</ele>
        <time>2023-08-02T10:13:46.000Z</time>
      </trkpt>
      <trkpt lat="43.76934" lon="7.12138">
        <ele>771.79998779297</ele>
        <time>2023-08-02T10:13:47.000Z</time>
      </trkpt>
      <trkpt lat="43.76934" lon="7.12138">
        <ele>771.59997558594</ele>
        <time>2023-08-02T10:13:48.000Z</time>
      </trkpt>
      <trkpt lat="43.76934" lon="7.12139">
        <ele>771.40002441406</ele>
        <time>2023-08-02T10:13:49.000Z</time>
      </trkpt>
      <trkpt lat="43.76934" lon="7.1214">
        <ele>771.20001220703</ele>
        <time>2023-08-02T10:13:50.000Z</time>
      </trkpt>
      <trkpt lat="43.76934" lon="7.1214">
        <ele>771</ele>
        <time>2023-08-02T10:13:51.000Z</time>
      </trkpt>
      <trkpt lat="43.76934" lon="7.12141">
        <ele>771</ele>
        <time>2023-08-02T10:13:52.000Z</time>
      </trkpt>
      <trkpt lat="43.76934" lon="7.12141">
        <ele>771</ele>
        <time>2023-08-02T10:13:53.000Z</time>
      </trkpt>
      <trkpt lat="43.76934" lon="7.12141">
        <ele>770.79998779297</ele>
        <time>2023-08-02T10:13:54.000Z</time>
      </trkpt>
      <trkpt lat="43.76934" lon="7.12141">
        <ele>770.79998779297</ele>
        <time>2023-08-02T10:13:55.000Z</time>
      </trkpt>
      <trkpt lat="43.76934" lon="7.12141">
        <ele>770.59997558594</ele>
        <time>2023-08-02T10:13:56.000Z</time>
      </trkpt>
      <trkpt lat="43.76934" lon="7.12141">
        <ele>770.59997558594</ele>
        <time>2023-08-02T10:13:57.000Z</time>
      </trkpt>
      <trkpt lat="43.76934" lon="7.12141">
        <ele>770.59997558594</ele>
        <time>2023-08-02T10:13:58.000Z</time>
      </trkpt>
      <trkpt lat="43.76934" lon="7.12141">
        <ele>770.40002441406</ele>
        <time>2023-08-02T10:13:59.000Z</time>
      </trkpt>
      <trkpt lat="43.76934" lon="7.12141">
        <ele>770.40002441406</ele>
        <time>2023-08-02T10:14:00.000Z</time>
      </trkpt>
      <trkpt lat="43.76934" lon="7.12141">
        <ele>770.40002441406</ele>
        <time>2023-08-02T10:14:01.000Z</time>
      </trkpt>
      <trkpt lat="43.76934" lon="7.12141">
        <ele>770.59997558594</ele>
        <time>2023-08-02T10:14:02.000Z</time>
      </trkpt>
      <trkpt lat="43.76934" lon="7.12141">
        <ele>770.40002441406</ele>
        <time>2023-08-02T10:14:03.000Z</time>
      </trkpt>
      <trkpt lat="43.76934" lon="7.12141">
        <ele>770.40002441406</ele>
        <time>2023-08-02T10:14:04.000Z</time>
      </trkpt>
      <trkpt lat="43.76934" lon="7.1214">
        <ele>770.40002441406</ele>
        <time>2023-08-02T10:14:05.000Z</time>
      </trkpt>
      <trkpt lat="43.76934" lon="7.1214">
        <ele>770.40002441406</ele>
        <time>2023-08-02T10:14:06.000Z</time>
      </trkpt>
      <trkpt lat="43.76933" lon="7.12142">
        <ele>770.40002441406</ele>
        <time>2023-08-02T10:14:07.000Z</time>
      </trkpt>
      <trkpt lat="43.76933" lon="7.12142">
        <ele>770.40002441406</ele>
        <time>2023-08-02T10:14:08.000Z</time>
      </trkpt>
      <trkpt lat="43.76932" lon="7.12144">
        <ele>770.40002441406</ele>
        <time>2023-08-02T10:14:09.000Z</time>
      </trkpt>
      <trkpt lat="43.76931" lon="7.12145">
        <ele>770.40002441406</ele>
        <time>2023-08-02T10:14:10.000Z</time>
      </trkpt>
      <trkpt lat="43.76931" lon="7.12145">
        <ele>770.20001220703</ele>
        <time>2023-08-02T10:14:11.000Z</time>
      </trkpt>
      <trkpt lat="43.76932" lon="7.12145">
        <ele>770.20001220703</ele>
        <time>2023-08-02T10:14:12.000Z</time>
      </trkpt>
      <trkpt lat="43.76932" lon="7.12146">
        <ele>770</ele>
        <time>2023-08-02T10:14:13.000Z</time>
      </trkpt>
      <trkpt lat="43.76932" lon="7.12145">
        <ele>769.79998779297</ele>
        <time>2023-08-02T10:14:14.000Z</time>
      </trkpt>
      <trkpt lat="43.76932" lon="7.12146">
        <ele>769.79998779297</ele>
        <time>2023-08-02T10:14:15.000Z</time>
      </trkpt>
      <trkpt lat="43.76931" lon="7.12148">
        <ele>769.59997558594</ele>
        <time>2023-08-02T10:14:16.000Z</time>
      </trkpt>
      <trkpt lat="43.76931" lon="7.12149">
        <ele>769.59997558594</ele>
        <time>2023-08-02T10:14:17.000Z</time>
      </trkpt>
      <trkpt lat="43.76931" lon="7.12151">
        <ele>769.59997558594</ele>
        <time>2023-08-02T10:14:18.000Z</time>
      </trkpt>
      <trkpt lat="43.7693" lon="7.12153">
        <ele>769.40002441406</ele>
        <time>2023-08-02T10:14:19.000Z</time>
      </trkpt>
      <trkpt lat="43.7693" lon="7.12155">
        <ele>769.40002441406</ele>
        <time>2023-08-02T10:14:20.000Z</time>
      </trkpt>
      <trkpt lat="43.76929" lon="7.12157">
        <ele>769.40002441406</ele>
        <time>2023-08-02T10:14:21.000Z</time>
      </trkpt>
      <trkpt lat="43.76929" lon="7.12159">
        <ele>769</ele>
        <time>2023-08-02T10:14:22.000Z</time>
      </trkpt>
      <trkpt lat="43.76928" lon="7.12162">
        <ele>768.79998779297</ele>
        <time>2023-08-02T10:14:23.000Z</time>
      </trkpt>
      <trkpt lat="43.76927" lon="7.12164">
        <ele>768.20001220703</ele>
        <time>2023-08-02T10:14:24.000Z</time>
      </trkpt>
      <trkpt lat="43.76926" lon="7.12166">
        <ele>767.79998779297</ele>
        <time>2023-08-02T10:14:25.000Z</time>
      </trkpt>
      <trkpt lat="43.76924" lon="7.12167">
        <ele>767.40002441406</ele>
        <time>2023-08-02T10:14:26.000Z</time>
      </trkpt>
      <trkpt lat="43.76922" lon="7.12167">
        <ele>767</ele>
        <time>2023-08-02T10:14:27.000Z</time>
      </trkpt>
      <trkpt lat="43.7692" lon="7.12167">
        <ele>766.79998779297</ele>
        <time>2023-08-02T10:14:28.000Z</time>
      </trkpt>
      <trkpt lat="43.76918" lon="7.12168">
        <ele>766.40002441406</ele>
        <time>2023-08-02T10:14:29.000Z</time>
      </trkpt>
      <trkpt lat="43.76915" lon="7.12169">
        <ele>766.20001220703</ele>
        <time>2023-08-02T10:14:30.000Z</time>
      </trkpt>
      <trkpt lat="43.76913" lon="7.12172">
        <ele>766</ele>
        <time>2023-08-02T10:14:31.000Z</time>
      </trkpt>
      <trkpt lat="43.7691" lon="7.12173">
        <ele>765.40002441406</ele>
        <time>2023-08-02T10:14:32.000Z</time>
      </trkpt>
      <trkpt lat="43.76909" lon="7.12174">
        <ele>765.20001220703</ele>
        <time>2023-08-02T10:14:33.000Z</time>
      </trkpt>
      <trkpt lat="43.76909" lon="7.12174">
        <ele>764.79998779297</ele>
        <time>2023-08-02T10:14:34.000Z</time>
      </trkpt>
      <trkpt lat="43.76909" lon="7.12174">
        <ele>764.59997558594</ele>
        <time>2023-08-02T10:14:35.000Z</time>
      </trkpt>
      <trkpt lat="43.76909" lon="7.12174">
        <ele>764.59997558594</ele>
        <time>2023-08-02T10:14:36.000Z</time>
      </trkpt>
      <trkpt lat="43.76909" lon="7.12175">
        <ele>764.59997558594</ele>
        <time>2023-08-02T10:14:37.000Z</time>
      </trkpt>
      <trkpt lat="43.76909" lon="7.12175">
        <ele>764.59997558594</ele>
        <time>2023-08-02T10:14:38.000Z</time>
      </trkpt>
      <trkpt lat="43.76909" lon="7.12175">
        <ele>764.59997558594</ele>
        <time>2023-08-02T10:14:39.000Z</time>
      </trkpt>
      <trkpt lat="43.76909" lon="7.12175">
        <ele>764.59997558594</ele>
        <time>2023-08-02T10:14:40.000Z</time>
      </trkpt>
      <trkpt lat="43.76909" lon="7.12175">
        <ele>764.59997558594</ele>
        <time>2023-08-02T10:14:41.000Z</time>
      </trkpt>
      <trkpt lat="43.76909" lon="7.12175">
        <ele>764.59997558594</ele>
        <time>2023-08-02T10:14:42.000Z</time>
      </trkpt>
      <trkpt lat="43.76909" lon="7.12175">
        <ele>764.59997558594</ele>
        <time>2023-08-02T10:14:43.000Z</time>
      </trkpt>
      <trkpt lat="43.76909" lon="7.12175">
        <ele>764.59997558594</ele>
        <time>2023-08-02T10:14:44.000Z</time>
      </trkpt>
      <trkpt lat="43.76909" lon="7.12175">
        <ele>764.59997558594</ele>
        <time>2023-08-02T10:14:45.000Z</time>
      </trkpt>
      <trkpt lat="43.76909" lon="7.12175">
        <ele>764.59997558594</ele>
        <time>2023-08-02T10:14:46.000Z</time>
      </trkpt>
      <trkpt lat="43.76909" lon="7.12175">
        <ele>764.59997558594</ele>
        <time>2023-08-02T10:14:47.000Z</time>
      </trkpt>
      <trkpt lat="43.76909" lon="7.12175">
        <ele>764.59997558594</ele>
        <time>2023-08-02T10:14:48.000Z</time>
      </trkpt>
      <trkpt lat="43.76909" lon="7.12175">
        <ele>764.59997558594</ele>
        <time>2023-08-02T10:14:49.000Z</time>
      </trkpt>
      <trkpt lat="43.76909" lon="7.12175">
        <ele>764.59997558594</ele>
        <time>2023-08-02T10:14:50.000Z</time>
      </trkpt>
      <trkpt lat="43.76908" lon="7.12174">
        <ele>764.59997558594</ele>
        <time>2023-08-02T10:14:51.000Z</time>
      </trkpt>
      <trkpt lat="43.76907" lon="7.12173">
        <ele>764.59997558594</ele>
        <time>2023-08-02T10:14:52.000Z</time>
      </trkpt>
      <trkpt lat="43.76905" lon="7.12172">
        <ele>764.59997558594</ele>
        <time>2023-08-02T10:14:53.000Z</time>
      </trkpt>
      <trkpt lat="43.76902" lon="7.12173">
        <ele>764.59997558594</ele>
        <time>2023-08-02T10:14:54.000Z</time>
      </trkpt>
      <trkpt lat="43.76899" lon="7.12173">
        <ele>764.59997558594</ele>
        <time>2023-08-02T10:14:55.000Z</time>
      </trkpt>
      <trkpt lat="43.76895" lon="7.12176">
        <ele>764.20001220703</ele>
        <time>2023-08-02T10:14:56.000Z</time>
      </trkpt>
      <trkpt lat="43.76892" lon="7.12179">
        <ele>763.79998779297</ele>
        <time>2023-08-02T10:14:57.000Z</time>
      </trkpt>
      <trkpt lat="43.76889" lon="7.1218">
        <ele>763.79998779297</ele>
        <time>2023-08-02T10:14:58.000Z</time>
      </trkpt>
      <trkpt lat="43.76885" lon="7.1218">
        <ele>763</ele>
        <time>2023-08-02T10:14:59.000Z</time>
      </trkpt>
      <trkpt lat="43.76882" lon="7.12181">
        <ele>762.79998779297</ele>
        <time>2023-08-02T10:15:00.000Z</time>
      </trkpt>
      <trkpt lat="43.76879" lon="7.12183">
        <ele>762.79998779297</ele>
        <time>2023-08-02T10:15:01.000Z</time>
      </trkpt>
      <trkpt lat="43.76877" lon="7.12184">
        <ele>762.20001220703</ele>
        <time>2023-08-02T10:15:02.000Z</time>
      </trkpt>
      <trkpt lat="43.76874" lon="7.12184">
        <ele>762</ele>
        <time>2023-08-02T10:15:03.000Z</time>
      </trkpt>
      <trkpt lat="43.7687" lon="7.12186">
        <ele>761.79998779297</ele>
        <time>2023-08-02T10:15:04.000Z</time>
      </trkpt>
      <trkpt lat="43.76867" lon="7.12186">
        <ele>761.40002441406</ele>
        <time>2023-08-02T10:15:05.000Z</time>
      </trkpt>
      <trkpt lat="43.76865" lon="7.12185">
        <ele>761.20001220703</ele>
        <time>2023-08-02T10:15:06.000Z</time>
      </trkpt>
      <trkpt lat="43.76862" lon="7.12184">
        <ele>761.20001220703</ele>
        <time>2023-08-02T10:15:07.000Z</time>
      </trkpt>
      <trkpt lat="43.7686" lon="7.12183">
        <ele>760.59997558594</ele>
        <time>2023-08-02T10:15:08.000Z</time>
      </trkpt>
      <trkpt lat="43.76857" lon="7.12183">
        <ele>760.40002441406</ele>
        <time>2023-08-02T10:15:09.000Z</time>
      </trkpt>
      <trkpt lat="43.76853" lon="7.12183">
        <ele>760.40002441406</ele>
        <time>2023-08-02T10:15:10.000Z</time>
      </trkpt>
      <trkpt lat="43.7685" lon="7.12181">
        <ele>760</ele>
        <time>2023-08-02T10:15:11.000Z</time>
      </trkpt>
      <trkpt lat="43.76847" lon="7.1218">
        <ele>759.20001220703</ele>
        <time>2023-08-02T10:15:12.000Z</time>
      </trkpt>
      <trkpt lat="43.76844" lon="7.12178">
        <ele>759</ele>
        <time>2023-08-02T10:15:13.000Z</time>
      </trkpt>
      <trkpt lat="43.7684" lon="7.12177">
        <ele>759</ele>
        <time>2023-08-02T10:15:14.000Z</time>
      </trkpt>
      <trkpt lat="43.76836" lon="7.12177">
        <ele>758.79998779297</ele>
        <time>2023-08-02T10:15:15.000Z</time>
      </trkpt>
      <trkpt lat="43.76832" lon="7.12177">
        <ele>758.20001220703</ele>
        <time>2023-08-02T10:15:16.000Z</time>
      </trkpt>
      <trkpt lat="43.76829" lon="7.12178">
        <ele>757.59997558594</ele>
        <time>2023-08-02T10:15:17.000Z</time>
      </trkpt>
      <trkpt lat="43.76826" lon="7.12179">
        <ele>757.20001220703</ele>
        <time>2023-08-02T10:15:18.000Z</time>
      </trkpt>
      <trkpt lat="43.76823" lon="7.12179">
        <ele>757</ele>
        <time>2023-08-02T10:15:19.000Z</time>
      </trkpt>
      <trkpt lat="43.76821" lon="7.12178">
        <ele>756.79998779297</ele>
        <time>2023-08-02T10:15:20.000Z</time>
      </trkpt>
      <trkpt lat="43.76818" lon="7.12178">
        <ele>756.59997558594</ele>
        <time>2023-08-02T10:15:21.000Z</time>
      </trkpt>
      <trkpt lat="43.76815" lon="7.12179">
        <ele>756.20001220703</ele>
        <time>2023-08-02T10:15:22.000Z</time>
      </trkpt>
      <trkpt lat="43.76814" lon="7.1218">
        <ele>755.40002441406</ele>
        <time>2023-08-02T10:15:23.000Z</time>
      </trkpt>
      <trkpt lat="43.76813" lon="7.12182">
        <ele>755</ele>
        <time>2023-08-02T10:15:24.000Z</time>
      </trkpt>
      <trkpt lat="43.76812" lon="7.12184">
        <ele>754.79998779297</ele>
        <time>2023-08-02T10:15:25.000Z</time>
      </trkpt>
      <trkpt lat="43.76811" lon="7.12186">
        <ele>754.20001220703</ele>
        <time>2023-08-02T10:15:26.000Z</time>
      </trkpt>
      <trkpt lat="43.76809" lon="7.12188">
        <ele>754</ele>
        <time>2023-08-02T10:15:27.000Z</time>
      </trkpt>
      <trkpt lat="43.76807" lon="7.12189">
        <ele>753.79998779297</ele>
        <time>2023-08-02T10:15:28.000Z</time>
      </trkpt>
      <trkpt lat="43.76805" lon="7.12191">
        <ele>753.59997558594</ele>
        <time>2023-08-02T10:15:29.000Z</time>
      </trkpt>
      <trkpt lat="43.76802" lon="7.12194">
        <ele>753.59997558594</ele>
        <time>2023-08-02T10:15:30.000Z</time>
      </trkpt>
      <trkpt lat="43.76798" lon="7.12196">
        <ele>753.40002441406</ele>
        <time>2023-08-02T10:15:31.000Z</time>
      </trkpt>
      <trkpt lat="43.76795" lon="7.12197">
        <ele>753.20001220703</ele>
        <time>2023-08-02T10:15:32.000Z</time>
      </trkpt>
      <trkpt lat="43.76792" lon="7.12199">
        <ele>752.59997558594</ele>
        <time>2023-08-02T10:15:33.000Z</time>
      </trkpt>
      <trkpt lat="43.76789" lon="7.122">
        <ele>752.20001220703</ele>
        <time>2023-08-02T10:15:34.000Z</time>
      </trkpt>
      <trkpt lat="43.76785" lon="7.12201">
        <ele>752</ele>
        <time>2023-08-02T10:15:35.000Z</time>
      </trkpt>
      <trkpt lat="43.76781" lon="7.12202">
        <ele>751.79998779297</ele>
        <time>2023-08-02T10:15:36.000Z</time>
      </trkpt>
      <trkpt lat="43.76777" lon="7.12204">
        <ele>751.59997558594</ele>
        <time>2023-08-02T10:15:37.000Z</time>
      </trkpt>
      <trkpt lat="43.76774" lon="7.12206">
        <ele>751.40002441406</ele>
        <time>2023-08-02T10:15:38.000Z</time>
      </trkpt>
      <trkpt lat="43.76769" lon="7.12209">
        <ele>751</ele>
        <time>2023-08-02T10:15:39.000Z</time>
      </trkpt>
      <trkpt lat="43.76765" lon="7.12212">
        <ele>750.79998779297</ele>
        <time>2023-08-02T10:15:40.000Z</time>
      </trkpt>
      <trkpt lat="43.7676" lon="7.12214">
        <ele>750.79998779297</ele>
        <time>2023-08-02T10:15:41.000Z</time>
      </trkpt>
      <trkpt lat="43.76756" lon="7.12216">
        <ele>750.40002441406</ele>
        <time>2023-08-02T10:15:42.000Z</time>
      </trkpt>
      <trkpt lat="43.76753" lon="7.12219">
        <ele>750.20001220703</ele>
        <time>2023-08-02T10:15:43.000Z</time>
      </trkpt>
      <trkpt lat="43.76749" lon="7.12222">
        <ele>750</ele>
        <time>2023-08-02T10:15:44.000Z</time>
      </trkpt>
      <trkpt lat="43.76746" lon="7.12225">
        <ele>749.59997558594</ele>
        <time>2023-08-02T10:15:45.000Z</time>
      </trkpt>
      <trkpt lat="43.76743" lon="7.1223">
        <ele>749.40002441406</ele>
        <time>2023-08-02T10:15:46.000Z</time>
      </trkpt>
      <trkpt lat="43.76739" lon="7.12234">
        <ele>749</ele>
        <time>2023-08-02T10:15:47.000Z</time>
      </trkpt>
      <trkpt lat="43.76736" lon="7.12239">
        <ele>749</ele>
        <time>2023-08-02T10:15:48.000Z</time>
      </trkpt>
      <trkpt lat="43.76734" lon="7.12244">
        <ele>748.40002441406</ele>
        <time>2023-08-02T10:15:49.000Z</time>
      </trkpt>
      <trkpt lat="43.76731" lon="7.12247">
        <ele>747.79998779297</ele>
        <time>2023-08-02T10:15:50.000Z</time>
      </trkpt>
      <trkpt lat="43.76729" lon="7.12248">
        <ele>747.20001220703</ele>
        <time>2023-08-02T10:15:51.000Z</time>
      </trkpt>
      <trkpt lat="43.76727" lon="7.12247">
        <ele>747.20001220703</ele>
        <time>2023-08-02T10:15:52.000Z</time>
      </trkpt>
      <trkpt lat="43.76724" lon="7.12245">
        <ele>747.20001220703</ele>
        <time>2023-08-02T10:15:53.000Z</time>
      </trkpt>
      <trkpt lat="43.76722" lon="7.12243">
        <ele>747</ele>
        <time>2023-08-02T10:15:54.000Z</time>
      </trkpt>
      <trkpt lat="43.76721" lon="7.12243">
        <ele>746.79998779297</ele>
        <time>2023-08-02T10:15:55.000Z</time>
      </trkpt>
      <trkpt lat="43.76721" lon="7.12243">
        <ele>746.59997558594</ele>
        <time>2023-08-02T10:15:56.000Z</time>
      </trkpt>
      <trkpt lat="43.76721" lon="7.12243">
        <ele>746.20001220703</ele>
        <time>2023-08-02T10:15:57.000Z</time>
      </trkpt>
      <trkpt lat="43.76721" lon="7.12243">
        <ele>746.20001220703</ele>
        <time>2023-08-02T10:15:58.000Z</time>
      </trkpt>
      <trkpt lat="43.76721" lon="7.12243">
        <ele>746</ele>
        <time>2023-08-02T10:15:59.000Z</time>
      </trkpt>
      <trkpt lat="43.76721" lon="7.12243">
        <ele>746</ele>
        <time>2023-08-02T10:16:00.000Z</time>
      </trkpt>
      <trkpt lat="43.76721" lon="7.12243">
        <ele>746</ele>
        <time>2023-08-02T10:16:01.000Z</time>
      </trkpt>
      <trkpt lat="43.76721" lon="7.12243">
        <ele>746</ele>
        <time>2023-08-02T10:16:02.000Z</time>
      </trkpt>
      <trkpt lat="43.76721" lon="7.12243">
        <ele>746</ele>
        <time>2023-08-02T10:16:03.000Z</time>
      </trkpt>
      <trkpt lat="43.76721" lon="7.12243">
        <ele>745.79998779297</ele>
        <time>2023-08-02T10:16:04.000Z</time>
      </trkpt>
      <trkpt lat="43.76721" lon="7.12243">
        <ele>745.79998779297</ele>
        <time>2023-08-02T10:16:05.000Z</time>
      </trkpt>
      <trkpt lat="43.76721" lon="7.12243">
        <ele>745.79998779297</ele>
        <time>2023-08-02T10:16:06.000Z</time>
      </trkpt>
      <trkpt lat="43.76721" lon="7.12243">
        <ele>745.79998779297</ele>
        <time>2023-08-02T10:16:07.000Z</time>
      </trkpt>
      <trkpt lat="43.76721" lon="7.12243">
        <ele>745.79998779297</ele>
        <time>2023-08-02T10:16:08.000Z</time>
      </trkpt>
      <trkpt lat="43.76721" lon="7.12243">
        <ele>745.79998779297</ele>
        <time>2023-08-02T10:16:09.000Z</time>
      </trkpt>
      <trkpt lat="43.76721" lon="7.12243">
        <ele>745.79998779297</ele>
        <time>2023-08-02T10:16:10.000Z</time>
      </trkpt>
      <trkpt lat="43.76721" lon="7.12243">
        <ele>745.79998779297</ele>
        <time>2023-08-02T10:16:11.000Z</time>
      </trkpt>
      <trkpt lat="43.76721" lon="7.12243">
        <ele>745.79998779297</ele>
        <time>2023-08-02T10:16:12.000Z</time>
      </trkpt>
      <trkpt lat="43.76721" lon="7.12243">
        <ele>745.79998779297</ele>
        <time>2023-08-02T10:16:13.000Z</time>
      </trkpt>
      <trkpt lat="43.76721" lon="7.12243">
        <ele>745.79998779297</ele>
        <time>2023-08-02T10:16:14.000Z</time>
      </trkpt>
      <trkpt lat="43.76721" lon="7.12243">
        <ele>745.79998779297</ele>
        <time>2023-08-02T10:16:15.000Z</time>
      </trkpt>
      <trkpt lat="43.76721" lon="7.12243">
        <ele>745.79998779297</ele>
        <time>2023-08-02T10:16:16.000Z</time>
      </trkpt>
      <trkpt lat="43.76721" lon="7.12243">
        <ele>745.79998779297</ele>
        <time>2023-08-02T10:16:17.000Z</time>
      </trkpt>
      <trkpt lat="43.76721" lon="7.12243">
        <ele>745.79998779297</ele>
        <time>2023-08-02T10:16:18.000Z</time>
      </trkpt>
      <trkpt lat="43.76721" lon="7.12243">
        <ele>745.79998779297</ele>
        <time>2023-08-02T10:16:19.000Z</time>
      </trkpt>
      <trkpt lat="43.76721" lon="7.12243">
        <ele>745.79998779297</ele>
        <time>2023-08-02T10:16:20.000Z</time>
      </trkpt>
      <trkpt lat="43.76721" lon="7.12243">
        <ele>745.79998779297</ele>
        <time>2023-08-02T10:16:21.000Z</time>
      </trkpt>
      <trkpt lat="43.76721" lon="7.12243">
        <ele>745.79998779297</ele>
        <time>2023-08-02T10:16:22.000Z</time>
      </trkpt>
      <trkpt lat="43.76721" lon="7.12243">
        <ele>745.79998779297</ele>
        <time>2023-08-02T10:16:23.000Z</time>
      </trkpt>
      <trkpt lat="43.76721" lon="7.12243">
        <ele>745.79998779297</ele>
        <time>2023-08-02T10:16:24.000Z</time>
      </trkpt>
      <trkpt lat="43.76721" lon="7.12243">
        <ele>745.79998779297</ele>
        <time>2023-08-02T10:16:25.000Z</time>
      </trkpt>
      <trkpt lat="43.76721" lon="7.12243">
        <ele>745.79998779297</ele>
        <time>2023-08-02T10:16:26.000Z</time>
      </trkpt>
      <trkpt lat="43.76721" lon="7.12243">
        <ele>745.59997558594</ele>
        <time>2023-08-02T10:16:27.000Z</time>
      </trkpt>
      <trkpt lat="43.76721" lon="7.12243">
        <ele>745.79998779297</ele>
        <time>2023-08-02T10:16:28.000Z</time>
      </trkpt>
      <trkpt lat="43.76721" lon="7.12243">
        <ele>745.79998779297</ele>
        <time>2023-08-02T10:16:29.000Z</time>
      </trkpt>
      <trkpt lat="43.76721" lon="7.12243">
        <ele>745.79998779297</ele>
        <time>2023-08-02T10:16:30.000Z</time>
      </trkpt>
      <trkpt lat="43.76721" lon="7.12243">
        <ele>745.79998779297</ele>
        <time>2023-08-02T10:16:31.000Z</time>
      </trkpt>
      <trkpt lat="43.76721" lon="7.12243">
        <ele>745.79998779297</ele>
        <time>2023-08-02T10:16:32.000Z</time>
      </trkpt>
      <trkpt lat="43.76721" lon="7.12243">
        <ele>745.79998779297</ele>
        <time>2023-08-02T10:16:33.000Z</time>
      </trkpt>
      <trkpt lat="43.76721" lon="7.12243">
        <ele>745.79998779297</ele>
        <time>2023-08-02T10:16:34.000Z</time>
      </trkpt>
      <trkpt lat="43.76721" lon="7.12243">
        <ele>745.59997558594</ele>
        <time>2023-08-02T10:16:35.000Z</time>
      </trkpt>
      <trkpt lat="43.76721" lon="7.12243">
        <ele>745.59997558594</ele>
        <time>2023-08-02T10:16:36.000Z</time>
      </trkpt>
      <trkpt lat="43.76721" lon="7.12243">
        <ele>745.79998779297</ele>
        <time>2023-08-02T10:16:37.000Z</time>
      </trkpt>
      <trkpt lat="43.76721" lon="7.12243">
        <ele>745.79998779297</ele>
        <time>2023-08-02T10:16:38.000Z</time>
      </trkpt>
      <trkpt lat="43.76721" lon="7.12243">
        <ele>745.79998779297</ele>
        <time>2023-08-02T10:16:39.000Z</time>
      </trkpt>
      <trkpt lat="43.76721" lon="7.12243">
        <ele>745.79998779297</ele>
        <time>2023-08-02T10:16:40.000Z</time>
      </trkpt>
      <trkpt lat="43.76721" lon="7.12243">
        <ele>745.79998779297</ele>
        <time>2023-08-02T10:16:41.000Z</time>
      </trkpt>
      <trkpt lat="43.76721" lon="7.12243">
        <ele>745.79998779297</ele>
        <time>2023-08-02T10:16:42.000Z</time>
      </trkpt>
      <trkpt lat="43.76721" lon="7.12243">
        <ele>745.79998779297</ele>
        <time>2023-08-02T10:16:43.000Z</time>
      </trkpt>
      <trkpt lat="43.76721" lon="7.12243">
        <ele>745.79998779297</ele>
        <time>2023-08-02T10:16:44.000Z</time>
      </trkpt>
      <trkpt lat="43.76721" lon="7.12243">
        <ele>745.79998779297</ele>
        <time>2023-08-02T10:16:45.000Z</time>
      </trkpt>
      <trkpt lat="43.76721" lon="7.12243">
        <ele>745.79998779297</ele>
        <time>2023-08-02T10:16:46.000Z</time>
      </trkpt>
      <trkpt lat="43.76721" lon="7.12243">
        <ele>745.79998779297</ele>
        <time>2023-08-02T10:16:47.000Z</time>
      </trkpt>
      <trkpt lat="43.76721" lon="7.12243">
        <ele>745.79998779297</ele>
        <time>2023-08-02T10:16:48.000Z</time>
      </trkpt>
      <trkpt lat="43.76721" lon="7.12243">
        <ele>745.79998779297</ele>
        <time>2023-08-02T10:16:49.000Z</time>
      </trkpt>
      <trkpt lat="43.76721" lon="7.12243">
        <ele>745.79998779297</ele>
        <time>2023-08-02T10:16:50.000Z</time>
      </trkpt>
      <trkpt lat="43.76721" lon="7.12243">
        <ele>745.79998779297</ele>
        <time>2023-08-02T10:16:51.000Z</time>
      </trkpt>
      <trkpt lat="43.76721" lon="7.12243">
        <ele>745.79998779297</ele>
        <time>2023-08-02T10:16:52.000Z</time>
      </trkpt>
      <trkpt lat="43.76721" lon="7.12243">
        <ele>745.79998779297</ele>
        <time>2023-08-02T10:16:53.000Z</time>
      </trkpt>
      <trkpt lat="43.76721" lon="7.12243">
        <ele>745.79998779297</ele>
        <time>2023-08-02T10:16:54.000Z</time>
      </trkpt>
      <trkpt lat="43.76721" lon="7.12243">
        <ele>745.79998779297</ele>
        <time>2023-08-02T10:16:55.000Z</time>
      </trkpt>
      <trkpt lat="43.76721" lon="7.12243">
        <ele>745.79998779297</ele>
        <time>2023-08-02T10:16:56.000Z</time>
      </trkpt>
      <trkpt lat="43.76721" lon="7.12243">
        <ele>745.79998779297</ele>
        <time>2023-08-02T10:16:57.000Z</time>
      </trkpt>
      <trkpt lat="43.76721" lon="7.12243">
        <ele>745.79998779297</ele>
        <time>2023-08-02T10:16:58.000Z</time>
      </trkpt>
      <trkpt lat="43.76721" lon="7.12243">
        <ele>745.79998779297</ele>
        <time>2023-08-02T10:16:59.000Z</time>
      </trkpt>
      <trkpt lat="43.76721" lon="7.12243">
        <ele>745.79998779297</ele>
        <time>2023-08-02T10:17:00.000Z</time>
      </trkpt>
      <trkpt lat="43.76721" lon="7.12243">
        <ele>745.79998779297</ele>
        <time>2023-08-02T10:17:01.000Z</time>
      </trkpt>
      <trkpt lat="43.76721" lon="7.12243">
        <ele>745.79998779297</ele>
        <time>2023-08-02T10:17:02.000Z</time>
      </trkpt>
      <trkpt lat="43.76721" lon="7.12243">
        <ele>745.79998779297</ele>
        <time>2023-08-02T10:17:03.000Z</time>
      </trkpt>
      <trkpt lat="43.76721" lon="7.12243">
        <ele>745.79998779297</ele>
        <time>2023-08-02T10:17:04.000Z</time>
      </trkpt>
      <trkpt lat="43.76721" lon="7.12243">
        <ele>745.79998779297</ele>
        <time>2023-08-02T10:17:05.000Z</time>
      </trkpt>
      <trkpt lat="43.76721" lon="7.12243">
        <ele>745.79998779297</ele>
        <time>2023-08-02T10:17:06.000Z</time>
      </trkpt>
      <trkpt lat="43.76721" lon="7.12243">
        <ele>745.79998779297</ele>
        <time>2023-08-02T10:17:07.000Z</time>
      </trkpt>
      <trkpt lat="43.76721" lon="7.12243">
        <ele>745.79998779297</ele>
        <time>2023-08-02T10:17:08.000Z</time>
      </trkpt>
      <trkpt lat="43.76721" lon="7.12243">
        <ele>745.79998779297</ele>
        <time>2023-08-02T10:17:09.000Z</time>
      </trkpt>
      <trkpt lat="43.76721" lon="7.12243">
        <ele>745.79998779297</ele>
        <time>2023-08-02T10:17:10.000Z</time>
      </trkpt>
      <trkpt lat="43.76721" lon="7.12243">
        <ele>745.79998779297</ele>
        <time>2023-08-02T10:17:11.000Z</time>
      </trkpt>
      <trkpt lat="43.76721" lon="7.12243">
        <ele>745.79998779297</ele>
        <time>2023-08-02T10:17:12.000Z</time>
      </trkpt>
      <trkpt lat="43.76721" lon="7.12243">
        <ele>745.79998779297</ele>
        <time>2023-08-02T10:17:13.000Z</time>
      </trkpt>
      <trkpt lat="43.76721" lon="7.12243">
        <ele>745.79998779297</ele>
        <time>2023-08-02T10:17:14.000Z</time>
      </trkpt>
      <trkpt lat="43.76721" lon="7.12243">
        <ele>745.79998779297</ele>
        <time>2023-08-02T10:17:15.000Z</time>
      </trkpt>
      <trkpt lat="43.76721" lon="7.12243">
        <ele>745.79998779297</ele>
        <time>2023-08-02T10:17:16.000Z</time>
      </trkpt>
      <trkpt lat="43.76721" lon="7.12243">
        <ele>745.79998779297</ele>
        <time>2023-08-02T10:17:17.000Z</time>
      </trkpt>
      <trkpt lat="43.76721" lon="7.12243">
        <ele>745.79998779297</ele>
        <time>2023-08-02T10:17:18.000Z</time>
      </trkpt>
      <trkpt lat="43.76721" lon="7.12243">
        <ele>745.79998779297</ele>
        <time>2023-08-02T10:17:19.000Z</time>
      </trkpt>
      <trkpt lat="43.76721" lon="7.12243">
        <ele>745.79998779297</ele>
        <time>2023-08-02T10:17:20.000Z</time>
      </trkpt>
      <trkpt lat="43.76721" lon="7.12243">
        <ele>745.79998779297</ele>
        <time>2023-08-02T10:17:21.000Z</time>
      </trkpt>
      <trkpt lat="43.76721" lon="7.12243">
        <ele>745.79998779297</ele>
        <time>2023-08-02T10:17:22.000Z</time>
      </trkpt>
      <trkpt lat="43.76721" lon="7.12243">
        <ele>745.79998779297</ele>
        <time>2023-08-02T10:17:23.000Z</time>
      </trkpt>
      <trkpt lat="43.76721" lon="7.12243">
        <ele>745.79998779297</ele>
        <time>2023-08-02T10:17:24.000Z</time>
      </trkpt>
      <trkpt lat="43.76721" lon="7.12243">
        <ele>745.79998779297</ele>
        <time>2023-08-02T10:17:25.000Z</time>
      </trkpt>
      <trkpt lat="43.76721" lon="7.12243">
        <ele>745.79998779297</ele>
        <time>2023-08-02T10:17:26.000Z</time>
      </trkpt>
      <trkpt lat="43.76721" lon="7.12243">
        <ele>745.79998779297</ele>
        <time>2023-08-02T10:17:27.000Z</time>
      </trkpt>
      <trkpt lat="43.76721" lon="7.12243">
        <ele>745.79998779297</ele>
        <time>2023-08-02T10:17:28.000Z</time>
      </trkpt>
      <trkpt lat="43.76721" lon="7.12243">
        <ele>745.79998779297</ele>
        <time>2023-08-02T10:17:29.000Z</time>
      </trkpt>
      <trkpt lat="43.76721" lon="7.12243">
        <ele>745.79998779297</ele>
        <time>2023-08-02T10:17:30.000Z</time>
      </trkpt>
      <trkpt lat="43.76721" lon="7.12243">
        <ele>745.79998779297</ele>
        <time>2023-08-02T10:17:31.000Z</time>
      </trkpt>
      <trkpt lat="43.76721" lon="7.12243">
        <ele>745.79998779297</ele>
        <time>2023-08-02T10:17:32.000Z</time>
      </trkpt>
      <trkpt lat="43.76721" lon="7.12243">
        <ele>745.79998779297</ele>
        <time>2023-08-02T10:17:33.000Z</time>
      </trkpt>
      <trkpt lat="43.76721" lon="7.12243">
        <ele>745.79998779297</ele>
        <time>2023-08-02T10:17:34.000Z</time>
      </trkpt>
      <trkpt lat="43.76721" lon="7.12243">
        <ele>745.79998779297</ele>
        <time>2023-08-02T10:17:35.000Z</time>
      </trkpt>
      <trkpt lat="43.76721" lon="7.12243">
        <ele>745.79998779297</ele>
        <time>2023-08-02T10:17:36.000Z</time>
      </trkpt>
      <trkpt lat="43.76721" lon="7.12243">
        <ele>745.79998779297</ele>
        <time>2023-08-02T10:17:37.000Z</time>
      </trkpt>
      <trkpt lat="43.76721" lon="7.12243">
        <ele>745.79998779297</ele>
        <time>2023-08-02T10:17:38.000Z</time>
      </trkpt>
      <trkpt lat="43.76721" lon="7.12243">
        <ele>745.79998779297</ele>
        <time>2023-08-02T10:17:39.000Z</time>
      </trkpt>
      <trkpt lat="43.76721" lon="7.12243">
        <ele>745.79998779297</ele>
        <time>2023-08-02T10:17:40.000Z</time>
      </trkpt>
      <trkpt lat="43.76721" lon="7.12243">
        <ele>745.79998779297</ele>
        <time>2023-08-02T10:17:41.000Z</time>
      </trkpt>
      <trkpt lat="43.76721" lon="7.12243">
        <ele>745.79998779297</ele>
        <time>2023-08-02T10:17:42.000Z</time>
      </trkpt>
      <trkpt lat="43.76721" lon="7.12243">
        <ele>745.79998779297</ele>
        <time>2023-08-02T10:17:43.000Z</time>
      </trkpt>
      <trkpt lat="43.76721" lon="7.12243">
        <ele>745.79998779297</ele>
        <time>2023-08-02T10:17:44.000Z</time>
      </trkpt>
      <trkpt lat="43.76721" lon="7.12243">
        <ele>745.79998779297</ele>
        <time>2023-08-02T10:17:45.000Z</time>
      </trkpt>
      <trkpt lat="43.76721" lon="7.12243">
        <ele>745.79998779297</ele>
        <time>2023-08-02T10:17:46.000Z</time>
      </trkpt>
      <trkpt lat="43.76721" lon="7.12243">
        <ele>745.79998779297</ele>
        <time>2023-08-02T10:17:47.000Z</time>
      </trkpt>
      <trkpt lat="43.76721" lon="7.12243">
        <ele>745.79998779297</ele>
        <time>2023-08-02T10:17:48.000Z</time>
      </trkpt>
      <trkpt lat="43.76721" lon="7.12243">
        <ele>745.79998779297</ele>
        <time>2023-08-02T10:17:49.000Z</time>
      </trkpt>
      <trkpt lat="43.76721" lon="7.12243">
        <ele>745.79998779297</ele>
        <time>2023-08-02T10:17:50.000Z</time>
      </trkpt>
      <trkpt lat="43.76721" lon="7.12243">
        <ele>745.79998779297</ele>
        <time>2023-08-02T10:17:51.000Z</time>
      </trkpt>
      <trkpt lat="43.76721" lon="7.12243">
        <ele>745.79998779297</ele>
        <time>2023-08-02T10:17:52.000Z</time>
      </trkpt>
      <trkpt lat="43.76721" lon="7.12243">
        <ele>745.79998779297</ele>
        <time>2023-08-02T10:17:53.000Z</time>
      </trkpt>
      <trkpt lat="43.76721" lon="7.12243">
        <ele>745.79998779297</ele>
        <time>2023-08-02T10:17:54.000Z</time>
      </trkpt>
      <trkpt lat="43.76721" lon="7.12243">
        <ele>745.79998779297</ele>
        <time>2023-08-02T10:17:55.000Z</time>
      </trkpt>
      <trkpt lat="43.76721" lon="7.12244">
        <ele>745.79998779297</ele>
        <time>2023-08-02T10:17:56.000Z</time>
      </trkpt>
      <trkpt lat="43.76721" lon="7.12244">
        <ele>745.79998779297</ele>
        <time>2023-08-02T10:17:57.000Z</time>
      </trkpt>
      <trkpt lat="43.76721" lon="7.12244">
        <ele>745.79998779297</ele>
        <time>2023-08-02T10:17:58.000Z</time>
      </trkpt>
      <trkpt lat="43.7672" lon="7.12244">
        <ele>745.79998779297</ele>
        <time>2023-08-02T10:17:59.000Z</time>
      </trkpt>
      <trkpt lat="43.76718" lon="7.12245">
        <ele>745.79998779297</ele>
        <time>2023-08-02T10:18:00.000Z</time>
      </trkpt>
      <trkpt lat="43.76717" lon="7.12246">
        <ele>745.79998779297</ele>
        <time>2023-08-02T10:18:01.000Z</time>
      </trkpt>
      <trkpt lat="43.76716" lon="7.12246">
        <ele>745.79998779297</ele>
        <time>2023-08-02T10:18:02.000Z</time>
      </trkpt>
      <trkpt lat="43.76715" lon="7.12246">
        <ele>745.79998779297</ele>
        <time>2023-08-02T10:18:03.000Z</time>
      </trkpt>
      <trkpt lat="43.76714" lon="7.12246">
        <ele>745.79998779297</ele>
        <time>2023-08-02T10:18:04.000Z</time>
      </trkpt>
      <trkpt lat="43.76712" lon="7.12246">
        <ele>745.79998779297</ele>
        <time>2023-08-02T10:18:05.000Z</time>
      </trkpt>
      <trkpt lat="43.7671" lon="7.12245">
        <ele>745.79998779297</ele>
        <time>2023-08-02T10:18:06.000Z</time>
      </trkpt>
      <trkpt lat="43.76707" lon="7.12243">
        <ele>745.79998779297</ele>
        <time>2023-08-02T10:18:07.000Z</time>
      </trkpt>
      <trkpt lat="43.76704" lon="7.1224">
        <ele>745.79998779297</ele>
        <time>2023-08-02T10:18:08.000Z</time>
      </trkpt>
      <trkpt lat="43.767" lon="7.12238">
        <ele>745.20001220703</ele>
        <time>2023-08-02T10:18:09.000Z</time>
      </trkpt>
      <trkpt lat="43.76696" lon="7.12235">
        <ele>745.20001220703</ele>
        <time>2023-08-02T10:18:10.000Z</time>
      </trkpt>
      <trkpt lat="43.76692" lon="7.12233">
        <ele>745</ele>
        <time>2023-08-02T10:18:11.000Z</time>
      </trkpt>
      <trkpt lat="43.76687" lon="7.12231">
        <ele>744.59997558594</ele>
        <time>2023-08-02T10:18:12.000Z</time>
      </trkpt>
      <trkpt lat="43.76684" lon="7.12228">
        <ele>744.40002441406</ele>
        <time>2023-08-02T10:18:13.000Z</time>
      </trkpt>
      <trkpt lat="43.76681" lon="7.12223">
        <ele>744.20001220703</ele>
        <time>2023-08-02T10:18:14.000Z</time>
      </trkpt>
      <trkpt lat="43.76678" lon="7.1222">
        <ele>743.40002441406</ele>
        <time>2023-08-02T10:18:15.000Z</time>
      </trkpt>
      <trkpt lat="43.76675" lon="7.1222">
        <ele>743.20001220703</ele>
        <time>2023-08-02T10:18:16.000Z</time>
      </trkpt>
      <trkpt lat="43.76672" lon="7.12221">
        <ele>743</ele>
        <time>2023-08-02T10:18:17.000Z</time>
      </trkpt>
      <trkpt lat="43.76669" lon="7.12222">
        <ele>742.79998779297</ele>
        <time>2023-08-02T10:18:18.000Z</time>
      </trkpt>
      <trkpt lat="43.76666" lon="7.12221">
        <ele>742.79998779297</ele>
        <time>2023-08-02T10:18:19.000Z</time>
      </trkpt>
      <trkpt lat="43.76663" lon="7.12221">
        <ele>742.79998779297</ele>
        <time>2023-08-02T10:18:20.000Z</time>
      </trkpt>
      <trkpt lat="43.7666" lon="7.12221">
        <ele>742.59997558594</ele>
        <time>2023-08-02T10:18:21.000Z</time>
      </trkpt>
      <trkpt lat="43.76657" lon="7.12222">
        <ele>742.59997558594</ele>
        <time>2023-08-02T10:18:22.000Z</time>
      </trkpt>
      <trkpt lat="43.76655" lon="7.12222">
        <ele>742.59997558594</ele>
        <time>2023-08-02T10:18:23.000Z</time>
      </trkpt>
      <trkpt lat="43.76652" lon="7.12222">
        <ele>742.59997558594</ele>
        <time>2023-08-02T10:18:24.000Z</time>
      </trkpt>
      <trkpt lat="43.7665" lon="7.12222">
        <ele>742.59997558594</ele>
        <time>2023-08-02T10:18:25.000Z</time>
      </trkpt>
      <trkpt lat="43.76649" lon="7.12221">
        <ele>742.59997558594</ele>
        <time>2023-08-02T10:18:26.000Z</time>
      </trkpt>
      <trkpt lat="43.76647" lon="7.12221">
        <ele>742.40002441406</ele>
        <time>2023-08-02T10:18:27.000Z</time>
      </trkpt>
      <trkpt lat="43.76645" lon="7.1222">
        <ele>742.40002441406</ele>
        <time>2023-08-02T10:18:28.000Z</time>
      </trkpt>
      <trkpt lat="43.76643" lon="7.12219">
        <ele>742.40002441406</ele>
        <time>2023-08-02T10:18:29.000Z</time>
      </trkpt>
      <trkpt lat="43.76641" lon="7.12219">
        <ele>742</ele>
        <time>2023-08-02T10:18:30.000Z</time>
      </trkpt>
      <trkpt lat="43.76639" lon="7.12219">
        <ele>741.20001220703</ele>
        <time>2023-08-02T10:18:31.000Z</time>
      </trkpt>
      <trkpt lat="43.76638" lon="7.12217">
        <ele>740.79998779297</ele>
        <time>2023-08-02T10:18:32.000Z</time>
      </trkpt>
      <trkpt lat="43.76635" lon="7.12217">
        <ele>740.79998779297</ele>
        <time>2023-08-02T10:18:33.000Z</time>
      </trkpt>
      <trkpt lat="43.76633" lon="7.12216">
        <ele>740.40002441406</ele>
        <time>2023-08-02T10:18:34.000Z</time>
      </trkpt>
      <trkpt lat="43.7663" lon="7.12216">
        <ele>740</ele>
        <time>2023-08-02T10:18:35.000Z</time>
      </trkpt>
      <trkpt lat="43.76628" lon="7.12217">
        <ele>739.59997558594</ele>
        <time>2023-08-02T10:18:36.000Z</time>
      </trkpt>
      <trkpt lat="43.76626" lon="7.12217">
        <ele>739</ele>
        <time>2023-08-02T10:18:37.000Z</time>
      </trkpt>
      <trkpt lat="43.76623" lon="7.12216">
        <ele>739</ele>
        <time>2023-08-02T10:18:38.000Z</time>
      </trkpt>
      <trkpt lat="43.7662" lon="7.12215">
        <ele>738.79998779297</ele>
        <time>2023-08-02T10:18:39.000Z</time>
      </trkpt>
      <trkpt lat="43.76617" lon="7.12215">
        <ele>738</ele>
        <time>2023-08-02T10:18:40.000Z</time>
      </trkpt>
      <trkpt lat="43.76614" lon="7.12216">
        <ele>737.79998779297</ele>
        <time>2023-08-02T10:18:41.000Z</time>
      </trkpt>
      <trkpt lat="43.7661" lon="7.12215">
        <ele>737.40002441406</ele>
        <time>2023-08-02T10:18:42.000Z</time>
      </trkpt>
      <trkpt lat="43.76608" lon="7.12214">
        <ele>737</ele>
        <time>2023-08-02T10:18:43.000Z</time>
      </trkpt>
      <trkpt lat="43.76605" lon="7.12213">
        <ele>736.40002441406</ele>
        <time>2023-08-02T10:18:44.000Z</time>
      </trkpt>
      <trkpt lat="43.76602" lon="7.12213">
        <ele>736</ele>
        <time>2023-08-02T10:18:45.000Z</time>
      </trkpt>
      <trkpt lat="43.76599" lon="7.12212">
        <ele>735.20001220703</ele>
        <time>2023-08-02T10:18:46.000Z</time>
      </trkpt>
      <trkpt lat="43.76596" lon="7.12211">
        <ele>735</ele>
        <time>2023-08-02T10:18:47.000Z</time>
      </trkpt>
      <trkpt lat="43.76594" lon="7.12209">
        <ele>734.79998779297</ele>
        <time>2023-08-02T10:18:48.000Z</time>
      </trkpt>
      <trkpt lat="43.76591" lon="7.12207">
        <ele>734.59997558594</ele>
        <time>2023-08-02T10:18:49.000Z</time>
      </trkpt>
      <trkpt lat="43.76589" lon="7.12207">
        <ele>734.20001220703</ele>
        <time>2023-08-02T10:18:50.000Z</time>
      </trkpt>
      <trkpt lat="43.76588" lon="7.12206">
        <ele>734.20001220703</ele>
        <time>2023-08-02T10:18:51.000Z</time>
      </trkpt>
      <trkpt lat="43.76587" lon="7.12206">
        <ele>733.79998779297</ele>
        <time>2023-08-02T10:18:52.000Z</time>
      </trkpt>
      <trkpt lat="43.76587" lon="7.12206">
        <ele>733.40002441406</ele>
        <time>2023-08-02T10:18:53.000Z</time>
      </trkpt>
      <trkpt lat="43.76587" lon="7.12206">
        <ele>733.40002441406</ele>
        <time>2023-08-02T10:18:54.000Z</time>
      </trkpt>
      <trkpt lat="43.76587" lon="7.12206">
        <ele>733.20001220703</ele>
        <time>2023-08-02T10:18:55.000Z</time>
      </trkpt>
      <trkpt lat="43.76587" lon="7.12206">
        <ele>733.20001220703</ele>
        <time>2023-08-02T10:18:56.000Z</time>
      </trkpt>
      <trkpt lat="43.76587" lon="7.12206">
        <ele>733.20001220703</ele>
        <time>2023-08-02T10:18:57.000Z</time>
      </trkpt>
      <trkpt lat="43.76587" lon="7.12206">
        <ele>733.20001220703</ele>
        <time>2023-08-02T10:18:58.000Z</time>
      </trkpt>
      <trkpt lat="43.76587" lon="7.12206">
        <ele>733.20001220703</ele>
        <time>2023-08-02T10:18:59.000Z</time>
      </trkpt>
      <trkpt lat="43.76586" lon="7.12206">
        <ele>733.20001220703</ele>
        <time>2023-08-02T10:19:00.000Z</time>
      </trkpt>
      <trkpt lat="43.76586" lon="7.12206">
        <ele>733.20001220703</ele>
        <time>2023-08-02T10:19:01.000Z</time>
      </trkpt>
      <trkpt lat="43.76583" lon="7.12204">
        <ele>733.20001220703</ele>
        <time>2023-08-02T10:19:02.000Z</time>
      </trkpt>
      <trkpt lat="43.76581" lon="7.12204">
        <ele>733.20001220703</ele>
        <time>2023-08-02T10:19:03.000Z</time>
      </trkpt>
      <trkpt lat="43.7658" lon="7.12205">
        <ele>733.20001220703</ele>
        <time>2023-08-02T10:19:04.000Z</time>
      </trkpt>
      <trkpt lat="43.76579" lon="7.12206">
        <ele>733.20001220703</ele>
        <time>2023-08-02T10:19:05.000Z</time>
      </trkpt>
      <trkpt lat="43.76577" lon="7.12207">
        <ele>733.20001220703</ele>
        <time>2023-08-02T10:19:06.000Z</time>
      </trkpt>
      <trkpt lat="43.76575" lon="7.12207">
        <ele>733.20001220703</ele>
        <time>2023-08-02T10:19:07.000Z</time>
      </trkpt>
      <trkpt lat="43.76572" lon="7.12208">
        <ele>733.20001220703</ele>
        <time>2023-08-02T10:19:08.000Z</time>
      </trkpt>
      <trkpt lat="43.76569" lon="7.12208">
        <ele>733.20001220703</ele>
        <time>2023-08-02T10:19:09.000Z</time>
      </trkpt>
      <trkpt lat="43.76567" lon="7.12208">
        <ele>733</ele>
        <time>2023-08-02T10:19:10.000Z</time>
      </trkpt>
      <trkpt lat="43.76565" lon="7.12207">
        <ele>732.79998779297</ele>
        <time>2023-08-02T10:19:11.000Z</time>
      </trkpt>
      <trkpt lat="43.76561" lon="7.12206">
        <ele>732.59997558594</ele>
        <time>2023-08-02T10:19:12.000Z</time>
      </trkpt>
      <trkpt lat="43.76558" lon="7.12204">
        <ele>732</ele>
        <time>2023-08-02T10:19:13.000Z</time>
      </trkpt>
      <trkpt lat="43.76556" lon="7.12205">
        <ele>732</ele>
        <time>2023-08-02T10:19:14.000Z</time>
      </trkpt>
      <trkpt lat="43.76553" lon="7.12206">
        <ele>731.40002441406</ele>
        <time>2023-08-02T10:19:15.000Z</time>
      </trkpt>
      <trkpt lat="43.76551" lon="7.12207">
        <ele>731.20001220703</ele>
        <time>2023-08-02T10:19:16.000Z</time>
      </trkpt>
      <trkpt lat="43.76547" lon="7.12207">
        <ele>731.20001220703</ele>
        <time>2023-08-02T10:19:17.000Z</time>
      </trkpt>
      <trkpt lat="43.76543" lon="7.12207">
        <ele>731</ele>
        <time>2023-08-02T10:19:18.000Z</time>
      </trkpt>
      <trkpt lat="43.76539" lon="7.12207">
        <ele>731</ele>
        <time>2023-08-02T10:19:19.000Z</time>
      </trkpt>
      <trkpt lat="43.76535" lon="7.12207">
        <ele>730.59997558594</ele>
        <time>2023-08-02T10:19:20.000Z</time>
      </trkpt>
      <trkpt lat="43.76532" lon="7.12208">
        <ele>730.59997558594</ele>
        <time>2023-08-02T10:19:21.000Z</time>
      </trkpt>
      <trkpt lat="43.76529" lon="7.12209">
        <ele>730.40002441406</ele>
        <time>2023-08-02T10:19:22.000Z</time>
      </trkpt>
      <trkpt lat="43.76526" lon="7.12211">
        <ele>730.20001220703</ele>
        <time>2023-08-02T10:19:23.000Z</time>
      </trkpt>
      <trkpt lat="43.76523" lon="7.12212">
        <ele>730</ele>
        <time>2023-08-02T10:19:24.000Z</time>
      </trkpt>
      <trkpt lat="43.7652" lon="7.12212">
        <ele>730</ele>
        <time>2023-08-02T10:19:25.000Z</time>
      </trkpt>
      <trkpt lat="43.76517" lon="7.12214">
        <ele>729.79998779297</ele>
        <time>2023-08-02T10:19:26.000Z</time>
      </trkpt>
      <trkpt lat="43.76514" lon="7.12215">
        <ele>729.40002441406</ele>
        <time>2023-08-02T10:19:27.000Z</time>
      </trkpt>
      <trkpt lat="43.7651" lon="7.12215">
        <ele>729.20001220703</ele>
        <time>2023-08-02T10:19:28.000Z</time>
      </trkpt>
      <trkpt lat="43.76507" lon="7.12216">
        <ele>729</ele>
        <time>2023-08-02T10:19:29.000Z</time>
      </trkpt>
      <trkpt lat="43.76503" lon="7.12218">
        <ele>728.40002441406</ele>
        <time>2023-08-02T10:19:30.000Z</time>
      </trkpt>
      <trkpt lat="43.765" lon="7.1222">
        <ele>728.40002441406</ele>
        <time>2023-08-02T10:19:31.000Z</time>
      </trkpt>
      <trkpt lat="43.76497" lon="7.12222">
        <ele>727.59997558594</ele>
        <time>2023-08-02T10:19:32.000Z</time>
      </trkpt>
      <trkpt lat="43.76494" lon="7.12224">
        <ele>727.20001220703</ele>
        <time>2023-08-02T10:19:33.000Z</time>
      </trkpt>
      <trkpt lat="43.76491" lon="7.12225">
        <ele>726.59997558594</ele>
        <time>2023-08-02T10:19:34.000Z</time>
      </trkpt>
      <trkpt lat="43.76488" lon="7.12227">
        <ele>726.59997558594</ele>
        <time>2023-08-02T10:19:35.000Z</time>
      </trkpt>
      <trkpt lat="43.76484" lon="7.12229">
        <ele>725.79998779297</ele>
        <time>2023-08-02T10:19:36.000Z</time>
      </trkpt>
      <trkpt lat="43.7648" lon="7.12231">
        <ele>725.40002441406</ele>
        <time>2023-08-02T10:19:37.000Z</time>
      </trkpt>
      <trkpt lat="43.76476" lon="7.12233">
        <ele>725.20001220703</ele>
        <time>2023-08-02T10:19:38.000Z</time>
      </trkpt>
      <trkpt lat="43.76472" lon="7.12236">
        <ele>725</ele>
        <time>2023-08-02T10:19:39.000Z</time>
      </trkpt>
      <trkpt lat="43.76468" lon="7.12239">
        <ele>724.79998779297</ele>
        <time>2023-08-02T10:19:40.000Z</time>
      </trkpt>
      <trkpt lat="43.76466" lon="7.12242">
        <ele>724.79998779297</ele>
        <time>2023-08-02T10:19:41.000Z</time>
      </trkpt>
      <trkpt lat="43.76463" lon="7.12246">
        <ele>724.20001220703</ele>
        <time>2023-08-02T10:19:42.000Z</time>
      </trkpt>
      <trkpt lat="43.7646" lon="7.12249">
        <ele>724.20001220703</ele>
        <time>2023-08-02T10:19:43.000Z</time>
      </trkpt>
      <trkpt lat="43.76458" lon="7.12252">
        <ele>724.20001220703</ele>
        <time>2023-08-02T10:19:44.000Z</time>
      </trkpt>
      <trkpt lat="43.76456" lon="7.12254">
        <ele>724</ele>
        <time>2023-08-02T10:19:45.000Z</time>
      </trkpt>
      <trkpt lat="43.76454" lon="7.12255">
        <ele>723.59997558594</ele>
        <time>2023-08-02T10:19:46.000Z</time>
      </trkpt>
      <trkpt lat="43.76451" lon="7.12257">
        <ele>723.40002441406</ele>
        <time>2023-08-02T10:19:47.000Z</time>
      </trkpt>
      <trkpt lat="43.76449" lon="7.12258">
        <ele>723.40002441406</ele>
        <time>2023-08-02T10:19:48.000Z</time>
      </trkpt>
      <trkpt lat="43.76448" lon="7.12261">
        <ele>723.40002441406</ele>
        <time>2023-08-02T10:19:49.000Z</time>
      </trkpt>
      <trkpt lat="43.76447" lon="7.12264">
        <ele>723.59997558594</ele>
        <time>2023-08-02T10:19:50.000Z</time>
      </trkpt>
      <trkpt lat="43.76446" lon="7.12266">
        <ele>723.59997558594</ele>
        <time>2023-08-02T10:19:51.000Z</time>
      </trkpt>
      <trkpt lat="43.76446" lon="7.12268">
        <ele>723.59997558594</ele>
        <time>2023-08-02T10:19:52.000Z</time>
      </trkpt>
      <trkpt lat="43.76445" lon="7.12269">
        <ele>723.59997558594</ele>
        <time>2023-08-02T10:19:53.000Z</time>
      </trkpt>
      <trkpt lat="43.76445" lon="7.1227">
        <ele>724.20001220703</ele>
        <time>2023-08-02T10:19:54.000Z</time>
      </trkpt>
      <trkpt lat="43.76444" lon="7.1227">
        <ele>724.40002441406</ele>
        <time>2023-08-02T10:19:55.000Z</time>
      </trkpt>
      <trkpt lat="43.76444" lon="7.12271">
        <ele>724.79998779297</ele>
        <time>2023-08-02T10:19:56.000Z</time>
      </trkpt>
      <trkpt lat="43.76444" lon="7.12271">
        <ele>725.20001220703</ele>
        <time>2023-08-02T10:19:57.000Z</time>
      </trkpt>
      <trkpt lat="43.76444" lon="7.12271">
        <ele>725.40002441406</ele>
        <time>2023-08-02T10:19:58.000Z</time>
      </trkpt>
      <trkpt lat="43.76444" lon="7.12271">
        <ele>725.40002441406</ele>
        <time>2023-08-02T10:19:59.000Z</time>
      </trkpt>
      <trkpt lat="43.76445" lon="7.12272">
        <ele>725.40002441406</ele>
        <time>2023-08-02T10:20:00.000Z</time>
      </trkpt>
      <trkpt lat="43.76445" lon="7.12272">
        <ele>725.40002441406</ele>
        <time>2023-08-02T10:20:01.000Z</time>
      </trkpt>
      <trkpt lat="43.76445" lon="7.12273">
        <ele>725.40002441406</ele>
        <time>2023-08-02T10:20:02.000Z</time>
      </trkpt>
      <trkpt lat="43.76444" lon="7.12274">
        <ele>725.40002441406</ele>
        <time>2023-08-02T10:20:03.000Z</time>
      </trkpt>
      <trkpt lat="43.76444" lon="7.12274">
        <ele>725.40002441406</ele>
        <time>2023-08-02T10:20:04.000Z</time>
      </trkpt>
      <trkpt lat="43.76444" lon="7.12275">
        <ele>725.40002441406</ele>
        <time>2023-08-02T10:20:05.000Z</time>
      </trkpt>
      <trkpt lat="43.76444" lon="7.12275">
        <ele>725.40002441406</ele>
        <time>2023-08-02T10:20:06.000Z</time>
      </trkpt>
      <trkpt lat="43.76444" lon="7.12276">
        <ele>725.40002441406</ele>
        <time>2023-08-02T10:20:07.000Z</time>
      </trkpt>
      <trkpt lat="43.76443" lon="7.12276">
        <ele>725.59997558594</ele>
        <time>2023-08-02T10:20:08.000Z</time>
      </trkpt>
      <trkpt lat="43.76443" lon="7.12277">
        <ele>725.59997558594</ele>
        <time>2023-08-02T10:20:09.000Z</time>
      </trkpt>
      <trkpt lat="43.76443" lon="7.12277">
        <ele>725.79998779297</ele>
        <time>2023-08-02T10:20:10.000Z</time>
      </trkpt>
      <trkpt lat="43.76443" lon="7.12278">
        <ele>726</ele>
        <time>2023-08-02T10:20:11.000Z</time>
      </trkpt>
      <trkpt lat="43.76443" lon="7.12279">
        <ele>726</ele>
        <time>2023-08-02T10:20:12.000Z</time>
      </trkpt>
      <trkpt lat="43.76443" lon="7.12279">
        <ele>726.20001220703</ele>
        <time>2023-08-02T10:20:13.000Z</time>
      </trkpt>
      <trkpt lat="43.76443" lon="7.1228">
        <ele>726.40002441406</ele>
        <time>2023-08-02T10:20:14.000Z</time>
      </trkpt>
      <trkpt lat="43.76443" lon="7.12281">
        <ele>726.40002441406</ele>
        <time>2023-08-02T10:20:15.000Z</time>
      </trkpt>
      <trkpt lat="43.76444" lon="7.12282">
        <ele>726.59997558594</ele>
        <time>2023-08-02T10:20:16.000Z</time>
      </trkpt>
      <trkpt lat="43.76444" lon="7.12283">
        <ele>726.79998779297</ele>
        <time>2023-08-02T10:20:17.000Z</time>
      </trkpt>
      <trkpt lat="43.76445" lon="7.12284">
        <ele>726.79998779297</ele>
        <time>2023-08-02T10:20:18.000Z</time>
      </trkpt>
      <trkpt lat="43.76444" lon="7.12285">
        <ele>727</ele>
        <time>2023-08-02T10:20:19.000Z</time>
      </trkpt>
      <trkpt lat="43.76444" lon="7.12286">
        <ele>727.20001220703</ele>
        <time>2023-08-02T10:20:20.000Z</time>
      </trkpt>
      <trkpt lat="43.76445" lon="7.12286">
        <ele>727.59997558594</ele>
        <time>2023-08-02T10:20:21.000Z</time>
      </trkpt>
      <trkpt lat="43.76445" lon="7.12287">
        <ele>727.59997558594</ele>
        <time>2023-08-02T10:20:22.000Z</time>
      </trkpt>
      <trkpt lat="43.76446" lon="7.12288">
        <ele>727.79998779297</ele>
        <time>2023-08-02T10:20:23.000Z</time>
      </trkpt>
      <trkpt lat="43.76446" lon="7.12289">
        <ele>728</ele>
        <time>2023-08-02T10:20:24.000Z</time>
      </trkpt>
      <trkpt lat="43.76445" lon="7.12288">
        <ele>728.20001220703</ele>
        <time>2023-08-02T10:20:25.000Z</time>
      </trkpt>
      <trkpt lat="43.76445" lon="7.1229">
        <ele>728.20001220703</ele>
        <time>2023-08-02T10:20:26.000Z</time>
      </trkpt>
      <trkpt lat="43.76444" lon="7.12291">
        <ele>728.20001220703</ele>
        <time>2023-08-02T10:20:27.000Z</time>
      </trkpt>
      <trkpt lat="43.76444" lon="7.12291">
        <ele>728.40002441406</ele>
        <time>2023-08-02T10:20:28.000Z</time>
      </trkpt>
      <trkpt lat="43.76444" lon="7.12292">
        <ele>728.79998779297</ele>
        <time>2023-08-02T10:20:29.000Z</time>
      </trkpt>
      <trkpt lat="43.76443" lon="7.12293">
        <ele>729</ele>
        <time>2023-08-02T10:20:30.000Z</time>
      </trkpt>
      <trkpt lat="43.76442" lon="7.12294">
        <ele>729</ele>
        <time>2023-08-02T10:20:31.000Z</time>
      </trkpt>
      <trkpt lat="43.76442" lon="7.12296">
        <ele>729.20001220703</ele>
        <time>2023-08-02T10:20:32.000Z</time>
      </trkpt>
      <trkpt lat="43.76442" lon="7.12297">
        <ele>729.40002441406</ele>
        <time>2023-08-02T10:20:33.000Z</time>
      </trkpt>
      <trkpt lat="43.76441" lon="7.12297">
        <ele>729.40002441406</ele>
        <time>2023-08-02T10:20:34.000Z</time>
      </trkpt>
      <trkpt lat="43.76441" lon="7.12298">
        <ele>729.59997558594</ele>
        <time>2023-08-02T10:20:35.000Z</time>
      </trkpt>
      <trkpt lat="43.76441" lon="7.12299">
        <ele>729.59997558594</ele>
        <time>2023-08-02T10:20:36.000Z</time>
      </trkpt>
      <trkpt lat="43.76441" lon="7.12301">
        <ele>729.79998779297</ele>
        <time>2023-08-02T10:20:37.000Z</time>
      </trkpt>
      <trkpt lat="43.76441" lon="7.12302">
        <ele>730.20001220703</ele>
        <time>2023-08-02T10:20:38.000Z</time>
      </trkpt>
      <trkpt lat="43.76441" lon="7.12303">
        <ele>730.20001220703</ele>
        <time>2023-08-02T10:20:39.000Z</time>
      </trkpt>
      <trkpt lat="43.76441" lon="7.12304">
        <ele>730.40002441406</ele>
        <time>2023-08-02T10:20:40.000Z</time>
      </trkpt>
      <trkpt lat="43.76442" lon="7.12305">
        <ele>730.59997558594</ele>
        <time>2023-08-02T10:20:41.000Z</time>
      </trkpt>
      <trkpt lat="43.76442" lon="7.12305">
        <ele>730.59997558594</ele>
        <time>2023-08-02T10:20:42.000Z</time>
      </trkpt>
      <trkpt lat="43.76442" lon="7.12307">
        <ele>730.79998779297</ele>
        <time>2023-08-02T10:20:43.000Z</time>
      </trkpt>
      <trkpt lat="43.76442" lon="7.12308">
        <ele>731</ele>
        <time>2023-08-02T10:20:44.000Z</time>
      </trkpt>
      <trkpt lat="43.76442" lon="7.12309">
        <ele>731.20001220703</ele>
        <time>2023-08-02T10:20:45.000Z</time>
      </trkpt>
      <trkpt lat="43.76442" lon="7.1231">
        <ele>731.20001220703</ele>
        <time>2023-08-02T10:20:46.000Z</time>
      </trkpt>
      <trkpt lat="43.76443" lon="7.12311">
        <ele>731.40002441406</ele>
        <time>2023-08-02T10:20:47.000Z</time>
      </trkpt>
      <trkpt lat="43.76443" lon="7.12312">
        <ele>731.40002441406</ele>
        <time>2023-08-02T10:20:48.000Z</time>
      </trkpt>
      <trkpt lat="43.76443" lon="7.12313">
        <ele>731.40002441406</ele>
        <time>2023-08-02T10:20:49.000Z</time>
      </trkpt>
      <trkpt lat="43.76443" lon="7.12315">
        <ele>731.59997558594</ele>
        <time>2023-08-02T10:20:50.000Z</time>
      </trkpt>
      <trkpt lat="43.76443" lon="7.12315">
        <ele>731.79998779297</ele>
        <time>2023-08-02T10:20:51.000Z</time>
      </trkpt>
      <trkpt lat="43.76443" lon="7.12316">
        <ele>732.20001220703</ele>
        <time>2023-08-02T10:20:52.000Z</time>
      </trkpt>
      <trkpt lat="43.76442" lon="7.12318">
        <ele>732.40002441406</ele>
        <time>2023-08-02T10:20:53.000Z</time>
      </trkpt>
      <trkpt lat="43.76442" lon="7.12319">
        <ele>732.59997558594</ele>
        <time>2023-08-02T10:20:54.000Z</time>
      </trkpt>
      <trkpt lat="43.76441" lon="7.1232">
        <ele>732.79998779297</ele>
        <time>2023-08-02T10:20:55.000Z</time>
      </trkpt>
      <trkpt lat="43.76441" lon="7.12321">
        <ele>733</ele>
        <time>2023-08-02T10:20:56.000Z</time>
      </trkpt>
      <trkpt lat="43.76441" lon="7.12322">
        <ele>733</ele>
        <time>2023-08-02T10:20:57.000Z</time>
      </trkpt>
      <trkpt lat="43.76441" lon="7.12323">
        <ele>733</ele>
        <time>2023-08-02T10:20:58.000Z</time>
      </trkpt>
      <trkpt lat="43.76441" lon="7.12324">
        <ele>733</ele>
        <time>2023-08-02T10:20:59.000Z</time>
      </trkpt>
      <trkpt lat="43.76441" lon="7.12324">
        <ele>733</ele>
        <time>2023-08-02T10:21:00.000Z</time>
      </trkpt>
      <trkpt lat="43.76441" lon="7.12324">
        <ele>733</ele>
        <time>2023-08-02T10:21:01.000Z</time>
      </trkpt>
      <trkpt lat="43.76441" lon="7.12324">
        <ele>733</ele>
        <time>2023-08-02T10:21:02.000Z</time>
      </trkpt>
      <trkpt lat="43.76441" lon="7.12324">
        <ele>733</ele>
        <time>2023-08-02T10:21:03.000Z</time>
      </trkpt>
      <trkpt lat="43.76442" lon="7.12324">
        <ele>733</ele>
        <time>2023-08-02T10:21:04.000Z</time>
      </trkpt>
      <trkpt lat="43.76441" lon="7.12324">
        <ele>732.79998779297</ele>
        <time>2023-08-02T10:21:05.000Z</time>
      </trkpt>
      <trkpt lat="43.76441" lon="7.12324">
        <ele>732.79998779297</ele>
        <time>2023-08-02T10:21:06.000Z</time>
      </trkpt>
      <trkpt lat="43.76441" lon="7.12324">
        <ele>732.79998779297</ele>
        <time>2023-08-02T10:21:07.000Z</time>
      </trkpt>
      <trkpt lat="43.76441" lon="7.12324">
        <ele>732.59997558594</ele>
        <time>2023-08-02T10:21:08.000Z</time>
      </trkpt>
      <trkpt lat="43.76441" lon="7.12324">
        <ele>732.59997558594</ele>
        <time>2023-08-02T10:21:09.000Z</time>
      </trkpt>
      <trkpt lat="43.76441" lon="7.12324">
        <ele>732.59997558594</ele>
        <time>2023-08-02T10:21:10.000Z</time>
      </trkpt>
      <trkpt lat="43.76442" lon="7.12324">
        <ele>732.59997558594</ele>
        <time>2023-08-02T10:21:11.000Z</time>
      </trkpt>
      <trkpt lat="43.76441" lon="7.12324">
        <ele>732.59997558594</ele>
        <time>2023-08-02T10:21:12.000Z</time>
      </trkpt>
      <trkpt lat="43.76441" lon="7.12324">
        <ele>732.59997558594</ele>
        <time>2023-08-02T10:21:13.000Z</time>
      </trkpt>
      <trkpt lat="43.76441" lon="7.12324">
        <ele>732.59997558594</ele>
        <time>2023-08-02T10:21:14.000Z</time>
      </trkpt>
      <trkpt lat="43.76441" lon="7.12324">
        <ele>732.59997558594</ele>
        <time>2023-08-02T10:21:15.000Z</time>
      </trkpt>
      <trkpt lat="43.76441" lon="7.12324">
        <ele>732.59997558594</ele>
        <time>2023-08-02T10:21:16.000Z</time>
      </trkpt>
      <trkpt lat="43.76441" lon="7.12324">
        <ele>732.59997558594</ele>
        <time>2023-08-02T10:21:17.000Z</time>
      </trkpt>
      <trkpt lat="43.76441" lon="7.12324">
        <ele>732.59997558594</ele>
        <time>2023-08-02T10:21:18.000Z</time>
      </trkpt>
      <trkpt lat="43.76441" lon="7.12324">
        <ele>732.40002441406</ele>
        <time>2023-08-02T10:21:19.000Z</time>
      </trkpt>
      <trkpt lat="43.76441" lon="7.12324">
        <ele>732.40002441406</ele>
        <time>2023-08-02T10:21:20.000Z</time>
      </trkpt>
      <trkpt lat="43.76441" lon="7.12324">
        <ele>732.40002441406</ele>
        <time>2023-08-02T10:21:21.000Z</time>
      </trkpt>
      <trkpt lat="43.76441" lon="7.12324">
        <ele>732.40002441406</ele>
        <time>2023-08-02T10:21:22.000Z</time>
      </trkpt>
      <trkpt lat="43.76441" lon="7.12324">
        <ele>732.40002441406</ele>
        <time>2023-08-02T10:21:23.000Z</time>
      </trkpt>
      <trkpt lat="43.76441" lon="7.12324">
        <ele>732.40002441406</ele>
        <time>2023-08-02T10:21:24.000Z</time>
      </trkpt>
      <trkpt lat="43.76441" lon="7.12324">
        <ele>732.40002441406</ele>
        <time>2023-08-02T10:21:25.000Z</time>
      </trkpt>
      <trkpt lat="43.76441" lon="7.12324">
        <ele>732.40002441406</ele>
        <time>2023-08-02T10:21:26.000Z</time>
      </trkpt>
      <trkpt lat="43.76441" lon="7.12324">
        <ele>732.40002441406</ele>
        <time>2023-08-02T10:21:27.000Z</time>
      </trkpt>
      <trkpt lat="43.76441" lon="7.12324">
        <ele>732.40002441406</ele>
        <time>2023-08-02T10:21:28.000Z</time>
      </trkpt>
      <trkpt lat="43.76441" lon="7.12324">
        <ele>732.20001220703</ele>
        <time>2023-08-02T10:21:29.000Z</time>
      </trkpt>
      <trkpt lat="43.76441" lon="7.12324">
        <ele>732.20001220703</ele>
        <time>2023-08-02T10:21:30.000Z</time>
      </trkpt>
      <trkpt lat="43.76441" lon="7.12324">
        <ele>732.20001220703</ele>
        <time>2023-08-02T10:21:31.000Z</time>
      </trkpt>
      <trkpt lat="43.76441" lon="7.12324">
        <ele>732.20001220703</ele>
        <time>2023-08-02T10:21:32.000Z</time>
      </trkpt>
      <trkpt lat="43.76441" lon="7.12324">
        <ele>732.59997558594</ele>
        <time>2023-08-02T10:21:33.000Z</time>
      </trkpt>
      <trkpt lat="43.76441" lon="7.12324">
        <ele>732.59997558594</ele>
        <time>2023-08-02T10:21:34.000Z</time>
      </trkpt>
      <trkpt lat="43.76441" lon="7.12324">
        <ele>732.59997558594</ele>
        <time>2023-08-02T10:21:35.000Z</time>
      </trkpt>
      <trkpt lat="43.76441" lon="7.12324">
        <ele>732.59997558594</ele>
        <time>2023-08-02T10:21:36.000Z</time>
      </trkpt>
      <trkpt lat="43.76441" lon="7.12324">
        <ele>732.59997558594</ele>
        <time>2023-08-02T10:21:37.000Z</time>
      </trkpt>
      <trkpt lat="43.76441" lon="7.12324">
        <ele>732.40002441406</ele>
        <time>2023-08-02T10:21:38.000Z</time>
      </trkpt>
      <trkpt lat="43.76441" lon="7.12324">
        <ele>732.40002441406</ele>
        <time>2023-08-02T10:21:39.000Z</time>
      </trkpt>
      <trkpt lat="43.76441" lon="7.12324">
        <ele>732.40002441406</ele>
        <time>2023-08-02T10:21:40.000Z</time>
      </trkpt>
      <trkpt lat="43.76441" lon="7.12324">
        <ele>732.40002441406</ele>
        <time>2023-08-02T10:21:41.000Z</time>
      </trkpt>
      <trkpt lat="43.76441" lon="7.12324">
        <ele>732.40002441406</ele>
        <time>2023-08-02T10:21:42.000Z</time>
      </trkpt>
      <trkpt lat="43.76441" lon="7.12324">
        <ele>732.40002441406</ele>
        <time>2023-08-02T10:21:43.000Z</time>
      </trkpt>
      <trkpt lat="43.76441" lon="7.12324">
        <ele>732.40002441406</ele>
        <time>2023-08-02T10:21:44.000Z</time>
      </trkpt>
      <trkpt lat="43.76441" lon="7.12324">
        <ele>732.40002441406</ele>
        <time>2023-08-02T10:21:45.000Z</time>
      </trkpt>
      <trkpt lat="43.76441" lon="7.12324">
        <ele>732.40002441406</ele>
        <time>2023-08-02T10:21:46.000Z</time>
      </trkpt>
      <trkpt lat="43.76441" lon="7.12325">
        <ele>732.40002441406</ele>
        <time>2023-08-02T10:21:47.000Z</time>
      </trkpt>
      <trkpt lat="43.76441" lon="7.12325">
        <ele>732.40002441406</ele>
        <time>2023-08-02T10:21:48.000Z</time>
      </trkpt>
      <trkpt lat="43.76441" lon="7.12325">
        <ele>732.40002441406</ele>
        <time>2023-08-02T10:21:49.000Z</time>
      </trkpt>
      <trkpt lat="43.76441" lon="7.12325">
        <ele>732.40002441406</ele>
        <time>2023-08-02T10:21:50.000Z</time>
      </trkpt>
      <trkpt lat="43.76441" lon="7.12325">
        <ele>732.40002441406</ele>
        <time>2023-08-02T10:21:51.000Z</time>
      </trkpt>
      <trkpt lat="43.76441" lon="7.12325">
        <ele>732.40002441406</ele>
        <time>2023-08-02T10:21:52.000Z</time>
      </trkpt>
      <trkpt lat="43.76441" lon="7.12325">
        <ele>732.40002441406</ele>
        <time>2023-08-02T10:21:53.000Z</time>
      </trkpt>
      <trkpt lat="43.76441" lon="7.12325">
        <ele>732.40002441406</ele>
        <time>2023-08-02T10:21:54.000Z</time>
      </trkpt>
      <trkpt lat="43.76441" lon="7.12325">
        <ele>732.40002441406</ele>
        <time>2023-08-02T10:21:55.000Z</time>
      </trkpt>
      <trkpt lat="43.76441" lon="7.12325">
        <ele>732.40002441406</ele>
        <time>2023-08-02T10:21:56.000Z</time>
      </trkpt>
      <trkpt lat="43.76441" lon="7.12325">
        <ele>732.40002441406</ele>
        <time>2023-08-02T10:21:57.000Z</time>
      </trkpt>
      <trkpt lat="43.76439" lon="7.12326">
        <ele>732.40002441406</ele>
        <time>2023-08-02T10:21:58.000Z</time>
      </trkpt>
      <trkpt lat="43.76438" lon="7.12327">
        <ele>732.40002441406</ele>
        <time>2023-08-02T10:21:59.000Z</time>
      </trkpt>
      <trkpt lat="43.76436" lon="7.12328">
        <ele>732.40002441406</ele>
        <time>2023-08-02T10:22:00.000Z</time>
      </trkpt>
      <trkpt lat="43.76435" lon="7.1233">
        <ele>732.20001220703</ele>
        <time>2023-08-02T10:22:01.000Z</time>
      </trkpt>
      <trkpt lat="43.76434" lon="7.12331">
        <ele>732.40002441406</ele>
        <time>2023-08-02T10:22:02.000Z</time>
      </trkpt>
      <trkpt lat="43.76433" lon="7.12331">
        <ele>732.40002441406</ele>
        <time>2023-08-02T10:22:03.000Z</time>
      </trkpt>
      <trkpt lat="43.76432" lon="7.12332">
        <ele>732.40002441406</ele>
        <time>2023-08-02T10:22:04.000Z</time>
      </trkpt>
      <trkpt lat="43.7643" lon="7.12332">
        <ele>732.59997558594</ele>
        <time>2023-08-02T10:22:05.000Z</time>
      </trkpt>
      <trkpt lat="43.76429" lon="7.12333">
        <ele>732.59997558594</ele>
        <time>2023-08-02T10:22:06.000Z</time>
      </trkpt>
      <trkpt lat="43.76427" lon="7.12334">
        <ele>732.59997558594</ele>
        <time>2023-08-02T10:22:07.000Z</time>
      </trkpt>
      <trkpt lat="43.76425" lon="7.12335">
        <ele>732.79998779297</ele>
        <time>2023-08-02T10:22:08.000Z</time>
      </trkpt>
      <trkpt lat="43.76424" lon="7.12336">
        <ele>732.79998779297</ele>
        <time>2023-08-02T10:22:09.000Z</time>
      </trkpt>
      <trkpt lat="43.76421" lon="7.12336">
        <ele>732.79998779297</ele>
        <time>2023-08-02T10:22:10.000Z</time>
      </trkpt>
      <trkpt lat="43.76419" lon="7.12335">
        <ele>733</ele>
        <time>2023-08-02T10:22:11.000Z</time>
      </trkpt>
      <trkpt lat="43.76417" lon="7.12334">
        <ele>733</ele>
        <time>2023-08-02T10:22:12.000Z</time>
      </trkpt>
      <trkpt lat="43.76415" lon="7.12333">
        <ele>733</ele>
        <time>2023-08-02T10:22:13.000Z</time>
      </trkpt>
      <trkpt lat="43.76412" lon="7.12332">
        <ele>733</ele>
        <time>2023-08-02T10:22:14.000Z</time>
      </trkpt>
      <trkpt lat="43.76409" lon="7.12332">
        <ele>733</ele>
        <time>2023-08-02T10:22:15.000Z</time>
      </trkpt>
      <trkpt lat="43.76407" lon="7.12333">
        <ele>733</ele>
        <time>2023-08-02T10:22:16.000Z</time>
      </trkpt>
      <trkpt lat="43.76405" lon="7.12334">
        <ele>732.79998779297</ele>
        <time>2023-08-02T10:22:17.000Z</time>
      </trkpt>
      <trkpt lat="43.76402" lon="7.12335">
        <ele>732.59997558594</ele>
        <time>2023-08-02T10:22:18.000Z</time>
      </trkpt>
      <trkpt lat="43.76399" lon="7.12335">
        <ele>732.59997558594</ele>
        <time>2023-08-02T10:22:19.000Z</time>
      </trkpt>
      <trkpt lat="43.76396" lon="7.12336">
        <ele>732.59997558594</ele>
        <time>2023-08-02T10:22:20.000Z</time>
      </trkpt>
      <trkpt lat="43.76393" lon="7.12337">
        <ele>732.59997558594</ele>
        <time>2023-08-02T10:22:21.000Z</time>
      </trkpt>
      <trkpt lat="43.7639" lon="7.12337">
        <ele>732.40002441406</ele>
        <time>2023-08-02T10:22:22.000Z</time>
      </trkpt>
      <trkpt lat="43.76388" lon="7.12338">
        <ele>732.40002441406</ele>
        <time>2023-08-02T10:22:23.000Z</time>
      </trkpt>
      <trkpt lat="43.76386" lon="7.12338">
        <ele>731.79998779297</ele>
        <time>2023-08-02T10:22:24.000Z</time>
      </trkpt>
      <trkpt lat="43.76385" lon="7.12338">
        <ele>731.40002441406</ele>
        <time>2023-08-02T10:22:25.000Z</time>
      </trkpt>
      <trkpt lat="43.76382" lon="7.12338">
        <ele>731.40002441406</ele>
        <time>2023-08-02T10:22:26.000Z</time>
      </trkpt>
      <trkpt lat="43.76381" lon="7.12338">
        <ele>731.20001220703</ele>
        <time>2023-08-02T10:22:27.000Z</time>
      </trkpt>
      <trkpt lat="43.76379" lon="7.12338">
        <ele>731</ele>
        <time>2023-08-02T10:22:28.000Z</time>
      </trkpt>
      <trkpt lat="43.76377" lon="7.12339">
        <ele>730.59997558594</ele>
        <time>2023-08-02T10:22:29.000Z</time>
      </trkpt>
      <trkpt lat="43.76375" lon="7.12339">
        <ele>730.40002441406</ele>
        <time>2023-08-02T10:22:30.000Z</time>
      </trkpt>
      <trkpt lat="43.76372" lon="7.12338">
        <ele>730</ele>
        <time>2023-08-02T10:22:31.000Z</time>
      </trkpt>
      <trkpt lat="43.76369" lon="7.12336">
        <ele>729.79998779297</ele>
        <time>2023-08-02T10:22:32.000Z</time>
      </trkpt>
      <trkpt lat="43.76367" lon="7.12336">
        <ele>729.40002441406</ele>
        <time>2023-08-02T10:22:33.000Z</time>
      </trkpt>
      <trkpt lat="43.76365" lon="7.12336">
        <ele>728.59997558594</ele>
        <time>2023-08-02T10:22:34.000Z</time>
      </trkpt>
      <trkpt lat="43.76362" lon="7.12336">
        <ele>728.59997558594</ele>
        <time>2023-08-02T10:22:35.000Z</time>
      </trkpt>
      <trkpt lat="43.76359" lon="7.12335">
        <ele>728</ele>
        <time>2023-08-02T10:22:36.000Z</time>
      </trkpt>
      <trkpt lat="43.76357" lon="7.12334">
        <ele>727.59997558594</ele>
        <time>2023-08-02T10:22:37.000Z</time>
      </trkpt>
      <trkpt lat="43.76354" lon="7.12333">
        <ele>727.59997558594</ele>
        <time>2023-08-02T10:22:38.000Z</time>
      </trkpt>
      <trkpt lat="43.76352" lon="7.12333">
        <ele>727.20001220703</ele>
        <time>2023-08-02T10:22:39.000Z</time>
      </trkpt>
      <trkpt lat="43.7635" lon="7.12332">
        <ele>727</ele>
        <time>2023-08-02T10:22:40.000Z</time>
      </trkpt>
      <trkpt lat="43.76348" lon="7.12332">
        <ele>726.59997558594</ele>
        <time>2023-08-02T10:22:41.000Z</time>
      </trkpt>
      <trkpt lat="43.76346" lon="7.12331">
        <ele>726.40002441406</ele>
        <time>2023-08-02T10:22:42.000Z</time>
      </trkpt>
      <trkpt lat="43.76344" lon="7.12331">
        <ele>726.40002441406</ele>
        <time>2023-08-02T10:22:43.000Z</time>
      </trkpt>
      <trkpt lat="43.76342" lon="7.12331">
        <ele>726.20001220703</ele>
        <time>2023-08-02T10:22:44.000Z</time>
      </trkpt>
      <trkpt lat="43.7634" lon="7.12331">
        <ele>726</ele>
        <time>2023-08-02T10:22:45.000Z</time>
      </trkpt>
      <trkpt lat="43.76337" lon="7.1233">
        <ele>725.59997558594</ele>
        <time>2023-08-02T10:22:46.000Z</time>
      </trkpt>
      <trkpt lat="43.76335" lon="7.12328">
        <ele>725.40002441406</ele>
        <time>2023-08-02T10:22:47.000Z</time>
      </trkpt>
      <trkpt lat="43.76332" lon="7.12328">
        <ele>725</ele>
        <time>2023-08-02T10:22:48.000Z</time>
      </trkpt>
      <trkpt lat="43.7633" lon="7.12327">
        <ele>724.59997558594</ele>
        <time>2023-08-02T10:22:49.000Z</time>
      </trkpt>
      <trkpt lat="43.76328" lon="7.12326">
        <ele>724.40002441406</ele>
        <time>2023-08-02T10:22:50.000Z</time>
      </trkpt>
      <trkpt lat="43.76325" lon="7.12326">
        <ele>723.79998779297</ele>
        <time>2023-08-02T10:22:51.000Z</time>
      </trkpt>
      <trkpt lat="43.76323" lon="7.12325">
        <ele>723.59997558594</ele>
        <time>2023-08-02T10:22:52.000Z</time>
      </trkpt>
      <trkpt lat="43.76322" lon="7.12325">
        <ele>723.20001220703</ele>
        <time>2023-08-02T10:22:53.000Z</time>
      </trkpt>
      <trkpt lat="43.76321" lon="7.12325">
        <ele>722.79998779297</ele>
        <time>2023-08-02T10:22:54.000Z</time>
      </trkpt>
      <trkpt lat="43.76319" lon="7.12323">
        <ele>722.59997558594</ele>
        <time>2023-08-02T10:22:55.000Z</time>
      </trkpt>
      <trkpt lat="43.76317" lon="7.12322">
        <ele>722.40002441406</ele>
        <time>2023-08-02T10:22:56.000Z</time>
      </trkpt>
      <trkpt lat="43.76315" lon="7.12322">
        <ele>722</ele>
        <time>2023-08-02T10:22:57.000Z</time>
      </trkpt>
      <trkpt lat="43.76313" lon="7.12322">
        <ele>721.79998779297</ele>
        <time>2023-08-02T10:22:58.000Z</time>
      </trkpt>
      <trkpt lat="43.76312" lon="7.12321">
        <ele>721.40002441406</ele>
        <time>2023-08-02T10:22:59.000Z</time>
      </trkpt>
      <trkpt lat="43.7631" lon="7.12321">
        <ele>721</ele>
        <time>2023-08-02T10:23:00.000Z</time>
      </trkpt>
      <trkpt lat="43.76308" lon="7.12321">
        <ele>720.40002441406</ele>
        <time>2023-08-02T10:23:01.000Z</time>
      </trkpt>
      <trkpt lat="43.76306" lon="7.12321">
        <ele>720.20001220703</ele>
        <time>2023-08-02T10:23:02.000Z</time>
      </trkpt>
      <trkpt lat="43.76305" lon="7.12322">
        <ele>719.79998779297</ele>
        <time>2023-08-02T10:23:03.000Z</time>
      </trkpt>
      <trkpt lat="43.76304" lon="7.12323">
        <ele>719.40002441406</ele>
        <time>2023-08-02T10:23:04.000Z</time>
      </trkpt>
      <trkpt lat="43.76302" lon="7.12322">
        <ele>719</ele>
        <time>2023-08-02T10:23:05.000Z</time>
      </trkpt>
      <trkpt lat="43.763" lon="7.12322">
        <ele>719</ele>
        <time>2023-08-02T10:23:06.000Z</time>
      </trkpt>
      <trkpt lat="43.76297" lon="7.12322">
        <ele>718.79998779297</ele>
        <time>2023-08-02T10:23:07.000Z</time>
      </trkpt>
      <trkpt lat="43.76294" lon="7.12323">
        <ele>718.40002441406</ele>
        <time>2023-08-02T10:23:08.000Z</time>
      </trkpt>
      <trkpt lat="43.76292" lon="7.12323">
        <ele>717.79998779297</ele>
        <time>2023-08-02T10:23:09.000Z</time>
      </trkpt>
      <trkpt lat="43.7629" lon="7.12323">
        <ele>717</ele>
        <time>2023-08-02T10:23:10.000Z</time>
      </trkpt>
      <trkpt lat="43.76288" lon="7.12324">
        <ele>716.79998779297</ele>
        <time>2023-08-02T10:23:11.000Z</time>
      </trkpt>
      <trkpt lat="43.76287" lon="7.12324">
        <ele>716.79998779297</ele>
        <time>2023-08-02T10:23:12.000Z</time>
      </trkpt>
      <trkpt lat="43.76285" lon="7.12325">
        <ele>716.59997558594</ele>
        <time>2023-08-02T10:23:13.000Z</time>
      </trkpt>
      <trkpt lat="43.76284" lon="7.12326">
        <ele>716.40002441406</ele>
        <time>2023-08-02T10:23:14.000Z</time>
      </trkpt>
      <trkpt lat="43.76284" lon="7.12326">
        <ele>716.20001220703</ele>
        <time>2023-08-02T10:23:15.000Z</time>
      </trkpt>
      <trkpt lat="43.76284" lon="7.12326">
        <ele>716.20001220703</ele>
        <time>2023-08-02T10:23:16.000Z</time>
      </trkpt>
      <trkpt lat="43.76284" lon="7.12326">
        <ele>716.20001220703</ele>
        <time>2023-08-02T10:23:17.000Z</time>
      </trkpt>
      <trkpt lat="43.76284" lon="7.12326">
        <ele>716</ele>
        <time>2023-08-02T10:23:18.000Z</time>
      </trkpt>
      <trkpt lat="43.76284" lon="7.12326">
        <ele>716</ele>
        <time>2023-08-02T10:23:19.000Z</time>
      </trkpt>
      <trkpt lat="43.76284" lon="7.12326">
        <ele>715.79998779297</ele>
        <time>2023-08-02T10:23:20.000Z</time>
      </trkpt>
      <trkpt lat="43.76284" lon="7.12326">
        <ele>715.79998779297</ele>
        <time>2023-08-02T10:23:21.000Z</time>
      </trkpt>
      <trkpt lat="43.76284" lon="7.12326">
        <ele>715.79998779297</ele>
        <time>2023-08-02T10:23:22.000Z</time>
      </trkpt>
      <trkpt lat="43.76284" lon="7.12326">
        <ele>715.79998779297</ele>
        <time>2023-08-02T10:23:23.000Z</time>
      </trkpt>
      <trkpt lat="43.76284" lon="7.12326">
        <ele>715.59997558594</ele>
        <time>2023-08-02T10:23:24.000Z</time>
      </trkpt>
      <trkpt lat="43.76284" lon="7.12326">
        <ele>715.59997558594</ele>
        <time>2023-08-02T10:23:25.000Z</time>
      </trkpt>
      <trkpt lat="43.76284" lon="7.12326">
        <ele>715.59997558594</ele>
        <time>2023-08-02T10:23:26.000Z</time>
      </trkpt>
      <trkpt lat="43.76284" lon="7.12326">
        <ele>715.59997558594</ele>
        <time>2023-08-02T10:23:27.000Z</time>
      </trkpt>
      <trkpt lat="43.76284" lon="7.12326">
        <ele>715.59997558594</ele>
        <time>2023-08-02T10:23:28.000Z</time>
      </trkpt>
      <trkpt lat="43.76284" lon="7.12326">
        <ele>715.59997558594</ele>
        <time>2023-08-02T10:23:29.000Z</time>
      </trkpt>
      <trkpt lat="43.76284" lon="7.12326">
        <ele>715.59997558594</ele>
        <time>2023-08-02T10:23:30.000Z</time>
      </trkpt>
      <trkpt lat="43.76284" lon="7.12326">
        <ele>715.59997558594</ele>
        <time>2023-08-02T10:23:31.000Z</time>
      </trkpt>
      <trkpt lat="43.76284" lon="7.12326">
        <ele>715.79998779297</ele>
        <time>2023-08-02T10:23:32.000Z</time>
      </trkpt>
      <trkpt lat="43.76284" lon="7.12326">
        <ele>715.79998779297</ele>
        <time>2023-08-02T10:23:33.000Z</time>
      </trkpt>
      <trkpt lat="43.76284" lon="7.12326">
        <ele>715.79998779297</ele>
        <time>2023-08-02T10:23:34.000Z</time>
      </trkpt>
      <trkpt lat="43.76284" lon="7.12326">
        <ele>715.79998779297</ele>
        <time>2023-08-02T10:23:35.000Z</time>
      </trkpt>
      <trkpt lat="43.76284" lon="7.12326">
        <ele>715.79998779297</ele>
        <time>2023-08-02T10:23:36.000Z</time>
      </trkpt>
      <trkpt lat="43.76284" lon="7.12326">
        <ele>715.79998779297</ele>
        <time>2023-08-02T10:23:37.000Z</time>
      </trkpt>
      <trkpt lat="43.76284" lon="7.12326">
        <ele>715.79998779297</ele>
        <time>2023-08-02T10:23:38.000Z</time>
      </trkpt>
      <trkpt lat="43.76284" lon="7.12326">
        <ele>715.79998779297</ele>
        <time>2023-08-02T10:23:39.000Z</time>
      </trkpt>
      <trkpt lat="43.76284" lon="7.12326">
        <ele>715.79998779297</ele>
        <time>2023-08-02T10:23:40.000Z</time>
      </trkpt>
      <trkpt lat="43.76284" lon="7.12326">
        <ele>715.79998779297</ele>
        <time>2023-08-02T10:23:41.000Z</time>
      </trkpt>
      <trkpt lat="43.76284" lon="7.12326">
        <ele>715.59997558594</ele>
        <time>2023-08-02T10:23:42.000Z</time>
      </trkpt>
      <trkpt lat="43.76284" lon="7.12326">
        <ele>715.59997558594</ele>
        <time>2023-08-02T10:23:43.000Z</time>
      </trkpt>
      <trkpt lat="43.76284" lon="7.12326">
        <ele>715.59997558594</ele>
        <time>2023-08-02T10:23:44.000Z</time>
      </trkpt>
      <trkpt lat="43.76284" lon="7.12326">
        <ele>715.59997558594</ele>
        <time>2023-08-02T10:23:45.000Z</time>
      </trkpt>
      <trkpt lat="43.76284" lon="7.12326">
        <ele>715.59997558594</ele>
        <time>2023-08-02T10:23:46.000Z</time>
      </trkpt>
      <trkpt lat="43.76284" lon="7.12326">
        <ele>715.59997558594</ele>
        <time>2023-08-02T10:23:47.000Z</time>
      </trkpt>
      <trkpt lat="43.76284" lon="7.12326">
        <ele>715.59997558594</ele>
        <time>2023-08-02T10:23:48.000Z</time>
      </trkpt>
      <trkpt lat="43.76284" lon="7.12326">
        <ele>715.59997558594</ele>
        <time>2023-08-02T10:23:49.000Z</time>
      </trkpt>
      <trkpt lat="43.76284" lon="7.12326">
        <ele>715.59997558594</ele>
        <time>2023-08-02T10:23:50.000Z</time>
      </trkpt>
      <trkpt lat="43.76284" lon="7.12326">
        <ele>715.59997558594</ele>
        <time>2023-08-02T10:23:51.000Z</time>
      </trkpt>
      <trkpt lat="43.76284" lon="7.12326">
        <ele>715.59997558594</ele>
        <time>2023-08-02T10:23:52.000Z</time>
      </trkpt>
      <trkpt lat="43.76284" lon="7.12326">
        <ele>715.59997558594</ele>
        <time>2023-08-02T10:23:53.000Z</time>
      </trkpt>
      <trkpt lat="43.76284" lon="7.12326">
        <ele>715.59997558594</ele>
        <time>2023-08-02T10:23:54.000Z</time>
      </trkpt>
      <trkpt lat="43.76284" lon="7.12326">
        <ele>715.59997558594</ele>
        <time>2023-08-02T10:23:55.000Z</time>
      </trkpt>
      <trkpt lat="43.76284" lon="7.12326">
        <ele>715.59997558594</ele>
        <time>2023-08-02T10:23:56.000Z</time>
      </trkpt>
      <trkpt lat="43.76284" lon="7.12326">
        <ele>715.59997558594</ele>
        <time>2023-08-02T10:23:57.000Z</time>
      </trkpt>
      <trkpt lat="43.76283" lon="7.12326">
        <ele>715.59997558594</ele>
        <time>2023-08-02T10:23:58.000Z</time>
      </trkpt>
      <trkpt lat="43.76284" lon="7.12326">
        <ele>715.59997558594</ele>
        <time>2023-08-02T10:23:59.000Z</time>
      </trkpt>
      <trkpt lat="43.76284" lon="7.12326">
        <ele>715.59997558594</ele>
        <time>2023-08-02T10:24:00.000Z</time>
      </trkpt>
      <trkpt lat="43.76284" lon="7.12325">
        <ele>715.40002441406</ele>
        <time>2023-08-02T10:24:01.000Z</time>
      </trkpt>
      <trkpt lat="43.76283" lon="7.12325">
        <ele>715.40002441406</ele>
        <time>2023-08-02T10:24:02.000Z</time>
      </trkpt>
      <trkpt lat="43.76283" lon="7.12325">
        <ele>715.40002441406</ele>
        <time>2023-08-02T10:24:03.000Z</time>
      </trkpt>
      <trkpt lat="43.76284" lon="7.12326">
        <ele>715.40002441406</ele>
        <time>2023-08-02T10:24:04.000Z</time>
      </trkpt>
      <trkpt lat="43.76284" lon="7.12326">
        <ele>715.40002441406</ele>
        <time>2023-08-02T10:24:05.000Z</time>
      </trkpt>
      <trkpt lat="43.76284" lon="7.12327">
        <ele>715.40002441406</ele>
        <time>2023-08-02T10:24:06.000Z</time>
      </trkpt>
      <trkpt lat="43.76284" lon="7.12328">
        <ele>715.40002441406</ele>
        <time>2023-08-02T10:24:07.000Z</time>
      </trkpt>
      <trkpt lat="43.76284" lon="7.12328">
        <ele>715.40002441406</ele>
        <time>2023-08-02T10:24:08.000Z</time>
      </trkpt>
      <trkpt lat="43.76285" lon="7.12328">
        <ele>715.20001220703</ele>
        <time>2023-08-02T10:24:09.000Z</time>
      </trkpt>
      <trkpt lat="43.76286" lon="7.12328">
        <ele>715.20001220703</ele>
        <time>2023-08-02T10:24:10.000Z</time>
      </trkpt>
      <trkpt lat="43.76286" lon="7.12328">
        <ele>715.20001220703</ele>
        <time>2023-08-02T10:24:11.000Z</time>
      </trkpt>
      <trkpt lat="43.76287" lon="7.12328">
        <ele>715.20001220703</ele>
        <time>2023-08-02T10:24:12.000Z</time>
      </trkpt>
      <trkpt lat="43.76287" lon="7.12328">
        <ele>715.20001220703</ele>
        <time>2023-08-02T10:24:13.000Z</time>
      </trkpt>
      <trkpt lat="43.76287" lon="7.12329">
        <ele>715.20001220703</ele>
        <time>2023-08-02T10:24:14.000Z</time>
      </trkpt>
      <trkpt lat="43.76287" lon="7.12328">
        <ele>715.20001220703</ele>
        <time>2023-08-02T10:24:15.000Z</time>
      </trkpt>
      <trkpt lat="43.76287" lon="7.12328">
        <ele>715</ele>
        <time>2023-08-02T10:24:16.000Z</time>
      </trkpt>
      <trkpt lat="43.76287" lon="7.12328">
        <ele>715</ele>
        <time>2023-08-02T10:24:17.000Z</time>
      </trkpt>
      <trkpt lat="43.76288" lon="7.12329">
        <ele>714.79998779297</ele>
        <time>2023-08-02T10:24:18.000Z</time>
      </trkpt>
      <trkpt lat="43.76289" lon="7.12329">
        <ele>714.79998779297</ele>
        <time>2023-08-02T10:24:19.000Z</time>
      </trkpt>
      <trkpt lat="43.76289" lon="7.12329">
        <ele>714.79998779297</ele>
        <time>2023-08-02T10:24:20.000Z</time>
      </trkpt>
      <trkpt lat="43.76289" lon="7.12329">
        <ele>714.59997558594</ele>
        <time>2023-08-02T10:24:21.000Z</time>
      </trkpt>
      <trkpt lat="43.7629" lon="7.12329">
        <ele>714.59997558594</ele>
        <time>2023-08-02T10:24:22.000Z</time>
      </trkpt>
      <trkpt lat="43.7629" lon="7.12329">
        <ele>714.59997558594</ele>
        <time>2023-08-02T10:24:23.000Z</time>
      </trkpt>
      <trkpt lat="43.76291" lon="7.1233">
        <ele>714.40002441406</ele>
        <time>2023-08-02T10:24:24.000Z</time>
      </trkpt>
      <trkpt lat="43.76292" lon="7.1233">
        <ele>714.40002441406</ele>
        <time>2023-08-02T10:24:25.000Z</time>
      </trkpt>
      <trkpt lat="43.76292" lon="7.12331">
        <ele>714.40002441406</ele>
        <time>2023-08-02T10:24:26.000Z</time>
      </trkpt>
      <trkpt lat="43.76293" lon="7.12332">
        <ele>714.20001220703</ele>
        <time>2023-08-02T10:24:27.000Z</time>
      </trkpt>
      <trkpt lat="43.76293" lon="7.12332">
        <ele>714.20001220703</ele>
        <time>2023-08-02T10:24:28.000Z</time>
      </trkpt>
      <trkpt lat="43.76293" lon="7.12333">
        <ele>714</ele>
        <time>2023-08-02T10:24:29.000Z</time>
      </trkpt>
      <trkpt lat="43.76293" lon="7.12334">
        <ele>713.79998779297</ele>
        <time>2023-08-02T10:24:30.000Z</time>
      </trkpt>
      <trkpt lat="43.76292" lon="7.12335">
        <ele>713.79998779297</ele>
        <time>2023-08-02T10:24:31.000Z</time>
      </trkpt>
      <trkpt lat="43.76292" lon="7.12336">
        <ele>713.59997558594</ele>
        <time>2023-08-02T10:24:32.000Z</time>
      </trkpt>
      <trkpt lat="43.76291" lon="7.12338">
        <ele>713.40002441406</ele>
        <time>2023-08-02T10:24:33.000Z</time>
      </trkpt>
      <trkpt lat="43.76291" lon="7.12339">
        <ele>713.40002441406</ele>
        <time>2023-08-02T10:24:34.000Z</time>
      </trkpt>
      <trkpt lat="43.7629" lon="7.1234">
        <ele>713.20001220703</ele>
        <time>2023-08-02T10:24:35.000Z</time>
      </trkpt>
      <trkpt lat="43.76289" lon="7.1234">
        <ele>713.20001220703</ele>
        <time>2023-08-02T10:24:36.000Z</time>
      </trkpt>
      <trkpt lat="43.76289" lon="7.1234">
        <ele>712.79998779297</ele>
        <time>2023-08-02T10:24:37.000Z</time>
      </trkpt>
      <trkpt lat="43.76289" lon="7.12339">
        <ele>712.79998779297</ele>
        <time>2023-08-02T10:24:38.000Z</time>
      </trkpt>
      <trkpt lat="43.76289" lon="7.12339">
        <ele>712.79998779297</ele>
        <time>2023-08-02T10:24:39.000Z</time>
      </trkpt>
      <trkpt lat="43.76289" lon="7.12339">
        <ele>712.59997558594</ele>
        <time>2023-08-02T10:24:40.000Z</time>
      </trkpt>
      <trkpt lat="43.76289" lon="7.1234">
        <ele>712.40002441406</ele>
        <time>2023-08-02T10:24:41.000Z</time>
      </trkpt>
      <trkpt lat="43.76289" lon="7.1234">
        <ele>712.40002441406</ele>
        <time>2023-08-02T10:24:42.000Z</time>
      </trkpt>
      <trkpt lat="43.76289" lon="7.1234">
        <ele>712.40002441406</ele>
        <time>2023-08-02T10:24:43.000Z</time>
      </trkpt>
      <trkpt lat="43.76289" lon="7.12339">
        <ele>712.40002441406</ele>
        <time>2023-08-02T10:24:44.000Z</time>
      </trkpt>
      <trkpt lat="43.76289" lon="7.12339">
        <ele>712.40002441406</ele>
        <time>2023-08-02T10:24:45.000Z</time>
      </trkpt>
      <trkpt lat="43.76289" lon="7.12339">
        <ele>712.40002441406</ele>
        <time>2023-08-02T10:24:46.000Z</time>
      </trkpt>
      <trkpt lat="43.76289" lon="7.1234">
        <ele>712.40002441406</ele>
        <time>2023-08-02T10:24:47.000Z</time>
      </trkpt>
      <trkpt lat="43.76289" lon="7.12339">
        <ele>712.40002441406</ele>
        <time>2023-08-02T10:24:48.000Z</time>
      </trkpt>
      <trkpt lat="43.76289" lon="7.12339">
        <ele>712.40002441406</ele>
        <time>2023-08-02T10:24:49.000Z</time>
      </trkpt>
      <trkpt lat="43.76289" lon="7.12339">
        <ele>712.40002441406</ele>
        <time>2023-08-02T10:24:50.000Z</time>
      </trkpt>
      <trkpt lat="43.76289" lon="7.12339">
        <ele>712.40002441406</ele>
        <time>2023-08-02T10:24:51.000Z</time>
      </trkpt>
      <trkpt lat="43.76289" lon="7.12339">
        <ele>712.40002441406</ele>
        <time>2023-08-02T10:24:52.000Z</time>
      </trkpt>
      <trkpt lat="43.76289" lon="7.12339">
        <ele>712.40002441406</ele>
        <time>2023-08-02T10:24:53.000Z</time>
      </trkpt>
      <trkpt lat="43.76289" lon="7.12339">
        <ele>712.40002441406</ele>
        <time>2023-08-02T10:24:54.000Z</time>
      </trkpt>
      <trkpt lat="43.76289" lon="7.12339">
        <ele>712.40002441406</ele>
        <time>2023-08-02T10:24:55.000Z</time>
      </trkpt>
      <trkpt lat="43.76289" lon="7.12339">
        <ele>712.40002441406</ele>
        <time>2023-08-02T10:24:56.000Z</time>
      </trkpt>
      <trkpt lat="43.76289" lon="7.12339">
        <ele>712.40002441406</ele>
        <time>2023-08-02T10:24:57.000Z</time>
      </trkpt>
      <trkpt lat="43.76289" lon="7.12339">
        <ele>712.20001220703</ele>
        <time>2023-08-02T10:24:58.000Z</time>
      </trkpt>
      <trkpt lat="43.76289" lon="7.12339">
        <ele>712.20001220703</ele>
        <time>2023-08-02T10:24:59.000Z</time>
      </trkpt>
      <trkpt lat="43.76289" lon="7.12339">
        <ele>712.20001220703</ele>
        <time>2023-08-02T10:25:00.000Z</time>
      </trkpt>
      <trkpt lat="43.76289" lon="7.12339">
        <ele>712.20001220703</ele>
        <time>2023-08-02T10:25:01.000Z</time>
      </trkpt>
      <trkpt lat="43.76289" lon="7.12339">
        <ele>712.20001220703</ele>
        <time>2023-08-02T10:25:02.000Z</time>
      </trkpt>
      <trkpt lat="43.76289" lon="7.12339">
        <ele>712.20001220703</ele>
        <time>2023-08-02T10:25:03.000Z</time>
      </trkpt>
      <trkpt lat="43.76289" lon="7.12339">
        <ele>712.20001220703</ele>
        <time>2023-08-02T10:25:04.000Z</time>
      </trkpt>
      <trkpt lat="43.76289" lon="7.12339">
        <ele>712.20001220703</ele>
        <time>2023-08-02T10:25:05.000Z</time>
      </trkpt>
      <trkpt lat="43.76289" lon="7.12339">
        <ele>712.20001220703</ele>
        <time>2023-08-02T10:25:06.000Z</time>
      </trkpt>
      <trkpt lat="43.76289" lon="7.12339">
        <ele>712.20001220703</ele>
        <time>2023-08-02T10:25:07.000Z</time>
      </trkpt>
      <trkpt lat="43.76289" lon="7.12339">
        <ele>712.20001220703</ele>
        <time>2023-08-02T10:25:08.000Z</time>
      </trkpt>
      <trkpt lat="43.76288" lon="7.12339">
        <ele>712.20001220703</ele>
        <time>2023-08-02T10:25:09.000Z</time>
      </trkpt>
      <trkpt lat="43.76289" lon="7.1234">
        <ele>712.20001220703</ele>
        <time>2023-08-02T10:25:10.000Z</time>
      </trkpt>
      <trkpt lat="43.76289" lon="7.1234">
        <ele>712.20001220703</ele>
        <time>2023-08-02T10:25:11.000Z</time>
      </trkpt>
      <trkpt lat="43.76288" lon="7.1234">
        <ele>712.20001220703</ele>
        <time>2023-08-02T10:25:12.000Z</time>
      </trkpt>
      <trkpt lat="43.76288" lon="7.1234">
        <ele>712.20001220703</ele>
        <time>2023-08-02T10:25:13.000Z</time>
      </trkpt>
      <trkpt lat="43.76286" lon="7.1234">
        <ele>712.20001220703</ele>
        <time>2023-08-02T10:25:14.000Z</time>
      </trkpt>
      <trkpt lat="43.76285" lon="7.1234">
        <ele>712.20001220703</ele>
        <time>2023-08-02T10:25:15.000Z</time>
      </trkpt>
      <trkpt lat="43.76284" lon="7.1234">
        <ele>712.20001220703</ele>
        <time>2023-08-02T10:25:16.000Z</time>
      </trkpt>
      <trkpt lat="43.76283" lon="7.12339">
        <ele>712</ele>
        <time>2023-08-02T10:25:17.000Z</time>
      </trkpt>
      <trkpt lat="43.76284" lon="7.12339">
        <ele>711.79998779297</ele>
        <time>2023-08-02T10:25:18.000Z</time>
      </trkpt>
      <trkpt lat="43.76284" lon="7.12339">
        <ele>711.59997558594</ele>
        <time>2023-08-02T10:25:19.000Z</time>
      </trkpt>
      <trkpt lat="43.76284" lon="7.12339">
        <ele>711.59997558594</ele>
        <time>2023-08-02T10:25:20.000Z</time>
      </trkpt>
      <trkpt lat="43.76284" lon="7.12339">
        <ele>711.59997558594</ele>
        <time>2023-08-02T10:25:21.000Z</time>
      </trkpt>
      <trkpt lat="43.76284" lon="7.12339">
        <ele>711.59997558594</ele>
        <time>2023-08-02T10:25:22.000Z</time>
      </trkpt>
      <trkpt lat="43.76284" lon="7.12339">
        <ele>711.59997558594</ele>
        <time>2023-08-02T10:25:23.000Z</time>
      </trkpt>
      <trkpt lat="43.76284" lon="7.12339">
        <ele>711.40002441406</ele>
        <time>2023-08-02T10:25:24.000Z</time>
      </trkpt>
      <trkpt lat="43.76284" lon="7.12339">
        <ele>711.40002441406</ele>
        <time>2023-08-02T10:25:25.000Z</time>
      </trkpt>
      <trkpt lat="43.76284" lon="7.12339">
        <ele>711.40002441406</ele>
        <time>2023-08-02T10:25:26.000Z</time>
      </trkpt>
      <trkpt lat="43.76284" lon="7.12339">
        <ele>711.40002441406</ele>
        <time>2023-08-02T10:25:27.000Z</time>
      </trkpt>
      <trkpt lat="43.76284" lon="7.12339">
        <ele>711.40002441406</ele>
        <time>2023-08-02T10:25:28.000Z</time>
      </trkpt>
      <trkpt lat="43.76284" lon="7.12339">
        <ele>711.59997558594</ele>
        <time>2023-08-02T10:25:29.000Z</time>
      </trkpt>
      <trkpt lat="43.76284" lon="7.12339">
        <ele>711.59997558594</ele>
        <time>2023-08-02T10:25:30.000Z</time>
      </trkpt>
      <trkpt lat="43.76284" lon="7.12339">
        <ele>711.59997558594</ele>
        <time>2023-08-02T10:25:31.000Z</time>
      </trkpt>
      <trkpt lat="43.76284" lon="7.12339">
        <ele>711.59997558594</ele>
        <time>2023-08-02T10:25:32.000Z</time>
      </trkpt>
      <trkpt lat="43.76284" lon="7.12339">
        <ele>711.59997558594</ele>
        <time>2023-08-02T10:25:33.000Z</time>
      </trkpt>
      <trkpt lat="43.76284" lon="7.12339">
        <ele>711.59997558594</ele>
        <time>2023-08-02T10:25:34.000Z</time>
      </trkpt>
      <trkpt lat="43.76284" lon="7.12339">
        <ele>711.59997558594</ele>
        <time>2023-08-02T10:25:35.000Z</time>
      </trkpt>
      <trkpt lat="43.76284" lon="7.12339">
        <ele>711.59997558594</ele>
        <time>2023-08-02T10:25:36.000Z</time>
      </trkpt>
      <trkpt lat="43.76283" lon="7.12339">
        <ele>711.59997558594</ele>
        <time>2023-08-02T10:25:37.000Z</time>
      </trkpt>
      <trkpt lat="43.76283" lon="7.12339">
        <ele>711.59997558594</ele>
        <time>2023-08-02T10:25:38.000Z</time>
      </trkpt>
      <trkpt lat="43.76281" lon="7.12339">
        <ele>711.59997558594</ele>
        <time>2023-08-02T10:25:39.000Z</time>
      </trkpt>
      <trkpt lat="43.76281" lon="7.12339">
        <ele>711.59997558594</ele>
        <time>2023-08-02T10:25:40.000Z</time>
      </trkpt>
      <trkpt lat="43.76281" lon="7.12339">
        <ele>711.59997558594</ele>
        <time>2023-08-02T10:25:41.000Z</time>
      </trkpt>
      <trkpt lat="43.76281" lon="7.12339">
        <ele>711.59997558594</ele>
        <time>2023-08-02T10:25:42.000Z</time>
      </trkpt>
      <trkpt lat="43.7628" lon="7.12339">
        <ele>711.59997558594</ele>
        <time>2023-08-02T10:25:43.000Z</time>
      </trkpt>
      <trkpt lat="43.7628" lon="7.12339">
        <ele>711.40002441406</ele>
        <time>2023-08-02T10:25:44.000Z</time>
      </trkpt>
      <trkpt lat="43.7628" lon="7.12339">
        <ele>711.40002441406</ele>
        <time>2023-08-02T10:25:45.000Z</time>
      </trkpt>
      <trkpt lat="43.76279" lon="7.12339">
        <ele>711.40002441406</ele>
        <time>2023-08-02T10:25:46.000Z</time>
      </trkpt>
      <trkpt lat="43.76279" lon="7.12339">
        <ele>711.20001220703</ele>
        <time>2023-08-02T10:25:47.000Z</time>
      </trkpt>
      <trkpt lat="43.76279" lon="7.12339">
        <ele>711.20001220703</ele>
        <time>2023-08-02T10:25:48.000Z</time>
      </trkpt>
      <trkpt lat="43.76279" lon="7.12339">
        <ele>711.20001220703</ele>
        <time>2023-08-02T10:25:49.000Z</time>
      </trkpt>
      <trkpt lat="43.76279" lon="7.12339">
        <ele>711.20001220703</ele>
        <time>2023-08-02T10:25:50.000Z</time>
      </trkpt>
      <trkpt lat="43.76279" lon="7.12339">
        <ele>711.20001220703</ele>
        <time>2023-08-02T10:25:51.000Z</time>
      </trkpt>
      <trkpt lat="43.76279" lon="7.12339">
        <ele>711.20001220703</ele>
        <time>2023-08-02T10:25:52.000Z</time>
      </trkpt>
      <trkpt lat="43.76279" lon="7.12339">
        <ele>711.20001220703</ele>
        <time>2023-08-02T10:25:53.000Z</time>
      </trkpt>
      <trkpt lat="43.7628" lon="7.12339">
        <ele>711.20001220703</ele>
        <time>2023-08-02T10:25:54.000Z</time>
      </trkpt>
      <trkpt lat="43.76279" lon="7.12339">
        <ele>711</ele>
        <time>2023-08-02T10:25:55.000Z</time>
      </trkpt>
      <trkpt lat="43.76279" lon="7.12339">
        <ele>711</ele>
        <time>2023-08-02T10:25:56.000Z</time>
      </trkpt>
      <trkpt lat="43.7628" lon="7.12339">
        <ele>711</ele>
        <time>2023-08-02T10:25:57.000Z</time>
      </trkpt>
      <trkpt lat="43.7628" lon="7.12339">
        <ele>711</ele>
        <time>2023-08-02T10:25:58.000Z</time>
      </trkpt>
      <trkpt lat="43.7628" lon="7.12339">
        <ele>711</ele>
        <time>2023-08-02T10:25:59.000Z</time>
      </trkpt>
      <trkpt lat="43.7628" lon="7.12339">
        <ele>711</ele>
        <time>2023-08-02T10:26:00.000Z</time>
      </trkpt>
      <trkpt lat="43.7628" lon="7.12339">
        <ele>711</ele>
        <time>2023-08-02T10:26:01.000Z</time>
      </trkpt>
      <trkpt lat="43.7628" lon="7.12339">
        <ele>711</ele>
        <time>2023-08-02T10:26:02.000Z</time>
      </trkpt>
      <trkpt lat="43.7628" lon="7.12339">
        <ele>711.20001220703</ele>
        <time>2023-08-02T10:26:03.000Z</time>
      </trkpt>
      <trkpt lat="43.7628" lon="7.12339">
        <ele>711.20001220703</ele>
        <time>2023-08-02T10:26:04.000Z</time>
      </trkpt>
      <trkpt lat="43.7628" lon="7.12339">
        <ele>711.20001220703</ele>
        <time>2023-08-02T10:26:05.000Z</time>
      </trkpt>
      <trkpt lat="43.7628" lon="7.12339">
        <ele>711</ele>
        <time>2023-08-02T10:26:06.000Z</time>
      </trkpt>
      <trkpt lat="43.7628" lon="7.12339">
        <ele>711</ele>
        <time>2023-08-02T10:26:07.000Z</time>
      </trkpt>
      <trkpt lat="43.76279" lon="7.12339">
        <ele>711</ele>
        <time>2023-08-02T10:26:08.000Z</time>
      </trkpt>
      <trkpt lat="43.76277" lon="7.12338">
        <ele>711</ele>
        <time>2023-08-02T10:26:09.000Z</time>
      </trkpt>
      <trkpt lat="43.76276" lon="7.12338">
        <ele>711</ele>
        <time>2023-08-02T10:26:10.000Z</time>
      </trkpt>
      <trkpt lat="43.76274" lon="7.12338">
        <ele>711</ele>
        <time>2023-08-02T10:26:11.000Z</time>
      </trkpt>
      <trkpt lat="43.76271" lon="7.12338">
        <ele>711</ele>
        <time>2023-08-02T10:26:12.000Z</time>
      </trkpt>
      <trkpt lat="43.76268" lon="7.12337">
        <ele>711</ele>
        <time>2023-08-02T10:26:13.000Z</time>
      </trkpt>
      <trkpt lat="43.76266" lon="7.12336">
        <ele>710.79998779297</ele>
        <time>2023-08-02T10:26:14.000Z</time>
      </trkpt>
      <trkpt lat="43.76263" lon="7.12335">
        <ele>710.40002441406</ele>
        <time>2023-08-02T10:26:15.000Z</time>
      </trkpt>
      <trkpt lat="43.7626" lon="7.12335">
        <ele>710.40002441406</ele>
        <time>2023-08-02T10:26:16.000Z</time>
      </trkpt>
      <trkpt lat="43.76257" lon="7.12335">
        <ele>710.20001220703</ele>
        <time>2023-08-02T10:26:17.000Z</time>
      </trkpt>
      <trkpt lat="43.76254" lon="7.12335">
        <ele>710.20001220703</ele>
        <time>2023-08-02T10:26:18.000Z</time>
      </trkpt>
      <trkpt lat="43.76252" lon="7.12335">
        <ele>710</ele>
        <time>2023-08-02T10:26:19.000Z</time>
      </trkpt>
      <trkpt lat="43.76249" lon="7.12335">
        <ele>710</ele>
        <time>2023-08-02T10:26:20.000Z</time>
      </trkpt>
      <trkpt lat="43.76246" lon="7.12335">
        <ele>710</ele>
        <time>2023-08-02T10:26:21.000Z</time>
      </trkpt>
      <trkpt lat="43.76244" lon="7.12335">
        <ele>710</ele>
        <time>2023-08-02T10:26:22.000Z</time>
      </trkpt>
      <trkpt lat="43.76241" lon="7.12335">
        <ele>709.79998779297</ele>
        <time>2023-08-02T10:26:23.000Z</time>
      </trkpt>
      <trkpt lat="43.76238" lon="7.12335">
        <ele>709.59997558594</ele>
        <time>2023-08-02T10:26:24.000Z</time>
      </trkpt>
      <trkpt lat="43.76235" lon="7.12335">
        <ele>709.20001220703</ele>
        <time>2023-08-02T10:26:25.000Z</time>
      </trkpt>
      <trkpt lat="43.76232" lon="7.12335">
        <ele>709</ele>
        <time>2023-08-02T10:26:26.000Z</time>
      </trkpt>
      <trkpt lat="43.76229" lon="7.12335">
        <ele>709</ele>
        <time>2023-08-02T10:26:27.000Z</time>
      </trkpt>
      <trkpt lat="43.76226" lon="7.12335">
        <ele>708.79998779297</ele>
        <time>2023-08-02T10:26:28.000Z</time>
      </trkpt>
      <trkpt lat="43.76222" lon="7.12335">
        <ele>708.79998779297</ele>
        <time>2023-08-02T10:26:29.000Z</time>
      </trkpt>
      <trkpt lat="43.76219" lon="7.12335">
        <ele>708.79998779297</ele>
        <time>2023-08-02T10:26:30.000Z</time>
      </trkpt>
      <trkpt lat="43.76215" lon="7.12336">
        <ele>708.79998779297</ele>
        <time>2023-08-02T10:26:31.000Z</time>
      </trkpt>
      <trkpt lat="43.76213" lon="7.12338">
        <ele>708.59997558594</ele>
        <time>2023-08-02T10:26:32.000Z</time>
      </trkpt>
      <trkpt lat="43.7621" lon="7.12341">
        <ele>708.59997558594</ele>
        <time>2023-08-02T10:26:33.000Z</time>
      </trkpt>
      <trkpt lat="43.76207" lon="7.12343">
        <ele>708.59997558594</ele>
        <time>2023-08-02T10:26:34.000Z</time>
      </trkpt>
      <trkpt lat="43.76204" lon="7.12346">
        <ele>708.59997558594</ele>
        <time>2023-08-02T10:26:35.000Z</time>
      </trkpt>
      <trkpt lat="43.76201" lon="7.12347">
        <ele>708.59997558594</ele>
        <time>2023-08-02T10:26:36.000Z</time>
      </trkpt>
      <trkpt lat="43.76199" lon="7.12348">
        <ele>708.59997558594</ele>
        <time>2023-08-02T10:26:37.000Z</time>
      </trkpt>
      <trkpt lat="43.76198" lon="7.1235">
        <ele>708.40002441406</ele>
        <time>2023-08-02T10:26:38.000Z</time>
      </trkpt>
      <trkpt lat="43.76197" lon="7.12352">
        <ele>708</ele>
        <time>2023-08-02T10:26:39.000Z</time>
      </trkpt>
      <trkpt lat="43.76194" lon="7.12352">
        <ele>708</ele>
        <time>2023-08-02T10:26:40.000Z</time>
      </trkpt>
      <trkpt lat="43.76193" lon="7.12352">
        <ele>707.79998779297</ele>
        <time>2023-08-02T10:26:41.000Z</time>
      </trkpt>
      <trkpt lat="43.76192" lon="7.12352">
        <ele>707.59997558594</ele>
        <time>2023-08-02T10:26:42.000Z</time>
      </trkpt>
      <trkpt lat="43.76193" lon="7.12352">
        <ele>707.59997558594</ele>
        <time>2023-08-02T10:26:43.000Z</time>
      </trkpt>
      <trkpt lat="43.76193" lon="7.12352">
        <ele>707.40002441406</ele>
        <time>2023-08-02T10:26:44.000Z</time>
      </trkpt>
      <trkpt lat="43.76193" lon="7.12352">
        <ele>707.40002441406</ele>
        <time>2023-08-02T10:26:45.000Z</time>
      </trkpt>
      <trkpt lat="43.76193" lon="7.12352">
        <ele>707.40002441406</ele>
        <time>2023-08-02T10:26:46.000Z</time>
      </trkpt>
      <trkpt lat="43.76193" lon="7.12352">
        <ele>707.20001220703</ele>
        <time>2023-08-02T10:26:47.000Z</time>
      </trkpt>
      <trkpt lat="43.76193" lon="7.12352">
        <ele>707.20001220703</ele>
        <time>2023-08-02T10:26:48.000Z</time>
      </trkpt>
      <trkpt lat="43.76193" lon="7.12352">
        <ele>707.20001220703</ele>
        <time>2023-08-02T10:26:49.000Z</time>
      </trkpt>
      <trkpt lat="43.76192" lon="7.12352">
        <ele>707.20001220703</ele>
        <time>2023-08-02T10:26:50.000Z</time>
      </trkpt>
      <trkpt lat="43.76192" lon="7.12351">
        <ele>707.20001220703</ele>
        <time>2023-08-02T10:26:51.000Z</time>
      </trkpt>
      <trkpt lat="43.76192" lon="7.12351">
        <ele>707.20001220703</ele>
        <time>2023-08-02T10:26:52.000Z</time>
      </trkpt>
      <trkpt lat="43.76192" lon="7.12351">
        <ele>707.20001220703</ele>
        <time>2023-08-02T10:26:53.000Z</time>
      </trkpt>
      <trkpt lat="43.76192" lon="7.12351">
        <ele>707</ele>
        <time>2023-08-02T10:26:54.000Z</time>
      </trkpt>
      <trkpt lat="43.76191" lon="7.12351">
        <ele>707</ele>
        <time>2023-08-02T10:26:55.000Z</time>
      </trkpt>
      <trkpt lat="43.7619" lon="7.12352">
        <ele>707</ele>
        <time>2023-08-02T10:26:56.000Z</time>
      </trkpt>
      <trkpt lat="43.76188" lon="7.12353">
        <ele>707</ele>
        <time>2023-08-02T10:26:57.000Z</time>
      </trkpt>
      <trkpt lat="43.76186" lon="7.12353">
        <ele>707</ele>
        <time>2023-08-02T10:26:58.000Z</time>
      </trkpt>
      <trkpt lat="43.76185" lon="7.12352">
        <ele>707</ele>
        <time>2023-08-02T10:26:59.000Z</time>
      </trkpt>
      <trkpt lat="43.76183" lon="7.12352">
        <ele>707</ele>
        <time>2023-08-02T10:27:00.000Z</time>
      </trkpt>
      <trkpt lat="43.76182" lon="7.12352">
        <ele>707</ele>
        <time>2023-08-02T10:27:01.000Z</time>
      </trkpt>
      <trkpt lat="43.7618" lon="7.12353">
        <ele>706.79998779297</ele>
        <time>2023-08-02T10:27:02.000Z</time>
      </trkpt>
      <trkpt lat="43.76179" lon="7.12353">
        <ele>706.79998779297</ele>
        <time>2023-08-02T10:27:03.000Z</time>
      </trkpt>
      <trkpt lat="43.76178" lon="7.12352">
        <ele>706.79998779297</ele>
        <time>2023-08-02T10:27:04.000Z</time>
      </trkpt>
      <trkpt lat="43.76177" lon="7.12352">
        <ele>706.79998779297</ele>
        <time>2023-08-02T10:27:05.000Z</time>
      </trkpt>
      <trkpt lat="43.76175" lon="7.12352">
        <ele>706.79998779297</ele>
        <time>2023-08-02T10:27:06.000Z</time>
      </trkpt>
      <trkpt lat="43.76174" lon="7.12352">
        <ele>707</ele>
        <time>2023-08-02T10:27:07.000Z</time>
      </trkpt>
      <trkpt lat="43.76173" lon="7.12352">
        <ele>707</ele>
        <time>2023-08-02T10:27:08.000Z</time>
      </trkpt>
      <trkpt lat="43.76171" lon="7.12352">
        <ele>707</ele>
        <time>2023-08-02T10:27:09.000Z</time>
      </trkpt>
      <trkpt lat="43.7617" lon="7.12352">
        <ele>707.20001220703</ele>
        <time>2023-08-02T10:27:10.000Z</time>
      </trkpt>
      <trkpt lat="43.76169" lon="7.12353">
        <ele>707.20001220703</ele>
        <time>2023-08-02T10:27:11.000Z</time>
      </trkpt>
      <trkpt lat="43.76168" lon="7.12353">
        <ele>707.20001220703</ele>
        <time>2023-08-02T10:27:12.000Z</time>
      </trkpt>
      <trkpt lat="43.76166" lon="7.12353">
        <ele>707.40002441406</ele>
        <time>2023-08-02T10:27:13.000Z</time>
      </trkpt>
      <trkpt lat="43.76165" lon="7.12353">
        <ele>707.40002441406</ele>
        <time>2023-08-02T10:27:14.000Z</time>
      </trkpt>
      <trkpt lat="43.76164" lon="7.12352">
        <ele>707.40002441406</ele>
        <time>2023-08-02T10:27:15.000Z</time>
      </trkpt>
      <trkpt lat="43.76163" lon="7.12352">
        <ele>707.40002441406</ele>
        <time>2023-08-02T10:27:16.000Z</time>
      </trkpt>
      <trkpt lat="43.76163" lon="7.12352">
        <ele>707.79998779297</ele>
        <time>2023-08-02T10:27:17.000Z</time>
      </trkpt>
      <trkpt lat="43.76163" lon="7.12352">
        <ele>707.79998779297</ele>
        <time>2023-08-02T10:27:18.000Z</time>
      </trkpt>
      <trkpt lat="43.76163" lon="7.12352">
        <ele>707.79998779297</ele>
        <time>2023-08-02T10:27:19.000Z</time>
      </trkpt>
      <trkpt lat="43.76163" lon="7.12352">
        <ele>707.79998779297</ele>
        <time>2023-08-02T10:27:20.000Z</time>
      </trkpt>
      <trkpt lat="43.76163" lon="7.12352">
        <ele>707.79998779297</ele>
        <time>2023-08-02T10:27:21.000Z</time>
      </trkpt>
      <trkpt lat="43.76163" lon="7.12352">
        <ele>707.79998779297</ele>
        <time>2023-08-02T10:27:22.000Z</time>
      </trkpt>
      <trkpt lat="43.76163" lon="7.12352">
        <ele>707.79998779297</ele>
        <time>2023-08-02T10:27:23.000Z</time>
      </trkpt>
      <trkpt lat="43.76163" lon="7.12352">
        <ele>707.79998779297</ele>
        <time>2023-08-02T10:27:24.000Z</time>
      </trkpt>
      <trkpt lat="43.76163" lon="7.12352">
        <ele>707.79998779297</ele>
        <time>2023-08-02T10:27:25.000Z</time>
      </trkpt>
      <trkpt lat="43.76163" lon="7.12352">
        <ele>707.79998779297</ele>
        <time>2023-08-02T10:27:26.000Z</time>
      </trkpt>
      <trkpt lat="43.76163" lon="7.12352">
        <ele>707.79998779297</ele>
        <time>2023-08-02T10:27:27.000Z</time>
      </trkpt>
      <trkpt lat="43.76163" lon="7.12352">
        <ele>707.79998779297</ele>
        <time>2023-08-02T10:27:28.000Z</time>
      </trkpt>
      <trkpt lat="43.76163" lon="7.12352">
        <ele>707.59997558594</ele>
        <time>2023-08-02T10:27:29.000Z</time>
      </trkpt>
      <trkpt lat="43.76163" lon="7.12352">
        <ele>707.59997558594</ele>
        <time>2023-08-02T10:27:30.000Z</time>
      </trkpt>
      <trkpt lat="43.76163" lon="7.12352">
        <ele>707.59997558594</ele>
        <time>2023-08-02T10:27:31.000Z</time>
      </trkpt>
      <trkpt lat="43.76163" lon="7.12352">
        <ele>707.59997558594</ele>
        <time>2023-08-02T10:27:32.000Z</time>
      </trkpt>
      <trkpt lat="43.76163" lon="7.12352">
        <ele>707.59997558594</ele>
        <time>2023-08-02T10:27:33.000Z</time>
      </trkpt>
      <trkpt lat="43.76163" lon="7.12352">
        <ele>707.59997558594</ele>
        <time>2023-08-02T10:27:34.000Z</time>
      </trkpt>
      <trkpt lat="43.76163" lon="7.12352">
        <ele>707.40002441406</ele>
        <time>2023-08-02T10:27:35.000Z</time>
      </trkpt>
      <trkpt lat="43.76163" lon="7.12352">
        <ele>707.40002441406</ele>
        <time>2023-08-02T10:27:36.000Z</time>
      </trkpt>
      <trkpt lat="43.76163" lon="7.12352">
        <ele>707.59997558594</ele>
        <time>2023-08-02T10:27:37.000Z</time>
      </trkpt>
      <trkpt lat="43.76163" lon="7.12352">
        <ele>707.59997558594</ele>
        <time>2023-08-02T10:27:38.000Z</time>
      </trkpt>
      <trkpt lat="43.76163" lon="7.12352">
        <ele>707.40002441406</ele>
        <time>2023-08-02T10:27:39.000Z</time>
      </trkpt>
      <trkpt lat="43.76163" lon="7.12352">
        <ele>707.40002441406</ele>
        <time>2023-08-02T10:27:40.000Z</time>
      </trkpt>
      <trkpt lat="43.76163" lon="7.12352">
        <ele>707.40002441406</ele>
        <time>2023-08-02T10:27:41.000Z</time>
      </trkpt>
      <trkpt lat="43.76163" lon="7.12352">
        <ele>707.40002441406</ele>
        <time>2023-08-02T10:27:42.000Z</time>
      </trkpt>
      <trkpt lat="43.76163" lon="7.12352">
        <ele>707.40002441406</ele>
        <time>2023-08-02T10:27:43.000Z</time>
      </trkpt>
      <trkpt lat="43.76163" lon="7.12352">
        <ele>707</ele>
        <time>2023-08-02T10:27:44.000Z</time>
      </trkpt>
      <trkpt lat="43.76163" lon="7.12352">
        <ele>707</ele>
        <time>2023-08-02T10:27:45.000Z</time>
      </trkpt>
      <trkpt lat="43.76163" lon="7.12352">
        <ele>707</ele>
        <time>2023-08-02T10:27:46.000Z</time>
      </trkpt>
      <trkpt lat="43.76163" lon="7.12352">
        <ele>707</ele>
        <time>2023-08-02T10:27:47.000Z</time>
      </trkpt>
      <trkpt lat="43.76163" lon="7.12352">
        <ele>707</ele>
        <time>2023-08-02T10:27:48.000Z</time>
      </trkpt>
      <trkpt lat="43.76163" lon="7.12352">
        <ele>707</ele>
        <time>2023-08-02T10:27:49.000Z</time>
      </trkpt>
      <trkpt lat="43.76163" lon="7.12352">
        <ele>707</ele>
        <time>2023-08-02T10:27:50.000Z</time>
      </trkpt>
      <trkpt lat="43.76163" lon="7.12352">
        <ele>707</ele>
        <time>2023-08-02T10:27:51.000Z</time>
      </trkpt>
      <trkpt lat="43.76163" lon="7.12352">
        <ele>707</ele>
        <time>2023-08-02T10:27:52.000Z</time>
      </trkpt>
      <trkpt lat="43.76163" lon="7.12352">
        <ele>707</ele>
        <time>2023-08-02T10:27:53.000Z</time>
      </trkpt>
      <trkpt lat="43.76163" lon="7.12352">
        <ele>707</ele>
        <time>2023-08-02T10:27:54.000Z</time>
      </trkpt>
      <trkpt lat="43.76163" lon="7.12352">
        <ele>707</ele>
        <time>2023-08-02T10:27:55.000Z</time>
      </trkpt>
      <trkpt lat="43.76163" lon="7.12352">
        <ele>707</ele>
        <time>2023-08-02T10:27:56.000Z</time>
      </trkpt>
      <trkpt lat="43.76163" lon="7.12352">
        <ele>707</ele>
        <time>2023-08-02T10:27:57.000Z</time>
      </trkpt>
      <trkpt lat="43.76163" lon="7.12352">
        <ele>707</ele>
        <time>2023-08-02T10:27:58.000Z</time>
      </trkpt>
      <trkpt lat="43.76163" lon="7.12352">
        <ele>707</ele>
        <time>2023-08-02T10:27:59.000Z</time>
      </trkpt>
      <trkpt lat="43.76163" lon="7.12352">
        <ele>707</ele>
        <time>2023-08-02T10:28:00.000Z</time>
      </trkpt>
      <trkpt lat="43.76163" lon="7.12352">
        <ele>707</ele>
        <time>2023-08-02T10:28:01.000Z</time>
      </trkpt>
      <trkpt lat="43.76163" lon="7.12352">
        <ele>707</ele>
        <time>2023-08-02T10:28:02.000Z</time>
      </trkpt>
      <trkpt lat="43.76163" lon="7.12352">
        <ele>707</ele>
        <time>2023-08-02T10:28:03.000Z</time>
      </trkpt>
      <trkpt lat="43.76162" lon="7.12353">
        <ele>707</ele>
        <time>2023-08-02T10:28:04.000Z</time>
      </trkpt>
      <trkpt lat="43.76162" lon="7.12353">
        <ele>707</ele>
        <time>2023-08-02T10:28:05.000Z</time>
      </trkpt>
      <trkpt lat="43.76161" lon="7.12352">
        <ele>707</ele>
        <time>2023-08-02T10:28:06.000Z</time>
      </trkpt>
      <trkpt lat="43.76161" lon="7.12352">
        <ele>707</ele>
        <time>2023-08-02T10:28:07.000Z</time>
      </trkpt>
      <trkpt lat="43.7616" lon="7.12352">
        <ele>707</ele>
        <time>2023-08-02T10:28:08.000Z</time>
      </trkpt>
      <trkpt lat="43.7616" lon="7.12351">
        <ele>707</ele>
        <time>2023-08-02T10:28:09.000Z</time>
      </trkpt>
      <trkpt lat="43.7616" lon="7.12351">
        <ele>707</ele>
        <time>2023-08-02T10:28:10.000Z</time>
      </trkpt>
      <trkpt lat="43.7616" lon="7.12351">
        <ele>707</ele>
        <time>2023-08-02T10:28:11.000Z</time>
      </trkpt>
      <trkpt lat="43.7616" lon="7.12351">
        <ele>707</ele>
        <time>2023-08-02T10:28:12.000Z</time>
      </trkpt>
      <trkpt lat="43.7616" lon="7.12351">
        <ele>707</ele>
        <time>2023-08-02T10:28:13.000Z</time>
      </trkpt>
      <trkpt lat="43.7616" lon="7.12351">
        <ele>707</ele>
        <time>2023-08-02T10:28:14.000Z</time>
      </trkpt>
      <trkpt lat="43.7616" lon="7.12351">
        <ele>707</ele>
        <time>2023-08-02T10:28:15.000Z</time>
      </trkpt>
      <trkpt lat="43.7616" lon="7.12351">
        <ele>707</ele>
        <time>2023-08-02T10:28:16.000Z</time>
      </trkpt>
      <trkpt lat="43.7616" lon="7.12351">
        <ele>707</ele>
        <time>2023-08-02T10:28:17.000Z</time>
      </trkpt>
      <trkpt lat="43.7616" lon="7.12351">
        <ele>707</ele>
        <time>2023-08-02T10:28:18.000Z</time>
      </trkpt>
      <trkpt lat="43.7616" lon="7.12351">
        <ele>707</ele>
        <time>2023-08-02T10:28:19.000Z</time>
      </trkpt>
      <trkpt lat="43.7616" lon="7.12351">
        <ele>707</ele>
        <time>2023-08-02T10:28:20.000Z</time>
      </trkpt>
      <trkpt lat="43.7616" lon="7.12351">
        <ele>707</ele>
        <time>2023-08-02T10:28:21.000Z</time>
      </trkpt>
      <trkpt lat="43.7616" lon="7.12351">
        <ele>707</ele>
        <time>2023-08-02T10:28:22.000Z</time>
      </trkpt>
      <trkpt lat="43.7616" lon="7.12351">
        <ele>707</ele>
        <time>2023-08-02T10:28:23.000Z</time>
      </trkpt>
      <trkpt lat="43.7616" lon="7.12351">
        <ele>707</ele>
        <time>2023-08-02T10:28:24.000Z</time>
      </trkpt>
      <trkpt lat="43.7616" lon="7.12351">
        <ele>707</ele>
        <time>2023-08-02T10:28:25.000Z</time>
      </trkpt>
      <trkpt lat="43.7616" lon="7.12351">
        <ele>707</ele>
        <time>2023-08-02T10:28:26.000Z</time>
      </trkpt>
      <trkpt lat="43.7616" lon="7.12351">
        <ele>707</ele>
        <time>2023-08-02T10:28:27.000Z</time>
      </trkpt>
      <trkpt lat="43.7616" lon="7.12351">
        <ele>707</ele>
        <time>2023-08-02T10:28:28.000Z</time>
      </trkpt>
      <trkpt lat="43.7616" lon="7.12351">
        <ele>707</ele>
        <time>2023-08-02T10:28:29.000Z</time>
      </trkpt>
      <trkpt lat="43.7616" lon="7.12351">
        <ele>707</ele>
        <time>2023-08-02T10:28:30.000Z</time>
      </trkpt>
      <trkpt lat="43.7616" lon="7.12351">
        <ele>707</ele>
        <time>2023-08-02T10:28:31.000Z</time>
      </trkpt>
      <trkpt lat="43.7616" lon="7.12351">
        <ele>707</ele>
        <time>2023-08-02T10:28:32.000Z</time>
      </trkpt>
      <trkpt lat="43.7616" lon="7.12351">
        <ele>707</ele>
        <time>2023-08-02T10:28:33.000Z</time>
      </trkpt>
      <trkpt lat="43.7616" lon="7.12351">
        <ele>707</ele>
        <time>2023-08-02T10:28:34.000Z</time>
      </trkpt>
      <trkpt lat="43.7616" lon="7.12351">
        <ele>707</ele>
        <time>2023-08-02T10:28:35.000Z</time>
      </trkpt>
      <trkpt lat="43.7616" lon="7.12351">
        <ele>707</ele>
        <time>2023-08-02T10:28:36.000Z</time>
      </trkpt>
      <trkpt lat="43.7616" lon="7.12351">
        <ele>707</ele>
        <time>2023-08-02T10:28:37.000Z</time>
      </trkpt>
      <trkpt lat="43.7616" lon="7.12351">
        <ele>707</ele>
        <time>2023-08-02T10:28:38.000Z</time>
      </trkpt>
      <trkpt lat="43.7616" lon="7.12351">
        <ele>707</ele>
        <time>2023-08-02T10:28:39.000Z</time>
      </trkpt>
      <trkpt lat="43.7616" lon="7.12351">
        <ele>707</ele>
        <time>2023-08-02T10:28:40.000Z</time>
      </trkpt>
      <trkpt lat="43.7616" lon="7.12351">
        <ele>707</ele>
        <time>2023-08-02T10:28:41.000Z</time>
      </trkpt>
      <trkpt lat="43.7616" lon="7.12351">
        <ele>707</ele>
        <time>2023-08-02T10:28:42.000Z</time>
      </trkpt>
      <trkpt lat="43.7616" lon="7.12351">
        <ele>707</ele>
        <time>2023-08-02T10:28:43.000Z</time>
      </trkpt>
      <trkpt lat="43.7616" lon="7.12351">
        <ele>707</ele>
        <time>2023-08-02T10:28:44.000Z</time>
      </trkpt>
      <trkpt lat="43.7616" lon="7.12351">
        <ele>707</ele>
        <time>2023-08-02T10:28:45.000Z</time>
      </trkpt>
      <trkpt lat="43.7616" lon="7.12351">
        <ele>707</ele>
        <time>2023-08-02T10:28:46.000Z</time>
      </trkpt>
      <trkpt lat="43.7616" lon="7.12351">
        <ele>707</ele>
        <time>2023-08-02T10:28:47.000Z</time>
      </trkpt>
      <trkpt lat="43.7616" lon="7.12351">
        <ele>707</ele>
        <time>2023-08-02T10:28:48.000Z</time>
      </trkpt>
      <trkpt lat="43.7616" lon="7.12351">
        <ele>707</ele>
        <time>2023-08-02T10:28:49.000Z</time>
      </trkpt>
      <trkpt lat="43.7616" lon="7.12351">
        <ele>707</ele>
        <time>2023-08-02T10:28:50.000Z</time>
      </trkpt>
      <trkpt lat="43.7616" lon="7.12351">
        <ele>707</ele>
        <time>2023-08-02T10:28:51.000Z</time>
      </trkpt>
      <trkpt lat="43.7616" lon="7.12351">
        <ele>707</ele>
        <time>2023-08-02T10:28:52.000Z</time>
      </trkpt>
      <trkpt lat="43.7616" lon="7.12351">
        <ele>707</ele>
        <time>2023-08-02T10:28:53.000Z</time>
      </trkpt>
      <trkpt lat="43.7616" lon="7.12351">
        <ele>707</ele>
        <time>2023-08-02T10:28:54.000Z</time>
      </trkpt>
      <trkpt lat="43.7616" lon="7.12351">
        <ele>707</ele>
        <time>2023-08-02T10:28:55.000Z</time>
      </trkpt>
      <trkpt lat="43.7616" lon="7.12351">
        <ele>707</ele>
        <time>2023-08-02T10:28:56.000Z</time>
      </trkpt>
      <trkpt lat="43.7616" lon="7.12351">
        <ele>707</ele>
        <time>2023-08-02T10:28:57.000Z</time>
      </trkpt>
      <trkpt lat="43.7616" lon="7.12351">
        <ele>707</ele>
        <time>2023-08-02T10:28:58.000Z</time>
      </trkpt>
      <trkpt lat="43.7616" lon="7.12351">
        <ele>707</ele>
        <time>2023-08-02T10:28:59.000Z</time>
      </trkpt>
      <trkpt lat="43.7616" lon="7.12351">
        <ele>707</ele>
        <time>2023-08-02T10:29:00.000Z</time>
      </trkpt>
      <trkpt lat="43.7616" lon="7.12351">
        <ele>707</ele>
        <time>2023-08-02T10:29:01.000Z</time>
      </trkpt>
      <trkpt lat="43.7616" lon="7.12351">
        <ele>707</ele>
        <time>2023-08-02T10:29:02.000Z</time>
      </trkpt>
      <trkpt lat="43.7616" lon="7.12351">
        <ele>707</ele>
        <time>2023-08-02T10:29:03.000Z</time>
      </trkpt>
      <trkpt lat="43.7616" lon="7.12351">
        <ele>707</ele>
        <time>2023-08-02T10:29:04.000Z</time>
      </trkpt>
      <trkpt lat="43.7616" lon="7.12351">
        <ele>707</ele>
        <time>2023-08-02T10:29:05.000Z</time>
      </trkpt>
      <trkpt lat="43.7616" lon="7.12351">
        <ele>707</ele>
        <time>2023-08-02T10:29:06.000Z</time>
      </trkpt>
      <trkpt lat="43.7616" lon="7.12351">
        <ele>707</ele>
        <time>2023-08-02T10:29:07.000Z</time>
      </trkpt>
      <trkpt lat="43.7616" lon="7.12351">
        <ele>707</ele>
        <time>2023-08-02T10:29:08.000Z</time>
      </trkpt>
      <trkpt lat="43.7616" lon="7.12351">
        <ele>707</ele>
        <time>2023-08-02T10:29:09.000Z</time>
      </trkpt>
      <trkpt lat="43.7616" lon="7.12351">
        <ele>707</ele>
        <time>2023-08-02T10:29:10.000Z</time>
      </trkpt>
      <trkpt lat="43.7616" lon="7.12351">
        <ele>707</ele>
        <time>2023-08-02T10:29:11.000Z</time>
      </trkpt>
      <trkpt lat="43.7616" lon="7.12351">
        <ele>707</ele>
        <time>2023-08-02T10:29:12.000Z</time>
      </trkpt>
      <trkpt lat="43.7616" lon="7.12351">
        <ele>707</ele>
        <time>2023-08-02T10:29:13.000Z</time>
      </trkpt>
      <trkpt lat="43.7616" lon="7.12351">
        <ele>707</ele>
        <time>2023-08-02T10:29:14.000Z</time>
      </trkpt>
      <trkpt lat="43.7616" lon="7.12351">
        <ele>707</ele>
        <time>2023-08-02T10:29:15.000Z</time>
      </trkpt>
      <trkpt lat="43.7616" lon="7.12351">
        <ele>707</ele>
        <time>2023-08-02T10:29:16.000Z</time>
      </trkpt>
      <trkpt lat="43.7616" lon="7.12351">
        <ele>707</ele>
        <time>2023-08-02T10:29:17.000Z</time>
      </trkpt>
      <trkpt lat="43.7616" lon="7.12351">
        <ele>707</ele>
        <time>2023-08-02T10:29:18.000Z</time>
      </trkpt>
      <trkpt lat="43.7616" lon="7.12351">
        <ele>707</ele>
        <time>2023-08-02T10:29:19.000Z</time>
      </trkpt>
      <trkpt lat="43.7616" lon="7.12351">
        <ele>707</ele>
        <time>2023-08-02T10:29:20.000Z</time>
      </trkpt>
      <trkpt lat="43.7616" lon="7.12351">
        <ele>707</ele>
        <time>2023-08-02T10:29:21.000Z</time>
      </trkpt>
      <trkpt lat="43.7616" lon="7.12351">
        <ele>707</ele>
        <time>2023-08-02T10:29:22.000Z</time>
      </trkpt>
      <trkpt lat="43.7616" lon="7.12351">
        <ele>707</ele>
        <time>2023-08-02T10:29:23.000Z</time>
      </trkpt>
      <trkpt lat="43.7616" lon="7.12351">
        <ele>707</ele>
        <time>2023-08-02T10:29:24.000Z</time>
      </trkpt>
      <trkpt lat="43.7616" lon="7.12351">
        <ele>707</ele>
        <time>2023-08-02T10:29:25.000Z</time>
      </trkpt>
      <trkpt lat="43.7616" lon="7.12351">
        <ele>707</ele>
        <time>2023-08-02T10:29:26.000Z</time>
      </trkpt>
      <trkpt lat="43.7616" lon="7.12351">
        <ele>707</ele>
        <time>2023-08-02T10:29:27.000Z</time>
      </trkpt>
      <trkpt lat="43.7616" lon="7.12351">
        <ele>707</ele>
        <time>2023-08-02T10:29:28.000Z</time>
      </trkpt>
      <trkpt lat="43.7616" lon="7.12351">
        <ele>707</ele>
        <time>2023-08-02T10:29:29.000Z</time>
      </trkpt>
      <trkpt lat="43.7616" lon="7.12351">
        <ele>707</ele>
        <time>2023-08-02T10:29:30.000Z</time>
      </trkpt>
      <trkpt lat="43.7616" lon="7.12351">
        <ele>707</ele>
        <time>2023-08-02T10:29:31.000Z</time>
      </trkpt>
      <trkpt lat="43.7616" lon="7.12351">
        <ele>707</ele>
        <time>2023-08-02T10:29:32.000Z</time>
      </trkpt>
      <trkpt lat="43.7616" lon="7.12351">
        <ele>707</ele>
        <time>2023-08-02T10:29:33.000Z</time>
      </trkpt>
      <trkpt lat="43.7616" lon="7.12351">
        <ele>707</ele>
        <time>2023-08-02T10:29:34.000Z</time>
      </trkpt>
      <trkpt lat="43.7616" lon="7.12351">
        <ele>707</ele>
        <time>2023-08-02T10:29:35.000Z</time>
      </trkpt>
      <trkpt lat="43.7616" lon="7.12351">
        <ele>707</ele>
        <time>2023-08-02T10:29:36.000Z</time>
      </trkpt>
      <trkpt lat="43.7616" lon="7.12351">
        <ele>707</ele>
        <time>2023-08-02T10:29:37.000Z</time>
      </trkpt>
      <trkpt lat="43.7616" lon="7.12351">
        <ele>707</ele>
        <time>2023-08-02T10:29:38.000Z</time>
      </trkpt>
      <trkpt lat="43.7616" lon="7.12351">
        <ele>707</ele>
        <time>2023-08-02T10:29:39.000Z</time>
      </trkpt>
      <trkpt lat="43.7616" lon="7.12351">
        <ele>707</ele>
        <time>2023-08-02T10:29:40.000Z</time>
      </trkpt>
      <trkpt lat="43.7616" lon="7.12351">
        <ele>707</ele>
        <time>2023-08-02T10:29:41.000Z</time>
      </trkpt>
      <trkpt lat="43.7616" lon="7.12351">
        <ele>707</ele>
        <time>2023-08-02T10:29:42.000Z</time>
      </trkpt>
      <trkpt lat="43.7616" lon="7.12351">
        <ele>707</ele>
        <time>2023-08-02T10:29:43.000Z</time>
      </trkpt>
      <trkpt lat="43.7616" lon="7.12351">
        <ele>707</ele>
        <time>2023-08-02T10:29:44.000Z</time>
      </trkpt>
      <trkpt lat="43.7616" lon="7.12351">
        <ele>707</ele>
        <time>2023-08-02T10:29:45.000Z</time>
      </trkpt>
      <trkpt lat="43.7616" lon="7.12351">
        <ele>707</ele>
        <time>2023-08-02T10:29:46.000Z</time>
      </trkpt>
      <trkpt lat="43.7616" lon="7.12351">
        <ele>707</ele>
        <time>2023-08-02T10:29:47.000Z</time>
      </trkpt>
      <trkpt lat="43.7616" lon="7.12351">
        <ele>707</ele>
        <time>2023-08-02T10:29:48.000Z</time>
      </trkpt>
      <trkpt lat="43.7616" lon="7.12351">
        <ele>707</ele>
        <time>2023-08-02T10:29:49.000Z</time>
      </trkpt>
      <trkpt lat="43.7616" lon="7.12351">
        <ele>707</ele>
        <time>2023-08-02T10:29:50.000Z</time>
      </trkpt>
      <trkpt lat="43.7616" lon="7.12351">
        <ele>707</ele>
        <time>2023-08-02T10:29:51.000Z</time>
      </trkpt>
      <trkpt lat="43.7616" lon="7.12351">
        <ele>707</ele>
        <time>2023-08-02T10:29:52.000Z</time>
      </trkpt>
      <trkpt lat="43.7616" lon="7.12351">
        <ele>707</ele>
        <time>2023-08-02T10:29:53.000Z</time>
      </trkpt>
      <trkpt lat="43.7616" lon="7.12351">
        <ele>707</ele>
        <time>2023-08-02T10:29:54.000Z</time>
      </trkpt>
      <trkpt lat="43.7616" lon="7.12351">
        <ele>707</ele>
        <time>2023-08-02T10:29:55.000Z</time>
      </trkpt>
      <trkpt lat="43.7616" lon="7.12351">
        <ele>707</ele>
        <time>2023-08-02T10:29:56.000Z</time>
      </trkpt>
      <trkpt lat="43.7616" lon="7.12351">
        <ele>707</ele>
        <time>2023-08-02T10:29:57.000Z</time>
      </trkpt>
      <trkpt lat="43.7616" lon="7.12351">
        <ele>707</ele>
        <time>2023-08-02T10:29:58.000Z</time>
      </trkpt>
      <trkpt lat="43.7616" lon="7.12351">
        <ele>707</ele>
        <time>2023-08-02T10:29:59.000Z</time>
      </trkpt>
      <trkpt lat="43.7616" lon="7.12351">
        <ele>707</ele>
        <time>2023-08-02T10:30:00.000Z</time>
      </trkpt>
      <trkpt lat="43.7616" lon="7.12351">
        <ele>707</ele>
        <time>2023-08-02T10:30:01.000Z</time>
      </trkpt>
      <trkpt lat="43.7616" lon="7.12351">
        <ele>707</ele>
        <time>2023-08-02T10:30:02.000Z</time>
      </trkpt>
      <trkpt lat="43.7616" lon="7.12351">
        <ele>707</ele>
        <time>2023-08-02T10:30:03.000Z</time>
      </trkpt>
      <trkpt lat="43.7616" lon="7.12351">
        <ele>707</ele>
        <time>2023-08-02T10:30:04.000Z</time>
      </trkpt>
      <trkpt lat="43.7616" lon="7.12351">
        <ele>707</ele>
        <time>2023-08-02T10:30:05.000Z</time>
      </trkpt>
      <trkpt lat="43.7616" lon="7.12351">
        <ele>707</ele>
        <time>2023-08-02T10:30:06.000Z</time>
      </trkpt>
      <trkpt lat="43.7616" lon="7.12351">
        <ele>707</ele>
        <time>2023-08-02T10:30:07.000Z</time>
      </trkpt>
      <trkpt lat="43.7616" lon="7.12351">
        <ele>707</ele>
        <time>2023-08-02T10:30:08.000Z</time>
      </trkpt>
      <trkpt lat="43.7616" lon="7.12351">
        <ele>707</ele>
        <time>2023-08-02T10:30:09.000Z</time>
      </trkpt>
      <trkpt lat="43.7616" lon="7.12351">
        <ele>707</ele>
        <time>2023-08-02T10:30:10.000Z</time>
      </trkpt>
      <trkpt lat="43.7616" lon="7.12351">
        <ele>707</ele>
        <time>2023-08-02T10:30:11.000Z</time>
      </trkpt>
      <trkpt lat="43.7616" lon="7.12351">
        <ele>707</ele>
        <time>2023-08-02T10:30:12.000Z</time>
      </trkpt>
      <trkpt lat="43.7616" lon="7.12351">
        <ele>707</ele>
        <time>2023-08-02T10:30:13.000Z</time>
      </trkpt>
      <trkpt lat="43.7616" lon="7.12351">
        <ele>707</ele>
        <time>2023-08-02T10:30:14.000Z</time>
      </trkpt>
      <trkpt lat="43.7616" lon="7.12351">
        <ele>707</ele>
        <time>2023-08-02T10:30:15.000Z</time>
      </trkpt>
      <trkpt lat="43.7616" lon="7.12351">
        <ele>707</ele>
        <time>2023-08-02T10:30:16.000Z</time>
      </trkpt>
      <trkpt lat="43.7616" lon="7.12351">
        <ele>707</ele>
        <time>2023-08-02T10:30:17.000Z</time>
      </trkpt>
      <trkpt lat="43.7616" lon="7.12351">
        <ele>707</ele>
        <time>2023-08-02T10:30:18.000Z</time>
      </trkpt>
      <trkpt lat="43.7616" lon="7.12351">
        <ele>707</ele>
        <time>2023-08-02T10:30:19.000Z</time>
      </trkpt>
      <trkpt lat="43.7616" lon="7.12351">
        <ele>707</ele>
        <time>2023-08-02T10:30:20.000Z</time>
      </trkpt>
      <trkpt lat="43.7616" lon="7.12351">
        <ele>707</ele>
        <time>2023-08-02T10:30:21.000Z</time>
      </trkpt>
      <trkpt lat="43.7616" lon="7.12351">
        <ele>707</ele>
        <time>2023-08-02T10:30:22.000Z</time>
      </trkpt>
      <trkpt lat="43.7616" lon="7.12351">
        <ele>707</ele>
        <time>2023-08-02T10:30:23.000Z</time>
      </trkpt>
      <trkpt lat="43.7616" lon="7.12351">
        <ele>707</ele>
        <time>2023-08-02T10:30:24.000Z</time>
      </trkpt>
      <trkpt lat="43.7616" lon="7.12351">
        <ele>707</ele>
        <time>2023-08-02T10:30:25.000Z</time>
      </trkpt>
      <trkpt lat="43.7616" lon="7.12351">
        <ele>707</ele>
        <time>2023-08-02T10:30:26.000Z</time>
      </trkpt>
      <trkpt lat="43.7616" lon="7.12351">
        <ele>707</ele>
        <time>2023-08-02T10:30:27.000Z</time>
      </trkpt>
      <trkpt lat="43.7616" lon="7.12351">
        <ele>707</ele>
        <time>2023-08-02T10:30:28.000Z</time>
      </trkpt>
      <trkpt lat="43.7616" lon="7.12351">
        <ele>707</ele>
        <time>2023-08-02T10:30:29.000Z</time>
      </trkpt>
      <trkpt lat="43.7616" lon="7.12351">
        <ele>707</ele>
        <time>2023-08-02T10:30:30.000Z</time>
      </trkpt>
      <trkpt lat="43.7616" lon="7.12351">
        <ele>707</ele>
        <time>2023-08-02T10:30:31.000Z</time>
      </trkpt>
      <trkpt lat="43.7616" lon="7.12351">
        <ele>707</ele>
        <time>2023-08-02T10:30:32.000Z</time>
      </trkpt>
      <trkpt lat="43.7616" lon="7.12351">
        <ele>707</ele>
        <time>2023-08-02T10:30:33.000Z</time>
      </trkpt>
      <trkpt lat="43.7616" lon="7.12351">
        <ele>707</ele>
        <time>2023-08-02T10:30:34.000Z</time>
      </trkpt>
      <trkpt lat="43.7616" lon="7.12351">
        <ele>707</ele>
        <time>2023-08-02T10:30:35.000Z</time>
      </trkpt>
      <trkpt lat="43.7616" lon="7.12351">
        <ele>707</ele>
        <time>2023-08-02T10:30:36.000Z</time>
      </trkpt>
      <trkpt lat="43.7616" lon="7.12351">
        <ele>707</ele>
        <time>2023-08-02T10:30:37.000Z</time>
      </trkpt>
      <trkpt lat="43.7616" lon="7.12351">
        <ele>707</ele>
        <time>2023-08-02T10:30:38.000Z</time>
      </trkpt>
      <trkpt lat="43.7616" lon="7.12351">
        <ele>707</ele>
        <time>2023-08-02T10:30:39.000Z</time>
      </trkpt>
      <trkpt lat="43.7616" lon="7.12351">
        <ele>707</ele>
        <time>2023-08-02T10:30:40.000Z</time>
      </trkpt>
      <trkpt lat="43.7616" lon="7.12351">
        <ele>707</ele>
        <time>2023-08-02T10:30:41.000Z</time>
      </trkpt>
      <trkpt lat="43.7616" lon="7.12351">
        <ele>707</ele>
        <time>2023-08-02T10:30:42.000Z</time>
      </trkpt>
      <trkpt lat="43.7616" lon="7.12351">
        <ele>707</ele>
        <time>2023-08-02T10:30:43.000Z</time>
      </trkpt>
      <trkpt lat="43.7616" lon="7.12351">
        <ele>707</ele>
        <time>2023-08-02T10:30:44.000Z</time>
      </trkpt>
      <trkpt lat="43.7616" lon="7.12351">
        <ele>707</ele>
        <time>2023-08-02T10:30:45.000Z</time>
      </trkpt>
      <trkpt lat="43.7616" lon="7.12351">
        <ele>707</ele>
        <time>2023-08-02T10:30:46.000Z</time>
      </trkpt>
      <trkpt lat="43.7616" lon="7.12351">
        <ele>707</ele>
        <time>2023-08-02T10:30:47.000Z</time>
      </trkpt>
      <trkpt lat="43.7616" lon="7.12351">
        <ele>707</ele>
        <time>2023-08-02T10:30:48.000Z</time>
      </trkpt>
      <trkpt lat="43.7616" lon="7.12351">
        <ele>707</ele>
        <time>2023-08-02T10:30:49.000Z</time>
      </trkpt>
      <trkpt lat="43.7616" lon="7.12351">
        <ele>707</ele>
        <time>2023-08-02T10:30:50.000Z</time>
      </trkpt>
      <trkpt lat="43.7616" lon="7.12351">
        <ele>707</ele>
        <time>2023-08-02T10:30:51.000Z</time>
      </trkpt>
      <trkpt lat="43.7616" lon="7.12351">
        <ele>707</ele>
        <time>2023-08-02T10:30:52.000Z</time>
      </trkpt>
      <trkpt lat="43.7616" lon="7.12351">
        <ele>707</ele>
        <time>2023-08-02T10:30:53.000Z</time>
      </trkpt>
      <trkpt lat="43.7616" lon="7.12351">
        <ele>707</ele>
        <time>2023-08-02T10:30:54.000Z</time>
      </trkpt>
      <trkpt lat="43.7616" lon="7.12351">
        <ele>707</ele>
        <time>2023-08-02T10:30:55.000Z</time>
      </trkpt>
      <trkpt lat="43.7616" lon="7.12351">
        <ele>707</ele>
        <time>2023-08-02T10:30:56.000Z</time>
      </trkpt>
      <trkpt lat="43.7616" lon="7.12351">
        <ele>707</ele>
        <time>2023-08-02T10:30:57.000Z</time>
      </trkpt>
      <trkpt lat="43.7616" lon="7.12351">
        <ele>707</ele>
        <time>2023-08-02T10:30:58.000Z</time>
      </trkpt>
      <trkpt lat="43.7616" lon="7.12351">
        <ele>707</ele>
        <time>2023-08-02T10:30:59.000Z</time>
      </trkpt>
      <trkpt lat="43.7616" lon="7.12351">
        <ele>707</ele>
        <time>2023-08-02T10:31:00.000Z</time>
      </trkpt>
      <trkpt lat="43.7616" lon="7.12351">
        <ele>707</ele>
        <time>2023-08-02T10:31:01.000Z</time>
      </trkpt>
      <trkpt lat="43.7616" lon="7.12351">
        <ele>707</ele>
        <time>2023-08-02T10:31:02.000Z</time>
      </trkpt>
      <trkpt lat="43.7616" lon="7.12351">
        <ele>707</ele>
        <time>2023-08-02T10:31:03.000Z</time>
      </trkpt>
      <trkpt lat="43.7616" lon="7.12351">
        <ele>707</ele>
        <time>2023-08-02T10:31:04.000Z</time>
      </trkpt>
      <trkpt lat="43.7616" lon="7.12351">
        <ele>707</ele>
        <time>2023-08-02T10:31:05.000Z</time>
      </trkpt>
      <trkpt lat="43.7616" lon="7.12351">
        <ele>707</ele>
        <time>2023-08-02T10:31:06.000Z</time>
      </trkpt>
      <trkpt lat="43.7616" lon="7.12351">
        <ele>707</ele>
        <time>2023-08-02T10:31:07.000Z</time>
      </trkpt>
      <trkpt lat="43.7616" lon="7.12351">
        <ele>707</ele>
        <time>2023-08-02T10:31:08.000Z</time>
      </trkpt>
      <trkpt lat="43.7616" lon="7.12351">
        <ele>707</ele>
        <time>2023-08-02T10:31:09.000Z</time>
      </trkpt>
      <trkpt lat="43.7616" lon="7.12351">
        <ele>707</ele>
        <time>2023-08-02T10:31:10.000Z</time>
      </trkpt>
      <trkpt lat="43.7616" lon="7.12351">
        <ele>707</ele>
        <time>2023-08-02T10:31:11.000Z</time>
      </trkpt>
      <trkpt lat="43.7616" lon="7.12351">
        <ele>707</ele>
        <time>2023-08-02T10:31:12.000Z</time>
      </trkpt>
      <trkpt lat="43.7616" lon="7.12351">
        <ele>707</ele>
        <time>2023-08-02T10:31:13.000Z</time>
      </trkpt>
      <trkpt lat="43.7616" lon="7.12351">
        <ele>707</ele>
        <time>2023-08-02T10:31:14.000Z</time>
      </trkpt>
      <trkpt lat="43.7616" lon="7.12351">
        <ele>707</ele>
        <time>2023-08-02T10:31:15.000Z</time>
      </trkpt>
      <trkpt lat="43.7616" lon="7.12351">
        <ele>707</ele>
        <time>2023-08-02T10:31:16.000Z</time>
      </trkpt>
      <trkpt lat="43.7616" lon="7.12351">
        <ele>707</ele>
        <time>2023-08-02T10:31:17.000Z</time>
      </trkpt>
      <trkpt lat="43.7616" lon="7.12351">
        <ele>707</ele>
        <time>2023-08-02T10:31:18.000Z</time>
      </trkpt>
      <trkpt lat="43.7616" lon="7.12351">
        <ele>707</ele>
        <time>2023-08-02T10:31:19.000Z</time>
      </trkpt>
      <trkpt lat="43.7616" lon="7.12351">
        <ele>707</ele>
        <time>2023-08-02T10:31:20.000Z</time>
      </trkpt>
      <trkpt lat="43.7616" lon="7.12351">
        <ele>707</ele>
        <time>2023-08-02T10:31:21.000Z</time>
      </trkpt>
      <trkpt lat="43.7616" lon="7.12351">
        <ele>707</ele>
        <time>2023-08-02T10:31:22.000Z</time>
      </trkpt>
      <trkpt lat="43.7616" lon="7.12351">
        <ele>707</ele>
        <time>2023-08-02T10:31:23.000Z</time>
      </trkpt>
      <trkpt lat="43.7616" lon="7.12351">
        <ele>707</ele>
        <time>2023-08-02T10:31:24.000Z</time>
      </trkpt>
      <trkpt lat="43.7616" lon="7.12351">
        <ele>707</ele>
        <time>2023-08-02T10:31:25.000Z</time>
      </trkpt>
      <trkpt lat="43.7616" lon="7.12351">
        <ele>707</ele>
        <time>2023-08-02T10:31:26.000Z</time>
      </trkpt>
      <trkpt lat="43.7616" lon="7.12351">
        <ele>707</ele>
        <time>2023-08-02T10:31:27.000Z</time>
      </trkpt>
      <trkpt lat="43.7616" lon="7.12351">
        <ele>707</ele>
        <time>2023-08-02T10:31:28.000Z</time>
      </trkpt>
      <trkpt lat="43.7616" lon="7.12351">
        <ele>707</ele>
        <time>2023-08-02T10:31:29.000Z</time>
      </trkpt>
      <trkpt lat="43.7616" lon="7.12351">
        <ele>707</ele>
        <time>2023-08-02T10:31:30.000Z</time>
      </trkpt>
      <trkpt lat="43.7616" lon="7.12351">
        <ele>707</ele>
        <time>2023-08-02T10:31:31.000Z</time>
      </trkpt>
      <trkpt lat="43.7616" lon="7.12351">
        <ele>707</ele>
        <time>2023-08-02T10:31:32.000Z</time>
      </trkpt>
      <trkpt lat="43.7616" lon="7.12351">
        <ele>707</ele>
        <time>2023-08-02T10:31:33.000Z</time>
      </trkpt>
      <trkpt lat="43.7616" lon="7.12351">
        <ele>707</ele>
        <time>2023-08-02T10:31:34.000Z</time>
      </trkpt>
      <trkpt lat="43.7616" lon="7.12351">
        <ele>707</ele>
        <time>2023-08-02T10:31:35.000Z</time>
      </trkpt>
      <trkpt lat="43.7616" lon="7.12351">
        <ele>707</ele>
        <time>2023-08-02T10:31:36.000Z</time>
      </trkpt>
      <trkpt lat="43.7616" lon="7.12351">
        <ele>707</ele>
        <time>2023-08-02T10:31:37.000Z</time>
      </trkpt>
      <trkpt lat="43.7616" lon="7.12351">
        <ele>707</ele>
        <time>2023-08-02T10:31:38.000Z</time>
      </trkpt>
      <trkpt lat="43.7616" lon="7.12351">
        <ele>707</ele>
        <time>2023-08-02T10:31:39.000Z</time>
      </trkpt>
      <trkpt lat="43.7616" lon="7.12351">
        <ele>707</ele>
        <time>2023-08-02T10:31:40.000Z</time>
      </trkpt>
      <trkpt lat="43.7616" lon="7.12351">
        <ele>707</ele>
        <time>2023-08-02T10:31:41.000Z</time>
      </trkpt>
      <trkpt lat="43.7616" lon="7.12351">
        <ele>707</ele>
        <time>2023-08-02T10:31:42.000Z</time>
      </trkpt>
      <trkpt lat="43.7616" lon="7.12351">
        <ele>707</ele>
        <time>2023-08-02T10:31:43.000Z</time>
      </trkpt>
      <trkpt lat="43.7616" lon="7.12351">
        <ele>707</ele>
        <time>2023-08-02T10:31:44.000Z</time>
      </trkpt>
      <trkpt lat="43.7616" lon="7.12351">
        <ele>707</ele>
        <time>2023-08-02T10:31:45.000Z</time>
      </trkpt>
      <trkpt lat="43.7616" lon="7.12351">
        <ele>707</ele>
        <time>2023-08-02T10:31:46.000Z</time>
      </trkpt>
      <trkpt lat="43.7616" lon="7.12351">
        <ele>707</ele>
        <time>2023-08-02T10:31:47.000Z</time>
      </trkpt>
      <trkpt lat="43.7616" lon="7.12351">
        <ele>707</ele>
        <time>2023-08-02T10:31:48.000Z</time>
      </trkpt>
      <trkpt lat="43.7616" lon="7.12351">
        <ele>707</ele>
        <time>2023-08-02T10:31:49.000Z</time>
      </trkpt>
      <trkpt lat="43.7616" lon="7.12351">
        <ele>707</ele>
        <time>2023-08-02T10:31:50.000Z</time>
      </trkpt>
      <trkpt lat="43.7616" lon="7.12351">
        <ele>707</ele>
        <time>2023-08-02T10:31:51.000Z</time>
      </trkpt>
      <trkpt lat="43.7616" lon="7.12351">
        <ele>707</ele>
        <time>2023-08-02T10:31:52.000Z</time>
      </trkpt>
      <trkpt lat="43.7616" lon="7.12351">
        <ele>707</ele>
        <time>2023-08-02T10:31:53.000Z</time>
      </trkpt>
      <trkpt lat="43.7616" lon="7.12351">
        <ele>707</ele>
        <time>2023-08-02T10:31:54.000Z</time>
      </trkpt>
      <trkpt lat="43.7616" lon="7.12351">
        <ele>707</ele>
        <time>2023-08-02T10:31:55.000Z</time>
      </trkpt>
      <trkpt lat="43.7616" lon="7.12351">
        <ele>707</ele>
        <time>2023-08-02T10:31:56.000Z</time>
      </trkpt>
      <trkpt lat="43.7616" lon="7.12351">
        <ele>707</ele>
        <time>2023-08-02T10:31:57.000Z</time>
      </trkpt>
      <trkpt lat="43.7616" lon="7.12351">
        <ele>707</ele>
        <time>2023-08-02T10:31:58.000Z</time>
      </trkpt>
      <trkpt lat="43.7616" lon="7.12351">
        <ele>707</ele>
        <time>2023-08-02T10:31:59.000Z</time>
      </trkpt>
      <trkpt lat="43.7616" lon="7.12351">
        <ele>707</ele>
        <time>2023-08-02T10:32:00.000Z</time>
      </trkpt>
      <trkpt lat="43.7616" lon="7.12351">
        <ele>707</ele>
        <time>2023-08-02T10:32:01.000Z</time>
      </trkpt>
      <trkpt lat="43.7616" lon="7.12351">
        <ele>707</ele>
        <time>2023-08-02T10:32:02.000Z</time>
      </trkpt>
      <trkpt lat="43.7616" lon="7.12351">
        <ele>707</ele>
        <time>2023-08-02T10:32:03.000Z</time>
      </trkpt>
      <trkpt lat="43.7616" lon="7.12351">
        <ele>707</ele>
        <time>2023-08-02T10:32:04.000Z</time>
      </trkpt>
      <trkpt lat="43.7616" lon="7.12351">
        <ele>707</ele>
        <time>2023-08-02T10:32:05.000Z</time>
      </trkpt>
      <trkpt lat="43.7616" lon="7.12351">
        <ele>707</ele>
        <time>2023-08-02T10:32:06.000Z</time>
      </trkpt>
      <trkpt lat="43.7616" lon="7.12351">
        <ele>707</ele>
        <time>2023-08-02T10:32:07.000Z</time>
      </trkpt>
      <trkpt lat="43.7616" lon="7.12351">
        <ele>707</ele>
        <time>2023-08-02T10:32:08.000Z</time>
      </trkpt>
      <trkpt lat="43.7616" lon="7.12351">
        <ele>707</ele>
        <time>2023-08-02T10:32:09.000Z</time>
      </trkpt>
      <trkpt lat="43.7616" lon="7.12351">
        <ele>707</ele>
        <time>2023-08-02T10:32:10.000Z</time>
      </trkpt>
      <trkpt lat="43.7616" lon="7.12351">
        <ele>707</ele>
        <time>2023-08-02T10:32:11.000Z</time>
      </trkpt>
      <trkpt lat="43.7616" lon="7.12351">
        <ele>707</ele>
        <time>2023-08-02T10:32:12.000Z</time>
      </trkpt>
      <trkpt lat="43.7616" lon="7.12351">
        <ele>707</ele>
        <time>2023-08-02T10:32:13.000Z</time>
      </trkpt>
      <trkpt lat="43.7616" lon="7.12351">
        <ele>707</ele>
        <time>2023-08-02T10:32:14.000Z</time>
      </trkpt>
      <trkpt lat="43.7616" lon="7.12351">
        <ele>707</ele>
        <time>2023-08-02T10:32:15.000Z</time>
      </trkpt>
      <trkpt lat="43.7616" lon="7.12351">
        <ele>707</ele>
        <time>2023-08-02T10:32:16.000Z</time>
      </trkpt>
      <trkpt lat="43.7616" lon="7.12351">
        <ele>707</ele>
        <time>2023-08-02T10:32:17.000Z</time>
      </trkpt>
      <trkpt lat="43.7616" lon="7.12351">
        <ele>707</ele>
        <time>2023-08-02T10:32:18.000Z</time>
      </trkpt>
      <trkpt lat="43.7616" lon="7.12351">
        <ele>707</ele>
        <time>2023-08-02T10:32:19.000Z</time>
      </trkpt>
      <trkpt lat="43.7616" lon="7.12351">
        <ele>707</ele>
        <time>2023-08-02T10:32:20.000Z</time>
      </trkpt>
      <trkpt lat="43.7616" lon="7.12351">
        <ele>707</ele>
        <time>2023-08-02T10:32:21.000Z</time>
      </trkpt>
      <trkpt lat="43.7616" lon="7.12351">
        <ele>707</ele>
        <time>2023-08-02T10:32:22.000Z</time>
      </trkpt>
      <trkpt lat="43.7616" lon="7.12351">
        <ele>707</ele>
        <time>2023-08-02T10:32:23.000Z</time>
      </trkpt>
      <trkpt lat="43.7616" lon="7.12351">
        <ele>707</ele>
        <time>2023-08-02T10:32:24.000Z</time>
      </trkpt>
      <trkpt lat="43.7616" lon="7.12351">
        <ele>707</ele>
        <time>2023-08-02T10:32:25.000Z</time>
      </trkpt>
      <trkpt lat="43.7616" lon="7.12351">
        <ele>707</ele>
        <time>2023-08-02T10:32:26.000Z</time>
      </trkpt>
      <trkpt lat="43.7616" lon="7.12351">
        <ele>707</ele>
        <time>2023-08-02T10:32:27.000Z</time>
      </trkpt>
      <trkpt lat="43.7616" lon="7.12351">
        <ele>707</ele>
        <time>2023-08-02T10:32:28.000Z</time>
      </trkpt>
      <trkpt lat="43.7616" lon="7.12351">
        <ele>707</ele>
        <time>2023-08-02T10:32:29.000Z</time>
      </trkpt>
      <trkpt lat="43.7616" lon="7.12351">
        <ele>707</ele>
        <time>2023-08-02T10:32:30.000Z</time>
      </trkpt>
      <trkpt lat="43.7616" lon="7.12351">
        <ele>707</ele>
        <time>2023-08-02T10:32:31.000Z</time>
      </trkpt>
      <trkpt lat="43.7616" lon="7.12351">
        <ele>707</ele>
        <time>2023-08-02T10:32:32.000Z</time>
      </trkpt>
      <trkpt lat="43.7616" lon="7.12351">
        <ele>707</ele>
        <time>2023-08-02T10:32:33.000Z</time>
      </trkpt>
      <trkpt lat="43.7616" lon="7.12351">
        <ele>707</ele>
        <time>2023-08-02T10:32:34.000Z</time>
      </trkpt>
      <trkpt lat="43.7616" lon="7.12351">
        <ele>707</ele>
        <time>2023-08-02T10:32:35.000Z</time>
      </trkpt>
      <trkpt lat="43.7616" lon="7.12351">
        <ele>707</ele>
        <time>2023-08-02T10:32:36.000Z</time>
      </trkpt>
      <trkpt lat="43.7616" lon="7.12351">
        <ele>707</ele>
        <time>2023-08-02T10:32:37.000Z</time>
      </trkpt>
      <trkpt lat="43.7616" lon="7.12351">
        <ele>707</ele>
        <time>2023-08-02T10:32:38.000Z</time>
      </trkpt>
      <trkpt lat="43.7616" lon="7.12351">
        <ele>707</ele>
        <time>2023-08-02T10:32:39.000Z</time>
      </trkpt>
      <trkpt lat="43.7616" lon="7.12351">
        <ele>707</ele>
        <time>2023-08-02T10:32:40.000Z</time>
      </trkpt>
      <trkpt lat="43.7616" lon="7.12351">
        <ele>707</ele>
        <time>2023-08-02T10:32:41.000Z</time>
      </trkpt>
      <trkpt lat="43.76161" lon="7.12352">
        <ele>707</ele>
        <time>2023-08-02T10:32:42.000Z</time>
      </trkpt>
      <trkpt lat="43.76161" lon="7.12352">
        <ele>707</ele>
        <time>2023-08-02T10:32:43.000Z</time>
      </trkpt>
      <trkpt lat="43.76162" lon="7.12352">
        <ele>707</ele>
        <time>2023-08-02T10:32:44.000Z</time>
      </trkpt>
      <trkpt lat="43.76163" lon="7.12351">
        <ele>707</ele>
        <time>2023-08-02T10:32:45.000Z</time>
      </trkpt>
      <trkpt lat="43.76163" lon="7.12352">
        <ele>707</ele>
        <time>2023-08-02T10:32:46.000Z</time>
      </trkpt>
      <trkpt lat="43.76163" lon="7.12352">
        <ele>707</ele>
        <time>2023-08-02T10:32:47.000Z</time>
      </trkpt>
      <trkpt lat="43.76163" lon="7.12352">
        <ele>707</ele>
        <time>2023-08-02T10:32:48.000Z</time>
      </trkpt>
      <trkpt lat="43.76163" lon="7.12352">
        <ele>707</ele>
        <time>2023-08-02T10:32:49.000Z</time>
      </trkpt>
      <trkpt lat="43.76163" lon="7.12352">
        <ele>707</ele>
        <time>2023-08-02T10:32:50.000Z</time>
      </trkpt>
      <trkpt lat="43.76163" lon="7.12353">
        <ele>707</ele>
        <time>2023-08-02T10:32:51.000Z</time>
      </trkpt>
      <trkpt lat="43.76163" lon="7.12353">
        <ele>707</ele>
        <time>2023-08-02T10:32:52.000Z</time>
      </trkpt>
      <trkpt lat="43.76164" lon="7.12353">
        <ele>707</ele>
        <time>2023-08-02T10:32:53.000Z</time>
      </trkpt>
      <trkpt lat="43.76166" lon="7.12353">
        <ele>707</ele>
        <time>2023-08-02T10:32:54.000Z</time>
      </trkpt>
      <trkpt lat="43.76167" lon="7.12353">
        <ele>707</ele>
        <time>2023-08-02T10:32:55.000Z</time>
      </trkpt>
      <trkpt lat="43.76168" lon="7.12354">
        <ele>707</ele>
        <time>2023-08-02T10:32:56.000Z</time>
      </trkpt>
      <trkpt lat="43.76168" lon="7.12354">
        <ele>707</ele>
        <time>2023-08-02T10:32:57.000Z</time>
      </trkpt>
      <trkpt lat="43.76168" lon="7.12354">
        <ele>707</ele>
        <time>2023-08-02T10:32:58.000Z</time>
      </trkpt>
      <trkpt lat="43.76168" lon="7.12354">
        <ele>706.79998779297</ele>
        <time>2023-08-02T10:32:59.000Z</time>
      </trkpt>
      <trkpt lat="43.76168" lon="7.12354">
        <ele>706.79998779297</ele>
        <time>2023-08-02T10:33:00.000Z</time>
      </trkpt>
      <trkpt lat="43.76168" lon="7.12354">
        <ele>706.79998779297</ele>
        <time>2023-08-02T10:33:01.000Z</time>
      </trkpt>
      <trkpt lat="43.76168" lon="7.12355">
        <ele>706.79998779297</ele>
        <time>2023-08-02T10:33:02.000Z</time>
      </trkpt>
      <trkpt lat="43.76169" lon="7.12356">
        <ele>706.59997558594</ele>
        <time>2023-08-02T10:33:03.000Z</time>
      </trkpt>
      <trkpt lat="43.7617" lon="7.12357">
        <ele>706.59997558594</ele>
        <time>2023-08-02T10:33:04.000Z</time>
      </trkpt>
      <trkpt lat="43.76171" lon="7.12358">
        <ele>706.40002441406</ele>
        <time>2023-08-02T10:33:05.000Z</time>
      </trkpt>
      <trkpt lat="43.76171" lon="7.12358">
        <ele>706</ele>
        <time>2023-08-02T10:33:06.000Z</time>
      </trkpt>
      <trkpt lat="43.76171" lon="7.12359">
        <ele>705.79998779297</ele>
        <time>2023-08-02T10:33:07.000Z</time>
      </trkpt>
      <trkpt lat="43.76171" lon="7.12359">
        <ele>705.79998779297</ele>
        <time>2023-08-02T10:33:08.000Z</time>
      </trkpt>
      <trkpt lat="43.76171" lon="7.12359">
        <ele>705.40002441406</ele>
        <time>2023-08-02T10:33:09.000Z</time>
      </trkpt>
      <trkpt lat="43.76171" lon="7.12359">
        <ele>705.40002441406</ele>
        <time>2023-08-02T10:33:10.000Z</time>
      </trkpt>
      <trkpt lat="43.76171" lon="7.12359">
        <ele>705.40002441406</ele>
        <time>2023-08-02T10:33:11.000Z</time>
      </trkpt>
      <trkpt lat="43.76171" lon="7.12359">
        <ele>705.40002441406</ele>
        <time>2023-08-02T10:33:12.000Z</time>
      </trkpt>
      <trkpt lat="43.76171" lon="7.12359">
        <ele>705.20001220703</ele>
        <time>2023-08-02T10:33:13.000Z</time>
      </trkpt>
      <trkpt lat="43.76171" lon="7.12359">
        <ele>705.20001220703</ele>
        <time>2023-08-02T10:33:14.000Z</time>
      </trkpt>
      <trkpt lat="43.76171" lon="7.12359">
        <ele>705.20001220703</ele>
        <time>2023-08-02T10:33:15.000Z</time>
      </trkpt>
      <trkpt lat="43.76171" lon="7.12359">
        <ele>705.20001220703</ele>
        <time>2023-08-02T10:33:16.000Z</time>
      </trkpt>
      <trkpt lat="43.76171" lon="7.12359">
        <ele>705.20001220703</ele>
        <time>2023-08-02T10:33:17.000Z</time>
      </trkpt>
      <trkpt lat="43.76171" lon="7.12359">
        <ele>705.20001220703</ele>
        <time>2023-08-02T10:33:18.000Z</time>
      </trkpt>
      <trkpt lat="43.76171" lon="7.12359">
        <ele>705.20001220703</ele>
        <time>2023-08-02T10:33:19.000Z</time>
      </trkpt>
      <trkpt lat="43.76171" lon="7.12359">
        <ele>705.20001220703</ele>
        <time>2023-08-02T10:33:20.000Z</time>
      </trkpt>
      <trkpt lat="43.76171" lon="7.12359">
        <ele>705</ele>
        <time>2023-08-02T10:33:21.000Z</time>
      </trkpt>
      <trkpt lat="43.76171" lon="7.12359">
        <ele>705</ele>
        <time>2023-08-02T10:33:22.000Z</time>
      </trkpt>
      <trkpt lat="43.76171" lon="7.12359">
        <ele>705</ele>
        <time>2023-08-02T10:33:23.000Z</time>
      </trkpt>
      <trkpt lat="43.76171" lon="7.12359">
        <ele>705</ele>
        <time>2023-08-02T10:33:24.000Z</time>
      </trkpt>
      <trkpt lat="43.76171" lon="7.12359">
        <ele>705.40002441406</ele>
        <time>2023-08-02T10:33:25.000Z</time>
      </trkpt>
      <trkpt lat="43.76171" lon="7.12359">
        <ele>705.40002441406</ele>
        <time>2023-08-02T10:33:26.000Z</time>
      </trkpt>
      <trkpt lat="43.76171" lon="7.12359">
        <ele>705.40002441406</ele>
        <time>2023-08-02T10:33:27.000Z</time>
      </trkpt>
      <trkpt lat="43.76171" lon="7.12359">
        <ele>705.79998779297</ele>
        <time>2023-08-02T10:33:28.000Z</time>
      </trkpt>
      <trkpt lat="43.76171" lon="7.12359">
        <ele>705.79998779297</ele>
        <time>2023-08-02T10:33:29.000Z</time>
      </trkpt>
      <trkpt lat="43.76171" lon="7.12358">
        <ele>705.79998779297</ele>
        <time>2023-08-02T10:33:30.000Z</time>
      </trkpt>
      <trkpt lat="43.76171" lon="7.12358">
        <ele>705.79998779297</ele>
        <time>2023-08-02T10:33:31.000Z</time>
      </trkpt>
      <trkpt lat="43.76171" lon="7.12359">
        <ele>705.79998779297</ele>
        <time>2023-08-02T10:33:32.000Z</time>
      </trkpt>
      <trkpt lat="43.76172" lon="7.12359">
        <ele>705.79998779297</ele>
        <time>2023-08-02T10:33:33.000Z</time>
      </trkpt>
      <trkpt lat="43.76172" lon="7.12359">
        <ele>705.79998779297</ele>
        <time>2023-08-02T10:33:34.000Z</time>
      </trkpt>
      <trkpt lat="43.76171" lon="7.12359">
        <ele>705.79998779297</ele>
        <time>2023-08-02T10:33:35.000Z</time>
      </trkpt>
      <trkpt lat="43.76171" lon="7.12359">
        <ele>705.79998779297</ele>
        <time>2023-08-02T10:33:36.000Z</time>
      </trkpt>
      <trkpt lat="43.76171" lon="7.12359">
        <ele>705.79998779297</ele>
        <time>2023-08-02T10:33:37.000Z</time>
      </trkpt>
      <trkpt lat="43.76171" lon="7.12358">
        <ele>705.79998779297</ele>
        <time>2023-08-02T10:33:38.000Z</time>
      </trkpt>
      <trkpt lat="43.7617" lon="7.12358">
        <ele>705.79998779297</ele>
        <time>2023-08-02T10:33:39.000Z</time>
      </trkpt>
      <trkpt lat="43.7617" lon="7.12358">
        <ele>705.79998779297</ele>
        <time>2023-08-02T10:33:40.000Z</time>
      </trkpt>
      <trkpt lat="43.7617" lon="7.12358">
        <ele>705.79998779297</ele>
        <time>2023-08-02T10:33:41.000Z</time>
      </trkpt>
      <trkpt lat="43.7617" lon="7.12358">
        <ele>705.79998779297</ele>
        <time>2023-08-02T10:33:42.000Z</time>
      </trkpt>
      <trkpt lat="43.7617" lon="7.12358">
        <ele>706</ele>
        <time>2023-08-02T10:33:43.000Z</time>
      </trkpt>
      <trkpt lat="43.76169" lon="7.12358">
        <ele>705.79998779297</ele>
        <time>2023-08-02T10:33:44.000Z</time>
      </trkpt>
      <trkpt lat="43.76169" lon="7.12357">
        <ele>705.79998779297</ele>
        <time>2023-08-02T10:33:45.000Z</time>
      </trkpt>
      <trkpt lat="43.76168" lon="7.12356">
        <ele>705.79998779297</ele>
        <time>2023-08-02T10:33:46.000Z</time>
      </trkpt>
      <trkpt lat="43.76168" lon="7.12356">
        <ele>705.79998779297</ele>
        <time>2023-08-02T10:33:47.000Z</time>
      </trkpt>
      <trkpt lat="43.76168" lon="7.12355">
        <ele>705.79998779297</ele>
        <time>2023-08-02T10:33:48.000Z</time>
      </trkpt>
      <trkpt lat="43.76168" lon="7.12355">
        <ele>705.79998779297</ele>
        <time>2023-08-02T10:33:49.000Z</time>
      </trkpt>
      <trkpt lat="43.76167" lon="7.12355">
        <ele>706</ele>
        <time>2023-08-02T10:33:50.000Z</time>
      </trkpt>
      <trkpt lat="43.76167" lon="7.12355">
        <ele>706</ele>
        <time>2023-08-02T10:33:51.000Z</time>
      </trkpt>
      <trkpt lat="43.76167" lon="7.12355">
        <ele>706.20001220703</ele>
        <time>2023-08-02T10:33:52.000Z</time>
      </trkpt>
      <trkpt lat="43.76167" lon="7.12355">
        <ele>706.40002441406</ele>
        <time>2023-08-02T10:33:53.000Z</time>
      </trkpt>
      <trkpt lat="43.76167" lon="7.12355">
        <ele>706.40002441406</ele>
        <time>2023-08-02T10:33:54.000Z</time>
      </trkpt>
      <trkpt lat="43.76167" lon="7.12353">
        <ele>706.40002441406</ele>
        <time>2023-08-02T10:33:55.000Z</time>
      </trkpt>
      <trkpt lat="43.76168" lon="7.12352">
        <ele>706.40002441406</ele>
        <time>2023-08-02T10:33:56.000Z</time>
      </trkpt>
      <trkpt lat="43.76168" lon="7.12352">
        <ele>706.40002441406</ele>
        <time>2023-08-02T10:33:57.000Z</time>
      </trkpt>
      <trkpt lat="43.76169" lon="7.12352">
        <ele>706.40002441406</ele>
        <time>2023-08-02T10:33:58.000Z</time>
      </trkpt>
      <trkpt lat="43.7617" lon="7.12352">
        <ele>706.40002441406</ele>
        <time>2023-08-02T10:33:59.000Z</time>
      </trkpt>
      <trkpt lat="43.7617" lon="7.12353">
        <ele>706.40002441406</ele>
        <time>2023-08-02T10:34:00.000Z</time>
      </trkpt>
      <trkpt lat="43.7617" lon="7.12353">
        <ele>706.40002441406</ele>
        <time>2023-08-02T10:34:01.000Z</time>
      </trkpt>
      <trkpt lat="43.7617" lon="7.12352">
        <ele>706.40002441406</ele>
        <time>2023-08-02T10:34:02.000Z</time>
      </trkpt>
      <trkpt lat="43.7617" lon="7.12353">
        <ele>706.40002441406</ele>
        <time>2023-08-02T10:34:03.000Z</time>
      </trkpt>
      <trkpt lat="43.7617" lon="7.12353">
        <ele>706.40002441406</ele>
        <time>2023-08-02T10:34:04.000Z</time>
      </trkpt>
      <trkpt lat="43.7617" lon="7.12353">
        <ele>706.40002441406</ele>
        <time>2023-08-02T10:34:05.000Z</time>
      </trkpt>
      <trkpt lat="43.7617" lon="7.12353">
        <ele>706.40002441406</ele>
        <time>2023-08-02T10:34:06.000Z</time>
      </trkpt>
      <trkpt lat="43.7617" lon="7.12353">
        <ele>706.40002441406</ele>
        <time>2023-08-02T10:34:07.000Z</time>
      </trkpt>
      <trkpt lat="43.76172" lon="7.12353">
        <ele>706.40002441406</ele>
        <time>2023-08-02T10:34:08.000Z</time>
      </trkpt>
      <trkpt lat="43.76174" lon="7.12353">
        <ele>706.40002441406</ele>
        <time>2023-08-02T10:34:09.000Z</time>
      </trkpt>
      <trkpt lat="43.76176" lon="7.12353">
        <ele>706.40002441406</ele>
        <time>2023-08-02T10:34:10.000Z</time>
      </trkpt>
      <trkpt lat="43.76178" lon="7.12353">
        <ele>706.40002441406</ele>
        <time>2023-08-02T10:34:11.000Z</time>
      </trkpt>
      <trkpt lat="43.7618" lon="7.12354">
        <ele>706.20001220703</ele>
        <time>2023-08-02T10:34:12.000Z</time>
      </trkpt>
      <trkpt lat="43.76182" lon="7.12354">
        <ele>706.20001220703</ele>
        <time>2023-08-02T10:34:13.000Z</time>
      </trkpt>
      <trkpt lat="43.76183" lon="7.12353">
        <ele>706.20001220703</ele>
        <time>2023-08-02T10:34:14.000Z</time>
      </trkpt>
      <trkpt lat="43.76185" lon="7.12354">
        <ele>706.20001220703</ele>
        <time>2023-08-02T10:34:15.000Z</time>
      </trkpt>
      <trkpt lat="43.76187" lon="7.12355">
        <ele>705.79998779297</ele>
        <time>2023-08-02T10:34:16.000Z</time>
      </trkpt>
      <trkpt lat="43.76189" lon="7.12354">
        <ele>705.79998779297</ele>
        <time>2023-08-02T10:34:17.000Z</time>
      </trkpt>
      <trkpt lat="43.7619" lon="7.12353">
        <ele>705.79998779297</ele>
        <time>2023-08-02T10:34:18.000Z</time>
      </trkpt>
      <trkpt lat="43.76193" lon="7.12353">
        <ele>705.79998779297</ele>
        <time>2023-08-02T10:34:19.000Z</time>
      </trkpt>
      <trkpt lat="43.76195" lon="7.12353">
        <ele>705.59997558594</ele>
        <time>2023-08-02T10:34:20.000Z</time>
      </trkpt>
      <trkpt lat="43.76197" lon="7.12352">
        <ele>705.59997558594</ele>
        <time>2023-08-02T10:34:21.000Z</time>
      </trkpt>
      <trkpt lat="43.76198" lon="7.1235">
        <ele>705.59997558594</ele>
        <time>2023-08-02T10:34:22.000Z</time>
      </trkpt>
      <trkpt lat="43.762" lon="7.12349">
        <ele>705.79998779297</ele>
        <time>2023-08-02T10:34:23.000Z</time>
      </trkpt>
      <trkpt lat="43.76201" lon="7.12348">
        <ele>705.79998779297</ele>
        <time>2023-08-02T10:34:24.000Z</time>
      </trkpt>
      <trkpt lat="43.76201" lon="7.12348">
        <ele>705.79998779297</ele>
        <time>2023-08-02T10:34:25.000Z</time>
      </trkpt>
      <trkpt lat="43.76201" lon="7.12348">
        <ele>706</ele>
        <time>2023-08-02T10:34:26.000Z</time>
      </trkpt>
      <trkpt lat="43.76201" lon="7.12348">
        <ele>706</ele>
        <time>2023-08-02T10:34:27.000Z</time>
      </trkpt>
      <trkpt lat="43.76201" lon="7.12348">
        <ele>706</ele>
        <time>2023-08-02T10:34:28.000Z</time>
      </trkpt>
      <trkpt lat="43.76201" lon="7.12348">
        <ele>706</ele>
        <time>2023-08-02T10:34:29.000Z</time>
      </trkpt>
      <trkpt lat="43.76201" lon="7.12348">
        <ele>706</ele>
        <time>2023-08-02T10:34:30.000Z</time>
      </trkpt>
      <trkpt lat="43.76201" lon="7.12348">
        <ele>706.20001220703</ele>
        <time>2023-08-02T10:34:31.000Z</time>
      </trkpt>
      <trkpt lat="43.76201" lon="7.12348">
        <ele>706.20001220703</ele>
        <time>2023-08-02T10:34:32.000Z</time>
      </trkpt>
      <trkpt lat="43.76202" lon="7.12349">
        <ele>706</ele>
        <time>2023-08-02T10:34:33.000Z</time>
      </trkpt>
      <trkpt lat="43.76203" lon="7.1235">
        <ele>706</ele>
        <time>2023-08-02T10:34:34.000Z</time>
      </trkpt>
      <trkpt lat="43.76205" lon="7.1235">
        <ele>706</ele>
        <time>2023-08-02T10:34:35.000Z</time>
      </trkpt>
      <trkpt lat="43.76206" lon="7.1235">
        <ele>706</ele>
        <time>2023-08-02T10:34:36.000Z</time>
      </trkpt>
      <trkpt lat="43.76206" lon="7.1235">
        <ele>706</ele>
        <time>2023-08-02T10:34:37.000Z</time>
      </trkpt>
      <trkpt lat="43.76207" lon="7.12351">
        <ele>705.59997558594</ele>
        <time>2023-08-02T10:34:38.000Z</time>
      </trkpt>
      <trkpt lat="43.76207" lon="7.12352">
        <ele>705.40002441406</ele>
        <time>2023-08-02T10:34:39.000Z</time>
      </trkpt>
      <trkpt lat="43.76207" lon="7.12352">
        <ele>705.20001220703</ele>
        <time>2023-08-02T10:34:40.000Z</time>
      </trkpt>
      <trkpt lat="43.76207" lon="7.12353">
        <ele>705</ele>
        <time>2023-08-02T10:34:41.000Z</time>
      </trkpt>
      <trkpt lat="43.76208" lon="7.12356">
        <ele>704.79998779297</ele>
        <time>2023-08-02T10:34:42.000Z</time>
      </trkpt>
      <trkpt lat="43.76208" lon="7.12357">
        <ele>704.59997558594</ele>
        <time>2023-08-02T10:34:43.000Z</time>
      </trkpt>
      <trkpt lat="43.76208" lon="7.12358">
        <ele>704.59997558594</ele>
        <time>2023-08-02T10:34:44.000Z</time>
      </trkpt>
      <trkpt lat="43.76208" lon="7.12358">
        <ele>704.20001220703</ele>
        <time>2023-08-02T10:34:45.000Z</time>
      </trkpt>
      <trkpt lat="43.76208" lon="7.12359">
        <ele>703.59997558594</ele>
        <time>2023-08-02T10:34:46.000Z</time>
      </trkpt>
      <trkpt lat="43.76207" lon="7.1236">
        <ele>703.59997558594</ele>
        <time>2023-08-02T10:34:47.000Z</time>
      </trkpt>
      <trkpt lat="43.76207" lon="7.12362">
        <ele>703.40002441406</ele>
        <time>2023-08-02T10:34:48.000Z</time>
      </trkpt>
      <trkpt lat="43.76207" lon="7.12363">
        <ele>703.20001220703</ele>
        <time>2023-08-02T10:34:49.000Z</time>
      </trkpt>
      <trkpt lat="43.76207" lon="7.12364">
        <ele>703</ele>
        <time>2023-08-02T10:34:50.000Z</time>
      </trkpt>
      <trkpt lat="43.76207" lon="7.12365">
        <ele>702.79998779297</ele>
        <time>2023-08-02T10:34:51.000Z</time>
      </trkpt>
      <trkpt lat="43.76207" lon="7.12365">
        <ele>702.59997558594</ele>
        <time>2023-08-02T10:34:52.000Z</time>
      </trkpt>
      <trkpt lat="43.76207" lon="7.12365">
        <ele>702.40002441406</ele>
        <time>2023-08-02T10:34:53.000Z</time>
      </trkpt>
      <trkpt lat="43.76208" lon="7.12365">
        <ele>702.40002441406</ele>
        <time>2023-08-02T10:34:54.000Z</time>
      </trkpt>
      <trkpt lat="43.76208" lon="7.12366">
        <ele>702.20001220703</ele>
        <time>2023-08-02T10:34:55.000Z</time>
      </trkpt>
      <trkpt lat="43.76208" lon="7.12367">
        <ele>702.20001220703</ele>
        <time>2023-08-02T10:34:56.000Z</time>
      </trkpt>
      <trkpt lat="43.76209" lon="7.12367">
        <ele>702.20001220703</ele>
        <time>2023-08-02T10:34:57.000Z</time>
      </trkpt>
      <trkpt lat="43.76209" lon="7.12367">
        <ele>702</ele>
        <time>2023-08-02T10:34:58.000Z</time>
      </trkpt>
      <trkpt lat="43.76209" lon="7.12366">
        <ele>702</ele>
        <time>2023-08-02T10:34:59.000Z</time>
      </trkpt>
      <trkpt lat="43.76209" lon="7.12366">
        <ele>702</ele>
        <time>2023-08-02T10:35:00.000Z</time>
      </trkpt>
      <trkpt lat="43.7621" lon="7.12366">
        <ele>701.79998779297</ele>
        <time>2023-08-02T10:35:01.000Z</time>
      </trkpt>
      <trkpt lat="43.76211" lon="7.12365">
        <ele>701.79998779297</ele>
        <time>2023-08-02T10:35:02.000Z</time>
      </trkpt>
      <trkpt lat="43.76212" lon="7.12366">
        <ele>701.79998779297</ele>
        <time>2023-08-02T10:35:03.000Z</time>
      </trkpt>
      <trkpt lat="43.76213" lon="7.12367">
        <ele>701.79998779297</ele>
        <time>2023-08-02T10:35:04.000Z</time>
      </trkpt>
      <trkpt lat="43.76213" lon="7.12368">
        <ele>701.59997558594</ele>
        <time>2023-08-02T10:35:05.000Z</time>
      </trkpt>
      <trkpt lat="43.76213" lon="7.12368">
        <ele>701.40002441406</ele>
        <time>2023-08-02T10:35:06.000Z</time>
      </trkpt>
      <trkpt lat="43.76213" lon="7.12368">
        <ele>701.40002441406</ele>
        <time>2023-08-02T10:35:07.000Z</time>
      </trkpt>
      <trkpt lat="43.76213" lon="7.12368">
        <ele>701.40002441406</ele>
        <time>2023-08-02T10:35:08.000Z</time>
      </trkpt>
      <trkpt lat="43.76214" lon="7.12368">
        <ele>701.20001220703</ele>
        <time>2023-08-02T10:35:09.000Z</time>
      </trkpt>
      <trkpt lat="43.76215" lon="7.12368">
        <ele>701.20001220703</ele>
        <time>2023-08-02T10:35:10.000Z</time>
      </trkpt>
      <trkpt lat="43.76216" lon="7.12368">
        <ele>701.20001220703</ele>
        <time>2023-08-02T10:35:11.000Z</time>
      </trkpt>
      <trkpt lat="43.76217" lon="7.12369">
        <ele>701.20001220703</ele>
        <time>2023-08-02T10:35:12.000Z</time>
      </trkpt>
      <trkpt lat="43.76218" lon="7.1237">
        <ele>701.20001220703</ele>
        <time>2023-08-02T10:35:13.000Z</time>
      </trkpt>
      <trkpt lat="43.76218" lon="7.1237">
        <ele>701.20001220703</ele>
        <time>2023-08-02T10:35:14.000Z</time>
      </trkpt>
      <trkpt lat="43.76218" lon="7.1237">
        <ele>701</ele>
        <time>2023-08-02T10:35:15.000Z</time>
      </trkpt>
      <trkpt lat="43.76219" lon="7.12371">
        <ele>700.79998779297</ele>
        <time>2023-08-02T10:35:16.000Z</time>
      </trkpt>
      <trkpt lat="43.76219" lon="7.12371">
        <ele>700.79998779297</ele>
        <time>2023-08-02T10:35:17.000Z</time>
      </trkpt>
      <trkpt lat="43.76219" lon="7.12372">
        <ele>700.79998779297</ele>
        <time>2023-08-02T10:35:18.000Z</time>
      </trkpt>
      <trkpt lat="43.76219" lon="7.12372">
        <ele>700.79998779297</ele>
        <time>2023-08-02T10:35:19.000Z</time>
      </trkpt>
      <trkpt lat="43.7622" lon="7.12372">
        <ele>700.79998779297</ele>
        <time>2023-08-02T10:35:20.000Z</time>
      </trkpt>
      <trkpt lat="43.76221" lon="7.12373">
        <ele>700.59997558594</ele>
        <time>2023-08-02T10:35:21.000Z</time>
      </trkpt>
      <trkpt lat="43.76221" lon="7.12373">
        <ele>700.59997558594</ele>
        <time>2023-08-02T10:35:22.000Z</time>
      </trkpt>
      <trkpt lat="43.76221" lon="7.12373">
        <ele>700.40002441406</ele>
        <time>2023-08-02T10:35:23.000Z</time>
      </trkpt>
      <trkpt lat="43.76222" lon="7.12373">
        <ele>700.40002441406</ele>
        <time>2023-08-02T10:35:24.000Z</time>
      </trkpt>
      <trkpt lat="43.76223" lon="7.12374">
        <ele>700.20001220703</ele>
        <time>2023-08-02T10:35:25.000Z</time>
      </trkpt>
      <trkpt lat="43.76223" lon="7.12374">
        <ele>700</ele>
        <time>2023-08-02T10:35:26.000Z</time>
      </trkpt>
      <trkpt lat="43.76224" lon="7.12374">
        <ele>700</ele>
        <time>2023-08-02T10:35:27.000Z</time>
      </trkpt>
      <trkpt lat="43.76225" lon="7.12374">
        <ele>700</ele>
        <time>2023-08-02T10:35:28.000Z</time>
      </trkpt>
      <trkpt lat="43.76225" lon="7.12374">
        <ele>699.79998779297</ele>
        <time>2023-08-02T10:35:29.000Z</time>
      </trkpt>
      <trkpt lat="43.76227" lon="7.12374">
        <ele>699.79998779297</ele>
        <time>2023-08-02T10:35:30.000Z</time>
      </trkpt>
      <trkpt lat="43.76228" lon="7.12375">
        <ele>699.59997558594</ele>
        <time>2023-08-02T10:35:31.000Z</time>
      </trkpt>
      <trkpt lat="43.76229" lon="7.12378">
        <ele>699.59997558594</ele>
        <time>2023-08-02T10:35:32.000Z</time>
      </trkpt>
      <trkpt lat="43.7623" lon="7.1238">
        <ele>699.59997558594</ele>
        <time>2023-08-02T10:35:33.000Z</time>
      </trkpt>
      <trkpt lat="43.76231" lon="7.12383">
        <ele>699.59997558594</ele>
        <time>2023-08-02T10:35:34.000Z</time>
      </trkpt>
      <trkpt lat="43.76233" lon="7.12386">
        <ele>699.40002441406</ele>
        <time>2023-08-02T10:35:35.000Z</time>
      </trkpt>
      <trkpt lat="43.76234" lon="7.12389">
        <ele>699.40002441406</ele>
        <time>2023-08-02T10:35:36.000Z</time>
      </trkpt>
      <trkpt lat="43.76235" lon="7.12391">
        <ele>699</ele>
        <time>2023-08-02T10:35:37.000Z</time>
      </trkpt>
      <trkpt lat="43.76235" lon="7.12394">
        <ele>699</ele>
        <time>2023-08-02T10:35:38.000Z</time>
      </trkpt>
      <trkpt lat="43.76236" lon="7.12397">
        <ele>698.79998779297</ele>
        <time>2023-08-02T10:35:39.000Z</time>
      </trkpt>
      <trkpt lat="43.76238" lon="7.12399">
        <ele>698.79998779297</ele>
        <time>2023-08-02T10:35:40.000Z</time>
      </trkpt>
      <trkpt lat="43.76238" lon="7.12402">
        <ele>698.59997558594</ele>
        <time>2023-08-02T10:35:41.000Z</time>
      </trkpt>
      <trkpt lat="43.76237" lon="7.12403">
        <ele>698.59997558594</ele>
        <time>2023-08-02T10:35:42.000Z</time>
      </trkpt>
      <trkpt lat="43.76237" lon="7.12405">
        <ele>698.59997558594</ele>
        <time>2023-08-02T10:35:43.000Z</time>
      </trkpt>
      <trkpt lat="43.76237" lon="7.12406">
        <ele>698.59997558594</ele>
        <time>2023-08-02T10:35:44.000Z</time>
      </trkpt>
      <trkpt lat="43.76236" lon="7.12407">
        <ele>698.59997558594</ele>
        <time>2023-08-02T10:35:45.000Z</time>
      </trkpt>
      <trkpt lat="43.76237" lon="7.12407">
        <ele>698.40002441406</ele>
        <time>2023-08-02T10:35:46.000Z</time>
      </trkpt>
      <trkpt lat="43.76237" lon="7.12408">
        <ele>698.20001220703</ele>
        <time>2023-08-02T10:35:47.000Z</time>
      </trkpt>
      <trkpt lat="43.76237" lon="7.12409">
        <ele>698.20001220703</ele>
        <time>2023-08-02T10:35:48.000Z</time>
      </trkpt>
      <trkpt lat="43.76237" lon="7.12409">
        <ele>698.20001220703</ele>
        <time>2023-08-02T10:35:49.000Z</time>
      </trkpt>
      <trkpt lat="43.76237" lon="7.12409">
        <ele>698.20001220703</ele>
        <time>2023-08-02T10:35:50.000Z</time>
      </trkpt>
      <trkpt lat="43.76237" lon="7.1241">
        <ele>698.20001220703</ele>
        <time>2023-08-02T10:35:51.000Z</time>
      </trkpt>
      <trkpt lat="43.76237" lon="7.12411">
        <ele>698.20001220703</ele>
        <time>2023-08-02T10:35:52.000Z</time>
      </trkpt>
      <trkpt lat="43.76236" lon="7.12413">
        <ele>698.20001220703</ele>
        <time>2023-08-02T10:35:53.000Z</time>
      </trkpt>
      <trkpt lat="43.76236" lon="7.12414">
        <ele>698.20001220703</ele>
        <time>2023-08-02T10:35:54.000Z</time>
      </trkpt>
      <trkpt lat="43.76235" lon="7.12414">
        <ele>698.20001220703</ele>
        <time>2023-08-02T10:35:55.000Z</time>
      </trkpt>
      <trkpt lat="43.76235" lon="7.12414">
        <ele>698</ele>
        <time>2023-08-02T10:35:56.000Z</time>
      </trkpt>
      <trkpt lat="43.76235" lon="7.12414">
        <ele>697.79998779297</ele>
        <time>2023-08-02T10:35:57.000Z</time>
      </trkpt>
      <trkpt lat="43.76235" lon="7.12414">
        <ele>697.59997558594</ele>
        <time>2023-08-02T10:35:58.000Z</time>
      </trkpt>
      <trkpt lat="43.76235" lon="7.12414">
        <ele>697.40002441406</ele>
        <time>2023-08-02T10:35:59.000Z</time>
      </trkpt>
      <trkpt lat="43.76235" lon="7.12414">
        <ele>697.20001220703</ele>
        <time>2023-08-02T10:36:00.000Z</time>
      </trkpt>
      <trkpt lat="43.76235" lon="7.12414">
        <ele>697.20001220703</ele>
        <time>2023-08-02T10:36:01.000Z</time>
      </trkpt>
      <trkpt lat="43.76235" lon="7.12414">
        <ele>697.20001220703</ele>
        <time>2023-08-02T10:36:02.000Z</time>
      </trkpt>
      <trkpt lat="43.76235" lon="7.12414">
        <ele>697.20001220703</ele>
        <time>2023-08-02T10:36:03.000Z</time>
      </trkpt>
      <trkpt lat="43.76235" lon="7.12414">
        <ele>697.20001220703</ele>
        <time>2023-08-02T10:36:04.000Z</time>
      </trkpt>
      <trkpt lat="43.76235" lon="7.12414">
        <ele>697.20001220703</ele>
        <time>2023-08-02T10:36:05.000Z</time>
      </trkpt>
      <trkpt lat="43.76235" lon="7.12414">
        <ele>697.20001220703</ele>
        <time>2023-08-02T10:36:06.000Z</time>
      </trkpt>
      <trkpt lat="43.76235" lon="7.12414">
        <ele>697.20001220703</ele>
        <time>2023-08-02T10:36:07.000Z</time>
      </trkpt>
      <trkpt lat="43.76235" lon="7.12414">
        <ele>697.20001220703</ele>
        <time>2023-08-02T10:36:08.000Z</time>
      </trkpt>
      <trkpt lat="43.76235" lon="7.12414">
        <ele>697.20001220703</ele>
        <time>2023-08-02T10:36:09.000Z</time>
      </trkpt>
      <trkpt lat="43.76235" lon="7.12414">
        <ele>697.20001220703</ele>
        <time>2023-08-02T10:36:10.000Z</time>
      </trkpt>
      <trkpt lat="43.76235" lon="7.12415">
        <ele>697.20001220703</ele>
        <time>2023-08-02T10:36:11.000Z</time>
      </trkpt>
      <trkpt lat="43.76234" lon="7.12415">
        <ele>697.20001220703</ele>
        <time>2023-08-02T10:36:12.000Z</time>
      </trkpt>
      <trkpt lat="43.76234" lon="7.12415">
        <ele>697.20001220703</ele>
        <time>2023-08-02T10:36:13.000Z</time>
      </trkpt>
      <trkpt lat="43.76233" lon="7.12415">
        <ele>697.20001220703</ele>
        <time>2023-08-02T10:36:14.000Z</time>
      </trkpt>
      <trkpt lat="43.76233" lon="7.12416">
        <ele>697.20001220703</ele>
        <time>2023-08-02T10:36:15.000Z</time>
      </trkpt>
      <trkpt lat="43.76232" lon="7.12416">
        <ele>697</ele>
        <time>2023-08-02T10:36:16.000Z</time>
      </trkpt>
      <trkpt lat="43.76231" lon="7.12416">
        <ele>697</ele>
        <time>2023-08-02T10:36:17.000Z</time>
      </trkpt>
      <trkpt lat="43.76231" lon="7.12417">
        <ele>696.79998779297</ele>
        <time>2023-08-02T10:36:18.000Z</time>
      </trkpt>
      <trkpt lat="43.76231" lon="7.12417">
        <ele>696.79998779297</ele>
        <time>2023-08-02T10:36:19.000Z</time>
      </trkpt>
      <trkpt lat="43.76231" lon="7.12417">
        <ele>696.59997558594</ele>
        <time>2023-08-02T10:36:20.000Z</time>
      </trkpt>
      <trkpt lat="43.76231" lon="7.12417">
        <ele>696.59997558594</ele>
        <time>2023-08-02T10:36:21.000Z</time>
      </trkpt>
      <trkpt lat="43.76231" lon="7.12417">
        <ele>696.59997558594</ele>
        <time>2023-08-02T10:36:22.000Z</time>
      </trkpt>
      <trkpt lat="43.76231" lon="7.12417">
        <ele>696.40002441406</ele>
        <time>2023-08-02T10:36:23.000Z</time>
      </trkpt>
      <trkpt lat="43.76231" lon="7.12418">
        <ele>696.40002441406</ele>
        <time>2023-08-02T10:36:24.000Z</time>
      </trkpt>
      <trkpt lat="43.76231" lon="7.12418">
        <ele>696.20001220703</ele>
        <time>2023-08-02T10:36:25.000Z</time>
      </trkpt>
      <trkpt lat="43.7623" lon="7.12417">
        <ele>696.20001220703</ele>
        <time>2023-08-02T10:36:26.000Z</time>
      </trkpt>
      <trkpt lat="43.76229" lon="7.12417">
        <ele>696.20001220703</ele>
        <time>2023-08-02T10:36:27.000Z</time>
      </trkpt>
      <trkpt lat="43.76228" lon="7.12417">
        <ele>696</ele>
        <time>2023-08-02T10:36:28.000Z</time>
      </trkpt>
      <trkpt lat="43.76228" lon="7.12418">
        <ele>696</ele>
        <time>2023-08-02T10:36:29.000Z</time>
      </trkpt>
      <trkpt lat="43.76227" lon="7.12418">
        <ele>695.79998779297</ele>
        <time>2023-08-02T10:36:30.000Z</time>
      </trkpt>
      <trkpt lat="43.76227" lon="7.12419">
        <ele>695.79998779297</ele>
        <time>2023-08-02T10:36:31.000Z</time>
      </trkpt>
      <trkpt lat="43.76227" lon="7.12419">
        <ele>695.59997558594</ele>
        <time>2023-08-02T10:36:32.000Z</time>
      </trkpt>
      <trkpt lat="43.76227" lon="7.1242">
        <ele>695.59997558594</ele>
        <time>2023-08-02T10:36:33.000Z</time>
      </trkpt>
      <trkpt lat="43.76227" lon="7.12421">
        <ele>695.20001220703</ele>
        <time>2023-08-02T10:36:34.000Z</time>
      </trkpt>
      <trkpt lat="43.76227" lon="7.12422">
        <ele>695</ele>
        <time>2023-08-02T10:36:35.000Z</time>
      </trkpt>
      <trkpt lat="43.76228" lon="7.12424">
        <ele>695</ele>
        <time>2023-08-02T10:36:36.000Z</time>
      </trkpt>
      <trkpt lat="43.76228" lon="7.12425">
        <ele>694.79998779297</ele>
        <time>2023-08-02T10:36:37.000Z</time>
      </trkpt>
      <trkpt lat="43.76229" lon="7.12425">
        <ele>694.59997558594</ele>
        <time>2023-08-02T10:36:38.000Z</time>
      </trkpt>
      <trkpt lat="43.7623" lon="7.12426">
        <ele>694.20001220703</ele>
        <time>2023-08-02T10:36:39.000Z</time>
      </trkpt>
      <trkpt lat="43.7623" lon="7.12428">
        <ele>694.20001220703</ele>
        <time>2023-08-02T10:36:40.000Z</time>
      </trkpt>
      <trkpt lat="43.76231" lon="7.1243">
        <ele>693.79998779297</ele>
        <time>2023-08-02T10:36:41.000Z</time>
      </trkpt>
      <trkpt lat="43.76231" lon="7.1243">
        <ele>693.59997558594</ele>
        <time>2023-08-02T10:36:42.000Z</time>
      </trkpt>
      <trkpt lat="43.76231" lon="7.12431">
        <ele>693.20001220703</ele>
        <time>2023-08-02T10:36:43.000Z</time>
      </trkpt>
      <trkpt lat="43.76231" lon="7.12431">
        <ele>693.20001220703</ele>
        <time>2023-08-02T10:36:44.000Z</time>
      </trkpt>
      <trkpt lat="43.76231" lon="7.12431">
        <ele>692.59997558594</ele>
        <time>2023-08-02T10:36:45.000Z</time>
      </trkpt>
      <trkpt lat="43.76231" lon="7.12431">
        <ele>692.59997558594</ele>
        <time>2023-08-02T10:36:46.000Z</time>
      </trkpt>
      <trkpt lat="43.7623" lon="7.12431">
        <ele>692.59997558594</ele>
        <time>2023-08-02T10:36:47.000Z</time>
      </trkpt>
      <trkpt lat="43.7623" lon="7.12431">
        <ele>692.59997558594</ele>
        <time>2023-08-02T10:36:48.000Z</time>
      </trkpt>
      <trkpt lat="43.7623" lon="7.12431">
        <ele>692.40002441406</ele>
        <time>2023-08-02T10:36:49.000Z</time>
      </trkpt>
      <trkpt lat="43.7623" lon="7.12431">
        <ele>692.40002441406</ele>
        <time>2023-08-02T10:36:50.000Z</time>
      </trkpt>
      <trkpt lat="43.7623" lon="7.12431">
        <ele>692.40002441406</ele>
        <time>2023-08-02T10:36:51.000Z</time>
      </trkpt>
      <trkpt lat="43.76229" lon="7.12432">
        <ele>692.20001220703</ele>
        <time>2023-08-02T10:36:52.000Z</time>
      </trkpt>
      <trkpt lat="43.76229" lon="7.12432">
        <ele>692.20001220703</ele>
        <time>2023-08-02T10:36:53.000Z</time>
      </trkpt>
      <trkpt lat="43.76229" lon="7.12432">
        <ele>692.20001220703</ele>
        <time>2023-08-02T10:36:54.000Z</time>
      </trkpt>
      <trkpt lat="43.76229" lon="7.12432">
        <ele>692.20001220703</ele>
        <time>2023-08-02T10:36:55.000Z</time>
      </trkpt>
      <trkpt lat="43.76229" lon="7.12432">
        <ele>692.20001220703</ele>
        <time>2023-08-02T10:36:56.000Z</time>
      </trkpt>
      <trkpt lat="43.76229" lon="7.12432">
        <ele>692</ele>
        <time>2023-08-02T10:36:57.000Z</time>
      </trkpt>
      <trkpt lat="43.76229" lon="7.12432">
        <ele>692</ele>
        <time>2023-08-02T10:36:58.000Z</time>
      </trkpt>
      <trkpt lat="43.76229" lon="7.12432">
        <ele>692</ele>
        <time>2023-08-02T10:36:59.000Z</time>
      </trkpt>
      <trkpt lat="43.76229" lon="7.12432">
        <ele>692</ele>
        <time>2023-08-02T10:37:00.000Z</time>
      </trkpt>
      <trkpt lat="43.76229" lon="7.12432">
        <ele>692</ele>
        <time>2023-08-02T10:37:01.000Z</time>
      </trkpt>
      <trkpt lat="43.76229" lon="7.12432">
        <ele>692</ele>
        <time>2023-08-02T10:37:02.000Z</time>
      </trkpt>
      <trkpt lat="43.76229" lon="7.12432">
        <ele>692</ele>
        <time>2023-08-02T10:37:03.000Z</time>
      </trkpt>
      <trkpt lat="43.76229" lon="7.12432">
        <ele>692</ele>
        <time>2023-08-02T10:37:04.000Z</time>
      </trkpt>
      <trkpt lat="43.76229" lon="7.12432">
        <ele>692</ele>
        <time>2023-08-02T10:37:05.000Z</time>
      </trkpt>
      <trkpt lat="43.76229" lon="7.12432">
        <ele>692</ele>
        <time>2023-08-02T10:37:06.000Z</time>
      </trkpt>
      <trkpt lat="43.76229" lon="7.12432">
        <ele>692</ele>
        <time>2023-08-02T10:37:07.000Z</time>
      </trkpt>
      <trkpt lat="43.76229" lon="7.12432">
        <ele>692</ele>
        <time>2023-08-02T10:37:08.000Z</time>
      </trkpt>
      <trkpt lat="43.76229" lon="7.12432">
        <ele>692</ele>
        <time>2023-08-02T10:37:09.000Z</time>
      </trkpt>
      <trkpt lat="43.76229" lon="7.12432">
        <ele>692</ele>
        <time>2023-08-02T10:37:10.000Z</time>
      </trkpt>
      <trkpt lat="43.76229" lon="7.12432">
        <ele>692</ele>
        <time>2023-08-02T10:37:11.000Z</time>
      </trkpt>
      <trkpt lat="43.76229" lon="7.12432">
        <ele>692</ele>
        <time>2023-08-02T10:37:12.000Z</time>
      </trkpt>
      <trkpt lat="43.76229" lon="7.12432">
        <ele>692</ele>
        <time>2023-08-02T10:37:13.000Z</time>
      </trkpt>
      <trkpt lat="43.76229" lon="7.12432">
        <ele>692</ele>
        <time>2023-08-02T10:37:14.000Z</time>
      </trkpt>
      <trkpt lat="43.76229" lon="7.12431">
        <ele>692</ele>
        <time>2023-08-02T10:37:15.000Z</time>
      </trkpt>
      <trkpt lat="43.76229" lon="7.12431">
        <ele>692</ele>
        <time>2023-08-02T10:37:16.000Z</time>
      </trkpt>
      <trkpt lat="43.76228" lon="7.1243">
        <ele>692</ele>
        <time>2023-08-02T10:37:17.000Z</time>
      </trkpt>
      <trkpt lat="43.76228" lon="7.1243">
        <ele>692</ele>
        <time>2023-08-02T10:37:18.000Z</time>
      </trkpt>
      <trkpt lat="43.76227" lon="7.12429">
        <ele>691.79998779297</ele>
        <time>2023-08-02T10:37:19.000Z</time>
      </trkpt>
      <trkpt lat="43.76226" lon="7.12429">
        <ele>691.79998779297</ele>
        <time>2023-08-02T10:37:20.000Z</time>
      </trkpt>
      <trkpt lat="43.76226" lon="7.12429">
        <ele>691.79998779297</ele>
        <time>2023-08-02T10:37:21.000Z</time>
      </trkpt>
      <trkpt lat="43.76225" lon="7.12428">
        <ele>691.79998779297</ele>
        <time>2023-08-02T10:37:22.000Z</time>
      </trkpt>
      <trkpt lat="43.76224" lon="7.12428">
        <ele>691.59997558594</ele>
        <time>2023-08-02T10:37:23.000Z</time>
      </trkpt>
      <trkpt lat="43.76222" lon="7.12428">
        <ele>691.40002441406</ele>
        <time>2023-08-02T10:37:24.000Z</time>
      </trkpt>
      <trkpt lat="43.7622" lon="7.12427">
        <ele>691.40002441406</ele>
        <time>2023-08-02T10:37:25.000Z</time>
      </trkpt>
      <trkpt lat="43.76219" lon="7.12427">
        <ele>691</ele>
        <time>2023-08-02T10:37:26.000Z</time>
      </trkpt>
      <trkpt lat="43.76216" lon="7.12426">
        <ele>691</ele>
        <time>2023-08-02T10:37:27.000Z</time>
      </trkpt>
      <trkpt lat="43.76214" lon="7.12426">
        <ele>690.59997558594</ele>
        <time>2023-08-02T10:37:28.000Z</time>
      </trkpt>
      <trkpt lat="43.76212" lon="7.12425">
        <ele>690.20001220703</ele>
        <time>2023-08-02T10:37:29.000Z</time>
      </trkpt>
      <trkpt lat="43.76211" lon="7.12423">
        <ele>690</ele>
        <time>2023-08-02T10:37:30.000Z</time>
      </trkpt>
      <trkpt lat="43.76209" lon="7.1242">
        <ele>689.59997558594</ele>
        <time>2023-08-02T10:37:31.000Z</time>
      </trkpt>
      <trkpt lat="43.76207" lon="7.12417">
        <ele>689.20001220703</ele>
        <time>2023-08-02T10:37:32.000Z</time>
      </trkpt>
      <trkpt lat="43.76205" lon="7.12416">
        <ele>688.79998779297</ele>
        <time>2023-08-02T10:37:33.000Z</time>
      </trkpt>
      <trkpt lat="43.76203" lon="7.12416">
        <ele>688.40002441406</ele>
        <time>2023-08-02T10:37:34.000Z</time>
      </trkpt>
      <trkpt lat="43.76201" lon="7.12416">
        <ele>688.20001220703</ele>
        <time>2023-08-02T10:37:35.000Z</time>
      </trkpt>
      <trkpt lat="43.762" lon="7.12417">
        <ele>688</ele>
        <time>2023-08-02T10:37:36.000Z</time>
      </trkpt>
      <trkpt lat="43.76198" lon="7.12418">
        <ele>687.79998779297</ele>
        <time>2023-08-02T10:37:37.000Z</time>
      </trkpt>
      <trkpt lat="43.76197" lon="7.12417">
        <ele>687.40002441406</ele>
        <time>2023-08-02T10:37:38.000Z</time>
      </trkpt>
      <trkpt lat="43.76195" lon="7.12417">
        <ele>687.20001220703</ele>
        <time>2023-08-02T10:37:39.000Z</time>
      </trkpt>
      <trkpt lat="43.76193" lon="7.12416">
        <ele>687.20001220703</ele>
        <time>2023-08-02T10:37:40.000Z</time>
      </trkpt>
      <trkpt lat="43.76191" lon="7.12415">
        <ele>687</ele>
        <time>2023-08-02T10:37:41.000Z</time>
      </trkpt>
      <trkpt lat="43.7619" lon="7.12414">
        <ele>686.79998779297</ele>
        <time>2023-08-02T10:37:42.000Z</time>
      </trkpt>
      <trkpt lat="43.76188" lon="7.12413">
        <ele>686.40002441406</ele>
        <time>2023-08-02T10:37:43.000Z</time>
      </trkpt>
      <trkpt lat="43.76186" lon="7.12413">
        <ele>686.40002441406</ele>
        <time>2023-08-02T10:37:44.000Z</time>
      </trkpt>
      <trkpt lat="43.76185" lon="7.12412">
        <ele>686.20001220703</ele>
        <time>2023-08-02T10:37:45.000Z</time>
      </trkpt>
      <trkpt lat="43.76183" lon="7.12411">
        <ele>685.59997558594</ele>
        <time>2023-08-02T10:37:46.000Z</time>
      </trkpt>
      <trkpt lat="43.76182" lon="7.1241">
        <ele>685.20001220703</ele>
        <time>2023-08-02T10:37:47.000Z</time>
      </trkpt>
      <trkpt lat="43.76181" lon="7.12409">
        <ele>685</ele>
        <time>2023-08-02T10:37:48.000Z</time>
      </trkpt>
      <trkpt lat="43.7618" lon="7.12409">
        <ele>683.79998779297</ele>
        <time>2023-08-02T10:37:49.000Z</time>
      </trkpt>
      <trkpt lat="43.7618" lon="7.12409">
        <ele>683.79998779297</ele>
        <time>2023-08-02T10:37:50.000Z</time>
      </trkpt>
      <trkpt lat="43.7618" lon="7.12409">
        <ele>683.59997558594</ele>
        <time>2023-08-02T10:37:51.000Z</time>
      </trkpt>
      <trkpt lat="43.7618" lon="7.12409">
        <ele>683.20001220703</ele>
        <time>2023-08-02T10:37:52.000Z</time>
      </trkpt>
      <trkpt lat="43.7618" lon="7.12409">
        <ele>683</ele>
        <time>2023-08-02T10:37:53.000Z</time>
      </trkpt>
      <trkpt lat="43.7618" lon="7.12409">
        <ele>682.79998779297</ele>
        <time>2023-08-02T10:37:54.000Z</time>
      </trkpt>
      <trkpt lat="43.76178" lon="7.12409">
        <ele>682.59997558594</ele>
        <time>2023-08-02T10:37:55.000Z</time>
      </trkpt>
      <trkpt lat="43.76177" lon="7.12408">
        <ele>682.59997558594</ele>
        <time>2023-08-02T10:37:56.000Z</time>
      </trkpt>
      <trkpt lat="43.76176" lon="7.12408">
        <ele>682.59997558594</ele>
        <time>2023-08-02T10:37:57.000Z</time>
      </trkpt>
      <trkpt lat="43.76176" lon="7.12408">
        <ele>682.59997558594</ele>
        <time>2023-08-02T10:37:58.000Z</time>
      </trkpt>
      <trkpt lat="43.76174" lon="7.12407">
        <ele>682.40002441406</ele>
        <time>2023-08-02T10:37:59.000Z</time>
      </trkpt>
      <trkpt lat="43.76173" lon="7.12407">
        <ele>682.20001220703</ele>
        <time>2023-08-02T10:38:00.000Z</time>
      </trkpt>
      <trkpt lat="43.76172" lon="7.12408">
        <ele>682</ele>
        <time>2023-08-02T10:38:01.000Z</time>
      </trkpt>
      <trkpt lat="43.76171" lon="7.12409">
        <ele>681.79998779297</ele>
        <time>2023-08-02T10:38:02.000Z</time>
      </trkpt>
      <trkpt lat="43.7617" lon="7.1241">
        <ele>681.40002441406</ele>
        <time>2023-08-02T10:38:03.000Z</time>
      </trkpt>
      <trkpt lat="43.76169" lon="7.1241">
        <ele>681</ele>
        <time>2023-08-02T10:38:04.000Z</time>
      </trkpt>
      <trkpt lat="43.76166" lon="7.1241">
        <ele>680.79998779297</ele>
        <time>2023-08-02T10:38:05.000Z</time>
      </trkpt>
      <trkpt lat="43.76164" lon="7.12409">
        <ele>680.59997558594</ele>
        <time>2023-08-02T10:38:06.000Z</time>
      </trkpt>
      <trkpt lat="43.76161" lon="7.12409">
        <ele>680.40002441406</ele>
        <time>2023-08-02T10:38:07.000Z</time>
      </trkpt>
      <trkpt lat="43.76158" lon="7.12408">
        <ele>680.40002441406</ele>
        <time>2023-08-02T10:38:08.000Z</time>
      </trkpt>
      <trkpt lat="43.76155" lon="7.12408">
        <ele>679.79998779297</ele>
        <time>2023-08-02T10:38:09.000Z</time>
      </trkpt>
      <trkpt lat="43.76152" lon="7.12407">
        <ele>679.79998779297</ele>
        <time>2023-08-02T10:38:10.000Z</time>
      </trkpt>
      <trkpt lat="43.76151" lon="7.12407">
        <ele>679</ele>
        <time>2023-08-02T10:38:11.000Z</time>
      </trkpt>
      <trkpt lat="43.7615" lon="7.12407">
        <ele>679</ele>
        <time>2023-08-02T10:38:12.000Z</time>
      </trkpt>
      <trkpt lat="43.76149" lon="7.12408">
        <ele>678.59997558594</ele>
        <time>2023-08-02T10:38:13.000Z</time>
      </trkpt>
      <trkpt lat="43.76149" lon="7.12408">
        <ele>677.79998779297</ele>
        <time>2023-08-02T10:38:14.000Z</time>
      </trkpt>
      <trkpt lat="43.76148" lon="7.12409">
        <ele>677.79998779297</ele>
        <time>2023-08-02T10:38:15.000Z</time>
      </trkpt>
      <trkpt lat="43.76146" lon="7.12409">
        <ele>677.59997558594</ele>
        <time>2023-08-02T10:38:16.000Z</time>
      </trkpt>
      <trkpt lat="43.76144" lon="7.1241">
        <ele>677.59997558594</ele>
        <time>2023-08-02T10:38:17.000Z</time>
      </trkpt>
      <trkpt lat="43.76144" lon="7.12413">
        <ele>677.20001220703</ele>
        <time>2023-08-02T10:38:18.000Z</time>
      </trkpt>
      <trkpt lat="43.76144" lon="7.12415">
        <ele>677.20001220703</ele>
        <time>2023-08-02T10:38:19.000Z</time>
      </trkpt>
      <trkpt lat="43.76145" lon="7.12415">
        <ele>677</ele>
        <time>2023-08-02T10:38:20.000Z</time>
      </trkpt>
      <trkpt lat="43.76147" lon="7.12416">
        <ele>676.79998779297</ele>
        <time>2023-08-02T10:38:21.000Z</time>
      </trkpt>
      <trkpt lat="43.76149" lon="7.12416">
        <ele>676</ele>
        <time>2023-08-02T10:38:22.000Z</time>
      </trkpt>
      <trkpt lat="43.76151" lon="7.12417">
        <ele>675.79998779297</ele>
        <time>2023-08-02T10:38:23.000Z</time>
      </trkpt>
      <trkpt lat="43.76153" lon="7.12417">
        <ele>675.40002441406</ele>
        <time>2023-08-02T10:38:24.000Z</time>
      </trkpt>
      <trkpt lat="43.76155" lon="7.12418">
        <ele>675.40002441406</ele>
        <time>2023-08-02T10:38:25.000Z</time>
      </trkpt>
      <trkpt lat="43.76156" lon="7.1242">
        <ele>674.79998779297</ele>
        <time>2023-08-02T10:38:26.000Z</time>
      </trkpt>
      <trkpt lat="43.76157" lon="7.1242">
        <ele>674.40002441406</ele>
        <time>2023-08-02T10:38:27.000Z</time>
      </trkpt>
      <trkpt lat="43.76158" lon="7.1242">
        <ele>674.40002441406</ele>
        <time>2023-08-02T10:38:28.000Z</time>
      </trkpt>
      <trkpt lat="43.76159" lon="7.1242">
        <ele>674</ele>
        <time>2023-08-02T10:38:29.000Z</time>
      </trkpt>
      <trkpt lat="43.7616" lon="7.12421">
        <ele>673.79998779297</ele>
        <time>2023-08-02T10:38:30.000Z</time>
      </trkpt>
      <trkpt lat="43.76162" lon="7.12422">
        <ele>673.59997558594</ele>
        <time>2023-08-02T10:38:31.000Z</time>
      </trkpt>
      <trkpt lat="43.76163" lon="7.12424">
        <ele>673.59997558594</ele>
        <time>2023-08-02T10:38:32.000Z</time>
      </trkpt>
      <trkpt lat="43.76165" lon="7.12426">
        <ele>673.40002441406</ele>
        <time>2023-08-02T10:38:33.000Z</time>
      </trkpt>
      <trkpt lat="43.76166" lon="7.12428">
        <ele>673</ele>
        <time>2023-08-02T10:38:34.000Z</time>
      </trkpt>
      <trkpt lat="43.76169" lon="7.1243">
        <ele>673</ele>
        <time>2023-08-02T10:38:35.000Z</time>
      </trkpt>
      <trkpt lat="43.76171" lon="7.12432">
        <ele>672.59997558594</ele>
        <time>2023-08-02T10:38:36.000Z</time>
      </trkpt>
      <trkpt lat="43.76174" lon="7.12435">
        <ele>671.79998779297</ele>
        <time>2023-08-02T10:38:37.000Z</time>
      </trkpt>
      <trkpt lat="43.76176" lon="7.12437">
        <ele>671.79998779297</ele>
        <time>2023-08-02T10:38:38.000Z</time>
      </trkpt>
      <trkpt lat="43.76176" lon="7.12439">
        <ele>671.79998779297</ele>
        <time>2023-08-02T10:38:39.000Z</time>
      </trkpt>
      <trkpt lat="43.76175" lon="7.12439">
        <ele>671</ele>
        <time>2023-08-02T10:38:40.000Z</time>
      </trkpt>
      <trkpt lat="43.76173" lon="7.12439">
        <ele>670.40002441406</ele>
        <time>2023-08-02T10:38:41.000Z</time>
      </trkpt>
      <trkpt lat="43.76172" lon="7.12438">
        <ele>670.40002441406</ele>
        <time>2023-08-02T10:38:42.000Z</time>
      </trkpt>
      <trkpt lat="43.7617" lon="7.12436">
        <ele>670.40002441406</ele>
        <time>2023-08-02T10:38:43.000Z</time>
      </trkpt>
      <trkpt lat="43.76168" lon="7.12435">
        <ele>670.20001220703</ele>
        <time>2023-08-02T10:38:44.000Z</time>
      </trkpt>
      <trkpt lat="43.76167" lon="7.12434">
        <ele>669.79998779297</ele>
        <time>2023-08-02T10:38:45.000Z</time>
      </trkpt>
      <trkpt lat="43.76165" lon="7.12434">
        <ele>669.59997558594</ele>
        <time>2023-08-02T10:38:46.000Z</time>
      </trkpt>
      <trkpt lat="43.76163" lon="7.12434">
        <ele>669</ele>
        <time>2023-08-02T10:38:47.000Z</time>
      </trkpt>
      <trkpt lat="43.76161" lon="7.12434">
        <ele>668.79998779297</ele>
        <time>2023-08-02T10:38:48.000Z</time>
      </trkpt>
      <trkpt lat="43.76159" lon="7.12433">
        <ele>668.59997558594</ele>
        <time>2023-08-02T10:38:49.000Z</time>
      </trkpt>
      <trkpt lat="43.76157" lon="7.12433">
        <ele>668</ele>
        <time>2023-08-02T10:38:50.000Z</time>
      </trkpt>
      <trkpt lat="43.76155" lon="7.12433">
        <ele>667.79998779297</ele>
        <time>2023-08-02T10:38:51.000Z</time>
      </trkpt>
      <trkpt lat="43.76154" lon="7.12434">
        <ele>667.59997558594</ele>
        <time>2023-08-02T10:38:52.000Z</time>
      </trkpt>
      <trkpt lat="43.76153" lon="7.12434">
        <ele>667.40002441406</ele>
        <time>2023-08-02T10:38:53.000Z</time>
      </trkpt>
      <trkpt lat="43.76152" lon="7.12434">
        <ele>666.79998779297</ele>
        <time>2023-08-02T10:38:54.000Z</time>
      </trkpt>
      <trkpt lat="43.76151" lon="7.12435">
        <ele>666.79998779297</ele>
        <time>2023-08-02T10:38:55.000Z</time>
      </trkpt>
      <trkpt lat="43.76151" lon="7.12435">
        <ele>666.79998779297</ele>
        <time>2023-08-02T10:38:56.000Z</time>
      </trkpt>
      <trkpt lat="43.76151" lon="7.12435">
        <ele>666.40002441406</ele>
        <time>2023-08-02T10:38:57.000Z</time>
      </trkpt>
      <trkpt lat="43.7615" lon="7.12436">
        <ele>666.20001220703</ele>
        <time>2023-08-02T10:38:58.000Z</time>
      </trkpt>
      <trkpt lat="43.76149" lon="7.12437">
        <ele>665.79998779297</ele>
        <time>2023-08-02T10:38:59.000Z</time>
      </trkpt>
      <trkpt lat="43.76149" lon="7.12437">
        <ele>665.59997558594</ele>
        <time>2023-08-02T10:39:00.000Z</time>
      </trkpt>
      <trkpt lat="43.76149" lon="7.12438">
        <ele>665.59997558594</ele>
        <time>2023-08-02T10:39:01.000Z</time>
      </trkpt>
      <trkpt lat="43.7615" lon="7.12439">
        <ele>665.20001220703</ele>
        <time>2023-08-02T10:39:02.000Z</time>
      </trkpt>
      <trkpt lat="43.76151" lon="7.1244">
        <ele>665.20001220703</ele>
        <time>2023-08-02T10:39:03.000Z</time>
      </trkpt>
      <trkpt lat="43.76152" lon="7.1244">
        <ele>665</ele>
        <time>2023-08-02T10:39:04.000Z</time>
      </trkpt>
      <trkpt lat="43.76153" lon="7.1244">
        <ele>664.79998779297</ele>
        <time>2023-08-02T10:39:05.000Z</time>
      </trkpt>
      <trkpt lat="43.76155" lon="7.12441">
        <ele>664.79998779297</ele>
        <time>2023-08-02T10:39:06.000Z</time>
      </trkpt>
      <trkpt lat="43.76156" lon="7.12442">
        <ele>664.59997558594</ele>
        <time>2023-08-02T10:39:07.000Z</time>
      </trkpt>
      <trkpt lat="43.76157" lon="7.12443">
        <ele>664.40002441406</ele>
        <time>2023-08-02T10:39:08.000Z</time>
      </trkpt>
      <trkpt lat="43.76159" lon="7.12444">
        <ele>664.20001220703</ele>
        <time>2023-08-02T10:39:09.000Z</time>
      </trkpt>
      <trkpt lat="43.76161" lon="7.12445">
        <ele>664.20001220703</ele>
        <time>2023-08-02T10:39:10.000Z</time>
      </trkpt>
      <trkpt lat="43.76162" lon="7.12445">
        <ele>663.79998779297</ele>
        <time>2023-08-02T10:39:11.000Z</time>
      </trkpt>
      <trkpt lat="43.76162" lon="7.12445">
        <ele>663.59997558594</ele>
        <time>2023-08-02T10:39:12.000Z</time>
      </trkpt>
      <trkpt lat="43.76163" lon="7.12446">
        <ele>663.40002441406</ele>
        <time>2023-08-02T10:39:13.000Z</time>
      </trkpt>
      <trkpt lat="43.76163" lon="7.12447">
        <ele>663.40002441406</ele>
        <time>2023-08-02T10:39:14.000Z</time>
      </trkpt>
      <trkpt lat="43.76164" lon="7.12447">
        <ele>663.20001220703</ele>
        <time>2023-08-02T10:39:15.000Z</time>
      </trkpt>
      <trkpt lat="43.76164" lon="7.12447">
        <ele>663.20001220703</ele>
        <time>2023-08-02T10:39:16.000Z</time>
      </trkpt>
      <trkpt lat="43.76163" lon="7.12447">
        <ele>663</ele>
        <time>2023-08-02T10:39:17.000Z</time>
      </trkpt>
      <trkpt lat="43.76163" lon="7.12447">
        <ele>662.79998779297</ele>
        <time>2023-08-02T10:39:18.000Z</time>
      </trkpt>
      <trkpt lat="43.76163" lon="7.12447">
        <ele>662.79998779297</ele>
        <time>2023-08-02T10:39:19.000Z</time>
      </trkpt>
      <trkpt lat="43.76163" lon="7.12447">
        <ele>662.79998779297</ele>
        <time>2023-08-02T10:39:20.000Z</time>
      </trkpt>
      <trkpt lat="43.76163" lon="7.12448">
        <ele>662.59997558594</ele>
        <time>2023-08-02T10:39:21.000Z</time>
      </trkpt>
      <trkpt lat="43.76163" lon="7.12448">
        <ele>662.59997558594</ele>
        <time>2023-08-02T10:39:22.000Z</time>
      </trkpt>
      <trkpt lat="43.76163" lon="7.12448">
        <ele>662.59997558594</ele>
        <time>2023-08-02T10:39:23.000Z</time>
      </trkpt>
      <trkpt lat="43.76163" lon="7.12448">
        <ele>662.59997558594</ele>
        <time>2023-08-02T10:39:24.000Z</time>
      </trkpt>
      <trkpt lat="43.76163" lon="7.12448">
        <ele>662.59997558594</ele>
        <time>2023-08-02T10:39:25.000Z</time>
      </trkpt>
      <trkpt lat="43.76163" lon="7.12448">
        <ele>662.59997558594</ele>
        <time>2023-08-02T10:39:26.000Z</time>
      </trkpt>
      <trkpt lat="43.76163" lon="7.12448">
        <ele>662.59997558594</ele>
        <time>2023-08-02T10:39:27.000Z</time>
      </trkpt>
      <trkpt lat="43.76163" lon="7.12448">
        <ele>662.59997558594</ele>
        <time>2023-08-02T10:39:28.000Z</time>
      </trkpt>
      <trkpt lat="43.76163" lon="7.12448">
        <ele>662.59997558594</ele>
        <time>2023-08-02T10:39:29.000Z</time>
      </trkpt>
      <trkpt lat="43.76163" lon="7.12448">
        <ele>662.59997558594</ele>
        <time>2023-08-02T10:39:30.000Z</time>
      </trkpt>
      <trkpt lat="43.76162" lon="7.12448">
        <ele>662.40002441406</ele>
        <time>2023-08-02T10:39:31.000Z</time>
      </trkpt>
      <trkpt lat="43.76161" lon="7.12448">
        <ele>662.40002441406</ele>
        <time>2023-08-02T10:39:32.000Z</time>
      </trkpt>
      <trkpt lat="43.76161" lon="7.12448">
        <ele>662.20001220703</ele>
        <time>2023-08-02T10:39:33.000Z</time>
      </trkpt>
      <trkpt lat="43.7616" lon="7.12448">
        <ele>662</ele>
        <time>2023-08-02T10:39:34.000Z</time>
      </trkpt>
      <trkpt lat="43.7616" lon="7.12448">
        <ele>661.79998779297</ele>
        <time>2023-08-02T10:39:35.000Z</time>
      </trkpt>
      <trkpt lat="43.7616" lon="7.12448">
        <ele>661.59997558594</ele>
        <time>2023-08-02T10:39:36.000Z</time>
      </trkpt>
      <trkpt lat="43.76159" lon="7.12447">
        <ele>661.59997558594</ele>
        <time>2023-08-02T10:39:37.000Z</time>
      </trkpt>
      <trkpt lat="43.76158" lon="7.12448">
        <ele>661.40002441406</ele>
        <time>2023-08-02T10:39:38.000Z</time>
      </trkpt>
      <trkpt lat="43.76157" lon="7.12448">
        <ele>661.40002441406</ele>
        <time>2023-08-02T10:39:39.000Z</time>
      </trkpt>
      <trkpt lat="43.76155" lon="7.12449">
        <ele>661.40002441406</ele>
        <time>2023-08-02T10:39:40.000Z</time>
      </trkpt>
      <trkpt lat="43.76153" lon="7.1245">
        <ele>661.20001220703</ele>
        <time>2023-08-02T10:39:41.000Z</time>
      </trkpt>
      <trkpt lat="43.76151" lon="7.1245">
        <ele>661</ele>
        <time>2023-08-02T10:39:42.000Z</time>
      </trkpt>
      <trkpt lat="43.76149" lon="7.1245">
        <ele>660.20001220703</ele>
        <time>2023-08-02T10:39:43.000Z</time>
      </trkpt>
      <trkpt lat="43.76148" lon="7.1245">
        <ele>660.20001220703</ele>
        <time>2023-08-02T10:39:44.000Z</time>
      </trkpt>
      <trkpt lat="43.76146" lon="7.12451">
        <ele>660</ele>
        <time>2023-08-02T10:39:45.000Z</time>
      </trkpt>
      <trkpt lat="43.76144" lon="7.12451">
        <ele>659.59997558594</ele>
        <time>2023-08-02T10:39:46.000Z</time>
      </trkpt>
      <trkpt lat="43.76143" lon="7.12452">
        <ele>659.20001220703</ele>
        <time>2023-08-02T10:39:47.000Z</time>
      </trkpt>
      <trkpt lat="43.76141" lon="7.12452">
        <ele>659</ele>
        <time>2023-08-02T10:39:48.000Z</time>
      </trkpt>
      <trkpt lat="43.76139" lon="7.12452">
        <ele>658.79998779297</ele>
        <time>2023-08-02T10:39:49.000Z</time>
      </trkpt>
      <trkpt lat="43.76138" lon="7.12451">
        <ele>658.59997558594</ele>
        <time>2023-08-02T10:39:50.000Z</time>
      </trkpt>
      <trkpt lat="43.76136" lon="7.12449">
        <ele>658.20001220703</ele>
        <time>2023-08-02T10:39:51.000Z</time>
      </trkpt>
      <trkpt lat="43.76133" lon="7.12448">
        <ele>658</ele>
        <time>2023-08-02T10:39:52.000Z</time>
      </trkpt>
      <trkpt lat="43.7613" lon="7.12446">
        <ele>657.79998779297</ele>
        <time>2023-08-02T10:39:53.000Z</time>
      </trkpt>
      <trkpt lat="43.76126" lon="7.12444">
        <ele>657.59997558594</ele>
        <time>2023-08-02T10:39:54.000Z</time>
      </trkpt>
      <trkpt lat="43.76123" lon="7.12443">
        <ele>657</ele>
        <time>2023-08-02T10:39:55.000Z</time>
      </trkpt>
      <trkpt lat="43.7612" lon="7.12442">
        <ele>656.20001220703</ele>
        <time>2023-08-02T10:39:56.000Z</time>
      </trkpt>
      <trkpt lat="43.76117" lon="7.12441">
        <ele>655.40002441406</ele>
        <time>2023-08-02T10:39:57.000Z</time>
      </trkpt>
      <trkpt lat="43.76113" lon="7.12441">
        <ele>655.40002441406</ele>
        <time>2023-08-02T10:39:58.000Z</time>
      </trkpt>
      <trkpt lat="43.76112" lon="7.12441">
        <ele>655.40002441406</ele>
        <time>2023-08-02T10:39:59.000Z</time>
      </trkpt>
      <trkpt lat="43.7611" lon="7.12441">
        <ele>654.59997558594</ele>
        <time>2023-08-02T10:40:00.000Z</time>
      </trkpt>
      <trkpt lat="43.76109" lon="7.12441">
        <ele>654.40002441406</ele>
        <time>2023-08-02T10:40:01.000Z</time>
      </trkpt>
      <trkpt lat="43.76108" lon="7.12441">
        <ele>654.20001220703</ele>
        <time>2023-08-02T10:40:02.000Z</time>
      </trkpt>
      <trkpt lat="43.76108" lon="7.12442">
        <ele>654</ele>
        <time>2023-08-02T10:40:03.000Z</time>
      </trkpt>
      <trkpt lat="43.76108" lon="7.12442">
        <ele>653.59997558594</ele>
        <time>2023-08-02T10:40:04.000Z</time>
      </trkpt>
      <trkpt lat="43.76108" lon="7.12442">
        <ele>653.59997558594</ele>
        <time>2023-08-02T10:40:05.000Z</time>
      </trkpt>
      <trkpt lat="43.76108" lon="7.12442">
        <ele>653.40002441406</ele>
        <time>2023-08-02T10:40:06.000Z</time>
      </trkpt>
      <trkpt lat="43.76108" lon="7.12443">
        <ele>653.20001220703</ele>
        <time>2023-08-02T10:40:07.000Z</time>
      </trkpt>
      <trkpt lat="43.76109" lon="7.12443">
        <ele>653.20001220703</ele>
        <time>2023-08-02T10:40:08.000Z</time>
      </trkpt>
      <trkpt lat="43.76109" lon="7.12443">
        <ele>653.20001220703</ele>
        <time>2023-08-02T10:40:09.000Z</time>
      </trkpt>
      <trkpt lat="43.7611" lon="7.12443">
        <ele>653</ele>
        <time>2023-08-02T10:40:10.000Z</time>
      </trkpt>
      <trkpt lat="43.76111" lon="7.12443">
        <ele>653</ele>
        <time>2023-08-02T10:40:11.000Z</time>
      </trkpt>
      <trkpt lat="43.76111" lon="7.12443">
        <ele>652.79998779297</ele>
        <time>2023-08-02T10:40:12.000Z</time>
      </trkpt>
      <trkpt lat="43.76111" lon="7.12442">
        <ele>652.59997558594</ele>
        <time>2023-08-02T10:40:13.000Z</time>
      </trkpt>
      <trkpt lat="43.76112" lon="7.12442">
        <ele>652.59997558594</ele>
        <time>2023-08-02T10:40:14.000Z</time>
      </trkpt>
      <trkpt lat="43.76113" lon="7.12443">
        <ele>652.59997558594</ele>
        <time>2023-08-02T10:40:15.000Z</time>
      </trkpt>
      <trkpt lat="43.76114" lon="7.12443">
        <ele>652.59997558594</ele>
        <time>2023-08-02T10:40:16.000Z</time>
      </trkpt>
      <trkpt lat="43.76115" lon="7.12444">
        <ele>652.40002441406</ele>
        <time>2023-08-02T10:40:17.000Z</time>
      </trkpt>
      <trkpt lat="43.76116" lon="7.12445">
        <ele>652.40002441406</ele>
        <time>2023-08-02T10:40:18.000Z</time>
      </trkpt>
      <trkpt lat="43.76117" lon="7.12446">
        <ele>652.40002441406</ele>
        <time>2023-08-02T10:40:19.000Z</time>
      </trkpt>
      <trkpt lat="43.76119" lon="7.12448">
        <ele>652</ele>
        <time>2023-08-02T10:40:20.000Z</time>
      </trkpt>
      <trkpt lat="43.76122" lon="7.1245">
        <ele>651.79998779297</ele>
        <time>2023-08-02T10:40:21.000Z</time>
      </trkpt>
      <trkpt lat="43.76125" lon="7.12453">
        <ele>651.40002441406</ele>
        <time>2023-08-02T10:40:22.000Z</time>
      </trkpt>
      <trkpt lat="43.76128" lon="7.12454">
        <ele>651</ele>
        <time>2023-08-02T10:40:23.000Z</time>
      </trkpt>
      <trkpt lat="43.7613" lon="7.12455">
        <ele>650.79998779297</ele>
        <time>2023-08-02T10:40:24.000Z</time>
      </trkpt>
      <trkpt lat="43.76131" lon="7.12457">
        <ele>650.59997558594</ele>
        <time>2023-08-02T10:40:25.000Z</time>
      </trkpt>
      <trkpt lat="43.76131" lon="7.12457">
        <ele>650</ele>
        <time>2023-08-02T10:40:26.000Z</time>
      </trkpt>
      <trkpt lat="43.76131" lon="7.12457">
        <ele>649.79998779297</ele>
        <time>2023-08-02T10:40:27.000Z</time>
      </trkpt>
      <trkpt lat="43.76132" lon="7.12458">
        <ele>649</ele>
        <time>2023-08-02T10:40:28.000Z</time>
      </trkpt>
      <trkpt lat="43.76132" lon="7.12458">
        <ele>649</ele>
        <time>2023-08-02T10:40:29.000Z</time>
      </trkpt>
      <trkpt lat="43.76132" lon="7.12458">
        <ele>648.59997558594</ele>
        <time>2023-08-02T10:40:30.000Z</time>
      </trkpt>
      <trkpt lat="43.76132" lon="7.12458">
        <ele>648.40002441406</ele>
        <time>2023-08-02T10:40:31.000Z</time>
      </trkpt>
      <trkpt lat="43.76132" lon="7.12458">
        <ele>648.40002441406</ele>
        <time>2023-08-02T10:40:32.000Z</time>
      </trkpt>
      <trkpt lat="43.76132" lon="7.12458">
        <ele>648.20001220703</ele>
        <time>2023-08-02T10:40:33.000Z</time>
      </trkpt>
      <trkpt lat="43.76131" lon="7.1246">
        <ele>648.20001220703</ele>
        <time>2023-08-02T10:40:34.000Z</time>
      </trkpt>
      <trkpt lat="43.76131" lon="7.1246">
        <ele>648.20001220703</ele>
        <time>2023-08-02T10:40:35.000Z</time>
      </trkpt>
      <trkpt lat="43.7613" lon="7.1246">
        <ele>648.20001220703</ele>
        <time>2023-08-02T10:40:36.000Z</time>
      </trkpt>
      <trkpt lat="43.76129" lon="7.1246">
        <ele>648.20001220703</ele>
        <time>2023-08-02T10:40:37.000Z</time>
      </trkpt>
      <trkpt lat="43.76129" lon="7.1246">
        <ele>648</ele>
        <time>2023-08-02T10:40:38.000Z</time>
      </trkpt>
      <trkpt lat="43.76128" lon="7.1246">
        <ele>648</ele>
        <time>2023-08-02T10:40:39.000Z</time>
      </trkpt>
      <trkpt lat="43.76127" lon="7.1246">
        <ele>648</ele>
        <time>2023-08-02T10:40:40.000Z</time>
      </trkpt>
      <trkpt lat="43.76127" lon="7.1246">
        <ele>648</ele>
        <time>2023-08-02T10:40:41.000Z</time>
      </trkpt>
      <trkpt lat="43.76126" lon="7.1246">
        <ele>647.79998779297</ele>
        <time>2023-08-02T10:40:42.000Z</time>
      </trkpt>
      <trkpt lat="43.76125" lon="7.1246">
        <ele>647.59997558594</ele>
        <time>2023-08-02T10:40:43.000Z</time>
      </trkpt>
      <trkpt lat="43.76125" lon="7.1246">
        <ele>647.59997558594</ele>
        <time>2023-08-02T10:40:44.000Z</time>
      </trkpt>
      <trkpt lat="43.76124" lon="7.1246">
        <ele>647.40002441406</ele>
        <time>2023-08-02T10:40:45.000Z</time>
      </trkpt>
      <trkpt lat="43.76123" lon="7.1246">
        <ele>647.20001220703</ele>
        <time>2023-08-02T10:40:46.000Z</time>
      </trkpt>
      <trkpt lat="43.76123" lon="7.1246">
        <ele>647</ele>
        <time>2023-08-02T10:40:47.000Z</time>
      </trkpt>
      <trkpt lat="43.76122" lon="7.1246">
        <ele>647</ele>
        <time>2023-08-02T10:40:48.000Z</time>
      </trkpt>
      <trkpt lat="43.76121" lon="7.12461">
        <ele>646.79998779297</ele>
        <time>2023-08-02T10:40:49.000Z</time>
      </trkpt>
      <trkpt lat="43.76121" lon="7.12461">
        <ele>646.59997558594</ele>
        <time>2023-08-02T10:40:50.000Z</time>
      </trkpt>
      <trkpt lat="43.76121" lon="7.12461">
        <ele>646.59997558594</ele>
        <time>2023-08-02T10:40:51.000Z</time>
      </trkpt>
      <trkpt lat="43.7612" lon="7.12461">
        <ele>646.40002441406</ele>
        <time>2023-08-02T10:40:52.000Z</time>
      </trkpt>
      <trkpt lat="43.7612" lon="7.12462">
        <ele>646.20001220703</ele>
        <time>2023-08-02T10:40:53.000Z</time>
      </trkpt>
      <trkpt lat="43.7612" lon="7.12462">
        <ele>646.20001220703</ele>
        <time>2023-08-02T10:40:54.000Z</time>
      </trkpt>
      <trkpt lat="43.7612" lon="7.12462">
        <ele>646</ele>
        <time>2023-08-02T10:40:55.000Z</time>
      </trkpt>
      <trkpt lat="43.76121" lon="7.12463">
        <ele>646</ele>
        <time>2023-08-02T10:40:56.000Z</time>
      </trkpt>
      <trkpt lat="43.76121" lon="7.12463">
        <ele>645.59997558594</ele>
        <time>2023-08-02T10:40:57.000Z</time>
      </trkpt>
      <trkpt lat="43.76122" lon="7.12463">
        <ele>645.59997558594</ele>
        <time>2023-08-02T10:40:58.000Z</time>
      </trkpt>
      <trkpt lat="43.76122" lon="7.12463">
        <ele>645.40002441406</ele>
        <time>2023-08-02T10:40:59.000Z</time>
      </trkpt>
      <trkpt lat="43.76122" lon="7.12463">
        <ele>645</ele>
        <time>2023-08-02T10:41:00.000Z</time>
      </trkpt>
      <trkpt lat="43.76122" lon="7.12463">
        <ele>645</ele>
        <time>2023-08-02T10:41:01.000Z</time>
      </trkpt>
      <trkpt lat="43.76123" lon="7.12465">
        <ele>645</ele>
        <time>2023-08-02T10:41:02.000Z</time>
      </trkpt>
      <trkpt lat="43.76124" lon="7.12467">
        <ele>645</ele>
        <time>2023-08-02T10:41:03.000Z</time>
      </trkpt>
      <trkpt lat="43.76126" lon="7.12468">
        <ele>645</ele>
        <time>2023-08-02T10:41:04.000Z</time>
      </trkpt>
      <trkpt lat="43.76127" lon="7.12469">
        <ele>645</ele>
        <time>2023-08-02T10:41:05.000Z</time>
      </trkpt>
      <trkpt lat="43.76128" lon="7.12469">
        <ele>644.59997558594</ele>
        <time>2023-08-02T10:41:06.000Z</time>
      </trkpt>
      <trkpt lat="43.76129" lon="7.1247">
        <ele>644.20001220703</ele>
        <time>2023-08-02T10:41:07.000Z</time>
      </trkpt>
      <trkpt lat="43.76129" lon="7.12471">
        <ele>644</ele>
        <time>2023-08-02T10:41:08.000Z</time>
      </trkpt>
      <trkpt lat="43.7613" lon="7.12472">
        <ele>643.79998779297</ele>
        <time>2023-08-02T10:41:09.000Z</time>
      </trkpt>
      <trkpt lat="43.7613" lon="7.12473">
        <ele>643.40002441406</ele>
        <time>2023-08-02T10:41:10.000Z</time>
      </trkpt>
      <trkpt lat="43.76131" lon="7.12475">
        <ele>643</ele>
        <time>2023-08-02T10:41:11.000Z</time>
      </trkpt>
      <trkpt lat="43.76131" lon="7.12477">
        <ele>642.40002441406</ele>
        <time>2023-08-02T10:41:12.000Z</time>
      </trkpt>
      <trkpt lat="43.76131" lon="7.12478">
        <ele>642</ele>
        <time>2023-08-02T10:41:13.000Z</time>
      </trkpt>
      <trkpt lat="43.76131" lon="7.1248">
        <ele>641.59997558594</ele>
        <time>2023-08-02T10:41:14.000Z</time>
      </trkpt>
      <trkpt lat="43.76131" lon="7.12482">
        <ele>641</ele>
        <time>2023-08-02T10:41:15.000Z</time>
      </trkpt>
      <trkpt lat="43.76131" lon="7.12484">
        <ele>640.79998779297</ele>
        <time>2023-08-02T10:41:16.000Z</time>
      </trkpt>
      <trkpt lat="43.76132" lon="7.12486">
        <ele>640.20001220703</ele>
        <time>2023-08-02T10:41:17.000Z</time>
      </trkpt>
      <trkpt lat="43.76132" lon="7.12488">
        <ele>639.59997558594</ele>
        <time>2023-08-02T10:41:18.000Z</time>
      </trkpt>
      <trkpt lat="43.76133" lon="7.12491">
        <ele>638.79998779297</ele>
        <time>2023-08-02T10:41:19.000Z</time>
      </trkpt>
      <trkpt lat="43.76135" lon="7.12493">
        <ele>638.79998779297</ele>
        <time>2023-08-02T10:41:20.000Z</time>
      </trkpt>
      <trkpt lat="43.76137" lon="7.12496">
        <ele>638.40002441406</ele>
        <time>2023-08-02T10:41:21.000Z</time>
      </trkpt>
      <trkpt lat="43.76139" lon="7.12498">
        <ele>637.79998779297</ele>
        <time>2023-08-02T10:41:22.000Z</time>
      </trkpt>
      <trkpt lat="43.76141" lon="7.125">
        <ele>636.59997558594</ele>
        <time>2023-08-02T10:41:23.000Z</time>
      </trkpt>
      <trkpt lat="43.76143" lon="7.12501">
        <ele>635.79998779297</ele>
        <time>2023-08-02T10:41:24.000Z</time>
      </trkpt>
      <trkpt lat="43.76145" lon="7.12503">
        <ele>635.20001220703</ele>
        <time>2023-08-02T10:41:25.000Z</time>
      </trkpt>
      <trkpt lat="43.76147" lon="7.12504">
        <ele>634.59997558594</ele>
        <time>2023-08-02T10:41:26.000Z</time>
      </trkpt>
      <trkpt lat="43.7615" lon="7.12506">
        <ele>634</ele>
        <time>2023-08-02T10:41:27.000Z</time>
      </trkpt>
      <trkpt lat="43.76152" lon="7.12506">
        <ele>633.59997558594</ele>
        <time>2023-08-02T10:41:28.000Z</time>
      </trkpt>
      <trkpt lat="43.76155" lon="7.12507">
        <ele>633.20001220703</ele>
        <time>2023-08-02T10:41:29.000Z</time>
      </trkpt>
      <trkpt lat="43.76156" lon="7.12509">
        <ele>633</ele>
        <time>2023-08-02T10:41:30.000Z</time>
      </trkpt>
      <trkpt lat="43.76157" lon="7.12511">
        <ele>632.59997558594</ele>
        <time>2023-08-02T10:41:31.000Z</time>
      </trkpt>
      <trkpt lat="43.76157" lon="7.12513">
        <ele>631.79998779297</ele>
        <time>2023-08-02T10:41:32.000Z</time>
      </trkpt>
      <trkpt lat="43.76157" lon="7.12516">
        <ele>631.59997558594</ele>
        <time>2023-08-02T10:41:33.000Z</time>
      </trkpt>
      <trkpt lat="43.76158" lon="7.1252">
        <ele>630.79998779297</ele>
        <time>2023-08-02T10:41:34.000Z</time>
      </trkpt>
      <trkpt lat="43.76158" lon="7.12524">
        <ele>630.40002441406</ele>
        <time>2023-08-02T10:41:35.000Z</time>
      </trkpt>
      <trkpt lat="43.76159" lon="7.12526">
        <ele>630</ele>
        <time>2023-08-02T10:41:36.000Z</time>
      </trkpt>
      <trkpt lat="43.76159" lon="7.12528">
        <ele>629</ele>
        <time>2023-08-02T10:41:37.000Z</time>
      </trkpt>
      <trkpt lat="43.76159" lon="7.1253">
        <ele>628.40002441406</ele>
        <time>2023-08-02T10:41:38.000Z</time>
      </trkpt>
      <trkpt lat="43.76159" lon="7.12532">
        <ele>627.79998779297</ele>
        <time>2023-08-02T10:41:39.000Z</time>
      </trkpt>
      <trkpt lat="43.76159" lon="7.12534">
        <ele>627.20001220703</ele>
        <time>2023-08-02T10:41:40.000Z</time>
      </trkpt>
      <trkpt lat="43.7616" lon="7.12537">
        <ele>626.79998779297</ele>
        <time>2023-08-02T10:41:41.000Z</time>
      </trkpt>
      <trkpt lat="43.7616" lon="7.12539">
        <ele>626.20001220703</ele>
        <time>2023-08-02T10:41:42.000Z</time>
      </trkpt>
      <trkpt lat="43.7616" lon="7.12539">
        <ele>626</ele>
        <time>2023-08-02T10:41:43.000Z</time>
      </trkpt>
      <trkpt lat="43.7616" lon="7.12539">
        <ele>626</ele>
        <time>2023-08-02T10:41:44.000Z</time>
      </trkpt>
      <trkpt lat="43.7616" lon="7.12539">
        <ele>625.20001220703</ele>
        <time>2023-08-02T10:41:45.000Z</time>
      </trkpt>
      <trkpt lat="43.7616" lon="7.12539">
        <ele>624.79998779297</ele>
        <time>2023-08-02T10:41:46.000Z</time>
      </trkpt>
      <trkpt lat="43.76159" lon="7.1254">
        <ele>624.59997558594</ele>
        <time>2023-08-02T10:41:47.000Z</time>
      </trkpt>
      <trkpt lat="43.76159" lon="7.1254">
        <ele>624.20001220703</ele>
        <time>2023-08-02T10:41:48.000Z</time>
      </trkpt>
      <trkpt lat="43.76159" lon="7.1254">
        <ele>624.20001220703</ele>
        <time>2023-08-02T10:41:49.000Z</time>
      </trkpt>
      <trkpt lat="43.76159" lon="7.12541">
        <ele>624</ele>
        <time>2023-08-02T10:41:50.000Z</time>
      </trkpt>
      <trkpt lat="43.76159" lon="7.12541">
        <ele>623.79998779297</ele>
        <time>2023-08-02T10:41:51.000Z</time>
      </trkpt>
      <trkpt lat="43.76159" lon="7.12542">
        <ele>623.59997558594</ele>
        <time>2023-08-02T10:41:52.000Z</time>
      </trkpt>
      <trkpt lat="43.76159" lon="7.12543">
        <ele>623.40002441406</ele>
        <time>2023-08-02T10:41:53.000Z</time>
      </trkpt>
      <trkpt lat="43.76159" lon="7.12542">
        <ele>623.40002441406</ele>
        <time>2023-08-02T10:41:54.000Z</time>
      </trkpt>
      <trkpt lat="43.76159" lon="7.12542">
        <ele>623.40002441406</ele>
        <time>2023-08-02T10:41:55.000Z</time>
      </trkpt>
      <trkpt lat="43.76158" lon="7.12542">
        <ele>623.20001220703</ele>
        <time>2023-08-02T10:41:56.000Z</time>
      </trkpt>
      <trkpt lat="43.76158" lon="7.12543">
        <ele>622.79998779297</ele>
        <time>2023-08-02T10:41:57.000Z</time>
      </trkpt>
      <trkpt lat="43.76158" lon="7.12544">
        <ele>622.59997558594</ele>
        <time>2023-08-02T10:41:58.000Z</time>
      </trkpt>
      <trkpt lat="43.76157" lon="7.12544">
        <ele>622.40002441406</ele>
        <time>2023-08-02T10:41:59.000Z</time>
      </trkpt>
      <trkpt lat="43.76157" lon="7.12544">
        <ele>622</ele>
        <time>2023-08-02T10:42:00.000Z</time>
      </trkpt>
      <trkpt lat="43.76156" lon="7.12545">
        <ele>622</ele>
        <time>2023-08-02T10:42:01.000Z</time>
      </trkpt>
      <trkpt lat="43.76156" lon="7.12546">
        <ele>621.79998779297</ele>
        <time>2023-08-02T10:42:02.000Z</time>
      </trkpt>
      <trkpt lat="43.76156" lon="7.12546">
        <ele>621.40002441406</ele>
        <time>2023-08-02T10:42:03.000Z</time>
      </trkpt>
      <trkpt lat="43.76155" lon="7.12547">
        <ele>621.40002441406</ele>
        <time>2023-08-02T10:42:04.000Z</time>
      </trkpt>
      <trkpt lat="43.76155" lon="7.12548">
        <ele>621</ele>
        <time>2023-08-02T10:42:05.000Z</time>
      </trkpt>
      <trkpt lat="43.76155" lon="7.12549">
        <ele>620.79998779297</ele>
        <time>2023-08-02T10:42:06.000Z</time>
      </trkpt>
      <trkpt lat="43.76155" lon="7.12549">
        <ele>620.59997558594</ele>
        <time>2023-08-02T10:42:07.000Z</time>
      </trkpt>
      <trkpt lat="43.76154" lon="7.12549">
        <ele>620.20001220703</ele>
        <time>2023-08-02T10:42:08.000Z</time>
      </trkpt>
      <trkpt lat="43.76154" lon="7.12549">
        <ele>620.20001220703</ele>
        <time>2023-08-02T10:42:09.000Z</time>
      </trkpt>
      <trkpt lat="43.76155" lon="7.12549">
        <ele>620</ele>
        <time>2023-08-02T10:42:10.000Z</time>
      </trkpt>
      <trkpt lat="43.76155" lon="7.1255">
        <ele>619.59997558594</ele>
        <time>2023-08-02T10:42:11.000Z</time>
      </trkpt>
      <trkpt lat="43.76156" lon="7.12551">
        <ele>619.40002441406</ele>
        <time>2023-08-02T10:42:12.000Z</time>
      </trkpt>
      <trkpt lat="43.76156" lon="7.12554">
        <ele>619.20001220703</ele>
        <time>2023-08-02T10:42:13.000Z</time>
      </trkpt>
      <trkpt lat="43.76157" lon="7.12556">
        <ele>619.20001220703</ele>
        <time>2023-08-02T10:42:14.000Z</time>
      </trkpt>
      <trkpt lat="43.76158" lon="7.12558">
        <ele>619</ele>
        <time>2023-08-02T10:42:15.000Z</time>
      </trkpt>
      <trkpt lat="43.76158" lon="7.12562">
        <ele>619</ele>
        <time>2023-08-02T10:42:16.000Z</time>
      </trkpt>
      <trkpt lat="43.76159" lon="7.12565">
        <ele>618.59997558594</ele>
        <time>2023-08-02T10:42:17.000Z</time>
      </trkpt>
      <trkpt lat="43.7616" lon="7.12567">
        <ele>618.20001220703</ele>
        <time>2023-08-02T10:42:18.000Z</time>
      </trkpt>
      <trkpt lat="43.76162" lon="7.12569">
        <ele>617.59997558594</ele>
        <time>2023-08-02T10:42:19.000Z</time>
      </trkpt>
      <trkpt lat="43.76163" lon="7.12571">
        <ele>617.20001220703</ele>
        <time>2023-08-02T10:42:20.000Z</time>
      </trkpt>
      <trkpt lat="43.76164" lon="7.12573">
        <ele>616.59997558594</ele>
        <time>2023-08-02T10:42:21.000Z</time>
      </trkpt>
      <trkpt lat="43.76164" lon="7.12574">
        <ele>616.20001220703</ele>
        <time>2023-08-02T10:42:22.000Z</time>
      </trkpt>
      <trkpt lat="43.76164" lon="7.12577">
        <ele>615.79998779297</ele>
        <time>2023-08-02T10:42:23.000Z</time>
      </trkpt>
      <trkpt lat="43.76165" lon="7.1258">
        <ele>615.20001220703</ele>
        <time>2023-08-02T10:42:24.000Z</time>
      </trkpt>
      <trkpt lat="43.76165" lon="7.12582">
        <ele>615</ele>
        <time>2023-08-02T10:42:25.000Z</time>
      </trkpt>
      <trkpt lat="43.76166" lon="7.12583">
        <ele>614.40002441406</ele>
        <time>2023-08-02T10:42:26.000Z</time>
      </trkpt>
      <trkpt lat="43.76166" lon="7.12583">
        <ele>614.20001220703</ele>
        <time>2023-08-02T10:42:27.000Z</time>
      </trkpt>
      <trkpt lat="43.76166" lon="7.12584">
        <ele>613.59997558594</ele>
        <time>2023-08-02T10:42:28.000Z</time>
      </trkpt>
      <trkpt lat="43.76166" lon="7.12584">
        <ele>613</ele>
        <time>2023-08-02T10:42:29.000Z</time>
      </trkpt>
      <trkpt lat="43.76166" lon="7.12585">
        <ele>612.79998779297</ele>
        <time>2023-08-02T10:42:30.000Z</time>
      </trkpt>
      <trkpt lat="43.76166" lon="7.12586">
        <ele>612.59997558594</ele>
        <time>2023-08-02T10:42:31.000Z</time>
      </trkpt>
      <trkpt lat="43.76165" lon="7.12587">
        <ele>612.40002441406</ele>
        <time>2023-08-02T10:42:32.000Z</time>
      </trkpt>
      <trkpt lat="43.76165" lon="7.12588">
        <ele>612.40002441406</ele>
        <time>2023-08-02T10:42:33.000Z</time>
      </trkpt>
      <trkpt lat="43.76165" lon="7.12589">
        <ele>612.40002441406</ele>
        <time>2023-08-02T10:42:34.000Z</time>
      </trkpt>
      <trkpt lat="43.76165" lon="7.12589">
        <ele>612.20001220703</ele>
        <time>2023-08-02T10:42:35.000Z</time>
      </trkpt>
      <trkpt lat="43.76165" lon="7.12589">
        <ele>612</ele>
        <time>2023-08-02T10:42:36.000Z</time>
      </trkpt>
      <trkpt lat="43.76165" lon="7.12589">
        <ele>611.79998779297</ele>
        <time>2023-08-02T10:42:37.000Z</time>
      </trkpt>
      <trkpt lat="43.76165" lon="7.1259">
        <ele>611.59997558594</ele>
        <time>2023-08-02T10:42:38.000Z</time>
      </trkpt>
      <trkpt lat="43.76165" lon="7.1259">
        <ele>611.40002441406</ele>
        <time>2023-08-02T10:42:39.000Z</time>
      </trkpt>
      <trkpt lat="43.76165" lon="7.1259">
        <ele>611.40002441406</ele>
        <time>2023-08-02T10:42:40.000Z</time>
      </trkpt>
      <trkpt lat="43.76165" lon="7.1259">
        <ele>611.40002441406</ele>
        <time>2023-08-02T10:42:41.000Z</time>
      </trkpt>
      <trkpt lat="43.76165" lon="7.1259">
        <ele>611.40002441406</ele>
        <time>2023-08-02T10:42:42.000Z</time>
      </trkpt>
      <trkpt lat="43.76165" lon="7.1259">
        <ele>611.40002441406</ele>
        <time>2023-08-02T10:42:43.000Z</time>
      </trkpt>
      <trkpt lat="43.76165" lon="7.1259">
        <ele>611.40002441406</ele>
        <time>2023-08-02T10:42:44.000Z</time>
      </trkpt>
      <trkpt lat="43.76165" lon="7.1259">
        <ele>611.40002441406</ele>
        <time>2023-08-02T10:42:45.000Z</time>
      </trkpt>
      <trkpt lat="43.76165" lon="7.1259">
        <ele>611.40002441406</ele>
        <time>2023-08-02T10:42:46.000Z</time>
      </trkpt>
      <trkpt lat="43.76165" lon="7.1259">
        <ele>611.40002441406</ele>
        <time>2023-08-02T10:42:47.000Z</time>
      </trkpt>
      <trkpt lat="43.76165" lon="7.1259">
        <ele>611.40002441406</ele>
        <time>2023-08-02T10:42:48.000Z</time>
      </trkpt>
      <trkpt lat="43.76165" lon="7.1259">
        <ele>611.40002441406</ele>
        <time>2023-08-02T10:42:49.000Z</time>
      </trkpt>
      <trkpt lat="43.76165" lon="7.1259">
        <ele>611.40002441406</ele>
        <time>2023-08-02T10:42:50.000Z</time>
      </trkpt>
      <trkpt lat="43.76165" lon="7.1259">
        <ele>611.40002441406</ele>
        <time>2023-08-02T10:42:51.000Z</time>
      </trkpt>
      <trkpt lat="43.76165" lon="7.1259">
        <ele>611.40002441406</ele>
        <time>2023-08-02T10:42:52.000Z</time>
      </trkpt>
      <trkpt lat="43.76165" lon="7.1259">
        <ele>611.40002441406</ele>
        <time>2023-08-02T10:42:53.000Z</time>
      </trkpt>
      <trkpt lat="43.76165" lon="7.1259">
        <ele>611.40002441406</ele>
        <time>2023-08-02T10:42:54.000Z</time>
      </trkpt>
      <trkpt lat="43.76165" lon="7.1259">
        <ele>611.40002441406</ele>
        <time>2023-08-02T10:42:55.000Z</time>
      </trkpt>
      <trkpt lat="43.76165" lon="7.1259">
        <ele>611.40002441406</ele>
        <time>2023-08-02T10:42:56.000Z</time>
      </trkpt>
      <trkpt lat="43.76165" lon="7.1259">
        <ele>611.40002441406</ele>
        <time>2023-08-02T10:42:57.000Z</time>
      </trkpt>
      <trkpt lat="43.76165" lon="7.1259">
        <ele>611.59997558594</ele>
        <time>2023-08-02T10:42:58.000Z</time>
      </trkpt>
      <trkpt lat="43.76165" lon="7.1259">
        <ele>611.40002441406</ele>
        <time>2023-08-02T10:42:59.000Z</time>
      </trkpt>
      <trkpt lat="43.76165" lon="7.1259">
        <ele>611.59997558594</ele>
        <time>2023-08-02T10:43:00.000Z</time>
      </trkpt>
      <trkpt lat="43.76165" lon="7.12589">
        <ele>611.59997558594</ele>
        <time>2023-08-02T10:43:01.000Z</time>
      </trkpt>
      <trkpt lat="43.76165" lon="7.12589">
        <ele>611.59997558594</ele>
        <time>2023-08-02T10:43:02.000Z</time>
      </trkpt>
      <trkpt lat="43.76165" lon="7.12589">
        <ele>611.59997558594</ele>
        <time>2023-08-02T10:43:03.000Z</time>
      </trkpt>
      <trkpt lat="43.76165" lon="7.12589">
        <ele>611.59997558594</ele>
        <time>2023-08-02T10:43:04.000Z</time>
      </trkpt>
      <trkpt lat="43.76165" lon="7.12589">
        <ele>611.59997558594</ele>
        <time>2023-08-02T10:43:05.000Z</time>
      </trkpt>
      <trkpt lat="43.76165" lon="7.12589">
        <ele>611.59997558594</ele>
        <time>2023-08-02T10:43:06.000Z</time>
      </trkpt>
      <trkpt lat="43.76165" lon="7.12589">
        <ele>611.59997558594</ele>
        <time>2023-08-02T10:43:07.000Z</time>
      </trkpt>
      <trkpt lat="43.76165" lon="7.12589">
        <ele>611.59997558594</ele>
        <time>2023-08-02T10:43:08.000Z</time>
      </trkpt>
      <trkpt lat="43.76165" lon="7.12589">
        <ele>611.59997558594</ele>
        <time>2023-08-02T10:43:09.000Z</time>
      </trkpt>
      <trkpt lat="43.76165" lon="7.12589">
        <ele>611.59997558594</ele>
        <time>2023-08-02T10:43:10.000Z</time>
      </trkpt>
      <trkpt lat="43.76165" lon="7.12589">
        <ele>611.59997558594</ele>
        <time>2023-08-02T10:43:11.000Z</time>
      </trkpt>
      <trkpt lat="43.76165" lon="7.12589">
        <ele>611.59997558594</ele>
        <time>2023-08-02T10:43:12.000Z</time>
      </trkpt>
      <trkpt lat="43.76165" lon="7.12589">
        <ele>611.59997558594</ele>
        <time>2023-08-02T10:43:13.000Z</time>
      </trkpt>
      <trkpt lat="43.76164" lon="7.12588">
        <ele>611.59997558594</ele>
        <time>2023-08-02T10:43:14.000Z</time>
      </trkpt>
      <trkpt lat="43.76164" lon="7.12588">
        <ele>611.59997558594</ele>
        <time>2023-08-02T10:43:15.000Z</time>
      </trkpt>
      <trkpt lat="43.76164" lon="7.12588">
        <ele>611.59997558594</ele>
        <time>2023-08-02T10:43:16.000Z</time>
      </trkpt>
      <trkpt lat="43.76164" lon="7.12588">
        <ele>611.59997558594</ele>
        <time>2023-08-02T10:43:17.000Z</time>
      </trkpt>
      <trkpt lat="43.76164" lon="7.12588">
        <ele>611.59997558594</ele>
        <time>2023-08-02T10:43:18.000Z</time>
      </trkpt>
      <trkpt lat="43.76164" lon="7.12588">
        <ele>611.59997558594</ele>
        <time>2023-08-02T10:43:19.000Z</time>
      </trkpt>
      <trkpt lat="43.76164" lon="7.12588">
        <ele>611.59997558594</ele>
        <time>2023-08-02T10:43:20.000Z</time>
      </trkpt>
      <trkpt lat="43.76164" lon="7.12588">
        <ele>611.59997558594</ele>
        <time>2023-08-02T10:43:21.000Z</time>
      </trkpt>
      <trkpt lat="43.76164" lon="7.12588">
        <ele>611.59997558594</ele>
        <time>2023-08-02T10:43:22.000Z</time>
      </trkpt>
      <trkpt lat="43.76164" lon="7.12588">
        <ele>611.59997558594</ele>
        <time>2023-08-02T10:43:23.000Z</time>
      </trkpt>
      <trkpt lat="43.76164" lon="7.12588">
        <ele>611.59997558594</ele>
        <time>2023-08-02T10:43:24.000Z</time>
      </trkpt>
      <trkpt lat="43.76164" lon="7.12588">
        <ele>611.40002441406</ele>
        <time>2023-08-02T10:43:25.000Z</time>
      </trkpt>
      <trkpt lat="43.76164" lon="7.12588">
        <ele>611.40002441406</ele>
        <time>2023-08-02T10:43:26.000Z</time>
      </trkpt>
      <trkpt lat="43.76164" lon="7.12588">
        <ele>611.59997558594</ele>
        <time>2023-08-02T10:43:27.000Z</time>
      </trkpt>
      <trkpt lat="43.76164" lon="7.12588">
        <ele>611.59997558594</ele>
        <time>2023-08-02T10:43:28.000Z</time>
      </trkpt>
      <trkpt lat="43.76164" lon="7.12588">
        <ele>611.59997558594</ele>
        <time>2023-08-02T10:43:29.000Z</time>
      </trkpt>
      <trkpt lat="43.76164" lon="7.12588">
        <ele>611.59997558594</ele>
        <time>2023-08-02T10:43:30.000Z</time>
      </trkpt>
      <trkpt lat="43.76164" lon="7.12587">
        <ele>611.79998779297</ele>
        <time>2023-08-02T10:43:31.000Z</time>
      </trkpt>
      <trkpt lat="43.76164" lon="7.12587">
        <ele>611.79998779297</ele>
        <time>2023-08-02T10:43:32.000Z</time>
      </trkpt>
      <trkpt lat="43.76164" lon="7.12587">
        <ele>611.79998779297</ele>
        <time>2023-08-02T10:43:33.000Z</time>
      </trkpt>
      <trkpt lat="43.76165" lon="7.12587">
        <ele>611.59997558594</ele>
        <time>2023-08-02T10:43:34.000Z</time>
      </trkpt>
      <trkpt lat="43.76165" lon="7.12587">
        <ele>611.59997558594</ele>
        <time>2023-08-02T10:43:35.000Z</time>
      </trkpt>
      <trkpt lat="43.76165" lon="7.12587">
        <ele>611.59997558594</ele>
        <time>2023-08-02T10:43:36.000Z</time>
      </trkpt>
      <trkpt lat="43.76165" lon="7.12587">
        <ele>611.59997558594</ele>
        <time>2023-08-02T10:43:37.000Z</time>
      </trkpt>
      <trkpt lat="43.76165" lon="7.12587">
        <ele>611.59997558594</ele>
        <time>2023-08-02T10:43:38.000Z</time>
      </trkpt>
      <trkpt lat="43.76165" lon="7.12587">
        <ele>611.59997558594</ele>
        <time>2023-08-02T10:43:39.000Z</time>
      </trkpt>
      <trkpt lat="43.76165" lon="7.12587">
        <ele>611.79998779297</ele>
        <time>2023-08-02T10:43:40.000Z</time>
      </trkpt>
      <trkpt lat="43.76165" lon="7.12587">
        <ele>611.79998779297</ele>
        <time>2023-08-02T10:43:41.000Z</time>
      </trkpt>
      <trkpt lat="43.76165" lon="7.12587">
        <ele>611.79998779297</ele>
        <time>2023-08-02T10:43:42.000Z</time>
      </trkpt>
      <trkpt lat="43.76165" lon="7.12587">
        <ele>612</ele>
        <time>2023-08-02T10:43:43.000Z</time>
      </trkpt>
      <trkpt lat="43.76165" lon="7.12587">
        <ele>611.79998779297</ele>
        <time>2023-08-02T10:43:44.000Z</time>
      </trkpt>
      <trkpt lat="43.76165" lon="7.12587">
        <ele>611.79998779297</ele>
        <time>2023-08-02T10:43:45.000Z</time>
      </trkpt>
      <trkpt lat="43.76164" lon="7.12587">
        <ele>611.79998779297</ele>
        <time>2023-08-02T10:43:46.000Z</time>
      </trkpt>
      <trkpt lat="43.76164" lon="7.12587">
        <ele>611.79998779297</ele>
        <time>2023-08-02T10:43:47.000Z</time>
      </trkpt>
      <trkpt lat="43.76164" lon="7.12587">
        <ele>611.79998779297</ele>
        <time>2023-08-02T10:43:48.000Z</time>
      </trkpt>
      <trkpt lat="43.76164" lon="7.12588">
        <ele>611.79998779297</ele>
        <time>2023-08-02T10:43:49.000Z</time>
      </trkpt>
      <trkpt lat="43.76164" lon="7.12588">
        <ele>611.79998779297</ele>
        <time>2023-08-02T10:43:50.000Z</time>
      </trkpt>
      <trkpt lat="43.76164" lon="7.12588">
        <ele>611.79998779297</ele>
        <time>2023-08-02T10:43:51.000Z</time>
      </trkpt>
      <trkpt lat="43.76164" lon="7.12588">
        <ele>611.79998779297</ele>
        <time>2023-08-02T10:43:52.000Z</time>
      </trkpt>
      <trkpt lat="43.76164" lon="7.12588">
        <ele>611.79998779297</ele>
        <time>2023-08-02T10:43:53.000Z</time>
      </trkpt>
      <trkpt lat="43.76164" lon="7.12588">
        <ele>611.79998779297</ele>
        <time>2023-08-02T10:43:54.000Z</time>
      </trkpt>
      <trkpt lat="43.76164" lon="7.12588">
        <ele>611.79998779297</ele>
        <time>2023-08-02T10:43:55.000Z</time>
      </trkpt>
      <trkpt lat="43.76164" lon="7.12588">
        <ele>611.79998779297</ele>
        <time>2023-08-02T10:43:56.000Z</time>
      </trkpt>
      <trkpt lat="43.76164" lon="7.12588">
        <ele>611.79998779297</ele>
        <time>2023-08-02T10:43:57.000Z</time>
      </trkpt>
      <trkpt lat="43.76164" lon="7.12588">
        <ele>611.79998779297</ele>
        <time>2023-08-02T10:43:58.000Z</time>
      </trkpt>
      <trkpt lat="43.76164" lon="7.12588">
        <ele>611.79998779297</ele>
        <time>2023-08-02T10:43:59.000Z</time>
      </trkpt>
      <trkpt lat="43.76164" lon="7.12588">
        <ele>611.79998779297</ele>
        <time>2023-08-02T10:44:00.000Z</time>
      </trkpt>
      <trkpt lat="43.76164" lon="7.12588">
        <ele>611.79998779297</ele>
        <time>2023-08-02T10:44:01.000Z</time>
      </trkpt>
      <trkpt lat="43.76164" lon="7.12588">
        <ele>611.79998779297</ele>
        <time>2023-08-02T10:44:02.000Z</time>
      </trkpt>
      <trkpt lat="43.76164" lon="7.12588">
        <ele>611.79998779297</ele>
        <time>2023-08-02T10:44:03.000Z</time>
      </trkpt>
      <trkpt lat="43.76164" lon="7.12588">
        <ele>611.79998779297</ele>
        <time>2023-08-02T10:44:04.000Z</time>
      </trkpt>
      <trkpt lat="43.76164" lon="7.12588">
        <ele>611.79998779297</ele>
        <time>2023-08-02T10:44:05.000Z</time>
      </trkpt>
      <trkpt lat="43.76164" lon="7.12588">
        <ele>611.79998779297</ele>
        <time>2023-08-02T10:44:06.000Z</time>
      </trkpt>
      <trkpt lat="43.76164" lon="7.12588">
        <ele>611.79998779297</ele>
        <time>2023-08-02T10:44:07.000Z</time>
      </trkpt>
      <trkpt lat="43.76164" lon="7.12588">
        <ele>612</ele>
        <time>2023-08-02T10:44:08.000Z</time>
      </trkpt>
      <trkpt lat="43.76164" lon="7.12588">
        <ele>612</ele>
        <time>2023-08-02T10:44:09.000Z</time>
      </trkpt>
      <trkpt lat="43.76164" lon="7.12588">
        <ele>612</ele>
        <time>2023-08-02T10:44:10.000Z</time>
      </trkpt>
      <trkpt lat="43.76164" lon="7.12587">
        <ele>612</ele>
        <time>2023-08-02T10:44:11.000Z</time>
      </trkpt>
      <trkpt lat="43.76164" lon="7.12587">
        <ele>612</ele>
        <time>2023-08-02T10:44:12.000Z</time>
      </trkpt>
      <trkpt lat="43.76164" lon="7.12587">
        <ele>612</ele>
        <time>2023-08-02T10:44:13.000Z</time>
      </trkpt>
      <trkpt lat="43.76164" lon="7.12587">
        <ele>612</ele>
        <time>2023-08-02T10:44:14.000Z</time>
      </trkpt>
      <trkpt lat="43.76164" lon="7.12587">
        <ele>612</ele>
        <time>2023-08-02T10:44:15.000Z</time>
      </trkpt>
      <trkpt lat="43.76164" lon="7.12587">
        <ele>612</ele>
        <time>2023-08-02T10:44:16.000Z</time>
      </trkpt>
      <trkpt lat="43.76164" lon="7.12587">
        <ele>612</ele>
        <time>2023-08-02T10:44:17.000Z</time>
      </trkpt>
      <trkpt lat="43.76164" lon="7.12587">
        <ele>612</ele>
        <time>2023-08-02T10:44:18.000Z</time>
      </trkpt>
      <trkpt lat="43.76164" lon="7.12587">
        <ele>612</ele>
        <time>2023-08-02T10:44:19.000Z</time>
      </trkpt>
      <trkpt lat="43.76164" lon="7.12587">
        <ele>612</ele>
        <time>2023-08-02T10:44:20.000Z</time>
      </trkpt>
      <trkpt lat="43.76164" lon="7.12587">
        <ele>612</ele>
        <time>2023-08-02T10:44:21.000Z</time>
      </trkpt>
      <trkpt lat="43.76164" lon="7.12587">
        <ele>612</ele>
        <time>2023-08-02T10:44:22.000Z</time>
      </trkpt>
      <trkpt lat="43.76164" lon="7.12587">
        <ele>612</ele>
        <time>2023-08-02T10:44:23.000Z</time>
      </trkpt>
      <trkpt lat="43.76164" lon="7.12587">
        <ele>612</ele>
        <time>2023-08-02T10:44:24.000Z</time>
      </trkpt>
      <trkpt lat="43.76164" lon="7.12587">
        <ele>612</ele>
        <time>2023-08-02T10:44:25.000Z</time>
      </trkpt>
      <trkpt lat="43.76164" lon="7.12587">
        <ele>612</ele>
        <time>2023-08-02T10:44:26.000Z</time>
      </trkpt>
      <trkpt lat="43.76164" lon="7.12587">
        <ele>612</ele>
        <time>2023-08-02T10:44:27.000Z</time>
      </trkpt>
      <trkpt lat="43.76164" lon="7.12587">
        <ele>612</ele>
        <time>2023-08-02T10:44:28.000Z</time>
      </trkpt>
      <trkpt lat="43.76164" lon="7.12587">
        <ele>612</ele>
        <time>2023-08-02T10:44:29.000Z</time>
      </trkpt>
      <trkpt lat="43.76164" lon="7.12587">
        <ele>612</ele>
        <time>2023-08-02T10:44:30.000Z</time>
      </trkpt>
      <trkpt lat="43.76164" lon="7.12587">
        <ele>612</ele>
        <time>2023-08-02T10:44:31.000Z</time>
      </trkpt>
      <trkpt lat="43.76164" lon="7.12587">
        <ele>612</ele>
        <time>2023-08-02T10:44:32.000Z</time>
      </trkpt>
      <trkpt lat="43.76164" lon="7.12587">
        <ele>612</ele>
        <time>2023-08-02T10:44:33.000Z</time>
      </trkpt>
      <trkpt lat="43.76164" lon="7.12587">
        <ele>612</ele>
        <time>2023-08-02T10:44:34.000Z</time>
      </trkpt>
      <trkpt lat="43.76164" lon="7.12587">
        <ele>612</ele>
        <time>2023-08-02T10:44:35.000Z</time>
      </trkpt>
      <trkpt lat="43.76164" lon="7.12587">
        <ele>612</ele>
        <time>2023-08-02T10:44:36.000Z</time>
      </trkpt>
      <trkpt lat="43.76164" lon="7.12587">
        <ele>612</ele>
        <time>2023-08-02T10:44:37.000Z</time>
      </trkpt>
      <trkpt lat="43.76164" lon="7.12587">
        <ele>612</ele>
        <time>2023-08-02T10:44:38.000Z</time>
      </trkpt>
      <trkpt lat="43.76164" lon="7.12587">
        <ele>612</ele>
        <time>2023-08-02T10:44:39.000Z</time>
      </trkpt>
      <trkpt lat="43.76164" lon="7.12587">
        <ele>612</ele>
        <time>2023-08-02T10:44:40.000Z</time>
      </trkpt>
      <trkpt lat="43.76164" lon="7.12587">
        <ele>612</ele>
        <time>2023-08-02T10:44:41.000Z</time>
      </trkpt>
      <trkpt lat="43.76164" lon="7.12587">
        <ele>612</ele>
        <time>2023-08-02T10:44:42.000Z</time>
      </trkpt>
      <trkpt lat="43.76164" lon="7.12587">
        <ele>612</ele>
        <time>2023-08-02T10:44:43.000Z</time>
      </trkpt>
      <trkpt lat="43.76164" lon="7.12587">
        <ele>612</ele>
        <time>2023-08-02T10:44:44.000Z</time>
      </trkpt>
      <trkpt lat="43.76164" lon="7.12587">
        <ele>612</ele>
        <time>2023-08-02T10:44:45.000Z</time>
      </trkpt>
      <trkpt lat="43.76164" lon="7.12587">
        <ele>612</ele>
        <time>2023-08-02T10:44:46.000Z</time>
      </trkpt>
      <trkpt lat="43.76165" lon="7.12587">
        <ele>612</ele>
        <time>2023-08-02T10:44:47.000Z</time>
      </trkpt>
      <trkpt lat="43.76165" lon="7.12587">
        <ele>612</ele>
        <time>2023-08-02T10:44:48.000Z</time>
      </trkpt>
      <trkpt lat="43.76165" lon="7.12587">
        <ele>612</ele>
        <time>2023-08-02T10:44:49.000Z</time>
      </trkpt>
      <trkpt lat="43.76165" lon="7.12587">
        <ele>612</ele>
        <time>2023-08-02T10:44:50.000Z</time>
      </trkpt>
      <trkpt lat="43.76165" lon="7.12587">
        <ele>612</ele>
        <time>2023-08-02T10:44:51.000Z</time>
      </trkpt>
      <trkpt lat="43.76165" lon="7.12587">
        <ele>612</ele>
        <time>2023-08-02T10:44:52.000Z</time>
      </trkpt>
      <trkpt lat="43.76165" lon="7.12587">
        <ele>612</ele>
        <time>2023-08-02T10:44:53.000Z</time>
      </trkpt>
      <trkpt lat="43.76165" lon="7.12587">
        <ele>612</ele>
        <time>2023-08-02T10:44:54.000Z</time>
      </trkpt>
      <trkpt lat="43.76165" lon="7.12587">
        <ele>612</ele>
        <time>2023-08-02T10:44:55.000Z</time>
      </trkpt>
      <trkpt lat="43.76165" lon="7.12587">
        <ele>612</ele>
        <time>2023-08-02T10:44:56.000Z</time>
      </trkpt>
      <trkpt lat="43.76165" lon="7.12587">
        <ele>612</ele>
        <time>2023-08-02T10:44:57.000Z</time>
      </trkpt>
      <trkpt lat="43.76165" lon="7.12587">
        <ele>612</ele>
        <time>2023-08-02T10:44:58.000Z</time>
      </trkpt>
      <trkpt lat="43.76165" lon="7.12587">
        <ele>612</ele>
        <time>2023-08-02T10:44:59.000Z</time>
      </trkpt>
      <trkpt lat="43.76165" lon="7.12587">
        <ele>612</ele>
        <time>2023-08-02T10:45:00.000Z</time>
      </trkpt>
      <trkpt lat="43.76164" lon="7.12587">
        <ele>612</ele>
        <time>2023-08-02T10:45:01.000Z</time>
      </trkpt>
      <trkpt lat="43.76164" lon="7.12587">
        <ele>612</ele>
        <time>2023-08-02T10:45:02.000Z</time>
      </trkpt>
      <trkpt lat="43.76164" lon="7.12587">
        <ele>612</ele>
        <time>2023-08-02T10:45:03.000Z</time>
      </trkpt>
      <trkpt lat="43.76164" lon="7.12587">
        <ele>612</ele>
        <time>2023-08-02T10:45:04.000Z</time>
      </trkpt>
      <trkpt lat="43.76164" lon="7.12587">
        <ele>612</ele>
        <time>2023-08-02T10:45:05.000Z</time>
      </trkpt>
      <trkpt lat="43.76164" lon="7.12587">
        <ele>612</ele>
        <time>2023-08-02T10:45:06.000Z</time>
      </trkpt>
      <trkpt lat="43.76164" lon="7.12587">
        <ele>612</ele>
        <time>2023-08-02T10:45:07.000Z</time>
      </trkpt>
      <trkpt lat="43.76164" lon="7.12587">
        <ele>612</ele>
        <time>2023-08-02T10:45:08.000Z</time>
      </trkpt>
      <trkpt lat="43.76164" lon="7.12587">
        <ele>612</ele>
        <time>2023-08-02T10:45:09.000Z</time>
      </trkpt>
      <trkpt lat="43.76164" lon="7.12587">
        <ele>612</ele>
        <time>2023-08-02T10:45:10.000Z</time>
      </trkpt>
      <trkpt lat="43.76164" lon="7.12587">
        <ele>612</ele>
        <time>2023-08-02T10:45:11.000Z</time>
      </trkpt>
      <trkpt lat="43.76164" lon="7.12587">
        <ele>612</ele>
        <time>2023-08-02T10:45:12.000Z</time>
      </trkpt>
      <trkpt lat="43.76164" lon="7.12587">
        <ele>612</ele>
        <time>2023-08-02T10:45:13.000Z</time>
      </trkpt>
      <trkpt lat="43.76164" lon="7.12587">
        <ele>612</ele>
        <time>2023-08-02T10:45:14.000Z</time>
      </trkpt>
      <trkpt lat="43.76164" lon="7.12587">
        <ele>612</ele>
        <time>2023-08-02T10:45:15.000Z</time>
      </trkpt>
      <trkpt lat="43.76164" lon="7.12587">
        <ele>612</ele>
        <time>2023-08-02T10:45:16.000Z</time>
      </trkpt>
      <trkpt lat="43.76164" lon="7.12587">
        <ele>612</ele>
        <time>2023-08-02T10:45:17.000Z</time>
      </trkpt>
      <trkpt lat="43.76164" lon="7.12587">
        <ele>612</ele>
        <time>2023-08-02T10:45:18.000Z</time>
      </trkpt>
      <trkpt lat="43.76164" lon="7.12587">
        <ele>612</ele>
        <time>2023-08-02T10:45:19.000Z</time>
      </trkpt>
      <trkpt lat="43.76164" lon="7.12587">
        <ele>612</ele>
        <time>2023-08-02T10:45:20.000Z</time>
      </trkpt>
      <trkpt lat="43.76164" lon="7.12587">
        <ele>612</ele>
        <time>2023-08-02T10:45:21.000Z</time>
      </trkpt>
      <trkpt lat="43.76164" lon="7.12587">
        <ele>612</ele>
        <time>2023-08-02T10:45:22.000Z</time>
      </trkpt>
      <trkpt lat="43.76164" lon="7.12588">
        <ele>612</ele>
        <time>2023-08-02T10:45:23.000Z</time>
      </trkpt>
      <trkpt lat="43.76164" lon="7.12588">
        <ele>612</ele>
        <time>2023-08-02T10:45:24.000Z</time>
      </trkpt>
      <trkpt lat="43.76164" lon="7.12588">
        <ele>612</ele>
        <time>2023-08-02T10:45:25.000Z</time>
      </trkpt>
      <trkpt lat="43.76164" lon="7.12588">
        <ele>612</ele>
        <time>2023-08-02T10:45:26.000Z</time>
      </trkpt>
      <trkpt lat="43.76164" lon="7.12588">
        <ele>612</ele>
        <time>2023-08-02T10:45:27.000Z</time>
      </trkpt>
      <trkpt lat="43.76164" lon="7.12588">
        <ele>612</ele>
        <time>2023-08-02T10:45:28.000Z</time>
      </trkpt>
      <trkpt lat="43.76164" lon="7.12588">
        <ele>612</ele>
        <time>2023-08-02T10:45:29.000Z</time>
      </trkpt>
      <trkpt lat="43.76164" lon="7.12588">
        <ele>612</ele>
        <time>2023-08-02T10:45:30.000Z</time>
      </trkpt>
      <trkpt lat="43.76164" lon="7.12587">
        <ele>612</ele>
        <time>2023-08-02T10:45:31.000Z</time>
      </trkpt>
      <trkpt lat="43.76164" lon="7.12587">
        <ele>612</ele>
        <time>2023-08-02T10:45:32.000Z</time>
      </trkpt>
      <trkpt lat="43.76164" lon="7.12587">
        <ele>612</ele>
        <time>2023-08-02T10:45:33.000Z</time>
      </trkpt>
      <trkpt lat="43.76164" lon="7.12587">
        <ele>612</ele>
        <time>2023-08-02T10:45:34.000Z</time>
      </trkpt>
      <trkpt lat="43.76164" lon="7.12587">
        <ele>612</ele>
        <time>2023-08-02T10:45:35.000Z</time>
      </trkpt>
      <trkpt lat="43.76164" lon="7.12587">
        <ele>612</ele>
        <time>2023-08-02T10:45:36.000Z</time>
      </trkpt>
      <trkpt lat="43.76164" lon="7.12587">
        <ele>612</ele>
        <time>2023-08-02T10:45:37.000Z</time>
      </trkpt>
      <trkpt lat="43.76164" lon="7.12587">
        <ele>612</ele>
        <time>2023-08-02T10:45:38.000Z</time>
      </trkpt>
      <trkpt lat="43.76164" lon="7.12587">
        <ele>612</ele>
        <time>2023-08-02T10:45:39.000Z</time>
      </trkpt>
      <trkpt lat="43.76164" lon="7.12587">
        <ele>612</ele>
        <time>2023-08-02T10:45:40.000Z</time>
      </trkpt>
      <trkpt lat="43.76164" lon="7.12587">
        <ele>612</ele>
        <time>2023-08-02T10:45:41.000Z</time>
      </trkpt>
      <trkpt lat="43.76164" lon="7.12587">
        <ele>612</ele>
        <time>2023-08-02T10:45:42.000Z</time>
      </trkpt>
      <trkpt lat="43.76164" lon="7.12587">
        <ele>612</ele>
        <time>2023-08-02T10:45:43.000Z</time>
      </trkpt>
      <trkpt lat="43.76164" lon="7.12587">
        <ele>612</ele>
        <time>2023-08-02T10:45:44.000Z</time>
      </trkpt>
      <trkpt lat="43.76165" lon="7.12587">
        <ele>612</ele>
        <time>2023-08-02T10:45:45.000Z</time>
      </trkpt>
      <trkpt lat="43.76165" lon="7.12587">
        <ele>612</ele>
        <time>2023-08-02T10:45:46.000Z</time>
      </trkpt>
      <trkpt lat="43.76164" lon="7.12587">
        <ele>612</ele>
        <time>2023-08-02T10:45:47.000Z</time>
      </trkpt>
      <trkpt lat="43.76164" lon="7.12587">
        <ele>612</ele>
        <time>2023-08-02T10:45:48.000Z</time>
      </trkpt>
      <trkpt lat="43.76164" lon="7.12587">
        <ele>612</ele>
        <time>2023-08-02T10:45:49.000Z</time>
      </trkpt>
      <trkpt lat="43.76164" lon="7.12587">
        <ele>612</ele>
        <time>2023-08-02T10:45:50.000Z</time>
      </trkpt>
      <trkpt lat="43.76164" lon="7.12587">
        <ele>612</ele>
        <time>2023-08-02T10:45:51.000Z</time>
      </trkpt>
      <trkpt lat="43.76164" lon="7.12587">
        <ele>612</ele>
        <time>2023-08-02T10:45:52.000Z</time>
      </trkpt>
      <trkpt lat="43.76164" lon="7.12587">
        <ele>612</ele>
        <time>2023-08-02T10:45:53.000Z</time>
      </trkpt>
      <trkpt lat="43.76164" lon="7.12587">
        <ele>612</ele>
        <time>2023-08-02T10:45:54.000Z</time>
      </trkpt>
      <trkpt lat="43.76164" lon="7.12587">
        <ele>612</ele>
        <time>2023-08-02T10:45:55.000Z</time>
      </trkpt>
      <trkpt lat="43.76164" lon="7.12587">
        <ele>612</ele>
        <time>2023-08-02T10:45:56.000Z</time>
      </trkpt>
      <trkpt lat="43.76164" lon="7.12587">
        <ele>612</ele>
        <time>2023-08-02T10:45:57.000Z</time>
      </trkpt>
      <trkpt lat="43.76164" lon="7.12587">
        <ele>612</ele>
        <time>2023-08-02T10:45:58.000Z</time>
      </trkpt>
      <trkpt lat="43.76164" lon="7.12587">
        <ele>612</ele>
        <time>2023-08-02T10:45:59.000Z</time>
      </trkpt>
      <trkpt lat="43.76164" lon="7.12588">
        <ele>612</ele>
        <time>2023-08-02T10:46:00.000Z</time>
      </trkpt>
      <trkpt lat="43.76164" lon="7.12587">
        <ele>612</ele>
        <time>2023-08-02T10:46:01.000Z</time>
      </trkpt>
      <trkpt lat="43.76164" lon="7.12587">
        <ele>612</ele>
        <time>2023-08-02T10:46:02.000Z</time>
      </trkpt>
      <trkpt lat="43.76164" lon="7.12587">
        <ele>612</ele>
        <time>2023-08-02T10:46:03.000Z</time>
      </trkpt>
      <trkpt lat="43.76164" lon="7.12587">
        <ele>612</ele>
        <time>2023-08-02T10:46:04.000Z</time>
      </trkpt>
      <trkpt lat="43.76164" lon="7.12587">
        <ele>612</ele>
        <time>2023-08-02T10:46:05.000Z</time>
      </trkpt>
      <trkpt lat="43.76164" lon="7.12587">
        <ele>612</ele>
        <time>2023-08-02T10:46:06.000Z</time>
      </trkpt>
      <trkpt lat="43.76164" lon="7.12587">
        <ele>612</ele>
        <time>2023-08-02T10:46:07.000Z</time>
      </trkpt>
      <trkpt lat="43.76164" lon="7.12588">
        <ele>612</ele>
        <time>2023-08-02T10:46:08.000Z</time>
      </trkpt>
      <trkpt lat="43.76164" lon="7.12588">
        <ele>612</ele>
        <time>2023-08-02T10:46:09.000Z</time>
      </trkpt>
      <trkpt lat="43.76164" lon="7.12587">
        <ele>612</ele>
        <time>2023-08-02T10:46:10.000Z</time>
      </trkpt>
      <trkpt lat="43.76164" lon="7.12588">
        <ele>612</ele>
        <time>2023-08-02T10:46:11.000Z</time>
      </trkpt>
      <trkpt lat="43.76164" lon="7.12588">
        <ele>612</ele>
        <time>2023-08-02T10:46:12.000Z</time>
      </trkpt>
      <trkpt lat="43.76164" lon="7.12588">
        <ele>612</ele>
        <time>2023-08-02T10:46:13.000Z</time>
      </trkpt>
      <trkpt lat="43.76164" lon="7.12588">
        <ele>612</ele>
        <time>2023-08-02T10:46:14.000Z</time>
      </trkpt>
      <trkpt lat="43.76164" lon="7.12588">
        <ele>612</ele>
        <time>2023-08-02T10:46:15.000Z</time>
      </trkpt>
      <trkpt lat="43.76164" lon="7.12588">
        <ele>612</ele>
        <time>2023-08-02T10:46:16.000Z</time>
      </trkpt>
      <trkpt lat="43.76164" lon="7.12588">
        <ele>612</ele>
        <time>2023-08-02T10:46:17.000Z</time>
      </trkpt>
      <trkpt lat="43.76164" lon="7.12588">
        <ele>612</ele>
        <time>2023-08-02T10:46:18.000Z</time>
      </trkpt>
      <trkpt lat="43.76164" lon="7.12588">
        <ele>612</ele>
        <time>2023-08-02T10:46:19.000Z</time>
      </trkpt>
      <trkpt lat="43.76164" lon="7.12588">
        <ele>612</ele>
        <time>2023-08-02T10:46:20.000Z</time>
      </trkpt>
      <trkpt lat="43.76164" lon="7.12588">
        <ele>612</ele>
        <time>2023-08-02T10:46:21.000Z</time>
      </trkpt>
      <trkpt lat="43.76164" lon="7.12588">
        <ele>612</ele>
        <time>2023-08-02T10:46:22.000Z</time>
      </trkpt>
      <trkpt lat="43.76164" lon="7.12588">
        <ele>612</ele>
        <time>2023-08-02T10:46:23.000Z</time>
      </trkpt>
      <trkpt lat="43.76164" lon="7.12587">
        <ele>612</ele>
        <time>2023-08-02T10:46:24.000Z</time>
      </trkpt>
      <trkpt lat="43.76164" lon="7.12587">
        <ele>612</ele>
        <time>2023-08-02T10:46:25.000Z</time>
      </trkpt>
      <trkpt lat="43.76164" lon="7.12587">
        <ele>612</ele>
        <time>2023-08-02T10:46:26.000Z</time>
      </trkpt>
      <trkpt lat="43.76164" lon="7.12587">
        <ele>612</ele>
        <time>2023-08-02T10:46:27.000Z</time>
      </trkpt>
      <trkpt lat="43.76164" lon="7.12587">
        <ele>612</ele>
        <time>2023-08-02T10:46:28.000Z</time>
      </trkpt>
      <trkpt lat="43.76164" lon="7.12587">
        <ele>612</ele>
        <time>2023-08-02T10:46:29.000Z</time>
      </trkpt>
      <trkpt lat="43.76164" lon="7.12587">
        <ele>612</ele>
        <time>2023-08-02T10:46:30.000Z</time>
      </trkpt>
      <trkpt lat="43.76164" lon="7.12587">
        <ele>612</ele>
        <time>2023-08-02T10:46:31.000Z</time>
      </trkpt>
      <trkpt lat="43.76164" lon="7.12587">
        <ele>612</ele>
        <time>2023-08-02T10:46:32.000Z</time>
      </trkpt>
      <trkpt lat="43.76164" lon="7.12587">
        <ele>612</ele>
        <time>2023-08-02T10:46:33.000Z</time>
      </trkpt>
      <trkpt lat="43.76164" lon="7.12587">
        <ele>612</ele>
        <time>2023-08-02T10:46:34.000Z</time>
      </trkpt>
      <trkpt lat="43.76164" lon="7.12587">
        <ele>612</ele>
        <time>2023-08-02T10:46:35.000Z</time>
      </trkpt>
      <trkpt lat="43.76164" lon="7.12587">
        <ele>612</ele>
        <time>2023-08-02T10:46:36.000Z</time>
      </trkpt>
      <trkpt lat="43.76164" lon="7.12587">
        <ele>612</ele>
        <time>2023-08-02T10:46:37.000Z</time>
      </trkpt>
      <trkpt lat="43.76164" lon="7.12587">
        <ele>612</ele>
        <time>2023-08-02T10:46:38.000Z</time>
      </trkpt>
      <trkpt lat="43.76164" lon="7.12587">
        <ele>612</ele>
        <time>2023-08-02T10:46:39.000Z</time>
      </trkpt>
      <trkpt lat="43.76164" lon="7.12587">
        <ele>612</ele>
        <time>2023-08-02T10:46:40.000Z</time>
      </trkpt>
      <trkpt lat="43.76164" lon="7.12587">
        <ele>612</ele>
        <time>2023-08-02T10:46:41.000Z</time>
      </trkpt>
      <trkpt lat="43.76164" lon="7.12587">
        <ele>612</ele>
        <time>2023-08-02T10:46:42.000Z</time>
      </trkpt>
      <trkpt lat="43.76164" lon="7.12587">
        <ele>612</ele>
        <time>2023-08-02T10:46:43.000Z</time>
      </trkpt>
      <trkpt lat="43.76164" lon="7.12587">
        <ele>612</ele>
        <time>2023-08-02T10:46:44.000Z</time>
      </trkpt>
      <trkpt lat="43.76165" lon="7.12587">
        <ele>612</ele>
        <time>2023-08-02T10:46:45.000Z</time>
      </trkpt>
      <trkpt lat="43.76165" lon="7.12587">
        <ele>612</ele>
        <time>2023-08-02T10:46:46.000Z</time>
      </trkpt>
      <trkpt lat="43.76165" lon="7.12587">
        <ele>612</ele>
        <time>2023-08-02T10:46:47.000Z</time>
      </trkpt>
      <trkpt lat="43.76165" lon="7.12587">
        <ele>612</ele>
        <time>2023-08-02T10:46:48.000Z</time>
      </trkpt>
      <trkpt lat="43.76165" lon="7.12587">
        <ele>612</ele>
        <time>2023-08-02T10:46:49.000Z</time>
      </trkpt>
      <trkpt lat="43.76165" lon="7.12587">
        <ele>612</ele>
        <time>2023-08-02T10:46:50.000Z</time>
      </trkpt>
      <trkpt lat="43.76165" lon="7.12587">
        <ele>612</ele>
        <time>2023-08-02T10:46:51.000Z</time>
      </trkpt>
      <trkpt lat="43.76165" lon="7.12587">
        <ele>612</ele>
        <time>2023-08-02T10:46:52.000Z</time>
      </trkpt>
      <trkpt lat="43.76165" lon="7.12587">
        <ele>612</ele>
        <time>2023-08-02T10:46:53.000Z</time>
      </trkpt>
      <trkpt lat="43.76165" lon="7.12587">
        <ele>612</ele>
        <time>2023-08-02T10:46:54.000Z</time>
      </trkpt>
      <trkpt lat="43.76165" lon="7.12587">
        <ele>612</ele>
        <time>2023-08-02T10:46:55.000Z</time>
      </trkpt>
      <trkpt lat="43.76165" lon="7.12587">
        <ele>612</ele>
        <time>2023-08-02T10:46:56.000Z</time>
      </trkpt>
      <trkpt lat="43.76165" lon="7.12587">
        <ele>612</ele>
        <time>2023-08-02T10:46:57.000Z</time>
      </trkpt>
      <trkpt lat="43.76165" lon="7.12587">
        <ele>612</ele>
        <time>2023-08-02T10:46:58.000Z</time>
      </trkpt>
      <trkpt lat="43.76165" lon="7.12587">
        <ele>612</ele>
        <time>2023-08-02T10:46:59.000Z</time>
      </trkpt>
      <trkpt lat="43.76165" lon="7.12587">
        <ele>612</ele>
        <time>2023-08-02T10:47:00.000Z</time>
      </trkpt>
      <trkpt lat="43.76165" lon="7.12587">
        <ele>612</ele>
        <time>2023-08-02T10:47:01.000Z</time>
      </trkpt>
      <trkpt lat="43.76165" lon="7.12587">
        <ele>612</ele>
        <time>2023-08-02T10:47:02.000Z</time>
      </trkpt>
      <trkpt lat="43.76165" lon="7.12587">
        <ele>612</ele>
        <time>2023-08-02T10:47:03.000Z</time>
      </trkpt>
      <trkpt lat="43.76165" lon="7.12587">
        <ele>612</ele>
        <time>2023-08-02T10:47:04.000Z</time>
      </trkpt>
      <trkpt lat="43.76165" lon="7.12587">
        <ele>612</ele>
        <time>2023-08-02T10:47:05.000Z</time>
      </trkpt>
      <trkpt lat="43.76165" lon="7.12587">
        <ele>612</ele>
        <time>2023-08-02T10:47:06.000Z</time>
      </trkpt>
      <trkpt lat="43.76165" lon="7.12587">
        <ele>612</ele>
        <time>2023-08-02T10:47:07.000Z</time>
      </trkpt>
      <trkpt lat="43.76165" lon="7.12587">
        <ele>612</ele>
        <time>2023-08-02T10:47:08.000Z</time>
      </trkpt>
      <trkpt lat="43.76165" lon="7.12587">
        <ele>612</ele>
        <time>2023-08-02T10:47:09.000Z</time>
      </trkpt>
      <trkpt lat="43.76164" lon="7.12587">
        <ele>612</ele>
        <time>2023-08-02T10:47:10.000Z</time>
      </trkpt>
      <trkpt lat="43.76164" lon="7.12587">
        <ele>612</ele>
        <time>2023-08-02T10:47:11.000Z</time>
      </trkpt>
      <trkpt lat="43.76164" lon="7.12587">
        <ele>612</ele>
        <time>2023-08-02T10:47:12.000Z</time>
      </trkpt>
      <trkpt lat="43.76164" lon="7.12587">
        <ele>612</ele>
        <time>2023-08-02T10:47:13.000Z</time>
      </trkpt>
      <trkpt lat="43.76164" lon="7.12587">
        <ele>612</ele>
        <time>2023-08-02T10:47:14.000Z</time>
      </trkpt>
      <trkpt lat="43.76164" lon="7.12587">
        <ele>612</ele>
        <time>2023-08-02T10:47:15.000Z</time>
      </trkpt>
      <trkpt lat="43.76164" lon="7.12587">
        <ele>612</ele>
        <time>2023-08-02T10:47:16.000Z</time>
      </trkpt>
      <trkpt lat="43.76164" lon="7.12587">
        <ele>612</ele>
        <time>2023-08-02T10:47:17.000Z</time>
      </trkpt>
      <trkpt lat="43.76164" lon="7.12587">
        <ele>612</ele>
        <time>2023-08-02T10:47:18.000Z</time>
      </trkpt>
      <trkpt lat="43.76164" lon="7.12588">
        <ele>612</ele>
        <time>2023-08-02T10:47:19.000Z</time>
      </trkpt>
      <trkpt lat="43.76164" lon="7.12587">
        <ele>612</ele>
        <time>2023-08-02T10:47:20.000Z</time>
      </trkpt>
      <trkpt lat="43.76164" lon="7.12588">
        <ele>612</ele>
        <time>2023-08-02T10:47:21.000Z</time>
      </trkpt>
      <trkpt lat="43.76164" lon="7.12588">
        <ele>612</ele>
        <time>2023-08-02T10:47:22.000Z</time>
      </trkpt>
      <trkpt lat="43.76164" lon="7.12588">
        <ele>612</ele>
        <time>2023-08-02T10:47:23.000Z</time>
      </trkpt>
      <trkpt lat="43.76164" lon="7.12588">
        <ele>612</ele>
        <time>2023-08-02T10:47:24.000Z</time>
      </trkpt>
      <trkpt lat="43.76164" lon="7.12588">
        <ele>612</ele>
        <time>2023-08-02T10:47:25.000Z</time>
      </trkpt>
      <trkpt lat="43.76164" lon="7.12588">
        <ele>612</ele>
        <time>2023-08-02T10:47:26.000Z</time>
      </trkpt>
      <trkpt lat="43.76164" lon="7.12588">
        <ele>612</ele>
        <time>2023-08-02T10:47:27.000Z</time>
      </trkpt>
      <trkpt lat="43.76164" lon="7.12588">
        <ele>612</ele>
        <time>2023-08-02T10:47:28.000Z</time>
      </trkpt>
      <trkpt lat="43.76164" lon="7.12588">
        <ele>612</ele>
        <time>2023-08-02T10:47:29.000Z</time>
      </trkpt>
      <trkpt lat="43.76164" lon="7.12588">
        <ele>612</ele>
        <time>2023-08-02T10:47:30.000Z</time>
      </trkpt>
      <trkpt lat="43.76164" lon="7.12588">
        <ele>612</ele>
        <time>2023-08-02T10:47:31.000Z</time>
      </trkpt>
      <trkpt lat="43.76164" lon="7.12588">
        <ele>612</ele>
        <time>2023-08-02T10:47:32.000Z</time>
      </trkpt>
      <trkpt lat="43.76164" lon="7.12588">
        <ele>612</ele>
        <time>2023-08-02T10:47:33.000Z</time>
      </trkpt>
      <trkpt lat="43.76164" lon="7.12588">
        <ele>612</ele>
        <time>2023-08-02T10:47:34.000Z</time>
      </trkpt>
      <trkpt lat="43.76164" lon="7.12588">
        <ele>612</ele>
        <time>2023-08-02T10:47:35.000Z</time>
      </trkpt>
      <trkpt lat="43.76164" lon="7.12588">
        <ele>612</ele>
        <time>2023-08-02T10:47:36.000Z</time>
      </trkpt>
      <trkpt lat="43.76164" lon="7.12588">
        <ele>612</ele>
        <time>2023-08-02T10:47:37.000Z</time>
      </trkpt>
      <trkpt lat="43.76164" lon="7.12588">
        <ele>612</ele>
        <time>2023-08-02T10:47:38.000Z</time>
      </trkpt>
      <trkpt lat="43.76164" lon="7.12588">
        <ele>612</ele>
        <time>2023-08-02T10:47:39.000Z</time>
      </trkpt>
      <trkpt lat="43.76164" lon="7.12588">
        <ele>612</ele>
        <time>2023-08-02T10:47:40.000Z</time>
      </trkpt>
      <trkpt lat="43.76164" lon="7.12588">
        <ele>612</ele>
        <time>2023-08-02T10:47:41.000Z</time>
      </trkpt>
      <trkpt lat="43.76164" lon="7.12588">
        <ele>612</ele>
        <time>2023-08-02T10:47:42.000Z</time>
      </trkpt>
      <trkpt lat="43.76164" lon="7.12588">
        <ele>612</ele>
        <time>2023-08-02T10:47:43.000Z</time>
      </trkpt>
      <trkpt lat="43.76164" lon="7.12588">
        <ele>612</ele>
        <time>2023-08-02T10:47:44.000Z</time>
      </trkpt>
      <trkpt lat="43.76164" lon="7.12588">
        <ele>612</ele>
        <time>2023-08-02T10:47:45.000Z</time>
      </trkpt>
      <trkpt lat="43.76164" lon="7.12588">
        <ele>612</ele>
        <time>2023-08-02T10:47:46.000Z</time>
      </trkpt>
      <trkpt lat="43.76164" lon="7.12588">
        <ele>612</ele>
        <time>2023-08-02T10:47:47.000Z</time>
      </trkpt>
      <trkpt lat="43.76164" lon="7.12588">
        <ele>612</ele>
        <time>2023-08-02T10:47:48.000Z</time>
      </trkpt>
      <trkpt lat="43.76164" lon="7.12588">
        <ele>612</ele>
        <time>2023-08-02T10:47:49.000Z</time>
      </trkpt>
      <trkpt lat="43.76164" lon="7.12588">
        <ele>612</ele>
        <time>2023-08-02T10:47:50.000Z</time>
      </trkpt>
      <trkpt lat="43.76164" lon="7.12588">
        <ele>612</ele>
        <time>2023-08-02T10:47:51.000Z</time>
      </trkpt>
      <trkpt lat="43.76164" lon="7.12588">
        <ele>612</ele>
        <time>2023-08-02T10:47:52.000Z</time>
      </trkpt>
      <trkpt lat="43.76164" lon="7.12588">
        <ele>612</ele>
        <time>2023-08-02T10:47:53.000Z</time>
      </trkpt>
      <trkpt lat="43.76164" lon="7.12587">
        <ele>612</ele>
        <time>2023-08-02T10:47:54.000Z</time>
      </trkpt>
      <trkpt lat="43.76164" lon="7.12587">
        <ele>612</ele>
        <time>2023-08-02T10:47:55.000Z</time>
      </trkpt>
      <trkpt lat="43.76164" lon="7.12587">
        <ele>612</ele>
        <time>2023-08-02T10:47:56.000Z</time>
      </trkpt>
      <trkpt lat="43.76164" lon="7.12587">
        <ele>612</ele>
        <time>2023-08-02T10:47:57.000Z</time>
      </trkpt>
      <trkpt lat="43.76164" lon="7.12587">
        <ele>612</ele>
        <time>2023-08-02T10:47:58.000Z</time>
      </trkpt>
      <trkpt lat="43.76164" lon="7.12587">
        <ele>612</ele>
        <time>2023-08-02T10:47:59.000Z</time>
      </trkpt>
      <trkpt lat="43.76164" lon="7.12587">
        <ele>612</ele>
        <time>2023-08-02T10:48:00.000Z</time>
      </trkpt>
      <trkpt lat="43.76164" lon="7.12587">
        <ele>612</ele>
        <time>2023-08-02T10:48:01.000Z</time>
      </trkpt>
      <trkpt lat="43.76164" lon="7.12587">
        <ele>612</ele>
        <time>2023-08-02T10:48:02.000Z</time>
      </trkpt>
      <trkpt lat="43.76164" lon="7.12587">
        <ele>612</ele>
        <time>2023-08-02T10:48:03.000Z</time>
      </trkpt>
      <trkpt lat="43.76164" lon="7.12587">
        <ele>612</ele>
        <time>2023-08-02T10:48:04.000Z</time>
      </trkpt>
      <trkpt lat="43.76164" lon="7.12587">
        <ele>612</ele>
        <time>2023-08-02T10:48:05.000Z</time>
      </trkpt>
      <trkpt lat="43.76164" lon="7.12587">
        <ele>612</ele>
        <time>2023-08-02T10:48:06.000Z</time>
      </trkpt>
      <trkpt lat="43.76164" lon="7.12587">
        <ele>612</ele>
        <time>2023-08-02T10:48:07.000Z</time>
      </trkpt>
      <trkpt lat="43.76164" lon="7.12588">
        <ele>612</ele>
        <time>2023-08-02T10:48:08.000Z</time>
      </trkpt>
      <trkpt lat="43.76164" lon="7.12588">
        <ele>612</ele>
        <time>2023-08-02T10:48:09.000Z</time>
      </trkpt>
      <trkpt lat="43.76164" lon="7.12588">
        <ele>612</ele>
        <time>2023-08-02T10:48:10.000Z</time>
      </trkpt>
      <trkpt lat="43.76164" lon="7.12588">
        <ele>612</ele>
        <time>2023-08-02T10:48:11.000Z</time>
      </trkpt>
      <trkpt lat="43.76164" lon="7.12588">
        <ele>612</ele>
        <time>2023-08-02T10:48:12.000Z</time>
      </trkpt>
      <trkpt lat="43.76164" lon="7.12588">
        <ele>612</ele>
        <time>2023-08-02T10:48:13.000Z</time>
      </trkpt>
      <trkpt lat="43.76164" lon="7.12588">
        <ele>612</ele>
        <time>2023-08-02T10:48:14.000Z</time>
      </trkpt>
      <trkpt lat="43.76164" lon="7.12588">
        <ele>612</ele>
        <time>2023-08-02T10:48:15.000Z</time>
      </trkpt>
      <trkpt lat="43.76164" lon="7.12588">
        <ele>612</ele>
        <time>2023-08-02T10:48:16.000Z</time>
      </trkpt>
      <trkpt lat="43.76164" lon="7.12588">
        <ele>612</ele>
        <time>2023-08-02T10:48:17.000Z</time>
      </trkpt>
      <trkpt lat="43.76164" lon="7.12588">
        <ele>612</ele>
        <time>2023-08-02T10:48:18.000Z</time>
      </trkpt>
      <trkpt lat="43.76164" lon="7.12588">
        <ele>612</ele>
        <time>2023-08-02T10:48:19.000Z</time>
      </trkpt>
      <trkpt lat="43.76164" lon="7.12588">
        <ele>612</ele>
        <time>2023-08-02T10:48:20.000Z</time>
      </trkpt>
      <trkpt lat="43.76164" lon="7.12588">
        <ele>612</ele>
        <time>2023-08-02T10:48:21.000Z</time>
      </trkpt>
      <trkpt lat="43.76164" lon="7.12588">
        <ele>612</ele>
        <time>2023-08-02T10:48:22.000Z</time>
      </trkpt>
      <trkpt lat="43.76164" lon="7.12588">
        <ele>612</ele>
        <time>2023-08-02T10:48:23.000Z</time>
      </trkpt>
      <trkpt lat="43.76164" lon="7.12588">
        <ele>612</ele>
        <time>2023-08-02T10:48:24.000Z</time>
      </trkpt>
      <trkpt lat="43.76164" lon="7.12588">
        <ele>612</ele>
        <time>2023-08-02T10:48:25.000Z</time>
      </trkpt>
      <trkpt lat="43.76164" lon="7.12588">
        <ele>612</ele>
        <time>2023-08-02T10:48:26.000Z</time>
      </trkpt>
      <trkpt lat="43.76164" lon="7.12588">
        <ele>612</ele>
        <time>2023-08-02T10:48:27.000Z</time>
      </trkpt>
      <trkpt lat="43.76164" lon="7.12588">
        <ele>612</ele>
        <time>2023-08-02T10:48:28.000Z</time>
      </trkpt>
      <trkpt lat="43.76164" lon="7.12588">
        <ele>612</ele>
        <time>2023-08-02T10:48:29.000Z</time>
      </trkpt>
      <trkpt lat="43.76164" lon="7.12588">
        <ele>612</ele>
        <time>2023-08-02T10:48:30.000Z</time>
      </trkpt>
      <trkpt lat="43.76164" lon="7.12588">
        <ele>612</ele>
        <time>2023-08-02T10:48:31.000Z</time>
      </trkpt>
      <trkpt lat="43.76164" lon="7.12588">
        <ele>612</ele>
        <time>2023-08-02T10:48:32.000Z</time>
      </trkpt>
      <trkpt lat="43.76164" lon="7.12588">
        <ele>612</ele>
        <time>2023-08-02T10:48:33.000Z</time>
      </trkpt>
      <trkpt lat="43.76164" lon="7.12588">
        <ele>612</ele>
        <time>2023-08-02T10:48:34.000Z</time>
      </trkpt>
      <trkpt lat="43.76164" lon="7.12588">
        <ele>612</ele>
        <time>2023-08-02T10:48:35.000Z</time>
      </trkpt>
      <trkpt lat="43.76164" lon="7.12587">
        <ele>612</ele>
        <time>2023-08-02T10:48:36.000Z</time>
      </trkpt>
      <trkpt lat="43.76164" lon="7.12587">
        <ele>612</ele>
        <time>2023-08-02T10:48:37.000Z</time>
      </trkpt>
      <trkpt lat="43.76164" lon="7.12587">
        <ele>612</ele>
        <time>2023-08-02T10:48:38.000Z</time>
      </trkpt>
      <trkpt lat="43.76164" lon="7.12587">
        <ele>612</ele>
        <time>2023-08-02T10:48:39.000Z</time>
      </trkpt>
      <trkpt lat="43.76164" lon="7.12587">
        <ele>612</ele>
        <time>2023-08-02T10:48:40.000Z</time>
      </trkpt>
      <trkpt lat="43.76164" lon="7.12587">
        <ele>612</ele>
        <time>2023-08-02T10:48:41.000Z</time>
      </trkpt>
      <trkpt lat="43.76164" lon="7.12587">
        <ele>612</ele>
        <time>2023-08-02T10:48:42.000Z</time>
      </trkpt>
      <trkpt lat="43.76164" lon="7.12587">
        <ele>612</ele>
        <time>2023-08-02T10:48:43.000Z</time>
      </trkpt>
      <trkpt lat="43.76165" lon="7.12587">
        <ele>612</ele>
        <time>2023-08-02T10:48:44.000Z</time>
      </trkpt>
      <trkpt lat="43.76165" lon="7.12587">
        <ele>612</ele>
        <time>2023-08-02T10:48:45.000Z</time>
      </trkpt>
      <trkpt lat="43.76165" lon="7.12587">
        <ele>612</ele>
        <time>2023-08-02T10:48:46.000Z</time>
      </trkpt>
      <trkpt lat="43.76165" lon="7.12587">
        <ele>612</ele>
        <time>2023-08-02T10:48:47.000Z</time>
      </trkpt>
      <trkpt lat="43.76165" lon="7.12587">
        <ele>612</ele>
        <time>2023-08-02T10:48:48.000Z</time>
      </trkpt>
      <trkpt lat="43.76165" lon="7.12587">
        <ele>612</ele>
        <time>2023-08-02T10:48:49.000Z</time>
      </trkpt>
      <trkpt lat="43.76165" lon="7.12587">
        <ele>612</ele>
        <time>2023-08-02T10:48:50.000Z</time>
      </trkpt>
      <trkpt lat="43.76165" lon="7.12587">
        <ele>612</ele>
        <time>2023-08-02T10:48:51.000Z</time>
      </trkpt>
      <trkpt lat="43.76165" lon="7.12587">
        <ele>612</ele>
        <time>2023-08-02T10:48:52.000Z</time>
      </trkpt>
      <trkpt lat="43.76165" lon="7.12587">
        <ele>612</ele>
        <time>2023-08-02T10:48:53.000Z</time>
      </trkpt>
      <trkpt lat="43.76165" lon="7.12587">
        <ele>612</ele>
        <time>2023-08-02T10:48:54.000Z</time>
      </trkpt>
      <trkpt lat="43.76165" lon="7.12587">
        <ele>612</ele>
        <time>2023-08-02T10:48:55.000Z</time>
      </trkpt>
      <trkpt lat="43.76165" lon="7.12587">
        <ele>612</ele>
        <time>2023-08-02T10:48:56.000Z</time>
      </trkpt>
      <trkpt lat="43.76165" lon="7.12587">
        <ele>612</ele>
        <time>2023-08-02T10:48:57.000Z</time>
      </trkpt>
      <trkpt lat="43.76165" lon="7.12587">
        <ele>612</ele>
        <time>2023-08-02T10:48:58.000Z</time>
      </trkpt>
      <trkpt lat="43.76165" lon="7.12587">
        <ele>612</ele>
        <time>2023-08-02T10:48:59.000Z</time>
      </trkpt>
      <trkpt lat="43.76165" lon="7.12587">
        <ele>612</ele>
        <time>2023-08-02T10:49:00.000Z</time>
      </trkpt>
      <trkpt lat="43.76165" lon="7.12587">
        <ele>612</ele>
        <time>2023-08-02T10:49:01.000Z</time>
      </trkpt>
      <trkpt lat="43.76165" lon="7.12587">
        <ele>612</ele>
        <time>2023-08-02T10:49:02.000Z</time>
      </trkpt>
      <trkpt lat="43.76165" lon="7.12587">
        <ele>612</ele>
        <time>2023-08-02T10:49:03.000Z</time>
      </trkpt>
      <trkpt lat="43.76165" lon="7.12587">
        <ele>612</ele>
        <time>2023-08-02T10:49:04.000Z</time>
      </trkpt>
      <trkpt lat="43.76165" lon="7.12587">
        <ele>612</ele>
        <time>2023-08-02T10:49:05.000Z</time>
      </trkpt>
      <trkpt lat="43.76165" lon="7.12587">
        <ele>612</ele>
        <time>2023-08-02T10:49:06.000Z</time>
      </trkpt>
      <trkpt lat="43.76165" lon="7.12587">
        <ele>612</ele>
        <time>2023-08-02T10:49:07.000Z</time>
      </trkpt>
      <trkpt lat="43.76165" lon="7.12587">
        <ele>612</ele>
        <time>2023-08-02T10:49:08.000Z</time>
      </trkpt>
      <trkpt lat="43.76165" lon="7.12587">
        <ele>612</ele>
        <time>2023-08-02T10:49:09.000Z</time>
      </trkpt>
      <trkpt lat="43.76165" lon="7.12587">
        <ele>612</ele>
        <time>2023-08-02T10:49:10.000Z</time>
      </trkpt>
      <trkpt lat="43.76165" lon="7.12587">
        <ele>612</ele>
        <time>2023-08-02T10:49:11.000Z</time>
      </trkpt>
      <trkpt lat="43.76165" lon="7.12587">
        <ele>612</ele>
        <time>2023-08-02T10:49:12.000Z</time>
      </trkpt>
      <trkpt lat="43.76165" lon="7.12587">
        <ele>612</ele>
        <time>2023-08-02T10:49:13.000Z</time>
      </trkpt>
      <trkpt lat="43.76165" lon="7.12587">
        <ele>612</ele>
        <time>2023-08-02T10:49:14.000Z</time>
      </trkpt>
      <trkpt lat="43.76165" lon="7.12587">
        <ele>612</ele>
        <time>2023-08-02T10:49:15.000Z</time>
      </trkpt>
      <trkpt lat="43.76165" lon="7.12587">
        <ele>612</ele>
        <time>2023-08-02T10:49:16.000Z</time>
      </trkpt>
      <trkpt lat="43.76165" lon="7.12587">
        <ele>612</ele>
        <time>2023-08-02T10:49:17.000Z</time>
      </trkpt>
      <trkpt lat="43.76165" lon="7.12587">
        <ele>612</ele>
        <time>2023-08-02T10:49:18.000Z</time>
      </trkpt>
      <trkpt lat="43.76165" lon="7.12587">
        <ele>612</ele>
        <time>2023-08-02T10:49:19.000Z</time>
      </trkpt>
      <trkpt lat="43.76165" lon="7.12587">
        <ele>612</ele>
        <time>2023-08-02T10:49:20.000Z</time>
      </trkpt>
      <trkpt lat="43.76165" lon="7.12587">
        <ele>612</ele>
        <time>2023-08-02T10:49:21.000Z</time>
      </trkpt>
      <trkpt lat="43.76165" lon="7.12587">
        <ele>612</ele>
        <time>2023-08-02T10:49:22.000Z</time>
      </trkpt>
      <trkpt lat="43.76165" lon="7.12587">
        <ele>612</ele>
        <time>2023-08-02T10:49:23.000Z</time>
      </trkpt>
      <trkpt lat="43.76165" lon="7.12587">
        <ele>612</ele>
        <time>2023-08-02T10:49:24.000Z</time>
      </trkpt>
      <trkpt lat="43.76165" lon="7.12587">
        <ele>612</ele>
        <time>2023-08-02T10:49:25.000Z</time>
      </trkpt>
      <trkpt lat="43.76165" lon="7.12587">
        <ele>612</ele>
        <time>2023-08-02T10:49:26.000Z</time>
      </trkpt>
      <trkpt lat="43.76165" lon="7.12587">
        <ele>612</ele>
        <time>2023-08-02T10:49:27.000Z</time>
      </trkpt>
      <trkpt lat="43.76165" lon="7.12587">
        <ele>612</ele>
        <time>2023-08-02T10:49:28.000Z</time>
      </trkpt>
      <trkpt lat="43.76165" lon="7.12587">
        <ele>612</ele>
        <time>2023-08-02T10:49:29.000Z</time>
      </trkpt>
      <trkpt lat="43.76165" lon="7.12587">
        <ele>612</ele>
        <time>2023-08-02T10:49:30.000Z</time>
      </trkpt>
      <trkpt lat="43.76165" lon="7.12587">
        <ele>612</ele>
        <time>2023-08-02T10:49:31.000Z</time>
      </trkpt>
      <trkpt lat="43.76165" lon="7.12587">
        <ele>612</ele>
        <time>2023-08-02T10:49:32.000Z</time>
      </trkpt>
      <trkpt lat="43.76165" lon="7.12587">
        <ele>612</ele>
        <time>2023-08-02T10:49:33.000Z</time>
      </trkpt>
      <trkpt lat="43.76165" lon="7.12587">
        <ele>612</ele>
        <time>2023-08-02T10:49:34.000Z</time>
      </trkpt>
      <trkpt lat="43.76165" lon="7.12587">
        <ele>612</ele>
        <time>2023-08-02T10:49:35.000Z</time>
      </trkpt>
      <trkpt lat="43.76165" lon="7.12587">
        <ele>612</ele>
        <time>2023-08-02T10:49:36.000Z</time>
      </trkpt>
      <trkpt lat="43.76165" lon="7.12587">
        <ele>612</ele>
        <time>2023-08-02T10:49:37.000Z</time>
      </trkpt>
      <trkpt lat="43.76165" lon="7.12587">
        <ele>612</ele>
        <time>2023-08-02T10:49:38.000Z</time>
      </trkpt>
      <trkpt lat="43.76165" lon="7.12587">
        <ele>612</ele>
        <time>2023-08-02T10:49:39.000Z</time>
      </trkpt>
      <trkpt lat="43.76165" lon="7.12587">
        <ele>612</ele>
        <time>2023-08-02T10:49:40.000Z</time>
      </trkpt>
      <trkpt lat="43.76165" lon="7.12587">
        <ele>612</ele>
        <time>2023-08-02T10:49:41.000Z</time>
      </trkpt>
      <trkpt lat="43.76165" lon="7.12587">
        <ele>612</ele>
        <time>2023-08-02T10:49:42.000Z</time>
      </trkpt>
      <trkpt lat="43.76165" lon="7.12587">
        <ele>612</ele>
        <time>2023-08-02T10:49:43.000Z</time>
      </trkpt>
      <trkpt lat="43.76165" lon="7.12587">
        <ele>612</ele>
        <time>2023-08-02T10:49:44.000Z</time>
      </trkpt>
      <trkpt lat="43.76165" lon="7.12587">
        <ele>612</ele>
        <time>2023-08-02T10:49:45.000Z</time>
      </trkpt>
      <trkpt lat="43.76164" lon="7.12587">
        <ele>612</ele>
        <time>2023-08-02T10:49:46.000Z</time>
      </trkpt>
      <trkpt lat="43.76164" lon="7.12587">
        <ele>612</ele>
        <time>2023-08-02T10:49:47.000Z</time>
      </trkpt>
      <trkpt lat="43.76164" lon="7.12587">
        <ele>612</ele>
        <time>2023-08-02T10:49:48.000Z</time>
      </trkpt>
      <trkpt lat="43.76164" lon="7.12587">
        <ele>612</ele>
        <time>2023-08-02T10:49:49.000Z</time>
      </trkpt>
      <trkpt lat="43.76164" lon="7.12588">
        <ele>612</ele>
        <time>2023-08-02T10:49:50.000Z</time>
      </trkpt>
      <trkpt lat="43.76164" lon="7.12588">
        <ele>612</ele>
        <time>2023-08-02T10:49:51.000Z</time>
      </trkpt>
      <trkpt lat="43.76164" lon="7.12588">
        <ele>612</ele>
        <time>2023-08-02T10:49:52.000Z</time>
      </trkpt>
      <trkpt lat="43.76164" lon="7.12588">
        <ele>612</ele>
        <time>2023-08-02T10:49:53.000Z</time>
      </trkpt>
      <trkpt lat="43.76164" lon="7.12588">
        <ele>612</ele>
        <time>2023-08-02T10:49:54.000Z</time>
      </trkpt>
      <trkpt lat="43.76164" lon="7.12588">
        <ele>612</ele>
        <time>2023-08-02T10:49:55.000Z</time>
      </trkpt>
      <trkpt lat="43.76164" lon="7.12588">
        <ele>612</ele>
        <time>2023-08-02T10:49:56.000Z</time>
      </trkpt>
      <trkpt lat="43.76164" lon="7.12588">
        <ele>612</ele>
        <time>2023-08-02T10:49:57.000Z</time>
      </trkpt>
      <trkpt lat="43.76164" lon="7.12588">
        <ele>612</ele>
        <time>2023-08-02T10:49:58.000Z</time>
      </trkpt>
      <trkpt lat="43.76164" lon="7.12588">
        <ele>612</ele>
        <time>2023-08-02T10:49:59.000Z</time>
      </trkpt>
      <trkpt lat="43.76164" lon="7.12588">
        <ele>612</ele>
        <time>2023-08-02T10:50:00.000Z</time>
      </trkpt>
      <trkpt lat="43.76164" lon="7.12588">
        <ele>612</ele>
        <time>2023-08-02T10:50:01.000Z</time>
      </trkpt>
      <trkpt lat="43.76164" lon="7.12588">
        <ele>612</ele>
        <time>2023-08-02T10:50:02.000Z</time>
      </trkpt>
      <trkpt lat="43.76164" lon="7.12588">
        <ele>612</ele>
        <time>2023-08-02T10:50:03.000Z</time>
      </trkpt>
      <trkpt lat="43.76164" lon="7.12588">
        <ele>612</ele>
        <time>2023-08-02T10:50:04.000Z</time>
      </trkpt>
      <trkpt lat="43.76164" lon="7.12588">
        <ele>612</ele>
        <time>2023-08-02T10:50:05.000Z</time>
      </trkpt>
      <trkpt lat="43.76164" lon="7.12588">
        <ele>612</ele>
        <time>2023-08-02T10:50:06.000Z</time>
      </trkpt>
      <trkpt lat="43.76164" lon="7.12588">
        <ele>612</ele>
        <time>2023-08-02T10:50:07.000Z</time>
      </trkpt>
      <trkpt lat="43.76164" lon="7.12588">
        <ele>612</ele>
        <time>2023-08-02T10:50:08.000Z</time>
      </trkpt>
      <trkpt lat="43.76164" lon="7.12588">
        <ele>612</ele>
        <time>2023-08-02T10:50:09.000Z</time>
      </trkpt>
      <trkpt lat="43.76164" lon="7.12588">
        <ele>612</ele>
        <time>2023-08-02T10:50:10.000Z</time>
      </trkpt>
      <trkpt lat="43.76164" lon="7.12588">
        <ele>612</ele>
        <time>2023-08-02T10:50:11.000Z</time>
      </trkpt>
      <trkpt lat="43.76164" lon="7.12588">
        <ele>612</ele>
        <time>2023-08-02T10:50:12.000Z</time>
      </trkpt>
      <trkpt lat="43.76164" lon="7.12588">
        <ele>612</ele>
        <time>2023-08-02T10:50:13.000Z</time>
      </trkpt>
      <trkpt lat="43.76164" lon="7.12588">
        <ele>612</ele>
        <time>2023-08-02T10:50:14.000Z</time>
      </trkpt>
      <trkpt lat="43.76164" lon="7.12588">
        <ele>612</ele>
        <time>2023-08-02T10:50:15.000Z</time>
      </trkpt>
      <trkpt lat="43.76164" lon="7.12588">
        <ele>612</ele>
        <time>2023-08-02T10:50:16.000Z</time>
      </trkpt>
      <trkpt lat="43.76164" lon="7.12588">
        <ele>612</ele>
        <time>2023-08-02T10:50:17.000Z</time>
      </trkpt>
      <trkpt lat="43.76164" lon="7.12588">
        <ele>612</ele>
        <time>2023-08-02T10:50:18.000Z</time>
      </trkpt>
      <trkpt lat="43.76164" lon="7.12588">
        <ele>612</ele>
        <time>2023-08-02T10:50:19.000Z</time>
      </trkpt>
      <trkpt lat="43.76164" lon="7.12588">
        <ele>612</ele>
        <time>2023-08-02T10:50:20.000Z</time>
      </trkpt>
      <trkpt lat="43.76164" lon="7.12588">
        <ele>612</ele>
        <time>2023-08-02T10:50:21.000Z</time>
      </trkpt>
      <trkpt lat="43.76164" lon="7.12588">
        <ele>612</ele>
        <time>2023-08-02T10:50:22.000Z</time>
      </trkpt>
      <trkpt lat="43.76165" lon="7.12588">
        <ele>612</ele>
        <time>2023-08-02T10:50:23.000Z</time>
      </trkpt>
      <trkpt lat="43.76165" lon="7.12588">
        <ele>612</ele>
        <time>2023-08-02T10:50:24.000Z</time>
      </trkpt>
      <trkpt lat="43.76165" lon="7.12588">
        <ele>612</ele>
        <time>2023-08-02T10:50:25.000Z</time>
      </trkpt>
      <trkpt lat="43.76165" lon="7.12588">
        <ele>612</ele>
        <time>2023-08-02T10:50:26.000Z</time>
      </trkpt>
      <trkpt lat="43.76165" lon="7.12588">
        <ele>612</ele>
        <time>2023-08-02T10:50:27.000Z</time>
      </trkpt>
      <trkpt lat="43.76165" lon="7.12589">
        <ele>612</ele>
        <time>2023-08-02T10:50:28.000Z</time>
      </trkpt>
      <trkpt lat="43.76165" lon="7.12589">
        <ele>612</ele>
        <time>2023-08-02T10:50:29.000Z</time>
      </trkpt>
      <trkpt lat="43.76165" lon="7.12588">
        <ele>612</ele>
        <time>2023-08-02T10:50:30.000Z</time>
      </trkpt>
      <trkpt lat="43.76165" lon="7.12588">
        <ele>612</ele>
        <time>2023-08-02T10:50:31.000Z</time>
      </trkpt>
      <trkpt lat="43.76165" lon="7.12588">
        <ele>612</ele>
        <time>2023-08-02T10:50:32.000Z</time>
      </trkpt>
      <trkpt lat="43.76165" lon="7.12588">
        <ele>612</ele>
        <time>2023-08-02T10:50:33.000Z</time>
      </trkpt>
      <trkpt lat="43.76165" lon="7.12588">
        <ele>612</ele>
        <time>2023-08-02T10:50:34.000Z</time>
      </trkpt>
      <trkpt lat="43.76165" lon="7.12588">
        <ele>612</ele>
        <time>2023-08-02T10:50:35.000Z</time>
      </trkpt>
      <trkpt lat="43.76165" lon="7.12588">
        <ele>612</ele>
        <time>2023-08-02T10:50:36.000Z</time>
      </trkpt>
      <trkpt lat="43.76165" lon="7.12588">
        <ele>612</ele>
        <time>2023-08-02T10:50:37.000Z</time>
      </trkpt>
      <trkpt lat="43.76165" lon="7.12588">
        <ele>612</ele>
        <time>2023-08-02T10:50:38.000Z</time>
      </trkpt>
      <trkpt lat="43.76165" lon="7.12588">
        <ele>612</ele>
        <time>2023-08-02T10:50:39.000Z</time>
      </trkpt>
      <trkpt lat="43.76165" lon="7.12588">
        <ele>612</ele>
        <time>2023-08-02T10:50:40.000Z</time>
      </trkpt>
      <trkpt lat="43.76165" lon="7.12588">
        <ele>612</ele>
        <time>2023-08-02T10:50:41.000Z</time>
      </trkpt>
      <trkpt lat="43.76165" lon="7.12588">
        <ele>612</ele>
        <time>2023-08-02T10:50:42.000Z</time>
      </trkpt>
      <trkpt lat="43.76165" lon="7.12588">
        <ele>612</ele>
        <time>2023-08-02T10:50:43.000Z</time>
      </trkpt>
      <trkpt lat="43.76165" lon="7.12588">
        <ele>612</ele>
        <time>2023-08-02T10:50:44.000Z</time>
      </trkpt>
      <trkpt lat="43.76165" lon="7.12588">
        <ele>612</ele>
        <time>2023-08-02T10:50:45.000Z</time>
      </trkpt>
      <trkpt lat="43.76165" lon="7.12588">
        <ele>612</ele>
        <time>2023-08-02T10:50:46.000Z</time>
      </trkpt>
      <trkpt lat="43.76166" lon="7.12588">
        <ele>612</ele>
        <time>2023-08-02T10:50:47.000Z</time>
      </trkpt>
      <trkpt lat="43.76166" lon="7.12588">
        <ele>612</ele>
        <time>2023-08-02T10:50:48.000Z</time>
      </trkpt>
      <trkpt lat="43.76166" lon="7.12588">
        <ele>612</ele>
        <time>2023-08-02T10:50:49.000Z</time>
      </trkpt>
      <trkpt lat="43.76165" lon="7.12588">
        <ele>612</ele>
        <time>2023-08-02T10:50:50.000Z</time>
      </trkpt>
      <trkpt lat="43.76165" lon="7.12586">
        <ele>612</ele>
        <time>2023-08-02T10:50:51.000Z</time>
      </trkpt>
      <trkpt lat="43.76164" lon="7.12586">
        <ele>612</ele>
        <time>2023-08-02T10:50:52.000Z</time>
      </trkpt>
      <trkpt lat="43.76164" lon="7.12586">
        <ele>612</ele>
        <time>2023-08-02T10:50:53.000Z</time>
      </trkpt>
      <trkpt lat="43.76164" lon="7.12586">
        <ele>612</ele>
        <time>2023-08-02T10:50:54.000Z</time>
      </trkpt>
      <trkpt lat="43.76164" lon="7.12586">
        <ele>612</ele>
        <time>2023-08-02T10:50:55.000Z</time>
      </trkpt>
      <trkpt lat="43.76165" lon="7.12586">
        <ele>612</ele>
        <time>2023-08-02T10:50:56.000Z</time>
      </trkpt>
      <trkpt lat="43.76165" lon="7.12586">
        <ele>612</ele>
        <time>2023-08-02T10:50:57.000Z</time>
      </trkpt>
      <trkpt lat="43.76164" lon="7.12585">
        <ele>612</ele>
        <time>2023-08-02T10:50:58.000Z</time>
      </trkpt>
      <trkpt lat="43.76162" lon="7.12583">
        <ele>612</ele>
        <time>2023-08-02T10:50:59.000Z</time>
      </trkpt>
      <trkpt lat="43.76159" lon="7.12581">
        <ele>612</ele>
        <time>2023-08-02T10:51:00.000Z</time>
      </trkpt>
      <trkpt lat="43.76156" lon="7.12578">
        <ele>612</ele>
        <time>2023-08-02T10:51:01.000Z</time>
      </trkpt>
      <trkpt lat="43.76152" lon="7.12577">
        <ele>612</ele>
        <time>2023-08-02T10:51:02.000Z</time>
      </trkpt>
      <trkpt lat="43.76149" lon="7.12575">
        <ele>611</ele>
        <time>2023-08-02T10:51:03.000Z</time>
      </trkpt>
      <trkpt lat="43.76146" lon="7.12573">
        <ele>610.59997558594</ele>
        <time>2023-08-02T10:51:04.000Z</time>
      </trkpt>
      <trkpt lat="43.76145" lon="7.12572">
        <ele>610.40002441406</ele>
        <time>2023-08-02T10:51:05.000Z</time>
      </trkpt>
      <trkpt lat="43.76143" lon="7.12571">
        <ele>609.79998779297</ele>
        <time>2023-08-02T10:51:06.000Z</time>
      </trkpt>
      <trkpt lat="43.76142" lon="7.12571">
        <ele>608.59997558594</ele>
        <time>2023-08-02T10:51:07.000Z</time>
      </trkpt>
      <trkpt lat="43.76141" lon="7.1257">
        <ele>608</ele>
        <time>2023-08-02T10:51:08.000Z</time>
      </trkpt>
      <trkpt lat="43.76139" lon="7.1257">
        <ele>607.59997558594</ele>
        <time>2023-08-02T10:51:09.000Z</time>
      </trkpt>
      <trkpt lat="43.76138" lon="7.12571">
        <ele>607.40002441406</ele>
        <time>2023-08-02T10:51:10.000Z</time>
      </trkpt>
      <trkpt lat="43.76137" lon="7.12572">
        <ele>607.20001220703</ele>
        <time>2023-08-02T10:51:11.000Z</time>
      </trkpt>
      <trkpt lat="43.76137" lon="7.12573">
        <ele>606.59997558594</ele>
        <time>2023-08-02T10:51:12.000Z</time>
      </trkpt>
      <trkpt lat="43.76138" lon="7.12574">
        <ele>606.20001220703</ele>
        <time>2023-08-02T10:51:13.000Z</time>
      </trkpt>
      <trkpt lat="43.76139" lon="7.12575">
        <ele>606</ele>
        <time>2023-08-02T10:51:14.000Z</time>
      </trkpt>
      <trkpt lat="43.76139" lon="7.12577">
        <ele>605.79998779297</ele>
        <time>2023-08-02T10:51:15.000Z</time>
      </trkpt>
      <trkpt lat="43.7614" lon="7.12579">
        <ele>605.40002441406</ele>
        <time>2023-08-02T10:51:16.000Z</time>
      </trkpt>
      <trkpt lat="43.76142" lon="7.12583">
        <ele>605.40002441406</ele>
        <time>2023-08-02T10:51:17.000Z</time>
      </trkpt>
      <trkpt lat="43.76144" lon="7.12586">
        <ele>605</ele>
        <time>2023-08-02T10:51:18.000Z</time>
      </trkpt>
      <trkpt lat="43.76143" lon="7.1259">
        <ele>604.20001220703</ele>
        <time>2023-08-02T10:51:19.000Z</time>
      </trkpt>
      <trkpt lat="43.76141" lon="7.12593">
        <ele>604.20001220703</ele>
        <time>2023-08-02T10:51:20.000Z</time>
      </trkpt>
      <trkpt lat="43.76138" lon="7.12594">
        <ele>603.59997558594</ele>
        <time>2023-08-02T10:51:21.000Z</time>
      </trkpt>
      <trkpt lat="43.76135" lon="7.12597">
        <ele>603</ele>
        <time>2023-08-02T10:51:22.000Z</time>
      </trkpt>
      <trkpt lat="43.76133" lon="7.126">
        <ele>602.59997558594</ele>
        <time>2023-08-02T10:51:23.000Z</time>
      </trkpt>
      <trkpt lat="43.76132" lon="7.12602">
        <ele>602.40002441406</ele>
        <time>2023-08-02T10:51:24.000Z</time>
      </trkpt>
      <trkpt lat="43.7613" lon="7.12603">
        <ele>602.40002441406</ele>
        <time>2023-08-02T10:51:25.000Z</time>
      </trkpt>
      <trkpt lat="43.76129" lon="7.12604">
        <ele>602.40002441406</ele>
        <time>2023-08-02T10:51:26.000Z</time>
      </trkpt>
      <trkpt lat="43.76126" lon="7.12605">
        <ele>602.40002441406</ele>
        <time>2023-08-02T10:51:27.000Z</time>
      </trkpt>
      <trkpt lat="43.76124" lon="7.12606">
        <ele>602.40002441406</ele>
        <time>2023-08-02T10:51:28.000Z</time>
      </trkpt>
      <trkpt lat="43.76122" lon="7.12608">
        <ele>602.59997558594</ele>
        <time>2023-08-02T10:51:29.000Z</time>
      </trkpt>
      <trkpt lat="43.76119" lon="7.1261">
        <ele>602.79998779297</ele>
        <time>2023-08-02T10:51:30.000Z</time>
      </trkpt>
      <trkpt lat="43.76118" lon="7.12612">
        <ele>602.79998779297</ele>
        <time>2023-08-02T10:51:31.000Z</time>
      </trkpt>
      <trkpt lat="43.76117" lon="7.12615">
        <ele>602.79998779297</ele>
        <time>2023-08-02T10:51:32.000Z</time>
      </trkpt>
      <trkpt lat="43.76116" lon="7.12619">
        <ele>602.79998779297</ele>
        <time>2023-08-02T10:51:33.000Z</time>
      </trkpt>
      <trkpt lat="43.76115" lon="7.12621">
        <ele>602.79998779297</ele>
        <time>2023-08-02T10:51:34.000Z</time>
      </trkpt>
      <trkpt lat="43.76115" lon="7.12622">
        <ele>603</ele>
        <time>2023-08-02T10:51:35.000Z</time>
      </trkpt>
      <trkpt lat="43.76115" lon="7.12623">
        <ele>603</ele>
        <time>2023-08-02T10:51:36.000Z</time>
      </trkpt>
      <trkpt lat="43.76115" lon="7.12623">
        <ele>603</ele>
        <time>2023-08-02T10:51:37.000Z</time>
      </trkpt>
      <trkpt lat="43.76116" lon="7.12623">
        <ele>603</ele>
        <time>2023-08-02T10:51:38.000Z</time>
      </trkpt>
      <trkpt lat="43.76116" lon="7.12623">
        <ele>603</ele>
        <time>2023-08-02T10:51:39.000Z</time>
      </trkpt>
      <trkpt lat="43.76116" lon="7.12623">
        <ele>603</ele>
        <time>2023-08-02T10:51:40.000Z</time>
      </trkpt>
      <trkpt lat="43.76116" lon="7.12623">
        <ele>603</ele>
        <time>2023-08-02T10:51:41.000Z</time>
      </trkpt>
      <trkpt lat="43.76115" lon="7.12624">
        <ele>603</ele>
        <time>2023-08-02T10:51:42.000Z</time>
      </trkpt>
      <trkpt lat="43.76115" lon="7.12625">
        <ele>603</ele>
        <time>2023-08-02T10:51:43.000Z</time>
      </trkpt>
      <trkpt lat="43.76113" lon="7.12626">
        <ele>603</ele>
        <time>2023-08-02T10:51:44.000Z</time>
      </trkpt>
      <trkpt lat="43.76113" lon="7.12628">
        <ele>602.79998779297</ele>
        <time>2023-08-02T10:51:45.000Z</time>
      </trkpt>
      <trkpt lat="43.76113" lon="7.1263">
        <ele>602.79998779297</ele>
        <time>2023-08-02T10:51:46.000Z</time>
      </trkpt>
      <trkpt lat="43.76113" lon="7.12632">
        <ele>602.79998779297</ele>
        <time>2023-08-02T10:51:47.000Z</time>
      </trkpt>
      <trkpt lat="43.76114" lon="7.12635">
        <ele>602.59997558594</ele>
        <time>2023-08-02T10:51:48.000Z</time>
      </trkpt>
      <trkpt lat="43.76116" lon="7.12637">
        <ele>602.40002441406</ele>
        <time>2023-08-02T10:51:49.000Z</time>
      </trkpt>
      <trkpt lat="43.76117" lon="7.12639">
        <ele>602.40002441406</ele>
        <time>2023-08-02T10:51:50.000Z</time>
      </trkpt>
      <trkpt lat="43.76117" lon="7.12641">
        <ele>602</ele>
        <time>2023-08-02T10:51:51.000Z</time>
      </trkpt>
      <trkpt lat="43.76118" lon="7.12643">
        <ele>601.79998779297</ele>
        <time>2023-08-02T10:51:52.000Z</time>
      </trkpt>
      <trkpt lat="43.76119" lon="7.12646">
        <ele>601.40002441406</ele>
        <time>2023-08-02T10:51:53.000Z</time>
      </trkpt>
      <trkpt lat="43.7612" lon="7.1265">
        <ele>601.20001220703</ele>
        <time>2023-08-02T10:51:54.000Z</time>
      </trkpt>
      <trkpt lat="43.76121" lon="7.12654">
        <ele>600.79998779297</ele>
        <time>2023-08-02T10:51:55.000Z</time>
      </trkpt>
      <trkpt lat="43.76121" lon="7.1266">
        <ele>600.40002441406</ele>
        <time>2023-08-02T10:51:56.000Z</time>
      </trkpt>
      <trkpt lat="43.76119" lon="7.12665">
        <ele>600.40002441406</ele>
        <time>2023-08-02T10:51:57.000Z</time>
      </trkpt>
      <trkpt lat="43.7612" lon="7.1267">
        <ele>600.20001220703</ele>
        <time>2023-08-02T10:51:58.000Z</time>
      </trkpt>
      <trkpt lat="43.76119" lon="7.12674">
        <ele>599.40002441406</ele>
        <time>2023-08-02T10:51:59.000Z</time>
      </trkpt>
      <trkpt lat="43.76119" lon="7.1268">
        <ele>599.40002441406</ele>
        <time>2023-08-02T10:52:00.000Z</time>
      </trkpt>
      <trkpt lat="43.76118" lon="7.12684">
        <ele>598.79998779297</ele>
        <time>2023-08-02T10:52:01.000Z</time>
      </trkpt>
      <trkpt lat="43.76116" lon="7.12688">
        <ele>598.79998779297</ele>
        <time>2023-08-02T10:52:02.000Z</time>
      </trkpt>
      <trkpt lat="43.76114" lon="7.12692">
        <ele>598.40002441406</ele>
        <time>2023-08-02T10:52:03.000Z</time>
      </trkpt>
      <trkpt lat="43.76113" lon="7.12695">
        <ele>598.40002441406</ele>
        <time>2023-08-02T10:52:04.000Z</time>
      </trkpt>
      <trkpt lat="43.76112" lon="7.12699">
        <ele>597.79998779297</ele>
        <time>2023-08-02T10:52:05.000Z</time>
      </trkpt>
      <trkpt lat="43.76111" lon="7.12703">
        <ele>597.59997558594</ele>
        <time>2023-08-02T10:52:06.000Z</time>
      </trkpt>
      <trkpt lat="43.76111" lon="7.12707">
        <ele>597.20001220703</ele>
        <time>2023-08-02T10:52:07.000Z</time>
      </trkpt>
      <trkpt lat="43.76111" lon="7.12711">
        <ele>597.20001220703</ele>
        <time>2023-08-02T10:52:08.000Z</time>
      </trkpt>
      <trkpt lat="43.76111" lon="7.12715">
        <ele>596.79998779297</ele>
        <time>2023-08-02T10:52:09.000Z</time>
      </trkpt>
      <trkpt lat="43.7611" lon="7.12719">
        <ele>596.59997558594</ele>
        <time>2023-08-02T10:52:10.000Z</time>
      </trkpt>
      <trkpt lat="43.76108" lon="7.1272">
        <ele>596.40002441406</ele>
        <time>2023-08-02T10:52:11.000Z</time>
      </trkpt>
      <trkpt lat="43.76106" lon="7.12721">
        <ele>596.40002441406</ele>
        <time>2023-08-02T10:52:12.000Z</time>
      </trkpt>
      <trkpt lat="43.76103" lon="7.12722">
        <ele>596.40002441406</ele>
        <time>2023-08-02T10:52:13.000Z</time>
      </trkpt>
      <trkpt lat="43.761" lon="7.12724">
        <ele>596.20001220703</ele>
        <time>2023-08-02T10:52:14.000Z</time>
      </trkpt>
      <trkpt lat="43.76096" lon="7.12726">
        <ele>596.20001220703</ele>
        <time>2023-08-02T10:52:15.000Z</time>
      </trkpt>
      <trkpt lat="43.76093" lon="7.12727">
        <ele>595.79998779297</ele>
        <time>2023-08-02T10:52:16.000Z</time>
      </trkpt>
      <trkpt lat="43.7609" lon="7.12729">
        <ele>595.40002441406</ele>
        <time>2023-08-02T10:52:17.000Z</time>
      </trkpt>
      <trkpt lat="43.76087" lon="7.12731">
        <ele>594.59997558594</ele>
        <time>2023-08-02T10:52:18.000Z</time>
      </trkpt>
      <trkpt lat="43.76084" lon="7.12734">
        <ele>594.20001220703</ele>
        <time>2023-08-02T10:52:19.000Z</time>
      </trkpt>
      <trkpt lat="43.76082" lon="7.12737">
        <ele>593.79998779297</ele>
        <time>2023-08-02T10:52:20.000Z</time>
      </trkpt>
      <trkpt lat="43.7608" lon="7.12741">
        <ele>593.20001220703</ele>
        <time>2023-08-02T10:52:21.000Z</time>
      </trkpt>
      <trkpt lat="43.76078" lon="7.12743">
        <ele>593</ele>
        <time>2023-08-02T10:52:22.000Z</time>
      </trkpt>
      <trkpt lat="43.76076" lon="7.12743">
        <ele>592.20001220703</ele>
        <time>2023-08-02T10:52:23.000Z</time>
      </trkpt>
      <trkpt lat="43.76075" lon="7.12743">
        <ele>591.20001220703</ele>
        <time>2023-08-02T10:52:24.000Z</time>
      </trkpt>
      <trkpt lat="43.76075" lon="7.12741">
        <ele>591</ele>
        <time>2023-08-02T10:52:25.000Z</time>
      </trkpt>
      <trkpt lat="43.76074" lon="7.1274">
        <ele>590.20001220703</ele>
        <time>2023-08-02T10:52:26.000Z</time>
      </trkpt>
      <trkpt lat="43.76072" lon="7.12739">
        <ele>589.79998779297</ele>
        <time>2023-08-02T10:52:27.000Z</time>
      </trkpt>
      <trkpt lat="43.76071" lon="7.1274">
        <ele>589.59997558594</ele>
        <time>2023-08-02T10:52:28.000Z</time>
      </trkpt>
      <trkpt lat="43.7607" lon="7.12741">
        <ele>589</ele>
        <time>2023-08-02T10:52:29.000Z</time>
      </trkpt>
      <trkpt lat="43.76068" lon="7.12742">
        <ele>588.79998779297</ele>
        <time>2023-08-02T10:52:30.000Z</time>
      </trkpt>
      <trkpt lat="43.76066" lon="7.12743">
        <ele>588.20001220703</ele>
        <time>2023-08-02T10:52:31.000Z</time>
      </trkpt>
      <trkpt lat="43.76064" lon="7.12744">
        <ele>588.20001220703</ele>
        <time>2023-08-02T10:52:32.000Z</time>
      </trkpt>
      <trkpt lat="43.76062" lon="7.12746">
        <ele>587.79998779297</ele>
        <time>2023-08-02T10:52:33.000Z</time>
      </trkpt>
      <trkpt lat="43.7606" lon="7.12747">
        <ele>587.20001220703</ele>
        <time>2023-08-02T10:52:34.000Z</time>
      </trkpt>
      <trkpt lat="43.76058" lon="7.12747">
        <ele>586.79998779297</ele>
        <time>2023-08-02T10:52:35.000Z</time>
      </trkpt>
      <trkpt lat="43.76056" lon="7.12749">
        <ele>586.40002441406</ele>
        <time>2023-08-02T10:52:36.000Z</time>
      </trkpt>
      <trkpt lat="43.76053" lon="7.12749">
        <ele>585.59997558594</ele>
        <time>2023-08-02T10:52:37.000Z</time>
      </trkpt>
      <trkpt lat="43.7605" lon="7.1275">
        <ele>585</ele>
        <time>2023-08-02T10:52:38.000Z</time>
      </trkpt>
      <trkpt lat="43.76047" lon="7.12751">
        <ele>584.40002441406</ele>
        <time>2023-08-02T10:52:39.000Z</time>
      </trkpt>
      <trkpt lat="43.76045" lon="7.12751">
        <ele>583.79998779297</ele>
        <time>2023-08-02T10:52:40.000Z</time>
      </trkpt>
      <trkpt lat="43.76043" lon="7.1275">
        <ele>583.40002441406</ele>
        <time>2023-08-02T10:52:41.000Z</time>
      </trkpt>
      <trkpt lat="43.76043" lon="7.12748">
        <ele>583</ele>
        <time>2023-08-02T10:52:42.000Z</time>
      </trkpt>
      <trkpt lat="43.76045" lon="7.12747">
        <ele>582.40002441406</ele>
        <time>2023-08-02T10:52:43.000Z</time>
      </trkpt>
      <trkpt lat="43.76046" lon="7.12746">
        <ele>581.59997558594</ele>
        <time>2023-08-02T10:52:44.000Z</time>
      </trkpt>
      <trkpt lat="43.76047" lon="7.12745">
        <ele>581.20001220703</ele>
        <time>2023-08-02T10:52:45.000Z</time>
      </trkpt>
      <trkpt lat="43.76048" lon="7.12744">
        <ele>580.79998779297</ele>
        <time>2023-08-02T10:52:46.000Z</time>
      </trkpt>
      <trkpt lat="43.76049" lon="7.12742">
        <ele>580.59997558594</ele>
        <time>2023-08-02T10:52:47.000Z</time>
      </trkpt>
      <trkpt lat="43.76049" lon="7.12739">
        <ele>579.79998779297</ele>
        <time>2023-08-02T10:52:48.000Z</time>
      </trkpt>
      <trkpt lat="43.7605" lon="7.12736">
        <ele>579.79998779297</ele>
        <time>2023-08-02T10:52:49.000Z</time>
      </trkpt>
      <trkpt lat="43.76053" lon="7.12735">
        <ele>579.40002441406</ele>
        <time>2023-08-02T10:52:50.000Z</time>
      </trkpt>
      <trkpt lat="43.76054" lon="7.12733">
        <ele>579</ele>
        <time>2023-08-02T10:52:51.000Z</time>
      </trkpt>
      <trkpt lat="43.76053" lon="7.12732">
        <ele>578.59997558594</ele>
        <time>2023-08-02T10:52:52.000Z</time>
      </trkpt>
      <trkpt lat="43.76053" lon="7.12731">
        <ele>578.20001220703</ele>
        <time>2023-08-02T10:52:53.000Z</time>
      </trkpt>
      <trkpt lat="43.76053" lon="7.12731">
        <ele>578</ele>
        <time>2023-08-02T10:52:54.000Z</time>
      </trkpt>
      <trkpt lat="43.76053" lon="7.12731">
        <ele>578</ele>
        <time>2023-08-02T10:52:55.000Z</time>
      </trkpt>
      <trkpt lat="43.76053" lon="7.12731">
        <ele>577.59997558594</ele>
        <time>2023-08-02T10:52:56.000Z</time>
      </trkpt>
      <trkpt lat="43.76053" lon="7.12731">
        <ele>577.59997558594</ele>
        <time>2023-08-02T10:52:57.000Z</time>
      </trkpt>
      <trkpt lat="43.76053" lon="7.12731">
        <ele>577.40002441406</ele>
        <time>2023-08-02T10:52:58.000Z</time>
      </trkpt>
      <trkpt lat="43.76052" lon="7.12731">
        <ele>577.20001220703</ele>
        <time>2023-08-02T10:52:59.000Z</time>
      </trkpt>
      <trkpt lat="43.76052" lon="7.12731">
        <ele>577.20001220703</ele>
        <time>2023-08-02T10:53:00.000Z</time>
      </trkpt>
      <trkpt lat="43.76051" lon="7.12731">
        <ele>577</ele>
        <time>2023-08-02T10:53:01.000Z</time>
      </trkpt>
      <trkpt lat="43.76051" lon="7.12732">
        <ele>577</ele>
        <time>2023-08-02T10:53:02.000Z</time>
      </trkpt>
      <trkpt lat="43.76051" lon="7.12732">
        <ele>577</ele>
        <time>2023-08-02T10:53:03.000Z</time>
      </trkpt>
      <trkpt lat="43.76051" lon="7.12733">
        <ele>577</ele>
        <time>2023-08-02T10:53:04.000Z</time>
      </trkpt>
      <trkpt lat="43.76051" lon="7.12733">
        <ele>577</ele>
        <time>2023-08-02T10:53:05.000Z</time>
      </trkpt>
      <trkpt lat="43.76051" lon="7.12733">
        <ele>576.79998779297</ele>
        <time>2023-08-02T10:53:06.000Z</time>
      </trkpt>
      <trkpt lat="43.7605" lon="7.12733">
        <ele>576.79998779297</ele>
        <time>2023-08-02T10:53:07.000Z</time>
      </trkpt>
      <trkpt lat="43.76049" lon="7.12733">
        <ele>576.79998779297</ele>
        <time>2023-08-02T10:53:08.000Z</time>
      </trkpt>
      <trkpt lat="43.76047" lon="7.12732">
        <ele>576.59997558594</ele>
        <time>2023-08-02T10:53:09.000Z</time>
      </trkpt>
      <trkpt lat="43.76046" lon="7.12732">
        <ele>576.40002441406</ele>
        <time>2023-08-02T10:53:10.000Z</time>
      </trkpt>
      <trkpt lat="43.76044" lon="7.12733">
        <ele>576.20001220703</ele>
        <time>2023-08-02T10:53:11.000Z</time>
      </trkpt>
      <trkpt lat="43.76043" lon="7.12733">
        <ele>576</ele>
        <time>2023-08-02T10:53:12.000Z</time>
      </trkpt>
      <trkpt lat="43.76042" lon="7.12733">
        <ele>575.40002441406</ele>
        <time>2023-08-02T10:53:13.000Z</time>
      </trkpt>
      <trkpt lat="43.76042" lon="7.12731">
        <ele>575.20001220703</ele>
        <time>2023-08-02T10:53:14.000Z</time>
      </trkpt>
      <trkpt lat="43.76041" lon="7.1273">
        <ele>575</ele>
        <time>2023-08-02T10:53:15.000Z</time>
      </trkpt>
      <trkpt lat="43.76042" lon="7.12729">
        <ele>574.79998779297</ele>
        <time>2023-08-02T10:53:16.000Z</time>
      </trkpt>
      <trkpt lat="43.76042" lon="7.12728">
        <ele>574.59997558594</ele>
        <time>2023-08-02T10:53:17.000Z</time>
      </trkpt>
      <trkpt lat="43.76043" lon="7.12726">
        <ele>574.20001220703</ele>
        <time>2023-08-02T10:53:18.000Z</time>
      </trkpt>
      <trkpt lat="43.76043" lon="7.12724">
        <ele>574.20001220703</ele>
        <time>2023-08-02T10:53:19.000Z</time>
      </trkpt>
      <trkpt lat="43.76044" lon="7.12722">
        <ele>573.79998779297</ele>
        <time>2023-08-02T10:53:20.000Z</time>
      </trkpt>
      <trkpt lat="43.76045" lon="7.12719">
        <ele>573.59997558594</ele>
        <time>2023-08-02T10:53:21.000Z</time>
      </trkpt>
      <trkpt lat="43.76046" lon="7.12716">
        <ele>573.40002441406</ele>
        <time>2023-08-02T10:53:22.000Z</time>
      </trkpt>
      <trkpt lat="43.76047" lon="7.12714">
        <ele>572.79998779297</ele>
        <time>2023-08-02T10:53:23.000Z</time>
      </trkpt>
      <trkpt lat="43.76047" lon="7.12711">
        <ele>572.20001220703</ele>
        <time>2023-08-02T10:53:24.000Z</time>
      </trkpt>
      <trkpt lat="43.76048" lon="7.12709">
        <ele>571.79998779297</ele>
        <time>2023-08-02T10:53:25.000Z</time>
      </trkpt>
      <trkpt lat="43.76048" lon="7.12708">
        <ele>571.59997558594</ele>
        <time>2023-08-02T10:53:26.000Z</time>
      </trkpt>
      <trkpt lat="43.76048" lon="7.12707">
        <ele>571.20001220703</ele>
        <time>2023-08-02T10:53:27.000Z</time>
      </trkpt>
      <trkpt lat="43.76047" lon="7.12705">
        <ele>570.79998779297</ele>
        <time>2023-08-02T10:53:28.000Z</time>
      </trkpt>
      <trkpt lat="43.76046" lon="7.12703">
        <ele>570</ele>
        <time>2023-08-02T10:53:29.000Z</time>
      </trkpt>
      <trkpt lat="43.76045" lon="7.12703">
        <ele>569.79998779297</ele>
        <time>2023-08-02T10:53:30.000Z</time>
      </trkpt>
      <trkpt lat="43.76043" lon="7.12705">
        <ele>569.40002441406</ele>
        <time>2023-08-02T10:53:31.000Z</time>
      </trkpt>
      <trkpt lat="43.76041" lon="7.12708">
        <ele>569</ele>
        <time>2023-08-02T10:53:32.000Z</time>
      </trkpt>
      <trkpt lat="43.76039" lon="7.1271">
        <ele>568.59997558594</ele>
        <time>2023-08-02T10:53:33.000Z</time>
      </trkpt>
      <trkpt lat="43.76036" lon="7.12712">
        <ele>568.20001220703</ele>
        <time>2023-08-02T10:53:34.000Z</time>
      </trkpt>
      <trkpt lat="43.76035" lon="7.12714">
        <ele>567.79998779297</ele>
        <time>2023-08-02T10:53:35.000Z</time>
      </trkpt>
      <trkpt lat="43.76033" lon="7.12716">
        <ele>567.20001220703</ele>
        <time>2023-08-02T10:53:36.000Z</time>
      </trkpt>
      <trkpt lat="43.76032" lon="7.12716">
        <ele>566.79998779297</ele>
        <time>2023-08-02T10:53:37.000Z</time>
      </trkpt>
      <trkpt lat="43.7603" lon="7.12716">
        <ele>566.40002441406</ele>
        <time>2023-08-02T10:53:38.000Z</time>
      </trkpt>
      <trkpt lat="43.76029" lon="7.12714">
        <ele>566.20001220703</ele>
        <time>2023-08-02T10:53:39.000Z</time>
      </trkpt>
      <trkpt lat="43.76029" lon="7.12714">
        <ele>566.20001220703</ele>
        <time>2023-08-02T10:53:40.000Z</time>
      </trkpt>
      <trkpt lat="43.76029" lon="7.12714">
        <ele>565.79998779297</ele>
        <time>2023-08-02T10:53:41.000Z</time>
      </trkpt>
      <trkpt lat="43.76029" lon="7.12714">
        <ele>565.59997558594</ele>
        <time>2023-08-02T10:53:42.000Z</time>
      </trkpt>
      <trkpt lat="43.76029" lon="7.12713">
        <ele>565.59997558594</ele>
        <time>2023-08-02T10:53:43.000Z</time>
      </trkpt>
      <trkpt lat="43.76029" lon="7.12713">
        <ele>565.59997558594</ele>
        <time>2023-08-02T10:53:44.000Z</time>
      </trkpt>
      <trkpt lat="43.76029" lon="7.12713">
        <ele>565.40002441406</ele>
        <time>2023-08-02T10:53:45.000Z</time>
      </trkpt>
      <trkpt lat="43.76029" lon="7.12713">
        <ele>565.40002441406</ele>
        <time>2023-08-02T10:53:46.000Z</time>
      </trkpt>
      <trkpt lat="43.7603" lon="7.12712">
        <ele>565.40002441406</ele>
        <time>2023-08-02T10:53:47.000Z</time>
      </trkpt>
      <trkpt lat="43.76031" lon="7.12711">
        <ele>565.40002441406</ele>
        <time>2023-08-02T10:53:48.000Z</time>
      </trkpt>
      <trkpt lat="43.76031" lon="7.1271">
        <ele>565.20001220703</ele>
        <time>2023-08-02T10:53:49.000Z</time>
      </trkpt>
      <trkpt lat="43.76031" lon="7.1271">
        <ele>565.20001220703</ele>
        <time>2023-08-02T10:53:50.000Z</time>
      </trkpt>
      <trkpt lat="43.76031" lon="7.1271">
        <ele>565</ele>
        <time>2023-08-02T10:53:51.000Z</time>
      </trkpt>
      <trkpt lat="43.76031" lon="7.12709">
        <ele>565</ele>
        <time>2023-08-02T10:53:52.000Z</time>
      </trkpt>
      <trkpt lat="43.76032" lon="7.12708">
        <ele>565</ele>
        <time>2023-08-02T10:53:53.000Z</time>
      </trkpt>
      <trkpt lat="43.76033" lon="7.12706">
        <ele>564.79998779297</ele>
        <time>2023-08-02T10:53:54.000Z</time>
      </trkpt>
      <trkpt lat="43.76033" lon="7.12704">
        <ele>564.79998779297</ele>
        <time>2023-08-02T10:53:55.000Z</time>
      </trkpt>
      <trkpt lat="43.76033" lon="7.12702">
        <ele>564.59997558594</ele>
        <time>2023-08-02T10:53:56.000Z</time>
      </trkpt>
      <trkpt lat="43.76032" lon="7.12701">
        <ele>564.40002441406</ele>
        <time>2023-08-02T10:53:57.000Z</time>
      </trkpt>
      <trkpt lat="43.7603" lon="7.12701">
        <ele>564.40002441406</ele>
        <time>2023-08-02T10:53:58.000Z</time>
      </trkpt>
      <trkpt lat="43.76029" lon="7.12703">
        <ele>564</ele>
        <time>2023-08-02T10:53:59.000Z</time>
      </trkpt>
      <trkpt lat="43.76027" lon="7.12704">
        <ele>563.79998779297</ele>
        <time>2023-08-02T10:54:00.000Z</time>
      </trkpt>
      <trkpt lat="43.76025" lon="7.12705">
        <ele>563.40002441406</ele>
        <time>2023-08-02T10:54:01.000Z</time>
      </trkpt>
      <trkpt lat="43.76022" lon="7.12706">
        <ele>563</ele>
        <time>2023-08-02T10:54:02.000Z</time>
      </trkpt>
      <trkpt lat="43.7602" lon="7.12707">
        <ele>562.79998779297</ele>
        <time>2023-08-02T10:54:03.000Z</time>
      </trkpt>
      <trkpt lat="43.76017" lon="7.12708">
        <ele>562.40002441406</ele>
        <time>2023-08-02T10:54:04.000Z</time>
      </trkpt>
      <trkpt lat="43.76014" lon="7.1271">
        <ele>561.79998779297</ele>
        <time>2023-08-02T10:54:05.000Z</time>
      </trkpt>
      <trkpt lat="43.76012" lon="7.12712">
        <ele>561.79998779297</ele>
        <time>2023-08-02T10:54:06.000Z</time>
      </trkpt>
      <trkpt lat="43.76011" lon="7.12714">
        <ele>561.40002441406</ele>
        <time>2023-08-02T10:54:07.000Z</time>
      </trkpt>
      <trkpt lat="43.76009" lon="7.12715">
        <ele>561.20001220703</ele>
        <time>2023-08-02T10:54:08.000Z</time>
      </trkpt>
      <trkpt lat="43.76007" lon="7.12715">
        <ele>560.20001220703</ele>
        <time>2023-08-02T10:54:09.000Z</time>
      </trkpt>
      <trkpt lat="43.76006" lon="7.12715">
        <ele>559.79998779297</ele>
        <time>2023-08-02T10:54:10.000Z</time>
      </trkpt>
      <trkpt lat="43.76004" lon="7.12714">
        <ele>559.79998779297</ele>
        <time>2023-08-02T10:54:11.000Z</time>
      </trkpt>
      <trkpt lat="43.76005" lon="7.12712">
        <ele>559.20001220703</ele>
        <time>2023-08-02T10:54:12.000Z</time>
      </trkpt>
      <trkpt lat="43.76006" lon="7.1271">
        <ele>558.79998779297</ele>
        <time>2023-08-02T10:54:13.000Z</time>
      </trkpt>
      <trkpt lat="43.76008" lon="7.12708">
        <ele>558.59997558594</ele>
        <time>2023-08-02T10:54:14.000Z</time>
      </trkpt>
      <trkpt lat="43.7601" lon="7.12705">
        <ele>558.20001220703</ele>
        <time>2023-08-02T10:54:15.000Z</time>
      </trkpt>
      <trkpt lat="43.76011" lon="7.12702">
        <ele>557.79998779297</ele>
        <time>2023-08-02T10:54:16.000Z</time>
      </trkpt>
      <trkpt lat="43.7601" lon="7.127">
        <ele>557.40002441406</ele>
        <time>2023-08-02T10:54:17.000Z</time>
      </trkpt>
      <trkpt lat="43.76008" lon="7.12698">
        <ele>556.79998779297</ele>
        <time>2023-08-02T10:54:18.000Z</time>
      </trkpt>
      <trkpt lat="43.76007" lon="7.12698">
        <ele>556.59997558594</ele>
        <time>2023-08-02T10:54:19.000Z</time>
      </trkpt>
      <trkpt lat="43.76005" lon="7.127">
        <ele>556.40002441406</ele>
        <time>2023-08-02T10:54:20.000Z</time>
      </trkpt>
      <trkpt lat="43.76004" lon="7.12701">
        <ele>555.79998779297</ele>
        <time>2023-08-02T10:54:21.000Z</time>
      </trkpt>
      <trkpt lat="43.76003" lon="7.12702">
        <ele>555.59997558594</ele>
        <time>2023-08-02T10:54:22.000Z</time>
      </trkpt>
      <trkpt lat="43.76001" lon="7.12703">
        <ele>555.40002441406</ele>
        <time>2023-08-02T10:54:23.000Z</time>
      </trkpt>
      <trkpt lat="43.76" lon="7.12703">
        <ele>555</ele>
        <time>2023-08-02T10:54:24.000Z</time>
      </trkpt>
      <trkpt lat="43.75999" lon="7.12703">
        <ele>554.59997558594</ele>
        <time>2023-08-02T10:54:25.000Z</time>
      </trkpt>
      <trkpt lat="43.75997" lon="7.12703">
        <ele>554.20001220703</ele>
        <time>2023-08-02T10:54:26.000Z</time>
      </trkpt>
      <trkpt lat="43.75996" lon="7.12702">
        <ele>553.79998779297</ele>
        <time>2023-08-02T10:54:27.000Z</time>
      </trkpt>
      <trkpt lat="43.75995" lon="7.12701">
        <ele>553.20001220703</ele>
        <time>2023-08-02T10:54:28.000Z</time>
      </trkpt>
      <trkpt lat="43.75994" lon="7.12701">
        <ele>552.79998779297</ele>
        <time>2023-08-02T10:54:29.000Z</time>
      </trkpt>
      <trkpt lat="43.75993" lon="7.12701">
        <ele>552.79998779297</ele>
        <time>2023-08-02T10:54:30.000Z</time>
      </trkpt>
      <trkpt lat="43.75992" lon="7.12702">
        <ele>552.20001220703</ele>
        <time>2023-08-02T10:54:31.000Z</time>
      </trkpt>
      <trkpt lat="43.75991" lon="7.12702">
        <ele>551.59997558594</ele>
        <time>2023-08-02T10:54:32.000Z</time>
      </trkpt>
      <trkpt lat="43.75991" lon="7.12703">
        <ele>551.40002441406</ele>
        <time>2023-08-02T10:54:33.000Z</time>
      </trkpt>
      <trkpt lat="43.75991" lon="7.12703">
        <ele>551.40002441406</ele>
        <time>2023-08-02T10:54:34.000Z</time>
      </trkpt>
      <trkpt lat="43.75991" lon="7.12703">
        <ele>551</ele>
        <time>2023-08-02T10:54:35.000Z</time>
      </trkpt>
      <trkpt lat="43.75991" lon="7.12703">
        <ele>550.79998779297</ele>
        <time>2023-08-02T10:54:36.000Z</time>
      </trkpt>
      <trkpt lat="43.75991" lon="7.12703">
        <ele>550.59997558594</ele>
        <time>2023-08-02T10:54:37.000Z</time>
      </trkpt>
      <trkpt lat="43.75991" lon="7.12703">
        <ele>550.40002441406</ele>
        <time>2023-08-02T10:54:38.000Z</time>
      </trkpt>
      <trkpt lat="43.75991" lon="7.12703">
        <ele>550.40002441406</ele>
        <time>2023-08-02T10:54:39.000Z</time>
      </trkpt>
      <trkpt lat="43.75991" lon="7.12703">
        <ele>550.40002441406</ele>
        <time>2023-08-02T10:54:40.000Z</time>
      </trkpt>
      <trkpt lat="43.75991" lon="7.12703">
        <ele>550.40002441406</ele>
        <time>2023-08-02T10:54:41.000Z</time>
      </trkpt>
      <trkpt lat="43.75991" lon="7.12703">
        <ele>550.40002441406</ele>
        <time>2023-08-02T10:54:42.000Z</time>
      </trkpt>
      <trkpt lat="43.75991" lon="7.12703">
        <ele>550.40002441406</ele>
        <time>2023-08-02T10:54:43.000Z</time>
      </trkpt>
      <trkpt lat="43.75991" lon="7.12703">
        <ele>550.20001220703</ele>
        <time>2023-08-02T10:54:44.000Z</time>
      </trkpt>
      <trkpt lat="43.75991" lon="7.12703">
        <ele>550.20001220703</ele>
        <time>2023-08-02T10:54:45.000Z</time>
      </trkpt>
      <trkpt lat="43.75991" lon="7.12703">
        <ele>550.20001220703</ele>
        <time>2023-08-02T10:54:46.000Z</time>
      </trkpt>
      <trkpt lat="43.75991" lon="7.12703">
        <ele>550.40002441406</ele>
        <time>2023-08-02T10:54:47.000Z</time>
      </trkpt>
      <trkpt lat="43.75991" lon="7.12703">
        <ele>550.40002441406</ele>
        <time>2023-08-02T10:54:48.000Z</time>
      </trkpt>
      <trkpt lat="43.75991" lon="7.12703">
        <ele>550.40002441406</ele>
        <time>2023-08-02T10:54:49.000Z</time>
      </trkpt>
      <trkpt lat="43.75991" lon="7.12703">
        <ele>550.40002441406</ele>
        <time>2023-08-02T10:54:50.000Z</time>
      </trkpt>
      <trkpt lat="43.75991" lon="7.12703">
        <ele>550.40002441406</ele>
        <time>2023-08-02T10:54:51.000Z</time>
      </trkpt>
      <trkpt lat="43.75991" lon="7.12703">
        <ele>550.40002441406</ele>
        <time>2023-08-02T10:54:52.000Z</time>
      </trkpt>
      <trkpt lat="43.75991" lon="7.12703">
        <ele>550.40002441406</ele>
        <time>2023-08-02T10:54:53.000Z</time>
      </trkpt>
      <trkpt lat="43.75991" lon="7.12703">
        <ele>550.40002441406</ele>
        <time>2023-08-02T10:54:54.000Z</time>
      </trkpt>
      <trkpt lat="43.75991" lon="7.12703">
        <ele>550.40002441406</ele>
        <time>2023-08-02T10:54:55.000Z</time>
      </trkpt>
      <trkpt lat="43.75991" lon="7.12703">
        <ele>550.40002441406</ele>
        <time>2023-08-02T10:54:56.000Z</time>
      </trkpt>
      <trkpt lat="43.75991" lon="7.12703">
        <ele>550.40002441406</ele>
        <time>2023-08-02T10:54:57.000Z</time>
      </trkpt>
      <trkpt lat="43.75991" lon="7.12703">
        <ele>550.40002441406</ele>
        <time>2023-08-02T10:54:58.000Z</time>
      </trkpt>
      <trkpt lat="43.75991" lon="7.12703">
        <ele>550.40002441406</ele>
        <time>2023-08-02T10:54:59.000Z</time>
      </trkpt>
      <trkpt lat="43.75991" lon="7.12703">
        <ele>550.40002441406</ele>
        <time>2023-08-02T10:55:00.000Z</time>
      </trkpt>
      <trkpt lat="43.75991" lon="7.12703">
        <ele>550.40002441406</ele>
        <time>2023-08-02T10:55:01.000Z</time>
      </trkpt>
      <trkpt lat="43.75991" lon="7.12703">
        <ele>550.40002441406</ele>
        <time>2023-08-02T10:55:02.000Z</time>
      </trkpt>
      <trkpt lat="43.75991" lon="7.12703">
        <ele>550.40002441406</ele>
        <time>2023-08-02T10:55:03.000Z</time>
      </trkpt>
      <trkpt lat="43.75991" lon="7.12703">
        <ele>550.40002441406</ele>
        <time>2023-08-02T10:55:04.000Z</time>
      </trkpt>
      <trkpt lat="43.75991" lon="7.12703">
        <ele>550.40002441406</ele>
        <time>2023-08-02T10:55:05.000Z</time>
      </trkpt>
      <trkpt lat="43.75991" lon="7.12703">
        <ele>550.20001220703</ele>
        <time>2023-08-02T10:55:06.000Z</time>
      </trkpt>
      <trkpt lat="43.75991" lon="7.12703">
        <ele>550.20001220703</ele>
        <time>2023-08-02T10:55:07.000Z</time>
      </trkpt>
      <trkpt lat="43.75991" lon="7.12703">
        <ele>550.20001220703</ele>
        <time>2023-08-02T10:55:08.000Z</time>
      </trkpt>
      <trkpt lat="43.75991" lon="7.12703">
        <ele>550.20001220703</ele>
        <time>2023-08-02T10:55:09.000Z</time>
      </trkpt>
      <trkpt lat="43.75991" lon="7.12703">
        <ele>550.20001220703</ele>
        <time>2023-08-02T10:55:10.000Z</time>
      </trkpt>
      <trkpt lat="43.75991" lon="7.12703">
        <ele>550.20001220703</ele>
        <time>2023-08-02T10:55:11.000Z</time>
      </trkpt>
      <trkpt lat="43.75991" lon="7.12701">
        <ele>550.20001220703</ele>
        <time>2023-08-02T10:55:12.000Z</time>
      </trkpt>
      <trkpt lat="43.7599" lon="7.12703">
        <ele>550.20001220703</ele>
        <time>2023-08-02T10:55:13.000Z</time>
      </trkpt>
      <trkpt lat="43.7599" lon="7.12703">
        <ele>550.20001220703</ele>
        <time>2023-08-02T10:55:14.000Z</time>
      </trkpt>
      <trkpt lat="43.7599" lon="7.12704">
        <ele>550.20001220703</ele>
        <time>2023-08-02T10:55:15.000Z</time>
      </trkpt>
      <trkpt lat="43.75989" lon="7.12704">
        <ele>550</ele>
        <time>2023-08-02T10:55:16.000Z</time>
      </trkpt>
      <trkpt lat="43.75988" lon="7.12704">
        <ele>550</ele>
        <time>2023-08-02T10:55:17.000Z</time>
      </trkpt>
      <trkpt lat="43.75987" lon="7.12704">
        <ele>550</ele>
        <time>2023-08-02T10:55:18.000Z</time>
      </trkpt>
      <trkpt lat="43.75987" lon="7.12704">
        <ele>550</ele>
        <time>2023-08-02T10:55:19.000Z</time>
      </trkpt>
      <trkpt lat="43.75987" lon="7.12704">
        <ele>550</ele>
        <time>2023-08-02T10:55:20.000Z</time>
      </trkpt>
      <trkpt lat="43.75986" lon="7.12704">
        <ele>549.59997558594</ele>
        <time>2023-08-02T10:55:21.000Z</time>
      </trkpt>
      <trkpt lat="43.75986" lon="7.12703">
        <ele>549.59997558594</ele>
        <time>2023-08-02T10:55:22.000Z</time>
      </trkpt>
      <trkpt lat="43.75985" lon="7.12703">
        <ele>549.40002441406</ele>
        <time>2023-08-02T10:55:23.000Z</time>
      </trkpt>
      <trkpt lat="43.75984" lon="7.12702">
        <ele>549.20001220703</ele>
        <time>2023-08-02T10:55:24.000Z</time>
      </trkpt>
      <trkpt lat="43.75983" lon="7.12702">
        <ele>549</ele>
        <time>2023-08-02T10:55:25.000Z</time>
      </trkpt>
      <trkpt lat="43.75982" lon="7.12702">
        <ele>549</ele>
        <time>2023-08-02T10:55:26.000Z</time>
      </trkpt>
      <trkpt lat="43.75981" lon="7.12702">
        <ele>548.79998779297</ele>
        <time>2023-08-02T10:55:27.000Z</time>
      </trkpt>
      <trkpt lat="43.7598" lon="7.12701">
        <ele>548.59997558594</ele>
        <time>2023-08-02T10:55:28.000Z</time>
      </trkpt>
      <trkpt lat="43.75979" lon="7.12701">
        <ele>548.20001220703</ele>
        <time>2023-08-02T10:55:29.000Z</time>
      </trkpt>
      <trkpt lat="43.75977" lon="7.127">
        <ele>547.79998779297</ele>
        <time>2023-08-02T10:55:30.000Z</time>
      </trkpt>
      <trkpt lat="43.75976" lon="7.127">
        <ele>547.40002441406</ele>
        <time>2023-08-02T10:55:31.000Z</time>
      </trkpt>
      <trkpt lat="43.75974" lon="7.127">
        <ele>547.20001220703</ele>
        <time>2023-08-02T10:55:32.000Z</time>
      </trkpt>
      <trkpt lat="43.75974" lon="7.127">
        <ele>547</ele>
        <time>2023-08-02T10:55:33.000Z</time>
      </trkpt>
      <trkpt lat="43.75974" lon="7.12699">
        <ele>546.40002441406</ele>
        <time>2023-08-02T10:55:34.000Z</time>
      </trkpt>
      <trkpt lat="43.75974" lon="7.12699">
        <ele>546.20001220703</ele>
        <time>2023-08-02T10:55:35.000Z</time>
      </trkpt>
      <trkpt lat="43.75974" lon="7.12699">
        <ele>546</ele>
        <time>2023-08-02T10:55:36.000Z</time>
      </trkpt>
      <trkpt lat="43.75974" lon="7.12698">
        <ele>545.79998779297</ele>
        <time>2023-08-02T10:55:37.000Z</time>
      </trkpt>
      <trkpt lat="43.75975" lon="7.12697">
        <ele>545.59997558594</ele>
        <time>2023-08-02T10:55:38.000Z</time>
      </trkpt>
      <trkpt lat="43.75975" lon="7.12696">
        <ele>545.40002441406</ele>
        <time>2023-08-02T10:55:39.000Z</time>
      </trkpt>
      <trkpt lat="43.75975" lon="7.12695">
        <ele>545.40002441406</ele>
        <time>2023-08-02T10:55:40.000Z</time>
      </trkpt>
      <trkpt lat="43.75975" lon="7.12695">
        <ele>545.40002441406</ele>
        <time>2023-08-02T10:55:41.000Z</time>
      </trkpt>
      <trkpt lat="43.75975" lon="7.12695">
        <ele>545.20001220703</ele>
        <time>2023-08-02T10:55:42.000Z</time>
      </trkpt>
      <trkpt lat="43.75975" lon="7.12695">
        <ele>545</ele>
        <time>2023-08-02T10:55:43.000Z</time>
      </trkpt>
      <trkpt lat="43.75975" lon="7.12693">
        <ele>544.79998779297</ele>
        <time>2023-08-02T10:55:44.000Z</time>
      </trkpt>
      <trkpt lat="43.75975" lon="7.12693">
        <ele>544.59997558594</ele>
        <time>2023-08-02T10:55:45.000Z</time>
      </trkpt>
      <trkpt lat="43.75975" lon="7.12693">
        <ele>544.59997558594</ele>
        <time>2023-08-02T10:55:46.000Z</time>
      </trkpt>
      <trkpt lat="43.75975" lon="7.12693">
        <ele>544.40002441406</ele>
        <time>2023-08-02T10:55:47.000Z</time>
      </trkpt>
      <trkpt lat="43.75975" lon="7.12692">
        <ele>544.20001220703</ele>
        <time>2023-08-02T10:55:48.000Z</time>
      </trkpt>
      <trkpt lat="43.75975" lon="7.12692">
        <ele>544</ele>
        <time>2023-08-02T10:55:49.000Z</time>
      </trkpt>
      <trkpt lat="43.75975" lon="7.12691">
        <ele>543.79998779297</ele>
        <time>2023-08-02T10:55:50.000Z</time>
      </trkpt>
      <trkpt lat="43.75975" lon="7.12691">
        <ele>543.79998779297</ele>
        <time>2023-08-02T10:55:51.000Z</time>
      </trkpt>
      <trkpt lat="43.75976" lon="7.1269">
        <ele>543.59997558594</ele>
        <time>2023-08-02T10:55:52.000Z</time>
      </trkpt>
      <trkpt lat="43.75976" lon="7.12689">
        <ele>543.40002441406</ele>
        <time>2023-08-02T10:55:53.000Z</time>
      </trkpt>
      <trkpt lat="43.75976" lon="7.12688">
        <ele>543.40002441406</ele>
        <time>2023-08-02T10:55:54.000Z</time>
      </trkpt>
      <trkpt lat="43.75977" lon="7.12687">
        <ele>543</ele>
        <time>2023-08-02T10:55:55.000Z</time>
      </trkpt>
      <trkpt lat="43.75978" lon="7.12687">
        <ele>542.79998779297</ele>
        <time>2023-08-02T10:55:56.000Z</time>
      </trkpt>
      <trkpt lat="43.75978" lon="7.12686">
        <ele>542.79998779297</ele>
        <time>2023-08-02T10:55:57.000Z</time>
      </trkpt>
      <trkpt lat="43.75978" lon="7.12685">
        <ele>542.59997558594</ele>
        <time>2023-08-02T10:55:58.000Z</time>
      </trkpt>
      <trkpt lat="43.75979" lon="7.12684">
        <ele>542.40002441406</ele>
        <time>2023-08-02T10:55:59.000Z</time>
      </trkpt>
      <trkpt lat="43.75979" lon="7.12683">
        <ele>542.20001220703</ele>
        <time>2023-08-02T10:56:00.000Z</time>
      </trkpt>
      <trkpt lat="43.75979" lon="7.12681">
        <ele>542</ele>
        <time>2023-08-02T10:56:01.000Z</time>
      </trkpt>
      <trkpt lat="43.75979" lon="7.1268">
        <ele>541.79998779297</ele>
        <time>2023-08-02T10:56:02.000Z</time>
      </trkpt>
      <trkpt lat="43.75979" lon="7.12679">
        <ele>541.40002441406</ele>
        <time>2023-08-02T10:56:03.000Z</time>
      </trkpt>
      <trkpt lat="43.75978" lon="7.12677">
        <ele>541</ele>
        <time>2023-08-02T10:56:04.000Z</time>
      </trkpt>
      <trkpt lat="43.75977" lon="7.12676">
        <ele>541</ele>
        <time>2023-08-02T10:56:05.000Z</time>
      </trkpt>
      <trkpt lat="43.75976" lon="7.12676">
        <ele>540.79998779297</ele>
        <time>2023-08-02T10:56:06.000Z</time>
      </trkpt>
      <trkpt lat="43.75974" lon="7.12676">
        <ele>540.40002441406</ele>
        <time>2023-08-02T10:56:07.000Z</time>
      </trkpt>
      <trkpt lat="43.75972" lon="7.12677">
        <ele>540.20001220703</ele>
        <time>2023-08-02T10:56:08.000Z</time>
      </trkpt>
      <trkpt lat="43.7597" lon="7.12677">
        <ele>540</ele>
        <time>2023-08-02T10:56:09.000Z</time>
      </trkpt>
      <trkpt lat="43.75969" lon="7.12677">
        <ele>539.59997558594</ele>
        <time>2023-08-02T10:56:10.000Z</time>
      </trkpt>
      <trkpt lat="43.75968" lon="7.12679">
        <ele>539.40002441406</ele>
        <time>2023-08-02T10:56:11.000Z</time>
      </trkpt>
      <trkpt lat="43.75967" lon="7.12679">
        <ele>538.79998779297</ele>
        <time>2023-08-02T10:56:12.000Z</time>
      </trkpt>
      <trkpt lat="43.75965" lon="7.1268">
        <ele>538.59997558594</ele>
        <time>2023-08-02T10:56:13.000Z</time>
      </trkpt>
      <trkpt lat="43.75964" lon="7.1268">
        <ele>538.20001220703</ele>
        <time>2023-08-02T10:56:14.000Z</time>
      </trkpt>
      <trkpt lat="43.75963" lon="7.12679">
        <ele>537.79998779297</ele>
        <time>2023-08-02T10:56:15.000Z</time>
      </trkpt>
      <trkpt lat="43.75963" lon="7.12678">
        <ele>537.59997558594</ele>
        <time>2023-08-02T10:56:16.000Z</time>
      </trkpt>
      <trkpt lat="43.75964" lon="7.12677">
        <ele>537.20001220703</ele>
        <time>2023-08-02T10:56:17.000Z</time>
      </trkpt>
      <trkpt lat="43.75964" lon="7.12675">
        <ele>537.20001220703</ele>
        <time>2023-08-02T10:56:18.000Z</time>
      </trkpt>
      <trkpt lat="43.75964" lon="7.12674">
        <ele>536.79998779297</ele>
        <time>2023-08-02T10:56:19.000Z</time>
      </trkpt>
      <trkpt lat="43.75965" lon="7.12673">
        <ele>536.79998779297</ele>
        <time>2023-08-02T10:56:20.000Z</time>
      </trkpt>
      <trkpt lat="43.75966" lon="7.12671">
        <ele>536.59997558594</ele>
        <time>2023-08-02T10:56:21.000Z</time>
      </trkpt>
      <trkpt lat="43.75967" lon="7.1267">
        <ele>536.20001220703</ele>
        <time>2023-08-02T10:56:22.000Z</time>
      </trkpt>
      <trkpt lat="43.75968" lon="7.12669">
        <ele>536</ele>
        <time>2023-08-02T10:56:23.000Z</time>
      </trkpt>
      <trkpt lat="43.75969" lon="7.12666">
        <ele>535.59997558594</ele>
        <time>2023-08-02T10:56:24.000Z</time>
      </trkpt>
      <trkpt lat="43.75968" lon="7.12665">
        <ele>535.20001220703</ele>
        <time>2023-08-02T10:56:25.000Z</time>
      </trkpt>
      <trkpt lat="43.75967" lon="7.12664">
        <ele>534.79998779297</ele>
        <time>2023-08-02T10:56:26.000Z</time>
      </trkpt>
      <trkpt lat="43.75966" lon="7.12665">
        <ele>534.40002441406</ele>
        <time>2023-08-02T10:56:27.000Z</time>
      </trkpt>
      <trkpt lat="43.75965" lon="7.12666">
        <ele>534.20001220703</ele>
        <time>2023-08-02T10:56:28.000Z</time>
      </trkpt>
      <trkpt lat="43.75964" lon="7.12666">
        <ele>534.20001220703</ele>
        <time>2023-08-02T10:56:29.000Z</time>
      </trkpt>
      <trkpt lat="43.75963" lon="7.12666">
        <ele>533.79998779297</ele>
        <time>2023-08-02T10:56:30.000Z</time>
      </trkpt>
      <trkpt lat="43.75962" lon="7.12665">
        <ele>533.59997558594</ele>
        <time>2023-08-02T10:56:31.000Z</time>
      </trkpt>
      <trkpt lat="43.7596" lon="7.12665">
        <ele>533.40002441406</ele>
        <time>2023-08-02T10:56:32.000Z</time>
      </trkpt>
      <trkpt lat="43.75959" lon="7.12666">
        <ele>533.20001220703</ele>
        <time>2023-08-02T10:56:33.000Z</time>
      </trkpt>
      <trkpt lat="43.75958" lon="7.12666">
        <ele>533</ele>
        <time>2023-08-02T10:56:34.000Z</time>
      </trkpt>
      <trkpt lat="43.75956" lon="7.12666">
        <ele>532.59997558594</ele>
        <time>2023-08-02T10:56:35.000Z</time>
      </trkpt>
      <trkpt lat="43.75955" lon="7.12666">
        <ele>532.20001220703</ele>
        <time>2023-08-02T10:56:36.000Z</time>
      </trkpt>
      <trkpt lat="43.75954" lon="7.12666">
        <ele>532.20001220703</ele>
        <time>2023-08-02T10:56:37.000Z</time>
      </trkpt>
      <trkpt lat="43.75953" lon="7.12666">
        <ele>531.59997558594</ele>
        <time>2023-08-02T10:56:38.000Z</time>
      </trkpt>
      <trkpt lat="43.75952" lon="7.12666">
        <ele>531.40002441406</ele>
        <time>2023-08-02T10:56:39.000Z</time>
      </trkpt>
      <trkpt lat="43.75951" lon="7.12666">
        <ele>531</ele>
        <time>2023-08-02T10:56:40.000Z</time>
      </trkpt>
      <trkpt lat="43.75951" lon="7.12666">
        <ele>530.79998779297</ele>
        <time>2023-08-02T10:56:41.000Z</time>
      </trkpt>
      <trkpt lat="43.75949" lon="7.12666">
        <ele>530.40002441406</ele>
        <time>2023-08-02T10:56:42.000Z</time>
      </trkpt>
      <trkpt lat="43.75949" lon="7.12666">
        <ele>530</ele>
        <time>2023-08-02T10:56:43.000Z</time>
      </trkpt>
      <trkpt lat="43.75949" lon="7.12666">
        <ele>529.79998779297</ele>
        <time>2023-08-02T10:56:44.000Z</time>
      </trkpt>
      <trkpt lat="43.75948" lon="7.12666">
        <ele>529.59997558594</ele>
        <time>2023-08-02T10:56:45.000Z</time>
      </trkpt>
      <trkpt lat="43.75948" lon="7.12665">
        <ele>529.20001220703</ele>
        <time>2023-08-02T10:56:46.000Z</time>
      </trkpt>
      <trkpt lat="43.75948" lon="7.12664">
        <ele>529</ele>
        <time>2023-08-02T10:56:47.000Z</time>
      </trkpt>
      <trkpt lat="43.75948" lon="7.12662">
        <ele>529</ele>
        <time>2023-08-02T10:56:48.000Z</time>
      </trkpt>
      <trkpt lat="43.7595" lon="7.12661">
        <ele>528.79998779297</ele>
        <time>2023-08-02T10:56:49.000Z</time>
      </trkpt>
      <trkpt lat="43.75951" lon="7.12659">
        <ele>528.79998779297</ele>
        <time>2023-08-02T10:56:50.000Z</time>
      </trkpt>
      <trkpt lat="43.75951" lon="7.12657">
        <ele>528.59997558594</ele>
        <time>2023-08-02T10:56:51.000Z</time>
      </trkpt>
      <trkpt lat="43.75951" lon="7.12656">
        <ele>528.40002441406</ele>
        <time>2023-08-02T10:56:52.000Z</time>
      </trkpt>
      <trkpt lat="43.7595" lon="7.12656">
        <ele>528.40002441406</ele>
        <time>2023-08-02T10:56:53.000Z</time>
      </trkpt>
      <trkpt lat="43.75949" lon="7.12655">
        <ele>527.79998779297</ele>
        <time>2023-08-02T10:56:54.000Z</time>
      </trkpt>
      <trkpt lat="43.75948" lon="7.12655">
        <ele>527.59997558594</ele>
        <time>2023-08-02T10:56:55.000Z</time>
      </trkpt>
      <trkpt lat="43.75946" lon="7.12655">
        <ele>527.59997558594</ele>
        <time>2023-08-02T10:56:56.000Z</time>
      </trkpt>
      <trkpt lat="43.75945" lon="7.12656">
        <ele>527.40002441406</ele>
        <time>2023-08-02T10:56:57.000Z</time>
      </trkpt>
      <trkpt lat="43.75944" lon="7.12657">
        <ele>526.79998779297</ele>
        <time>2023-08-02T10:56:58.000Z</time>
      </trkpt>
      <trkpt lat="43.75943" lon="7.12658">
        <ele>526.40002441406</ele>
        <time>2023-08-02T10:56:59.000Z</time>
      </trkpt>
      <trkpt lat="43.75942" lon="7.12659">
        <ele>526.20001220703</ele>
        <time>2023-08-02T10:57:00.000Z</time>
      </trkpt>
      <trkpt lat="43.75941" lon="7.1266">
        <ele>525.79998779297</ele>
        <time>2023-08-02T10:57:01.000Z</time>
      </trkpt>
      <trkpt lat="43.7594" lon="7.12659">
        <ele>525.40002441406</ele>
        <time>2023-08-02T10:57:02.000Z</time>
      </trkpt>
      <trkpt lat="43.7594" lon="7.12659">
        <ele>524.79998779297</ele>
        <time>2023-08-02T10:57:03.000Z</time>
      </trkpt>
      <trkpt lat="43.7594" lon="7.12657">
        <ele>524.59997558594</ele>
        <time>2023-08-02T10:57:04.000Z</time>
      </trkpt>
      <trkpt lat="43.75939" lon="7.12656">
        <ele>524.59997558594</ele>
        <time>2023-08-02T10:57:05.000Z</time>
      </trkpt>
      <trkpt lat="43.75939" lon="7.12656">
        <ele>524.40002441406</ele>
        <time>2023-08-02T10:57:06.000Z</time>
      </trkpt>
      <trkpt lat="43.75937" lon="7.12655">
        <ele>524.20001220703</ele>
        <time>2023-08-02T10:57:07.000Z</time>
      </trkpt>
      <trkpt lat="43.75936" lon="7.12654">
        <ele>524</ele>
        <time>2023-08-02T10:57:08.000Z</time>
      </trkpt>
      <trkpt lat="43.75935" lon="7.12653">
        <ele>523.40002441406</ele>
        <time>2023-08-02T10:57:09.000Z</time>
      </trkpt>
      <trkpt lat="43.75934" lon="7.12653">
        <ele>523.20001220703</ele>
        <time>2023-08-02T10:57:10.000Z</time>
      </trkpt>
      <trkpt lat="43.75932" lon="7.12653">
        <ele>522.59997558594</ele>
        <time>2023-08-02T10:57:11.000Z</time>
      </trkpt>
      <trkpt lat="43.75931" lon="7.12652">
        <ele>521.79998779297</ele>
        <time>2023-08-02T10:57:12.000Z</time>
      </trkpt>
      <trkpt lat="43.7593" lon="7.1265">
        <ele>521.40002441406</ele>
        <time>2023-08-02T10:57:13.000Z</time>
      </trkpt>
      <trkpt lat="43.7593" lon="7.12649">
        <ele>520.59997558594</ele>
        <time>2023-08-02T10:57:14.000Z</time>
      </trkpt>
      <trkpt lat="43.7593" lon="7.12647">
        <ele>520.20001220703</ele>
        <time>2023-08-02T10:57:15.000Z</time>
      </trkpt>
      <trkpt lat="43.7593" lon="7.12645">
        <ele>519.59997558594</ele>
        <time>2023-08-02T10:57:16.000Z</time>
      </trkpt>
      <trkpt lat="43.75932" lon="7.12642">
        <ele>519.59997558594</ele>
        <time>2023-08-02T10:57:17.000Z</time>
      </trkpt>
      <trkpt lat="43.75934" lon="7.1264">
        <ele>519.40002441406</ele>
        <time>2023-08-02T10:57:18.000Z</time>
      </trkpt>
      <trkpt lat="43.75935" lon="7.12638">
        <ele>519.20001220703</ele>
        <time>2023-08-02T10:57:19.000Z</time>
      </trkpt>
      <trkpt lat="43.75935" lon="7.12637">
        <ele>518.79998779297</ele>
        <time>2023-08-02T10:57:20.000Z</time>
      </trkpt>
      <trkpt lat="43.75935" lon="7.12635">
        <ele>518.20001220703</ele>
        <time>2023-08-02T10:57:21.000Z</time>
      </trkpt>
      <trkpt lat="43.75934" lon="7.12634">
        <ele>517.59997558594</ele>
        <time>2023-08-02T10:57:22.000Z</time>
      </trkpt>
      <trkpt lat="43.75933" lon="7.12633">
        <ele>517.20001220703</ele>
        <time>2023-08-02T10:57:23.000Z</time>
      </trkpt>
      <trkpt lat="43.75931" lon="7.12633">
        <ele>516.79998779297</ele>
        <time>2023-08-02T10:57:24.000Z</time>
      </trkpt>
      <trkpt lat="43.75929" lon="7.12634">
        <ele>516.40002441406</ele>
        <time>2023-08-02T10:57:25.000Z</time>
      </trkpt>
      <trkpt lat="43.75927" lon="7.12635">
        <ele>516.20001220703</ele>
        <time>2023-08-02T10:57:26.000Z</time>
      </trkpt>
      <trkpt lat="43.75927" lon="7.12635">
        <ele>516.20001220703</ele>
        <time>2023-08-02T10:57:27.000Z</time>
      </trkpt>
      <trkpt lat="43.75927" lon="7.12635">
        <ele>515.79998779297</ele>
        <time>2023-08-02T10:57:28.000Z</time>
      </trkpt>
      <trkpt lat="43.75927" lon="7.12635">
        <ele>515.20001220703</ele>
        <time>2023-08-02T10:57:29.000Z</time>
      </trkpt>
      <trkpt lat="43.75926" lon="7.12635">
        <ele>514.79998779297</ele>
        <time>2023-08-02T10:57:30.000Z</time>
      </trkpt>
      <trkpt lat="43.75926" lon="7.12635">
        <ele>514.59997558594</ele>
        <time>2023-08-02T10:57:31.000Z</time>
      </trkpt>
      <trkpt lat="43.75926" lon="7.12635">
        <ele>514.59997558594</ele>
        <time>2023-08-02T10:57:32.000Z</time>
      </trkpt>
      <trkpt lat="43.75926" lon="7.12635">
        <ele>514.40002441406</ele>
        <time>2023-08-02T10:57:33.000Z</time>
      </trkpt>
      <trkpt lat="43.75926" lon="7.12635">
        <ele>514.40002441406</ele>
        <time>2023-08-02T10:57:34.000Z</time>
      </trkpt>
      <trkpt lat="43.75925" lon="7.12635">
        <ele>514.20001220703</ele>
        <time>2023-08-02T10:57:35.000Z</time>
      </trkpt>
      <trkpt lat="43.75925" lon="7.12634">
        <ele>514</ele>
        <time>2023-08-02T10:57:36.000Z</time>
      </trkpt>
      <trkpt lat="43.75924" lon="7.12634">
        <ele>514</ele>
        <time>2023-08-02T10:57:37.000Z</time>
      </trkpt>
      <trkpt lat="43.75924" lon="7.12633">
        <ele>514</ele>
        <time>2023-08-02T10:57:38.000Z</time>
      </trkpt>
      <trkpt lat="43.75924" lon="7.12633">
        <ele>513.79998779297</ele>
        <time>2023-08-02T10:57:39.000Z</time>
      </trkpt>
      <trkpt lat="43.75924" lon="7.12633">
        <ele>513.79998779297</ele>
        <time>2023-08-02T10:57:40.000Z</time>
      </trkpt>
      <trkpt lat="43.75924" lon="7.12631">
        <ele>513.79998779297</ele>
        <time>2023-08-02T10:57:41.000Z</time>
      </trkpt>
      <trkpt lat="43.75924" lon="7.1263">
        <ele>513.59997558594</ele>
        <time>2023-08-02T10:57:42.000Z</time>
      </trkpt>
      <trkpt lat="43.75924" lon="7.12629">
        <ele>513.59997558594</ele>
        <time>2023-08-02T10:57:43.000Z</time>
      </trkpt>
      <trkpt lat="43.75924" lon="7.12628">
        <ele>513.40002441406</ele>
        <time>2023-08-02T10:57:44.000Z</time>
      </trkpt>
      <trkpt lat="43.75924" lon="7.12627">
        <ele>513.20001220703</ele>
        <time>2023-08-02T10:57:45.000Z</time>
      </trkpt>
      <trkpt lat="43.75924" lon="7.12626">
        <ele>513</ele>
        <time>2023-08-02T10:57:46.000Z</time>
      </trkpt>
      <trkpt lat="43.75924" lon="7.12627">
        <ele>512.79998779297</ele>
        <time>2023-08-02T10:57:47.000Z</time>
      </trkpt>
      <trkpt lat="43.75924" lon="7.12627">
        <ele>512.59997558594</ele>
        <time>2023-08-02T10:57:48.000Z</time>
      </trkpt>
      <trkpt lat="43.75924" lon="7.12626">
        <ele>512.59997558594</ele>
        <time>2023-08-02T10:57:49.000Z</time>
      </trkpt>
      <trkpt lat="43.75924" lon="7.12626">
        <ele>512.40002441406</ele>
        <time>2023-08-02T10:57:50.000Z</time>
      </trkpt>
      <trkpt lat="43.75923" lon="7.12625">
        <ele>512.40002441406</ele>
        <time>2023-08-02T10:57:51.000Z</time>
      </trkpt>
      <trkpt lat="43.75923" lon="7.12623">
        <ele>512.20001220703</ele>
        <time>2023-08-02T10:57:52.000Z</time>
      </trkpt>
      <trkpt lat="43.75923" lon="7.12622">
        <ele>512.20001220703</ele>
        <time>2023-08-02T10:57:53.000Z</time>
      </trkpt>
      <trkpt lat="43.75922" lon="7.12621">
        <ele>512</ele>
        <time>2023-08-02T10:57:54.000Z</time>
      </trkpt>
      <trkpt lat="43.75921" lon="7.12619">
        <ele>512</ele>
        <time>2023-08-02T10:57:55.000Z</time>
      </trkpt>
      <trkpt lat="43.7592" lon="7.12618">
        <ele>511.79998779297</ele>
        <time>2023-08-02T10:57:56.000Z</time>
      </trkpt>
      <trkpt lat="43.75919" lon="7.12618">
        <ele>511.39999389648</ele>
        <time>2023-08-02T10:57:57.000Z</time>
      </trkpt>
      <trkpt lat="43.75917" lon="7.12618">
        <ele>511.20001220703</ele>
        <time>2023-08-02T10:57:58.000Z</time>
      </trkpt>
      <trkpt lat="43.75916" lon="7.1262">
        <ele>511</ele>
        <time>2023-08-02T10:57:59.000Z</time>
      </trkpt>
      <trkpt lat="43.75914" lon="7.12621">
        <ele>510.39999389648</ele>
        <time>2023-08-02T10:58:00.000Z</time>
      </trkpt>
      <trkpt lat="43.75912" lon="7.12622">
        <ele>510</ele>
        <time>2023-08-02T10:58:01.000Z</time>
      </trkpt>
      <trkpt lat="43.75911" lon="7.12623">
        <ele>509.60000610352</ele>
        <time>2023-08-02T10:58:02.000Z</time>
      </trkpt>
      <trkpt lat="43.7591" lon="7.12623">
        <ele>509.20001220703</ele>
        <time>2023-08-02T10:58:03.000Z</time>
      </trkpt>
      <trkpt lat="43.75908" lon="7.12623">
        <ele>509.20001220703</ele>
        <time>2023-08-02T10:58:04.000Z</time>
      </trkpt>
      <trkpt lat="43.75907" lon="7.12624">
        <ele>509.20001220703</ele>
        <time>2023-08-02T10:58:05.000Z</time>
      </trkpt>
      <trkpt lat="43.75905" lon="7.12625">
        <ele>508.79998779297</ele>
        <time>2023-08-02T10:58:06.000Z</time>
      </trkpt>
      <trkpt lat="43.75903" lon="7.12625">
        <ele>508.20001220703</ele>
        <time>2023-08-02T10:58:07.000Z</time>
      </trkpt>
      <trkpt lat="43.75901" lon="7.12623">
        <ele>507.79998779297</ele>
        <time>2023-08-02T10:58:08.000Z</time>
      </trkpt>
      <trkpt lat="43.759" lon="7.12622">
        <ele>507.39999389648</ele>
        <time>2023-08-02T10:58:09.000Z</time>
      </trkpt>
      <trkpt lat="43.75897" lon="7.12622">
        <ele>507.20001220703</ele>
        <time>2023-08-02T10:58:10.000Z</time>
      </trkpt>
      <trkpt lat="43.75895" lon="7.12622">
        <ele>506.60000610352</ele>
        <time>2023-08-02T10:58:11.000Z</time>
      </trkpt>
      <trkpt lat="43.75893" lon="7.12623">
        <ele>506</ele>
        <time>2023-08-02T10:58:12.000Z</time>
      </trkpt>
      <trkpt lat="43.75891" lon="7.12623">
        <ele>505.60000610352</ele>
        <time>2023-08-02T10:58:13.000Z</time>
      </trkpt>
      <trkpt lat="43.7589" lon="7.12624">
        <ele>504.79998779297</ele>
        <time>2023-08-02T10:58:14.000Z</time>
      </trkpt>
      <trkpt lat="43.75889" lon="7.12625">
        <ele>504.60000610352</ele>
        <time>2023-08-02T10:58:15.000Z</time>
      </trkpt>
      <trkpt lat="43.75887" lon="7.12625">
        <ele>504.39999389648</ele>
        <time>2023-08-02T10:58:16.000Z</time>
      </trkpt>
      <trkpt lat="43.75886" lon="7.12623">
        <ele>504</ele>
        <time>2023-08-02T10:58:17.000Z</time>
      </trkpt>
      <trkpt lat="43.75885" lon="7.12622">
        <ele>504</ele>
        <time>2023-08-02T10:58:18.000Z</time>
      </trkpt>
      <trkpt lat="43.75883" lon="7.1262">
        <ele>504</ele>
        <time>2023-08-02T10:58:19.000Z</time>
      </trkpt>
      <trkpt lat="43.75881" lon="7.12618">
        <ele>503.60000610352</ele>
        <time>2023-08-02T10:58:20.000Z</time>
      </trkpt>
      <trkpt lat="43.7588" lon="7.12619">
        <ele>503.39999389648</ele>
        <time>2023-08-02T10:58:21.000Z</time>
      </trkpt>
      <trkpt lat="43.75878" lon="7.12619">
        <ele>503</ele>
        <time>2023-08-02T10:58:22.000Z</time>
      </trkpt>
      <trkpt lat="43.75876" lon="7.12619">
        <ele>502.79998779297</ele>
        <time>2023-08-02T10:58:23.000Z</time>
      </trkpt>
      <trkpt lat="43.75877" lon="7.12619">
        <ele>502.20001220703</ele>
        <time>2023-08-02T10:58:24.000Z</time>
      </trkpt>
      <trkpt lat="43.75876" lon="7.12619">
        <ele>502</ele>
        <time>2023-08-02T10:58:25.000Z</time>
      </trkpt>
      <trkpt lat="43.75876" lon="7.12618">
        <ele>501.79998779297</ele>
        <time>2023-08-02T10:58:26.000Z</time>
      </trkpt>
      <trkpt lat="43.75874" lon="7.12617">
        <ele>501.60000610352</ele>
        <time>2023-08-02T10:58:27.000Z</time>
      </trkpt>
      <trkpt lat="43.75873" lon="7.12618">
        <ele>501.20001220703</ele>
        <time>2023-08-02T10:58:28.000Z</time>
      </trkpt>
      <trkpt lat="43.75872" lon="7.12618">
        <ele>501.20001220703</ele>
        <time>2023-08-02T10:58:29.000Z</time>
      </trkpt>
      <trkpt lat="43.7587" lon="7.12619">
        <ele>501</ele>
        <time>2023-08-02T10:58:30.000Z</time>
      </trkpt>
      <trkpt lat="43.75869" lon="7.12619">
        <ele>500.79998779297</ele>
        <time>2023-08-02T10:58:31.000Z</time>
      </trkpt>
      <trkpt lat="43.75868" lon="7.12618">
        <ele>500.60000610352</ele>
        <time>2023-08-02T10:58:32.000Z</time>
      </trkpt>
      <trkpt lat="43.75866" lon="7.12618">
        <ele>500.39999389648</ele>
        <time>2023-08-02T10:58:33.000Z</time>
      </trkpt>
      <trkpt lat="43.75865" lon="7.12619">
        <ele>500</ele>
        <time>2023-08-02T10:58:34.000Z</time>
      </trkpt>
      <trkpt lat="43.75863" lon="7.12619">
        <ele>499.79998779297</ele>
        <time>2023-08-02T10:58:35.000Z</time>
      </trkpt>
      <trkpt lat="43.75861" lon="7.12619">
        <ele>499.39999389648</ele>
        <time>2023-08-02T10:58:36.000Z</time>
      </trkpt>
      <trkpt lat="43.75859" lon="7.1262">
        <ele>499</ele>
        <time>2023-08-02T10:58:37.000Z</time>
      </trkpt>
      <trkpt lat="43.75857" lon="7.12619">
        <ele>499</ele>
        <time>2023-08-02T10:58:38.000Z</time>
      </trkpt>
      <trkpt lat="43.75855" lon="7.12619">
        <ele>498.39999389648</ele>
        <time>2023-08-02T10:58:39.000Z</time>
      </trkpt>
      <trkpt lat="43.75854" lon="7.12618">
        <ele>498</ele>
        <time>2023-08-02T10:58:40.000Z</time>
      </trkpt>
      <trkpt lat="43.75853" lon="7.12618">
        <ele>497.60000610352</ele>
        <time>2023-08-02T10:58:41.000Z</time>
      </trkpt>
      <trkpt lat="43.75852" lon="7.12618">
        <ele>497.20001220703</ele>
        <time>2023-08-02T10:58:42.000Z</time>
      </trkpt>
      <trkpt lat="43.7585" lon="7.12619">
        <ele>497</ele>
        <time>2023-08-02T10:58:43.000Z</time>
      </trkpt>
      <trkpt lat="43.75849" lon="7.1262">
        <ele>496.79998779297</ele>
        <time>2023-08-02T10:58:44.000Z</time>
      </trkpt>
      <trkpt lat="43.75847" lon="7.12621">
        <ele>496.39999389648</ele>
        <time>2023-08-02T10:58:45.000Z</time>
      </trkpt>
      <trkpt lat="43.75845" lon="7.12623">
        <ele>496.20001220703</ele>
        <time>2023-08-02T10:58:46.000Z</time>
      </trkpt>
      <trkpt lat="43.75843" lon="7.12623">
        <ele>495.60000610352</ele>
        <time>2023-08-02T10:58:47.000Z</time>
      </trkpt>
      <trkpt lat="43.75842" lon="7.12624">
        <ele>495.39999389648</ele>
        <time>2023-08-02T10:58:48.000Z</time>
      </trkpt>
      <trkpt lat="43.7584" lon="7.12625">
        <ele>494.79998779297</ele>
        <time>2023-08-02T10:58:49.000Z</time>
      </trkpt>
      <trkpt lat="43.75839" lon="7.12625">
        <ele>494.20001220703</ele>
        <time>2023-08-02T10:58:50.000Z</time>
      </trkpt>
      <trkpt lat="43.75836" lon="7.12625">
        <ele>494</ele>
        <time>2023-08-02T10:58:51.000Z</time>
      </trkpt>
      <trkpt lat="43.75835" lon="7.12626">
        <ele>493.60000610352</ele>
        <time>2023-08-02T10:58:52.000Z</time>
      </trkpt>
      <trkpt lat="43.75834" lon="7.12629">
        <ele>493.60000610352</ele>
        <time>2023-08-02T10:58:53.000Z</time>
      </trkpt>
      <trkpt lat="43.75832" lon="7.12632">
        <ele>493</ele>
        <time>2023-08-02T10:58:54.000Z</time>
      </trkpt>
      <trkpt lat="43.7583" lon="7.12634">
        <ele>492.79998779297</ele>
        <time>2023-08-02T10:58:55.000Z</time>
      </trkpt>
      <trkpt lat="43.75828" lon="7.12637">
        <ele>492.20001220703</ele>
        <time>2023-08-02T10:58:56.000Z</time>
      </trkpt>
      <trkpt lat="43.75827" lon="7.12642">
        <ele>492.20001220703</ele>
        <time>2023-08-02T10:58:57.000Z</time>
      </trkpt>
      <trkpt lat="43.75826" lon="7.12644">
        <ele>491.60000610352</ele>
        <time>2023-08-02T10:58:58.000Z</time>
      </trkpt>
      <trkpt lat="43.75824" lon="7.12646">
        <ele>491</ele>
        <time>2023-08-02T10:58:59.000Z</time>
      </trkpt>
      <trkpt lat="43.75821" lon="7.12645">
        <ele>490.20001220703</ele>
        <time>2023-08-02T10:59:00.000Z</time>
      </trkpt>
      <trkpt lat="43.75818" lon="7.12645">
        <ele>489.79998779297</ele>
        <time>2023-08-02T10:59:01.000Z</time>
      </trkpt>
      <trkpt lat="43.75816" lon="7.12643">
        <ele>489.79998779297</ele>
        <time>2023-08-02T10:59:02.000Z</time>
      </trkpt>
      <trkpt lat="43.75813" lon="7.12641">
        <ele>489.60000610352</ele>
        <time>2023-08-02T10:59:03.000Z</time>
      </trkpt>
      <trkpt lat="43.75811" lon="7.12641">
        <ele>489</ele>
        <time>2023-08-02T10:59:04.000Z</time>
      </trkpt>
      <trkpt lat="43.75809" lon="7.12641">
        <ele>488.60000610352</ele>
        <time>2023-08-02T10:59:05.000Z</time>
      </trkpt>
      <trkpt lat="43.75807" lon="7.12641">
        <ele>487.79998779297</ele>
        <time>2023-08-02T10:59:06.000Z</time>
      </trkpt>
      <trkpt lat="43.75805" lon="7.12641">
        <ele>487.79998779297</ele>
        <time>2023-08-02T10:59:07.000Z</time>
      </trkpt>
      <trkpt lat="43.75804" lon="7.1264">
        <ele>487.20001220703</ele>
        <time>2023-08-02T10:59:08.000Z</time>
      </trkpt>
      <trkpt lat="43.75803" lon="7.12638">
        <ele>486.79998779297</ele>
        <time>2023-08-02T10:59:09.000Z</time>
      </trkpt>
      <trkpt lat="43.75801" lon="7.12639">
        <ele>486</ele>
        <time>2023-08-02T10:59:10.000Z</time>
      </trkpt>
      <trkpt lat="43.75799" lon="7.1264">
        <ele>485.60000610352</ele>
        <time>2023-08-02T10:59:11.000Z</time>
      </trkpt>
      <trkpt lat="43.75797" lon="7.1264">
        <ele>485</ele>
        <time>2023-08-02T10:59:12.000Z</time>
      </trkpt>
      <trkpt lat="43.75794" lon="7.12639">
        <ele>484.79998779297</ele>
        <time>2023-08-02T10:59:13.000Z</time>
      </trkpt>
      <trkpt lat="43.75791" lon="7.12638">
        <ele>484.39999389648</ele>
        <time>2023-08-02T10:59:14.000Z</time>
      </trkpt>
      <trkpt lat="43.75789" lon="7.12637">
        <ele>483.79998779297</ele>
        <time>2023-08-02T10:59:15.000Z</time>
      </trkpt>
      <trkpt lat="43.75786" lon="7.12637">
        <ele>483</ele>
        <time>2023-08-02T10:59:16.000Z</time>
      </trkpt>
      <trkpt lat="43.75784" lon="7.12638">
        <ele>483</ele>
        <time>2023-08-02T10:59:17.000Z</time>
      </trkpt>
      <trkpt lat="43.75782" lon="7.12639">
        <ele>482.39999389648</ele>
        <time>2023-08-02T10:59:18.000Z</time>
      </trkpt>
      <trkpt lat="43.7578" lon="7.12638">
        <ele>481.79998779297</ele>
        <time>2023-08-02T10:59:19.000Z</time>
      </trkpt>
      <trkpt lat="43.75778" lon="7.12637">
        <ele>481.39999389648</ele>
        <time>2023-08-02T10:59:20.000Z</time>
      </trkpt>
      <trkpt lat="43.75776" lon="7.12636">
        <ele>480.79998779297</ele>
        <time>2023-08-02T10:59:21.000Z</time>
      </trkpt>
      <trkpt lat="43.75774" lon="7.12636">
        <ele>480.20001220703</ele>
        <time>2023-08-02T10:59:22.000Z</time>
      </trkpt>
      <trkpt lat="43.75772" lon="7.12636">
        <ele>480</ele>
        <time>2023-08-02T10:59:23.000Z</time>
      </trkpt>
      <trkpt lat="43.7577" lon="7.12637">
        <ele>479.39999389648</ele>
        <time>2023-08-02T10:59:24.000Z</time>
      </trkpt>
      <trkpt lat="43.75768" lon="7.12636">
        <ele>479</ele>
        <time>2023-08-02T10:59:25.000Z</time>
      </trkpt>
      <trkpt lat="43.75766" lon="7.12635">
        <ele>478.20001220703</ele>
        <time>2023-08-02T10:59:26.000Z</time>
      </trkpt>
      <trkpt lat="43.75764" lon="7.12636">
        <ele>478</ele>
        <time>2023-08-02T10:59:27.000Z</time>
      </trkpt>
      <trkpt lat="43.75763" lon="7.12636">
        <ele>477.39999389648</ele>
        <time>2023-08-02T10:59:28.000Z</time>
      </trkpt>
      <trkpt lat="43.75761" lon="7.12637">
        <ele>477.20001220703</ele>
        <time>2023-08-02T10:59:29.000Z</time>
      </trkpt>
      <trkpt lat="43.7576" lon="7.12636">
        <ele>476.39999389648</ele>
        <time>2023-08-02T10:59:30.000Z</time>
      </trkpt>
      <trkpt lat="43.75759" lon="7.12634">
        <ele>476.39999389648</ele>
        <time>2023-08-02T10:59:31.000Z</time>
      </trkpt>
      <trkpt lat="43.75759" lon="7.12633">
        <ele>475.79998779297</ele>
        <time>2023-08-02T10:59:32.000Z</time>
      </trkpt>
      <trkpt lat="43.75759" lon="7.12632">
        <ele>475.79998779297</ele>
        <time>2023-08-02T10:59:33.000Z</time>
      </trkpt>
      <trkpt lat="43.7576" lon="7.12631">
        <ele>475.39999389648</ele>
        <time>2023-08-02T10:59:34.000Z</time>
      </trkpt>
      <trkpt lat="43.7576" lon="7.12631">
        <ele>475.20001220703</ele>
        <time>2023-08-02T10:59:35.000Z</time>
      </trkpt>
      <trkpt lat="43.75761" lon="7.1263">
        <ele>474.79998779297</ele>
        <time>2023-08-02T10:59:36.000Z</time>
      </trkpt>
      <trkpt lat="43.75762" lon="7.12629">
        <ele>474.79998779297</ele>
        <time>2023-08-02T10:59:37.000Z</time>
      </trkpt>
      <trkpt lat="43.75763" lon="7.12627">
        <ele>474.60000610352</ele>
        <time>2023-08-02T10:59:38.000Z</time>
      </trkpt>
      <trkpt lat="43.75764" lon="7.12625">
        <ele>474.60000610352</ele>
        <time>2023-08-02T10:59:39.000Z</time>
      </trkpt>
      <trkpt lat="43.75763" lon="7.12625">
        <ele>474.20001220703</ele>
        <time>2023-08-02T10:59:40.000Z</time>
      </trkpt>
      <trkpt lat="43.75763" lon="7.12625">
        <ele>473.60000610352</ele>
        <time>2023-08-02T10:59:41.000Z</time>
      </trkpt>
      <trkpt lat="43.75763" lon="7.12625">
        <ele>473.60000610352</ele>
        <time>2023-08-02T10:59:42.000Z</time>
      </trkpt>
      <trkpt lat="43.75763" lon="7.12624">
        <ele>473.39999389648</ele>
        <time>2023-08-02T10:59:43.000Z</time>
      </trkpt>
      <trkpt lat="43.75764" lon="7.12623">
        <ele>473.20001220703</ele>
        <time>2023-08-02T10:59:44.000Z</time>
      </trkpt>
      <trkpt lat="43.75764" lon="7.12622">
        <ele>473.20001220703</ele>
        <time>2023-08-02T10:59:45.000Z</time>
      </trkpt>
      <trkpt lat="43.75764" lon="7.12622">
        <ele>473</ele>
        <time>2023-08-02T10:59:46.000Z</time>
      </trkpt>
      <trkpt lat="43.75764" lon="7.12621">
        <ele>473</ele>
        <time>2023-08-02T10:59:47.000Z</time>
      </trkpt>
      <trkpt lat="43.75763" lon="7.12621">
        <ele>472.79998779297</ele>
        <time>2023-08-02T10:59:48.000Z</time>
      </trkpt>
      <trkpt lat="43.75761" lon="7.12621">
        <ele>472.60000610352</ele>
        <time>2023-08-02T10:59:49.000Z</time>
      </trkpt>
      <trkpt lat="43.75759" lon="7.1262">
        <ele>472.60000610352</ele>
        <time>2023-08-02T10:59:50.000Z</time>
      </trkpt>
      <trkpt lat="43.75757" lon="7.1262">
        <ele>472.39999389648</ele>
        <time>2023-08-02T10:59:51.000Z</time>
      </trkpt>
      <trkpt lat="43.75755" lon="7.1262">
        <ele>472</ele>
        <time>2023-08-02T10:59:52.000Z</time>
      </trkpt>
      <trkpt lat="43.75753" lon="7.12619">
        <ele>471.39999389648</ele>
        <time>2023-08-02T10:59:53.000Z</time>
      </trkpt>
      <trkpt lat="43.75752" lon="7.12619">
        <ele>471</ele>
        <time>2023-08-02T10:59:54.000Z</time>
      </trkpt>
      <trkpt lat="43.7575" lon="7.12619">
        <ele>470.79998779297</ele>
        <time>2023-08-02T10:59:55.000Z</time>
      </trkpt>
      <trkpt lat="43.75749" lon="7.1262">
        <ele>470.39999389648</ele>
        <time>2023-08-02T10:59:56.000Z</time>
      </trkpt>
      <trkpt lat="43.75747" lon="7.12619">
        <ele>470.20001220703</ele>
        <time>2023-08-02T10:59:57.000Z</time>
      </trkpt>
      <trkpt lat="43.75748" lon="7.12617">
        <ele>469.60000610352</ele>
        <time>2023-08-02T10:59:58.000Z</time>
      </trkpt>
      <trkpt lat="43.75749" lon="7.12615">
        <ele>469.60000610352</ele>
        <time>2023-08-02T10:59:59.000Z</time>
      </trkpt>
      <trkpt lat="43.7575" lon="7.12614">
        <ele>469</ele>
        <time>2023-08-02T11:00:00.000Z</time>
      </trkpt>
      <trkpt lat="43.75752" lon="7.12613">
        <ele>469</ele>
        <time>2023-08-02T11:00:01.000Z</time>
      </trkpt>
      <trkpt lat="43.75755" lon="7.1261">
        <ele>468.60000610352</ele>
        <time>2023-08-02T11:00:02.000Z</time>
      </trkpt>
      <trkpt lat="43.75757" lon="7.12607">
        <ele>468.39999389648</ele>
        <time>2023-08-02T11:00:03.000Z</time>
      </trkpt>
      <trkpt lat="43.75759" lon="7.12605">
        <ele>468.20001220703</ele>
        <time>2023-08-02T11:00:04.000Z</time>
      </trkpt>
      <trkpt lat="43.7576" lon="7.12604">
        <ele>467.20001220703</ele>
        <time>2023-08-02T11:00:05.000Z</time>
      </trkpt>
      <trkpt lat="43.75762" lon="7.12604">
        <ele>467.20001220703</ele>
        <time>2023-08-02T11:00:06.000Z</time>
      </trkpt>
      <trkpt lat="43.75764" lon="7.12603">
        <ele>467.20001220703</ele>
        <time>2023-08-02T11:00:07.000Z</time>
      </trkpt>
      <trkpt lat="43.75765" lon="7.12601">
        <ele>466.60000610352</ele>
        <time>2023-08-02T11:00:08.000Z</time>
      </trkpt>
      <trkpt lat="43.75765" lon="7.12599">
        <ele>466</ele>
        <time>2023-08-02T11:00:09.000Z</time>
      </trkpt>
      <trkpt lat="43.75766" lon="7.12597">
        <ele>466</ele>
        <time>2023-08-02T11:00:10.000Z</time>
      </trkpt>
      <trkpt lat="43.75767" lon="7.12596">
        <ele>465.60000610352</ele>
        <time>2023-08-02T11:00:11.000Z</time>
      </trkpt>
      <trkpt lat="43.75769" lon="7.12594">
        <ele>465</ele>
        <time>2023-08-02T11:00:12.000Z</time>
      </trkpt>
      <trkpt lat="43.7577" lon="7.12594">
        <ele>464.79998779297</ele>
        <time>2023-08-02T11:00:13.000Z</time>
      </trkpt>
      <trkpt lat="43.75771" lon="7.12593">
        <ele>464.39999389648</ele>
        <time>2023-08-02T11:00:14.000Z</time>
      </trkpt>
      <trkpt lat="43.75771" lon="7.12593">
        <ele>464</ele>
        <time>2023-08-02T11:00:15.000Z</time>
      </trkpt>
      <trkpt lat="43.75772" lon="7.12591">
        <ele>463.60000610352</ele>
        <time>2023-08-02T11:00:16.000Z</time>
      </trkpt>
      <trkpt lat="43.75771" lon="7.1259">
        <ele>463.39999389648</ele>
        <time>2023-08-02T11:00:17.000Z</time>
      </trkpt>
      <trkpt lat="43.75771" lon="7.12589">
        <ele>463.20001220703</ele>
        <time>2023-08-02T11:00:18.000Z</time>
      </trkpt>
      <trkpt lat="43.75771" lon="7.12588">
        <ele>463</ele>
        <time>2023-08-02T11:00:19.000Z</time>
      </trkpt>
      <trkpt lat="43.75772" lon="7.12587">
        <ele>462.79998779297</ele>
        <time>2023-08-02T11:00:20.000Z</time>
      </trkpt>
      <trkpt lat="43.75773" lon="7.12586">
        <ele>462.60000610352</ele>
        <time>2023-08-02T11:00:21.000Z</time>
      </trkpt>
      <trkpt lat="43.75774" lon="7.12585">
        <ele>462.60000610352</ele>
        <time>2023-08-02T11:00:22.000Z</time>
      </trkpt>
      <trkpt lat="43.75776" lon="7.12584">
        <ele>462.20001220703</ele>
        <time>2023-08-02T11:00:23.000Z</time>
      </trkpt>
      <trkpt lat="43.75777" lon="7.12581">
        <ele>461.79998779297</ele>
        <time>2023-08-02T11:00:24.000Z</time>
      </trkpt>
      <trkpt lat="43.75778" lon="7.12579">
        <ele>461.79998779297</ele>
        <time>2023-08-02T11:00:25.000Z</time>
      </trkpt>
      <trkpt lat="43.75778" lon="7.12577">
        <ele>461.39999389648</ele>
        <time>2023-08-02T11:00:26.000Z</time>
      </trkpt>
      <trkpt lat="43.75777" lon="7.12577">
        <ele>461.20001220703</ele>
        <time>2023-08-02T11:00:27.000Z</time>
      </trkpt>
      <trkpt lat="43.75776" lon="7.12577">
        <ele>460.79998779297</ele>
        <time>2023-08-02T11:00:28.000Z</time>
      </trkpt>
      <trkpt lat="43.75775" lon="7.12579">
        <ele>460.39999389648</ele>
        <time>2023-08-02T11:00:29.000Z</time>
      </trkpt>
      <trkpt lat="43.75774" lon="7.1258">
        <ele>460.20001220703</ele>
        <time>2023-08-02T11:00:30.000Z</time>
      </trkpt>
      <trkpt lat="43.75774" lon="7.1258">
        <ele>460.20001220703</ele>
        <time>2023-08-02T11:00:31.000Z</time>
      </trkpt>
      <trkpt lat="43.75773" lon="7.12579">
        <ele>460</ele>
        <time>2023-08-02T11:00:32.000Z</time>
      </trkpt>
      <trkpt lat="43.75773" lon="7.12578">
        <ele>459.60000610352</ele>
        <time>2023-08-02T11:00:33.000Z</time>
      </trkpt>
      <trkpt lat="43.75773" lon="7.12577">
        <ele>459.39999389648</ele>
        <time>2023-08-02T11:00:34.000Z</time>
      </trkpt>
      <trkpt lat="43.75772" lon="7.12575">
        <ele>459.20001220703</ele>
        <time>2023-08-02T11:00:35.000Z</time>
      </trkpt>
      <trkpt lat="43.75772" lon="7.12574">
        <ele>459</ele>
        <time>2023-08-02T11:00:36.000Z</time>
      </trkpt>
      <trkpt lat="43.75773" lon="7.12573">
        <ele>459</ele>
        <time>2023-08-02T11:00:37.000Z</time>
      </trkpt>
      <trkpt lat="43.75772" lon="7.12573">
        <ele>458.79998779297</ele>
        <time>2023-08-02T11:00:38.000Z</time>
      </trkpt>
      <trkpt lat="43.75772" lon="7.12573">
        <ele>458.60000610352</ele>
        <time>2023-08-02T11:00:39.000Z</time>
      </trkpt>
      <trkpt lat="43.75772" lon="7.12573">
        <ele>458.39999389648</ele>
        <time>2023-08-02T11:00:40.000Z</time>
      </trkpt>
      <trkpt lat="43.75772" lon="7.12573">
        <ele>458</ele>
        <time>2023-08-02T11:00:41.000Z</time>
      </trkpt>
      <trkpt lat="43.75772" lon="7.12573">
        <ele>458</ele>
        <time>2023-08-02T11:00:42.000Z</time>
      </trkpt>
      <trkpt lat="43.75773" lon="7.12573">
        <ele>457.79998779297</ele>
        <time>2023-08-02T11:00:43.000Z</time>
      </trkpt>
      <trkpt lat="43.75773" lon="7.12572">
        <ele>457.79998779297</ele>
        <time>2023-08-02T11:00:44.000Z</time>
      </trkpt>
      <trkpt lat="43.75774" lon="7.12571">
        <ele>457.79998779297</ele>
        <time>2023-08-02T11:00:45.000Z</time>
      </trkpt>
      <trkpt lat="43.75774" lon="7.1257">
        <ele>457.79998779297</ele>
        <time>2023-08-02T11:00:46.000Z</time>
      </trkpt>
      <trkpt lat="43.75774" lon="7.12569">
        <ele>457.79998779297</ele>
        <time>2023-08-02T11:00:47.000Z</time>
      </trkpt>
      <trkpt lat="43.75774" lon="7.12567">
        <ele>457.60000610352</ele>
        <time>2023-08-02T11:00:48.000Z</time>
      </trkpt>
      <trkpt lat="43.75773" lon="7.12567">
        <ele>457.39999389648</ele>
        <time>2023-08-02T11:00:49.000Z</time>
      </trkpt>
      <trkpt lat="43.75773" lon="7.12566">
        <ele>457.20001220703</ele>
        <time>2023-08-02T11:00:50.000Z</time>
      </trkpt>
      <trkpt lat="43.75772" lon="7.12567">
        <ele>457</ele>
        <time>2023-08-02T11:00:51.000Z</time>
      </trkpt>
      <trkpt lat="43.75771" lon="7.12567">
        <ele>456.79998779297</ele>
        <time>2023-08-02T11:00:52.000Z</time>
      </trkpt>
      <trkpt lat="43.7577" lon="7.12568">
        <ele>456.60000610352</ele>
        <time>2023-08-02T11:00:53.000Z</time>
      </trkpt>
      <trkpt lat="43.7577" lon="7.12568">
        <ele>456.39999389648</ele>
        <time>2023-08-02T11:00:54.000Z</time>
      </trkpt>
      <trkpt lat="43.75769" lon="7.12568">
        <ele>456</ele>
        <time>2023-08-02T11:00:55.000Z</time>
      </trkpt>
      <trkpt lat="43.75769" lon="7.12568">
        <ele>456</ele>
        <time>2023-08-02T11:00:56.000Z</time>
      </trkpt>
      <trkpt lat="43.75769" lon="7.12568">
        <ele>455.79998779297</ele>
        <time>2023-08-02T11:00:57.000Z</time>
      </trkpt>
      <trkpt lat="43.7577" lon="7.12569">
        <ele>455.60000610352</ele>
        <time>2023-08-02T11:00:58.000Z</time>
      </trkpt>
      <trkpt lat="43.7577" lon="7.12569">
        <ele>455.39999389648</ele>
        <time>2023-08-02T11:00:59.000Z</time>
      </trkpt>
      <trkpt lat="43.75769" lon="7.12569">
        <ele>455.20001220703</ele>
        <time>2023-08-02T11:01:00.000Z</time>
      </trkpt>
      <trkpt lat="43.75769" lon="7.12569">
        <ele>455</ele>
        <time>2023-08-02T11:01:01.000Z</time>
      </trkpt>
      <trkpt lat="43.75768" lon="7.12569">
        <ele>455</ele>
        <time>2023-08-02T11:01:02.000Z</time>
      </trkpt>
      <trkpt lat="43.75768" lon="7.12569">
        <ele>455</ele>
        <time>2023-08-02T11:01:03.000Z</time>
      </trkpt>
      <trkpt lat="43.75768" lon="7.12569">
        <ele>454.79998779297</ele>
        <time>2023-08-02T11:01:04.000Z</time>
      </trkpt>
      <trkpt lat="43.75767" lon="7.12568">
        <ele>454.79998779297</ele>
        <time>2023-08-02T11:01:05.000Z</time>
      </trkpt>
      <trkpt lat="43.75766" lon="7.12567">
        <ele>454.79998779297</ele>
        <time>2023-08-02T11:01:06.000Z</time>
      </trkpt>
      <trkpt lat="43.75766" lon="7.12566">
        <ele>454.79998779297</ele>
        <time>2023-08-02T11:01:07.000Z</time>
      </trkpt>
      <trkpt lat="43.75766" lon="7.12566">
        <ele>454.79998779297</ele>
        <time>2023-08-02T11:01:08.000Z</time>
      </trkpt>
      <trkpt lat="43.75766" lon="7.12566">
        <ele>454.39999389648</ele>
        <time>2023-08-02T11:01:09.000Z</time>
      </trkpt>
      <trkpt lat="43.75766" lon="7.12566">
        <ele>454</ele>
        <time>2023-08-02T11:01:10.000Z</time>
      </trkpt>
      <trkpt lat="43.75766" lon="7.12566">
        <ele>453.79998779297</ele>
        <time>2023-08-02T11:01:11.000Z</time>
      </trkpt>
      <trkpt lat="43.75765" lon="7.12564">
        <ele>453.79998779297</ele>
        <time>2023-08-02T11:01:12.000Z</time>
      </trkpt>
      <trkpt lat="43.75765" lon="7.12563">
        <ele>453.60000610352</ele>
        <time>2023-08-02T11:01:13.000Z</time>
      </trkpt>
      <trkpt lat="43.75765" lon="7.12562">
        <ele>453.39999389648</ele>
        <time>2023-08-02T11:01:14.000Z</time>
      </trkpt>
      <trkpt lat="43.75764" lon="7.12561">
        <ele>453.39999389648</ele>
        <time>2023-08-02T11:01:15.000Z</time>
      </trkpt>
      <trkpt lat="43.75764" lon="7.12561">
        <ele>453.20001220703</ele>
        <time>2023-08-02T11:01:16.000Z</time>
      </trkpt>
      <trkpt lat="43.75763" lon="7.12561">
        <ele>453</ele>
        <time>2023-08-02T11:01:17.000Z</time>
      </trkpt>
      <trkpt lat="43.75763" lon="7.1256">
        <ele>452.79998779297</ele>
        <time>2023-08-02T11:01:18.000Z</time>
      </trkpt>
      <trkpt lat="43.75762" lon="7.1256">
        <ele>452.60000610352</ele>
        <time>2023-08-02T11:01:19.000Z</time>
      </trkpt>
      <trkpt lat="43.75761" lon="7.1256">
        <ele>452.60000610352</ele>
        <time>2023-08-02T11:01:20.000Z</time>
      </trkpt>
      <trkpt lat="43.7576" lon="7.12559">
        <ele>452.60000610352</ele>
        <time>2023-08-02T11:01:21.000Z</time>
      </trkpt>
      <trkpt lat="43.7576" lon="7.12559">
        <ele>452.39999389648</ele>
        <time>2023-08-02T11:01:22.000Z</time>
      </trkpt>
      <trkpt lat="43.75761" lon="7.1256">
        <ele>452.39999389648</ele>
        <time>2023-08-02T11:01:23.000Z</time>
      </trkpt>
      <trkpt lat="43.75761" lon="7.12561">
        <ele>452</ele>
        <time>2023-08-02T11:01:24.000Z</time>
      </trkpt>
      <trkpt lat="43.75761" lon="7.1256">
        <ele>451.39999389648</ele>
        <time>2023-08-02T11:01:25.000Z</time>
      </trkpt>
      <trkpt lat="43.75762" lon="7.12561">
        <ele>451.39999389648</ele>
        <time>2023-08-02T11:01:26.000Z</time>
      </trkpt>
      <trkpt lat="43.75762" lon="7.12562">
        <ele>451.20001220703</ele>
        <time>2023-08-02T11:01:27.000Z</time>
      </trkpt>
      <trkpt lat="43.75762" lon="7.12564">
        <ele>451</ele>
        <time>2023-08-02T11:01:28.000Z</time>
      </trkpt>
      <trkpt lat="43.75762" lon="7.12565">
        <ele>451</ele>
        <time>2023-08-02T11:01:29.000Z</time>
      </trkpt>
      <trkpt lat="43.75761" lon="7.12566">
        <ele>450.79998779297</ele>
        <time>2023-08-02T11:01:30.000Z</time>
      </trkpt>
      <trkpt lat="43.7576" lon="7.12567">
        <ele>450.60000610352</ele>
        <time>2023-08-02T11:01:31.000Z</time>
      </trkpt>
      <trkpt lat="43.75759" lon="7.12569">
        <ele>450.60000610352</ele>
        <time>2023-08-02T11:01:32.000Z</time>
      </trkpt>
      <trkpt lat="43.75759" lon="7.12571">
        <ele>450.39999389648</ele>
        <time>2023-08-02T11:01:33.000Z</time>
      </trkpt>
      <trkpt lat="43.75758" lon="7.12572">
        <ele>450.39999389648</ele>
        <time>2023-08-02T11:01:34.000Z</time>
      </trkpt>
      <trkpt lat="43.75757" lon="7.12573">
        <ele>450.20001220703</ele>
        <time>2023-08-02T11:01:35.000Z</time>
      </trkpt>
      <trkpt lat="43.75755" lon="7.12575">
        <ele>450</ele>
        <time>2023-08-02T11:01:36.000Z</time>
      </trkpt>
      <trkpt lat="43.75753" lon="7.12577">
        <ele>449.39999389648</ele>
        <time>2023-08-02T11:01:37.000Z</time>
      </trkpt>
      <trkpt lat="43.7575" lon="7.12578">
        <ele>449</ele>
        <time>2023-08-02T11:01:38.000Z</time>
      </trkpt>
      <trkpt lat="43.75748" lon="7.1258">
        <ele>448.60000610352</ele>
        <time>2023-08-02T11:01:39.000Z</time>
      </trkpt>
      <trkpt lat="43.75745" lon="7.12581">
        <ele>448</ele>
        <time>2023-08-02T11:01:40.000Z</time>
      </trkpt>
      <trkpt lat="43.75744" lon="7.12582">
        <ele>447.39999389648</ele>
        <time>2023-08-02T11:01:41.000Z</time>
      </trkpt>
      <trkpt lat="43.75742" lon="7.12583">
        <ele>447.20001220703</ele>
        <time>2023-08-02T11:01:42.000Z</time>
      </trkpt>
      <trkpt lat="43.75742" lon="7.12583">
        <ele>446.79998779297</ele>
        <time>2023-08-02T11:01:43.000Z</time>
      </trkpt>
      <trkpt lat="43.75741" lon="7.12583">
        <ele>446.39999389648</ele>
        <time>2023-08-02T11:01:44.000Z</time>
      </trkpt>
      <trkpt lat="43.7574" lon="7.12582">
        <ele>446.20001220703</ele>
        <time>2023-08-02T11:01:45.000Z</time>
      </trkpt>
      <trkpt lat="43.75739" lon="7.12582">
        <ele>446.20001220703</ele>
        <time>2023-08-02T11:01:46.000Z</time>
      </trkpt>
      <trkpt lat="43.75738" lon="7.12582">
        <ele>446.20001220703</ele>
        <time>2023-08-02T11:01:47.000Z</time>
      </trkpt>
      <trkpt lat="43.75736" lon="7.12581">
        <ele>446</ele>
        <time>2023-08-02T11:01:48.000Z</time>
      </trkpt>
      <trkpt lat="43.75736" lon="7.12581">
        <ele>446</ele>
        <time>2023-08-02T11:01:49.000Z</time>
      </trkpt>
      <trkpt lat="43.75736" lon="7.12581">
        <ele>445.39999389648</ele>
        <time>2023-08-02T11:01:50.000Z</time>
      </trkpt>
      <trkpt lat="43.75736" lon="7.1258">
        <ele>445.20001220703</ele>
        <time>2023-08-02T11:01:51.000Z</time>
      </trkpt>
      <trkpt lat="43.75736" lon="7.12579">
        <ele>444.60000610352</ele>
        <time>2023-08-02T11:01:52.000Z</time>
      </trkpt>
      <trkpt lat="43.75736" lon="7.12577">
        <ele>444.20001220703</ele>
        <time>2023-08-02T11:01:53.000Z</time>
      </trkpt>
      <trkpt lat="43.75735" lon="7.12575">
        <ele>444</ele>
        <time>2023-08-02T11:01:54.000Z</time>
      </trkpt>
      <trkpt lat="43.75734" lon="7.12575">
        <ele>443.79998779297</ele>
        <time>2023-08-02T11:01:55.000Z</time>
      </trkpt>
      <trkpt lat="43.75734" lon="7.12576">
        <ele>443.79998779297</ele>
        <time>2023-08-02T11:01:56.000Z</time>
      </trkpt>
      <trkpt lat="43.75733" lon="7.12576">
        <ele>443</ele>
        <time>2023-08-02T11:01:57.000Z</time>
      </trkpt>
      <trkpt lat="43.75732" lon="7.12577">
        <ele>442.60000610352</ele>
        <time>2023-08-02T11:01:58.000Z</time>
      </trkpt>
      <trkpt lat="43.7573" lon="7.12577">
        <ele>442.39999389648</ele>
        <time>2023-08-02T11:01:59.000Z</time>
      </trkpt>
      <trkpt lat="43.75728" lon="7.12576">
        <ele>442.20001220703</ele>
        <time>2023-08-02T11:02:00.000Z</time>
      </trkpt>
      <trkpt lat="43.75726" lon="7.12576">
        <ele>442.20001220703</ele>
        <time>2023-08-02T11:02:01.000Z</time>
      </trkpt>
      <trkpt lat="43.75724" lon="7.12576">
        <ele>441.79998779297</ele>
        <time>2023-08-02T11:02:02.000Z</time>
      </trkpt>
      <trkpt lat="43.75721" lon="7.12575">
        <ele>441.39999389648</ele>
        <time>2023-08-02T11:02:03.000Z</time>
      </trkpt>
      <trkpt lat="43.75719" lon="7.12575">
        <ele>440.79998779297</ele>
        <time>2023-08-02T11:02:04.000Z</time>
      </trkpt>
      <trkpt lat="43.75716" lon="7.12574">
        <ele>440.60000610352</ele>
        <time>2023-08-02T11:02:05.000Z</time>
      </trkpt>
      <trkpt lat="43.75712" lon="7.12574">
        <ele>440.20001220703</ele>
        <time>2023-08-02T11:02:06.000Z</time>
      </trkpt>
      <trkpt lat="43.75708" lon="7.12575">
        <ele>439.60000610352</ele>
        <time>2023-08-02T11:02:07.000Z</time>
      </trkpt>
      <trkpt lat="43.75704" lon="7.12576">
        <ele>438.60000610352</ele>
        <time>2023-08-02T11:02:08.000Z</time>
      </trkpt>
      <trkpt lat="43.75701" lon="7.12575">
        <ele>438.39999389648</ele>
        <time>2023-08-02T11:02:09.000Z</time>
      </trkpt>
      <trkpt lat="43.75698" lon="7.12574">
        <ele>438.20001220703</ele>
        <time>2023-08-02T11:02:10.000Z</time>
      </trkpt>
      <trkpt lat="43.75695" lon="7.12574">
        <ele>438.20001220703</ele>
        <time>2023-08-02T11:02:11.000Z</time>
      </trkpt>
      <trkpt lat="43.75691" lon="7.12573">
        <ele>437.79998779297</ele>
        <time>2023-08-02T11:02:12.000Z</time>
      </trkpt>
      <trkpt lat="43.75689" lon="7.12572">
        <ele>437.60000610352</ele>
        <time>2023-08-02T11:02:13.000Z</time>
      </trkpt>
      <trkpt lat="43.75686" lon="7.1257">
        <ele>437.39999389648</ele>
        <time>2023-08-02T11:02:14.000Z</time>
      </trkpt>
      <trkpt lat="43.75682" lon="7.12571">
        <ele>436.60000610352</ele>
        <time>2023-08-02T11:02:15.000Z</time>
      </trkpt>
      <trkpt lat="43.75679" lon="7.12574">
        <ele>436.39999389648</ele>
        <time>2023-08-02T11:02:16.000Z</time>
      </trkpt>
      <trkpt lat="43.75677" lon="7.12576">
        <ele>435.60000610352</ele>
        <time>2023-08-02T11:02:17.000Z</time>
      </trkpt>
      <trkpt lat="43.75675" lon="7.12577">
        <ele>435</ele>
        <time>2023-08-02T11:02:18.000Z</time>
      </trkpt>
      <trkpt lat="43.75674" lon="7.12576">
        <ele>435</ele>
        <time>2023-08-02T11:02:19.000Z</time>
      </trkpt>
      <trkpt lat="43.75673" lon="7.12577">
        <ele>435</ele>
        <time>2023-08-02T11:02:20.000Z</time>
      </trkpt>
      <trkpt lat="43.75672" lon="7.12577">
        <ele>435</ele>
        <time>2023-08-02T11:02:21.000Z</time>
      </trkpt>
      <trkpt lat="43.75672" lon="7.12578">
        <ele>434.79998779297</ele>
        <time>2023-08-02T11:02:22.000Z</time>
      </trkpt>
      <trkpt lat="43.75672" lon="7.12577">
        <ele>435</ele>
        <time>2023-08-02T11:02:23.000Z</time>
      </trkpt>
      <trkpt lat="43.75672" lon="7.12577">
        <ele>435</ele>
        <time>2023-08-02T11:02:24.000Z</time>
      </trkpt>
      <trkpt lat="43.75671" lon="7.12577">
        <ele>435</ele>
        <time>2023-08-02T11:02:25.000Z</time>
      </trkpt>
      <trkpt lat="43.75671" lon="7.12577">
        <ele>435</ele>
        <time>2023-08-02T11:02:26.000Z</time>
      </trkpt>
      <trkpt lat="43.75671" lon="7.12577">
        <ele>435</ele>
        <time>2023-08-02T11:02:27.000Z</time>
      </trkpt>
      <trkpt lat="43.75671" lon="7.12578">
        <ele>435</ele>
        <time>2023-08-02T11:02:28.000Z</time>
      </trkpt>
      <trkpt lat="43.7567" lon="7.12578">
        <ele>435</ele>
        <time>2023-08-02T11:02:29.000Z</time>
      </trkpt>
      <trkpt lat="43.75669" lon="7.12578">
        <ele>435</ele>
        <time>2023-08-02T11:02:30.000Z</time>
      </trkpt>
      <trkpt lat="43.75668" lon="7.12578">
        <ele>435</ele>
        <time>2023-08-02T11:02:31.000Z</time>
      </trkpt>
      <trkpt lat="43.75667" lon="7.12578">
        <ele>435</ele>
        <time>2023-08-02T11:02:32.000Z</time>
      </trkpt>
      <trkpt lat="43.75666" lon="7.12579">
        <ele>435</ele>
        <time>2023-08-02T11:02:33.000Z</time>
      </trkpt>
      <trkpt lat="43.75666" lon="7.1258">
        <ele>435.20001220703</ele>
        <time>2023-08-02T11:02:34.000Z</time>
      </trkpt>
      <trkpt lat="43.75665" lon="7.12581">
        <ele>435.20001220703</ele>
        <time>2023-08-02T11:02:35.000Z</time>
      </trkpt>
      <trkpt lat="43.75665" lon="7.12582">
        <ele>435.20001220703</ele>
        <time>2023-08-02T11:02:36.000Z</time>
      </trkpt>
      <trkpt lat="43.75665" lon="7.12582">
        <ele>435.20001220703</ele>
        <time>2023-08-02T11:02:37.000Z</time>
      </trkpt>
      <trkpt lat="43.75665" lon="7.12582">
        <ele>435.20001220703</ele>
        <time>2023-08-02T11:02:38.000Z</time>
      </trkpt>
      <trkpt lat="43.75666" lon="7.12582">
        <ele>435.20001220703</ele>
        <time>2023-08-02T11:02:39.000Z</time>
      </trkpt>
      <trkpt lat="43.75665" lon="7.12582">
        <ele>435.39999389648</ele>
        <time>2023-08-02T11:02:40.000Z</time>
      </trkpt>
      <trkpt lat="43.75663" lon="7.12584">
        <ele>435.20001220703</ele>
        <time>2023-08-02T11:02:41.000Z</time>
      </trkpt>
      <trkpt lat="43.75662" lon="7.12585">
        <ele>435.20001220703</ele>
        <time>2023-08-02T11:02:42.000Z</time>
      </trkpt>
      <trkpt lat="43.7566" lon="7.12586">
        <ele>435.20001220703</ele>
        <time>2023-08-02T11:02:43.000Z</time>
      </trkpt>
      <trkpt lat="43.7566" lon="7.12587">
        <ele>435.20001220703</ele>
        <time>2023-08-02T11:02:44.000Z</time>
      </trkpt>
      <trkpt lat="43.7566" lon="7.12587">
        <ele>435.20001220703</ele>
        <time>2023-08-02T11:02:45.000Z</time>
      </trkpt>
      <trkpt lat="43.7566" lon="7.12587">
        <ele>435.39999389648</ele>
        <time>2023-08-02T11:02:46.000Z</time>
      </trkpt>
      <trkpt lat="43.75659" lon="7.12587">
        <ele>435.39999389648</ele>
        <time>2023-08-02T11:02:47.000Z</time>
      </trkpt>
      <trkpt lat="43.75659" lon="7.12587">
        <ele>435.39999389648</ele>
        <time>2023-08-02T11:02:48.000Z</time>
      </trkpt>
      <trkpt lat="43.75659" lon="7.12586">
        <ele>435.39999389648</ele>
        <time>2023-08-02T11:02:49.000Z</time>
      </trkpt>
      <trkpt lat="43.75658" lon="7.12586">
        <ele>435.39999389648</ele>
        <time>2023-08-02T11:02:50.000Z</time>
      </trkpt>
      <trkpt lat="43.75657" lon="7.12586">
        <ele>435.39999389648</ele>
        <time>2023-08-02T11:02:51.000Z</time>
      </trkpt>
      <trkpt lat="43.75657" lon="7.12586">
        <ele>435.39999389648</ele>
        <time>2023-08-02T11:02:52.000Z</time>
      </trkpt>
      <trkpt lat="43.75657" lon="7.12586">
        <ele>435.39999389648</ele>
        <time>2023-08-02T11:02:53.000Z</time>
      </trkpt>
      <trkpt lat="43.75656" lon="7.12586">
        <ele>435.39999389648</ele>
        <time>2023-08-02T11:02:54.000Z</time>
      </trkpt>
      <trkpt lat="43.75656" lon="7.12585">
        <ele>435.20001220703</ele>
        <time>2023-08-02T11:02:55.000Z</time>
      </trkpt>
      <trkpt lat="43.75656" lon="7.12585">
        <ele>435.20001220703</ele>
        <time>2023-08-02T11:02:56.000Z</time>
      </trkpt>
      <trkpt lat="43.75656" lon="7.12585">
        <ele>435.20001220703</ele>
        <time>2023-08-02T11:02:57.000Z</time>
      </trkpt>
      <trkpt lat="43.75655" lon="7.12585">
        <ele>435</ele>
        <time>2023-08-02T11:02:58.000Z</time>
      </trkpt>
      <trkpt lat="43.75654" lon="7.12585">
        <ele>434.79998779297</ele>
        <time>2023-08-02T11:02:59.000Z</time>
      </trkpt>
      <trkpt lat="43.75654" lon="7.12586">
        <ele>434.79998779297</ele>
        <time>2023-08-02T11:03:00.000Z</time>
      </trkpt>
      <trkpt lat="43.75654" lon="7.12586">
        <ele>434.60000610352</ele>
        <time>2023-08-02T11:03:01.000Z</time>
      </trkpt>
      <trkpt lat="43.75653" lon="7.12587">
        <ele>434.60000610352</ele>
        <time>2023-08-02T11:03:02.000Z</time>
      </trkpt>
      <trkpt lat="43.75652" lon="7.12587">
        <ele>434.60000610352</ele>
        <time>2023-08-02T11:03:03.000Z</time>
      </trkpt>
      <trkpt lat="43.75652" lon="7.12587">
        <ele>434.39999389648</ele>
        <time>2023-08-02T11:03:04.000Z</time>
      </trkpt>
      <trkpt lat="43.75652" lon="7.12586">
        <ele>434.39999389648</ele>
        <time>2023-08-02T11:03:05.000Z</time>
      </trkpt>
      <trkpt lat="43.75652" lon="7.12587">
        <ele>434.39999389648</ele>
        <time>2023-08-02T11:03:06.000Z</time>
      </trkpt>
      <trkpt lat="43.75652" lon="7.12587">
        <ele>434.20001220703</ele>
        <time>2023-08-02T11:03:07.000Z</time>
      </trkpt>
      <trkpt lat="43.75651" lon="7.12587">
        <ele>434.20001220703</ele>
        <time>2023-08-02T11:03:08.000Z</time>
      </trkpt>
      <trkpt lat="43.75649" lon="7.12588">
        <ele>434</ele>
        <time>2023-08-02T11:03:09.000Z</time>
      </trkpt>
      <trkpt lat="43.75647" lon="7.12588">
        <ele>434</ele>
        <time>2023-08-02T11:03:10.000Z</time>
      </trkpt>
      <trkpt lat="43.75645" lon="7.12588">
        <ele>433.79998779297</ele>
        <time>2023-08-02T11:03:11.000Z</time>
      </trkpt>
      <trkpt lat="43.75642" lon="7.1259">
        <ele>433.79998779297</ele>
        <time>2023-08-02T11:03:12.000Z</time>
      </trkpt>
      <trkpt lat="43.7564" lon="7.12591">
        <ele>433.79998779297</ele>
        <time>2023-08-02T11:03:13.000Z</time>
      </trkpt>
      <trkpt lat="43.75638" lon="7.12593">
        <ele>433.20001220703</ele>
        <time>2023-08-02T11:03:14.000Z</time>
      </trkpt>
      <trkpt lat="43.75637" lon="7.12594">
        <ele>433</ele>
        <time>2023-08-02T11:03:15.000Z</time>
      </trkpt>
      <trkpt lat="43.75636" lon="7.12594">
        <ele>432.60000610352</ele>
        <time>2023-08-02T11:03:16.000Z</time>
      </trkpt>
      <trkpt lat="43.75635" lon="7.12594">
        <ele>432</ele>
        <time>2023-08-02T11:03:17.000Z</time>
      </trkpt>
      <trkpt lat="43.75633" lon="7.12593">
        <ele>431.60000610352</ele>
        <time>2023-08-02T11:03:18.000Z</time>
      </trkpt>
      <trkpt lat="43.75631" lon="7.12593">
        <ele>431.20001220703</ele>
        <time>2023-08-02T11:03:19.000Z</time>
      </trkpt>
      <trkpt lat="43.7563" lon="7.12593">
        <ele>431</ele>
        <time>2023-08-02T11:03:20.000Z</time>
      </trkpt>
      <trkpt lat="43.75628" lon="7.12593">
        <ele>430.60000610352</ele>
        <time>2023-08-02T11:03:21.000Z</time>
      </trkpt>
      <trkpt lat="43.75626" lon="7.12593">
        <ele>430.39999389648</ele>
        <time>2023-08-02T11:03:22.000Z</time>
      </trkpt>
      <trkpt lat="43.75624" lon="7.12593">
        <ele>429.79998779297</ele>
        <time>2023-08-02T11:03:23.000Z</time>
      </trkpt>
      <trkpt lat="43.75621" lon="7.12594">
        <ele>429.39999389648</ele>
        <time>2023-08-02T11:03:24.000Z</time>
      </trkpt>
      <trkpt lat="43.75618" lon="7.12593">
        <ele>428.79998779297</ele>
        <time>2023-08-02T11:03:25.000Z</time>
      </trkpt>
      <trkpt lat="43.75616" lon="7.12592">
        <ele>428.20001220703</ele>
        <time>2023-08-02T11:03:26.000Z</time>
      </trkpt>
      <trkpt lat="43.75613" lon="7.12592">
        <ele>427.79998779297</ele>
        <time>2023-08-02T11:03:27.000Z</time>
      </trkpt>
      <trkpt lat="43.75612" lon="7.12592">
        <ele>427.79998779297</ele>
        <time>2023-08-02T11:03:28.000Z</time>
      </trkpt>
      <trkpt lat="43.75611" lon="7.12592">
        <ele>427.20001220703</ele>
        <time>2023-08-02T11:03:29.000Z</time>
      </trkpt>
      <trkpt lat="43.7561" lon="7.12591">
        <ele>426.39999389648</ele>
        <time>2023-08-02T11:03:30.000Z</time>
      </trkpt>
      <trkpt lat="43.75609" lon="7.12591">
        <ele>425.79998779297</ele>
        <time>2023-08-02T11:03:31.000Z</time>
      </trkpt>
      <trkpt lat="43.75609" lon="7.12591">
        <ele>425.39999389648</ele>
        <time>2023-08-02T11:03:32.000Z</time>
      </trkpt>
      <trkpt lat="43.75609" lon="7.12591">
        <ele>424.79998779297</ele>
        <time>2023-08-02T11:03:33.000Z</time>
      </trkpt>
      <trkpt lat="43.75608" lon="7.1259">
        <ele>424.20001220703</ele>
        <time>2023-08-02T11:03:34.000Z</time>
      </trkpt>
      <trkpt lat="43.75607" lon="7.12589">
        <ele>423.79998779297</ele>
        <time>2023-08-02T11:03:35.000Z</time>
      </trkpt>
      <trkpt lat="43.75605" lon="7.12588">
        <ele>423.60000610352</ele>
        <time>2023-08-02T11:03:36.000Z</time>
      </trkpt>
      <trkpt lat="43.75604" lon="7.12588">
        <ele>423.20001220703</ele>
        <time>2023-08-02T11:03:37.000Z</time>
      </trkpt>
      <trkpt lat="43.75602" lon="7.12587">
        <ele>423</ele>
        <time>2023-08-02T11:03:38.000Z</time>
      </trkpt>
      <trkpt lat="43.75599" lon="7.12586">
        <ele>422.60000610352</ele>
        <time>2023-08-02T11:03:39.000Z</time>
      </trkpt>
      <trkpt lat="43.75597" lon="7.12585">
        <ele>422</ele>
        <time>2023-08-02T11:03:40.000Z</time>
      </trkpt>
      <trkpt lat="43.75595" lon="7.12584">
        <ele>421.60000610352</ele>
        <time>2023-08-02T11:03:41.000Z</time>
      </trkpt>
      <trkpt lat="43.75593" lon="7.12583">
        <ele>421.20001220703</ele>
        <time>2023-08-02T11:03:42.000Z</time>
      </trkpt>
      <trkpt lat="43.75591" lon="7.12581">
        <ele>420.60000610352</ele>
        <time>2023-08-02T11:03:43.000Z</time>
      </trkpt>
      <trkpt lat="43.75589" lon="7.12579">
        <ele>420</ele>
        <time>2023-08-02T11:03:44.000Z</time>
      </trkpt>
      <trkpt lat="43.75587" lon="7.1258">
        <ele>419.60000610352</ele>
        <time>2023-08-02T11:03:45.000Z</time>
      </trkpt>
      <trkpt lat="43.75585" lon="7.1258">
        <ele>419</ele>
        <time>2023-08-02T11:03:46.000Z</time>
      </trkpt>
      <trkpt lat="43.75582" lon="7.12581">
        <ele>418.20001220703</ele>
        <time>2023-08-02T11:03:47.000Z</time>
      </trkpt>
      <trkpt lat="43.75579" lon="7.12582">
        <ele>417.39999389648</ele>
        <time>2023-08-02T11:03:48.000Z</time>
      </trkpt>
      <trkpt lat="43.75576" lon="7.12583">
        <ele>417</ele>
        <time>2023-08-02T11:03:49.000Z</time>
      </trkpt>
      <trkpt lat="43.75574" lon="7.12585">
        <ele>416.60000610352</ele>
        <time>2023-08-02T11:03:50.000Z</time>
      </trkpt>
      <trkpt lat="43.75571" lon="7.12588">
        <ele>415.60000610352</ele>
        <time>2023-08-02T11:03:51.000Z</time>
      </trkpt>
      <trkpt lat="43.7557" lon="7.12591">
        <ele>415.39999389648</ele>
        <time>2023-08-02T11:03:52.000Z</time>
      </trkpt>
      <trkpt lat="43.75568" lon="7.12595">
        <ele>415.39999389648</ele>
        <time>2023-08-02T11:03:53.000Z</time>
      </trkpt>
      <trkpt lat="43.75566" lon="7.12599">
        <ele>415.20001220703</ele>
        <time>2023-08-02T11:03:54.000Z</time>
      </trkpt>
      <trkpt lat="43.75564" lon="7.12603">
        <ele>415</ele>
        <time>2023-08-02T11:03:55.000Z</time>
      </trkpt>
      <trkpt lat="43.75562" lon="7.12606">
        <ele>415</ele>
        <time>2023-08-02T11:03:56.000Z</time>
      </trkpt>
      <trkpt lat="43.75559" lon="7.12608">
        <ele>414.39999389648</ele>
        <time>2023-08-02T11:03:57.000Z</time>
      </trkpt>
      <trkpt lat="43.75557" lon="7.1261">
        <ele>414.20001220703</ele>
        <time>2023-08-02T11:03:58.000Z</time>
      </trkpt>
      <trkpt lat="43.75555" lon="7.12613">
        <ele>413.60000610352</ele>
        <time>2023-08-02T11:03:59.000Z</time>
      </trkpt>
      <trkpt lat="43.75553" lon="7.12615">
        <ele>413.39999389648</ele>
        <time>2023-08-02T11:04:00.000Z</time>
      </trkpt>
      <trkpt lat="43.75553" lon="7.12616">
        <ele>413.39999389648</ele>
        <time>2023-08-02T11:04:01.000Z</time>
      </trkpt>
      <trkpt lat="43.75553" lon="7.12617">
        <ele>413.39999389648</ele>
        <time>2023-08-02T11:04:02.000Z</time>
      </trkpt>
      <trkpt lat="43.75552" lon="7.12618">
        <ele>413.39999389648</ele>
        <time>2023-08-02T11:04:03.000Z</time>
      </trkpt>
      <trkpt lat="43.75551" lon="7.12618">
        <ele>413.39999389648</ele>
        <time>2023-08-02T11:04:04.000Z</time>
      </trkpt>
      <trkpt lat="43.75551" lon="7.12619">
        <ele>413.20001220703</ele>
        <time>2023-08-02T11:04:05.000Z</time>
      </trkpt>
      <trkpt lat="43.7555" lon="7.12619">
        <ele>413.20001220703</ele>
        <time>2023-08-02T11:04:06.000Z</time>
      </trkpt>
      <trkpt lat="43.75549" lon="7.12619">
        <ele>413.20001220703</ele>
        <time>2023-08-02T11:04:07.000Z</time>
      </trkpt>
      <trkpt lat="43.7555" lon="7.12619">
        <ele>413.20001220703</ele>
        <time>2023-08-02T11:04:08.000Z</time>
      </trkpt>
      <trkpt lat="43.7555" lon="7.12619">
        <ele>413.20001220703</ele>
        <time>2023-08-02T11:04:09.000Z</time>
      </trkpt>
      <trkpt lat="43.7555" lon="7.1262">
        <ele>413.20001220703</ele>
        <time>2023-08-02T11:04:10.000Z</time>
      </trkpt>
      <trkpt lat="43.7555" lon="7.1262">
        <ele>413.20001220703</ele>
        <time>2023-08-02T11:04:11.000Z</time>
      </trkpt>
      <trkpt lat="43.7555" lon="7.1262">
        <ele>413.20001220703</ele>
        <time>2023-08-02T11:04:12.000Z</time>
      </trkpt>
      <trkpt lat="43.7555" lon="7.12619">
        <ele>413.20001220703</ele>
        <time>2023-08-02T11:04:13.000Z</time>
      </trkpt>
      <trkpt lat="43.7555" lon="7.1262">
        <ele>413.20001220703</ele>
        <time>2023-08-02T11:04:14.000Z</time>
      </trkpt>
      <trkpt lat="43.7555" lon="7.1262">
        <ele>413.20001220703</ele>
        <time>2023-08-02T11:04:15.000Z</time>
      </trkpt>
      <trkpt lat="43.7555" lon="7.12619">
        <ele>413.20001220703</ele>
        <time>2023-08-02T11:04:16.000Z</time>
      </trkpt>
      <trkpt lat="43.7555" lon="7.12619">
        <ele>413.20001220703</ele>
        <time>2023-08-02T11:04:17.000Z</time>
      </trkpt>
      <trkpt lat="43.7555" lon="7.12619">
        <ele>413.20001220703</ele>
        <time>2023-08-02T11:04:18.000Z</time>
      </trkpt>
      <trkpt lat="43.7555" lon="7.12619">
        <ele>413.20001220703</ele>
        <time>2023-08-02T11:04:19.000Z</time>
      </trkpt>
      <trkpt lat="43.7555" lon="7.12619">
        <ele>413.20001220703</ele>
        <time>2023-08-02T11:04:20.000Z</time>
      </trkpt>
      <trkpt lat="43.75549" lon="7.12619">
        <ele>413.20001220703</ele>
        <time>2023-08-02T11:04:21.000Z</time>
      </trkpt>
      <trkpt lat="43.75549" lon="7.12619">
        <ele>413</ele>
        <time>2023-08-02T11:04:22.000Z</time>
      </trkpt>
      <trkpt lat="43.75549" lon="7.12619">
        <ele>413</ele>
        <time>2023-08-02T11:04:23.000Z</time>
      </trkpt>
      <trkpt lat="43.75549" lon="7.12619">
        <ele>413</ele>
        <time>2023-08-02T11:04:24.000Z</time>
      </trkpt>
      <trkpt lat="43.75549" lon="7.12619">
        <ele>413</ele>
        <time>2023-08-02T11:04:25.000Z</time>
      </trkpt>
      <trkpt lat="43.75549" lon="7.1262">
        <ele>413</ele>
        <time>2023-08-02T11:04:26.000Z</time>
      </trkpt>
      <trkpt lat="43.7555" lon="7.1262">
        <ele>413</ele>
        <time>2023-08-02T11:04:27.000Z</time>
      </trkpt>
      <trkpt lat="43.7555" lon="7.1262">
        <ele>413</ele>
        <time>2023-08-02T11:04:28.000Z</time>
      </trkpt>
      <trkpt lat="43.7555" lon="7.1262">
        <ele>413</ele>
        <time>2023-08-02T11:04:29.000Z</time>
      </trkpt>
      <trkpt lat="43.7555" lon="7.1262">
        <ele>412.79998779297</ele>
        <time>2023-08-02T11:04:30.000Z</time>
      </trkpt>
      <trkpt lat="43.7555" lon="7.1262">
        <ele>412.60000610352</ele>
        <time>2023-08-02T11:04:31.000Z</time>
      </trkpt>
      <trkpt lat="43.75551" lon="7.1262">
        <ele>412.60000610352</ele>
        <time>2023-08-02T11:04:32.000Z</time>
      </trkpt>
      <trkpt lat="43.7555" lon="7.1262">
        <ele>412.60000610352</ele>
        <time>2023-08-02T11:04:33.000Z</time>
      </trkpt>
      <trkpt lat="43.7555" lon="7.1262">
        <ele>412.60000610352</ele>
        <time>2023-08-02T11:04:34.000Z</time>
      </trkpt>
      <trkpt lat="43.7555" lon="7.1262">
        <ele>412.60000610352</ele>
        <time>2023-08-02T11:04:35.000Z</time>
      </trkpt>
      <trkpt lat="43.7555" lon="7.12619">
        <ele>412.60000610352</ele>
        <time>2023-08-02T11:04:36.000Z</time>
      </trkpt>
      <trkpt lat="43.7555" lon="7.12619">
        <ele>412.60000610352</ele>
        <time>2023-08-02T11:04:37.000Z</time>
      </trkpt>
      <trkpt lat="43.7555" lon="7.12619">
        <ele>412.60000610352</ele>
        <time>2023-08-02T11:04:38.000Z</time>
      </trkpt>
      <trkpt lat="43.7555" lon="7.12619">
        <ele>412.60000610352</ele>
        <time>2023-08-02T11:04:39.000Z</time>
      </trkpt>
      <trkpt lat="43.7555" lon="7.12619">
        <ele>412.60000610352</ele>
        <time>2023-08-02T11:04:40.000Z</time>
      </trkpt>
      <trkpt lat="43.7555" lon="7.12619">
        <ele>412.60000610352</ele>
        <time>2023-08-02T11:04:41.000Z</time>
      </trkpt>
      <trkpt lat="43.7555" lon="7.1262">
        <ele>412.60000610352</ele>
        <time>2023-08-02T11:04:42.000Z</time>
      </trkpt>
      <trkpt lat="43.75549" lon="7.1262">
        <ele>412.60000610352</ele>
        <time>2023-08-02T11:04:43.000Z</time>
      </trkpt>
      <trkpt lat="43.75549" lon="7.1262">
        <ele>412.60000610352</ele>
        <time>2023-08-02T11:04:44.000Z</time>
      </trkpt>
      <trkpt lat="43.75549" lon="7.1262">
        <ele>412.60000610352</ele>
        <time>2023-08-02T11:04:45.000Z</time>
      </trkpt>
      <trkpt lat="43.75549" lon="7.1262">
        <ele>412.60000610352</ele>
        <time>2023-08-02T11:04:46.000Z</time>
      </trkpt>
      <trkpt lat="43.75549" lon="7.1262">
        <ele>412.60000610352</ele>
        <time>2023-08-02T11:04:47.000Z</time>
      </trkpt>
      <trkpt lat="43.75549" lon="7.1262">
        <ele>412.60000610352</ele>
        <time>2023-08-02T11:04:48.000Z</time>
      </trkpt>
      <trkpt lat="43.75549" lon="7.1262">
        <ele>412.60000610352</ele>
        <time>2023-08-02T11:04:49.000Z</time>
      </trkpt>
      <trkpt lat="43.75549" lon="7.1262">
        <ele>412.60000610352</ele>
        <time>2023-08-02T11:04:50.000Z</time>
      </trkpt>
      <trkpt lat="43.75549" lon="7.1262">
        <ele>412.60000610352</ele>
        <time>2023-08-02T11:04:51.000Z</time>
      </trkpt>
      <trkpt lat="43.75549" lon="7.1262">
        <ele>412.60000610352</ele>
        <time>2023-08-02T11:04:52.000Z</time>
      </trkpt>
      <trkpt lat="43.75549" lon="7.1262">
        <ele>412.60000610352</ele>
        <time>2023-08-02T11:04:53.000Z</time>
      </trkpt>
      <trkpt lat="43.75549" lon="7.1262">
        <ele>412.39999389648</ele>
        <time>2023-08-02T11:04:54.000Z</time>
      </trkpt>
      <trkpt lat="43.75549" lon="7.1262">
        <ele>412.39999389648</ele>
        <time>2023-08-02T11:04:55.000Z</time>
      </trkpt>
      <trkpt lat="43.75549" lon="7.1262">
        <ele>412.39999389648</ele>
        <time>2023-08-02T11:04:56.000Z</time>
      </trkpt>
      <trkpt lat="43.75549" lon="7.1262">
        <ele>412.39999389648</ele>
        <time>2023-08-02T11:04:57.000Z</time>
      </trkpt>
      <trkpt lat="43.75549" lon="7.1262">
        <ele>412.60000610352</ele>
        <time>2023-08-02T11:04:58.000Z</time>
      </trkpt>
      <trkpt lat="43.75549" lon="7.1262">
        <ele>412.39999389648</ele>
        <time>2023-08-02T11:04:59.000Z</time>
      </trkpt>
      <trkpt lat="43.75549" lon="7.1262">
        <ele>412.39999389648</ele>
        <time>2023-08-02T11:05:00.000Z</time>
      </trkpt>
      <trkpt lat="43.75549" lon="7.1262">
        <ele>412.39999389648</ele>
        <time>2023-08-02T11:05:01.000Z</time>
      </trkpt>
      <trkpt lat="43.75549" lon="7.1262">
        <ele>412.39999389648</ele>
        <time>2023-08-02T11:05:02.000Z</time>
      </trkpt>
      <trkpt lat="43.75549" lon="7.1262">
        <ele>412.39999389648</ele>
        <time>2023-08-02T11:05:03.000Z</time>
      </trkpt>
      <trkpt lat="43.75549" lon="7.1262">
        <ele>412.39999389648</ele>
        <time>2023-08-02T11:05:04.000Z</time>
      </trkpt>
      <trkpt lat="43.75549" lon="7.1262">
        <ele>412.39999389648</ele>
        <time>2023-08-02T11:05:05.000Z</time>
      </trkpt>
      <trkpt lat="43.75549" lon="7.1262">
        <ele>412.39999389648</ele>
        <time>2023-08-02T11:05:06.000Z</time>
      </trkpt>
      <trkpt lat="43.75549" lon="7.1262">
        <ele>412.39999389648</ele>
        <time>2023-08-02T11:05:07.000Z</time>
      </trkpt>
      <trkpt lat="43.75549" lon="7.1262">
        <ele>412.39999389648</ele>
        <time>2023-08-02T11:05:08.000Z</time>
      </trkpt>
      <trkpt lat="43.75549" lon="7.1262">
        <ele>412.39999389648</ele>
        <time>2023-08-02T11:05:09.000Z</time>
      </trkpt>
      <trkpt lat="43.75549" lon="7.1262">
        <ele>412.39999389648</ele>
        <time>2023-08-02T11:05:10.000Z</time>
      </trkpt>
      <trkpt lat="43.75549" lon="7.1262">
        <ele>412.39999389648</ele>
        <time>2023-08-02T11:05:11.000Z</time>
      </trkpt>
      <trkpt lat="43.75549" lon="7.1262">
        <ele>412.39999389648</ele>
        <time>2023-08-02T11:05:12.000Z</time>
      </trkpt>
      <trkpt lat="43.75549" lon="7.1262">
        <ele>412.39999389648</ele>
        <time>2023-08-02T11:05:13.000Z</time>
      </trkpt>
      <trkpt lat="43.75549" lon="7.1262">
        <ele>412.39999389648</ele>
        <time>2023-08-02T11:05:14.000Z</time>
      </trkpt>
      <trkpt lat="43.75549" lon="7.1262">
        <ele>412.39999389648</ele>
        <time>2023-08-02T11:05:15.000Z</time>
      </trkpt>
      <trkpt lat="43.75549" lon="7.1262">
        <ele>412.39999389648</ele>
        <time>2023-08-02T11:05:16.000Z</time>
      </trkpt>
      <trkpt lat="43.75549" lon="7.1262">
        <ele>412.20001220703</ele>
        <time>2023-08-02T11:05:17.000Z</time>
      </trkpt>
      <trkpt lat="43.75549" lon="7.1262">
        <ele>412.20001220703</ele>
        <time>2023-08-02T11:05:18.000Z</time>
      </trkpt>
      <trkpt lat="43.75549" lon="7.1262">
        <ele>412.20001220703</ele>
        <time>2023-08-02T11:05:19.000Z</time>
      </trkpt>
      <trkpt lat="43.75549" lon="7.1262">
        <ele>412.20001220703</ele>
        <time>2023-08-02T11:05:20.000Z</time>
      </trkpt>
      <trkpt lat="43.75549" lon="7.1262">
        <ele>412.20001220703</ele>
        <time>2023-08-02T11:05:21.000Z</time>
      </trkpt>
      <trkpt lat="43.75549" lon="7.1262">
        <ele>412.20001220703</ele>
        <time>2023-08-02T11:05:22.000Z</time>
      </trkpt>
      <trkpt lat="43.75549" lon="7.1262">
        <ele>412.20001220703</ele>
        <time>2023-08-02T11:05:23.000Z</time>
      </trkpt>
      <trkpt lat="43.75549" lon="7.1262">
        <ele>412.20001220703</ele>
        <time>2023-08-02T11:05:24.000Z</time>
      </trkpt>
      <trkpt lat="43.75549" lon="7.1262">
        <ele>412.20001220703</ele>
        <time>2023-08-02T11:05:25.000Z</time>
      </trkpt>
      <trkpt lat="43.75549" lon="7.1262">
        <ele>412.20001220703</ele>
        <time>2023-08-02T11:05:26.000Z</time>
      </trkpt>
      <trkpt lat="43.75549" lon="7.1262">
        <ele>412.20001220703</ele>
        <time>2023-08-02T11:05:27.000Z</time>
      </trkpt>
      <trkpt lat="43.75549" lon="7.1262">
        <ele>412.20001220703</ele>
        <time>2023-08-02T11:05:28.000Z</time>
      </trkpt>
      <trkpt lat="43.75549" lon="7.1262">
        <ele>412.20001220703</ele>
        <time>2023-08-02T11:05:29.000Z</time>
      </trkpt>
      <trkpt lat="43.75549" lon="7.1262">
        <ele>412.20001220703</ele>
        <time>2023-08-02T11:05:30.000Z</time>
      </trkpt>
      <trkpt lat="43.75549" lon="7.1262">
        <ele>412.20001220703</ele>
        <time>2023-08-02T11:05:31.000Z</time>
      </trkpt>
      <trkpt lat="43.75549" lon="7.1262">
        <ele>412.20001220703</ele>
        <time>2023-08-02T11:05:32.000Z</time>
      </trkpt>
      <trkpt lat="43.75549" lon="7.1262">
        <ele>412.20001220703</ele>
        <time>2023-08-02T11:05:33.000Z</time>
      </trkpt>
      <trkpt lat="43.75549" lon="7.1262">
        <ele>412</ele>
        <time>2023-08-02T11:05:34.000Z</time>
      </trkpt>
      <trkpt lat="43.75549" lon="7.1262">
        <ele>412</ele>
        <time>2023-08-02T11:05:35.000Z</time>
      </trkpt>
      <trkpt lat="43.75549" lon="7.1262">
        <ele>412</ele>
        <time>2023-08-02T11:05:36.000Z</time>
      </trkpt>
      <trkpt lat="43.75549" lon="7.1262">
        <ele>412</ele>
        <time>2023-08-02T11:05:37.000Z</time>
      </trkpt>
      <trkpt lat="43.75549" lon="7.1262">
        <ele>412</ele>
        <time>2023-08-02T11:05:38.000Z</time>
      </trkpt>
      <trkpt lat="43.75549" lon="7.1262">
        <ele>412</ele>
        <time>2023-08-02T11:05:39.000Z</time>
      </trkpt>
      <trkpt lat="43.75549" lon="7.1262">
        <ele>412</ele>
        <time>2023-08-02T11:05:40.000Z</time>
      </trkpt>
      <trkpt lat="43.75549" lon="7.1262">
        <ele>412</ele>
        <time>2023-08-02T11:05:41.000Z</time>
      </trkpt>
      <trkpt lat="43.75549" lon="7.1262">
        <ele>412</ele>
        <time>2023-08-02T11:05:42.000Z</time>
      </trkpt>
      <trkpt lat="43.75549" lon="7.1262">
        <ele>412</ele>
        <time>2023-08-02T11:05:43.000Z</time>
      </trkpt>
      <trkpt lat="43.75549" lon="7.1262">
        <ele>412</ele>
        <time>2023-08-02T11:05:44.000Z</time>
      </trkpt>
      <trkpt lat="43.75549" lon="7.1262">
        <ele>412</ele>
        <time>2023-08-02T11:05:45.000Z</time>
      </trkpt>
      <trkpt lat="43.75549" lon="7.1262">
        <ele>412</ele>
        <time>2023-08-02T11:05:46.000Z</time>
      </trkpt>
      <trkpt lat="43.75549" lon="7.1262">
        <ele>412</ele>
        <time>2023-08-02T11:05:47.000Z</time>
      </trkpt>
      <trkpt lat="43.75549" lon="7.1262">
        <ele>412</ele>
        <time>2023-08-02T11:05:48.000Z</time>
      </trkpt>
      <trkpt lat="43.75549" lon="7.1262">
        <ele>412</ele>
        <time>2023-08-02T11:05:49.000Z</time>
      </trkpt>
      <trkpt lat="43.75549" lon="7.1262">
        <ele>412</ele>
        <time>2023-08-02T11:05:50.000Z</time>
      </trkpt>
      <trkpt lat="43.75549" lon="7.1262">
        <ele>412</ele>
        <time>2023-08-02T11:05:51.000Z</time>
      </trkpt>
      <trkpt lat="43.75549" lon="7.1262">
        <ele>412</ele>
        <time>2023-08-02T11:05:52.000Z</time>
      </trkpt>
      <trkpt lat="43.75549" lon="7.1262">
        <ele>412</ele>
        <time>2023-08-02T11:05:53.000Z</time>
      </trkpt>
      <trkpt lat="43.75549" lon="7.1262">
        <ele>412</ele>
        <time>2023-08-02T11:05:54.000Z</time>
      </trkpt>
      <trkpt lat="43.75549" lon="7.1262">
        <ele>412</ele>
        <time>2023-08-02T11:05:55.000Z</time>
      </trkpt>
      <trkpt lat="43.75549" lon="7.1262">
        <ele>412</ele>
        <time>2023-08-02T11:05:56.000Z</time>
      </trkpt>
      <trkpt lat="43.75549" lon="7.1262">
        <ele>411.79998779297</ele>
        <time>2023-08-02T11:05:57.000Z</time>
      </trkpt>
      <trkpt lat="43.75549" lon="7.1262">
        <ele>412</ele>
        <time>2023-08-02T11:05:58.000Z</time>
      </trkpt>
      <trkpt lat="43.75549" lon="7.1262">
        <ele>412</ele>
        <time>2023-08-02T11:05:59.000Z</time>
      </trkpt>
      <trkpt lat="43.75549" lon="7.1262">
        <ele>412</ele>
        <time>2023-08-02T11:06:00.000Z</time>
      </trkpt>
      <trkpt lat="43.75549" lon="7.1262">
        <ele>411.79998779297</ele>
        <time>2023-08-02T11:06:01.000Z</time>
      </trkpt>
      <trkpt lat="43.75549" lon="7.1262">
        <ele>411.79998779297</ele>
        <time>2023-08-02T11:06:02.000Z</time>
      </trkpt>
      <trkpt lat="43.75549" lon="7.1262">
        <ele>411.79998779297</ele>
        <time>2023-08-02T11:06:03.000Z</time>
      </trkpt>
      <trkpt lat="43.75549" lon="7.1262">
        <ele>411.79998779297</ele>
        <time>2023-08-02T11:06:04.000Z</time>
      </trkpt>
      <trkpt lat="43.75549" lon="7.1262">
        <ele>411.79998779297</ele>
        <time>2023-08-02T11:06:05.000Z</time>
      </trkpt>
      <trkpt lat="43.75549" lon="7.1262">
        <ele>411.79998779297</ele>
        <time>2023-08-02T11:06:06.000Z</time>
      </trkpt>
      <trkpt lat="43.75549" lon="7.1262">
        <ele>411.79998779297</ele>
        <time>2023-08-02T11:06:07.000Z</time>
      </trkpt>
      <trkpt lat="43.75549" lon="7.1262">
        <ele>411.79998779297</ele>
        <time>2023-08-02T11:06:08.000Z</time>
      </trkpt>
      <trkpt lat="43.75549" lon="7.1262">
        <ele>411.79998779297</ele>
        <time>2023-08-02T11:06:09.000Z</time>
      </trkpt>
      <trkpt lat="43.75549" lon="7.1262">
        <ele>411.79998779297</ele>
        <time>2023-08-02T11:06:10.000Z</time>
      </trkpt>
      <trkpt lat="43.75549" lon="7.1262">
        <ele>411.79998779297</ele>
        <time>2023-08-02T11:06:11.000Z</time>
      </trkpt>
      <trkpt lat="43.75549" lon="7.1262">
        <ele>411.79998779297</ele>
        <time>2023-08-02T11:06:12.000Z</time>
      </trkpt>
      <trkpt lat="43.75549" lon="7.1262">
        <ele>411.79998779297</ele>
        <time>2023-08-02T11:06:13.000Z</time>
      </trkpt>
      <trkpt lat="43.75549" lon="7.1262">
        <ele>411.79998779297</ele>
        <time>2023-08-02T11:06:14.000Z</time>
      </trkpt>
      <trkpt lat="43.75549" lon="7.1262">
        <ele>411.79998779297</ele>
        <time>2023-08-02T11:06:15.000Z</time>
      </trkpt>
      <trkpt lat="43.75549" lon="7.1262">
        <ele>411.60000610352</ele>
        <time>2023-08-02T11:06:16.000Z</time>
      </trkpt>
      <trkpt lat="43.75549" lon="7.1262">
        <ele>411.60000610352</ele>
        <time>2023-08-02T11:06:17.000Z</time>
      </trkpt>
      <trkpt lat="43.75549" lon="7.1262">
        <ele>411.60000610352</ele>
        <time>2023-08-02T11:06:18.000Z</time>
      </trkpt>
      <trkpt lat="43.75549" lon="7.1262">
        <ele>411.60000610352</ele>
        <time>2023-08-02T11:06:19.000Z</time>
      </trkpt>
      <trkpt lat="43.75549" lon="7.1262">
        <ele>411.60000610352</ele>
        <time>2023-08-02T11:06:20.000Z</time>
      </trkpt>
      <trkpt lat="43.75549" lon="7.1262">
        <ele>411.60000610352</ele>
        <time>2023-08-02T11:06:21.000Z</time>
      </trkpt>
      <trkpt lat="43.75549" lon="7.1262">
        <ele>411.60000610352</ele>
        <time>2023-08-02T11:06:22.000Z</time>
      </trkpt>
      <trkpt lat="43.75549" lon="7.1262">
        <ele>411.60000610352</ele>
        <time>2023-08-02T11:06:23.000Z</time>
      </trkpt>
      <trkpt lat="43.75549" lon="7.1262">
        <ele>411.60000610352</ele>
        <time>2023-08-02T11:06:24.000Z</time>
      </trkpt>
      <trkpt lat="43.75549" lon="7.1262">
        <ele>411.60000610352</ele>
        <time>2023-08-02T11:06:25.000Z</time>
      </trkpt>
      <trkpt lat="43.75549" lon="7.1262">
        <ele>411.60000610352</ele>
        <time>2023-08-02T11:06:26.000Z</time>
      </trkpt>
      <trkpt lat="43.75549" lon="7.1262">
        <ele>411.60000610352</ele>
        <time>2023-08-02T11:06:27.000Z</time>
      </trkpt>
      <trkpt lat="43.75549" lon="7.1262">
        <ele>411.60000610352</ele>
        <time>2023-08-02T11:06:28.000Z</time>
      </trkpt>
      <trkpt lat="43.75549" lon="7.1262">
        <ele>411.60000610352</ele>
        <time>2023-08-02T11:06:29.000Z</time>
      </trkpt>
      <trkpt lat="43.75549" lon="7.1262">
        <ele>411.60000610352</ele>
        <time>2023-08-02T11:06:30.000Z</time>
      </trkpt>
      <trkpt lat="43.75549" lon="7.1262">
        <ele>411.60000610352</ele>
        <time>2023-08-02T11:06:31.000Z</time>
      </trkpt>
      <trkpt lat="43.75549" lon="7.1262">
        <ele>411.60000610352</ele>
        <time>2023-08-02T11:06:32.000Z</time>
      </trkpt>
      <trkpt lat="43.75549" lon="7.1262">
        <ele>411.60000610352</ele>
        <time>2023-08-02T11:06:33.000Z</time>
      </trkpt>
      <trkpt lat="43.75549" lon="7.1262">
        <ele>411.60000610352</ele>
        <time>2023-08-02T11:06:34.000Z</time>
      </trkpt>
      <trkpt lat="43.75549" lon="7.1262">
        <ele>411.60000610352</ele>
        <time>2023-08-02T11:06:35.000Z</time>
      </trkpt>
      <trkpt lat="43.75549" lon="7.1262">
        <ele>411.60000610352</ele>
        <time>2023-08-02T11:06:36.000Z</time>
      </trkpt>
      <trkpt lat="43.75549" lon="7.1262">
        <ele>411.60000610352</ele>
        <time>2023-08-02T11:06:37.000Z</time>
      </trkpt>
      <trkpt lat="43.75549" lon="7.1262">
        <ele>411.60000610352</ele>
        <time>2023-08-02T11:06:38.000Z</time>
      </trkpt>
      <trkpt lat="43.75549" lon="7.1262">
        <ele>411.60000610352</ele>
        <time>2023-08-02T11:06:39.000Z</time>
      </trkpt>
      <trkpt lat="43.75549" lon="7.1262">
        <ele>411.60000610352</ele>
        <time>2023-08-02T11:06:40.000Z</time>
      </trkpt>
      <trkpt lat="43.75549" lon="7.1262">
        <ele>411.60000610352</ele>
        <time>2023-08-02T11:06:41.000Z</time>
      </trkpt>
      <trkpt lat="43.75549" lon="7.1262">
        <ele>411.60000610352</ele>
        <time>2023-08-02T11:06:42.000Z</time>
      </trkpt>
      <trkpt lat="43.75549" lon="7.1262">
        <ele>411.39999389648</ele>
        <time>2023-08-02T11:06:43.000Z</time>
      </trkpt>
      <trkpt lat="43.75549" lon="7.1262">
        <ele>411.60000610352</ele>
        <time>2023-08-02T11:06:44.000Z</time>
      </trkpt>
      <trkpt lat="43.75549" lon="7.1262">
        <ele>411.60000610352</ele>
        <time>2023-08-02T11:06:45.000Z</time>
      </trkpt>
      <trkpt lat="43.75549" lon="7.1262">
        <ele>411.60000610352</ele>
        <time>2023-08-02T11:06:46.000Z</time>
      </trkpt>
      <trkpt lat="43.75549" lon="7.1262">
        <ele>411.60000610352</ele>
        <time>2023-08-02T11:06:47.000Z</time>
      </trkpt>
      <trkpt lat="43.75549" lon="7.1262">
        <ele>411.60000610352</ele>
        <time>2023-08-02T11:06:48.000Z</time>
      </trkpt>
      <trkpt lat="43.75549" lon="7.1262">
        <ele>411.60000610352</ele>
        <time>2023-08-02T11:06:49.000Z</time>
      </trkpt>
      <trkpt lat="43.75549" lon="7.1262">
        <ele>411.60000610352</ele>
        <time>2023-08-02T11:06:50.000Z</time>
      </trkpt>
      <trkpt lat="43.75549" lon="7.1262">
        <ele>411.60000610352</ele>
        <time>2023-08-02T11:06:51.000Z</time>
      </trkpt>
      <trkpt lat="43.75549" lon="7.1262">
        <ele>411.60000610352</ele>
        <time>2023-08-02T11:06:52.000Z</time>
      </trkpt>
      <trkpt lat="43.75549" lon="7.1262">
        <ele>411.60000610352</ele>
        <time>2023-08-02T11:06:53.000Z</time>
      </trkpt>
      <trkpt lat="43.75549" lon="7.1262">
        <ele>411.60000610352</ele>
        <time>2023-08-02T11:06:54.000Z</time>
      </trkpt>
      <trkpt lat="43.75549" lon="7.1262">
        <ele>411.60000610352</ele>
        <time>2023-08-02T11:06:55.000Z</time>
      </trkpt>
      <trkpt lat="43.75549" lon="7.1262">
        <ele>411.60000610352</ele>
        <time>2023-08-02T11:06:56.000Z</time>
      </trkpt>
      <trkpt lat="43.75549" lon="7.1262">
        <ele>411.60000610352</ele>
        <time>2023-08-02T11:06:57.000Z</time>
      </trkpt>
      <trkpt lat="43.75549" lon="7.1262">
        <ele>411.60000610352</ele>
        <time>2023-08-02T11:06:58.000Z</time>
      </trkpt>
      <trkpt lat="43.75549" lon="7.1262">
        <ele>411.60000610352</ele>
        <time>2023-08-02T11:06:59.000Z</time>
      </trkpt>
      <trkpt lat="43.75549" lon="7.1262">
        <ele>411.60000610352</ele>
        <time>2023-08-02T11:07:00.000Z</time>
      </trkpt>
      <trkpt lat="43.75549" lon="7.1262">
        <ele>411.60000610352</ele>
        <time>2023-08-02T11:07:01.000Z</time>
      </trkpt>
      <trkpt lat="43.75549" lon="7.1262">
        <ele>411.60000610352</ele>
        <time>2023-08-02T11:07:02.000Z</time>
      </trkpt>
      <trkpt lat="43.75549" lon="7.1262">
        <ele>411.39999389648</ele>
        <time>2023-08-02T11:07:03.000Z</time>
      </trkpt>
      <trkpt lat="43.75549" lon="7.1262">
        <ele>411.60000610352</ele>
        <time>2023-08-02T11:07:04.000Z</time>
      </trkpt>
      <trkpt lat="43.75549" lon="7.1262">
        <ele>411.60000610352</ele>
        <time>2023-08-02T11:07:05.000Z</time>
      </trkpt>
      <trkpt lat="43.75549" lon="7.1262">
        <ele>411.60000610352</ele>
        <time>2023-08-02T11:07:06.000Z</time>
      </trkpt>
      <trkpt lat="43.75549" lon="7.1262">
        <ele>411.60000610352</ele>
        <time>2023-08-02T11:07:07.000Z</time>
      </trkpt>
      <trkpt lat="43.75549" lon="7.1262">
        <ele>411.60000610352</ele>
        <time>2023-08-02T11:07:08.000Z</time>
      </trkpt>
      <trkpt lat="43.75549" lon="7.1262">
        <ele>411.60000610352</ele>
        <time>2023-08-02T11:07:09.000Z</time>
      </trkpt>
      <trkpt lat="43.75549" lon="7.1262">
        <ele>411.60000610352</ele>
        <time>2023-08-02T11:07:10.000Z</time>
      </trkpt>
      <trkpt lat="43.75549" lon="7.1262">
        <ele>411.60000610352</ele>
        <time>2023-08-02T11:07:11.000Z</time>
      </trkpt>
      <trkpt lat="43.75549" lon="7.1262">
        <ele>411.60000610352</ele>
        <time>2023-08-02T11:07:12.000Z</time>
      </trkpt>
      <trkpt lat="43.75549" lon="7.1262">
        <ele>411.60000610352</ele>
        <time>2023-08-02T11:07:13.000Z</time>
      </trkpt>
      <trkpt lat="43.75549" lon="7.1262">
        <ele>411.60000610352</ele>
        <time>2023-08-02T11:07:14.000Z</time>
      </trkpt>
      <trkpt lat="43.75549" lon="7.1262">
        <ele>411.60000610352</ele>
        <time>2023-08-02T11:07:15.000Z</time>
      </trkpt>
      <trkpt lat="43.75549" lon="7.1262">
        <ele>411.60000610352</ele>
        <time>2023-08-02T11:07:16.000Z</time>
      </trkpt>
      <trkpt lat="43.75549" lon="7.1262">
        <ele>411.60000610352</ele>
        <time>2023-08-02T11:07:17.000Z</time>
      </trkpt>
      <trkpt lat="43.75549" lon="7.1262">
        <ele>411.60000610352</ele>
        <time>2023-08-02T11:07:18.000Z</time>
      </trkpt>
      <trkpt lat="43.75549" lon="7.1262">
        <ele>411.60000610352</ele>
        <time>2023-08-02T11:07:19.000Z</time>
      </trkpt>
      <trkpt lat="43.75549" lon="7.1262">
        <ele>411.60000610352</ele>
        <time>2023-08-02T11:07:20.000Z</time>
      </trkpt>
      <trkpt lat="43.75549" lon="7.1262">
        <ele>411.60000610352</ele>
        <time>2023-08-02T11:07:21.000Z</time>
      </trkpt>
      <trkpt lat="43.75549" lon="7.1262">
        <ele>411.60000610352</ele>
        <time>2023-08-02T11:07:22.000Z</time>
      </trkpt>
      <trkpt lat="43.75549" lon="7.1262">
        <ele>411.60000610352</ele>
        <time>2023-08-02T11:07:23.000Z</time>
      </trkpt>
      <trkpt lat="43.75549" lon="7.1262">
        <ele>411.60000610352</ele>
        <time>2023-08-02T11:07:24.000Z</time>
      </trkpt>
      <trkpt lat="43.75549" lon="7.1262">
        <ele>411.60000610352</ele>
        <time>2023-08-02T11:07:25.000Z</time>
      </trkpt>
      <trkpt lat="43.75549" lon="7.1262">
        <ele>411.60000610352</ele>
        <time>2023-08-02T11:07:26.000Z</time>
      </trkpt>
      <trkpt lat="43.75549" lon="7.1262">
        <ele>411.60000610352</ele>
        <time>2023-08-02T11:07:27.000Z</time>
      </trkpt>
      <trkpt lat="43.75549" lon="7.1262">
        <ele>411.60000610352</ele>
        <time>2023-08-02T11:07:28.000Z</time>
      </trkpt>
      <trkpt lat="43.75549" lon="7.1262">
        <ele>411.60000610352</ele>
        <time>2023-08-02T11:07:29.000Z</time>
      </trkpt>
      <trkpt lat="43.75549" lon="7.1262">
        <ele>411.60000610352</ele>
        <time>2023-08-02T11:07:30.000Z</time>
      </trkpt>
      <trkpt lat="43.75549" lon="7.1262">
        <ele>411.60000610352</ele>
        <time>2023-08-02T11:07:31.000Z</time>
      </trkpt>
      <trkpt lat="43.75549" lon="7.1262">
        <ele>411.60000610352</ele>
        <time>2023-08-02T11:07:32.000Z</time>
      </trkpt>
      <trkpt lat="43.75549" lon="7.1262">
        <ele>411.60000610352</ele>
        <time>2023-08-02T11:07:33.000Z</time>
      </trkpt>
      <trkpt lat="43.75549" lon="7.1262">
        <ele>411.60000610352</ele>
        <time>2023-08-02T11:07:34.000Z</time>
      </trkpt>
      <trkpt lat="43.75549" lon="7.1262">
        <ele>411.60000610352</ele>
        <time>2023-08-02T11:07:35.000Z</time>
      </trkpt>
      <trkpt lat="43.75549" lon="7.1262">
        <ele>411.60000610352</ele>
        <time>2023-08-02T11:07:36.000Z</time>
      </trkpt>
      <trkpt lat="43.75549" lon="7.1262">
        <ele>411.60000610352</ele>
        <time>2023-08-02T11:07:37.000Z</time>
      </trkpt>
      <trkpt lat="43.75549" lon="7.1262">
        <ele>411.60000610352</ele>
        <time>2023-08-02T11:07:38.000Z</time>
      </trkpt>
      <trkpt lat="43.75549" lon="7.1262">
        <ele>411.60000610352</ele>
        <time>2023-08-02T11:07:39.000Z</time>
      </trkpt>
      <trkpt lat="43.75549" lon="7.1262">
        <ele>411.60000610352</ele>
        <time>2023-08-02T11:07:40.000Z</time>
      </trkpt>
      <trkpt lat="43.75549" lon="7.1262">
        <ele>411.60000610352</ele>
        <time>2023-08-02T11:07:41.000Z</time>
      </trkpt>
      <trkpt lat="43.75549" lon="7.1262">
        <ele>411.60000610352</ele>
        <time>2023-08-02T11:07:42.000Z</time>
      </trkpt>
      <trkpt lat="43.75549" lon="7.1262">
        <ele>411.60000610352</ele>
        <time>2023-08-02T11:07:43.000Z</time>
      </trkpt>
      <trkpt lat="43.75549" lon="7.1262">
        <ele>411.60000610352</ele>
        <time>2023-08-02T11:07:44.000Z</time>
      </trkpt>
      <trkpt lat="43.75549" lon="7.1262">
        <ele>411.60000610352</ele>
        <time>2023-08-02T11:07:45.000Z</time>
      </trkpt>
      <trkpt lat="43.75549" lon="7.1262">
        <ele>411.60000610352</ele>
        <time>2023-08-02T11:07:46.000Z</time>
      </trkpt>
      <trkpt lat="43.75549" lon="7.1262">
        <ele>411.60000610352</ele>
        <time>2023-08-02T11:07:47.000Z</time>
      </trkpt>
      <trkpt lat="43.75549" lon="7.1262">
        <ele>411.60000610352</ele>
        <time>2023-08-02T11:07:48.000Z</time>
      </trkpt>
      <trkpt lat="43.75549" lon="7.1262">
        <ele>411.60000610352</ele>
        <time>2023-08-02T11:07:49.000Z</time>
      </trkpt>
      <trkpt lat="43.75549" lon="7.1262">
        <ele>411.60000610352</ele>
        <time>2023-08-02T11:07:50.000Z</time>
      </trkpt>
      <trkpt lat="43.75549" lon="7.1262">
        <ele>411.60000610352</ele>
        <time>2023-08-02T11:07:51.000Z</time>
      </trkpt>
      <trkpt lat="43.75549" lon="7.1262">
        <ele>411.60000610352</ele>
        <time>2023-08-02T11:07:52.000Z</time>
      </trkpt>
      <trkpt lat="43.75549" lon="7.1262">
        <ele>411.60000610352</ele>
        <time>2023-08-02T11:07:53.000Z</time>
      </trkpt>
      <trkpt lat="43.75549" lon="7.1262">
        <ele>411.60000610352</ele>
        <time>2023-08-02T11:07:54.000Z</time>
      </trkpt>
      <trkpt lat="43.75549" lon="7.1262">
        <ele>411.60000610352</ele>
        <time>2023-08-02T11:07:55.000Z</time>
      </trkpt>
      <trkpt lat="43.75549" lon="7.1262">
        <ele>411.60000610352</ele>
        <time>2023-08-02T11:07:56.000Z</time>
      </trkpt>
      <trkpt lat="43.75549" lon="7.1262">
        <ele>411.60000610352</ele>
        <time>2023-08-02T11:07:57.000Z</time>
      </trkpt>
      <trkpt lat="43.75549" lon="7.1262">
        <ele>411.60000610352</ele>
        <time>2023-08-02T11:07:58.000Z</time>
      </trkpt>
      <trkpt lat="43.75549" lon="7.1262">
        <ele>411.60000610352</ele>
        <time>2023-08-02T11:07:59.000Z</time>
      </trkpt>
      <trkpt lat="43.75549" lon="7.1262">
        <ele>411.60000610352</ele>
        <time>2023-08-02T11:08:00.000Z</time>
      </trkpt>
      <trkpt lat="43.75549" lon="7.1262">
        <ele>411.60000610352</ele>
        <time>2023-08-02T11:08:01.000Z</time>
      </trkpt>
      <trkpt lat="43.75549" lon="7.1262">
        <ele>411.60000610352</ele>
        <time>2023-08-02T11:08:02.000Z</time>
      </trkpt>
      <trkpt lat="43.75549" lon="7.1262">
        <ele>411.60000610352</ele>
        <time>2023-08-02T11:08:03.000Z</time>
      </trkpt>
      <trkpt lat="43.75549" lon="7.1262">
        <ele>411.60000610352</ele>
        <time>2023-08-02T11:08:04.000Z</time>
      </trkpt>
      <trkpt lat="43.75549" lon="7.1262">
        <ele>411.60000610352</ele>
        <time>2023-08-02T11:08:05.000Z</time>
      </trkpt>
      <trkpt lat="43.75549" lon="7.1262">
        <ele>411.60000610352</ele>
        <time>2023-08-02T11:08:06.000Z</time>
      </trkpt>
      <trkpt lat="43.75549" lon="7.1262">
        <ele>411.60000610352</ele>
        <time>2023-08-02T11:08:07.000Z</time>
      </trkpt>
      <trkpt lat="43.75549" lon="7.1262">
        <ele>411.60000610352</ele>
        <time>2023-08-02T11:08:08.000Z</time>
      </trkpt>
      <trkpt lat="43.75549" lon="7.1262">
        <ele>411.60000610352</ele>
        <time>2023-08-02T11:08:09.000Z</time>
      </trkpt>
      <trkpt lat="43.75549" lon="7.1262">
        <ele>411.60000610352</ele>
        <time>2023-08-02T11:08:10.000Z</time>
      </trkpt>
      <trkpt lat="43.75549" lon="7.1262">
        <ele>411.60000610352</ele>
        <time>2023-08-02T11:08:11.000Z</time>
      </trkpt>
      <trkpt lat="43.75549" lon="7.1262">
        <ele>411.60000610352</ele>
        <time>2023-08-02T11:08:12.000Z</time>
      </trkpt>
      <trkpt lat="43.75549" lon="7.1262">
        <ele>411.60000610352</ele>
        <time>2023-08-02T11:08:13.000Z</time>
      </trkpt>
      <trkpt lat="43.75549" lon="7.1262">
        <ele>411.60000610352</ele>
        <time>2023-08-02T11:08:14.000Z</time>
      </trkpt>
      <trkpt lat="43.75549" lon="7.1262">
        <ele>411.60000610352</ele>
        <time>2023-08-02T11:08:15.000Z</time>
      </trkpt>
      <trkpt lat="43.75549" lon="7.1262">
        <ele>411.60000610352</ele>
        <time>2023-08-02T11:08:16.000Z</time>
      </trkpt>
      <trkpt lat="43.75549" lon="7.1262">
        <ele>411.60000610352</ele>
        <time>2023-08-02T11:08:17.000Z</time>
      </trkpt>
      <trkpt lat="43.75549" lon="7.1262">
        <ele>411.60000610352</ele>
        <time>2023-08-02T11:08:18.000Z</time>
      </trkpt>
      <trkpt lat="43.75549" lon="7.1262">
        <ele>411.60000610352</ele>
        <time>2023-08-02T11:08:19.000Z</time>
      </trkpt>
      <trkpt lat="43.75549" lon="7.1262">
        <ele>411.60000610352</ele>
        <time>2023-08-02T11:08:20.000Z</time>
      </trkpt>
      <trkpt lat="43.75549" lon="7.1262">
        <ele>411.60000610352</ele>
        <time>2023-08-02T11:08:21.000Z</time>
      </trkpt>
      <trkpt lat="43.75549" lon="7.1262">
        <ele>411.60000610352</ele>
        <time>2023-08-02T11:08:22.000Z</time>
      </trkpt>
      <trkpt lat="43.75549" lon="7.1262">
        <ele>411.60000610352</ele>
        <time>2023-08-02T11:08:23.000Z</time>
      </trkpt>
      <trkpt lat="43.75549" lon="7.1262">
        <ele>411.60000610352</ele>
        <time>2023-08-02T11:08:24.000Z</time>
      </trkpt>
      <trkpt lat="43.75549" lon="7.1262">
        <ele>411.60000610352</ele>
        <time>2023-08-02T11:08:25.000Z</time>
      </trkpt>
      <trkpt lat="43.75549" lon="7.1262">
        <ele>411.60000610352</ele>
        <time>2023-08-02T11:08:26.000Z</time>
      </trkpt>
      <trkpt lat="43.75549" lon="7.1262">
        <ele>411.60000610352</ele>
        <time>2023-08-02T11:08:27.000Z</time>
      </trkpt>
      <trkpt lat="43.75549" lon="7.1262">
        <ele>411.60000610352</ele>
        <time>2023-08-02T11:08:28.000Z</time>
      </trkpt>
      <trkpt lat="43.75549" lon="7.1262">
        <ele>411.60000610352</ele>
        <time>2023-08-02T11:08:29.000Z</time>
      </trkpt>
      <trkpt lat="43.75549" lon="7.1262">
        <ele>411.60000610352</ele>
        <time>2023-08-02T11:08:30.000Z</time>
      </trkpt>
      <trkpt lat="43.75549" lon="7.1262">
        <ele>411.60000610352</ele>
        <time>2023-08-02T11:08:31.000Z</time>
      </trkpt>
      <trkpt lat="43.75549" lon="7.1262">
        <ele>411.60000610352</ele>
        <time>2023-08-02T11:08:32.000Z</time>
      </trkpt>
      <trkpt lat="43.75549" lon="7.1262">
        <ele>411.60000610352</ele>
        <time>2023-08-02T11:08:33.000Z</time>
      </trkpt>
      <trkpt lat="43.75549" lon="7.1262">
        <ele>411.60000610352</ele>
        <time>2023-08-02T11:08:34.000Z</time>
      </trkpt>
      <trkpt lat="43.75549" lon="7.1262">
        <ele>411.60000610352</ele>
        <time>2023-08-02T11:08:35.000Z</time>
      </trkpt>
      <trkpt lat="43.75549" lon="7.1262">
        <ele>411.60000610352</ele>
        <time>2023-08-02T11:08:36.000Z</time>
      </trkpt>
      <trkpt lat="43.75549" lon="7.1262">
        <ele>411.60000610352</ele>
        <time>2023-08-02T11:08:37.000Z</time>
      </trkpt>
      <trkpt lat="43.75549" lon="7.1262">
        <ele>411.60000610352</ele>
        <time>2023-08-02T11:08:38.000Z</time>
      </trkpt>
      <trkpt lat="43.75549" lon="7.1262">
        <ele>411.60000610352</ele>
        <time>2023-08-02T11:08:39.000Z</time>
      </trkpt>
      <trkpt lat="43.75549" lon="7.1262">
        <ele>411.60000610352</ele>
        <time>2023-08-02T11:08:40.000Z</time>
      </trkpt>
      <trkpt lat="43.75549" lon="7.1262">
        <ele>411.60000610352</ele>
        <time>2023-08-02T11:08:41.000Z</time>
      </trkpt>
      <trkpt lat="43.75549" lon="7.1262">
        <ele>411.60000610352</ele>
        <time>2023-08-02T11:08:42.000Z</time>
      </trkpt>
      <trkpt lat="43.75549" lon="7.1262">
        <ele>411.60000610352</ele>
        <time>2023-08-02T11:08:43.000Z</time>
      </trkpt>
      <trkpt lat="43.75549" lon="7.1262">
        <ele>411.60000610352</ele>
        <time>2023-08-02T11:08:44.000Z</time>
      </trkpt>
      <trkpt lat="43.75549" lon="7.1262">
        <ele>411.60000610352</ele>
        <time>2023-08-02T11:08:45.000Z</time>
      </trkpt>
      <trkpt lat="43.75549" lon="7.1262">
        <ele>411.60000610352</ele>
        <time>2023-08-02T11:08:46.000Z</time>
      </trkpt>
      <trkpt lat="43.75549" lon="7.1262">
        <ele>411.60000610352</ele>
        <time>2023-08-02T11:08:47.000Z</time>
      </trkpt>
      <trkpt lat="43.75549" lon="7.1262">
        <ele>411.60000610352</ele>
        <time>2023-08-02T11:08:48.000Z</time>
      </trkpt>
      <trkpt lat="43.75549" lon="7.1262">
        <ele>411.60000610352</ele>
        <time>2023-08-02T11:08:49.000Z</time>
      </trkpt>
      <trkpt lat="43.75549" lon="7.1262">
        <ele>411.60000610352</ele>
        <time>2023-08-02T11:08:50.000Z</time>
      </trkpt>
      <trkpt lat="43.75549" lon="7.1262">
        <ele>411.60000610352</ele>
        <time>2023-08-02T11:08:51.000Z</time>
      </trkpt>
      <trkpt lat="43.75549" lon="7.1262">
        <ele>411.60000610352</ele>
        <time>2023-08-02T11:08:52.000Z</time>
      </trkpt>
      <trkpt lat="43.75549" lon="7.1262">
        <ele>411.60000610352</ele>
        <time>2023-08-02T11:08:53.000Z</time>
      </trkpt>
      <trkpt lat="43.75549" lon="7.1262">
        <ele>411.60000610352</ele>
        <time>2023-08-02T11:08:54.000Z</time>
      </trkpt>
      <trkpt lat="43.75549" lon="7.1262">
        <ele>411.60000610352</ele>
        <time>2023-08-02T11:08:55.000Z</time>
      </trkpt>
      <trkpt lat="43.75549" lon="7.1262">
        <ele>411.60000610352</ele>
        <time>2023-08-02T11:08:56.000Z</time>
      </trkpt>
      <trkpt lat="43.75549" lon="7.1262">
        <ele>411.60000610352</ele>
        <time>2023-08-02T11:08:57.000Z</time>
      </trkpt>
      <trkpt lat="43.75549" lon="7.1262">
        <ele>411.60000610352</ele>
        <time>2023-08-02T11:08:58.000Z</time>
      </trkpt>
      <trkpt lat="43.75549" lon="7.1262">
        <ele>411.60000610352</ele>
        <time>2023-08-02T11:08:59.000Z</time>
      </trkpt>
      <trkpt lat="43.75549" lon="7.1262">
        <ele>411.60000610352</ele>
        <time>2023-08-02T11:09:00.000Z</time>
      </trkpt>
      <trkpt lat="43.75549" lon="7.1262">
        <ele>411.60000610352</ele>
        <time>2023-08-02T11:09:01.000Z</time>
      </trkpt>
      <trkpt lat="43.75549" lon="7.1262">
        <ele>411.60000610352</ele>
        <time>2023-08-02T11:09:02.000Z</time>
      </trkpt>
      <trkpt lat="43.75549" lon="7.1262">
        <ele>411.60000610352</ele>
        <time>2023-08-02T11:09:03.000Z</time>
      </trkpt>
      <trkpt lat="43.75549" lon="7.1262">
        <ele>411.60000610352</ele>
        <time>2023-08-02T11:09:04.000Z</time>
      </trkpt>
      <trkpt lat="43.75549" lon="7.1262">
        <ele>411.60000610352</ele>
        <time>2023-08-02T11:09:05.000Z</time>
      </trkpt>
      <trkpt lat="43.75549" lon="7.1262">
        <ele>411.60000610352</ele>
        <time>2023-08-02T11:09:06.000Z</time>
      </trkpt>
      <trkpt lat="43.75549" lon="7.1262">
        <ele>411.60000610352</ele>
        <time>2023-08-02T11:09:07.000Z</time>
      </trkpt>
      <trkpt lat="43.75549" lon="7.1262">
        <ele>411.60000610352</ele>
        <time>2023-08-02T11:09:08.000Z</time>
      </trkpt>
      <trkpt lat="43.75549" lon="7.1262">
        <ele>411.60000610352</ele>
        <time>2023-08-02T11:09:09.000Z</time>
      </trkpt>
      <trkpt lat="43.75549" lon="7.1262">
        <ele>411.60000610352</ele>
        <time>2023-08-02T11:09:10.000Z</time>
      </trkpt>
      <trkpt lat="43.75549" lon="7.1262">
        <ele>411.60000610352</ele>
        <time>2023-08-02T11:09:11.000Z</time>
      </trkpt>
      <trkpt lat="43.75549" lon="7.1262">
        <ele>411.60000610352</ele>
        <time>2023-08-02T11:09:12.000Z</time>
      </trkpt>
      <trkpt lat="43.75549" lon="7.1262">
        <ele>411.60000610352</ele>
        <time>2023-08-02T11:09:13.000Z</time>
      </trkpt>
      <trkpt lat="43.75549" lon="7.1262">
        <ele>411.60000610352</ele>
        <time>2023-08-02T11:09:14.000Z</time>
      </trkpt>
      <trkpt lat="43.75549" lon="7.1262">
        <ele>411.60000610352</ele>
        <time>2023-08-02T11:09:15.000Z</time>
      </trkpt>
      <trkpt lat="43.75549" lon="7.1262">
        <ele>411.60000610352</ele>
        <time>2023-08-02T11:09:16.000Z</time>
      </trkpt>
      <trkpt lat="43.75549" lon="7.1262">
        <ele>411.60000610352</ele>
        <time>2023-08-02T11:09:17.000Z</time>
      </trkpt>
      <trkpt lat="43.75549" lon="7.1262">
        <ele>411.60000610352</ele>
        <time>2023-08-02T11:09:18.000Z</time>
      </trkpt>
      <trkpt lat="43.75549" lon="7.1262">
        <ele>411.60000610352</ele>
        <time>2023-08-02T11:09:19.000Z</time>
      </trkpt>
      <trkpt lat="43.75549" lon="7.1262">
        <ele>411.60000610352</ele>
        <time>2023-08-02T11:09:20.000Z</time>
      </trkpt>
      <trkpt lat="43.75549" lon="7.1262">
        <ele>411.60000610352</ele>
        <time>2023-08-02T11:09:21.000Z</time>
      </trkpt>
      <trkpt lat="43.75549" lon="7.1262">
        <ele>411.60000610352</ele>
        <time>2023-08-02T11:09:22.000Z</time>
      </trkpt>
      <trkpt lat="43.75549" lon="7.1262">
        <ele>411.60000610352</ele>
        <time>2023-08-02T11:09:23.000Z</time>
      </trkpt>
      <trkpt lat="43.75549" lon="7.1262">
        <ele>411.60000610352</ele>
        <time>2023-08-02T11:09:24.000Z</time>
      </trkpt>
      <trkpt lat="43.75549" lon="7.1262">
        <ele>411.60000610352</ele>
        <time>2023-08-02T11:09:25.000Z</time>
      </trkpt>
      <trkpt lat="43.75549" lon="7.1262">
        <ele>411.60000610352</ele>
        <time>2023-08-02T11:09:26.000Z</time>
      </trkpt>
      <trkpt lat="43.75549" lon="7.1262">
        <ele>411.60000610352</ele>
        <time>2023-08-02T11:09:27.000Z</time>
      </trkpt>
      <trkpt lat="43.75549" lon="7.1262">
        <ele>411.60000610352</ele>
        <time>2023-08-02T11:09:28.000Z</time>
      </trkpt>
      <trkpt lat="43.75549" lon="7.1262">
        <ele>411.60000610352</ele>
        <time>2023-08-02T11:09:29.000Z</time>
      </trkpt>
      <trkpt lat="43.75549" lon="7.1262">
        <ele>411.60000610352</ele>
        <time>2023-08-02T11:09:30.000Z</time>
      </trkpt>
      <trkpt lat="43.75549" lon="7.1262">
        <ele>411.60000610352</ele>
        <time>2023-08-02T11:09:31.000Z</time>
      </trkpt>
      <trkpt lat="43.75549" lon="7.1262">
        <ele>411.60000610352</ele>
        <time>2023-08-02T11:09:32.000Z</time>
      </trkpt>
      <trkpt lat="43.75549" lon="7.1262">
        <ele>411.60000610352</ele>
        <time>2023-08-02T11:09:33.000Z</time>
      </trkpt>
      <trkpt lat="43.75549" lon="7.1262">
        <ele>411.60000610352</ele>
        <time>2023-08-02T11:09:34.000Z</time>
      </trkpt>
      <trkpt lat="43.75549" lon="7.1262">
        <ele>411.60000610352</ele>
        <time>2023-08-02T11:09:35.000Z</time>
      </trkpt>
      <trkpt lat="43.75549" lon="7.1262">
        <ele>411.60000610352</ele>
        <time>2023-08-02T11:09:36.000Z</time>
      </trkpt>
      <trkpt lat="43.75549" lon="7.1262">
        <ele>411.60000610352</ele>
        <time>2023-08-02T11:09:37.000Z</time>
      </trkpt>
      <trkpt lat="43.75549" lon="7.1262">
        <ele>411.60000610352</ele>
        <time>2023-08-02T11:09:38.000Z</time>
      </trkpt>
      <trkpt lat="43.75549" lon="7.1262">
        <ele>411.60000610352</ele>
        <time>2023-08-02T11:09:39.000Z</time>
      </trkpt>
      <trkpt lat="43.75549" lon="7.1262">
        <ele>411.60000610352</ele>
        <time>2023-08-02T11:09:40.000Z</time>
      </trkpt>
      <trkpt lat="43.75549" lon="7.1262">
        <ele>411.60000610352</ele>
        <time>2023-08-02T11:09:41.000Z</time>
      </trkpt>
      <trkpt lat="43.75549" lon="7.1262">
        <ele>411.60000610352</ele>
        <time>2023-08-02T11:09:42.000Z</time>
      </trkpt>
      <trkpt lat="43.75549" lon="7.1262">
        <ele>411.60000610352</ele>
        <time>2023-08-02T11:09:43.000Z</time>
      </trkpt>
      <trkpt lat="43.75549" lon="7.1262">
        <ele>411.60000610352</ele>
        <time>2023-08-02T11:09:44.000Z</time>
      </trkpt>
      <trkpt lat="43.75549" lon="7.1262">
        <ele>411.60000610352</ele>
        <time>2023-08-02T11:09:45.000Z</time>
      </trkpt>
      <trkpt lat="43.75549" lon="7.1262">
        <ele>411.60000610352</ele>
        <time>2023-08-02T11:09:46.000Z</time>
      </trkpt>
      <trkpt lat="43.75549" lon="7.1262">
        <ele>411.60000610352</ele>
        <time>2023-08-02T11:09:47.000Z</time>
      </trkpt>
      <trkpt lat="43.75549" lon="7.1262">
        <ele>411.60000610352</ele>
        <time>2023-08-02T11:09:48.000Z</time>
      </trkpt>
      <trkpt lat="43.75549" lon="7.1262">
        <ele>411.60000610352</ele>
        <time>2023-08-02T11:09:49.000Z</time>
      </trkpt>
      <trkpt lat="43.75549" lon="7.1262">
        <ele>411.60000610352</ele>
        <time>2023-08-02T11:09:50.000Z</time>
      </trkpt>
      <trkpt lat="43.75549" lon="7.1262">
        <ele>411.60000610352</ele>
        <time>2023-08-02T11:09:51.000Z</time>
      </trkpt>
      <trkpt lat="43.75549" lon="7.1262">
        <ele>411.60000610352</ele>
        <time>2023-08-02T11:09:52.000Z</time>
      </trkpt>
      <trkpt lat="43.75549" lon="7.1262">
        <ele>411.60000610352</ele>
        <time>2023-08-02T11:09:53.000Z</time>
      </trkpt>
      <trkpt lat="43.75549" lon="7.1262">
        <ele>411.60000610352</ele>
        <time>2023-08-02T11:09:54.000Z</time>
      </trkpt>
      <trkpt lat="43.75549" lon="7.1262">
        <ele>411.60000610352</ele>
        <time>2023-08-02T11:09:55.000Z</time>
      </trkpt>
      <trkpt lat="43.75549" lon="7.1262">
        <ele>411.60000610352</ele>
        <time>2023-08-02T11:09:56.000Z</time>
      </trkpt>
      <trkpt lat="43.75549" lon="7.1262">
        <ele>411.60000610352</ele>
        <time>2023-08-02T11:09:57.000Z</time>
      </trkpt>
      <trkpt lat="43.75549" lon="7.1262">
        <ele>411.60000610352</ele>
        <time>2023-08-02T11:09:58.000Z</time>
      </trkpt>
      <trkpt lat="43.75549" lon="7.1262">
        <ele>411.60000610352</ele>
        <time>2023-08-02T11:09:59.000Z</time>
      </trkpt>
      <trkpt lat="43.75549" lon="7.1262">
        <ele>411.60000610352</ele>
        <time>2023-08-02T11:10:00.000Z</time>
      </trkpt>
      <trkpt lat="43.75549" lon="7.1262">
        <ele>411.60000610352</ele>
        <time>2023-08-02T11:10:01.000Z</time>
      </trkpt>
      <trkpt lat="43.75549" lon="7.1262">
        <ele>411.60000610352</ele>
        <time>2023-08-02T11:10:02.000Z</time>
      </trkpt>
      <trkpt lat="43.75549" lon="7.1262">
        <ele>411.60000610352</ele>
        <time>2023-08-02T11:10:03.000Z</time>
      </trkpt>
      <trkpt lat="43.75549" lon="7.1262">
        <ele>411.60000610352</ele>
        <time>2023-08-02T11:10:04.000Z</time>
      </trkpt>
      <trkpt lat="43.75549" lon="7.1262">
        <ele>411.60000610352</ele>
        <time>2023-08-02T11:10:05.000Z</time>
      </trkpt>
      <trkpt lat="43.75549" lon="7.1262">
        <ele>411.60000610352</ele>
        <time>2023-08-02T11:10:06.000Z</time>
      </trkpt>
      <trkpt lat="43.75549" lon="7.1262">
        <ele>411.60000610352</ele>
        <time>2023-08-02T11:10:07.000Z</time>
      </trkpt>
      <trkpt lat="43.75549" lon="7.1262">
        <ele>411.60000610352</ele>
        <time>2023-08-02T11:10:08.000Z</time>
      </trkpt>
      <trkpt lat="43.75549" lon="7.1262">
        <ele>411.60000610352</ele>
        <time>2023-08-02T11:10:09.000Z</time>
      </trkpt>
      <trkpt lat="43.75549" lon="7.1262">
        <ele>411.60000610352</ele>
        <time>2023-08-02T11:10:10.000Z</time>
      </trkpt>
      <trkpt lat="43.75549" lon="7.1262">
        <ele>411.60000610352</ele>
        <time>2023-08-02T11:10:11.000Z</time>
      </trkpt>
      <trkpt lat="43.75549" lon="7.1262">
        <ele>411.60000610352</ele>
        <time>2023-08-02T11:10:12.000Z</time>
      </trkpt>
      <trkpt lat="43.75549" lon="7.1262">
        <ele>411.60000610352</ele>
        <time>2023-08-02T11:10:13.000Z</time>
      </trkpt>
      <trkpt lat="43.75549" lon="7.1262">
        <ele>411.60000610352</ele>
        <time>2023-08-02T11:10:14.000Z</time>
      </trkpt>
      <trkpt lat="43.75549" lon="7.1262">
        <ele>411.60000610352</ele>
        <time>2023-08-02T11:10:15.000Z</time>
      </trkpt>
      <trkpt lat="43.75549" lon="7.1262">
        <ele>411.60000610352</ele>
        <time>2023-08-02T11:10:16.000Z</time>
      </trkpt>
      <trkpt lat="43.75549" lon="7.1262">
        <ele>411.60000610352</ele>
        <time>2023-08-02T11:10:17.000Z</time>
      </trkpt>
      <trkpt lat="43.75549" lon="7.1262">
        <ele>411.60000610352</ele>
        <time>2023-08-02T11:10:18.000Z</time>
      </trkpt>
      <trkpt lat="43.75549" lon="7.1262">
        <ele>411.60000610352</ele>
        <time>2023-08-02T11:10:19.000Z</time>
      </trkpt>
      <trkpt lat="43.75549" lon="7.1262">
        <ele>411.60000610352</ele>
        <time>2023-08-02T11:10:20.000Z</time>
      </trkpt>
      <trkpt lat="43.75549" lon="7.1262">
        <ele>411.60000610352</ele>
        <time>2023-08-02T11:10:21.000Z</time>
      </trkpt>
      <trkpt lat="43.75549" lon="7.1262">
        <ele>411.60000610352</ele>
        <time>2023-08-02T11:10:22.000Z</time>
      </trkpt>
      <trkpt lat="43.75549" lon="7.1262">
        <ele>411.60000610352</ele>
        <time>2023-08-02T11:10:23.000Z</time>
      </trkpt>
      <trkpt lat="43.75549" lon="7.1262">
        <ele>411.60000610352</ele>
        <time>2023-08-02T11:10:24.000Z</time>
      </trkpt>
      <trkpt lat="43.75549" lon="7.1262">
        <ele>411.60000610352</ele>
        <time>2023-08-02T11:10:25.000Z</time>
      </trkpt>
      <trkpt lat="43.75549" lon="7.1262">
        <ele>411.60000610352</ele>
        <time>2023-08-02T11:10:26.000Z</time>
      </trkpt>
      <trkpt lat="43.75549" lon="7.1262">
        <ele>411.60000610352</ele>
        <time>2023-08-02T11:10:27.000Z</time>
      </trkpt>
      <trkpt lat="43.75549" lon="7.1262">
        <ele>411.60000610352</ele>
        <time>2023-08-02T11:10:28.000Z</time>
      </trkpt>
      <trkpt lat="43.75549" lon="7.1262">
        <ele>411.60000610352</ele>
        <time>2023-08-02T11:10:29.000Z</time>
      </trkpt>
      <trkpt lat="43.75549" lon="7.1262">
        <ele>411.60000610352</ele>
        <time>2023-08-02T11:10:30.000Z</time>
      </trkpt>
      <trkpt lat="43.75549" lon="7.1262">
        <ele>411.60000610352</ele>
        <time>2023-08-02T11:10:31.000Z</time>
      </trkpt>
      <trkpt lat="43.75549" lon="7.1262">
        <ele>411.60000610352</ele>
        <time>2023-08-02T11:10:32.000Z</time>
      </trkpt>
      <trkpt lat="43.75549" lon="7.1262">
        <ele>411.60000610352</ele>
        <time>2023-08-02T11:10:33.000Z</time>
      </trkpt>
      <trkpt lat="43.75549" lon="7.1262">
        <ele>411.60000610352</ele>
        <time>2023-08-02T11:10:34.000Z</time>
      </trkpt>
      <trkpt lat="43.75549" lon="7.1262">
        <ele>411.60000610352</ele>
        <time>2023-08-02T11:10:35.000Z</time>
      </trkpt>
      <trkpt lat="43.75549" lon="7.1262">
        <ele>411.60000610352</ele>
        <time>2023-08-02T11:10:36.000Z</time>
      </trkpt>
      <trkpt lat="43.75549" lon="7.1262">
        <ele>411.60000610352</ele>
        <time>2023-08-02T11:10:37.000Z</time>
      </trkpt>
      <trkpt lat="43.75549" lon="7.1262">
        <ele>411.60000610352</ele>
        <time>2023-08-02T11:10:38.000Z</time>
      </trkpt>
      <trkpt lat="43.75549" lon="7.1262">
        <ele>411.60000610352</ele>
        <time>2023-08-02T11:10:39.000Z</time>
      </trkpt>
      <trkpt lat="43.75549" lon="7.1262">
        <ele>411.60000610352</ele>
        <time>2023-08-02T11:10:40.000Z</time>
      </trkpt>
      <trkpt lat="43.75549" lon="7.1262">
        <ele>411.60000610352</ele>
        <time>2023-08-02T11:10:41.000Z</time>
      </trkpt>
      <trkpt lat="43.75549" lon="7.1262">
        <ele>411.60000610352</ele>
        <time>2023-08-02T11:10:42.000Z</time>
      </trkpt>
      <trkpt lat="43.75549" lon="7.1262">
        <ele>411.60000610352</ele>
        <time>2023-08-02T11:10:43.000Z</time>
      </trkpt>
      <trkpt lat="43.75549" lon="7.1262">
        <ele>411.60000610352</ele>
        <time>2023-08-02T11:10:44.000Z</time>
      </trkpt>
      <trkpt lat="43.75549" lon="7.1262">
        <ele>411.60000610352</ele>
        <time>2023-08-02T11:10:45.000Z</time>
      </trkpt>
      <trkpt lat="43.75549" lon="7.1262">
        <ele>411.60000610352</ele>
        <time>2023-08-02T11:10:46.000Z</time>
      </trkpt>
      <trkpt lat="43.75549" lon="7.1262">
        <ele>411.60000610352</ele>
        <time>2023-08-02T11:10:47.000Z</time>
      </trkpt>
      <trkpt lat="43.75549" lon="7.1262">
        <ele>411.60000610352</ele>
        <time>2023-08-02T11:10:48.000Z</time>
      </trkpt>
      <trkpt lat="43.75549" lon="7.1262">
        <ele>411.60000610352</ele>
        <time>2023-08-02T11:10:49.000Z</time>
      </trkpt>
      <trkpt lat="43.75549" lon="7.1262">
        <ele>411.60000610352</ele>
        <time>2023-08-02T11:10:50.000Z</time>
      </trkpt>
      <trkpt lat="43.75549" lon="7.1262">
        <ele>411.60000610352</ele>
        <time>2023-08-02T11:10:51.000Z</time>
      </trkpt>
      <trkpt lat="43.75549" lon="7.1262">
        <ele>411.60000610352</ele>
        <time>2023-08-02T11:10:52.000Z</time>
      </trkpt>
      <trkpt lat="43.75549" lon="7.1262">
        <ele>411.60000610352</ele>
        <time>2023-08-02T11:10:53.000Z</time>
      </trkpt>
      <trkpt lat="43.75549" lon="7.1262">
        <ele>411.60000610352</ele>
        <time>2023-08-02T11:10:54.000Z</time>
      </trkpt>
      <trkpt lat="43.75549" lon="7.1262">
        <ele>411.60000610352</ele>
        <time>2023-08-02T11:10:55.000Z</time>
      </trkpt>
      <trkpt lat="43.75549" lon="7.1262">
        <ele>411.60000610352</ele>
        <time>2023-08-02T11:10:56.000Z</time>
      </trkpt>
      <trkpt lat="43.75549" lon="7.1262">
        <ele>411.60000610352</ele>
        <time>2023-08-02T11:10:57.000Z</time>
      </trkpt>
      <trkpt lat="43.75549" lon="7.1262">
        <ele>411.60000610352</ele>
        <time>2023-08-02T11:10:58.000Z</time>
      </trkpt>
      <trkpt lat="43.75549" lon="7.1262">
        <ele>411.60000610352</ele>
        <time>2023-08-02T11:10:59.000Z</time>
      </trkpt>
      <trkpt lat="43.75549" lon="7.1262">
        <ele>411.60000610352</ele>
        <time>2023-08-02T11:11:00.000Z</time>
      </trkpt>
      <trkpt lat="43.75549" lon="7.1262">
        <ele>411.60000610352</ele>
        <time>2023-08-02T11:11:01.000Z</time>
      </trkpt>
      <trkpt lat="43.75549" lon="7.1262">
        <ele>411.60000610352</ele>
        <time>2023-08-02T11:11:02.000Z</time>
      </trkpt>
      <trkpt lat="43.75549" lon="7.1262">
        <ele>411.60000610352</ele>
        <time>2023-08-02T11:11:03.000Z</time>
      </trkpt>
      <trkpt lat="43.75549" lon="7.1262">
        <ele>411.60000610352</ele>
        <time>2023-08-02T11:11:04.000Z</time>
      </trkpt>
      <trkpt lat="43.75549" lon="7.1262">
        <ele>411.60000610352</ele>
        <time>2023-08-02T11:11:05.000Z</time>
      </trkpt>
      <trkpt lat="43.75549" lon="7.1262">
        <ele>411.60000610352</ele>
        <time>2023-08-02T11:11:06.000Z</time>
      </trkpt>
      <trkpt lat="43.75549" lon="7.1262">
        <ele>411.60000610352</ele>
        <time>2023-08-02T11:11:07.000Z</time>
      </trkpt>
      <trkpt lat="43.75549" lon="7.1262">
        <ele>411.60000610352</ele>
        <time>2023-08-02T11:11:08.000Z</time>
      </trkpt>
      <trkpt lat="43.75549" lon="7.1262">
        <ele>411.60000610352</ele>
        <time>2023-08-02T11:11:09.000Z</time>
      </trkpt>
      <trkpt lat="43.75549" lon="7.1262">
        <ele>411.60000610352</ele>
        <time>2023-08-02T11:11:10.000Z</time>
      </trkpt>
      <trkpt lat="43.75549" lon="7.1262">
        <ele>411.60000610352</ele>
        <time>2023-08-02T11:11:11.000Z</time>
      </trkpt>
      <trkpt lat="43.75549" lon="7.1262">
        <ele>411.60000610352</ele>
        <time>2023-08-02T11:11:12.000Z</time>
      </trkpt>
      <trkpt lat="43.75549" lon="7.1262">
        <ele>411.60000610352</ele>
        <time>2023-08-02T11:11:13.000Z</time>
      </trkpt>
      <trkpt lat="43.75549" lon="7.1262">
        <ele>411.60000610352</ele>
        <time>2023-08-02T11:11:14.000Z</time>
      </trkpt>
      <trkpt lat="43.75549" lon="7.1262">
        <ele>411.60000610352</ele>
        <time>2023-08-02T11:11:15.000Z</time>
      </trkpt>
      <trkpt lat="43.75549" lon="7.1262">
        <ele>411.60000610352</ele>
        <time>2023-08-02T11:11:16.000Z</time>
      </trkpt>
      <trkpt lat="43.75549" lon="7.1262">
        <ele>411.60000610352</ele>
        <time>2023-08-02T11:11:17.000Z</time>
      </trkpt>
      <trkpt lat="43.75549" lon="7.1262">
        <ele>411.60000610352</ele>
        <time>2023-08-02T11:11:18.000Z</time>
      </trkpt>
      <trkpt lat="43.75549" lon="7.1262">
        <ele>411.60000610352</ele>
        <time>2023-08-02T11:11:19.000Z</time>
      </trkpt>
      <trkpt lat="43.75549" lon="7.1262">
        <ele>411.60000610352</ele>
        <time>2023-08-02T11:11:20.000Z</time>
      </trkpt>
      <trkpt lat="43.75549" lon="7.1262">
        <ele>411.60000610352</ele>
        <time>2023-08-02T11:11:21.000Z</time>
      </trkpt>
      <trkpt lat="43.75549" lon="7.1262">
        <ele>411.60000610352</ele>
        <time>2023-08-02T11:11:22.000Z</time>
      </trkpt>
      <trkpt lat="43.75549" lon="7.1262">
        <ele>411.60000610352</ele>
        <time>2023-08-02T11:11:23.000Z</time>
      </trkpt>
      <trkpt lat="43.75549" lon="7.1262">
        <ele>411.60000610352</ele>
        <time>2023-08-02T11:11:24.000Z</time>
      </trkpt>
      <trkpt lat="43.75549" lon="7.1262">
        <ele>411.60000610352</ele>
        <time>2023-08-02T11:11:25.000Z</time>
      </trkpt>
      <trkpt lat="43.75549" lon="7.1262">
        <ele>411.60000610352</ele>
        <time>2023-08-02T11:11:26.000Z</time>
      </trkpt>
      <trkpt lat="43.75549" lon="7.1262">
        <ele>411.60000610352</ele>
        <time>2023-08-02T11:11:27.000Z</time>
      </trkpt>
      <trkpt lat="43.75549" lon="7.1262">
        <ele>411.60000610352</ele>
        <time>2023-08-02T11:11:28.000Z</time>
      </trkpt>
      <trkpt lat="43.75549" lon="7.1262">
        <ele>411.60000610352</ele>
        <time>2023-08-02T11:11:29.000Z</time>
      </trkpt>
      <trkpt lat="43.75549" lon="7.1262">
        <ele>411.60000610352</ele>
        <time>2023-08-02T11:11:30.000Z</time>
      </trkpt>
      <trkpt lat="43.75549" lon="7.1262">
        <ele>411.60000610352</ele>
        <time>2023-08-02T11:11:31.000Z</time>
      </trkpt>
      <trkpt lat="43.75549" lon="7.1262">
        <ele>411.60000610352</ele>
        <time>2023-08-02T11:11:32.000Z</time>
      </trkpt>
      <trkpt lat="43.75549" lon="7.1262">
        <ele>411.60000610352</ele>
        <time>2023-08-02T11:11:33.000Z</time>
      </trkpt>
      <trkpt lat="43.75549" lon="7.1262">
        <ele>411.60000610352</ele>
        <time>2023-08-02T11:11:34.000Z</time>
      </trkpt>
      <trkpt lat="43.75549" lon="7.1262">
        <ele>411.60000610352</ele>
        <time>2023-08-02T11:11:35.000Z</time>
      </trkpt>
      <trkpt lat="43.75549" lon="7.1262">
        <ele>411.60000610352</ele>
        <time>2023-08-02T11:11:36.000Z</time>
      </trkpt>
      <trkpt lat="43.75549" lon="7.1262">
        <ele>411.60000610352</ele>
        <time>2023-08-02T11:11:37.000Z</time>
      </trkpt>
      <trkpt lat="43.75549" lon="7.1262">
        <ele>411.60000610352</ele>
        <time>2023-08-02T11:11:38.000Z</time>
      </trkpt>
      <trkpt lat="43.75549" lon="7.1262">
        <ele>411.60000610352</ele>
        <time>2023-08-02T11:11:39.000Z</time>
      </trkpt>
      <trkpt lat="43.75549" lon="7.1262">
        <ele>411.60000610352</ele>
        <time>2023-08-02T11:11:40.000Z</time>
      </trkpt>
      <trkpt lat="43.75549" lon="7.1262">
        <ele>411.60000610352</ele>
        <time>2023-08-02T11:11:41.000Z</time>
      </trkpt>
      <trkpt lat="43.75549" lon="7.1262">
        <ele>411.60000610352</ele>
        <time>2023-08-02T11:11:42.000Z</time>
      </trkpt>
      <trkpt lat="43.75549" lon="7.1262">
        <ele>411.60000610352</ele>
        <time>2023-08-02T11:11:43.000Z</time>
      </trkpt>
      <trkpt lat="43.75549" lon="7.1262">
        <ele>411.60000610352</ele>
        <time>2023-08-02T11:11:44.000Z</time>
      </trkpt>
      <trkpt lat="43.75549" lon="7.1262">
        <ele>411.60000610352</ele>
        <time>2023-08-02T11:11:45.000Z</time>
      </trkpt>
      <trkpt lat="43.75549" lon="7.1262">
        <ele>411.60000610352</ele>
        <time>2023-08-02T11:11:46.000Z</time>
      </trkpt>
      <trkpt lat="43.75549" lon="7.1262">
        <ele>411.60000610352</ele>
        <time>2023-08-02T11:11:47.000Z</time>
      </trkpt>
      <trkpt lat="43.75549" lon="7.1262">
        <ele>411.60000610352</ele>
        <time>2023-08-02T11:11:48.000Z</time>
      </trkpt>
      <trkpt lat="43.75549" lon="7.1262">
        <ele>411.60000610352</ele>
        <time>2023-08-02T11:11:49.000Z</time>
      </trkpt>
      <trkpt lat="43.75549" lon="7.1262">
        <ele>411.60000610352</ele>
        <time>2023-08-02T11:11:50.000Z</time>
      </trkpt>
      <trkpt lat="43.75549" lon="7.1262">
        <ele>411.60000610352</ele>
        <time>2023-08-02T11:11:51.000Z</time>
      </trkpt>
      <trkpt lat="43.75549" lon="7.1262">
        <ele>411.60000610352</ele>
        <time>2023-08-02T11:11:52.000Z</time>
      </trkpt>
      <trkpt lat="43.75549" lon="7.1262">
        <ele>411.60000610352</ele>
        <time>2023-08-02T11:11:53.000Z</time>
      </trkpt>
      <trkpt lat="43.75549" lon="7.1262">
        <ele>411.60000610352</ele>
        <time>2023-08-02T11:11:54.000Z</time>
      </trkpt>
      <trkpt lat="43.75549" lon="7.1262">
        <ele>411.60000610352</ele>
        <time>2023-08-02T11:11:55.000Z</time>
      </trkpt>
      <trkpt lat="43.75549" lon="7.1262">
        <ele>411.60000610352</ele>
        <time>2023-08-02T11:11:56.000Z</time>
      </trkpt>
      <trkpt lat="43.75549" lon="7.1262">
        <ele>411.60000610352</ele>
        <time>2023-08-02T11:11:57.000Z</time>
      </trkpt>
      <trkpt lat="43.75549" lon="7.1262">
        <ele>411.60000610352</ele>
        <time>2023-08-02T11:11:58.000Z</time>
      </trkpt>
      <trkpt lat="43.75549" lon="7.1262">
        <ele>411.60000610352</ele>
        <time>2023-08-02T11:11:59.000Z</time>
      </trkpt>
      <trkpt lat="43.75549" lon="7.1262">
        <ele>411.60000610352</ele>
        <time>2023-08-02T11:12:00.000Z</time>
      </trkpt>
      <trkpt lat="43.75549" lon="7.1262">
        <ele>411.60000610352</ele>
        <time>2023-08-02T11:12:01.000Z</time>
      </trkpt>
      <trkpt lat="43.75549" lon="7.1262">
        <ele>411.60000610352</ele>
        <time>2023-08-02T11:12:02.000Z</time>
      </trkpt>
      <trkpt lat="43.75549" lon="7.1262">
        <ele>411.60000610352</ele>
        <time>2023-08-02T11:12:03.000Z</time>
      </trkpt>
      <trkpt lat="43.75549" lon="7.1262">
        <ele>411.60000610352</ele>
        <time>2023-08-02T11:12:04.000Z</time>
      </trkpt>
      <trkpt lat="43.75549" lon="7.1262">
        <ele>411.60000610352</ele>
        <time>2023-08-02T11:12:05.000Z</time>
      </trkpt>
      <trkpt lat="43.75549" lon="7.1262">
        <ele>411.60000610352</ele>
        <time>2023-08-02T11:12:06.000Z</time>
      </trkpt>
      <trkpt lat="43.75549" lon="7.1262">
        <ele>411.60000610352</ele>
        <time>2023-08-02T11:12:07.000Z</time>
      </trkpt>
      <trkpt lat="43.75549" lon="7.1262">
        <ele>411.60000610352</ele>
        <time>2023-08-02T11:12:08.000Z</time>
      </trkpt>
      <trkpt lat="43.75549" lon="7.1262">
        <ele>411.60000610352</ele>
        <time>2023-08-02T11:12:09.000Z</time>
      </trkpt>
      <trkpt lat="43.75549" lon="7.1262">
        <ele>411.60000610352</ele>
        <time>2023-08-02T11:12:10.000Z</time>
      </trkpt>
      <trkpt lat="43.75549" lon="7.1262">
        <ele>411.60000610352</ele>
        <time>2023-08-02T11:12:11.000Z</time>
      </trkpt>
      <trkpt lat="43.75549" lon="7.1262">
        <ele>411.60000610352</ele>
        <time>2023-08-02T11:12:12.000Z</time>
      </trkpt>
      <trkpt lat="43.75549" lon="7.1262">
        <ele>411.60000610352</ele>
        <time>2023-08-02T11:12:13.000Z</time>
      </trkpt>
      <trkpt lat="43.75549" lon="7.1262">
        <ele>411.60000610352</ele>
        <time>2023-08-02T11:12:14.000Z</time>
      </trkpt>
      <trkpt lat="43.75549" lon="7.1262">
        <ele>411.60000610352</ele>
        <time>2023-08-02T11:12:15.000Z</time>
      </trkpt>
      <trkpt lat="43.75549" lon="7.1262">
        <ele>411.60000610352</ele>
        <time>2023-08-02T11:12:16.000Z</time>
      </trkpt>
      <trkpt lat="43.75549" lon="7.1262">
        <ele>411.60000610352</ele>
        <time>2023-08-02T11:12:17.000Z</time>
      </trkpt>
      <trkpt lat="43.75549" lon="7.1262">
        <ele>411.60000610352</ele>
        <time>2023-08-02T11:12:18.000Z</time>
      </trkpt>
      <trkpt lat="43.75549" lon="7.1262">
        <ele>411.60000610352</ele>
        <time>2023-08-02T11:12:19.000Z</time>
      </trkpt>
      <trkpt lat="43.75549" lon="7.1262">
        <ele>411.60000610352</ele>
        <time>2023-08-02T11:12:20.000Z</time>
      </trkpt>
      <trkpt lat="43.75549" lon="7.1262">
        <ele>411.60000610352</ele>
        <time>2023-08-02T11:12:21.000Z</time>
      </trkpt>
      <trkpt lat="43.75549" lon="7.1262">
        <ele>411.60000610352</ele>
        <time>2023-08-02T11:12:22.000Z</time>
      </trkpt>
      <trkpt lat="43.75549" lon="7.1262">
        <ele>411.60000610352</ele>
        <time>2023-08-02T11:12:23.000Z</time>
      </trkpt>
      <trkpt lat="43.75549" lon="7.1262">
        <ele>411.60000610352</ele>
        <time>2023-08-02T11:12:24.000Z</time>
      </trkpt>
      <trkpt lat="43.75549" lon="7.1262">
        <ele>411.60000610352</ele>
        <time>2023-08-02T11:12:25.000Z</time>
      </trkpt>
      <trkpt lat="43.75549" lon="7.1262">
        <ele>411.60000610352</ele>
        <time>2023-08-02T11:12:26.000Z</time>
      </trkpt>
      <trkpt lat="43.75549" lon="7.1262">
        <ele>411.60000610352</ele>
        <time>2023-08-02T11:12:27.000Z</time>
      </trkpt>
      <trkpt lat="43.75549" lon="7.1262">
        <ele>411.60000610352</ele>
        <time>2023-08-02T11:12:28.000Z</time>
      </trkpt>
      <trkpt lat="43.75549" lon="7.1262">
        <ele>411.60000610352</ele>
        <time>2023-08-02T11:12:29.000Z</time>
      </trkpt>
      <trkpt lat="43.75549" lon="7.1262">
        <ele>411.60000610352</ele>
        <time>2023-08-02T11:12:30.000Z</time>
      </trkpt>
      <trkpt lat="43.75549" lon="7.1262">
        <ele>411.60000610352</ele>
        <time>2023-08-02T11:12:31.000Z</time>
      </trkpt>
      <trkpt lat="43.75549" lon="7.1262">
        <ele>411.60000610352</ele>
        <time>2023-08-02T11:12:32.000Z</time>
      </trkpt>
      <trkpt lat="43.75549" lon="7.1262">
        <ele>411.60000610352</ele>
        <time>2023-08-02T11:12:33.000Z</time>
      </trkpt>
      <trkpt lat="43.75549" lon="7.1262">
        <ele>411.60000610352</ele>
        <time>2023-08-02T11:12:34.000Z</time>
      </trkpt>
      <trkpt lat="43.75549" lon="7.1262">
        <ele>411.60000610352</ele>
        <time>2023-08-02T11:12:35.000Z</time>
      </trkpt>
      <trkpt lat="43.75549" lon="7.1262">
        <ele>411.60000610352</ele>
        <time>2023-08-02T11:12:36.000Z</time>
      </trkpt>
      <trkpt lat="43.75549" lon="7.1262">
        <ele>411.60000610352</ele>
        <time>2023-08-02T11:12:37.000Z</time>
      </trkpt>
      <trkpt lat="43.75549" lon="7.1262">
        <ele>411.60000610352</ele>
        <time>2023-08-02T11:12:38.000Z</time>
      </trkpt>
      <trkpt lat="43.75549" lon="7.1262">
        <ele>411.60000610352</ele>
        <time>2023-08-02T11:12:39.000Z</time>
      </trkpt>
      <trkpt lat="43.75549" lon="7.1262">
        <ele>411.60000610352</ele>
        <time>2023-08-02T11:12:40.000Z</time>
      </trkpt>
      <trkpt lat="43.75549" lon="7.1262">
        <ele>411.60000610352</ele>
        <time>2023-08-02T11:12:41.000Z</time>
      </trkpt>
      <trkpt lat="43.75549" lon="7.1262">
        <ele>411.60000610352</ele>
        <time>2023-08-02T11:12:42.000Z</time>
      </trkpt>
      <trkpt lat="43.75549" lon="7.1262">
        <ele>411.60000610352</ele>
        <time>2023-08-02T11:12:43.000Z</time>
      </trkpt>
      <trkpt lat="43.75549" lon="7.1262">
        <ele>411.60000610352</ele>
        <time>2023-08-02T11:12:44.000Z</time>
      </trkpt>
      <trkpt lat="43.75549" lon="7.1262">
        <ele>411.60000610352</ele>
        <time>2023-08-02T11:12:45.000Z</time>
      </trkpt>
      <trkpt lat="43.75549" lon="7.1262">
        <ele>411.60000610352</ele>
        <time>2023-08-02T11:12:46.000Z</time>
      </trkpt>
      <trkpt lat="43.75549" lon="7.1262">
        <ele>411.60000610352</ele>
        <time>2023-08-02T11:12:47.000Z</time>
      </trkpt>
      <trkpt lat="43.75549" lon="7.1262">
        <ele>411.60000610352</ele>
        <time>2023-08-02T11:12:48.000Z</time>
      </trkpt>
      <trkpt lat="43.75549" lon="7.1262">
        <ele>411.60000610352</ele>
        <time>2023-08-02T11:12:49.000Z</time>
      </trkpt>
      <trkpt lat="43.75549" lon="7.1262">
        <ele>411.60000610352</ele>
        <time>2023-08-02T11:12:50.000Z</time>
      </trkpt>
      <trkpt lat="43.75549" lon="7.1262">
        <ele>411.60000610352</ele>
        <time>2023-08-02T11:12:51.000Z</time>
      </trkpt>
      <trkpt lat="43.75549" lon="7.1262">
        <ele>411.60000610352</ele>
        <time>2023-08-02T11:12:52.000Z</time>
      </trkpt>
      <trkpt lat="43.75549" lon="7.1262">
        <ele>411.60000610352</ele>
        <time>2023-08-02T11:12:53.000Z</time>
      </trkpt>
      <trkpt lat="43.75549" lon="7.1262">
        <ele>411.60000610352</ele>
        <time>2023-08-02T11:12:54.000Z</time>
      </trkpt>
      <trkpt lat="43.75549" lon="7.1262">
        <ele>411.60000610352</ele>
        <time>2023-08-02T11:12:55.000Z</time>
      </trkpt>
      <trkpt lat="43.75549" lon="7.1262">
        <ele>411.60000610352</ele>
        <time>2023-08-02T11:12:56.000Z</time>
      </trkpt>
      <trkpt lat="43.75549" lon="7.1262">
        <ele>411.60000610352</ele>
        <time>2023-08-02T11:12:57.000Z</time>
      </trkpt>
      <trkpt lat="43.75549" lon="7.1262">
        <ele>411.60000610352</ele>
        <time>2023-08-02T11:12:58.000Z</time>
      </trkpt>
      <trkpt lat="43.75549" lon="7.1262">
        <ele>411.60000610352</ele>
        <time>2023-08-02T11:12:59.000Z</time>
      </trkpt>
      <trkpt lat="43.75549" lon="7.1262">
        <ele>411.60000610352</ele>
        <time>2023-08-02T11:13:00.000Z</time>
      </trkpt>
      <trkpt lat="43.75549" lon="7.1262">
        <ele>411.60000610352</ele>
        <time>2023-08-02T11:13:01.000Z</time>
      </trkpt>
      <trkpt lat="43.75549" lon="7.1262">
        <ele>411.60000610352</ele>
        <time>2023-08-02T11:13:02.000Z</time>
      </trkpt>
      <trkpt lat="43.75549" lon="7.1262">
        <ele>411.60000610352</ele>
        <time>2023-08-02T11:13:03.000Z</time>
      </trkpt>
      <trkpt lat="43.75549" lon="7.1262">
        <ele>411.60000610352</ele>
        <time>2023-08-02T11:13:04.000Z</time>
      </trkpt>
      <trkpt lat="43.75548" lon="7.1262">
        <ele>411.60000610352</ele>
        <time>2023-08-02T11:13:05.000Z</time>
      </trkpt>
      <trkpt lat="43.75548" lon="7.1262">
        <ele>411.60000610352</ele>
        <time>2023-08-02T11:13:06.000Z</time>
      </trkpt>
      <trkpt lat="43.75548" lon="7.1262">
        <ele>411.60000610352</ele>
        <time>2023-08-02T11:13:07.000Z</time>
      </trkpt>
      <trkpt lat="43.75548" lon="7.12619">
        <ele>411.60000610352</ele>
        <time>2023-08-02T11:13:08.000Z</time>
      </trkpt>
      <trkpt lat="43.75548" lon="7.12619">
        <ele>411.60000610352</ele>
        <time>2023-08-02T11:13:09.000Z</time>
      </trkpt>
      <trkpt lat="43.75548" lon="7.12619">
        <ele>411.60000610352</ele>
        <time>2023-08-02T11:13:10.000Z</time>
      </trkpt>
      <trkpt lat="43.75548" lon="7.12619">
        <ele>411.60000610352</ele>
        <time>2023-08-02T11:13:11.000Z</time>
      </trkpt>
      <trkpt lat="43.75548" lon="7.12619">
        <ele>411.60000610352</ele>
        <time>2023-08-02T11:13:12.000Z</time>
      </trkpt>
      <trkpt lat="43.75548" lon="7.12619">
        <ele>411.60000610352</ele>
        <time>2023-08-02T11:13:13.000Z</time>
      </trkpt>
      <trkpt lat="43.75548" lon="7.12619">
        <ele>411.60000610352</ele>
        <time>2023-08-02T11:13:14.000Z</time>
      </trkpt>
      <trkpt lat="43.75548" lon="7.12619">
        <ele>411.60000610352</ele>
        <time>2023-08-02T11:13:15.000Z</time>
      </trkpt>
      <trkpt lat="43.75548" lon="7.12619">
        <ele>411.60000610352</ele>
        <time>2023-08-02T11:13:16.000Z</time>
      </trkpt>
      <trkpt lat="43.75546" lon="7.12618">
        <ele>411.60000610352</ele>
        <time>2023-08-02T11:13:17.000Z</time>
      </trkpt>
      <trkpt lat="43.75546" lon="7.12618">
        <ele>411.60000610352</ele>
        <time>2023-08-02T11:13:18.000Z</time>
      </trkpt>
      <trkpt lat="43.75546" lon="7.12618">
        <ele>411.60000610352</ele>
        <time>2023-08-02T11:13:19.000Z</time>
      </trkpt>
      <trkpt lat="43.75546" lon="7.12618">
        <ele>411.60000610352</ele>
        <time>2023-08-02T11:13:20.000Z</time>
      </trkpt>
      <trkpt lat="43.75546" lon="7.12618">
        <ele>411.60000610352</ele>
        <time>2023-08-02T11:13:21.000Z</time>
      </trkpt>
      <trkpt lat="43.75546" lon="7.12618">
        <ele>411.60000610352</ele>
        <time>2023-08-02T11:13:22.000Z</time>
      </trkpt>
      <trkpt lat="43.75546" lon="7.12618">
        <ele>411.60000610352</ele>
        <time>2023-08-02T11:13:23.000Z</time>
      </trkpt>
      <trkpt lat="43.75546" lon="7.12618">
        <ele>411.60000610352</ele>
        <time>2023-08-02T11:13:24.000Z</time>
      </trkpt>
      <trkpt lat="43.75546" lon="7.12618">
        <ele>411.60000610352</ele>
        <time>2023-08-02T11:13:25.000Z</time>
      </trkpt>
      <trkpt lat="43.75546" lon="7.12617">
        <ele>411.60000610352</ele>
        <time>2023-08-02T11:13:26.000Z</time>
      </trkpt>
      <trkpt lat="43.75546" lon="7.12617">
        <ele>411.60000610352</ele>
        <time>2023-08-02T11:13:27.000Z</time>
      </trkpt>
      <trkpt lat="43.75546" lon="7.12618">
        <ele>411.60000610352</ele>
        <time>2023-08-02T11:13:28.000Z</time>
      </trkpt>
      <trkpt lat="43.75546" lon="7.12618">
        <ele>411.60000610352</ele>
        <time>2023-08-02T11:13:29.000Z</time>
      </trkpt>
      <trkpt lat="43.75546" lon="7.12618">
        <ele>411.60000610352</ele>
        <time>2023-08-02T11:13:30.000Z</time>
      </trkpt>
      <trkpt lat="43.75546" lon="7.12618">
        <ele>411.60000610352</ele>
        <time>2023-08-02T11:13:31.000Z</time>
      </trkpt>
      <trkpt lat="43.75546" lon="7.12618">
        <ele>411.60000610352</ele>
        <time>2023-08-02T11:13:32.000Z</time>
      </trkpt>
      <trkpt lat="43.75546" lon="7.12618">
        <ele>411.60000610352</ele>
        <time>2023-08-02T11:13:33.000Z</time>
      </trkpt>
      <trkpt lat="43.75546" lon="7.12618">
        <ele>411.60000610352</ele>
        <time>2023-08-02T11:13:34.000Z</time>
      </trkpt>
      <trkpt lat="43.75546" lon="7.12618">
        <ele>411.60000610352</ele>
        <time>2023-08-02T11:13:35.000Z</time>
      </trkpt>
      <trkpt lat="43.75546" lon="7.12618">
        <ele>411.60000610352</ele>
        <time>2023-08-02T11:13:36.000Z</time>
      </trkpt>
      <trkpt lat="43.75546" lon="7.12618">
        <ele>411.60000610352</ele>
        <time>2023-08-02T11:13:37.000Z</time>
      </trkpt>
      <trkpt lat="43.75546" lon="7.12618">
        <ele>411.60000610352</ele>
        <time>2023-08-02T11:13:38.000Z</time>
      </trkpt>
      <trkpt lat="43.75546" lon="7.12618">
        <ele>411.60000610352</ele>
        <time>2023-08-02T11:13:39.000Z</time>
      </trkpt>
      <trkpt lat="43.75546" lon="7.12618">
        <ele>411.60000610352</ele>
        <time>2023-08-02T11:13:40.000Z</time>
      </trkpt>
      <trkpt lat="43.75546" lon="7.12618">
        <ele>411.60000610352</ele>
        <time>2023-08-02T11:13:41.000Z</time>
      </trkpt>
      <trkpt lat="43.75546" lon="7.12618">
        <ele>411.60000610352</ele>
        <time>2023-08-02T11:13:42.000Z</time>
      </trkpt>
      <trkpt lat="43.75546" lon="7.12618">
        <ele>411.60000610352</ele>
        <time>2023-08-02T11:13:43.000Z</time>
      </trkpt>
      <trkpt lat="43.75546" lon="7.12618">
        <ele>411.60000610352</ele>
        <time>2023-08-02T11:13:44.000Z</time>
      </trkpt>
      <trkpt lat="43.75546" lon="7.12618">
        <ele>411.60000610352</ele>
        <time>2023-08-02T11:13:45.000Z</time>
      </trkpt>
      <trkpt lat="43.75546" lon="7.12618">
        <ele>411.60000610352</ele>
        <time>2023-08-02T11:13:46.000Z</time>
      </trkpt>
      <trkpt lat="43.75546" lon="7.12618">
        <ele>411.60000610352</ele>
        <time>2023-08-02T11:13:47.000Z</time>
      </trkpt>
      <trkpt lat="43.75546" lon="7.12618">
        <ele>411.60000610352</ele>
        <time>2023-08-02T11:13:48.000Z</time>
      </trkpt>
      <trkpt lat="43.75546" lon="7.12618">
        <ele>411.60000610352</ele>
        <time>2023-08-02T11:13:49.000Z</time>
      </trkpt>
      <trkpt lat="43.75546" lon="7.12618">
        <ele>411.60000610352</ele>
        <time>2023-08-02T11:13:50.000Z</time>
      </trkpt>
      <trkpt lat="43.75546" lon="7.12618">
        <ele>411.60000610352</ele>
        <time>2023-08-02T11:13:51.000Z</time>
      </trkpt>
      <trkpt lat="43.75546" lon="7.12618">
        <ele>411.60000610352</ele>
        <time>2023-08-02T11:13:52.000Z</time>
      </trkpt>
      <trkpt lat="43.75546" lon="7.12618">
        <ele>411.60000610352</ele>
        <time>2023-08-02T11:13:53.000Z</time>
      </trkpt>
      <trkpt lat="43.75546" lon="7.12618">
        <ele>411.60000610352</ele>
        <time>2023-08-02T11:13:54.000Z</time>
      </trkpt>
      <trkpt lat="43.75546" lon="7.12618">
        <ele>411.60000610352</ele>
        <time>2023-08-02T11:13:55.000Z</time>
      </trkpt>
      <trkpt lat="43.75546" lon="7.12618">
        <ele>411.60000610352</ele>
        <time>2023-08-02T11:13:56.000Z</time>
      </trkpt>
      <trkpt lat="43.75546" lon="7.12618">
        <ele>411.60000610352</ele>
        <time>2023-08-02T11:13:57.000Z</time>
      </trkpt>
      <trkpt lat="43.75546" lon="7.12618">
        <ele>411.60000610352</ele>
        <time>2023-08-02T11:13:58.000Z</time>
      </trkpt>
      <trkpt lat="43.75546" lon="7.12618">
        <ele>411.60000610352</ele>
        <time>2023-08-02T11:13:59.000Z</time>
      </trkpt>
      <trkpt lat="43.75546" lon="7.12618">
        <ele>411.60000610352</ele>
        <time>2023-08-02T11:14:00.000Z</time>
      </trkpt>
      <trkpt lat="43.75546" lon="7.12618">
        <ele>411.60000610352</ele>
        <time>2023-08-02T11:14:01.000Z</time>
      </trkpt>
      <trkpt lat="43.75546" lon="7.12618">
        <ele>411.60000610352</ele>
        <time>2023-08-02T11:14:02.000Z</time>
      </trkpt>
      <trkpt lat="43.75546" lon="7.12618">
        <ele>411.60000610352</ele>
        <time>2023-08-02T11:14:03.000Z</time>
      </trkpt>
      <trkpt lat="43.75546" lon="7.12618">
        <ele>411.60000610352</ele>
        <time>2023-08-02T11:14:04.000Z</time>
      </trkpt>
      <trkpt lat="43.75546" lon="7.12618">
        <ele>411.60000610352</ele>
        <time>2023-08-02T11:14:05.000Z</time>
      </trkpt>
      <trkpt lat="43.75546" lon="7.12618">
        <ele>411.60000610352</ele>
        <time>2023-08-02T11:14:06.000Z</time>
      </trkpt>
      <trkpt lat="43.75546" lon="7.12618">
        <ele>411.60000610352</ele>
        <time>2023-08-02T11:14:07.000Z</time>
      </trkpt>
      <trkpt lat="43.75546" lon="7.12618">
        <ele>411.60000610352</ele>
        <time>2023-08-02T11:14:08.000Z</time>
      </trkpt>
      <trkpt lat="43.75546" lon="7.12618">
        <ele>411.60000610352</ele>
        <time>2023-08-02T11:14:09.000Z</time>
      </trkpt>
      <trkpt lat="43.75546" lon="7.12618">
        <ele>411.60000610352</ele>
        <time>2023-08-02T11:14:10.000Z</time>
      </trkpt>
      <trkpt lat="43.75546" lon="7.12618">
        <ele>411.60000610352</ele>
        <time>2023-08-02T11:14:11.000Z</time>
      </trkpt>
      <trkpt lat="43.75546" lon="7.12618">
        <ele>411.60000610352</ele>
        <time>2023-08-02T11:14:12.000Z</time>
      </trkpt>
      <trkpt lat="43.75546" lon="7.12618">
        <ele>411.60000610352</ele>
        <time>2023-08-02T11:14:13.000Z</time>
      </trkpt>
      <trkpt lat="43.75546" lon="7.12618">
        <ele>411.60000610352</ele>
        <time>2023-08-02T11:14:14.000Z</time>
      </trkpt>
      <trkpt lat="43.75546" lon="7.12618">
        <ele>411.60000610352</ele>
        <time>2023-08-02T11:14:15.000Z</time>
      </trkpt>
      <trkpt lat="43.75546" lon="7.12618">
        <ele>411.60000610352</ele>
        <time>2023-08-02T11:14:16.000Z</time>
      </trkpt>
      <trkpt lat="43.75546" lon="7.12618">
        <ele>411.60000610352</ele>
        <time>2023-08-02T11:14:17.000Z</time>
      </trkpt>
      <trkpt lat="43.75546" lon="7.12618">
        <ele>411.60000610352</ele>
        <time>2023-08-02T11:14:18.000Z</time>
      </trkpt>
      <trkpt lat="43.75546" lon="7.12618">
        <ele>411.60000610352</ele>
        <time>2023-08-02T11:14:19.000Z</time>
      </trkpt>
      <trkpt lat="43.75546" lon="7.12618">
        <ele>411.60000610352</ele>
        <time>2023-08-02T11:14:20.000Z</time>
      </trkpt>
      <trkpt lat="43.75546" lon="7.12618">
        <ele>411.60000610352</ele>
        <time>2023-08-02T11:14:21.000Z</time>
      </trkpt>
      <trkpt lat="43.75546" lon="7.12618">
        <ele>411.60000610352</ele>
        <time>2023-08-02T11:14:22.000Z</time>
      </trkpt>
      <trkpt lat="43.75546" lon="7.12618">
        <ele>411.60000610352</ele>
        <time>2023-08-02T11:14:23.000Z</time>
      </trkpt>
      <trkpt lat="43.75546" lon="7.12618">
        <ele>411.60000610352</ele>
        <time>2023-08-02T11:14:24.000Z</time>
      </trkpt>
      <trkpt lat="43.75546" lon="7.12618">
        <ele>411.60000610352</ele>
        <time>2023-08-02T11:14:25.000Z</time>
      </trkpt>
      <trkpt lat="43.75546" lon="7.12618">
        <ele>411.60000610352</ele>
        <time>2023-08-02T11:14:26.000Z</time>
      </trkpt>
      <trkpt lat="43.75546" lon="7.12618">
        <ele>411.60000610352</ele>
        <time>2023-08-02T11:14:27.000Z</time>
      </trkpt>
      <trkpt lat="43.75546" lon="7.12617">
        <ele>411.60000610352</ele>
        <time>2023-08-02T11:14:28.000Z</time>
      </trkpt>
      <trkpt lat="43.75546" lon="7.12617">
        <ele>411.60000610352</ele>
        <time>2023-08-02T11:14:29.000Z</time>
      </trkpt>
      <trkpt lat="43.75546" lon="7.12617">
        <ele>411.60000610352</ele>
        <time>2023-08-02T11:14:30.000Z</time>
      </trkpt>
      <trkpt lat="43.75546" lon="7.12617">
        <ele>411.60000610352</ele>
        <time>2023-08-02T11:14:31.000Z</time>
      </trkpt>
      <trkpt lat="43.75546" lon="7.12617">
        <ele>411.60000610352</ele>
        <time>2023-08-02T11:14:32.000Z</time>
      </trkpt>
      <trkpt lat="43.75546" lon="7.12617">
        <ele>411.60000610352</ele>
        <time>2023-08-02T11:14:33.000Z</time>
      </trkpt>
      <trkpt lat="43.75546" lon="7.12617">
        <ele>411.60000610352</ele>
        <time>2023-08-02T11:14:34.000Z</time>
      </trkpt>
      <trkpt lat="43.75546" lon="7.12617">
        <ele>411.60000610352</ele>
        <time>2023-08-02T11:14:35.000Z</time>
      </trkpt>
      <trkpt lat="43.75546" lon="7.12617">
        <ele>411.60000610352</ele>
        <time>2023-08-02T11:14:36.000Z</time>
      </trkpt>
      <trkpt lat="43.75546" lon="7.12617">
        <ele>411.60000610352</ele>
        <time>2023-08-02T11:14:37.000Z</time>
      </trkpt>
      <trkpt lat="43.75546" lon="7.12617">
        <ele>411.60000610352</ele>
        <time>2023-08-02T11:14:38.000Z</time>
      </trkpt>
      <trkpt lat="43.75546" lon="7.12617">
        <ele>411.60000610352</ele>
        <time>2023-08-02T11:14:39.000Z</time>
      </trkpt>
      <trkpt lat="43.75546" lon="7.12617">
        <ele>411.60000610352</ele>
        <time>2023-08-02T11:14:40.000Z</time>
      </trkpt>
      <trkpt lat="43.75546" lon="7.12617">
        <ele>411.60000610352</ele>
        <time>2023-08-02T11:14:41.000Z</time>
      </trkpt>
      <trkpt lat="43.75546" lon="7.12617">
        <ele>411.60000610352</ele>
        <time>2023-08-02T11:14:42.000Z</time>
      </trkpt>
      <trkpt lat="43.75546" lon="7.12617">
        <ele>411.60000610352</ele>
        <time>2023-08-02T11:14:43.000Z</time>
      </trkpt>
      <trkpt lat="43.75546" lon="7.12617">
        <ele>411.60000610352</ele>
        <time>2023-08-02T11:14:44.000Z</time>
      </trkpt>
      <trkpt lat="43.75546" lon="7.12617">
        <ele>411.60000610352</ele>
        <time>2023-08-02T11:14:45.000Z</time>
      </trkpt>
      <trkpt lat="43.75546" lon="7.12617">
        <ele>411.60000610352</ele>
        <time>2023-08-02T11:14:46.000Z</time>
      </trkpt>
      <trkpt lat="43.75546" lon="7.12617">
        <ele>411.60000610352</ele>
        <time>2023-08-02T11:14:47.000Z</time>
      </trkpt>
      <trkpt lat="43.75546" lon="7.12617">
        <ele>411.60000610352</ele>
        <time>2023-08-02T11:14:48.000Z</time>
      </trkpt>
      <trkpt lat="43.75546" lon="7.12617">
        <ele>411.60000610352</ele>
        <time>2023-08-02T11:14:49.000Z</time>
      </trkpt>
      <trkpt lat="43.75546" lon="7.12617">
        <ele>411.60000610352</ele>
        <time>2023-08-02T11:14:50.000Z</time>
      </trkpt>
      <trkpt lat="43.75546" lon="7.12617">
        <ele>411.60000610352</ele>
        <time>2023-08-02T11:14:51.000Z</time>
      </trkpt>
      <trkpt lat="43.75546" lon="7.12617">
        <ele>411.60000610352</ele>
        <time>2023-08-02T11:14:52.000Z</time>
      </trkpt>
      <trkpt lat="43.75546" lon="7.12617">
        <ele>411.60000610352</ele>
        <time>2023-08-02T11:14:53.000Z</time>
      </trkpt>
      <trkpt lat="43.75546" lon="7.12617">
        <ele>411.60000610352</ele>
        <time>2023-08-02T11:14:54.000Z</time>
      </trkpt>
      <trkpt lat="43.75546" lon="7.12617">
        <ele>411.60000610352</ele>
        <time>2023-08-02T11:14:55.000Z</time>
      </trkpt>
      <trkpt lat="43.75546" lon="7.12618">
        <ele>411.60000610352</ele>
        <time>2023-08-02T11:14:56.000Z</time>
      </trkpt>
      <trkpt lat="43.75546" lon="7.12618">
        <ele>411.60000610352</ele>
        <time>2023-08-02T11:14:57.000Z</time>
      </trkpt>
      <trkpt lat="43.75546" lon="7.12618">
        <ele>411.60000610352</ele>
        <time>2023-08-02T11:14:58.000Z</time>
      </trkpt>
      <trkpt lat="43.75546" lon="7.12618">
        <ele>411.60000610352</ele>
        <time>2023-08-02T11:14:59.000Z</time>
      </trkpt>
      <trkpt lat="43.75546" lon="7.12618">
        <ele>411.60000610352</ele>
        <time>2023-08-02T11:15:00.000Z</time>
      </trkpt>
      <trkpt lat="43.75546" lon="7.12618">
        <ele>411.60000610352</ele>
        <time>2023-08-02T11:15:01.000Z</time>
      </trkpt>
      <trkpt lat="43.75546" lon="7.12618">
        <ele>411.60000610352</ele>
        <time>2023-08-02T11:15:02.000Z</time>
      </trkpt>
      <trkpt lat="43.75546" lon="7.12618">
        <ele>411.60000610352</ele>
        <time>2023-08-02T11:15:03.000Z</time>
      </trkpt>
      <trkpt lat="43.75546" lon="7.12618">
        <ele>411.60000610352</ele>
        <time>2023-08-02T11:15:04.000Z</time>
      </trkpt>
      <trkpt lat="43.75546" lon="7.12618">
        <ele>411.60000610352</ele>
        <time>2023-08-02T11:15:05.000Z</time>
      </trkpt>
      <trkpt lat="43.75546" lon="7.12618">
        <ele>411.60000610352</ele>
        <time>2023-08-02T11:15:06.000Z</time>
      </trkpt>
      <trkpt lat="43.75546" lon="7.12618">
        <ele>411.60000610352</ele>
        <time>2023-08-02T11:15:07.000Z</time>
      </trkpt>
      <trkpt lat="43.75546" lon="7.12618">
        <ele>411.60000610352</ele>
        <time>2023-08-02T11:15:08.000Z</time>
      </trkpt>
      <trkpt lat="43.75546" lon="7.12618">
        <ele>411.60000610352</ele>
        <time>2023-08-02T11:15:09.000Z</time>
      </trkpt>
      <trkpt lat="43.75546" lon="7.12618">
        <ele>411.60000610352</ele>
        <time>2023-08-02T11:15:10.000Z</time>
      </trkpt>
      <trkpt lat="43.75546" lon="7.12618">
        <ele>411.60000610352</ele>
        <time>2023-08-02T11:15:11.000Z</time>
      </trkpt>
      <trkpt lat="43.75546" lon="7.12618">
        <ele>411.60000610352</ele>
        <time>2023-08-02T11:15:12.000Z</time>
      </trkpt>
      <trkpt lat="43.75546" lon="7.12618">
        <ele>411.60000610352</ele>
        <time>2023-08-02T11:15:13.000Z</time>
      </trkpt>
      <trkpt lat="43.75546" lon="7.12618">
        <ele>411.60000610352</ele>
        <time>2023-08-02T11:15:14.000Z</time>
      </trkpt>
      <trkpt lat="43.75546" lon="7.12618">
        <ele>411.60000610352</ele>
        <time>2023-08-02T11:15:15.000Z</time>
      </trkpt>
      <trkpt lat="43.75546" lon="7.12618">
        <ele>411.60000610352</ele>
        <time>2023-08-02T11:15:16.000Z</time>
      </trkpt>
      <trkpt lat="43.75546" lon="7.12618">
        <ele>411.60000610352</ele>
        <time>2023-08-02T11:15:17.000Z</time>
      </trkpt>
      <trkpt lat="43.75546" lon="7.12618">
        <ele>411.60000610352</ele>
        <time>2023-08-02T11:15:18.000Z</time>
      </trkpt>
      <trkpt lat="43.75546" lon="7.12618">
        <ele>411.60000610352</ele>
        <time>2023-08-02T11:15:19.000Z</time>
      </trkpt>
      <trkpt lat="43.75546" lon="7.12618">
        <ele>411.60000610352</ele>
        <time>2023-08-02T11:15:20.000Z</time>
      </trkpt>
      <trkpt lat="43.75546" lon="7.12618">
        <ele>411.60000610352</ele>
        <time>2023-08-02T11:15:21.000Z</time>
      </trkpt>
      <trkpt lat="43.75546" lon="7.12618">
        <ele>411.60000610352</ele>
        <time>2023-08-02T11:15:22.000Z</time>
      </trkpt>
      <trkpt lat="43.75546" lon="7.12618">
        <ele>411.60000610352</ele>
        <time>2023-08-02T11:15:23.000Z</time>
      </trkpt>
      <trkpt lat="43.75546" lon="7.12618">
        <ele>411.60000610352</ele>
        <time>2023-08-02T11:15:24.000Z</time>
      </trkpt>
      <trkpt lat="43.75546" lon="7.12618">
        <ele>411.60000610352</ele>
        <time>2023-08-02T11:15:25.000Z</time>
      </trkpt>
      <trkpt lat="43.75546" lon="7.12618">
        <ele>411.60000610352</ele>
        <time>2023-08-02T11:15:26.000Z</time>
      </trkpt>
      <trkpt lat="43.75546" lon="7.12618">
        <ele>411.60000610352</ele>
        <time>2023-08-02T11:15:27.000Z</time>
      </trkpt>
      <trkpt lat="43.75546" lon="7.12618">
        <ele>411.60000610352</ele>
        <time>2023-08-02T11:15:28.000Z</time>
      </trkpt>
      <trkpt lat="43.75546" lon="7.12618">
        <ele>411.60000610352</ele>
        <time>2023-08-02T11:15:29.000Z</time>
      </trkpt>
      <trkpt lat="43.75546" lon="7.12618">
        <ele>411.60000610352</ele>
        <time>2023-08-02T11:15:30.000Z</time>
      </trkpt>
      <trkpt lat="43.75546" lon="7.12618">
        <ele>411.60000610352</ele>
        <time>2023-08-02T11:15:31.000Z</time>
      </trkpt>
      <trkpt lat="43.75546" lon="7.12618">
        <ele>411.60000610352</ele>
        <time>2023-08-02T11:15:32.000Z</time>
      </trkpt>
      <trkpt lat="43.75546" lon="7.12618">
        <ele>411.60000610352</ele>
        <time>2023-08-02T11:15:33.000Z</time>
      </trkpt>
      <trkpt lat="43.75546" lon="7.12618">
        <ele>411.60000610352</ele>
        <time>2023-08-02T11:15:34.000Z</time>
      </trkpt>
      <trkpt lat="43.75546" lon="7.12618">
        <ele>411.60000610352</ele>
        <time>2023-08-02T11:15:35.000Z</time>
      </trkpt>
      <trkpt lat="43.75546" lon="7.12618">
        <ele>411.60000610352</ele>
        <time>2023-08-02T11:15:36.000Z</time>
      </trkpt>
      <trkpt lat="43.75546" lon="7.12618">
        <ele>411.60000610352</ele>
        <time>2023-08-02T11:15:37.000Z</time>
      </trkpt>
      <trkpt lat="43.75546" lon="7.12618">
        <ele>411.60000610352</ele>
        <time>2023-08-02T11:15:38.000Z</time>
      </trkpt>
      <trkpt lat="43.75546" lon="7.12618">
        <ele>411.60000610352</ele>
        <time>2023-08-02T11:15:39.000Z</time>
      </trkpt>
      <trkpt lat="43.75546" lon="7.12618">
        <ele>411.60000610352</ele>
        <time>2023-08-02T11:15:40.000Z</time>
      </trkpt>
      <trkpt lat="43.75546" lon="7.12618">
        <ele>411.60000610352</ele>
        <time>2023-08-02T11:15:41.000Z</time>
      </trkpt>
      <trkpt lat="43.75546" lon="7.12618">
        <ele>411.60000610352</ele>
        <time>2023-08-02T11:15:42.000Z</time>
      </trkpt>
      <trkpt lat="43.75546" lon="7.12618">
        <ele>411.60000610352</ele>
        <time>2023-08-02T11:15:43.000Z</time>
      </trkpt>
      <trkpt lat="43.75546" lon="7.12618">
        <ele>411.60000610352</ele>
        <time>2023-08-02T11:15:44.000Z</time>
      </trkpt>
      <trkpt lat="43.75546" lon="7.12618">
        <ele>411.60000610352</ele>
        <time>2023-08-02T11:15:45.000Z</time>
      </trkpt>
      <trkpt lat="43.75546" lon="7.12618">
        <ele>411.60000610352</ele>
        <time>2023-08-02T11:15:46.000Z</time>
      </trkpt>
      <trkpt lat="43.75546" lon="7.12618">
        <ele>411.60000610352</ele>
        <time>2023-08-02T11:15:47.000Z</time>
      </trkpt>
      <trkpt lat="43.75546" lon="7.12618">
        <ele>411.60000610352</ele>
        <time>2023-08-02T11:15:48.000Z</time>
      </trkpt>
      <trkpt lat="43.75546" lon="7.12618">
        <ele>411.60000610352</ele>
        <time>2023-08-02T11:15:49.000Z</time>
      </trkpt>
      <trkpt lat="43.75546" lon="7.12618">
        <ele>411.60000610352</ele>
        <time>2023-08-02T11:15:50.000Z</time>
      </trkpt>
      <trkpt lat="43.75546" lon="7.12618">
        <ele>411.60000610352</ele>
        <time>2023-08-02T11:15:51.000Z</time>
      </trkpt>
      <trkpt lat="43.75546" lon="7.12618">
        <ele>411.60000610352</ele>
        <time>2023-08-02T11:15:52.000Z</time>
      </trkpt>
      <trkpt lat="43.75546" lon="7.12618">
        <ele>411.60000610352</ele>
        <time>2023-08-02T11:15:53.000Z</time>
      </trkpt>
      <trkpt lat="43.75546" lon="7.12618">
        <ele>411.60000610352</ele>
        <time>2023-08-02T11:15:54.000Z</time>
      </trkpt>
      <trkpt lat="43.75546" lon="7.12618">
        <ele>411.60000610352</ele>
        <time>2023-08-02T11:15:55.000Z</time>
      </trkpt>
      <trkpt lat="43.75546" lon="7.12618">
        <ele>411.60000610352</ele>
        <time>2023-08-02T11:15:56.000Z</time>
      </trkpt>
      <trkpt lat="43.75546" lon="7.12618">
        <ele>411.60000610352</ele>
        <time>2023-08-02T11:15:57.000Z</time>
      </trkpt>
      <trkpt lat="43.75546" lon="7.12618">
        <ele>411.60000610352</ele>
        <time>2023-08-02T11:15:58.000Z</time>
      </trkpt>
      <trkpt lat="43.75546" lon="7.12618">
        <ele>411.60000610352</ele>
        <time>2023-08-02T11:15:59.000Z</time>
      </trkpt>
      <trkpt lat="43.75546" lon="7.12618">
        <ele>411.60000610352</ele>
        <time>2023-08-02T11:16:00.000Z</time>
      </trkpt>
      <trkpt lat="43.75546" lon="7.12618">
        <ele>411.60000610352</ele>
        <time>2023-08-02T11:16:01.000Z</time>
      </trkpt>
      <trkpt lat="43.75546" lon="7.12618">
        <ele>411.60000610352</ele>
        <time>2023-08-02T11:16:02.000Z</time>
      </trkpt>
      <trkpt lat="43.75546" lon="7.12618">
        <ele>411.60000610352</ele>
        <time>2023-08-02T11:16:03.000Z</time>
      </trkpt>
      <trkpt lat="43.75546" lon="7.12618">
        <ele>411.60000610352</ele>
        <time>2023-08-02T11:16:04.000Z</time>
      </trkpt>
      <trkpt lat="43.75546" lon="7.12618">
        <ele>411.60000610352</ele>
        <time>2023-08-02T11:16:05.000Z</time>
      </trkpt>
      <trkpt lat="43.75546" lon="7.12618">
        <ele>411.60000610352</ele>
        <time>2023-08-02T11:16:06.000Z</time>
      </trkpt>
      <trkpt lat="43.75546" lon="7.12618">
        <ele>411.60000610352</ele>
        <time>2023-08-02T11:16:07.000Z</time>
      </trkpt>
      <trkpt lat="43.75546" lon="7.12618">
        <ele>411.60000610352</ele>
        <time>2023-08-02T11:16:08.000Z</time>
      </trkpt>
      <trkpt lat="43.75546" lon="7.12618">
        <ele>411.60000610352</ele>
        <time>2023-08-02T11:16:09.000Z</time>
      </trkpt>
      <trkpt lat="43.75546" lon="7.12618">
        <ele>411.60000610352</ele>
        <time>2023-08-02T11:16:10.000Z</time>
      </trkpt>
      <trkpt lat="43.75546" lon="7.12618">
        <ele>411.60000610352</ele>
        <time>2023-08-02T11:16:11.000Z</time>
      </trkpt>
      <trkpt lat="43.75546" lon="7.12618">
        <ele>411.60000610352</ele>
        <time>2023-08-02T11:16:12.000Z</time>
      </trkpt>
      <trkpt lat="43.75546" lon="7.12618">
        <ele>411.60000610352</ele>
        <time>2023-08-02T11:16:13.000Z</time>
      </trkpt>
      <trkpt lat="43.75546" lon="7.12618">
        <ele>411.60000610352</ele>
        <time>2023-08-02T11:16:14.000Z</time>
      </trkpt>
      <trkpt lat="43.75546" lon="7.12618">
        <ele>411.60000610352</ele>
        <time>2023-08-02T11:16:15.000Z</time>
      </trkpt>
      <trkpt lat="43.75546" lon="7.12618">
        <ele>411.60000610352</ele>
        <time>2023-08-02T11:16:16.000Z</time>
      </trkpt>
      <trkpt lat="43.75546" lon="7.12618">
        <ele>411.60000610352</ele>
        <time>2023-08-02T11:16:17.000Z</time>
      </trkpt>
      <trkpt lat="43.75546" lon="7.12618">
        <ele>411.60000610352</ele>
        <time>2023-08-02T11:16:18.000Z</time>
      </trkpt>
      <trkpt lat="43.75546" lon="7.12618">
        <ele>411.60000610352</ele>
        <time>2023-08-02T11:16:19.000Z</time>
      </trkpt>
      <trkpt lat="43.75546" lon="7.12618">
        <ele>411.60000610352</ele>
        <time>2023-08-02T11:16:20.000Z</time>
      </trkpt>
      <trkpt lat="43.75546" lon="7.12618">
        <ele>411.60000610352</ele>
        <time>2023-08-02T11:16:21.000Z</time>
      </trkpt>
      <trkpt lat="43.75546" lon="7.12618">
        <ele>411.60000610352</ele>
        <time>2023-08-02T11:16:22.000Z</time>
      </trkpt>
      <trkpt lat="43.75546" lon="7.12618">
        <ele>411.60000610352</ele>
        <time>2023-08-02T11:16:23.000Z</time>
      </trkpt>
      <trkpt lat="43.75546" lon="7.12618">
        <ele>411.60000610352</ele>
        <time>2023-08-02T11:16:24.000Z</time>
      </trkpt>
      <trkpt lat="43.75546" lon="7.12618">
        <ele>411.60000610352</ele>
        <time>2023-08-02T11:16:25.000Z</time>
      </trkpt>
      <trkpt lat="43.75546" lon="7.12618">
        <ele>411.60000610352</ele>
        <time>2023-08-02T11:16:26.000Z</time>
      </trkpt>
      <trkpt lat="43.75546" lon="7.12618">
        <ele>411.60000610352</ele>
        <time>2023-08-02T11:16:27.000Z</time>
      </trkpt>
      <trkpt lat="43.75546" lon="7.12618">
        <ele>411.60000610352</ele>
        <time>2023-08-02T11:16:28.000Z</time>
      </trkpt>
      <trkpt lat="43.75546" lon="7.12618">
        <ele>411.60000610352</ele>
        <time>2023-08-02T11:16:29.000Z</time>
      </trkpt>
      <trkpt lat="43.75546" lon="7.12618">
        <ele>411.60000610352</ele>
        <time>2023-08-02T11:16:30.000Z</time>
      </trkpt>
      <trkpt lat="43.75546" lon="7.12618">
        <ele>411.60000610352</ele>
        <time>2023-08-02T11:16:31.000Z</time>
      </trkpt>
      <trkpt lat="43.75546" lon="7.12618">
        <ele>411.60000610352</ele>
        <time>2023-08-02T11:16:32.000Z</time>
      </trkpt>
      <trkpt lat="43.75546" lon="7.12618">
        <ele>411.60000610352</ele>
        <time>2023-08-02T11:16:33.000Z</time>
      </trkpt>
      <trkpt lat="43.75546" lon="7.12618">
        <ele>411.60000610352</ele>
        <time>2023-08-02T11:16:34.000Z</time>
      </trkpt>
      <trkpt lat="43.75546" lon="7.12618">
        <ele>411.60000610352</ele>
        <time>2023-08-02T11:16:35.000Z</time>
      </trkpt>
      <trkpt lat="43.75546" lon="7.12618">
        <ele>411.60000610352</ele>
        <time>2023-08-02T11:16:36.000Z</time>
      </trkpt>
      <trkpt lat="43.75546" lon="7.12618">
        <ele>411.60000610352</ele>
        <time>2023-08-02T11:16:37.000Z</time>
      </trkpt>
      <trkpt lat="43.75546" lon="7.12618">
        <ele>411.60000610352</ele>
        <time>2023-08-02T11:16:38.000Z</time>
      </trkpt>
      <trkpt lat="43.75546" lon="7.12618">
        <ele>411.60000610352</ele>
        <time>2023-08-02T11:16:39.000Z</time>
      </trkpt>
      <trkpt lat="43.75546" lon="7.12618">
        <ele>411.60000610352</ele>
        <time>2023-08-02T11:16:40.000Z</time>
      </trkpt>
      <trkpt lat="43.75546" lon="7.12618">
        <ele>411.60000610352</ele>
        <time>2023-08-02T11:16:41.000Z</time>
      </trkpt>
      <trkpt lat="43.75546" lon="7.12618">
        <ele>411.60000610352</ele>
        <time>2023-08-02T11:16:42.000Z</time>
      </trkpt>
      <trkpt lat="43.75546" lon="7.12618">
        <ele>411.60000610352</ele>
        <time>2023-08-02T11:16:43.000Z</time>
      </trkpt>
      <trkpt lat="43.75546" lon="7.12618">
        <ele>411.60000610352</ele>
        <time>2023-08-02T11:16:44.000Z</time>
      </trkpt>
      <trkpt lat="43.75546" lon="7.12618">
        <ele>411.60000610352</ele>
        <time>2023-08-02T11:16:45.000Z</time>
      </trkpt>
      <trkpt lat="43.75546" lon="7.12618">
        <ele>411.60000610352</ele>
        <time>2023-08-02T11:16:46.000Z</time>
      </trkpt>
      <trkpt lat="43.75546" lon="7.12618">
        <ele>411.60000610352</ele>
        <time>2023-08-02T11:16:47.000Z</time>
      </trkpt>
      <trkpt lat="43.75546" lon="7.12618">
        <ele>411.60000610352</ele>
        <time>2023-08-02T11:16:48.000Z</time>
      </trkpt>
      <trkpt lat="43.75546" lon="7.12618">
        <ele>411.60000610352</ele>
        <time>2023-08-02T11:16:49.000Z</time>
      </trkpt>
      <trkpt lat="43.75546" lon="7.12618">
        <ele>411.60000610352</ele>
        <time>2023-08-02T11:16:50.000Z</time>
      </trkpt>
      <trkpt lat="43.75546" lon="7.12618">
        <ele>411.60000610352</ele>
        <time>2023-08-02T11:16:51.000Z</time>
      </trkpt>
      <trkpt lat="43.75546" lon="7.12618">
        <ele>411.60000610352</ele>
        <time>2023-08-02T11:16:52.000Z</time>
      </trkpt>
      <trkpt lat="43.75546" lon="7.12618">
        <ele>411.60000610352</ele>
        <time>2023-08-02T11:16:53.000Z</time>
      </trkpt>
      <trkpt lat="43.75546" lon="7.12618">
        <ele>411.60000610352</ele>
        <time>2023-08-02T11:16:54.000Z</time>
      </trkpt>
      <trkpt lat="43.75546" lon="7.12618">
        <ele>411.60000610352</ele>
        <time>2023-08-02T11:16:55.000Z</time>
      </trkpt>
      <trkpt lat="43.75546" lon="7.12618">
        <ele>411.60000610352</ele>
        <time>2023-08-02T11:16:56.000Z</time>
      </trkpt>
      <trkpt lat="43.75546" lon="7.12618">
        <ele>411.60000610352</ele>
        <time>2023-08-02T11:16:57.000Z</time>
      </trkpt>
      <trkpt lat="43.75546" lon="7.12618">
        <ele>411.60000610352</ele>
        <time>2023-08-02T11:16:58.000Z</time>
      </trkpt>
      <trkpt lat="43.75546" lon="7.12618">
        <ele>411.60000610352</ele>
        <time>2023-08-02T11:16:59.000Z</time>
      </trkpt>
      <trkpt lat="43.75546" lon="7.12618">
        <ele>411.60000610352</ele>
        <time>2023-08-02T11:17:00.000Z</time>
      </trkpt>
      <trkpt lat="43.75546" lon="7.12618">
        <ele>411.60000610352</ele>
        <time>2023-08-02T11:17:01.000Z</time>
      </trkpt>
      <trkpt lat="43.75546" lon="7.12618">
        <ele>411.60000610352</ele>
        <time>2023-08-02T11:17:02.000Z</time>
      </trkpt>
      <trkpt lat="43.75546" lon="7.12618">
        <ele>411.60000610352</ele>
        <time>2023-08-02T11:17:03.000Z</time>
      </trkpt>
      <trkpt lat="43.75546" lon="7.12618">
        <ele>411.60000610352</ele>
        <time>2023-08-02T11:17:04.000Z</time>
      </trkpt>
      <trkpt lat="43.75546" lon="7.12618">
        <ele>411.60000610352</ele>
        <time>2023-08-02T11:17:05.000Z</time>
      </trkpt>
      <trkpt lat="43.75546" lon="7.12618">
        <ele>411.60000610352</ele>
        <time>2023-08-02T11:17:06.000Z</time>
      </trkpt>
      <trkpt lat="43.75546" lon="7.12618">
        <ele>411.60000610352</ele>
        <time>2023-08-02T11:17:07.000Z</time>
      </trkpt>
      <trkpt lat="43.75546" lon="7.12618">
        <ele>411.60000610352</ele>
        <time>2023-08-02T11:17:08.000Z</time>
      </trkpt>
      <trkpt lat="43.75546" lon="7.12618">
        <ele>411.60000610352</ele>
        <time>2023-08-02T11:17:09.000Z</time>
      </trkpt>
      <trkpt lat="43.75546" lon="7.12618">
        <ele>411.60000610352</ele>
        <time>2023-08-02T11:17:10.000Z</time>
      </trkpt>
      <trkpt lat="43.75546" lon="7.12617">
        <ele>411.60000610352</ele>
        <time>2023-08-02T11:17:11.000Z</time>
      </trkpt>
      <trkpt lat="43.75546" lon="7.12617">
        <ele>411.60000610352</ele>
        <time>2023-08-02T11:17:12.000Z</time>
      </trkpt>
      <trkpt lat="43.75546" lon="7.12617">
        <ele>411.60000610352</ele>
        <time>2023-08-02T11:17:13.000Z</time>
      </trkpt>
      <trkpt lat="43.75546" lon="7.12617">
        <ele>411.60000610352</ele>
        <time>2023-08-02T11:17:14.000Z</time>
      </trkpt>
      <trkpt lat="43.75546" lon="7.12617">
        <ele>411.60000610352</ele>
        <time>2023-08-02T11:17:15.000Z</time>
      </trkpt>
      <trkpt lat="43.75546" lon="7.12617">
        <ele>411.60000610352</ele>
        <time>2023-08-02T11:17:16.000Z</time>
      </trkpt>
      <trkpt lat="43.75546" lon="7.12617">
        <ele>411.60000610352</ele>
        <time>2023-08-02T11:17:17.000Z</time>
      </trkpt>
      <trkpt lat="43.75546" lon="7.12617">
        <ele>411.60000610352</ele>
        <time>2023-08-02T11:17:18.000Z</time>
      </trkpt>
      <trkpt lat="43.75546" lon="7.12617">
        <ele>411.60000610352</ele>
        <time>2023-08-02T11:17:19.000Z</time>
      </trkpt>
      <trkpt lat="43.75546" lon="7.12617">
        <ele>411.60000610352</ele>
        <time>2023-08-02T11:17:20.000Z</time>
      </trkpt>
      <trkpt lat="43.75546" lon="7.12617">
        <ele>411.60000610352</ele>
        <time>2023-08-02T11:17:21.000Z</time>
      </trkpt>
      <trkpt lat="43.75546" lon="7.12617">
        <ele>411.60000610352</ele>
        <time>2023-08-02T11:17:22.000Z</time>
      </trkpt>
      <trkpt lat="43.75546" lon="7.12617">
        <ele>411.60000610352</ele>
        <time>2023-08-02T11:17:23.000Z</time>
      </trkpt>
      <trkpt lat="43.75546" lon="7.12617">
        <ele>411.60000610352</ele>
        <time>2023-08-02T11:17:24.000Z</time>
      </trkpt>
      <trkpt lat="43.75546" lon="7.12617">
        <ele>411.60000610352</ele>
        <time>2023-08-02T11:17:25.000Z</time>
      </trkpt>
      <trkpt lat="43.75546" lon="7.12617">
        <ele>411.60000610352</ele>
        <time>2023-08-02T11:17:26.000Z</time>
      </trkpt>
      <trkpt lat="43.75546" lon="7.12617">
        <ele>411.60000610352</ele>
        <time>2023-08-02T11:17:27.000Z</time>
      </trkpt>
      <trkpt lat="43.75546" lon="7.12617">
        <ele>411.60000610352</ele>
        <time>2023-08-02T11:17:28.000Z</time>
      </trkpt>
      <trkpt lat="43.75546" lon="7.12617">
        <ele>411.60000610352</ele>
        <time>2023-08-02T11:17:29.000Z</time>
      </trkpt>
      <trkpt lat="43.75546" lon="7.12617">
        <ele>411.60000610352</ele>
        <time>2023-08-02T11:17:30.000Z</time>
      </trkpt>
      <trkpt lat="43.75546" lon="7.12618">
        <ele>411.60000610352</ele>
        <time>2023-08-02T11:17:31.000Z</time>
      </trkpt>
      <trkpt lat="43.75546" lon="7.12618">
        <ele>411.60000610352</ele>
        <time>2023-08-02T11:17:32.000Z</time>
      </trkpt>
      <trkpt lat="43.75546" lon="7.12618">
        <ele>411.60000610352</ele>
        <time>2023-08-02T11:17:33.000Z</time>
      </trkpt>
      <trkpt lat="43.75546" lon="7.12618">
        <ele>411.60000610352</ele>
        <time>2023-08-02T11:17:34.000Z</time>
      </trkpt>
      <trkpt lat="43.75546" lon="7.12618">
        <ele>411.60000610352</ele>
        <time>2023-08-02T11:17:35.000Z</time>
      </trkpt>
      <trkpt lat="43.75546" lon="7.12618">
        <ele>411.60000610352</ele>
        <time>2023-08-02T11:17:36.000Z</time>
      </trkpt>
      <trkpt lat="43.75546" lon="7.12618">
        <ele>411.60000610352</ele>
        <time>2023-08-02T11:17:37.000Z</time>
      </trkpt>
      <trkpt lat="43.75546" lon="7.12618">
        <ele>411.60000610352</ele>
        <time>2023-08-02T11:17:38.000Z</time>
      </trkpt>
      <trkpt lat="43.75546" lon="7.12618">
        <ele>411.60000610352</ele>
        <time>2023-08-02T11:17:39.000Z</time>
      </trkpt>
      <trkpt lat="43.75546" lon="7.12618">
        <ele>411.60000610352</ele>
        <time>2023-08-02T11:17:40.000Z</time>
      </trkpt>
      <trkpt lat="43.75546" lon="7.12618">
        <ele>411.60000610352</ele>
        <time>2023-08-02T11:17:41.000Z</time>
      </trkpt>
      <trkpt lat="43.75546" lon="7.12618">
        <ele>411.60000610352</ele>
        <time>2023-08-02T11:17:42.000Z</time>
      </trkpt>
      <trkpt lat="43.75546" lon="7.12618">
        <ele>411.60000610352</ele>
        <time>2023-08-02T11:17:43.000Z</time>
      </trkpt>
      <trkpt lat="43.75546" lon="7.12618">
        <ele>411.60000610352</ele>
        <time>2023-08-02T11:17:44.000Z</time>
      </trkpt>
      <trkpt lat="43.75546" lon="7.12618">
        <ele>411.60000610352</ele>
        <time>2023-08-02T11:17:45.000Z</time>
      </trkpt>
      <trkpt lat="43.75546" lon="7.12618">
        <ele>411.60000610352</ele>
        <time>2023-08-02T11:17:46.000Z</time>
      </trkpt>
      <trkpt lat="43.75546" lon="7.12618">
        <ele>411.60000610352</ele>
        <time>2023-08-02T11:17:47.000Z</time>
      </trkpt>
      <trkpt lat="43.75546" lon="7.12618">
        <ele>411.60000610352</ele>
        <time>2023-08-02T11:17:48.000Z</time>
      </trkpt>
      <trkpt lat="43.75546" lon="7.12618">
        <ele>411.60000610352</ele>
        <time>2023-08-02T11:17:49.000Z</time>
      </trkpt>
      <trkpt lat="43.75546" lon="7.12618">
        <ele>411.60000610352</ele>
        <time>2023-08-02T11:17:50.000Z</time>
      </trkpt>
      <trkpt lat="43.75546" lon="7.12618">
        <ele>411.60000610352</ele>
        <time>2023-08-02T11:17:51.000Z</time>
      </trkpt>
      <trkpt lat="43.75546" lon="7.12618">
        <ele>411.60000610352</ele>
        <time>2023-08-02T11:17:52.000Z</time>
      </trkpt>
      <trkpt lat="43.75546" lon="7.12618">
        <ele>411.60000610352</ele>
        <time>2023-08-02T11:17:53.000Z</time>
      </trkpt>
      <trkpt lat="43.75546" lon="7.12618">
        <ele>411.60000610352</ele>
        <time>2023-08-02T11:17:54.000Z</time>
      </trkpt>
      <trkpt lat="43.75546" lon="7.12618">
        <ele>411.60000610352</ele>
        <time>2023-08-02T11:17:55.000Z</time>
      </trkpt>
      <trkpt lat="43.75546" lon="7.12618">
        <ele>411.60000610352</ele>
        <time>2023-08-02T11:17:56.000Z</time>
      </trkpt>
      <trkpt lat="43.75546" lon="7.12618">
        <ele>411.60000610352</ele>
        <time>2023-08-02T11:17:57.000Z</time>
      </trkpt>
      <trkpt lat="43.75546" lon="7.12618">
        <ele>411.60000610352</ele>
        <time>2023-08-02T11:17:58.000Z</time>
      </trkpt>
      <trkpt lat="43.75546" lon="7.12618">
        <ele>411.60000610352</ele>
        <time>2023-08-02T11:17:59.000Z</time>
      </trkpt>
      <trkpt lat="43.75546" lon="7.12618">
        <ele>411.60000610352</ele>
        <time>2023-08-02T11:18:00.000Z</time>
      </trkpt>
      <trkpt lat="43.75546" lon="7.12618">
        <ele>411.60000610352</ele>
        <time>2023-08-02T11:18:01.000Z</time>
      </trkpt>
      <trkpt lat="43.75546" lon="7.12618">
        <ele>411.60000610352</ele>
        <time>2023-08-02T11:18:02.000Z</time>
      </trkpt>
      <trkpt lat="43.75546" lon="7.12618">
        <ele>411.60000610352</ele>
        <time>2023-08-02T11:18:03.000Z</time>
      </trkpt>
      <trkpt lat="43.75546" lon="7.12618">
        <ele>411.60000610352</ele>
        <time>2023-08-02T11:18:04.000Z</time>
      </trkpt>
      <trkpt lat="43.75546" lon="7.12618">
        <ele>411.60000610352</ele>
        <time>2023-08-02T11:18:05.000Z</time>
      </trkpt>
      <trkpt lat="43.75546" lon="7.12618">
        <ele>411.60000610352</ele>
        <time>2023-08-02T11:18:06.000Z</time>
      </trkpt>
      <trkpt lat="43.75546" lon="7.12618">
        <ele>411.60000610352</ele>
        <time>2023-08-02T11:18:07.000Z</time>
      </trkpt>
      <trkpt lat="43.75546" lon="7.12618">
        <ele>411.60000610352</ele>
        <time>2023-08-02T11:18:08.000Z</time>
      </trkpt>
      <trkpt lat="43.75546" lon="7.12618">
        <ele>411.60000610352</ele>
        <time>2023-08-02T11:18:09.000Z</time>
      </trkpt>
      <trkpt lat="43.75546" lon="7.12618">
        <ele>411.60000610352</ele>
        <time>2023-08-02T11:18:10.000Z</time>
      </trkpt>
      <trkpt lat="43.75546" lon="7.12618">
        <ele>411.60000610352</ele>
        <time>2023-08-02T11:18:11.000Z</time>
      </trkpt>
      <trkpt lat="43.75546" lon="7.12618">
        <ele>411.60000610352</ele>
        <time>2023-08-02T11:18:12.000Z</time>
      </trkpt>
      <trkpt lat="43.75546" lon="7.12618">
        <ele>411.60000610352</ele>
        <time>2023-08-02T11:18:13.000Z</time>
      </trkpt>
      <trkpt lat="43.75546" lon="7.12618">
        <ele>411.60000610352</ele>
        <time>2023-08-02T11:18:14.000Z</time>
      </trkpt>
      <trkpt lat="43.75546" lon="7.12618">
        <ele>411.60000610352</ele>
        <time>2023-08-02T11:18:15.000Z</time>
      </trkpt>
      <trkpt lat="43.75546" lon="7.12618">
        <ele>411.60000610352</ele>
        <time>2023-08-02T11:18:16.000Z</time>
      </trkpt>
      <trkpt lat="43.75546" lon="7.12617">
        <ele>411.60000610352</ele>
        <time>2023-08-02T11:18:17.000Z</time>
      </trkpt>
      <trkpt lat="43.75546" lon="7.12617">
        <ele>411.60000610352</ele>
        <time>2023-08-02T11:18:18.000Z</time>
      </trkpt>
      <trkpt lat="43.75546" lon="7.12617">
        <ele>411.60000610352</ele>
        <time>2023-08-02T11:18:19.000Z</time>
      </trkpt>
      <trkpt lat="43.75546" lon="7.12617">
        <ele>411.60000610352</ele>
        <time>2023-08-02T11:18:20.000Z</time>
      </trkpt>
      <trkpt lat="43.75546" lon="7.12617">
        <ele>411.60000610352</ele>
        <time>2023-08-02T11:18:21.000Z</time>
      </trkpt>
      <trkpt lat="43.75546" lon="7.12617">
        <ele>411.60000610352</ele>
        <time>2023-08-02T11:18:22.000Z</time>
      </trkpt>
      <trkpt lat="43.75546" lon="7.12617">
        <ele>411.60000610352</ele>
        <time>2023-08-02T11:18:23.000Z</time>
      </trkpt>
      <trkpt lat="43.75546" lon="7.12617">
        <ele>411.60000610352</ele>
        <time>2023-08-02T11:18:24.000Z</time>
      </trkpt>
      <trkpt lat="43.75546" lon="7.12617">
        <ele>411.60000610352</ele>
        <time>2023-08-02T11:18:25.000Z</time>
      </trkpt>
      <trkpt lat="43.75546" lon="7.12617">
        <ele>411.60000610352</ele>
        <time>2023-08-02T11:18:26.000Z</time>
      </trkpt>
      <trkpt lat="43.75546" lon="7.12617">
        <ele>411.60000610352</ele>
        <time>2023-08-02T11:18:27.000Z</time>
      </trkpt>
      <trkpt lat="43.75546" lon="7.12617">
        <ele>411.60000610352</ele>
        <time>2023-08-02T11:18:28.000Z</time>
      </trkpt>
      <trkpt lat="43.75546" lon="7.12617">
        <ele>411.60000610352</ele>
        <time>2023-08-02T11:18:29.000Z</time>
      </trkpt>
      <trkpt lat="43.75546" lon="7.12617">
        <ele>411.60000610352</ele>
        <time>2023-08-02T11:18:30.000Z</time>
      </trkpt>
      <trkpt lat="43.75546" lon="7.12617">
        <ele>411.60000610352</ele>
        <time>2023-08-02T11:18:31.000Z</time>
      </trkpt>
      <trkpt lat="43.75546" lon="7.12617">
        <ele>411.60000610352</ele>
        <time>2023-08-02T11:18:32.000Z</time>
      </trkpt>
      <trkpt lat="43.75546" lon="7.12617">
        <ele>411.60000610352</ele>
        <time>2023-08-02T11:18:33.000Z</time>
      </trkpt>
      <trkpt lat="43.75546" lon="7.12617">
        <ele>411.60000610352</ele>
        <time>2023-08-02T11:18:34.000Z</time>
      </trkpt>
      <trkpt lat="43.75546" lon="7.12617">
        <ele>411.60000610352</ele>
        <time>2023-08-02T11:18:35.000Z</time>
      </trkpt>
      <trkpt lat="43.75546" lon="7.12617">
        <ele>411.60000610352</ele>
        <time>2023-08-02T11:18:36.000Z</time>
      </trkpt>
      <trkpt lat="43.75546" lon="7.12617">
        <ele>411.60000610352</ele>
        <time>2023-08-02T11:18:37.000Z</time>
      </trkpt>
      <trkpt lat="43.75546" lon="7.12617">
        <ele>411.60000610352</ele>
        <time>2023-08-02T11:18:38.000Z</time>
      </trkpt>
      <trkpt lat="43.75546" lon="7.12617">
        <ele>411.60000610352</ele>
        <time>2023-08-02T11:18:39.000Z</time>
      </trkpt>
      <trkpt lat="43.75546" lon="7.12617">
        <ele>411.60000610352</ele>
        <time>2023-08-02T11:18:40.000Z</time>
      </trkpt>
      <trkpt lat="43.75546" lon="7.12617">
        <ele>411.60000610352</ele>
        <time>2023-08-02T11:18:41.000Z</time>
      </trkpt>
      <trkpt lat="43.75546" lon="7.12617">
        <ele>411.60000610352</ele>
        <time>2023-08-02T11:18:42.000Z</time>
      </trkpt>
      <trkpt lat="43.75546" lon="7.12617">
        <ele>411.60000610352</ele>
        <time>2023-08-02T11:18:43.000Z</time>
      </trkpt>
      <trkpt lat="43.75546" lon="7.12617">
        <ele>411.60000610352</ele>
        <time>2023-08-02T11:18:44.000Z</time>
      </trkpt>
      <trkpt lat="43.75546" lon="7.12617">
        <ele>411.60000610352</ele>
        <time>2023-08-02T11:18:45.000Z</time>
      </trkpt>
      <trkpt lat="43.75546" lon="7.12617">
        <ele>411.60000610352</ele>
        <time>2023-08-02T11:18:46.000Z</time>
      </trkpt>
      <trkpt lat="43.75546" lon="7.12617">
        <ele>411.60000610352</ele>
        <time>2023-08-02T11:18:47.000Z</time>
      </trkpt>
      <trkpt lat="43.75546" lon="7.12617">
        <ele>411.60000610352</ele>
        <time>2023-08-02T11:18:48.000Z</time>
      </trkpt>
      <trkpt lat="43.75546" lon="7.12617">
        <ele>411.60000610352</ele>
        <time>2023-08-02T11:18:49.000Z</time>
      </trkpt>
      <trkpt lat="43.75546" lon="7.12617">
        <ele>411.60000610352</ele>
        <time>2023-08-02T11:18:50.000Z</time>
      </trkpt>
      <trkpt lat="43.75546" lon="7.12617">
        <ele>411.60000610352</ele>
        <time>2023-08-02T11:18:51.000Z</time>
      </trkpt>
      <trkpt lat="43.75546" lon="7.12617">
        <ele>411.60000610352</ele>
        <time>2023-08-02T11:18:52.000Z</time>
      </trkpt>
      <trkpt lat="43.75546" lon="7.12617">
        <ele>411.60000610352</ele>
        <time>2023-08-02T11:18:53.000Z</time>
      </trkpt>
      <trkpt lat="43.75546" lon="7.12617">
        <ele>411.60000610352</ele>
        <time>2023-08-02T11:18:54.000Z</time>
      </trkpt>
      <trkpt lat="43.75546" lon="7.12617">
        <ele>411.60000610352</ele>
        <time>2023-08-02T11:18:55.000Z</time>
      </trkpt>
      <trkpt lat="43.75546" lon="7.12617">
        <ele>411.60000610352</ele>
        <time>2023-08-02T11:18:56.000Z</time>
      </trkpt>
      <trkpt lat="43.75546" lon="7.12617">
        <ele>411.60000610352</ele>
        <time>2023-08-02T11:18:57.000Z</time>
      </trkpt>
      <trkpt lat="43.75546" lon="7.12617">
        <ele>411.60000610352</ele>
        <time>2023-08-02T11:18:58.000Z</time>
      </trkpt>
      <trkpt lat="43.75546" lon="7.12617">
        <ele>411.60000610352</ele>
        <time>2023-08-02T11:18:59.000Z</time>
      </trkpt>
      <trkpt lat="43.75546" lon="7.12617">
        <ele>411.60000610352</ele>
        <time>2023-08-02T11:19:00.000Z</time>
      </trkpt>
      <trkpt lat="43.75546" lon="7.12617">
        <ele>411.60000610352</ele>
        <time>2023-08-02T11:19:01.000Z</time>
      </trkpt>
      <trkpt lat="43.75546" lon="7.12617">
        <ele>411.60000610352</ele>
        <time>2023-08-02T11:19:02.000Z</time>
      </trkpt>
      <trkpt lat="43.75546" lon="7.12617">
        <ele>411.60000610352</ele>
        <time>2023-08-02T11:19:03.000Z</time>
      </trkpt>
      <trkpt lat="43.75546" lon="7.12617">
        <ele>411.60000610352</ele>
        <time>2023-08-02T11:19:04.000Z</time>
      </trkpt>
      <trkpt lat="43.75546" lon="7.12617">
        <ele>411.60000610352</ele>
        <time>2023-08-02T11:19:05.000Z</time>
      </trkpt>
      <trkpt lat="43.75546" lon="7.12617">
        <ele>411.60000610352</ele>
        <time>2023-08-02T11:19:06.000Z</time>
      </trkpt>
      <trkpt lat="43.75546" lon="7.12617">
        <ele>411.60000610352</ele>
        <time>2023-08-02T11:19:07.000Z</time>
      </trkpt>
      <trkpt lat="43.75546" lon="7.12617">
        <ele>411.60000610352</ele>
        <time>2023-08-02T11:19:08.000Z</time>
      </trkpt>
      <trkpt lat="43.75546" lon="7.12618">
        <ele>411.60000610352</ele>
        <time>2023-08-02T11:19:09.000Z</time>
      </trkpt>
      <trkpt lat="43.75546" lon="7.12618">
        <ele>411.60000610352</ele>
        <time>2023-08-02T11:19:10.000Z</time>
      </trkpt>
      <trkpt lat="43.75546" lon="7.12618">
        <ele>411.60000610352</ele>
        <time>2023-08-02T11:19:11.000Z</time>
      </trkpt>
      <trkpt lat="43.75546" lon="7.12618">
        <ele>411.60000610352</ele>
        <time>2023-08-02T11:19:12.000Z</time>
      </trkpt>
      <trkpt lat="43.75546" lon="7.12618">
        <ele>411.60000610352</ele>
        <time>2023-08-02T11:19:13.000Z</time>
      </trkpt>
      <trkpt lat="43.75546" lon="7.12618">
        <ele>411.60000610352</ele>
        <time>2023-08-02T11:19:14.000Z</time>
      </trkpt>
      <trkpt lat="43.75546" lon="7.12618">
        <ele>411.60000610352</ele>
        <time>2023-08-02T11:19:15.000Z</time>
      </trkpt>
      <trkpt lat="43.75546" lon="7.12618">
        <ele>411.60000610352</ele>
        <time>2023-08-02T11:19:16.000Z</time>
      </trkpt>
      <trkpt lat="43.75546" lon="7.12618">
        <ele>411.60000610352</ele>
        <time>2023-08-02T11:19:17.000Z</time>
      </trkpt>
      <trkpt lat="43.75546" lon="7.12618">
        <ele>411.60000610352</ele>
        <time>2023-08-02T11:19:18.000Z</time>
      </trkpt>
      <trkpt lat="43.75546" lon="7.12618">
        <ele>411.60000610352</ele>
        <time>2023-08-02T11:19:19.000Z</time>
      </trkpt>
      <trkpt lat="43.75546" lon="7.12618">
        <ele>411.60000610352</ele>
        <time>2023-08-02T11:19:20.000Z</time>
      </trkpt>
      <trkpt lat="43.75546" lon="7.12618">
        <ele>411.60000610352</ele>
        <time>2023-08-02T11:19:21.000Z</time>
      </trkpt>
      <trkpt lat="43.75546" lon="7.12618">
        <ele>411.60000610352</ele>
        <time>2023-08-02T11:19:22.000Z</time>
      </trkpt>
      <trkpt lat="43.75546" lon="7.12618">
        <ele>411.60000610352</ele>
        <time>2023-08-02T11:19:23.000Z</time>
      </trkpt>
      <trkpt lat="43.75546" lon="7.12618">
        <ele>411.60000610352</ele>
        <time>2023-08-02T11:19:24.000Z</time>
      </trkpt>
      <trkpt lat="43.75546" lon="7.12618">
        <ele>411.60000610352</ele>
        <time>2023-08-02T11:19:25.000Z</time>
      </trkpt>
      <trkpt lat="43.75546" lon="7.12618">
        <ele>411.60000610352</ele>
        <time>2023-08-02T11:19:26.000Z</time>
      </trkpt>
      <trkpt lat="43.75546" lon="7.12618">
        <ele>411.60000610352</ele>
        <time>2023-08-02T11:19:27.000Z</time>
      </trkpt>
      <trkpt lat="43.75546" lon="7.12618">
        <ele>411.60000610352</ele>
        <time>2023-08-02T11:19:28.000Z</time>
      </trkpt>
      <trkpt lat="43.75546" lon="7.12618">
        <ele>411.60000610352</ele>
        <time>2023-08-02T11:19:29.000Z</time>
      </trkpt>
      <trkpt lat="43.75546" lon="7.12618">
        <ele>411.60000610352</ele>
        <time>2023-08-02T11:19:30.000Z</time>
      </trkpt>
      <trkpt lat="43.75546" lon="7.12618">
        <ele>411.60000610352</ele>
        <time>2023-08-02T11:19:31.000Z</time>
      </trkpt>
      <trkpt lat="43.75546" lon="7.12618">
        <ele>411.60000610352</ele>
        <time>2023-08-02T11:19:32.000Z</time>
      </trkpt>
      <trkpt lat="43.75546" lon="7.12618">
        <ele>411.60000610352</ele>
        <time>2023-08-02T11:19:33.000Z</time>
      </trkpt>
      <trkpt lat="43.75546" lon="7.12618">
        <ele>411.60000610352</ele>
        <time>2023-08-02T11:19:34.000Z</time>
      </trkpt>
      <trkpt lat="43.75546" lon="7.12618">
        <ele>411.60000610352</ele>
        <time>2023-08-02T11:19:35.000Z</time>
      </trkpt>
      <trkpt lat="43.75546" lon="7.12618">
        <ele>411.60000610352</ele>
        <time>2023-08-02T11:19:36.000Z</time>
      </trkpt>
      <trkpt lat="43.75546" lon="7.12618">
        <ele>411.60000610352</ele>
        <time>2023-08-02T11:19:37.000Z</time>
      </trkpt>
      <trkpt lat="43.75546" lon="7.12618">
        <ele>411.60000610352</ele>
        <time>2023-08-02T11:19:38.000Z</time>
      </trkpt>
      <trkpt lat="43.75546" lon="7.12618">
        <ele>411.60000610352</ele>
        <time>2023-08-02T11:19:39.000Z</time>
      </trkpt>
      <trkpt lat="43.75546" lon="7.12618">
        <ele>411.60000610352</ele>
        <time>2023-08-02T11:19:40.000Z</time>
      </trkpt>
      <trkpt lat="43.75546" lon="7.12618">
        <ele>411.60000610352</ele>
        <time>2023-08-02T11:19:41.000Z</time>
      </trkpt>
      <trkpt lat="43.75546" lon="7.12618">
        <ele>411.60000610352</ele>
        <time>2023-08-02T11:19:42.000Z</time>
      </trkpt>
      <trkpt lat="43.75546" lon="7.12618">
        <ele>411.60000610352</ele>
        <time>2023-08-02T11:19:43.000Z</time>
      </trkpt>
      <trkpt lat="43.75546" lon="7.12618">
        <ele>411.60000610352</ele>
        <time>2023-08-02T11:19:44.000Z</time>
      </trkpt>
      <trkpt lat="43.75546" lon="7.12618">
        <ele>411.60000610352</ele>
        <time>2023-08-02T11:19:45.000Z</time>
      </trkpt>
      <trkpt lat="43.75546" lon="7.12618">
        <ele>411.60000610352</ele>
        <time>2023-08-02T11:19:46.000Z</time>
      </trkpt>
      <trkpt lat="43.75546" lon="7.12618">
        <ele>411.60000610352</ele>
        <time>2023-08-02T11:19:47.000Z</time>
      </trkpt>
      <trkpt lat="43.75546" lon="7.12618">
        <ele>411.60000610352</ele>
        <time>2023-08-02T11:19:48.000Z</time>
      </trkpt>
      <trkpt lat="43.75546" lon="7.12618">
        <ele>411.60000610352</ele>
        <time>2023-08-02T11:19:49.000Z</time>
      </trkpt>
      <trkpt lat="43.75546" lon="7.12618">
        <ele>411.60000610352</ele>
        <time>2023-08-02T11:19:50.000Z</time>
      </trkpt>
      <trkpt lat="43.75546" lon="7.12618">
        <ele>411.60000610352</ele>
        <time>2023-08-02T11:19:51.000Z</time>
      </trkpt>
      <trkpt lat="43.75546" lon="7.12618">
        <ele>411.60000610352</ele>
        <time>2023-08-02T11:19:52.000Z</time>
      </trkpt>
      <trkpt lat="43.75546" lon="7.12618">
        <ele>411.60000610352</ele>
        <time>2023-08-02T11:19:53.000Z</time>
      </trkpt>
      <trkpt lat="43.75546" lon="7.12618">
        <ele>411.60000610352</ele>
        <time>2023-08-02T11:19:54.000Z</time>
      </trkpt>
      <trkpt lat="43.75546" lon="7.12618">
        <ele>411.60000610352</ele>
        <time>2023-08-02T11:19:55.000Z</time>
      </trkpt>
      <trkpt lat="43.75546" lon="7.12618">
        <ele>411.60000610352</ele>
        <time>2023-08-02T11:19:56.000Z</time>
      </trkpt>
      <trkpt lat="43.75546" lon="7.12618">
        <ele>411.60000610352</ele>
        <time>2023-08-02T11:19:57.000Z</time>
      </trkpt>
      <trkpt lat="43.75546" lon="7.12618">
        <ele>411.60000610352</ele>
        <time>2023-08-02T11:19:58.000Z</time>
      </trkpt>
      <trkpt lat="43.75546" lon="7.12618">
        <ele>411.60000610352</ele>
        <time>2023-08-02T11:19:59.000Z</time>
      </trkpt>
      <trkpt lat="43.75546" lon="7.12618">
        <ele>411.60000610352</ele>
        <time>2023-08-02T11:20:00.000Z</time>
      </trkpt>
      <trkpt lat="43.75546" lon="7.12618">
        <ele>411.60000610352</ele>
        <time>2023-08-02T11:20:01.000Z</time>
      </trkpt>
      <trkpt lat="43.75546" lon="7.12618">
        <ele>411.60000610352</ele>
        <time>2023-08-02T11:20:02.000Z</time>
      </trkpt>
      <trkpt lat="43.75546" lon="7.12618">
        <ele>411.60000610352</ele>
        <time>2023-08-02T11:20:03.000Z</time>
      </trkpt>
      <trkpt lat="43.75546" lon="7.12618">
        <ele>411.60000610352</ele>
        <time>2023-08-02T11:20:04.000Z</time>
      </trkpt>
      <trkpt lat="43.75546" lon="7.12617">
        <ele>411.60000610352</ele>
        <time>2023-08-02T11:20:05.000Z</time>
      </trkpt>
      <trkpt lat="43.75546" lon="7.12617">
        <ele>411.60000610352</ele>
        <time>2023-08-02T11:20:06.000Z</time>
      </trkpt>
      <trkpt lat="43.75546" lon="7.12617">
        <ele>411.60000610352</ele>
        <time>2023-08-02T11:20:07.000Z</time>
      </trkpt>
      <trkpt lat="43.75546" lon="7.12617">
        <ele>411.60000610352</ele>
        <time>2023-08-02T11:20:08.000Z</time>
      </trkpt>
      <trkpt lat="43.75546" lon="7.12618">
        <ele>411.60000610352</ele>
        <time>2023-08-02T11:20:09.000Z</time>
      </trkpt>
      <trkpt lat="43.75546" lon="7.12618">
        <ele>411.60000610352</ele>
        <time>2023-08-02T11:20:10.000Z</time>
      </trkpt>
      <trkpt lat="43.75546" lon="7.12618">
        <ele>411.60000610352</ele>
        <time>2023-08-02T11:20:11.000Z</time>
      </trkpt>
      <trkpt lat="43.75546" lon="7.12618">
        <ele>411.60000610352</ele>
        <time>2023-08-02T11:20:12.000Z</time>
      </trkpt>
      <trkpt lat="43.75546" lon="7.12618">
        <ele>411.60000610352</ele>
        <time>2023-08-02T11:20:13.000Z</time>
      </trkpt>
      <trkpt lat="43.75546" lon="7.12618">
        <ele>411.60000610352</ele>
        <time>2023-08-02T11:20:14.000Z</time>
      </trkpt>
      <trkpt lat="43.75546" lon="7.12618">
        <ele>411.60000610352</ele>
        <time>2023-08-02T11:20:15.000Z</time>
      </trkpt>
      <trkpt lat="43.75546" lon="7.12618">
        <ele>411.60000610352</ele>
        <time>2023-08-02T11:20:16.000Z</time>
      </trkpt>
      <trkpt lat="43.75546" lon="7.12618">
        <ele>411.60000610352</ele>
        <time>2023-08-02T11:20:17.000Z</time>
      </trkpt>
      <trkpt lat="43.75546" lon="7.12618">
        <ele>411.60000610352</ele>
        <time>2023-08-02T11:20:18.000Z</time>
      </trkpt>
      <trkpt lat="43.75546" lon="7.12618">
        <ele>411.60000610352</ele>
        <time>2023-08-02T11:20:19.000Z</time>
      </trkpt>
      <trkpt lat="43.75546" lon="7.12618">
        <ele>411.60000610352</ele>
        <time>2023-08-02T11:20:20.000Z</time>
      </trkpt>
      <trkpt lat="43.75546" lon="7.12618">
        <ele>411.60000610352</ele>
        <time>2023-08-02T11:20:21.000Z</time>
      </trkpt>
      <trkpt lat="43.75546" lon="7.12618">
        <ele>411.60000610352</ele>
        <time>2023-08-02T11:20:22.000Z</time>
      </trkpt>
      <trkpt lat="43.75546" lon="7.12618">
        <ele>411.60000610352</ele>
        <time>2023-08-02T11:20:23.000Z</time>
      </trkpt>
      <trkpt lat="43.75546" lon="7.12618">
        <ele>411.60000610352</ele>
        <time>2023-08-02T11:20:24.000Z</time>
      </trkpt>
      <trkpt lat="43.75546" lon="7.12618">
        <ele>411.60000610352</ele>
        <time>2023-08-02T11:20:25.000Z</time>
      </trkpt>
      <trkpt lat="43.75546" lon="7.12618">
        <ele>411.60000610352</ele>
        <time>2023-08-02T11:20:26.000Z</time>
      </trkpt>
      <trkpt lat="43.75546" lon="7.12618">
        <ele>411.60000610352</ele>
        <time>2023-08-02T11:20:27.000Z</time>
      </trkpt>
      <trkpt lat="43.75546" lon="7.12618">
        <ele>411.60000610352</ele>
        <time>2023-08-02T11:20:28.000Z</time>
      </trkpt>
      <trkpt lat="43.75546" lon="7.12618">
        <ele>411.60000610352</ele>
        <time>2023-08-02T11:20:29.000Z</time>
      </trkpt>
      <trkpt lat="43.75546" lon="7.12618">
        <ele>411.60000610352</ele>
        <time>2023-08-02T11:20:30.000Z</time>
      </trkpt>
      <trkpt lat="43.75546" lon="7.12618">
        <ele>411.60000610352</ele>
        <time>2023-08-02T11:20:31.000Z</time>
      </trkpt>
      <trkpt lat="43.75546" lon="7.12618">
        <ele>411.60000610352</ele>
        <time>2023-08-02T11:20:32.000Z</time>
      </trkpt>
      <trkpt lat="43.75546" lon="7.12618">
        <ele>411.60000610352</ele>
        <time>2023-08-02T11:20:33.000Z</time>
      </trkpt>
      <trkpt lat="43.75546" lon="7.12618">
        <ele>411.60000610352</ele>
        <time>2023-08-02T11:20:34.000Z</time>
      </trkpt>
      <trkpt lat="43.75546" lon="7.12617">
        <ele>411.60000610352</ele>
        <time>2023-08-02T11:20:35.000Z</time>
      </trkpt>
      <trkpt lat="43.75546" lon="7.12617">
        <ele>411.60000610352</ele>
        <time>2023-08-02T11:20:36.000Z</time>
      </trkpt>
      <trkpt lat="43.75546" lon="7.12617">
        <ele>411.60000610352</ele>
        <time>2023-08-02T11:20:37.000Z</time>
      </trkpt>
      <trkpt lat="43.75546" lon="7.12617">
        <ele>411.60000610352</ele>
        <time>2023-08-02T11:20:38.000Z</time>
      </trkpt>
      <trkpt lat="43.75546" lon="7.12617">
        <ele>411.60000610352</ele>
        <time>2023-08-02T11:20:39.000Z</time>
      </trkpt>
      <trkpt lat="43.75546" lon="7.12618">
        <ele>411.60000610352</ele>
        <time>2023-08-02T11:20:40.000Z</time>
      </trkpt>
      <trkpt lat="43.75546" lon="7.12618">
        <ele>411.60000610352</ele>
        <time>2023-08-02T11:20:41.000Z</time>
      </trkpt>
      <trkpt lat="43.75546" lon="7.12618">
        <ele>411.60000610352</ele>
        <time>2023-08-02T11:20:42.000Z</time>
      </trkpt>
      <trkpt lat="43.75546" lon="7.12617">
        <ele>411.60000610352</ele>
        <time>2023-08-02T11:20:43.000Z</time>
      </trkpt>
      <trkpt lat="43.75546" lon="7.12617">
        <ele>411.60000610352</ele>
        <time>2023-08-02T11:20:44.000Z</time>
      </trkpt>
      <trkpt lat="43.75546" lon="7.12617">
        <ele>411.60000610352</ele>
        <time>2023-08-02T11:20:45.000Z</time>
      </trkpt>
      <trkpt lat="43.75546" lon="7.12617">
        <ele>411.60000610352</ele>
        <time>2023-08-02T11:20:46.000Z</time>
      </trkpt>
      <trkpt lat="43.75546" lon="7.12617">
        <ele>411.60000610352</ele>
        <time>2023-08-02T11:20:47.000Z</time>
      </trkpt>
      <trkpt lat="43.75546" lon="7.12617">
        <ele>411.60000610352</ele>
        <time>2023-08-02T11:20:48.000Z</time>
      </trkpt>
      <trkpt lat="43.75546" lon="7.12617">
        <ele>411.60000610352</ele>
        <time>2023-08-02T11:20:49.000Z</time>
      </trkpt>
      <trkpt lat="43.75546" lon="7.12617">
        <ele>411.60000610352</ele>
        <time>2023-08-02T11:20:50.000Z</time>
      </trkpt>
      <trkpt lat="43.75546" lon="7.12617">
        <ele>411.60000610352</ele>
        <time>2023-08-02T11:20:51.000Z</time>
      </trkpt>
      <trkpt lat="43.75546" lon="7.12617">
        <ele>411.60000610352</ele>
        <time>2023-08-02T11:20:52.000Z</time>
      </trkpt>
      <trkpt lat="43.75546" lon="7.12617">
        <ele>411.60000610352</ele>
        <time>2023-08-02T11:20:53.000Z</time>
      </trkpt>
      <trkpt lat="43.75546" lon="7.12617">
        <ele>411.60000610352</ele>
        <time>2023-08-02T11:20:54.000Z</time>
      </trkpt>
      <trkpt lat="43.75546" lon="7.12618">
        <ele>411.60000610352</ele>
        <time>2023-08-02T11:20:55.000Z</time>
      </trkpt>
      <trkpt lat="43.75546" lon="7.12618">
        <ele>411.60000610352</ele>
        <time>2023-08-02T11:20:56.000Z</time>
      </trkpt>
      <trkpt lat="43.75546" lon="7.12618">
        <ele>411.60000610352</ele>
        <time>2023-08-02T11:20:57.000Z</time>
      </trkpt>
      <trkpt lat="43.75546" lon="7.12618">
        <ele>411.60000610352</ele>
        <time>2023-08-02T11:20:58.000Z</time>
      </trkpt>
      <trkpt lat="43.75546" lon="7.12618">
        <ele>411.60000610352</ele>
        <time>2023-08-02T11:20:59.000Z</time>
      </trkpt>
      <trkpt lat="43.75546" lon="7.12618">
        <ele>411.60000610352</ele>
        <time>2023-08-02T11:21:00.000Z</time>
      </trkpt>
      <trkpt lat="43.75546" lon="7.12618">
        <ele>411.60000610352</ele>
        <time>2023-08-02T11:21:01.000Z</time>
      </trkpt>
      <trkpt lat="43.75546" lon="7.12618">
        <ele>411.60000610352</ele>
        <time>2023-08-02T11:21:02.000Z</time>
      </trkpt>
      <trkpt lat="43.75546" lon="7.12618">
        <ele>411.60000610352</ele>
        <time>2023-08-02T11:21:03.000Z</time>
      </trkpt>
      <trkpt lat="43.75546" lon="7.12618">
        <ele>411.60000610352</ele>
        <time>2023-08-02T11:21:04.000Z</time>
      </trkpt>
      <trkpt lat="43.75546" lon="7.12618">
        <ele>411.60000610352</ele>
        <time>2023-08-02T11:21:05.000Z</time>
      </trkpt>
      <trkpt lat="43.75546" lon="7.12618">
        <ele>411.60000610352</ele>
        <time>2023-08-02T11:21:06.000Z</time>
      </trkpt>
      <trkpt lat="43.75546" lon="7.12618">
        <ele>411.60000610352</ele>
        <time>2023-08-02T11:21:07.000Z</time>
      </trkpt>
      <trkpt lat="43.75546" lon="7.12618">
        <ele>411.60000610352</ele>
        <time>2023-08-02T11:21:08.000Z</time>
      </trkpt>
      <trkpt lat="43.75546" lon="7.12618">
        <ele>411.60000610352</ele>
        <time>2023-08-02T11:21:09.000Z</time>
      </trkpt>
      <trkpt lat="43.75546" lon="7.12618">
        <ele>411.60000610352</ele>
        <time>2023-08-02T11:21:10.000Z</time>
      </trkpt>
      <trkpt lat="43.75546" lon="7.12618">
        <ele>411.60000610352</ele>
        <time>2023-08-02T11:21:11.000Z</time>
      </trkpt>
      <trkpt lat="43.75546" lon="7.12618">
        <ele>411.60000610352</ele>
        <time>2023-08-02T11:21:12.000Z</time>
      </trkpt>
      <trkpt lat="43.75546" lon="7.12618">
        <ele>411.60000610352</ele>
        <time>2023-08-02T11:21:13.000Z</time>
      </trkpt>
      <trkpt lat="43.75546" lon="7.12618">
        <ele>411.60000610352</ele>
        <time>2023-08-02T11:21:14.000Z</time>
      </trkpt>
      <trkpt lat="43.75546" lon="7.12618">
        <ele>411.60000610352</ele>
        <time>2023-08-02T11:21:15.000Z</time>
      </trkpt>
      <trkpt lat="43.75546" lon="7.12618">
        <ele>411.60000610352</ele>
        <time>2023-08-02T11:21:16.000Z</time>
      </trkpt>
      <trkpt lat="43.75546" lon="7.12618">
        <ele>411.60000610352</ele>
        <time>2023-08-02T11:21:17.000Z</time>
      </trkpt>
      <trkpt lat="43.75546" lon="7.12618">
        <ele>411.60000610352</ele>
        <time>2023-08-02T11:21:18.000Z</time>
      </trkpt>
      <trkpt lat="43.75546" lon="7.12618">
        <ele>411.60000610352</ele>
        <time>2023-08-02T11:21:19.000Z</time>
      </trkpt>
      <trkpt lat="43.75546" lon="7.12618">
        <ele>411.60000610352</ele>
        <time>2023-08-02T11:21:20.000Z</time>
      </trkpt>
      <trkpt lat="43.75546" lon="7.12618">
        <ele>411.60000610352</ele>
        <time>2023-08-02T11:21:21.000Z</time>
      </trkpt>
      <trkpt lat="43.75546" lon="7.12618">
        <ele>411.60000610352</ele>
        <time>2023-08-02T11:21:22.000Z</time>
      </trkpt>
      <trkpt lat="43.75546" lon="7.12618">
        <ele>411.60000610352</ele>
        <time>2023-08-02T11:21:23.000Z</time>
      </trkpt>
      <trkpt lat="43.75546" lon="7.12618">
        <ele>411.60000610352</ele>
        <time>2023-08-02T11:21:24.000Z</time>
      </trkpt>
      <trkpt lat="43.75546" lon="7.12618">
        <ele>411.60000610352</ele>
        <time>2023-08-02T11:21:25.000Z</time>
      </trkpt>
      <trkpt lat="43.75546" lon="7.12618">
        <ele>411.60000610352</ele>
        <time>2023-08-02T11:21:26.000Z</time>
      </trkpt>
      <trkpt lat="43.75546" lon="7.12618">
        <ele>411.60000610352</ele>
        <time>2023-08-02T11:21:27.000Z</time>
      </trkpt>
      <trkpt lat="43.75546" lon="7.12618">
        <ele>411.60000610352</ele>
        <time>2023-08-02T11:21:28.000Z</time>
      </trkpt>
      <trkpt lat="43.75546" lon="7.12618">
        <ele>411.60000610352</ele>
        <time>2023-08-02T11:21:29.000Z</time>
      </trkpt>
      <trkpt lat="43.75546" lon="7.12618">
        <ele>411.60000610352</ele>
        <time>2023-08-02T11:21:30.000Z</time>
      </trkpt>
      <trkpt lat="43.75546" lon="7.12618">
        <ele>411.60000610352</ele>
        <time>2023-08-02T11:21:31.000Z</time>
      </trkpt>
      <trkpt lat="43.75546" lon="7.12618">
        <ele>411.60000610352</ele>
        <time>2023-08-02T11:21:32.000Z</time>
      </trkpt>
      <trkpt lat="43.75546" lon="7.12618">
        <ele>411.60000610352</ele>
        <time>2023-08-02T11:21:33.000Z</time>
      </trkpt>
      <trkpt lat="43.75546" lon="7.12618">
        <ele>411.60000610352</ele>
        <time>2023-08-02T11:21:34.000Z</time>
      </trkpt>
      <trkpt lat="43.75546" lon="7.12618">
        <ele>411.60000610352</ele>
        <time>2023-08-02T11:21:35.000Z</time>
      </trkpt>
      <trkpt lat="43.75546" lon="7.12618">
        <ele>411.60000610352</ele>
        <time>2023-08-02T11:21:36.000Z</time>
      </trkpt>
      <trkpt lat="43.75546" lon="7.12618">
        <ele>411.60000610352</ele>
        <time>2023-08-02T11:21:37.000Z</time>
      </trkpt>
      <trkpt lat="43.75546" lon="7.12618">
        <ele>411.60000610352</ele>
        <time>2023-08-02T11:21:38.000Z</time>
      </trkpt>
      <trkpt lat="43.75546" lon="7.12618">
        <ele>411.60000610352</ele>
        <time>2023-08-02T11:21:39.000Z</time>
      </trkpt>
      <trkpt lat="43.75546" lon="7.12618">
        <ele>411.60000610352</ele>
        <time>2023-08-02T11:21:40.000Z</time>
      </trkpt>
      <trkpt lat="43.75546" lon="7.12618">
        <ele>411.60000610352</ele>
        <time>2023-08-02T11:21:41.000Z</time>
      </trkpt>
      <trkpt lat="43.75546" lon="7.12618">
        <ele>411.60000610352</ele>
        <time>2023-08-02T11:21:42.000Z</time>
      </trkpt>
      <trkpt lat="43.75546" lon="7.12618">
        <ele>411.60000610352</ele>
        <time>2023-08-02T11:21:43.000Z</time>
      </trkpt>
      <trkpt lat="43.75546" lon="7.12618">
        <ele>411.60000610352</ele>
        <time>2023-08-02T11:21:44.000Z</time>
      </trkpt>
      <trkpt lat="43.75546" lon="7.12618">
        <ele>411.60000610352</ele>
        <time>2023-08-02T11:21:45.000Z</time>
      </trkpt>
      <trkpt lat="43.75546" lon="7.12618">
        <ele>411.60000610352</ele>
        <time>2023-08-02T11:21:46.000Z</time>
      </trkpt>
      <trkpt lat="43.75546" lon="7.12618">
        <ele>411.60000610352</ele>
        <time>2023-08-02T11:21:47.000Z</time>
      </trkpt>
      <trkpt lat="43.75546" lon="7.12618">
        <ele>411.60000610352</ele>
        <time>2023-08-02T11:21:48.000Z</time>
      </trkpt>
      <trkpt lat="43.75546" lon="7.12618">
        <ele>411.60000610352</ele>
        <time>2023-08-02T11:21:49.000Z</time>
      </trkpt>
      <trkpt lat="43.75546" lon="7.12618">
        <ele>411.60000610352</ele>
        <time>2023-08-02T11:21:50.000Z</time>
      </trkpt>
      <trkpt lat="43.75546" lon="7.12618">
        <ele>411.60000610352</ele>
        <time>2023-08-02T11:21:51.000Z</time>
      </trkpt>
      <trkpt lat="43.75546" lon="7.12618">
        <ele>411.60000610352</ele>
        <time>2023-08-02T11:21:52.000Z</time>
      </trkpt>
      <trkpt lat="43.75546" lon="7.12618">
        <ele>411.60000610352</ele>
        <time>2023-08-02T11:21:53.000Z</time>
      </trkpt>
      <trkpt lat="43.75546" lon="7.12618">
        <ele>411.60000610352</ele>
        <time>2023-08-02T11:21:54.000Z</time>
      </trkpt>
      <trkpt lat="43.75546" lon="7.12618">
        <ele>411.60000610352</ele>
        <time>2023-08-02T11:21:55.000Z</time>
      </trkpt>
      <trkpt lat="43.75546" lon="7.12618">
        <ele>411.60000610352</ele>
        <time>2023-08-02T11:21:56.000Z</time>
      </trkpt>
      <trkpt lat="43.75546" lon="7.12618">
        <ele>411.60000610352</ele>
        <time>2023-08-02T11:21:57.000Z</time>
      </trkpt>
      <trkpt lat="43.75546" lon="7.12618">
        <ele>411.60000610352</ele>
        <time>2023-08-02T11:21:58.000Z</time>
      </trkpt>
      <trkpt lat="43.75546" lon="7.12618">
        <ele>411.60000610352</ele>
        <time>2023-08-02T11:21:59.000Z</time>
      </trkpt>
      <trkpt lat="43.75546" lon="7.12618">
        <ele>411.60000610352</ele>
        <time>2023-08-02T11:22:00.000Z</time>
      </trkpt>
      <trkpt lat="43.75546" lon="7.12618">
        <ele>411.60000610352</ele>
        <time>2023-08-02T11:22:01.000Z</time>
      </trkpt>
      <trkpt lat="43.75546" lon="7.12618">
        <ele>411.60000610352</ele>
        <time>2023-08-02T11:22:02.000Z</time>
      </trkpt>
      <trkpt lat="43.75546" lon="7.12618">
        <ele>411.60000610352</ele>
        <time>2023-08-02T11:22:03.000Z</time>
      </trkpt>
      <trkpt lat="43.75546" lon="7.12618">
        <ele>411.60000610352</ele>
        <time>2023-08-02T11:22:04.000Z</time>
      </trkpt>
      <trkpt lat="43.75546" lon="7.12618">
        <ele>411.60000610352</ele>
        <time>2023-08-02T11:22:05.000Z</time>
      </trkpt>
      <trkpt lat="43.75546" lon="7.12618">
        <ele>411.60000610352</ele>
        <time>2023-08-02T11:22:06.000Z</time>
      </trkpt>
      <trkpt lat="43.75546" lon="7.12618">
        <ele>411.60000610352</ele>
        <time>2023-08-02T11:22:07.000Z</time>
      </trkpt>
      <trkpt lat="43.75546" lon="7.12618">
        <ele>411.60000610352</ele>
        <time>2023-08-02T11:22:08.000Z</time>
      </trkpt>
      <trkpt lat="43.75546" lon="7.12618">
        <ele>411.60000610352</ele>
        <time>2023-08-02T11:22:09.000Z</time>
      </trkpt>
      <trkpt lat="43.75546" lon="7.12618">
        <ele>411.60000610352</ele>
        <time>2023-08-02T11:22:10.000Z</time>
      </trkpt>
      <trkpt lat="43.75546" lon="7.12618">
        <ele>411.60000610352</ele>
        <time>2023-08-02T11:22:11.000Z</time>
      </trkpt>
      <trkpt lat="43.75546" lon="7.12618">
        <ele>411.60000610352</ele>
        <time>2023-08-02T11:22:12.000Z</time>
      </trkpt>
      <trkpt lat="43.75546" lon="7.12618">
        <ele>411.60000610352</ele>
        <time>2023-08-02T11:22:13.000Z</time>
      </trkpt>
      <trkpt lat="43.75546" lon="7.12618">
        <ele>411.60000610352</ele>
        <time>2023-08-02T11:22:14.000Z</time>
      </trkpt>
      <trkpt lat="43.75546" lon="7.12618">
        <ele>411.60000610352</ele>
        <time>2023-08-02T11:22:15.000Z</time>
      </trkpt>
      <trkpt lat="43.75546" lon="7.12618">
        <ele>411.60000610352</ele>
        <time>2023-08-02T11:22:16.000Z</time>
      </trkpt>
      <trkpt lat="43.75546" lon="7.12618">
        <ele>411.60000610352</ele>
        <time>2023-08-02T11:22:17.000Z</time>
      </trkpt>
      <trkpt lat="43.75546" lon="7.12618">
        <ele>411.60000610352</ele>
        <time>2023-08-02T11:22:18.000Z</time>
      </trkpt>
      <trkpt lat="43.75546" lon="7.12618">
        <ele>411.60000610352</ele>
        <time>2023-08-02T11:22:19.000Z</time>
      </trkpt>
      <trkpt lat="43.75546" lon="7.12618">
        <ele>411.60000610352</ele>
        <time>2023-08-02T11:22:20.000Z</time>
      </trkpt>
      <trkpt lat="43.75546" lon="7.12618">
        <ele>411.60000610352</ele>
        <time>2023-08-02T11:22:21.000Z</time>
      </trkpt>
      <trkpt lat="43.75546" lon="7.12618">
        <ele>411.60000610352</ele>
        <time>2023-08-02T11:22:22.000Z</time>
      </trkpt>
      <trkpt lat="43.75546" lon="7.12618">
        <ele>411.60000610352</ele>
        <time>2023-08-02T11:22:23.000Z</time>
      </trkpt>
      <trkpt lat="43.75546" lon="7.12618">
        <ele>411.60000610352</ele>
        <time>2023-08-02T11:22:24.000Z</time>
      </trkpt>
      <trkpt lat="43.75546" lon="7.12618">
        <ele>411.60000610352</ele>
        <time>2023-08-02T11:22:25.000Z</time>
      </trkpt>
      <trkpt lat="43.75546" lon="7.12618">
        <ele>411.60000610352</ele>
        <time>2023-08-02T11:22:26.000Z</time>
      </trkpt>
      <trkpt lat="43.75546" lon="7.12618">
        <ele>411.60000610352</ele>
        <time>2023-08-02T11:22:27.000Z</time>
      </trkpt>
      <trkpt lat="43.75546" lon="7.12618">
        <ele>411.60000610352</ele>
        <time>2023-08-02T11:22:28.000Z</time>
      </trkpt>
      <trkpt lat="43.75546" lon="7.12618">
        <ele>411.60000610352</ele>
        <time>2023-08-02T11:22:29.000Z</time>
      </trkpt>
      <trkpt lat="43.75546" lon="7.12618">
        <ele>411.60000610352</ele>
        <time>2023-08-02T11:22:30.000Z</time>
      </trkpt>
      <trkpt lat="43.75546" lon="7.12618">
        <ele>411.60000610352</ele>
        <time>2023-08-02T11:22:31.000Z</time>
      </trkpt>
      <trkpt lat="43.75546" lon="7.12618">
        <ele>411.60000610352</ele>
        <time>2023-08-02T11:22:32.000Z</time>
      </trkpt>
      <trkpt lat="43.75546" lon="7.12618">
        <ele>411.60000610352</ele>
        <time>2023-08-02T11:22:33.000Z</time>
      </trkpt>
      <trkpt lat="43.75546" lon="7.12618">
        <ele>411.60000610352</ele>
        <time>2023-08-02T11:22:34.000Z</time>
      </trkpt>
      <trkpt lat="43.75546" lon="7.12618">
        <ele>411.60000610352</ele>
        <time>2023-08-02T11:22:35.000Z</time>
      </trkpt>
      <trkpt lat="43.75546" lon="7.12618">
        <ele>411.60000610352</ele>
        <time>2023-08-02T11:22:36.000Z</time>
      </trkpt>
      <trkpt lat="43.75546" lon="7.12618">
        <ele>411.60000610352</ele>
        <time>2023-08-02T11:22:37.000Z</time>
      </trkpt>
      <trkpt lat="43.75546" lon="7.12618">
        <ele>411.60000610352</ele>
        <time>2023-08-02T11:22:38.000Z</time>
      </trkpt>
      <trkpt lat="43.75546" lon="7.12618">
        <ele>411.60000610352</ele>
        <time>2023-08-02T11:22:39.000Z</time>
      </trkpt>
      <trkpt lat="43.75546" lon="7.12618">
        <ele>411.60000610352</ele>
        <time>2023-08-02T11:22:40.000Z</time>
      </trkpt>
      <trkpt lat="43.75546" lon="7.12618">
        <ele>411.60000610352</ele>
        <time>2023-08-02T11:22:41.000Z</time>
      </trkpt>
      <trkpt lat="43.75546" lon="7.12618">
        <ele>411.60000610352</ele>
        <time>2023-08-02T11:22:42.000Z</time>
      </trkpt>
      <trkpt lat="43.75546" lon="7.12618">
        <ele>411.60000610352</ele>
        <time>2023-08-02T11:22:43.000Z</time>
      </trkpt>
      <trkpt lat="43.75546" lon="7.12618">
        <ele>411.60000610352</ele>
        <time>2023-08-02T11:22:44.000Z</time>
      </trkpt>
      <trkpt lat="43.75546" lon="7.12618">
        <ele>411.60000610352</ele>
        <time>2023-08-02T11:22:45.000Z</time>
      </trkpt>
      <trkpt lat="43.75546" lon="7.12618">
        <ele>411.60000610352</ele>
        <time>2023-08-02T11:22:46.000Z</time>
      </trkpt>
      <trkpt lat="43.75546" lon="7.12618">
        <ele>411.60000610352</ele>
        <time>2023-08-02T11:22:47.000Z</time>
      </trkpt>
      <trkpt lat="43.75546" lon="7.12618">
        <ele>411.60000610352</ele>
        <time>2023-08-02T11:22:48.000Z</time>
      </trkpt>
      <trkpt lat="43.75546" lon="7.12618">
        <ele>411.60000610352</ele>
        <time>2023-08-02T11:22:49.000Z</time>
      </trkpt>
      <trkpt lat="43.75546" lon="7.12618">
        <ele>411.60000610352</ele>
        <time>2023-08-02T11:22:50.000Z</time>
      </trkpt>
      <trkpt lat="43.75546" lon="7.12618">
        <ele>411.60000610352</ele>
        <time>2023-08-02T11:22:51.000Z</time>
      </trkpt>
      <trkpt lat="43.75546" lon="7.12618">
        <ele>411.60000610352</ele>
        <time>2023-08-02T11:22:52.000Z</time>
      </trkpt>
      <trkpt lat="43.75546" lon="7.12618">
        <ele>411.60000610352</ele>
        <time>2023-08-02T11:22:53.000Z</time>
      </trkpt>
      <trkpt lat="43.75546" lon="7.12618">
        <ele>411.60000610352</ele>
        <time>2023-08-02T11:22:54.000Z</time>
      </trkpt>
      <trkpt lat="43.75546" lon="7.12618">
        <ele>411.60000610352</ele>
        <time>2023-08-02T11:22:55.000Z</time>
      </trkpt>
      <trkpt lat="43.75546" lon="7.12618">
        <ele>411.60000610352</ele>
        <time>2023-08-02T11:22:56.000Z</time>
      </trkpt>
      <trkpt lat="43.75546" lon="7.12618">
        <ele>411.60000610352</ele>
        <time>2023-08-02T11:22:57.000Z</time>
      </trkpt>
      <trkpt lat="43.75546" lon="7.12618">
        <ele>411.60000610352</ele>
        <time>2023-08-02T11:22:58.000Z</time>
      </trkpt>
      <trkpt lat="43.75546" lon="7.12618">
        <ele>411.60000610352</ele>
        <time>2023-08-02T11:22:59.000Z</time>
      </trkpt>
      <trkpt lat="43.75546" lon="7.12618">
        <ele>411.60000610352</ele>
        <time>2023-08-02T11:23:00.000Z</time>
      </trkpt>
      <trkpt lat="43.75546" lon="7.12618">
        <ele>411.60000610352</ele>
        <time>2023-08-02T11:23:01.000Z</time>
      </trkpt>
      <trkpt lat="43.75546" lon="7.12618">
        <ele>411.60000610352</ele>
        <time>2023-08-02T11:23:02.000Z</time>
      </trkpt>
      <trkpt lat="43.75546" lon="7.12618">
        <ele>411.60000610352</ele>
        <time>2023-08-02T11:23:03.000Z</time>
      </trkpt>
      <trkpt lat="43.75546" lon="7.12618">
        <ele>411.60000610352</ele>
        <time>2023-08-02T11:23:04.000Z</time>
      </trkpt>
      <trkpt lat="43.75546" lon="7.12618">
        <ele>411.60000610352</ele>
        <time>2023-08-02T11:23:05.000Z</time>
      </trkpt>
      <trkpt lat="43.75546" lon="7.12618">
        <ele>411.60000610352</ele>
        <time>2023-08-02T11:23:06.000Z</time>
      </trkpt>
      <trkpt lat="43.75546" lon="7.12618">
        <ele>411.60000610352</ele>
        <time>2023-08-02T11:23:07.000Z</time>
      </trkpt>
      <trkpt lat="43.75546" lon="7.12618">
        <ele>411.60000610352</ele>
        <time>2023-08-02T11:23:08.000Z</time>
      </trkpt>
      <trkpt lat="43.75546" lon="7.12617">
        <ele>411.60000610352</ele>
        <time>2023-08-02T11:23:09.000Z</time>
      </trkpt>
      <trkpt lat="43.75546" lon="7.12618">
        <ele>411.60000610352</ele>
        <time>2023-08-02T11:23:10.000Z</time>
      </trkpt>
      <trkpt lat="43.75546" lon="7.12617">
        <ele>411.60000610352</ele>
        <time>2023-08-02T11:23:11.000Z</time>
      </trkpt>
      <trkpt lat="43.75546" lon="7.12617">
        <ele>411.60000610352</ele>
        <time>2023-08-02T11:23:12.000Z</time>
      </trkpt>
      <trkpt lat="43.75546" lon="7.12617">
        <ele>411.60000610352</ele>
        <time>2023-08-02T11:23:13.000Z</time>
      </trkpt>
      <trkpt lat="43.75546" lon="7.12617">
        <ele>411.60000610352</ele>
        <time>2023-08-02T11:23:14.000Z</time>
      </trkpt>
      <trkpt lat="43.75546" lon="7.12617">
        <ele>411.60000610352</ele>
        <time>2023-08-02T11:23:15.000Z</time>
      </trkpt>
      <trkpt lat="43.75546" lon="7.12617">
        <ele>411.60000610352</ele>
        <time>2023-08-02T11:23:16.000Z</time>
      </trkpt>
      <trkpt lat="43.75546" lon="7.12618">
        <ele>411.60000610352</ele>
        <time>2023-08-02T11:23:17.000Z</time>
      </trkpt>
      <trkpt lat="43.75546" lon="7.12618">
        <ele>411.60000610352</ele>
        <time>2023-08-02T11:23:18.000Z</time>
      </trkpt>
      <trkpt lat="43.75546" lon="7.12618">
        <ele>411.60000610352</ele>
        <time>2023-08-02T11:23:19.000Z</time>
      </trkpt>
      <trkpt lat="43.75546" lon="7.12618">
        <ele>411.60000610352</ele>
        <time>2023-08-02T11:23:20.000Z</time>
      </trkpt>
      <trkpt lat="43.75546" lon="7.12618">
        <ele>411.60000610352</ele>
        <time>2023-08-02T11:23:21.000Z</time>
      </trkpt>
      <trkpt lat="43.75546" lon="7.12618">
        <ele>411.60000610352</ele>
        <time>2023-08-02T11:23:22.000Z</time>
      </trkpt>
      <trkpt lat="43.75546" lon="7.12618">
        <ele>411.60000610352</ele>
        <time>2023-08-02T11:23:23.000Z</time>
      </trkpt>
      <trkpt lat="43.75546" lon="7.12618">
        <ele>411.60000610352</ele>
        <time>2023-08-02T11:23:24.000Z</time>
      </trkpt>
      <trkpt lat="43.75546" lon="7.12617">
        <ele>411.60000610352</ele>
        <time>2023-08-02T11:23:25.000Z</time>
      </trkpt>
      <trkpt lat="43.75546" lon="7.12617">
        <ele>411.60000610352</ele>
        <time>2023-08-02T11:23:26.000Z</time>
      </trkpt>
      <trkpt lat="43.75546" lon="7.12617">
        <ele>411.60000610352</ele>
        <time>2023-08-02T11:23:27.000Z</time>
      </trkpt>
      <trkpt lat="43.75546" lon="7.12617">
        <ele>411.60000610352</ele>
        <time>2023-08-02T11:23:28.000Z</time>
      </trkpt>
      <trkpt lat="43.75546" lon="7.12617">
        <ele>411.60000610352</ele>
        <time>2023-08-02T11:23:29.000Z</time>
      </trkpt>
      <trkpt lat="43.75546" lon="7.12617">
        <ele>411.60000610352</ele>
        <time>2023-08-02T11:23:30.000Z</time>
      </trkpt>
      <trkpt lat="43.75546" lon="7.12617">
        <ele>411.60000610352</ele>
        <time>2023-08-02T11:23:31.000Z</time>
      </trkpt>
      <trkpt lat="43.75546" lon="7.12617">
        <ele>411.60000610352</ele>
        <time>2023-08-02T11:23:32.000Z</time>
      </trkpt>
      <trkpt lat="43.75546" lon="7.12617">
        <ele>411.60000610352</ele>
        <time>2023-08-02T11:23:33.000Z</time>
      </trkpt>
      <trkpt lat="43.75546" lon="7.12617">
        <ele>411.60000610352</ele>
        <time>2023-08-02T11:23:34.000Z</time>
      </trkpt>
      <trkpt lat="43.75546" lon="7.12617">
        <ele>411.60000610352</ele>
        <time>2023-08-02T11:23:35.000Z</time>
      </trkpt>
      <trkpt lat="43.75546" lon="7.12617">
        <ele>411.60000610352</ele>
        <time>2023-08-02T11:23:36.000Z</time>
      </trkpt>
      <trkpt lat="43.75546" lon="7.12617">
        <ele>411.60000610352</ele>
        <time>2023-08-02T11:23:37.000Z</time>
      </trkpt>
      <trkpt lat="43.75546" lon="7.12617">
        <ele>411.60000610352</ele>
        <time>2023-08-02T11:23:38.000Z</time>
      </trkpt>
      <trkpt lat="43.75546" lon="7.12617">
        <ele>411.60000610352</ele>
        <time>2023-08-02T11:23:39.000Z</time>
      </trkpt>
      <trkpt lat="43.75546" lon="7.12617">
        <ele>411.60000610352</ele>
        <time>2023-08-02T11:23:40.000Z</time>
      </trkpt>
      <trkpt lat="43.75546" lon="7.12617">
        <ele>411.60000610352</ele>
        <time>2023-08-02T11:23:41.000Z</time>
      </trkpt>
      <trkpt lat="43.75546" lon="7.12618">
        <ele>411.60000610352</ele>
        <time>2023-08-02T11:23:42.000Z</time>
      </trkpt>
      <trkpt lat="43.75546" lon="7.12618">
        <ele>411.60000610352</ele>
        <time>2023-08-02T11:23:43.000Z</time>
      </trkpt>
      <trkpt lat="43.75546" lon="7.12618">
        <ele>411.60000610352</ele>
        <time>2023-08-02T11:23:44.000Z</time>
      </trkpt>
      <trkpt lat="43.75546" lon="7.12618">
        <ele>411.60000610352</ele>
        <time>2023-08-02T11:23:45.000Z</time>
      </trkpt>
      <trkpt lat="43.75546" lon="7.12618">
        <ele>411.60000610352</ele>
        <time>2023-08-02T11:23:46.000Z</time>
      </trkpt>
      <trkpt lat="43.75546" lon="7.12618">
        <ele>411.60000610352</ele>
        <time>2023-08-02T11:23:47.000Z</time>
      </trkpt>
      <trkpt lat="43.75546" lon="7.12618">
        <ele>411.60000610352</ele>
        <time>2023-08-02T11:23:48.000Z</time>
      </trkpt>
      <trkpt lat="43.75546" lon="7.12618">
        <ele>411.60000610352</ele>
        <time>2023-08-02T11:23:49.000Z</time>
      </trkpt>
      <trkpt lat="43.75546" lon="7.12618">
        <ele>411.60000610352</ele>
        <time>2023-08-02T11:23:50.000Z</time>
      </trkpt>
      <trkpt lat="43.75546" lon="7.12618">
        <ele>411.60000610352</ele>
        <time>2023-08-02T11:23:51.000Z</time>
      </trkpt>
      <trkpt lat="43.75546" lon="7.12618">
        <ele>411.60000610352</ele>
        <time>2023-08-02T11:23:52.000Z</time>
      </trkpt>
      <trkpt lat="43.75546" lon="7.12618">
        <ele>411.60000610352</ele>
        <time>2023-08-02T11:23:53.000Z</time>
      </trkpt>
      <trkpt lat="43.75546" lon="7.12618">
        <ele>411.60000610352</ele>
        <time>2023-08-02T11:23:54.000Z</time>
      </trkpt>
      <trkpt lat="43.75546" lon="7.12618">
        <ele>411.60000610352</ele>
        <time>2023-08-02T11:23:55.000Z</time>
      </trkpt>
      <trkpt lat="43.75546" lon="7.12618">
        <ele>411.60000610352</ele>
        <time>2023-08-02T11:23:56.000Z</time>
      </trkpt>
      <trkpt lat="43.75546" lon="7.12618">
        <ele>411.60000610352</ele>
        <time>2023-08-02T11:23:57.000Z</time>
      </trkpt>
      <trkpt lat="43.75546" lon="7.12618">
        <ele>411.60000610352</ele>
        <time>2023-08-02T11:23:58.000Z</time>
      </trkpt>
      <trkpt lat="43.75546" lon="7.12618">
        <ele>411.60000610352</ele>
        <time>2023-08-02T11:23:59.000Z</time>
      </trkpt>
      <trkpt lat="43.75546" lon="7.12618">
        <ele>411.60000610352</ele>
        <time>2023-08-02T11:24:00.000Z</time>
      </trkpt>
      <trkpt lat="43.75546" lon="7.12617">
        <ele>411.60000610352</ele>
        <time>2023-08-02T11:24:01.000Z</time>
      </trkpt>
      <trkpt lat="43.75546" lon="7.12617">
        <ele>411.60000610352</ele>
        <time>2023-08-02T11:24:02.000Z</time>
      </trkpt>
      <trkpt lat="43.75546" lon="7.12617">
        <ele>411.60000610352</ele>
        <time>2023-08-02T11:24:03.000Z</time>
      </trkpt>
      <trkpt lat="43.75546" lon="7.12617">
        <ele>411.60000610352</ele>
        <time>2023-08-02T11:24:04.000Z</time>
      </trkpt>
      <trkpt lat="43.75546" lon="7.12617">
        <ele>411.60000610352</ele>
        <time>2023-08-02T11:24:05.000Z</time>
      </trkpt>
      <trkpt lat="43.75546" lon="7.12617">
        <ele>411.60000610352</ele>
        <time>2023-08-02T11:24:06.000Z</time>
      </trkpt>
      <trkpt lat="43.75546" lon="7.12617">
        <ele>411.60000610352</ele>
        <time>2023-08-02T11:24:07.000Z</time>
      </trkpt>
      <trkpt lat="43.75546" lon="7.12617">
        <ele>411.60000610352</ele>
        <time>2023-08-02T11:24:08.000Z</time>
      </trkpt>
      <trkpt lat="43.75546" lon="7.12617">
        <ele>411.60000610352</ele>
        <time>2023-08-02T11:24:09.000Z</time>
      </trkpt>
      <trkpt lat="43.75546" lon="7.12617">
        <ele>411.60000610352</ele>
        <time>2023-08-02T11:24:10.000Z</time>
      </trkpt>
      <trkpt lat="43.75546" lon="7.12617">
        <ele>411.60000610352</ele>
        <time>2023-08-02T11:24:11.000Z</time>
      </trkpt>
      <trkpt lat="43.75546" lon="7.12617">
        <ele>411.60000610352</ele>
        <time>2023-08-02T11:24:12.000Z</time>
      </trkpt>
      <trkpt lat="43.75546" lon="7.12617">
        <ele>411.60000610352</ele>
        <time>2023-08-02T11:24:13.000Z</time>
      </trkpt>
      <trkpt lat="43.75546" lon="7.12617">
        <ele>411.60000610352</ele>
        <time>2023-08-02T11:24:14.000Z</time>
      </trkpt>
      <trkpt lat="43.75546" lon="7.12617">
        <ele>411.60000610352</ele>
        <time>2023-08-02T11:24:15.000Z</time>
      </trkpt>
      <trkpt lat="43.75546" lon="7.12617">
        <ele>411.60000610352</ele>
        <time>2023-08-02T11:24:16.000Z</time>
      </trkpt>
      <trkpt lat="43.75546" lon="7.12618">
        <ele>411.60000610352</ele>
        <time>2023-08-02T11:24:17.000Z</time>
      </trkpt>
      <trkpt lat="43.75546" lon="7.12618">
        <ele>411.60000610352</ele>
        <time>2023-08-02T11:24:18.000Z</time>
      </trkpt>
      <trkpt lat="43.75546" lon="7.12618">
        <ele>411.60000610352</ele>
        <time>2023-08-02T11:24:19.000Z</time>
      </trkpt>
      <trkpt lat="43.75546" lon="7.12618">
        <ele>411.60000610352</ele>
        <time>2023-08-02T11:24:20.000Z</time>
      </trkpt>
      <trkpt lat="43.75546" lon="7.12618">
        <ele>411.60000610352</ele>
        <time>2023-08-02T11:24:21.000Z</time>
      </trkpt>
      <trkpt lat="43.75546" lon="7.12618">
        <ele>411.60000610352</ele>
        <time>2023-08-02T11:24:22.000Z</time>
      </trkpt>
      <trkpt lat="43.75546" lon="7.12618">
        <ele>411.60000610352</ele>
        <time>2023-08-02T11:24:23.000Z</time>
      </trkpt>
      <trkpt lat="43.75546" lon="7.12618">
        <ele>411.60000610352</ele>
        <time>2023-08-02T11:24:24.000Z</time>
      </trkpt>
      <trkpt lat="43.75546" lon="7.12618">
        <ele>411.60000610352</ele>
        <time>2023-08-02T11:24:25.000Z</time>
      </trkpt>
      <trkpt lat="43.75546" lon="7.12618">
        <ele>411.60000610352</ele>
        <time>2023-08-02T11:24:26.000Z</time>
      </trkpt>
      <trkpt lat="43.75546" lon="7.12618">
        <ele>411.60000610352</ele>
        <time>2023-08-02T11:24:27.000Z</time>
      </trkpt>
      <trkpt lat="43.75546" lon="7.12618">
        <ele>411.60000610352</ele>
        <time>2023-08-02T11:24:28.000Z</time>
      </trkpt>
      <trkpt lat="43.75546" lon="7.12618">
        <ele>411.60000610352</ele>
        <time>2023-08-02T11:24:29.000Z</time>
      </trkpt>
      <trkpt lat="43.75546" lon="7.12618">
        <ele>411.60000610352</ele>
        <time>2023-08-02T11:24:30.000Z</time>
      </trkpt>
      <trkpt lat="43.75546" lon="7.12618">
        <ele>411.60000610352</ele>
        <time>2023-08-02T11:24:31.000Z</time>
      </trkpt>
      <trkpt lat="43.75546" lon="7.12618">
        <ele>411.60000610352</ele>
        <time>2023-08-02T11:24:32.000Z</time>
      </trkpt>
      <trkpt lat="43.75546" lon="7.12618">
        <ele>411.60000610352</ele>
        <time>2023-08-02T11:24:33.000Z</time>
      </trkpt>
      <trkpt lat="43.75546" lon="7.12617">
        <ele>411.60000610352</ele>
        <time>2023-08-02T11:24:34.000Z</time>
      </trkpt>
      <trkpt lat="43.75546" lon="7.12617">
        <ele>411.60000610352</ele>
        <time>2023-08-02T11:24:35.000Z</time>
      </trkpt>
      <trkpt lat="43.75546" lon="7.12617">
        <ele>411.60000610352</ele>
        <time>2023-08-02T11:24:36.000Z</time>
      </trkpt>
      <trkpt lat="43.75546" lon="7.12617">
        <ele>411.60000610352</ele>
        <time>2023-08-02T11:24:37.000Z</time>
      </trkpt>
      <trkpt lat="43.75546" lon="7.12617">
        <ele>411.60000610352</ele>
        <time>2023-08-02T11:24:38.000Z</time>
      </trkpt>
      <trkpt lat="43.75546" lon="7.12617">
        <ele>411.60000610352</ele>
        <time>2023-08-02T11:24:39.000Z</time>
      </trkpt>
      <trkpt lat="43.75546" lon="7.12617">
        <ele>411.60000610352</ele>
        <time>2023-08-02T11:24:40.000Z</time>
      </trkpt>
      <trkpt lat="43.75546" lon="7.12617">
        <ele>411.60000610352</ele>
        <time>2023-08-02T11:24:41.000Z</time>
      </trkpt>
      <trkpt lat="43.75546" lon="7.12617">
        <ele>411.60000610352</ele>
        <time>2023-08-02T11:24:42.000Z</time>
      </trkpt>
      <trkpt lat="43.75546" lon="7.12617">
        <ele>411.60000610352</ele>
        <time>2023-08-02T11:24:43.000Z</time>
      </trkpt>
      <trkpt lat="43.75546" lon="7.12617">
        <ele>411.60000610352</ele>
        <time>2023-08-02T11:24:44.000Z</time>
      </trkpt>
      <trkpt lat="43.75546" lon="7.12617">
        <ele>411.60000610352</ele>
        <time>2023-08-02T11:24:45.000Z</time>
      </trkpt>
      <trkpt lat="43.75546" lon="7.12617">
        <ele>411.60000610352</ele>
        <time>2023-08-02T11:24:46.000Z</time>
      </trkpt>
      <trkpt lat="43.75546" lon="7.12617">
        <ele>411.60000610352</ele>
        <time>2023-08-02T11:24:47.000Z</time>
      </trkpt>
      <trkpt lat="43.75546" lon="7.12617">
        <ele>411.60000610352</ele>
        <time>2023-08-02T11:24:48.000Z</time>
      </trkpt>
      <trkpt lat="43.75546" lon="7.12617">
        <ele>411.60000610352</ele>
        <time>2023-08-02T11:24:49.000Z</time>
      </trkpt>
      <trkpt lat="43.75546" lon="7.12617">
        <ele>411.60000610352</ele>
        <time>2023-08-02T11:24:50.000Z</time>
      </trkpt>
      <trkpt lat="43.75546" lon="7.12617">
        <ele>411.60000610352</ele>
        <time>2023-08-02T11:24:51.000Z</time>
      </trkpt>
      <trkpt lat="43.75546" lon="7.12618">
        <ele>411.60000610352</ele>
        <time>2023-08-02T11:24:52.000Z</time>
      </trkpt>
      <trkpt lat="43.75546" lon="7.12618">
        <ele>411.60000610352</ele>
        <time>2023-08-02T11:24:53.000Z</time>
      </trkpt>
      <trkpt lat="43.75546" lon="7.12618">
        <ele>411.60000610352</ele>
        <time>2023-08-02T11:24:54.000Z</time>
      </trkpt>
      <trkpt lat="43.75546" lon="7.12618">
        <ele>411.60000610352</ele>
        <time>2023-08-02T11:24:55.000Z</time>
      </trkpt>
      <trkpt lat="43.75546" lon="7.12618">
        <ele>411.60000610352</ele>
        <time>2023-08-02T11:24:56.000Z</time>
      </trkpt>
      <trkpt lat="43.75546" lon="7.12618">
        <ele>411.60000610352</ele>
        <time>2023-08-02T11:24:57.000Z</time>
      </trkpt>
      <trkpt lat="43.75546" lon="7.12618">
        <ele>411.60000610352</ele>
        <time>2023-08-02T11:24:58.000Z</time>
      </trkpt>
      <trkpt lat="43.75546" lon="7.12618">
        <ele>411.60000610352</ele>
        <time>2023-08-02T11:24:59.000Z</time>
      </trkpt>
      <trkpt lat="43.75546" lon="7.12618">
        <ele>411.60000610352</ele>
        <time>2023-08-02T11:25:00.000Z</time>
      </trkpt>
      <trkpt lat="43.75546" lon="7.12618">
        <ele>411.60000610352</ele>
        <time>2023-08-02T11:25:01.000Z</time>
      </trkpt>
      <trkpt lat="43.75546" lon="7.12618">
        <ele>411.60000610352</ele>
        <time>2023-08-02T11:25:02.000Z</time>
      </trkpt>
      <trkpt lat="43.75546" lon="7.12618">
        <ele>411.60000610352</ele>
        <time>2023-08-02T11:25:03.000Z</time>
      </trkpt>
      <trkpt lat="43.75546" lon="7.12618">
        <ele>411.60000610352</ele>
        <time>2023-08-02T11:25:04.000Z</time>
      </trkpt>
      <trkpt lat="43.75546" lon="7.12618">
        <ele>411.60000610352</ele>
        <time>2023-08-02T11:25:05.000Z</time>
      </trkpt>
      <trkpt lat="43.75546" lon="7.12618">
        <ele>411.60000610352</ele>
        <time>2023-08-02T11:25:06.000Z</time>
      </trkpt>
      <trkpt lat="43.75546" lon="7.12618">
        <ele>411.60000610352</ele>
        <time>2023-08-02T11:25:07.000Z</time>
      </trkpt>
      <trkpt lat="43.75546" lon="7.12618">
        <ele>411.60000610352</ele>
        <time>2023-08-02T11:25:08.000Z</time>
      </trkpt>
      <trkpt lat="43.75546" lon="7.12618">
        <ele>411.60000610352</ele>
        <time>2023-08-02T11:25:09.000Z</time>
      </trkpt>
      <trkpt lat="43.75546" lon="7.12618">
        <ele>411.60000610352</ele>
        <time>2023-08-02T11:25:10.000Z</time>
      </trkpt>
      <trkpt lat="43.75546" lon="7.12618">
        <ele>411.60000610352</ele>
        <time>2023-08-02T11:25:11.000Z</time>
      </trkpt>
      <trkpt lat="43.75546" lon="7.12618">
        <ele>411.60000610352</ele>
        <time>2023-08-02T11:25:12.000Z</time>
      </trkpt>
      <trkpt lat="43.75546" lon="7.12618">
        <ele>411.60000610352</ele>
        <time>2023-08-02T11:25:13.000Z</time>
      </trkpt>
      <trkpt lat="43.75546" lon="7.12618">
        <ele>411.60000610352</ele>
        <time>2023-08-02T11:25:14.000Z</time>
      </trkpt>
      <trkpt lat="43.75546" lon="7.12618">
        <ele>411.60000610352</ele>
        <time>2023-08-02T11:25:15.000Z</time>
      </trkpt>
      <trkpt lat="43.75546" lon="7.12618">
        <ele>411.60000610352</ele>
        <time>2023-08-02T11:25:16.000Z</time>
      </trkpt>
      <trkpt lat="43.75546" lon="7.12618">
        <ele>411.60000610352</ele>
        <time>2023-08-02T11:25:17.000Z</time>
      </trkpt>
      <trkpt lat="43.75546" lon="7.12618">
        <ele>411.60000610352</ele>
        <time>2023-08-02T11:25:18.000Z</time>
      </trkpt>
      <trkpt lat="43.75546" lon="7.12618">
        <ele>411.60000610352</ele>
        <time>2023-08-02T11:25:19.000Z</time>
      </trkpt>
      <trkpt lat="43.75546" lon="7.12618">
        <ele>411.60000610352</ele>
        <time>2023-08-02T11:25:20.000Z</time>
      </trkpt>
      <trkpt lat="43.75546" lon="7.12618">
        <ele>411.60000610352</ele>
        <time>2023-08-02T11:25:21.000Z</time>
      </trkpt>
      <trkpt lat="43.75546" lon="7.12618">
        <ele>411.60000610352</ele>
        <time>2023-08-02T11:25:22.000Z</time>
      </trkpt>
      <trkpt lat="43.75546" lon="7.12618">
        <ele>411.60000610352</ele>
        <time>2023-08-02T11:25:23.000Z</time>
      </trkpt>
      <trkpt lat="43.75546" lon="7.12618">
        <ele>411.60000610352</ele>
        <time>2023-08-02T11:25:24.000Z</time>
      </trkpt>
      <trkpt lat="43.75546" lon="7.12618">
        <ele>411.60000610352</ele>
        <time>2023-08-02T11:25:25.000Z</time>
      </trkpt>
      <trkpt lat="43.75546" lon="7.12618">
        <ele>411.60000610352</ele>
        <time>2023-08-02T11:25:26.000Z</time>
      </trkpt>
      <trkpt lat="43.75546" lon="7.12618">
        <ele>411.60000610352</ele>
        <time>2023-08-02T11:25:27.000Z</time>
      </trkpt>
      <trkpt lat="43.75546" lon="7.12618">
        <ele>411.60000610352</ele>
        <time>2023-08-02T11:25:28.000Z</time>
      </trkpt>
      <trkpt lat="43.75546" lon="7.12618">
        <ele>411.60000610352</ele>
        <time>2023-08-02T11:25:29.000Z</time>
      </trkpt>
      <trkpt lat="43.75546" lon="7.12618">
        <ele>411.60000610352</ele>
        <time>2023-08-02T11:25:30.000Z</time>
      </trkpt>
      <trkpt lat="43.75546" lon="7.12618">
        <ele>411.60000610352</ele>
        <time>2023-08-02T11:25:31.000Z</time>
      </trkpt>
      <trkpt lat="43.75546" lon="7.12618">
        <ele>411.60000610352</ele>
        <time>2023-08-02T11:25:32.000Z</time>
      </trkpt>
      <trkpt lat="43.75546" lon="7.12618">
        <ele>411.60000610352</ele>
        <time>2023-08-02T11:25:33.000Z</time>
      </trkpt>
      <trkpt lat="43.75546" lon="7.12618">
        <ele>411.60000610352</ele>
        <time>2023-08-02T11:25:34.000Z</time>
      </trkpt>
      <trkpt lat="43.75546" lon="7.12618">
        <ele>411.60000610352</ele>
        <time>2023-08-02T11:25:35.000Z</time>
      </trkpt>
      <trkpt lat="43.75546" lon="7.12618">
        <ele>411.60000610352</ele>
        <time>2023-08-02T11:25:36.000Z</time>
      </trkpt>
      <trkpt lat="43.75546" lon="7.12618">
        <ele>411.60000610352</ele>
        <time>2023-08-02T11:25:37.000Z</time>
      </trkpt>
      <trkpt lat="43.75546" lon="7.12618">
        <ele>411.60000610352</ele>
        <time>2023-08-02T11:25:38.000Z</time>
      </trkpt>
      <trkpt lat="43.75546" lon="7.12618">
        <ele>411.60000610352</ele>
        <time>2023-08-02T11:25:39.000Z</time>
      </trkpt>
      <trkpt lat="43.75546" lon="7.12618">
        <ele>411.60000610352</ele>
        <time>2023-08-02T11:25:40.000Z</time>
      </trkpt>
      <trkpt lat="43.75546" lon="7.12618">
        <ele>411.60000610352</ele>
        <time>2023-08-02T11:25:41.000Z</time>
      </trkpt>
      <trkpt lat="43.75546" lon="7.12618">
        <ele>411.60000610352</ele>
        <time>2023-08-02T11:25:42.000Z</time>
      </trkpt>
      <trkpt lat="43.75546" lon="7.12618">
        <ele>411.60000610352</ele>
        <time>2023-08-02T11:25:43.000Z</time>
      </trkpt>
      <trkpt lat="43.75546" lon="7.12618">
        <ele>411.60000610352</ele>
        <time>2023-08-02T11:25:44.000Z</time>
      </trkpt>
      <trkpt lat="43.75546" lon="7.12618">
        <ele>411.60000610352</ele>
        <time>2023-08-02T11:25:45.000Z</time>
      </trkpt>
      <trkpt lat="43.75546" lon="7.12618">
        <ele>411.60000610352</ele>
        <time>2023-08-02T11:25:46.000Z</time>
      </trkpt>
      <trkpt lat="43.75546" lon="7.12618">
        <ele>411.60000610352</ele>
        <time>2023-08-02T11:25:47.000Z</time>
      </trkpt>
      <trkpt lat="43.75546" lon="7.12618">
        <ele>411.60000610352</ele>
        <time>2023-08-02T11:25:48.000Z</time>
      </trkpt>
      <trkpt lat="43.75546" lon="7.12618">
        <ele>411.60000610352</ele>
        <time>2023-08-02T11:25:49.000Z</time>
      </trkpt>
      <trkpt lat="43.75546" lon="7.12618">
        <ele>411.60000610352</ele>
        <time>2023-08-02T11:25:50.000Z</time>
      </trkpt>
      <trkpt lat="43.75546" lon="7.12618">
        <ele>411.60000610352</ele>
        <time>2023-08-02T11:25:51.000Z</time>
      </trkpt>
      <trkpt lat="43.75546" lon="7.12618">
        <ele>411.60000610352</ele>
        <time>2023-08-02T11:25:52.000Z</time>
      </trkpt>
      <trkpt lat="43.75546" lon="7.12618">
        <ele>411.60000610352</ele>
        <time>2023-08-02T11:25:53.000Z</time>
      </trkpt>
      <trkpt lat="43.75546" lon="7.12618">
        <ele>411.60000610352</ele>
        <time>2023-08-02T11:25:54.000Z</time>
      </trkpt>
      <trkpt lat="43.75546" lon="7.12618">
        <ele>411.60000610352</ele>
        <time>2023-08-02T11:25:55.000Z</time>
      </trkpt>
      <trkpt lat="43.75546" lon="7.12618">
        <ele>411.60000610352</ele>
        <time>2023-08-02T11:25:56.000Z</time>
      </trkpt>
      <trkpt lat="43.75546" lon="7.12618">
        <ele>411.60000610352</ele>
        <time>2023-08-02T11:25:57.000Z</time>
      </trkpt>
      <trkpt lat="43.75546" lon="7.12618">
        <ele>411.60000610352</ele>
        <time>2023-08-02T11:25:58.000Z</time>
      </trkpt>
      <trkpt lat="43.75546" lon="7.12618">
        <ele>411.60000610352</ele>
        <time>2023-08-02T11:25:59.000Z</time>
      </trkpt>
      <trkpt lat="43.75546" lon="7.12618">
        <ele>411.60000610352</ele>
        <time>2023-08-02T11:26:00.000Z</time>
      </trkpt>
      <trkpt lat="43.75546" lon="7.12618">
        <ele>411.60000610352</ele>
        <time>2023-08-02T11:26:01.000Z</time>
      </trkpt>
      <trkpt lat="43.75546" lon="7.12618">
        <ele>411.60000610352</ele>
        <time>2023-08-02T11:26:02.000Z</time>
      </trkpt>
      <trkpt lat="43.75546" lon="7.12618">
        <ele>411.60000610352</ele>
        <time>2023-08-02T11:26:03.000Z</time>
      </trkpt>
      <trkpt lat="43.75546" lon="7.12618">
        <ele>411.60000610352</ele>
        <time>2023-08-02T11:26:04.000Z</time>
      </trkpt>
      <trkpt lat="43.75546" lon="7.12618">
        <ele>411.60000610352</ele>
        <time>2023-08-02T11:26:05.000Z</time>
      </trkpt>
      <trkpt lat="43.75546" lon="7.12618">
        <ele>411.60000610352</ele>
        <time>2023-08-02T11:26:06.000Z</time>
      </trkpt>
      <trkpt lat="43.75546" lon="7.12618">
        <ele>411.60000610352</ele>
        <time>2023-08-02T11:26:07.000Z</time>
      </trkpt>
      <trkpt lat="43.75546" lon="7.12618">
        <ele>411.60000610352</ele>
        <time>2023-08-02T11:26:08.000Z</time>
      </trkpt>
      <trkpt lat="43.75546" lon="7.12618">
        <ele>411.60000610352</ele>
        <time>2023-08-02T11:26:09.000Z</time>
      </trkpt>
      <trkpt lat="43.75546" lon="7.12618">
        <ele>411.60000610352</ele>
        <time>2023-08-02T11:26:10.000Z</time>
      </trkpt>
      <trkpt lat="43.75546" lon="7.12618">
        <ele>411.60000610352</ele>
        <time>2023-08-02T11:26:11.000Z</time>
      </trkpt>
      <trkpt lat="43.75546" lon="7.12618">
        <ele>411.60000610352</ele>
        <time>2023-08-02T11:26:12.000Z</time>
      </trkpt>
      <trkpt lat="43.75546" lon="7.12618">
        <ele>411.60000610352</ele>
        <time>2023-08-02T11:26:13.000Z</time>
      </trkpt>
      <trkpt lat="43.75546" lon="7.12618">
        <ele>411.60000610352</ele>
        <time>2023-08-02T11:26:14.000Z</time>
      </trkpt>
      <trkpt lat="43.75546" lon="7.12618">
        <ele>411.60000610352</ele>
        <time>2023-08-02T11:26:15.000Z</time>
      </trkpt>
      <trkpt lat="43.75546" lon="7.12618">
        <ele>411.60000610352</ele>
        <time>2023-08-02T11:26:16.000Z</time>
      </trkpt>
      <trkpt lat="43.75546" lon="7.12618">
        <ele>411.60000610352</ele>
        <time>2023-08-02T11:26:17.000Z</time>
      </trkpt>
      <trkpt lat="43.75546" lon="7.12618">
        <ele>411.60000610352</ele>
        <time>2023-08-02T11:26:18.000Z</time>
      </trkpt>
      <trkpt lat="43.75546" lon="7.12618">
        <ele>411.60000610352</ele>
        <time>2023-08-02T11:26:19.000Z</time>
      </trkpt>
      <trkpt lat="43.75546" lon="7.12618">
        <ele>411.60000610352</ele>
        <time>2023-08-02T11:26:20.000Z</time>
      </trkpt>
      <trkpt lat="43.75546" lon="7.12618">
        <ele>411.60000610352</ele>
        <time>2023-08-02T11:26:21.000Z</time>
      </trkpt>
      <trkpt lat="43.75546" lon="7.12618">
        <ele>411.60000610352</ele>
        <time>2023-08-02T11:26:22.000Z</time>
      </trkpt>
      <trkpt lat="43.75546" lon="7.12618">
        <ele>411.60000610352</ele>
        <time>2023-08-02T11:26:23.000Z</time>
      </trkpt>
      <trkpt lat="43.75546" lon="7.12618">
        <ele>411.60000610352</ele>
        <time>2023-08-02T11:26:24.000Z</time>
      </trkpt>
      <trkpt lat="43.75546" lon="7.12618">
        <ele>411.60000610352</ele>
        <time>2023-08-02T11:26:25.000Z</time>
      </trkpt>
      <trkpt lat="43.75546" lon="7.12618">
        <ele>411.60000610352</ele>
        <time>2023-08-02T11:26:26.000Z</time>
      </trkpt>
      <trkpt lat="43.75546" lon="7.12618">
        <ele>411.60000610352</ele>
        <time>2023-08-02T11:26:27.000Z</time>
      </trkpt>
      <trkpt lat="43.75546" lon="7.12618">
        <ele>411.60000610352</ele>
        <time>2023-08-02T11:26:28.000Z</time>
      </trkpt>
      <trkpt lat="43.75546" lon="7.12618">
        <ele>411.60000610352</ele>
        <time>2023-08-02T11:26:29.000Z</time>
      </trkpt>
      <trkpt lat="43.75546" lon="7.12618">
        <ele>411.60000610352</ele>
        <time>2023-08-02T11:26:30.000Z</time>
      </trkpt>
      <trkpt lat="43.75546" lon="7.12618">
        <ele>411.60000610352</ele>
        <time>2023-08-02T11:26:31.000Z</time>
      </trkpt>
      <trkpt lat="43.75546" lon="7.12618">
        <ele>411.60000610352</ele>
        <time>2023-08-02T11:26:32.000Z</time>
      </trkpt>
      <trkpt lat="43.75546" lon="7.12618">
        <ele>411.60000610352</ele>
        <time>2023-08-02T11:26:33.000Z</time>
      </trkpt>
      <trkpt lat="43.75546" lon="7.12618">
        <ele>411.60000610352</ele>
        <time>2023-08-02T11:26:34.000Z</time>
      </trkpt>
      <trkpt lat="43.75546" lon="7.12618">
        <ele>411.60000610352</ele>
        <time>2023-08-02T11:26:35.000Z</time>
      </trkpt>
      <trkpt lat="43.75546" lon="7.12618">
        <ele>411.60000610352</ele>
        <time>2023-08-02T11:26:36.000Z</time>
      </trkpt>
      <trkpt lat="43.75546" lon="7.12618">
        <ele>411.60000610352</ele>
        <time>2023-08-02T11:26:37.000Z</time>
      </trkpt>
      <trkpt lat="43.75546" lon="7.12618">
        <ele>411.60000610352</ele>
        <time>2023-08-02T11:26:38.000Z</time>
      </trkpt>
      <trkpt lat="43.75546" lon="7.12618">
        <ele>411.60000610352</ele>
        <time>2023-08-02T11:26:39.000Z</time>
      </trkpt>
      <trkpt lat="43.75546" lon="7.12618">
        <ele>411.60000610352</ele>
        <time>2023-08-02T11:26:40.000Z</time>
      </trkpt>
      <trkpt lat="43.75546" lon="7.12618">
        <ele>411.60000610352</ele>
        <time>2023-08-02T11:26:41.000Z</time>
      </trkpt>
      <trkpt lat="43.75546" lon="7.12618">
        <ele>411.60000610352</ele>
        <time>2023-08-02T11:26:42.000Z</time>
      </trkpt>
      <trkpt lat="43.75546" lon="7.12618">
        <ele>411.60000610352</ele>
        <time>2023-08-02T11:26:43.000Z</time>
      </trkpt>
      <trkpt lat="43.75546" lon="7.12618">
        <ele>411.60000610352</ele>
        <time>2023-08-02T11:26:44.000Z</time>
      </trkpt>
      <trkpt lat="43.75546" lon="7.12618">
        <ele>411.60000610352</ele>
        <time>2023-08-02T11:26:45.000Z</time>
      </trkpt>
      <trkpt lat="43.75546" lon="7.12618">
        <ele>411.60000610352</ele>
        <time>2023-08-02T11:26:46.000Z</time>
      </trkpt>
      <trkpt lat="43.75546" lon="7.12618">
        <ele>411.60000610352</ele>
        <time>2023-08-02T11:26:47.000Z</time>
      </trkpt>
      <trkpt lat="43.75546" lon="7.12618">
        <ele>411.60000610352</ele>
        <time>2023-08-02T11:26:48.000Z</time>
      </trkpt>
      <trkpt lat="43.75546" lon="7.12618">
        <ele>411.60000610352</ele>
        <time>2023-08-02T11:26:49.000Z</time>
      </trkpt>
      <trkpt lat="43.75546" lon="7.12618">
        <ele>411.60000610352</ele>
        <time>2023-08-02T11:26:50.000Z</time>
      </trkpt>
      <trkpt lat="43.75546" lon="7.12618">
        <ele>411.60000610352</ele>
        <time>2023-08-02T11:26:51.000Z</time>
      </trkpt>
      <trkpt lat="43.75546" lon="7.12618">
        <ele>411.60000610352</ele>
        <time>2023-08-02T11:26:52.000Z</time>
      </trkpt>
      <trkpt lat="43.75546" lon="7.12618">
        <ele>411.60000610352</ele>
        <time>2023-08-02T11:26:53.000Z</time>
      </trkpt>
      <trkpt lat="43.75546" lon="7.12618">
        <ele>411.60000610352</ele>
        <time>2023-08-02T11:26:54.000Z</time>
      </trkpt>
      <trkpt lat="43.75546" lon="7.12618">
        <ele>411.60000610352</ele>
        <time>2023-08-02T11:26:55.000Z</time>
      </trkpt>
      <trkpt lat="43.75546" lon="7.12618">
        <ele>411.60000610352</ele>
        <time>2023-08-02T11:26:56.000Z</time>
      </trkpt>
      <trkpt lat="43.75546" lon="7.12618">
        <ele>411.60000610352</ele>
        <time>2023-08-02T11:26:57.000Z</time>
      </trkpt>
      <trkpt lat="43.75546" lon="7.12618">
        <ele>411.60000610352</ele>
        <time>2023-08-02T11:26:58.000Z</time>
      </trkpt>
      <trkpt lat="43.75546" lon="7.12618">
        <ele>411.60000610352</ele>
        <time>2023-08-02T11:26:59.000Z</time>
      </trkpt>
      <trkpt lat="43.75546" lon="7.12618">
        <ele>411.60000610352</ele>
        <time>2023-08-02T11:27:00.000Z</time>
      </trkpt>
      <trkpt lat="43.75546" lon="7.12618">
        <ele>411.60000610352</ele>
        <time>2023-08-02T11:27:01.000Z</time>
      </trkpt>
      <trkpt lat="43.75546" lon="7.12618">
        <ele>411.60000610352</ele>
        <time>2023-08-02T11:27:02.000Z</time>
      </trkpt>
      <trkpt lat="43.75546" lon="7.12618">
        <ele>411.60000610352</ele>
        <time>2023-08-02T11:27:03.000Z</time>
      </trkpt>
      <trkpt lat="43.75546" lon="7.12618">
        <ele>411.60000610352</ele>
        <time>2023-08-02T11:27:04.000Z</time>
      </trkpt>
      <trkpt lat="43.75546" lon="7.12618">
        <ele>411.60000610352</ele>
        <time>2023-08-02T11:27:05.000Z</time>
      </trkpt>
      <trkpt lat="43.75546" lon="7.12618">
        <ele>411.60000610352</ele>
        <time>2023-08-02T11:27:06.000Z</time>
      </trkpt>
      <trkpt lat="43.75546" lon="7.12618">
        <ele>411.60000610352</ele>
        <time>2023-08-02T11:27:07.000Z</time>
      </trkpt>
      <trkpt lat="43.75546" lon="7.12618">
        <ele>411.60000610352</ele>
        <time>2023-08-02T11:27:08.000Z</time>
      </trkpt>
      <trkpt lat="43.75546" lon="7.12618">
        <ele>411.60000610352</ele>
        <time>2023-08-02T11:27:09.000Z</time>
      </trkpt>
      <trkpt lat="43.75546" lon="7.12618">
        <ele>411.60000610352</ele>
        <time>2023-08-02T11:27:10.000Z</time>
      </trkpt>
      <trkpt lat="43.75546" lon="7.12618">
        <ele>411.60000610352</ele>
        <time>2023-08-02T11:27:11.000Z</time>
      </trkpt>
      <trkpt lat="43.75546" lon="7.12618">
        <ele>411.60000610352</ele>
        <time>2023-08-02T11:27:12.000Z</time>
      </trkpt>
      <trkpt lat="43.75546" lon="7.12618">
        <ele>411.60000610352</ele>
        <time>2023-08-02T11:27:13.000Z</time>
      </trkpt>
      <trkpt lat="43.75546" lon="7.12618">
        <ele>411.60000610352</ele>
        <time>2023-08-02T11:27:14.000Z</time>
      </trkpt>
      <trkpt lat="43.75546" lon="7.12618">
        <ele>411.60000610352</ele>
        <time>2023-08-02T11:27:15.000Z</time>
      </trkpt>
      <trkpt lat="43.75546" lon="7.12618">
        <ele>411.60000610352</ele>
        <time>2023-08-02T11:27:16.000Z</time>
      </trkpt>
      <trkpt lat="43.75546" lon="7.12618">
        <ele>411.60000610352</ele>
        <time>2023-08-02T11:27:17.000Z</time>
      </trkpt>
      <trkpt lat="43.75546" lon="7.12617">
        <ele>411.60000610352</ele>
        <time>2023-08-02T11:27:18.000Z</time>
      </trkpt>
      <trkpt lat="43.75546" lon="7.12617">
        <ele>411.60000610352</ele>
        <time>2023-08-02T11:27:19.000Z</time>
      </trkpt>
      <trkpt lat="43.75546" lon="7.12617">
        <ele>411.60000610352</ele>
        <time>2023-08-02T11:27:20.000Z</time>
      </trkpt>
      <trkpt lat="43.75546" lon="7.12617">
        <ele>411.60000610352</ele>
        <time>2023-08-02T11:27:21.000Z</time>
      </trkpt>
      <trkpt lat="43.75546" lon="7.12617">
        <ele>411.60000610352</ele>
        <time>2023-08-02T11:27:22.000Z</time>
      </trkpt>
      <trkpt lat="43.75546" lon="7.12617">
        <ele>411.60000610352</ele>
        <time>2023-08-02T11:27:23.000Z</time>
      </trkpt>
      <trkpt lat="43.75546" lon="7.12617">
        <ele>411.60000610352</ele>
        <time>2023-08-02T11:27:24.000Z</time>
      </trkpt>
      <trkpt lat="43.75546" lon="7.12617">
        <ele>411.60000610352</ele>
        <time>2023-08-02T11:27:25.000Z</time>
      </trkpt>
      <trkpt lat="43.75546" lon="7.12617">
        <ele>411.60000610352</ele>
        <time>2023-08-02T11:27:26.000Z</time>
      </trkpt>
      <trkpt lat="43.75546" lon="7.12617">
        <ele>411.60000610352</ele>
        <time>2023-08-02T11:27:27.000Z</time>
      </trkpt>
      <trkpt lat="43.75546" lon="7.12617">
        <ele>411.60000610352</ele>
        <time>2023-08-02T11:27:28.000Z</time>
      </trkpt>
      <trkpt lat="43.75546" lon="7.12617">
        <ele>411.60000610352</ele>
        <time>2023-08-02T11:27:29.000Z</time>
      </trkpt>
      <trkpt lat="43.75546" lon="7.12617">
        <ele>411.60000610352</ele>
        <time>2023-08-02T11:27:30.000Z</time>
      </trkpt>
      <trkpt lat="43.75546" lon="7.12617">
        <ele>411.60000610352</ele>
        <time>2023-08-02T11:27:31.000Z</time>
      </trkpt>
      <trkpt lat="43.75546" lon="7.12617">
        <ele>411.60000610352</ele>
        <time>2023-08-02T11:27:32.000Z</time>
      </trkpt>
      <trkpt lat="43.75546" lon="7.12617">
        <ele>411.60000610352</ele>
        <time>2023-08-02T11:27:33.000Z</time>
      </trkpt>
      <trkpt lat="43.75546" lon="7.12617">
        <ele>411.60000610352</ele>
        <time>2023-08-02T11:27:34.000Z</time>
      </trkpt>
      <trkpt lat="43.75546" lon="7.12617">
        <ele>411.60000610352</ele>
        <time>2023-08-02T11:27:35.000Z</time>
      </trkpt>
      <trkpt lat="43.75546" lon="7.12617">
        <ele>411.60000610352</ele>
        <time>2023-08-02T11:27:36.000Z</time>
      </trkpt>
      <trkpt lat="43.75546" lon="7.12617">
        <ele>411.60000610352</ele>
        <time>2023-08-02T11:27:37.000Z</time>
      </trkpt>
      <trkpt lat="43.75546" lon="7.12617">
        <ele>411.60000610352</ele>
        <time>2023-08-02T11:27:38.000Z</time>
      </trkpt>
      <trkpt lat="43.75546" lon="7.12617">
        <ele>411.60000610352</ele>
        <time>2023-08-02T11:27:39.000Z</time>
      </trkpt>
      <trkpt lat="43.75546" lon="7.12617">
        <ele>411.60000610352</ele>
        <time>2023-08-02T11:27:40.000Z</time>
      </trkpt>
      <trkpt lat="43.75546" lon="7.12617">
        <ele>411.60000610352</ele>
        <time>2023-08-02T11:27:41.000Z</time>
      </trkpt>
      <trkpt lat="43.75546" lon="7.12617">
        <ele>411.60000610352</ele>
        <time>2023-08-02T11:27:42.000Z</time>
      </trkpt>
      <trkpt lat="43.75546" lon="7.12617">
        <ele>411.60000610352</ele>
        <time>2023-08-02T11:27:43.000Z</time>
      </trkpt>
      <trkpt lat="43.75546" lon="7.12617">
        <ele>411.60000610352</ele>
        <time>2023-08-02T11:27:44.000Z</time>
      </trkpt>
      <trkpt lat="43.75546" lon="7.12617">
        <ele>411.60000610352</ele>
        <time>2023-08-02T11:27:45.000Z</time>
      </trkpt>
      <trkpt lat="43.75546" lon="7.12617">
        <ele>411.60000610352</ele>
        <time>2023-08-02T11:27:46.000Z</time>
      </trkpt>
      <trkpt lat="43.75546" lon="7.12617">
        <ele>411.60000610352</ele>
        <time>2023-08-02T11:27:47.000Z</time>
      </trkpt>
      <trkpt lat="43.75546" lon="7.12617">
        <ele>411.60000610352</ele>
        <time>2023-08-02T11:27:48.000Z</time>
      </trkpt>
      <trkpt lat="43.75546" lon="7.12617">
        <ele>411.60000610352</ele>
        <time>2023-08-02T11:27:49.000Z</time>
      </trkpt>
      <trkpt lat="43.75546" lon="7.12617">
        <ele>411.60000610352</ele>
        <time>2023-08-02T11:27:50.000Z</time>
      </trkpt>
      <trkpt lat="43.75546" lon="7.12617">
        <ele>411.60000610352</ele>
        <time>2023-08-02T11:27:51.000Z</time>
      </trkpt>
      <trkpt lat="43.75546" lon="7.12618">
        <ele>411.60000610352</ele>
        <time>2023-08-02T11:27:52.000Z</time>
      </trkpt>
      <trkpt lat="43.75546" lon="7.12618">
        <ele>411.60000610352</ele>
        <time>2023-08-02T11:27:53.000Z</time>
      </trkpt>
      <trkpt lat="43.75546" lon="7.12618">
        <ele>411.60000610352</ele>
        <time>2023-08-02T11:27:54.000Z</time>
      </trkpt>
      <trkpt lat="43.75546" lon="7.12618">
        <ele>411.60000610352</ele>
        <time>2023-08-02T11:27:55.000Z</time>
      </trkpt>
      <trkpt lat="43.75546" lon="7.12618">
        <ele>411.60000610352</ele>
        <time>2023-08-02T11:27:56.000Z</time>
      </trkpt>
      <trkpt lat="43.75546" lon="7.12618">
        <ele>411.60000610352</ele>
        <time>2023-08-02T11:27:57.000Z</time>
      </trkpt>
      <trkpt lat="43.75546" lon="7.12618">
        <ele>411.60000610352</ele>
        <time>2023-08-02T11:27:58.000Z</time>
      </trkpt>
      <trkpt lat="43.75546" lon="7.12618">
        <ele>411.60000610352</ele>
        <time>2023-08-02T11:27:59.000Z</time>
      </trkpt>
      <trkpt lat="43.75546" lon="7.12618">
        <ele>411.60000610352</ele>
        <time>2023-08-02T11:28:00.000Z</time>
      </trkpt>
      <trkpt lat="43.75546" lon="7.12618">
        <ele>411.60000610352</ele>
        <time>2023-08-02T11:28:01.000Z</time>
      </trkpt>
      <trkpt lat="43.75546" lon="7.12618">
        <ele>411.60000610352</ele>
        <time>2023-08-02T11:28:02.000Z</time>
      </trkpt>
      <trkpt lat="43.75546" lon="7.12618">
        <ele>411.60000610352</ele>
        <time>2023-08-02T11:28:03.000Z</time>
      </trkpt>
      <trkpt lat="43.75546" lon="7.12618">
        <ele>411.60000610352</ele>
        <time>2023-08-02T11:28:04.000Z</time>
      </trkpt>
      <trkpt lat="43.75546" lon="7.12618">
        <ele>411.60000610352</ele>
        <time>2023-08-02T11:28:05.000Z</time>
      </trkpt>
      <trkpt lat="43.75546" lon="7.12618">
        <ele>411.60000610352</ele>
        <time>2023-08-02T11:28:06.000Z</time>
      </trkpt>
      <trkpt lat="43.75546" lon="7.12618">
        <ele>411.60000610352</ele>
        <time>2023-08-02T11:28:07.000Z</time>
      </trkpt>
      <trkpt lat="43.75546" lon="7.12618">
        <ele>411.60000610352</ele>
        <time>2023-08-02T11:28:08.000Z</time>
      </trkpt>
      <trkpt lat="43.75546" lon="7.12618">
        <ele>411.60000610352</ele>
        <time>2023-08-02T11:28:09.000Z</time>
      </trkpt>
      <trkpt lat="43.75546" lon="7.12618">
        <ele>411.60000610352</ele>
        <time>2023-08-02T11:28:10.000Z</time>
      </trkpt>
      <trkpt lat="43.75546" lon="7.12618">
        <ele>411.60000610352</ele>
        <time>2023-08-02T11:28:11.000Z</time>
      </trkpt>
      <trkpt lat="43.75546" lon="7.12618">
        <ele>411.60000610352</ele>
        <time>2023-08-02T11:28:12.000Z</time>
      </trkpt>
      <trkpt lat="43.75546" lon="7.12618">
        <ele>411.60000610352</ele>
        <time>2023-08-02T11:28:13.000Z</time>
      </trkpt>
      <trkpt lat="43.75546" lon="7.12618">
        <ele>411.60000610352</ele>
        <time>2023-08-02T11:28:14.000Z</time>
      </trkpt>
      <trkpt lat="43.75546" lon="7.12618">
        <ele>411.60000610352</ele>
        <time>2023-08-02T11:28:15.000Z</time>
      </trkpt>
      <trkpt lat="43.75546" lon="7.12618">
        <ele>411.60000610352</ele>
        <time>2023-08-02T11:28:16.000Z</time>
      </trkpt>
      <trkpt lat="43.75546" lon="7.12618">
        <ele>411.60000610352</ele>
        <time>2023-08-02T11:28:17.000Z</time>
      </trkpt>
      <trkpt lat="43.75546" lon="7.12618">
        <ele>411.60000610352</ele>
        <time>2023-08-02T11:28:18.000Z</time>
      </trkpt>
      <trkpt lat="43.75546" lon="7.12618">
        <ele>411.60000610352</ele>
        <time>2023-08-02T11:28:19.000Z</time>
      </trkpt>
      <trkpt lat="43.75546" lon="7.12618">
        <ele>411.60000610352</ele>
        <time>2023-08-02T11:28:20.000Z</time>
      </trkpt>
      <trkpt lat="43.75546" lon="7.12618">
        <ele>411.60000610352</ele>
        <time>2023-08-02T11:28:21.000Z</time>
      </trkpt>
      <trkpt lat="43.75546" lon="7.12618">
        <ele>411.60000610352</ele>
        <time>2023-08-02T11:28:22.000Z</time>
      </trkpt>
      <trkpt lat="43.75546" lon="7.12618">
        <ele>411.60000610352</ele>
        <time>2023-08-02T11:28:23.000Z</time>
      </trkpt>
      <trkpt lat="43.75546" lon="7.12618">
        <ele>411.60000610352</ele>
        <time>2023-08-02T11:28:24.000Z</time>
      </trkpt>
      <trkpt lat="43.75546" lon="7.12618">
        <ele>411.60000610352</ele>
        <time>2023-08-02T11:28:25.000Z</time>
      </trkpt>
      <trkpt lat="43.75546" lon="7.12618">
        <ele>411.60000610352</ele>
        <time>2023-08-02T11:28:26.000Z</time>
      </trkpt>
      <trkpt lat="43.75546" lon="7.12618">
        <ele>411.60000610352</ele>
        <time>2023-08-02T11:28:27.000Z</time>
      </trkpt>
      <trkpt lat="43.75546" lon="7.12618">
        <ele>411.60000610352</ele>
        <time>2023-08-02T11:28:28.000Z</time>
      </trkpt>
      <trkpt lat="43.75546" lon="7.12618">
        <ele>411.60000610352</ele>
        <time>2023-08-02T11:28:29.000Z</time>
      </trkpt>
      <trkpt lat="43.75546" lon="7.12618">
        <ele>411.60000610352</ele>
        <time>2023-08-02T11:28:30.000Z</time>
      </trkpt>
      <trkpt lat="43.75546" lon="7.12618">
        <ele>411.60000610352</ele>
        <time>2023-08-02T11:28:31.000Z</time>
      </trkpt>
      <trkpt lat="43.75546" lon="7.12618">
        <ele>411.60000610352</ele>
        <time>2023-08-02T11:28:32.000Z</time>
      </trkpt>
      <trkpt lat="43.75546" lon="7.12618">
        <ele>411.60000610352</ele>
        <time>2023-08-02T11:28:33.000Z</time>
      </trkpt>
      <trkpt lat="43.75546" lon="7.12617">
        <ele>411.60000610352</ele>
        <time>2023-08-02T11:28:34.000Z</time>
      </trkpt>
      <trkpt lat="43.75546" lon="7.12617">
        <ele>411.60000610352</ele>
        <time>2023-08-02T11:28:35.000Z</time>
      </trkpt>
      <trkpt lat="43.75546" lon="7.12617">
        <ele>411.60000610352</ele>
        <time>2023-08-02T11:28:36.000Z</time>
      </trkpt>
      <trkpt lat="43.75546" lon="7.12617">
        <ele>411.60000610352</ele>
        <time>2023-08-02T11:28:37.000Z</time>
      </trkpt>
      <trkpt lat="43.75546" lon="7.12617">
        <ele>411.60000610352</ele>
        <time>2023-08-02T11:28:38.000Z</time>
      </trkpt>
      <trkpt lat="43.75546" lon="7.12617">
        <ele>411.60000610352</ele>
        <time>2023-08-02T11:28:39.000Z</time>
      </trkpt>
      <trkpt lat="43.75546" lon="7.12617">
        <ele>411.60000610352</ele>
        <time>2023-08-02T11:28:40.000Z</time>
      </trkpt>
      <trkpt lat="43.75546" lon="7.12617">
        <ele>411.60000610352</ele>
        <time>2023-08-02T11:28:41.000Z</time>
      </trkpt>
      <trkpt lat="43.75546" lon="7.12617">
        <ele>411.60000610352</ele>
        <time>2023-08-02T11:28:42.000Z</time>
      </trkpt>
      <trkpt lat="43.75546" lon="7.12617">
        <ele>411.60000610352</ele>
        <time>2023-08-02T11:28:43.000Z</time>
      </trkpt>
      <trkpt lat="43.75546" lon="7.12617">
        <ele>411.60000610352</ele>
        <time>2023-08-02T11:28:44.000Z</time>
      </trkpt>
      <trkpt lat="43.75546" lon="7.12617">
        <ele>411.60000610352</ele>
        <time>2023-08-02T11:28:45.000Z</time>
      </trkpt>
      <trkpt lat="43.75546" lon="7.12617">
        <ele>411.60000610352</ele>
        <time>2023-08-02T11:28:46.000Z</time>
      </trkpt>
      <trkpt lat="43.75546" lon="7.12617">
        <ele>411.60000610352</ele>
        <time>2023-08-02T11:28:47.000Z</time>
      </trkpt>
      <trkpt lat="43.75546" lon="7.12617">
        <ele>411.60000610352</ele>
        <time>2023-08-02T11:28:48.000Z</time>
      </trkpt>
      <trkpt lat="43.75546" lon="7.12617">
        <ele>411.60000610352</ele>
        <time>2023-08-02T11:28:49.000Z</time>
      </trkpt>
      <trkpt lat="43.75546" lon="7.12617">
        <ele>411.60000610352</ele>
        <time>2023-08-02T11:28:50.000Z</time>
      </trkpt>
      <trkpt lat="43.75546" lon="7.12617">
        <ele>411.60000610352</ele>
        <time>2023-08-02T11:28:51.000Z</time>
      </trkpt>
      <trkpt lat="43.75546" lon="7.12617">
        <ele>411.60000610352</ele>
        <time>2023-08-02T11:28:52.000Z</time>
      </trkpt>
      <trkpt lat="43.75546" lon="7.12617">
        <ele>411.60000610352</ele>
        <time>2023-08-02T11:28:53.000Z</time>
      </trkpt>
      <trkpt lat="43.75546" lon="7.12617">
        <ele>411.60000610352</ele>
        <time>2023-08-02T11:28:54.000Z</time>
      </trkpt>
      <trkpt lat="43.75546" lon="7.12617">
        <ele>411.60000610352</ele>
        <time>2023-08-02T11:28:55.000Z</time>
      </trkpt>
      <trkpt lat="43.75546" lon="7.12618">
        <ele>411.60000610352</ele>
        <time>2023-08-02T11:28:56.000Z</time>
      </trkpt>
      <trkpt lat="43.75546" lon="7.12618">
        <ele>411.60000610352</ele>
        <time>2023-08-02T11:28:57.000Z</time>
      </trkpt>
      <trkpt lat="43.75546" lon="7.12618">
        <ele>411.60000610352</ele>
        <time>2023-08-02T11:28:58.000Z</time>
      </trkpt>
      <trkpt lat="43.75546" lon="7.12618">
        <ele>411.60000610352</ele>
        <time>2023-08-02T11:28:59.000Z</time>
      </trkpt>
      <trkpt lat="43.75546" lon="7.12618">
        <ele>411.60000610352</ele>
        <time>2023-08-02T11:29:00.000Z</time>
      </trkpt>
      <trkpt lat="43.75546" lon="7.12618">
        <ele>411.60000610352</ele>
        <time>2023-08-02T11:29:01.000Z</time>
      </trkpt>
      <trkpt lat="43.75546" lon="7.12618">
        <ele>411.60000610352</ele>
        <time>2023-08-02T11:29:02.000Z</time>
      </trkpt>
      <trkpt lat="43.75546" lon="7.12618">
        <ele>411.60000610352</ele>
        <time>2023-08-02T11:29:03.000Z</time>
      </trkpt>
      <trkpt lat="43.75546" lon="7.12618">
        <ele>411.60000610352</ele>
        <time>2023-08-02T11:29:04.000Z</time>
      </trkpt>
      <trkpt lat="43.75546" lon="7.12618">
        <ele>411.60000610352</ele>
        <time>2023-08-02T11:29:05.000Z</time>
      </trkpt>
      <trkpt lat="43.75546" lon="7.12618">
        <ele>411.60000610352</ele>
        <time>2023-08-02T11:29:06.000Z</time>
      </trkpt>
      <trkpt lat="43.75546" lon="7.12618">
        <ele>411.60000610352</ele>
        <time>2023-08-02T11:29:07.000Z</time>
      </trkpt>
      <trkpt lat="43.75546" lon="7.12618">
        <ele>411.60000610352</ele>
        <time>2023-08-02T11:29:08.000Z</time>
      </trkpt>
      <trkpt lat="43.75546" lon="7.12618">
        <ele>411.60000610352</ele>
        <time>2023-08-02T11:29:09.000Z</time>
      </trkpt>
      <trkpt lat="43.75546" lon="7.12618">
        <ele>411.60000610352</ele>
        <time>2023-08-02T11:29:10.000Z</time>
      </trkpt>
      <trkpt lat="43.75546" lon="7.12618">
        <ele>411.60000610352</ele>
        <time>2023-08-02T11:29:11.000Z</time>
      </trkpt>
      <trkpt lat="43.75546" lon="7.12618">
        <ele>411.60000610352</ele>
        <time>2023-08-02T11:29:12.000Z</time>
      </trkpt>
      <trkpt lat="43.75546" lon="7.12618">
        <ele>411.60000610352</ele>
        <time>2023-08-02T11:29:13.000Z</time>
      </trkpt>
      <trkpt lat="43.75546" lon="7.12618">
        <ele>411.60000610352</ele>
        <time>2023-08-02T11:29:14.000Z</time>
      </trkpt>
      <trkpt lat="43.75546" lon="7.12618">
        <ele>411.60000610352</ele>
        <time>2023-08-02T11:29:15.000Z</time>
      </trkpt>
      <trkpt lat="43.75546" lon="7.12618">
        <ele>411.60000610352</ele>
        <time>2023-08-02T11:29:16.000Z</time>
      </trkpt>
      <trkpt lat="43.75546" lon="7.12618">
        <ele>411.60000610352</ele>
        <time>2023-08-02T11:29:17.000Z</time>
      </trkpt>
      <trkpt lat="43.75546" lon="7.12618">
        <ele>411.60000610352</ele>
        <time>2023-08-02T11:29:18.000Z</time>
      </trkpt>
      <trkpt lat="43.75546" lon="7.12618">
        <ele>411.60000610352</ele>
        <time>2023-08-02T11:29:19.000Z</time>
      </trkpt>
      <trkpt lat="43.75546" lon="7.12618">
        <ele>411.60000610352</ele>
        <time>2023-08-02T11:29:20.000Z</time>
      </trkpt>
      <trkpt lat="43.75546" lon="7.12618">
        <ele>411.60000610352</ele>
        <time>2023-08-02T11:29:21.000Z</time>
      </trkpt>
      <trkpt lat="43.75546" lon="7.12618">
        <ele>411.60000610352</ele>
        <time>2023-08-02T11:29:22.000Z</time>
      </trkpt>
      <trkpt lat="43.75546" lon="7.12618">
        <ele>411.60000610352</ele>
        <time>2023-08-02T11:29:23.000Z</time>
      </trkpt>
      <trkpt lat="43.75546" lon="7.12618">
        <ele>411.60000610352</ele>
        <time>2023-08-02T11:29:24.000Z</time>
      </trkpt>
      <trkpt lat="43.75546" lon="7.12618">
        <ele>411.60000610352</ele>
        <time>2023-08-02T11:29:25.000Z</time>
      </trkpt>
      <trkpt lat="43.75546" lon="7.12618">
        <ele>411.60000610352</ele>
        <time>2023-08-02T11:29:26.000Z</time>
      </trkpt>
      <trkpt lat="43.75546" lon="7.12618">
        <ele>411.60000610352</ele>
        <time>2023-08-02T11:29:27.000Z</time>
      </trkpt>
      <trkpt lat="43.75546" lon="7.12618">
        <ele>411.60000610352</ele>
        <time>2023-08-02T11:29:28.000Z</time>
      </trkpt>
      <trkpt lat="43.75546" lon="7.12618">
        <ele>411.60000610352</ele>
        <time>2023-08-02T11:29:29.000Z</time>
      </trkpt>
      <trkpt lat="43.75546" lon="7.12617">
        <ele>411.60000610352</ele>
        <time>2023-08-02T11:29:30.000Z</time>
      </trkpt>
      <trkpt lat="43.75546" lon="7.12617">
        <ele>411.60000610352</ele>
        <time>2023-08-02T11:29:31.000Z</time>
      </trkpt>
      <trkpt lat="43.75546" lon="7.12617">
        <ele>411.60000610352</ele>
        <time>2023-08-02T11:29:32.000Z</time>
      </trkpt>
      <trkpt lat="43.75546" lon="7.12617">
        <ele>411.60000610352</ele>
        <time>2023-08-02T11:29:33.000Z</time>
      </trkpt>
      <trkpt lat="43.75546" lon="7.12617">
        <ele>411.60000610352</ele>
        <time>2023-08-02T11:29:34.000Z</time>
      </trkpt>
      <trkpt lat="43.75546" lon="7.12617">
        <ele>411.60000610352</ele>
        <time>2023-08-02T11:29:35.000Z</time>
      </trkpt>
      <trkpt lat="43.75546" lon="7.12617">
        <ele>411.60000610352</ele>
        <time>2023-08-02T11:29:36.000Z</time>
      </trkpt>
      <trkpt lat="43.75546" lon="7.12617">
        <ele>411.60000610352</ele>
        <time>2023-08-02T11:29:37.000Z</time>
      </trkpt>
      <trkpt lat="43.75546" lon="7.12617">
        <ele>411.60000610352</ele>
        <time>2023-08-02T11:29:38.000Z</time>
      </trkpt>
      <trkpt lat="43.75546" lon="7.12617">
        <ele>411.60000610352</ele>
        <time>2023-08-02T11:29:39.000Z</time>
      </trkpt>
      <trkpt lat="43.75546" lon="7.12617">
        <ele>411.60000610352</ele>
        <time>2023-08-02T11:29:40.000Z</time>
      </trkpt>
      <trkpt lat="43.75546" lon="7.12617">
        <ele>411.60000610352</ele>
        <time>2023-08-02T11:29:41.000Z</time>
      </trkpt>
      <trkpt lat="43.75546" lon="7.12617">
        <ele>411.60000610352</ele>
        <time>2023-08-02T11:29:42.000Z</time>
      </trkpt>
      <trkpt lat="43.75546" lon="7.12617">
        <ele>411.60000610352</ele>
        <time>2023-08-02T11:29:43.000Z</time>
      </trkpt>
      <trkpt lat="43.75546" lon="7.12617">
        <ele>411.60000610352</ele>
        <time>2023-08-02T11:29:44.000Z</time>
      </trkpt>
      <trkpt lat="43.75546" lon="7.12617">
        <ele>411.60000610352</ele>
        <time>2023-08-02T11:29:45.000Z</time>
      </trkpt>
      <trkpt lat="43.75546" lon="7.12617">
        <ele>411.60000610352</ele>
        <time>2023-08-02T11:29:46.000Z</time>
      </trkpt>
      <trkpt lat="43.75546" lon="7.12617">
        <ele>411.60000610352</ele>
        <time>2023-08-02T11:29:47.000Z</time>
      </trkpt>
      <trkpt lat="43.75546" lon="7.12618">
        <ele>411.60000610352</ele>
        <time>2023-08-02T11:29:48.000Z</time>
      </trkpt>
      <trkpt lat="43.75546" lon="7.12618">
        <ele>411.60000610352</ele>
        <time>2023-08-02T11:29:49.000Z</time>
      </trkpt>
      <trkpt lat="43.75546" lon="7.12618">
        <ele>411.60000610352</ele>
        <time>2023-08-02T11:29:50.000Z</time>
      </trkpt>
      <trkpt lat="43.75546" lon="7.12618">
        <ele>411.60000610352</ele>
        <time>2023-08-02T11:29:51.000Z</time>
      </trkpt>
      <trkpt lat="43.75546" lon="7.12618">
        <ele>411.60000610352</ele>
        <time>2023-08-02T11:29:52.000Z</time>
      </trkpt>
      <trkpt lat="43.75546" lon="7.12618">
        <ele>411.60000610352</ele>
        <time>2023-08-02T11:29:53.000Z</time>
      </trkpt>
      <trkpt lat="43.75546" lon="7.12618">
        <ele>411.60000610352</ele>
        <time>2023-08-02T11:29:54.000Z</time>
      </trkpt>
      <trkpt lat="43.75546" lon="7.12618">
        <ele>411.60000610352</ele>
        <time>2023-08-02T11:29:55.000Z</time>
      </trkpt>
      <trkpt lat="43.75546" lon="7.12618">
        <ele>411.60000610352</ele>
        <time>2023-08-02T11:29:56.000Z</time>
      </trkpt>
      <trkpt lat="43.75546" lon="7.12618">
        <ele>411.60000610352</ele>
        <time>2023-08-02T11:29:57.000Z</time>
      </trkpt>
      <trkpt lat="43.75546" lon="7.12618">
        <ele>411.60000610352</ele>
        <time>2023-08-02T11:29:58.000Z</time>
      </trkpt>
      <trkpt lat="43.75546" lon="7.12618">
        <ele>411.60000610352</ele>
        <time>2023-08-02T11:29:59.000Z</time>
      </trkpt>
      <trkpt lat="43.75546" lon="7.12618">
        <ele>411.60000610352</ele>
        <time>2023-08-02T11:30:00.000Z</time>
      </trkpt>
      <trkpt lat="43.75546" lon="7.12618">
        <ele>411.60000610352</ele>
        <time>2023-08-02T11:30:01.000Z</time>
      </trkpt>
      <trkpt lat="43.75546" lon="7.12618">
        <ele>411.60000610352</ele>
        <time>2023-08-02T11:30:02.000Z</time>
      </trkpt>
      <trkpt lat="43.75546" lon="7.12618">
        <ele>411.60000610352</ele>
        <time>2023-08-02T11:30:03.000Z</time>
      </trkpt>
      <trkpt lat="43.75546" lon="7.12618">
        <ele>411.60000610352</ele>
        <time>2023-08-02T11:30:04.000Z</time>
      </trkpt>
      <trkpt lat="43.75546" lon="7.12618">
        <ele>411.60000610352</ele>
        <time>2023-08-02T11:30:05.000Z</time>
      </trkpt>
      <trkpt lat="43.75546" lon="7.12618">
        <ele>411.60000610352</ele>
        <time>2023-08-02T11:30:06.000Z</time>
      </trkpt>
      <trkpt lat="43.75546" lon="7.12618">
        <ele>411.60000610352</ele>
        <time>2023-08-02T11:30:07.000Z</time>
      </trkpt>
      <trkpt lat="43.75546" lon="7.12618">
        <ele>411.60000610352</ele>
        <time>2023-08-02T11:30:08.000Z</time>
      </trkpt>
      <trkpt lat="43.75546" lon="7.12618">
        <ele>411.60000610352</ele>
        <time>2023-08-02T11:30:09.000Z</time>
      </trkpt>
      <trkpt lat="43.75546" lon="7.12618">
        <ele>411.60000610352</ele>
        <time>2023-08-02T11:30:10.000Z</time>
      </trkpt>
      <trkpt lat="43.75546" lon="7.12618">
        <ele>411.60000610352</ele>
        <time>2023-08-02T11:30:11.000Z</time>
      </trkpt>
      <trkpt lat="43.75546" lon="7.12618">
        <ele>411.60000610352</ele>
        <time>2023-08-02T11:30:12.000Z</time>
      </trkpt>
      <trkpt lat="43.75546" lon="7.12618">
        <ele>411.60000610352</ele>
        <time>2023-08-02T11:30:13.000Z</time>
      </trkpt>
      <trkpt lat="43.75546" lon="7.12618">
        <ele>411.60000610352</ele>
        <time>2023-08-02T11:30:14.000Z</time>
      </trkpt>
      <trkpt lat="43.75546" lon="7.12618">
        <ele>411.60000610352</ele>
        <time>2023-08-02T11:30:15.000Z</time>
      </trkpt>
      <trkpt lat="43.75546" lon="7.12618">
        <ele>411.60000610352</ele>
        <time>2023-08-02T11:30:16.000Z</time>
      </trkpt>
      <trkpt lat="43.75546" lon="7.12618">
        <ele>411.60000610352</ele>
        <time>2023-08-02T11:30:17.000Z</time>
      </trkpt>
      <trkpt lat="43.75546" lon="7.12618">
        <ele>411.60000610352</ele>
        <time>2023-08-02T11:30:18.000Z</time>
      </trkpt>
      <trkpt lat="43.75546" lon="7.12617">
        <ele>411.60000610352</ele>
        <time>2023-08-02T11:30:19.000Z</time>
      </trkpt>
      <trkpt lat="43.75546" lon="7.12617">
        <ele>411.60000610352</ele>
        <time>2023-08-02T11:30:20.000Z</time>
      </trkpt>
      <trkpt lat="43.75546" lon="7.12617">
        <ele>411.60000610352</ele>
        <time>2023-08-02T11:30:21.000Z</time>
      </trkpt>
      <trkpt lat="43.75546" lon="7.12617">
        <ele>411.60000610352</ele>
        <time>2023-08-02T11:30:22.000Z</time>
      </trkpt>
      <trkpt lat="43.75546" lon="7.12617">
        <ele>411.60000610352</ele>
        <time>2023-08-02T11:30:23.000Z</time>
      </trkpt>
      <trkpt lat="43.75546" lon="7.12617">
        <ele>411.60000610352</ele>
        <time>2023-08-02T11:30:24.000Z</time>
      </trkpt>
      <trkpt lat="43.75546" lon="7.12617">
        <ele>411.60000610352</ele>
        <time>2023-08-02T11:30:25.000Z</time>
      </trkpt>
      <trkpt lat="43.75546" lon="7.12617">
        <ele>411.60000610352</ele>
        <time>2023-08-02T11:30:26.000Z</time>
      </trkpt>
      <trkpt lat="43.75546" lon="7.12617">
        <ele>411.60000610352</ele>
        <time>2023-08-02T11:30:27.000Z</time>
      </trkpt>
      <trkpt lat="43.75546" lon="7.12617">
        <ele>411.60000610352</ele>
        <time>2023-08-02T11:30:28.000Z</time>
      </trkpt>
      <trkpt lat="43.75546" lon="7.12617">
        <ele>411.60000610352</ele>
        <time>2023-08-02T11:30:29.000Z</time>
      </trkpt>
      <trkpt lat="43.75546" lon="7.12617">
        <ele>411.60000610352</ele>
        <time>2023-08-02T11:30:30.000Z</time>
      </trkpt>
      <trkpt lat="43.75546" lon="7.12617">
        <ele>411.60000610352</ele>
        <time>2023-08-02T11:30:31.000Z</time>
      </trkpt>
      <trkpt lat="43.75546" lon="7.12617">
        <ele>411.60000610352</ele>
        <time>2023-08-02T11:30:32.000Z</time>
      </trkpt>
      <trkpt lat="43.75546" lon="7.12618">
        <ele>411.60000610352</ele>
        <time>2023-08-02T11:30:33.000Z</time>
      </trkpt>
      <trkpt lat="43.75546" lon="7.12617">
        <ele>411.60000610352</ele>
        <time>2023-08-02T11:30:34.000Z</time>
      </trkpt>
      <trkpt lat="43.75546" lon="7.12617">
        <ele>411.60000610352</ele>
        <time>2023-08-02T11:30:35.000Z</time>
      </trkpt>
      <trkpt lat="43.75546" lon="7.12617">
        <ele>411.60000610352</ele>
        <time>2023-08-02T11:30:36.000Z</time>
      </trkpt>
      <trkpt lat="43.75546" lon="7.12617">
        <ele>411.60000610352</ele>
        <time>2023-08-02T11:30:37.000Z</time>
      </trkpt>
      <trkpt lat="43.75546" lon="7.12617">
        <ele>411.60000610352</ele>
        <time>2023-08-02T11:30:38.000Z</time>
      </trkpt>
      <trkpt lat="43.75546" lon="7.12617">
        <ele>411.60000610352</ele>
        <time>2023-08-02T11:30:39.000Z</time>
      </trkpt>
      <trkpt lat="43.75546" lon="7.12617">
        <ele>411.60000610352</ele>
        <time>2023-08-02T11:30:40.000Z</time>
      </trkpt>
      <trkpt lat="43.75546" lon="7.12617">
        <ele>411.60000610352</ele>
        <time>2023-08-02T11:30:41.000Z</time>
      </trkpt>
      <trkpt lat="43.75546" lon="7.12617">
        <ele>411.60000610352</ele>
        <time>2023-08-02T11:30:42.000Z</time>
      </trkpt>
      <trkpt lat="43.75546" lon="7.12617">
        <ele>411.60000610352</ele>
        <time>2023-08-02T11:30:43.000Z</time>
      </trkpt>
      <trkpt lat="43.75546" lon="7.12617">
        <ele>411.60000610352</ele>
        <time>2023-08-02T11:30:44.000Z</time>
      </trkpt>
      <trkpt lat="43.75546" lon="7.12617">
        <ele>411.60000610352</ele>
        <time>2023-08-02T11:30:45.000Z</time>
      </trkpt>
      <trkpt lat="43.75546" lon="7.12617">
        <ele>411.60000610352</ele>
        <time>2023-08-02T11:30:46.000Z</time>
      </trkpt>
      <trkpt lat="43.75546" lon="7.12617">
        <ele>411.60000610352</ele>
        <time>2023-08-02T11:30:47.000Z</time>
      </trkpt>
      <trkpt lat="43.75546" lon="7.12617">
        <ele>411.60000610352</ele>
        <time>2023-08-02T11:30:48.000Z</time>
      </trkpt>
      <trkpt lat="43.75546" lon="7.12617">
        <ele>411.60000610352</ele>
        <time>2023-08-02T11:30:49.000Z</time>
      </trkpt>
      <trkpt lat="43.75546" lon="7.12617">
        <ele>411.60000610352</ele>
        <time>2023-08-02T11:30:50.000Z</time>
      </trkpt>
      <trkpt lat="43.75546" lon="7.12617">
        <ele>411.60000610352</ele>
        <time>2023-08-02T11:30:51.000Z</time>
      </trkpt>
      <trkpt lat="43.75546" lon="7.12617">
        <ele>411.60000610352</ele>
        <time>2023-08-02T11:30:52.000Z</time>
      </trkpt>
      <trkpt lat="43.75546" lon="7.12617">
        <ele>411.60000610352</ele>
        <time>2023-08-02T11:30:53.000Z</time>
      </trkpt>
      <trkpt lat="43.75546" lon="7.12618">
        <ele>411.60000610352</ele>
        <time>2023-08-02T11:30:54.000Z</time>
      </trkpt>
      <trkpt lat="43.75546" lon="7.12618">
        <ele>411.60000610352</ele>
        <time>2023-08-02T11:30:55.000Z</time>
      </trkpt>
      <trkpt lat="43.75546" lon="7.12618">
        <ele>411.60000610352</ele>
        <time>2023-08-02T11:30:56.000Z</time>
      </trkpt>
      <trkpt lat="43.75546" lon="7.12617">
        <ele>411.60000610352</ele>
        <time>2023-08-02T11:30:57.000Z</time>
      </trkpt>
      <trkpt lat="43.75546" lon="7.12617">
        <ele>411.60000610352</ele>
        <time>2023-08-02T11:30:58.000Z</time>
      </trkpt>
      <trkpt lat="43.75546" lon="7.12618">
        <ele>411.60000610352</ele>
        <time>2023-08-02T11:30:59.000Z</time>
      </trkpt>
      <trkpt lat="43.75546" lon="7.12618">
        <ele>411.60000610352</ele>
        <time>2023-08-02T11:31:00.000Z</time>
      </trkpt>
      <trkpt lat="43.75546" lon="7.12617">
        <ele>411.60000610352</ele>
        <time>2023-08-02T11:31:01.000Z</time>
      </trkpt>
      <trkpt lat="43.75546" lon="7.12617">
        <ele>411.60000610352</ele>
        <time>2023-08-02T11:31:02.000Z</time>
      </trkpt>
      <trkpt lat="43.75546" lon="7.12617">
        <ele>411.60000610352</ele>
        <time>2023-08-02T11:31:03.000Z</time>
      </trkpt>
      <trkpt lat="43.75546" lon="7.12617">
        <ele>411.60000610352</ele>
        <time>2023-08-02T11:31:04.000Z</time>
      </trkpt>
      <trkpt lat="43.75546" lon="7.12617">
        <ele>411.60000610352</ele>
        <time>2023-08-02T11:31:05.000Z</time>
      </trkpt>
      <trkpt lat="43.75546" lon="7.12617">
        <ele>411.60000610352</ele>
        <time>2023-08-02T11:31:06.000Z</time>
      </trkpt>
      <trkpt lat="43.75546" lon="7.12617">
        <ele>411.60000610352</ele>
        <time>2023-08-02T11:31:07.000Z</time>
      </trkpt>
      <trkpt lat="43.75546" lon="7.12617">
        <ele>411.60000610352</ele>
        <time>2023-08-02T11:31:08.000Z</time>
      </trkpt>
      <trkpt lat="43.75546" lon="7.12617">
        <ele>411.60000610352</ele>
        <time>2023-08-02T11:31:09.000Z</time>
      </trkpt>
      <trkpt lat="43.75546" lon="7.12617">
        <ele>411.60000610352</ele>
        <time>2023-08-02T11:31:10.000Z</time>
      </trkpt>
      <trkpt lat="43.75546" lon="7.12617">
        <ele>411.60000610352</ele>
        <time>2023-08-02T11:31:11.000Z</time>
      </trkpt>
      <trkpt lat="43.75546" lon="7.12618">
        <ele>411.60000610352</ele>
        <time>2023-08-02T11:31:12.000Z</time>
      </trkpt>
      <trkpt lat="43.75546" lon="7.12618">
        <ele>411.60000610352</ele>
        <time>2023-08-02T11:31:13.000Z</time>
      </trkpt>
      <trkpt lat="43.75546" lon="7.12618">
        <ele>411.60000610352</ele>
        <time>2023-08-02T11:31:14.000Z</time>
      </trkpt>
      <trkpt lat="43.75546" lon="7.12618">
        <ele>411.60000610352</ele>
        <time>2023-08-02T11:31:15.000Z</time>
      </trkpt>
      <trkpt lat="43.75546" lon="7.12618">
        <ele>411.60000610352</ele>
        <time>2023-08-02T11:31:16.000Z</time>
      </trkpt>
      <trkpt lat="43.75546" lon="7.12618">
        <ele>411.60000610352</ele>
        <time>2023-08-02T11:31:17.000Z</time>
      </trkpt>
      <trkpt lat="43.75546" lon="7.12618">
        <ele>411.60000610352</ele>
        <time>2023-08-02T11:31:18.000Z</time>
      </trkpt>
      <trkpt lat="43.75546" lon="7.12618">
        <ele>411.60000610352</ele>
        <time>2023-08-02T11:31:19.000Z</time>
      </trkpt>
      <trkpt lat="43.75546" lon="7.12618">
        <ele>411.60000610352</ele>
        <time>2023-08-02T11:31:20.000Z</time>
      </trkpt>
      <trkpt lat="43.75546" lon="7.12618">
        <ele>411.60000610352</ele>
        <time>2023-08-02T11:31:21.000Z</time>
      </trkpt>
      <trkpt lat="43.75546" lon="7.12618">
        <ele>411.60000610352</ele>
        <time>2023-08-02T11:31:22.000Z</time>
      </trkpt>
      <trkpt lat="43.75546" lon="7.12618">
        <ele>411.60000610352</ele>
        <time>2023-08-02T11:31:23.000Z</time>
      </trkpt>
      <trkpt lat="43.75546" lon="7.12618">
        <ele>411.60000610352</ele>
        <time>2023-08-02T11:31:24.000Z</time>
      </trkpt>
      <trkpt lat="43.75546" lon="7.12617">
        <ele>411.60000610352</ele>
        <time>2023-08-02T11:31:25.000Z</time>
      </trkpt>
      <trkpt lat="43.75546" lon="7.12617">
        <ele>411.60000610352</ele>
        <time>2023-08-02T11:31:26.000Z</time>
      </trkpt>
      <trkpt lat="43.75546" lon="7.12617">
        <ele>411.60000610352</ele>
        <time>2023-08-02T11:31:27.000Z</time>
      </trkpt>
      <trkpt lat="43.75546" lon="7.12617">
        <ele>411.60000610352</ele>
        <time>2023-08-02T11:31:28.000Z</time>
      </trkpt>
      <trkpt lat="43.75546" lon="7.12617">
        <ele>411.60000610352</ele>
        <time>2023-08-02T11:31:29.000Z</time>
      </trkpt>
      <trkpt lat="43.75546" lon="7.12617">
        <ele>411.60000610352</ele>
        <time>2023-08-02T11:31:30.000Z</time>
      </trkpt>
      <trkpt lat="43.75546" lon="7.12617">
        <ele>411.60000610352</ele>
        <time>2023-08-02T11:31:31.000Z</time>
      </trkpt>
      <trkpt lat="43.75546" lon="7.12617">
        <ele>411.60000610352</ele>
        <time>2023-08-02T11:31:32.000Z</time>
      </trkpt>
      <trkpt lat="43.75546" lon="7.12617">
        <ele>411.60000610352</ele>
        <time>2023-08-02T11:31:33.000Z</time>
      </trkpt>
      <trkpt lat="43.75546" lon="7.12617">
        <ele>411.60000610352</ele>
        <time>2023-08-02T11:31:34.000Z</time>
      </trkpt>
      <trkpt lat="43.75546" lon="7.12617">
        <ele>411.60000610352</ele>
        <time>2023-08-02T11:31:35.000Z</time>
      </trkpt>
      <trkpt lat="43.75546" lon="7.12617">
        <ele>411.60000610352</ele>
        <time>2023-08-02T11:31:36.000Z</time>
      </trkpt>
      <trkpt lat="43.75546" lon="7.12617">
        <ele>411.60000610352</ele>
        <time>2023-08-02T11:31:37.000Z</time>
      </trkpt>
      <trkpt lat="43.75546" lon="7.12617">
        <ele>411.60000610352</ele>
        <time>2023-08-02T11:31:38.000Z</time>
      </trkpt>
      <trkpt lat="43.75546" lon="7.12617">
        <ele>411.60000610352</ele>
        <time>2023-08-02T11:31:39.000Z</time>
      </trkpt>
      <trkpt lat="43.75546" lon="7.12617">
        <ele>411.60000610352</ele>
        <time>2023-08-02T11:31:40.000Z</time>
      </trkpt>
      <trkpt lat="43.75546" lon="7.12617">
        <ele>411.60000610352</ele>
        <time>2023-08-02T11:31:41.000Z</time>
      </trkpt>
      <trkpt lat="43.75546" lon="7.12617">
        <ele>411.60000610352</ele>
        <time>2023-08-02T11:31:42.000Z</time>
      </trkpt>
      <trkpt lat="43.75546" lon="7.12617">
        <ele>411.60000610352</ele>
        <time>2023-08-02T11:31:43.000Z</time>
      </trkpt>
      <trkpt lat="43.75546" lon="7.12617">
        <ele>411.60000610352</ele>
        <time>2023-08-02T11:31:44.000Z</time>
      </trkpt>
      <trkpt lat="43.75546" lon="7.12617">
        <ele>411.60000610352</ele>
        <time>2023-08-02T11:31:45.000Z</time>
      </trkpt>
      <trkpt lat="43.75546" lon="7.12617">
        <ele>411.60000610352</ele>
        <time>2023-08-02T11:31:46.000Z</time>
      </trkpt>
      <trkpt lat="43.75546" lon="7.12617">
        <ele>411.60000610352</ele>
        <time>2023-08-02T11:31:47.000Z</time>
      </trkpt>
      <trkpt lat="43.75546" lon="7.12617">
        <ele>411.60000610352</ele>
        <time>2023-08-02T11:31:48.000Z</time>
      </trkpt>
      <trkpt lat="43.75546" lon="7.12617">
        <ele>411.60000610352</ele>
        <time>2023-08-02T11:31:49.000Z</time>
      </trkpt>
      <trkpt lat="43.75546" lon="7.12617">
        <ele>411.60000610352</ele>
        <time>2023-08-02T11:31:50.000Z</time>
      </trkpt>
      <trkpt lat="43.75546" lon="7.12617">
        <ele>411.60000610352</ele>
        <time>2023-08-02T11:31:51.000Z</time>
      </trkpt>
      <trkpt lat="43.75546" lon="7.12617">
        <ele>411.60000610352</ele>
        <time>2023-08-02T11:31:52.000Z</time>
      </trkpt>
      <trkpt lat="43.75546" lon="7.12617">
        <ele>411.60000610352</ele>
        <time>2023-08-02T11:31:53.000Z</time>
      </trkpt>
      <trkpt lat="43.75546" lon="7.12617">
        <ele>411.60000610352</ele>
        <time>2023-08-02T11:31:54.000Z</time>
      </trkpt>
      <trkpt lat="43.75546" lon="7.12617">
        <ele>411.60000610352</ele>
        <time>2023-08-02T11:31:55.000Z</time>
      </trkpt>
      <trkpt lat="43.75546" lon="7.12617">
        <ele>411.60000610352</ele>
        <time>2023-08-02T11:31:56.000Z</time>
      </trkpt>
      <trkpt lat="43.75546" lon="7.12617">
        <ele>411.60000610352</ele>
        <time>2023-08-02T11:31:57.000Z</time>
      </trkpt>
      <trkpt lat="43.75546" lon="7.12617">
        <ele>411.60000610352</ele>
        <time>2023-08-02T11:31:58.000Z</time>
      </trkpt>
      <trkpt lat="43.75546" lon="7.12618">
        <ele>411.60000610352</ele>
        <time>2023-08-02T11:31:59.000Z</time>
      </trkpt>
      <trkpt lat="43.75546" lon="7.12618">
        <ele>411.60000610352</ele>
        <time>2023-08-02T11:32:00.000Z</time>
      </trkpt>
      <trkpt lat="43.75546" lon="7.12618">
        <ele>411.60000610352</ele>
        <time>2023-08-02T11:32:01.000Z</time>
      </trkpt>
      <trkpt lat="43.75546" lon="7.12618">
        <ele>411.60000610352</ele>
        <time>2023-08-02T11:32:02.000Z</time>
      </trkpt>
      <trkpt lat="43.75546" lon="7.12618">
        <ele>411.60000610352</ele>
        <time>2023-08-02T11:32:03.000Z</time>
      </trkpt>
      <trkpt lat="43.75546" lon="7.12618">
        <ele>411.60000610352</ele>
        <time>2023-08-02T11:32:04.000Z</time>
      </trkpt>
      <trkpt lat="43.75546" lon="7.12618">
        <ele>411.60000610352</ele>
        <time>2023-08-02T11:32:05.000Z</time>
      </trkpt>
      <trkpt lat="43.75546" lon="7.12618">
        <ele>411.60000610352</ele>
        <time>2023-08-02T11:32:06.000Z</time>
      </trkpt>
      <trkpt lat="43.75546" lon="7.12618">
        <ele>411.60000610352</ele>
        <time>2023-08-02T11:32:07.000Z</time>
      </trkpt>
      <trkpt lat="43.75546" lon="7.12618">
        <ele>411.60000610352</ele>
        <time>2023-08-02T11:32:08.000Z</time>
      </trkpt>
      <trkpt lat="43.75546" lon="7.12618">
        <ele>411.60000610352</ele>
        <time>2023-08-02T11:32:09.000Z</time>
      </trkpt>
      <trkpt lat="43.75546" lon="7.12618">
        <ele>411.60000610352</ele>
        <time>2023-08-02T11:32:10.000Z</time>
      </trkpt>
      <trkpt lat="43.75546" lon="7.12618">
        <ele>411.60000610352</ele>
        <time>2023-08-02T11:32:11.000Z</time>
      </trkpt>
      <trkpt lat="43.75546" lon="7.12618">
        <ele>411.60000610352</ele>
        <time>2023-08-02T11:32:12.000Z</time>
      </trkpt>
      <trkpt lat="43.75546" lon="7.12618">
        <ele>411.60000610352</ele>
        <time>2023-08-02T11:32:13.000Z</time>
      </trkpt>
      <trkpt lat="43.75546" lon="7.12618">
        <ele>411.60000610352</ele>
        <time>2023-08-02T11:32:14.000Z</time>
      </trkpt>
      <trkpt lat="43.75546" lon="7.12618">
        <ele>411.60000610352</ele>
        <time>2023-08-02T11:32:15.000Z</time>
      </trkpt>
      <trkpt lat="43.75546" lon="7.12618">
        <ele>411.60000610352</ele>
        <time>2023-08-02T11:32:16.000Z</time>
      </trkpt>
      <trkpt lat="43.75546" lon="7.12618">
        <ele>411.60000610352</ele>
        <time>2023-08-02T11:32:17.000Z</time>
      </trkpt>
      <trkpt lat="43.75546" lon="7.12618">
        <ele>411.60000610352</ele>
        <time>2023-08-02T11:32:18.000Z</time>
      </trkpt>
      <trkpt lat="43.75546" lon="7.12618">
        <ele>411.60000610352</ele>
        <time>2023-08-02T11:32:19.000Z</time>
      </trkpt>
      <trkpt lat="43.75546" lon="7.12618">
        <ele>411.60000610352</ele>
        <time>2023-08-02T11:32:20.000Z</time>
      </trkpt>
      <trkpt lat="43.75546" lon="7.12618">
        <ele>411.60000610352</ele>
        <time>2023-08-02T11:32:21.000Z</time>
      </trkpt>
      <trkpt lat="43.75546" lon="7.12618">
        <ele>411.60000610352</ele>
        <time>2023-08-02T11:32:22.000Z</time>
      </trkpt>
      <trkpt lat="43.75546" lon="7.12618">
        <ele>411.60000610352</ele>
        <time>2023-08-02T11:32:23.000Z</time>
      </trkpt>
      <trkpt lat="43.75546" lon="7.12618">
        <ele>411.60000610352</ele>
        <time>2023-08-02T11:32:24.000Z</time>
      </trkpt>
      <trkpt lat="43.75546" lon="7.12618">
        <ele>411.60000610352</ele>
        <time>2023-08-02T11:32:25.000Z</time>
      </trkpt>
      <trkpt lat="43.75546" lon="7.12618">
        <ele>411.60000610352</ele>
        <time>2023-08-02T11:32:26.000Z</time>
      </trkpt>
      <trkpt lat="43.75546" lon="7.12618">
        <ele>411.60000610352</ele>
        <time>2023-08-02T11:32:27.000Z</time>
      </trkpt>
      <trkpt lat="43.75546" lon="7.12618">
        <ele>411.60000610352</ele>
        <time>2023-08-02T11:32:28.000Z</time>
      </trkpt>
      <trkpt lat="43.75546" lon="7.12618">
        <ele>411.60000610352</ele>
        <time>2023-08-02T11:32:29.000Z</time>
      </trkpt>
      <trkpt lat="43.75546" lon="7.12618">
        <ele>411.60000610352</ele>
        <time>2023-08-02T11:32:30.000Z</time>
      </trkpt>
      <trkpt lat="43.75546" lon="7.12618">
        <ele>411.60000610352</ele>
        <time>2023-08-02T11:32:31.000Z</time>
      </trkpt>
      <trkpt lat="43.75546" lon="7.12618">
        <ele>411.60000610352</ele>
        <time>2023-08-02T11:32:32.000Z</time>
      </trkpt>
      <trkpt lat="43.75546" lon="7.12618">
        <ele>411.60000610352</ele>
        <time>2023-08-02T11:32:33.000Z</time>
      </trkpt>
      <trkpt lat="43.75546" lon="7.12618">
        <ele>411.60000610352</ele>
        <time>2023-08-02T11:32:34.000Z</time>
      </trkpt>
      <trkpt lat="43.75546" lon="7.12618">
        <ele>411.60000610352</ele>
        <time>2023-08-02T11:32:35.000Z</time>
      </trkpt>
      <trkpt lat="43.75546" lon="7.12618">
        <ele>411.60000610352</ele>
        <time>2023-08-02T11:32:36.000Z</time>
      </trkpt>
      <trkpt lat="43.75546" lon="7.12618">
        <ele>411.60000610352</ele>
        <time>2023-08-02T11:32:37.000Z</time>
      </trkpt>
      <trkpt lat="43.75546" lon="7.12618">
        <ele>411.60000610352</ele>
        <time>2023-08-02T11:32:38.000Z</time>
      </trkpt>
      <trkpt lat="43.75546" lon="7.12618">
        <ele>411.60000610352</ele>
        <time>2023-08-02T11:32:39.000Z</time>
      </trkpt>
      <trkpt lat="43.75546" lon="7.12618">
        <ele>411.60000610352</ele>
        <time>2023-08-02T11:32:40.000Z</time>
      </trkpt>
      <trkpt lat="43.75546" lon="7.12618">
        <ele>411.60000610352</ele>
        <time>2023-08-02T11:32:41.000Z</time>
      </trkpt>
      <trkpt lat="43.75546" lon="7.12618">
        <ele>411.60000610352</ele>
        <time>2023-08-02T11:32:42.000Z</time>
      </trkpt>
      <trkpt lat="43.75546" lon="7.12618">
        <ele>411.60000610352</ele>
        <time>2023-08-02T11:32:43.000Z</time>
      </trkpt>
      <trkpt lat="43.75546" lon="7.12618">
        <ele>411.60000610352</ele>
        <time>2023-08-02T11:32:44.000Z</time>
      </trkpt>
      <trkpt lat="43.75546" lon="7.12618">
        <ele>411.60000610352</ele>
        <time>2023-08-02T11:32:45.000Z</time>
      </trkpt>
      <trkpt lat="43.75546" lon="7.12618">
        <ele>411.60000610352</ele>
        <time>2023-08-02T11:32:46.000Z</time>
      </trkpt>
      <trkpt lat="43.75546" lon="7.12618">
        <ele>411.60000610352</ele>
        <time>2023-08-02T11:32:47.000Z</time>
      </trkpt>
      <trkpt lat="43.75546" lon="7.12618">
        <ele>411.60000610352</ele>
        <time>2023-08-02T11:32:48.000Z</time>
      </trkpt>
      <trkpt lat="43.75546" lon="7.12618">
        <ele>411.60000610352</ele>
        <time>2023-08-02T11:32:49.000Z</time>
      </trkpt>
      <trkpt lat="43.75546" lon="7.12618">
        <ele>411.60000610352</ele>
        <time>2023-08-02T11:32:50.000Z</time>
      </trkpt>
      <trkpt lat="43.75546" lon="7.12618">
        <ele>411.60000610352</ele>
        <time>2023-08-02T11:32:51.000Z</time>
      </trkpt>
      <trkpt lat="43.75546" lon="7.12618">
        <ele>411.60000610352</ele>
        <time>2023-08-02T11:32:52.000Z</time>
      </trkpt>
      <trkpt lat="43.75546" lon="7.12618">
        <ele>411.60000610352</ele>
        <time>2023-08-02T11:32:53.000Z</time>
      </trkpt>
      <trkpt lat="43.75546" lon="7.12618">
        <ele>411.60000610352</ele>
        <time>2023-08-02T11:32:54.000Z</time>
      </trkpt>
      <trkpt lat="43.75546" lon="7.12618">
        <ele>411.60000610352</ele>
        <time>2023-08-02T11:32:55.000Z</time>
      </trkpt>
      <trkpt lat="43.75546" lon="7.12618">
        <ele>411.60000610352</ele>
        <time>2023-08-02T11:32:56.000Z</time>
      </trkpt>
      <trkpt lat="43.75546" lon="7.12618">
        <ele>411.60000610352</ele>
        <time>2023-08-02T11:32:57.000Z</time>
      </trkpt>
      <trkpt lat="43.75546" lon="7.12618">
        <ele>411.60000610352</ele>
        <time>2023-08-02T11:32:58.000Z</time>
      </trkpt>
      <trkpt lat="43.75546" lon="7.12618">
        <ele>411.60000610352</ele>
        <time>2023-08-02T11:32:59.000Z</time>
      </trkpt>
      <trkpt lat="43.75546" lon="7.12618">
        <ele>411.60000610352</ele>
        <time>2023-08-02T11:33:00.000Z</time>
      </trkpt>
      <trkpt lat="43.75546" lon="7.12618">
        <ele>411.60000610352</ele>
        <time>2023-08-02T11:33:01.000Z</time>
      </trkpt>
      <trkpt lat="43.75546" lon="7.12618">
        <ele>411.60000610352</ele>
        <time>2023-08-02T11:33:02.000Z</time>
      </trkpt>
      <trkpt lat="43.75546" lon="7.12618">
        <ele>411.60000610352</ele>
        <time>2023-08-02T11:33:03.000Z</time>
      </trkpt>
      <trkpt lat="43.75546" lon="7.12618">
        <ele>411.60000610352</ele>
        <time>2023-08-02T11:33:04.000Z</time>
      </trkpt>
      <trkpt lat="43.75546" lon="7.12617">
        <ele>411.60000610352</ele>
        <time>2023-08-02T11:33:05.000Z</time>
      </trkpt>
      <trkpt lat="43.75546" lon="7.12617">
        <ele>411.60000610352</ele>
        <time>2023-08-02T11:33:06.000Z</time>
      </trkpt>
      <trkpt lat="43.75546" lon="7.12617">
        <ele>411.60000610352</ele>
        <time>2023-08-02T11:33:07.000Z</time>
      </trkpt>
      <trkpt lat="43.75546" lon="7.12617">
        <ele>411.60000610352</ele>
        <time>2023-08-02T11:33:08.000Z</time>
      </trkpt>
      <trkpt lat="43.75547" lon="7.12617">
        <ele>411.60000610352</ele>
        <time>2023-08-02T11:33:09.000Z</time>
      </trkpt>
      <trkpt lat="43.75547" lon="7.12617">
        <ele>411.60000610352</ele>
        <time>2023-08-02T11:33:10.000Z</time>
      </trkpt>
      <trkpt lat="43.75547" lon="7.12617">
        <ele>411.60000610352</ele>
        <time>2023-08-02T11:33:11.000Z</time>
      </trkpt>
      <trkpt lat="43.75546" lon="7.12618">
        <ele>411.60000610352</ele>
        <time>2023-08-02T11:33:12.000Z</time>
      </trkpt>
      <trkpt lat="43.75548" lon="7.12616">
        <ele>411.60000610352</ele>
        <time>2023-08-02T11:33:13.000Z</time>
      </trkpt>
      <trkpt lat="43.75548" lon="7.12616">
        <ele>411.60000610352</ele>
        <time>2023-08-02T11:33:14.000Z</time>
      </trkpt>
      <trkpt lat="43.75548" lon="7.12616">
        <ele>411.60000610352</ele>
        <time>2023-08-02T11:33:15.000Z</time>
      </trkpt>
      <trkpt lat="43.75549" lon="7.12616">
        <ele>411.60000610352</ele>
        <time>2023-08-02T11:33:16.000Z</time>
      </trkpt>
      <trkpt lat="43.75549" lon="7.12617">
        <ele>411.60000610352</ele>
        <time>2023-08-02T11:33:17.000Z</time>
      </trkpt>
      <trkpt lat="43.75549" lon="7.12617">
        <ele>411.60000610352</ele>
        <time>2023-08-02T11:33:18.000Z</time>
      </trkpt>
      <trkpt lat="43.75549" lon="7.12617">
        <ele>411.60000610352</ele>
        <time>2023-08-02T11:33:19.000Z</time>
      </trkpt>
      <trkpt lat="43.7555" lon="7.12617">
        <ele>411.60000610352</ele>
        <time>2023-08-02T11:33:20.000Z</time>
      </trkpt>
      <trkpt lat="43.7555" lon="7.12617">
        <ele>411.60000610352</ele>
        <time>2023-08-02T11:33:21.000Z</time>
      </trkpt>
      <trkpt lat="43.7555" lon="7.12617">
        <ele>411.60000610352</ele>
        <time>2023-08-02T11:33:22.000Z</time>
      </trkpt>
      <trkpt lat="43.7555" lon="7.12616">
        <ele>411.60000610352</ele>
        <time>2023-08-02T11:33:23.000Z</time>
      </trkpt>
      <trkpt lat="43.7555" lon="7.12615">
        <ele>411.60000610352</ele>
        <time>2023-08-02T11:33:24.000Z</time>
      </trkpt>
      <trkpt lat="43.7555" lon="7.12614">
        <ele>411.60000610352</ele>
        <time>2023-08-02T11:33:25.000Z</time>
      </trkpt>
      <trkpt lat="43.7555" lon="7.12614">
        <ele>411.79998779297</ele>
        <time>2023-08-02T11:33:26.000Z</time>
      </trkpt>
      <trkpt lat="43.75551" lon="7.12613">
        <ele>411.79998779297</ele>
        <time>2023-08-02T11:33:27.000Z</time>
      </trkpt>
      <trkpt lat="43.75551" lon="7.12612">
        <ele>411.60000610352</ele>
        <time>2023-08-02T11:33:28.000Z</time>
      </trkpt>
      <trkpt lat="43.75552" lon="7.12611">
        <ele>411.60000610352</ele>
        <time>2023-08-02T11:33:29.000Z</time>
      </trkpt>
      <trkpt lat="43.75553" lon="7.1261">
        <ele>411.39999389648</ele>
        <time>2023-08-02T11:33:30.000Z</time>
      </trkpt>
      <trkpt lat="43.75554" lon="7.1261">
        <ele>411</ele>
        <time>2023-08-02T11:33:31.000Z</time>
      </trkpt>
      <trkpt lat="43.75554" lon="7.12609">
        <ele>410.79998779297</ele>
        <time>2023-08-02T11:33:32.000Z</time>
      </trkpt>
      <trkpt lat="43.75554" lon="7.12608">
        <ele>410.39999389648</ele>
        <time>2023-08-02T11:33:33.000Z</time>
      </trkpt>
      <trkpt lat="43.75555" lon="7.12606">
        <ele>410.20001220703</ele>
        <time>2023-08-02T11:33:34.000Z</time>
      </trkpt>
      <trkpt lat="43.75555" lon="7.12604">
        <ele>410.20001220703</ele>
        <time>2023-08-02T11:33:35.000Z</time>
      </trkpt>
      <trkpt lat="43.75555" lon="7.12603">
        <ele>409.79998779297</ele>
        <time>2023-08-02T11:33:36.000Z</time>
      </trkpt>
      <trkpt lat="43.75555" lon="7.12601">
        <ele>409.60000610352</ele>
        <time>2023-08-02T11:33:37.000Z</time>
      </trkpt>
      <trkpt lat="43.75556" lon="7.12599">
        <ele>409.60000610352</ele>
        <time>2023-08-02T11:33:38.000Z</time>
      </trkpt>
      <trkpt lat="43.75557" lon="7.12597">
        <ele>409.20001220703</ele>
        <time>2023-08-02T11:33:39.000Z</time>
      </trkpt>
      <trkpt lat="43.75558" lon="7.12595">
        <ele>409.20001220703</ele>
        <time>2023-08-02T11:33:40.000Z</time>
      </trkpt>
      <trkpt lat="43.75558" lon="7.12593">
        <ele>408.79998779297</ele>
        <time>2023-08-02T11:33:41.000Z</time>
      </trkpt>
      <trkpt lat="43.75558" lon="7.12591">
        <ele>408.20001220703</ele>
        <time>2023-08-02T11:33:42.000Z</time>
      </trkpt>
      <trkpt lat="43.75558" lon="7.12589">
        <ele>408</ele>
        <time>2023-08-02T11:33:43.000Z</time>
      </trkpt>
      <trkpt lat="43.75558" lon="7.12587">
        <ele>407.79998779297</ele>
        <time>2023-08-02T11:33:44.000Z</time>
      </trkpt>
      <trkpt lat="43.75557" lon="7.12586">
        <ele>407.20001220703</ele>
        <time>2023-08-02T11:33:45.000Z</time>
      </trkpt>
      <trkpt lat="43.75557" lon="7.12583">
        <ele>406.79998779297</ele>
        <time>2023-08-02T11:33:46.000Z</time>
      </trkpt>
      <trkpt lat="43.75557" lon="7.12582">
        <ele>406.39999389648</ele>
        <time>2023-08-02T11:33:47.000Z</time>
      </trkpt>
      <trkpt lat="43.75558" lon="7.12579">
        <ele>405.79998779297</ele>
        <time>2023-08-02T11:33:48.000Z</time>
      </trkpt>
      <trkpt lat="43.7556" lon="7.12577">
        <ele>405.39999389648</ele>
        <time>2023-08-02T11:33:49.000Z</time>
      </trkpt>
      <trkpt lat="43.75561" lon="7.12575">
        <ele>405.39999389648</ele>
        <time>2023-08-02T11:33:50.000Z</time>
      </trkpt>
      <trkpt lat="43.75562" lon="7.12572">
        <ele>405</ele>
        <time>2023-08-02T11:33:51.000Z</time>
      </trkpt>
      <trkpt lat="43.75564" lon="7.1257">
        <ele>404.79998779297</ele>
        <time>2023-08-02T11:33:52.000Z</time>
      </trkpt>
      <trkpt lat="43.75566" lon="7.12567">
        <ele>404.60000610352</ele>
        <time>2023-08-02T11:33:53.000Z</time>
      </trkpt>
      <trkpt lat="43.75568" lon="7.12565">
        <ele>404</ele>
        <time>2023-08-02T11:33:54.000Z</time>
      </trkpt>
      <trkpt lat="43.7557" lon="7.12563">
        <ele>404</ele>
        <time>2023-08-02T11:33:55.000Z</time>
      </trkpt>
      <trkpt lat="43.75572" lon="7.12562">
        <ele>404</ele>
        <time>2023-08-02T11:33:56.000Z</time>
      </trkpt>
      <trkpt lat="43.75574" lon="7.12562">
        <ele>403.39999389648</ele>
        <time>2023-08-02T11:33:57.000Z</time>
      </trkpt>
      <trkpt lat="43.75575" lon="7.12561">
        <ele>402.79998779297</ele>
        <time>2023-08-02T11:33:58.000Z</time>
      </trkpt>
      <trkpt lat="43.75577" lon="7.1256">
        <ele>402.39999389648</ele>
        <time>2023-08-02T11:33:59.000Z</time>
      </trkpt>
      <trkpt lat="43.75579" lon="7.1256">
        <ele>402.20001220703</ele>
        <time>2023-08-02T11:34:00.000Z</time>
      </trkpt>
      <trkpt lat="43.7558" lon="7.12559">
        <ele>402.20001220703</ele>
        <time>2023-08-02T11:34:01.000Z</time>
      </trkpt>
      <trkpt lat="43.75582" lon="7.12558">
        <ele>401.79998779297</ele>
        <time>2023-08-02T11:34:02.000Z</time>
      </trkpt>
      <trkpt lat="43.75583" lon="7.12556">
        <ele>401.20001220703</ele>
        <time>2023-08-02T11:34:03.000Z</time>
      </trkpt>
      <trkpt lat="43.75584" lon="7.12555">
        <ele>401.20001220703</ele>
        <time>2023-08-02T11:34:04.000Z</time>
      </trkpt>
      <trkpt lat="43.75586" lon="7.12555">
        <ele>400.60000610352</ele>
        <time>2023-08-02T11:34:05.000Z</time>
      </trkpt>
      <trkpt lat="43.75587" lon="7.12554">
        <ele>400</ele>
        <time>2023-08-02T11:34:06.000Z</time>
      </trkpt>
      <trkpt lat="43.75589" lon="7.12553">
        <ele>399.79998779297</ele>
        <time>2023-08-02T11:34:07.000Z</time>
      </trkpt>
      <trkpt lat="43.7559" lon="7.12552">
        <ele>399.60000610352</ele>
        <time>2023-08-02T11:34:08.000Z</time>
      </trkpt>
      <trkpt lat="43.75591" lon="7.1255">
        <ele>399.39999389648</ele>
        <time>2023-08-02T11:34:09.000Z</time>
      </trkpt>
      <trkpt lat="43.75592" lon="7.12549">
        <ele>398.60000610352</ele>
        <time>2023-08-02T11:34:10.000Z</time>
      </trkpt>
      <trkpt lat="43.75592" lon="7.12547">
        <ele>398.39999389648</ele>
        <time>2023-08-02T11:34:11.000Z</time>
      </trkpt>
      <trkpt lat="43.75593" lon="7.12547">
        <ele>397.79998779297</ele>
        <time>2023-08-02T11:34:12.000Z</time>
      </trkpt>
      <trkpt lat="43.75593" lon="7.12545">
        <ele>397.39999389648</ele>
        <time>2023-08-02T11:34:13.000Z</time>
      </trkpt>
      <trkpt lat="43.75595" lon="7.12544">
        <ele>397.20001220703</ele>
        <time>2023-08-02T11:34:14.000Z</time>
      </trkpt>
      <trkpt lat="43.75596" lon="7.12542">
        <ele>397.20001220703</ele>
        <time>2023-08-02T11:34:15.000Z</time>
      </trkpt>
      <trkpt lat="43.75597" lon="7.1254">
        <ele>396.79998779297</ele>
        <time>2023-08-02T11:34:16.000Z</time>
      </trkpt>
      <trkpt lat="43.75598" lon="7.12538">
        <ele>396.20001220703</ele>
        <time>2023-08-02T11:34:17.000Z</time>
      </trkpt>
      <trkpt lat="43.756" lon="7.12536">
        <ele>395.60000610352</ele>
        <time>2023-08-02T11:34:18.000Z</time>
      </trkpt>
      <trkpt lat="43.75601" lon="7.12534">
        <ele>395.20001220703</ele>
        <time>2023-08-02T11:34:19.000Z</time>
      </trkpt>
      <trkpt lat="43.75602" lon="7.12532">
        <ele>394.79998779297</ele>
        <time>2023-08-02T11:34:20.000Z</time>
      </trkpt>
      <trkpt lat="43.75603" lon="7.1253">
        <ele>394.39999389648</ele>
        <time>2023-08-02T11:34:21.000Z</time>
      </trkpt>
      <trkpt lat="43.75605" lon="7.12527">
        <ele>394</ele>
        <time>2023-08-02T11:34:22.000Z</time>
      </trkpt>
      <trkpt lat="43.75606" lon="7.12525">
        <ele>393.60000610352</ele>
        <time>2023-08-02T11:34:23.000Z</time>
      </trkpt>
      <trkpt lat="43.75607" lon="7.12523">
        <ele>393.20001220703</ele>
        <time>2023-08-02T11:34:24.000Z</time>
      </trkpt>
      <trkpt lat="43.75608" lon="7.12521">
        <ele>392.60000610352</ele>
        <time>2023-08-02T11:34:25.000Z</time>
      </trkpt>
      <trkpt lat="43.7561" lon="7.1252">
        <ele>392</ele>
        <time>2023-08-02T11:34:26.000Z</time>
      </trkpt>
      <trkpt lat="43.7561" lon="7.12518">
        <ele>391.79998779297</ele>
        <time>2023-08-02T11:34:27.000Z</time>
      </trkpt>
      <trkpt lat="43.75611" lon="7.12516">
        <ele>391.39999389648</ele>
        <time>2023-08-02T11:34:28.000Z</time>
      </trkpt>
      <trkpt lat="43.75613" lon="7.12513">
        <ele>391</ele>
        <time>2023-08-02T11:34:29.000Z</time>
      </trkpt>
      <trkpt lat="43.75614" lon="7.12511">
        <ele>390.60000610352</ele>
        <time>2023-08-02T11:34:30.000Z</time>
      </trkpt>
      <trkpt lat="43.75615" lon="7.1251">
        <ele>390.39999389648</ele>
        <time>2023-08-02T11:34:31.000Z</time>
      </trkpt>
      <trkpt lat="43.75615" lon="7.12509">
        <ele>390</ele>
        <time>2023-08-02T11:34:32.000Z</time>
      </trkpt>
      <trkpt lat="43.75615" lon="7.12508">
        <ele>389.79998779297</ele>
        <time>2023-08-02T11:34:33.000Z</time>
      </trkpt>
      <trkpt lat="43.75615" lon="7.12507">
        <ele>389.39999389648</ele>
        <time>2023-08-02T11:34:34.000Z</time>
      </trkpt>
      <trkpt lat="43.75615" lon="7.12505">
        <ele>389.20001220703</ele>
        <time>2023-08-02T11:34:35.000Z</time>
      </trkpt>
      <trkpt lat="43.75615" lon="7.12503">
        <ele>389</ele>
        <time>2023-08-02T11:34:36.000Z</time>
      </trkpt>
      <trkpt lat="43.75614" lon="7.12503">
        <ele>388.79998779297</ele>
        <time>2023-08-02T11:34:37.000Z</time>
      </trkpt>
      <trkpt lat="43.75613" lon="7.12502">
        <ele>388.39999389648</ele>
        <time>2023-08-02T11:34:38.000Z</time>
      </trkpt>
      <trkpt lat="43.75612" lon="7.12502">
        <ele>388</ele>
        <time>2023-08-02T11:34:39.000Z</time>
      </trkpt>
      <trkpt lat="43.75611" lon="7.12502">
        <ele>387.79998779297</ele>
        <time>2023-08-02T11:34:40.000Z</time>
      </trkpt>
      <trkpt lat="43.7561" lon="7.12502">
        <ele>387.79998779297</ele>
        <time>2023-08-02T11:34:41.000Z</time>
      </trkpt>
      <trkpt lat="43.75609" lon="7.12502">
        <ele>387.39999389648</ele>
        <time>2023-08-02T11:34:42.000Z</time>
      </trkpt>
      <trkpt lat="43.75608" lon="7.12501">
        <ele>387.20001220703</ele>
        <time>2023-08-02T11:34:43.000Z</time>
      </trkpt>
      <trkpt lat="43.75607" lon="7.125">
        <ele>386.79998779297</ele>
        <time>2023-08-02T11:34:44.000Z</time>
      </trkpt>
      <trkpt lat="43.75606" lon="7.12499">
        <ele>386.20001220703</ele>
        <time>2023-08-02T11:34:45.000Z</time>
      </trkpt>
      <trkpt lat="43.75607" lon="7.12498">
        <ele>385.79998779297</ele>
        <time>2023-08-02T11:34:46.000Z</time>
      </trkpt>
      <trkpt lat="43.75608" lon="7.12497">
        <ele>385.39999389648</ele>
        <time>2023-08-02T11:34:47.000Z</time>
      </trkpt>
      <trkpt lat="43.75609" lon="7.12496">
        <ele>385</ele>
        <time>2023-08-02T11:34:48.000Z</time>
      </trkpt>
      <trkpt lat="43.7561" lon="7.12495">
        <ele>384.60000610352</ele>
        <time>2023-08-02T11:34:49.000Z</time>
      </trkpt>
      <trkpt lat="43.75611" lon="7.12494">
        <ele>384.20001220703</ele>
        <time>2023-08-02T11:34:50.000Z</time>
      </trkpt>
      <trkpt lat="43.7561" lon="7.12493">
        <ele>384</ele>
        <time>2023-08-02T11:34:51.000Z</time>
      </trkpt>
      <trkpt lat="43.75609" lon="7.12493">
        <ele>383.60000610352</ele>
        <time>2023-08-02T11:34:52.000Z</time>
      </trkpt>
      <trkpt lat="43.75607" lon="7.12492">
        <ele>383.39999389648</ele>
        <time>2023-08-02T11:34:53.000Z</time>
      </trkpt>
      <trkpt lat="43.75606" lon="7.12492">
        <ele>383</ele>
        <time>2023-08-02T11:34:54.000Z</time>
      </trkpt>
      <trkpt lat="43.75604" lon="7.12492">
        <ele>382.79998779297</ele>
        <time>2023-08-02T11:34:55.000Z</time>
      </trkpt>
      <trkpt lat="43.75603" lon="7.12493">
        <ele>382.39999389648</ele>
        <time>2023-08-02T11:34:56.000Z</time>
      </trkpt>
      <trkpt lat="43.75602" lon="7.12494">
        <ele>382</ele>
        <time>2023-08-02T11:34:57.000Z</time>
      </trkpt>
      <trkpt lat="43.75601" lon="7.12495">
        <ele>381.60000610352</ele>
        <time>2023-08-02T11:34:58.000Z</time>
      </trkpt>
      <trkpt lat="43.75599" lon="7.12496">
        <ele>381.20001220703</ele>
        <time>2023-08-02T11:34:59.000Z</time>
      </trkpt>
      <trkpt lat="43.75598" lon="7.12497">
        <ele>380.79998779297</ele>
        <time>2023-08-02T11:35:00.000Z</time>
      </trkpt>
      <trkpt lat="43.75599" lon="7.12497">
        <ele>380.20001220703</ele>
        <time>2023-08-02T11:35:01.000Z</time>
      </trkpt>
      <trkpt lat="43.756" lon="7.12497">
        <ele>380</ele>
        <time>2023-08-02T11:35:02.000Z</time>
      </trkpt>
      <trkpt lat="43.756" lon="7.12497">
        <ele>380</ele>
        <time>2023-08-02T11:35:03.000Z</time>
      </trkpt>
      <trkpt lat="43.75601" lon="7.12498">
        <ele>380</ele>
        <time>2023-08-02T11:35:04.000Z</time>
      </trkpt>
      <trkpt lat="43.75601" lon="7.12497">
        <ele>380</ele>
        <time>2023-08-02T11:35:05.000Z</time>
      </trkpt>
      <trkpt lat="43.75601" lon="7.12496">
        <ele>379.79998779297</ele>
        <time>2023-08-02T11:35:06.000Z</time>
      </trkpt>
      <trkpt lat="43.75601" lon="7.12494">
        <ele>379.79998779297</ele>
        <time>2023-08-02T11:35:07.000Z</time>
      </trkpt>
      <trkpt lat="43.75602" lon="7.12493">
        <ele>379.79998779297</ele>
        <time>2023-08-02T11:35:08.000Z</time>
      </trkpt>
      <trkpt lat="43.75603" lon="7.12491">
        <ele>379.79998779297</ele>
        <time>2023-08-02T11:35:09.000Z</time>
      </trkpt>
      <trkpt lat="43.75604" lon="7.12489">
        <ele>379.60000610352</ele>
        <time>2023-08-02T11:35:10.000Z</time>
      </trkpt>
      <trkpt lat="43.75604" lon="7.12486">
        <ele>379.39999389648</ele>
        <time>2023-08-02T11:35:11.000Z</time>
      </trkpt>
      <trkpt lat="43.75605" lon="7.12485">
        <ele>379</ele>
        <time>2023-08-02T11:35:12.000Z</time>
      </trkpt>
      <trkpt lat="43.75606" lon="7.12483">
        <ele>378.79998779297</ele>
        <time>2023-08-02T11:35:13.000Z</time>
      </trkpt>
      <trkpt lat="43.75605" lon="7.12483">
        <ele>378.39999389648</ele>
        <time>2023-08-02T11:35:14.000Z</time>
      </trkpt>
      <trkpt lat="43.75605" lon="7.12483">
        <ele>378</ele>
        <time>2023-08-02T11:35:15.000Z</time>
      </trkpt>
      <trkpt lat="43.75605" lon="7.12483">
        <ele>378</ele>
        <time>2023-08-02T11:35:16.000Z</time>
      </trkpt>
      <trkpt lat="43.75605" lon="7.12483">
        <ele>377.60000610352</ele>
        <time>2023-08-02T11:35:17.000Z</time>
      </trkpt>
      <trkpt lat="43.75605" lon="7.12483">
        <ele>377.60000610352</ele>
        <time>2023-08-02T11:35:18.000Z</time>
      </trkpt>
      <trkpt lat="43.75605" lon="7.12483">
        <ele>377.39999389648</ele>
        <time>2023-08-02T11:35:19.000Z</time>
      </trkpt>
      <trkpt lat="43.75605" lon="7.12483">
        <ele>377.39999389648</ele>
        <time>2023-08-02T11:35:20.000Z</time>
      </trkpt>
      <trkpt lat="43.75605" lon="7.12483">
        <ele>377.39999389648</ele>
        <time>2023-08-02T11:35:21.000Z</time>
      </trkpt>
      <trkpt lat="43.75605" lon="7.12483">
        <ele>377.39999389648</ele>
        <time>2023-08-02T11:35:22.000Z</time>
      </trkpt>
      <trkpt lat="43.75605" lon="7.12483">
        <ele>377.39999389648</ele>
        <time>2023-08-02T11:35:23.000Z</time>
      </trkpt>
      <trkpt lat="43.75605" lon="7.12483">
        <ele>377.20001220703</ele>
        <time>2023-08-02T11:35:24.000Z</time>
      </trkpt>
      <trkpt lat="43.75605" lon="7.12483">
        <ele>377.20001220703</ele>
        <time>2023-08-02T11:35:25.000Z</time>
      </trkpt>
      <trkpt lat="43.75605" lon="7.12483">
        <ele>377.20001220703</ele>
        <time>2023-08-02T11:35:26.000Z</time>
      </trkpt>
      <trkpt lat="43.75605" lon="7.12483">
        <ele>377.20001220703</ele>
        <time>2023-08-02T11:35:27.000Z</time>
      </trkpt>
      <trkpt lat="43.75605" lon="7.12483">
        <ele>377.20001220703</ele>
        <time>2023-08-02T11:35:28.000Z</time>
      </trkpt>
      <trkpt lat="43.75606" lon="7.12483">
        <ele>377.20001220703</ele>
        <time>2023-08-02T11:35:29.000Z</time>
      </trkpt>
      <trkpt lat="43.75606" lon="7.12483">
        <ele>377.20001220703</ele>
        <time>2023-08-02T11:35:30.000Z</time>
      </trkpt>
      <trkpt lat="43.75606" lon="7.12483">
        <ele>377.20001220703</ele>
        <time>2023-08-02T11:35:31.000Z</time>
      </trkpt>
      <trkpt lat="43.75606" lon="7.12483">
        <ele>377.20001220703</ele>
        <time>2023-08-02T11:35:32.000Z</time>
      </trkpt>
      <trkpt lat="43.75606" lon="7.12483">
        <ele>377.20001220703</ele>
        <time>2023-08-02T11:35:33.000Z</time>
      </trkpt>
      <trkpt lat="43.75606" lon="7.12483">
        <ele>377.20001220703</ele>
        <time>2023-08-02T11:35:34.000Z</time>
      </trkpt>
      <trkpt lat="43.75606" lon="7.12483">
        <ele>377.20001220703</ele>
        <time>2023-08-02T11:35:35.000Z</time>
      </trkpt>
      <trkpt lat="43.75606" lon="7.12483">
        <ele>377.20001220703</ele>
        <time>2023-08-02T11:35:36.000Z</time>
      </trkpt>
      <trkpt lat="43.75606" lon="7.12483">
        <ele>377.20001220703</ele>
        <time>2023-08-02T11:35:37.000Z</time>
      </trkpt>
      <trkpt lat="43.75605" lon="7.12483">
        <ele>377.20001220703</ele>
        <time>2023-08-02T11:35:38.000Z</time>
      </trkpt>
      <trkpt lat="43.75605" lon="7.12483">
        <ele>377.20001220703</ele>
        <time>2023-08-02T11:35:39.000Z</time>
      </trkpt>
      <trkpt lat="43.75605" lon="7.12483">
        <ele>377.20001220703</ele>
        <time>2023-08-02T11:35:40.000Z</time>
      </trkpt>
      <trkpt lat="43.75605" lon="7.12483">
        <ele>377.20001220703</ele>
        <time>2023-08-02T11:35:41.000Z</time>
      </trkpt>
      <trkpt lat="43.75605" lon="7.12483">
        <ele>377.20001220703</ele>
        <time>2023-08-02T11:35:42.000Z</time>
      </trkpt>
      <trkpt lat="43.75605" lon="7.12483">
        <ele>377.20001220703</ele>
        <time>2023-08-02T11:35:43.000Z</time>
      </trkpt>
      <trkpt lat="43.75605" lon="7.12483">
        <ele>377.20001220703</ele>
        <time>2023-08-02T11:35:44.000Z</time>
      </trkpt>
      <trkpt lat="43.75605" lon="7.12483">
        <ele>377.20001220703</ele>
        <time>2023-08-02T11:35:45.000Z</time>
      </trkpt>
      <trkpt lat="43.75605" lon="7.12483">
        <ele>377.20001220703</ele>
        <time>2023-08-02T11:35:46.000Z</time>
      </trkpt>
      <trkpt lat="43.75605" lon="7.12483">
        <ele>377.20001220703</ele>
        <time>2023-08-02T11:35:47.000Z</time>
      </trkpt>
      <trkpt lat="43.75606" lon="7.12483">
        <ele>377.20001220703</ele>
        <time>2023-08-02T11:35:48.000Z</time>
      </trkpt>
      <trkpt lat="43.75605" lon="7.12483">
        <ele>377.20001220703</ele>
        <time>2023-08-02T11:35:49.000Z</time>
      </trkpt>
      <trkpt lat="43.75606" lon="7.12483">
        <ele>377.20001220703</ele>
        <time>2023-08-02T11:35:50.000Z</time>
      </trkpt>
      <trkpt lat="43.75606" lon="7.12483">
        <ele>377.20001220703</ele>
        <time>2023-08-02T11:35:51.000Z</time>
      </trkpt>
      <trkpt lat="43.75606" lon="7.12483">
        <ele>377.20001220703</ele>
        <time>2023-08-02T11:35:52.000Z</time>
      </trkpt>
      <trkpt lat="43.75606" lon="7.12483">
        <ele>377.20001220703</ele>
        <time>2023-08-02T11:35:53.000Z</time>
      </trkpt>
      <trkpt lat="43.75606" lon="7.12483">
        <ele>377.20001220703</ele>
        <time>2023-08-02T11:35:54.000Z</time>
      </trkpt>
      <trkpt lat="43.75605" lon="7.12483">
        <ele>377.20001220703</ele>
        <time>2023-08-02T11:35:55.000Z</time>
      </trkpt>
      <trkpt lat="43.75605" lon="7.12483">
        <ele>377.20001220703</ele>
        <time>2023-08-02T11:35:56.000Z</time>
      </trkpt>
      <trkpt lat="43.75605" lon="7.12483">
        <ele>377.20001220703</ele>
        <time>2023-08-02T11:35:57.000Z</time>
      </trkpt>
      <trkpt lat="43.75605" lon="7.12483">
        <ele>377.20001220703</ele>
        <time>2023-08-02T11:35:58.000Z</time>
      </trkpt>
      <trkpt lat="43.75605" lon="7.12483">
        <ele>377.20001220703</ele>
        <time>2023-08-02T11:35:59.000Z</time>
      </trkpt>
      <trkpt lat="43.75605" lon="7.12483">
        <ele>377.20001220703</ele>
        <time>2023-08-02T11:36:00.000Z</time>
      </trkpt>
      <trkpt lat="43.75605" lon="7.12483">
        <ele>377.20001220703</ele>
        <time>2023-08-02T11:36:01.000Z</time>
      </trkpt>
      <trkpt lat="43.75605" lon="7.12483">
        <ele>377.20001220703</ele>
        <time>2023-08-02T11:36:02.000Z</time>
      </trkpt>
      <trkpt lat="43.75605" lon="7.12483">
        <ele>377.20001220703</ele>
        <time>2023-08-02T11:36:03.000Z</time>
      </trkpt>
      <trkpt lat="43.75605" lon="7.12483">
        <ele>377.20001220703</ele>
        <time>2023-08-02T11:36:04.000Z</time>
      </trkpt>
      <trkpt lat="43.75605" lon="7.12483">
        <ele>377</ele>
        <time>2023-08-02T11:36:05.000Z</time>
      </trkpt>
      <trkpt lat="43.75605" lon="7.12483">
        <ele>377</ele>
        <time>2023-08-02T11:36:06.000Z</time>
      </trkpt>
      <trkpt lat="43.75605" lon="7.12483">
        <ele>377</ele>
        <time>2023-08-02T11:36:07.000Z</time>
      </trkpt>
      <trkpt lat="43.75605" lon="7.12483">
        <ele>377</ele>
        <time>2023-08-02T11:36:08.000Z</time>
      </trkpt>
      <trkpt lat="43.75605" lon="7.12483">
        <ele>377</ele>
        <time>2023-08-02T11:36:09.000Z</time>
      </trkpt>
      <trkpt lat="43.75605" lon="7.12483">
        <ele>377</ele>
        <time>2023-08-02T11:36:10.000Z</time>
      </trkpt>
      <trkpt lat="43.75605" lon="7.12483">
        <ele>377</ele>
        <time>2023-08-02T11:36:11.000Z</time>
      </trkpt>
      <trkpt lat="43.75605" lon="7.12483">
        <ele>377</ele>
        <time>2023-08-02T11:36:12.000Z</time>
      </trkpt>
      <trkpt lat="43.75605" lon="7.12483">
        <ele>377</ele>
        <time>2023-08-02T11:36:13.000Z</time>
      </trkpt>
      <trkpt lat="43.75605" lon="7.12483">
        <ele>377</ele>
        <time>2023-08-02T11:36:14.000Z</time>
      </trkpt>
      <trkpt lat="43.75605" lon="7.12483">
        <ele>377</ele>
        <time>2023-08-02T11:36:15.000Z</time>
      </trkpt>
      <trkpt lat="43.75605" lon="7.12483">
        <ele>377</ele>
        <time>2023-08-02T11:36:16.000Z</time>
      </trkpt>
      <trkpt lat="43.75605" lon="7.12483">
        <ele>377</ele>
        <time>2023-08-02T11:36:17.000Z</time>
      </trkpt>
      <trkpt lat="43.75605" lon="7.12483">
        <ele>377</ele>
        <time>2023-08-02T11:36:18.000Z</time>
      </trkpt>
      <trkpt lat="43.75605" lon="7.12483">
        <ele>377</ele>
        <time>2023-08-02T11:36:19.000Z</time>
      </trkpt>
      <trkpt lat="43.75605" lon="7.12483">
        <ele>377</ele>
        <time>2023-08-02T11:36:20.000Z</time>
      </trkpt>
      <trkpt lat="43.75605" lon="7.12483">
        <ele>377</ele>
        <time>2023-08-02T11:36:21.000Z</time>
      </trkpt>
      <trkpt lat="43.75605" lon="7.12483">
        <ele>377</ele>
        <time>2023-08-02T11:36:22.000Z</time>
      </trkpt>
      <trkpt lat="43.75605" lon="7.12483">
        <ele>377</ele>
        <time>2023-08-02T11:36:23.000Z</time>
      </trkpt>
      <trkpt lat="43.75606" lon="7.12483">
        <ele>377.20001220703</ele>
        <time>2023-08-02T11:36:24.000Z</time>
      </trkpt>
      <trkpt lat="43.75605" lon="7.12483">
        <ele>377.20001220703</ele>
        <time>2023-08-02T11:36:25.000Z</time>
      </trkpt>
      <trkpt lat="43.75605" lon="7.12483">
        <ele>377.20001220703</ele>
        <time>2023-08-02T11:36:26.000Z</time>
      </trkpt>
      <trkpt lat="43.75605" lon="7.12483">
        <ele>377.20001220703</ele>
        <time>2023-08-02T11:36:27.000Z</time>
      </trkpt>
      <trkpt lat="43.75605" lon="7.12483">
        <ele>377</ele>
        <time>2023-08-02T11:36:28.000Z</time>
      </trkpt>
      <trkpt lat="43.75605" lon="7.12483">
        <ele>377</ele>
        <time>2023-08-02T11:36:29.000Z</time>
      </trkpt>
      <trkpt lat="43.75605" lon="7.12483">
        <ele>377</ele>
        <time>2023-08-02T11:36:30.000Z</time>
      </trkpt>
      <trkpt lat="43.75605" lon="7.12483">
        <ele>377</ele>
        <time>2023-08-02T11:36:31.000Z</time>
      </trkpt>
      <trkpt lat="43.75605" lon="7.12483">
        <ele>377</ele>
        <time>2023-08-02T11:36:32.000Z</time>
      </trkpt>
      <trkpt lat="43.75605" lon="7.12483">
        <ele>377</ele>
        <time>2023-08-02T11:36:33.000Z</time>
      </trkpt>
      <trkpt lat="43.75605" lon="7.12483">
        <ele>377</ele>
        <time>2023-08-02T11:36:34.000Z</time>
      </trkpt>
      <trkpt lat="43.75605" lon="7.12483">
        <ele>377</ele>
        <time>2023-08-02T11:36:35.000Z</time>
      </trkpt>
      <trkpt lat="43.75605" lon="7.12483">
        <ele>377</ele>
        <time>2023-08-02T11:36:36.000Z</time>
      </trkpt>
      <trkpt lat="43.75605" lon="7.12483">
        <ele>376.79998779297</ele>
        <time>2023-08-02T11:36:37.000Z</time>
      </trkpt>
      <trkpt lat="43.75605" lon="7.12483">
        <ele>376.79998779297</ele>
        <time>2023-08-02T11:36:38.000Z</time>
      </trkpt>
      <trkpt lat="43.75605" lon="7.12483">
        <ele>376.79998779297</ele>
        <time>2023-08-02T11:36:39.000Z</time>
      </trkpt>
      <trkpt lat="43.75605" lon="7.12483">
        <ele>376.79998779297</ele>
        <time>2023-08-02T11:36:40.000Z</time>
      </trkpt>
      <trkpt lat="43.75605" lon="7.12483">
        <ele>376.79998779297</ele>
        <time>2023-08-02T11:36:41.000Z</time>
      </trkpt>
      <trkpt lat="43.75605" lon="7.12483">
        <ele>376.79998779297</ele>
        <time>2023-08-02T11:36:42.000Z</time>
      </trkpt>
      <trkpt lat="43.75605" lon="7.12483">
        <ele>376.79998779297</ele>
        <time>2023-08-02T11:36:43.000Z</time>
      </trkpt>
      <trkpt lat="43.75605" lon="7.12483">
        <ele>376.79998779297</ele>
        <time>2023-08-02T11:36:44.000Z</time>
      </trkpt>
      <trkpt lat="43.75605" lon="7.12483">
        <ele>376.79998779297</ele>
        <time>2023-08-02T11:36:45.000Z</time>
      </trkpt>
      <trkpt lat="43.75605" lon="7.12483">
        <ele>376.79998779297</ele>
        <time>2023-08-02T11:36:46.000Z</time>
      </trkpt>
      <trkpt lat="43.75605" lon="7.12483">
        <ele>376.79998779297</ele>
        <time>2023-08-02T11:36:47.000Z</time>
      </trkpt>
      <trkpt lat="43.75605" lon="7.12483">
        <ele>376.79998779297</ele>
        <time>2023-08-02T11:36:48.000Z</time>
      </trkpt>
      <trkpt lat="43.75605" lon="7.12483">
        <ele>376.79998779297</ele>
        <time>2023-08-02T11:36:49.000Z</time>
      </trkpt>
      <trkpt lat="43.75605" lon="7.12483">
        <ele>376.79998779297</ele>
        <time>2023-08-02T11:36:50.000Z</time>
      </trkpt>
      <trkpt lat="43.75605" lon="7.12483">
        <ele>376.79998779297</ele>
        <time>2023-08-02T11:36:51.000Z</time>
      </trkpt>
      <trkpt lat="43.75605" lon="7.12483">
        <ele>376.79998779297</ele>
        <time>2023-08-02T11:36:52.000Z</time>
      </trkpt>
      <trkpt lat="43.75605" lon="7.12483">
        <ele>376.79998779297</ele>
        <time>2023-08-02T11:36:53.000Z</time>
      </trkpt>
      <trkpt lat="43.75605" lon="7.12483">
        <ele>377</ele>
        <time>2023-08-02T11:36:54.000Z</time>
      </trkpt>
      <trkpt lat="43.75605" lon="7.12483">
        <ele>376.79998779297</ele>
        <time>2023-08-02T11:36:55.000Z</time>
      </trkpt>
      <trkpt lat="43.75605" lon="7.12483">
        <ele>376.79998779297</ele>
        <time>2023-08-02T11:36:56.000Z</time>
      </trkpt>
      <trkpt lat="43.75605" lon="7.12483">
        <ele>377</ele>
        <time>2023-08-02T11:36:57.000Z</time>
      </trkpt>
      <trkpt lat="43.75605" lon="7.12483">
        <ele>377</ele>
        <time>2023-08-02T11:36:58.000Z</time>
      </trkpt>
      <trkpt lat="43.75605" lon="7.12483">
        <ele>377</ele>
        <time>2023-08-02T11:36:59.000Z</time>
      </trkpt>
      <trkpt lat="43.75605" lon="7.12483">
        <ele>376.79998779297</ele>
        <time>2023-08-02T11:37:00.000Z</time>
      </trkpt>
      <trkpt lat="43.75605" lon="7.12483">
        <ele>376.79998779297</ele>
        <time>2023-08-02T11:37:01.000Z</time>
      </trkpt>
      <trkpt lat="43.75605" lon="7.12483">
        <ele>376.79998779297</ele>
        <time>2023-08-02T11:37:02.000Z</time>
      </trkpt>
      <trkpt lat="43.75606" lon="7.12483">
        <ele>376.79998779297</ele>
        <time>2023-08-02T11:37:03.000Z</time>
      </trkpt>
      <trkpt lat="43.75606" lon="7.12483">
        <ele>376.79998779297</ele>
        <time>2023-08-02T11:37:04.000Z</time>
      </trkpt>
      <trkpt lat="43.75606" lon="7.12483">
        <ele>376.79998779297</ele>
        <time>2023-08-02T11:37:05.000Z</time>
      </trkpt>
      <trkpt lat="43.75605" lon="7.12483">
        <ele>376.79998779297</ele>
        <time>2023-08-02T11:37:06.000Z</time>
      </trkpt>
      <trkpt lat="43.75605" lon="7.12483">
        <ele>376.79998779297</ele>
        <time>2023-08-02T11:37:07.000Z</time>
      </trkpt>
      <trkpt lat="43.75605" lon="7.12483">
        <ele>376.79998779297</ele>
        <time>2023-08-02T11:37:08.000Z</time>
      </trkpt>
      <trkpt lat="43.75605" lon="7.12483">
        <ele>376.79998779297</ele>
        <time>2023-08-02T11:37:09.000Z</time>
      </trkpt>
      <trkpt lat="43.75605" lon="7.12483">
        <ele>376.79998779297</ele>
        <time>2023-08-02T11:37:10.000Z</time>
      </trkpt>
      <trkpt lat="43.75605" lon="7.12483">
        <ele>376.79998779297</ele>
        <time>2023-08-02T11:37:11.000Z</time>
      </trkpt>
      <trkpt lat="43.75605" lon="7.12483">
        <ele>376.79998779297</ele>
        <time>2023-08-02T11:37:12.000Z</time>
      </trkpt>
      <trkpt lat="43.75605" lon="7.12483">
        <ele>376.79998779297</ele>
        <time>2023-08-02T11:37:13.000Z</time>
      </trkpt>
      <trkpt lat="43.75605" lon="7.12483">
        <ele>376.79998779297</ele>
        <time>2023-08-02T11:37:14.000Z</time>
      </trkpt>
      <trkpt lat="43.75605" lon="7.12483">
        <ele>376.79998779297</ele>
        <time>2023-08-02T11:37:15.000Z</time>
      </trkpt>
      <trkpt lat="43.75605" lon="7.12483">
        <ele>376.79998779297</ele>
        <time>2023-08-02T11:37:16.000Z</time>
      </trkpt>
      <trkpt lat="43.75605" lon="7.12483">
        <ele>376.79998779297</ele>
        <time>2023-08-02T11:37:17.000Z</time>
      </trkpt>
      <trkpt lat="43.75605" lon="7.12483">
        <ele>376.79998779297</ele>
        <time>2023-08-02T11:37:18.000Z</time>
      </trkpt>
      <trkpt lat="43.75605" lon="7.12483">
        <ele>376.79998779297</ele>
        <time>2023-08-02T11:37:19.000Z</time>
      </trkpt>
      <trkpt lat="43.75605" lon="7.12483">
        <ele>376.79998779297</ele>
        <time>2023-08-02T11:37:20.000Z</time>
      </trkpt>
      <trkpt lat="43.75605" lon="7.12483">
        <ele>376.79998779297</ele>
        <time>2023-08-02T11:37:21.000Z</time>
      </trkpt>
      <trkpt lat="43.75605" lon="7.12483">
        <ele>376.79998779297</ele>
        <time>2023-08-02T11:37:22.000Z</time>
      </trkpt>
      <trkpt lat="43.75605" lon="7.12483">
        <ele>376.79998779297</ele>
        <time>2023-08-02T11:37:23.000Z</time>
      </trkpt>
      <trkpt lat="43.75605" lon="7.12483">
        <ele>376.79998779297</ele>
        <time>2023-08-02T11:37:24.000Z</time>
      </trkpt>
      <trkpt lat="43.75605" lon="7.12483">
        <ele>376.79998779297</ele>
        <time>2023-08-02T11:37:25.000Z</time>
      </trkpt>
      <trkpt lat="43.75605" lon="7.12483">
        <ele>376.79998779297</ele>
        <time>2023-08-02T11:37:26.000Z</time>
      </trkpt>
      <trkpt lat="43.75605" lon="7.12483">
        <ele>376.79998779297</ele>
        <time>2023-08-02T11:37:27.000Z</time>
      </trkpt>
      <trkpt lat="43.75605" lon="7.12483">
        <ele>376.79998779297</ele>
        <time>2023-08-02T11:37:28.000Z</time>
      </trkpt>
      <trkpt lat="43.75605" lon="7.12483">
        <ele>376.79998779297</ele>
        <time>2023-08-02T11:37:29.000Z</time>
      </trkpt>
      <trkpt lat="43.75605" lon="7.12483">
        <ele>376.79998779297</ele>
        <time>2023-08-02T11:37:30.000Z</time>
      </trkpt>
      <trkpt lat="43.75605" lon="7.12483">
        <ele>376.79998779297</ele>
        <time>2023-08-02T11:37:31.000Z</time>
      </trkpt>
      <trkpt lat="43.75605" lon="7.12483">
        <ele>376.79998779297</ele>
        <time>2023-08-02T11:37:32.000Z</time>
      </trkpt>
      <trkpt lat="43.75605" lon="7.12483">
        <ele>376.79998779297</ele>
        <time>2023-08-02T11:37:33.000Z</time>
      </trkpt>
      <trkpt lat="43.75606" lon="7.12482">
        <ele>376.79998779297</ele>
        <time>2023-08-02T11:37:34.000Z</time>
      </trkpt>
      <trkpt lat="43.75608" lon="7.12482">
        <ele>377</ele>
        <time>2023-08-02T11:37:35.000Z</time>
      </trkpt>
      <trkpt lat="43.7561" lon="7.12479">
        <ele>377</ele>
        <time>2023-08-02T11:37:36.000Z</time>
      </trkpt>
      <trkpt lat="43.75611" lon="7.12477">
        <ele>377</ele>
        <time>2023-08-02T11:37:37.000Z</time>
      </trkpt>
      <trkpt lat="43.75612" lon="7.12474">
        <ele>376.79998779297</ele>
        <time>2023-08-02T11:37:38.000Z</time>
      </trkpt>
      <trkpt lat="43.75613" lon="7.12471">
        <ele>376</ele>
        <time>2023-08-02T11:37:39.000Z</time>
      </trkpt>
      <trkpt lat="43.75613" lon="7.12467">
        <ele>375.39999389648</ele>
        <time>2023-08-02T11:37:40.000Z</time>
      </trkpt>
      <trkpt lat="43.75612" lon="7.12462">
        <ele>374.79998779297</ele>
        <time>2023-08-02T11:37:41.000Z</time>
      </trkpt>
      <trkpt lat="43.75611" lon="7.12459">
        <ele>374.79998779297</ele>
        <time>2023-08-02T11:37:42.000Z</time>
      </trkpt>
      <trkpt lat="43.75608" lon="7.12457">
        <ele>374</ele>
        <time>2023-08-02T11:37:43.000Z</time>
      </trkpt>
      <trkpt lat="43.75605" lon="7.12457">
        <ele>373</ele>
        <time>2023-08-02T11:37:44.000Z</time>
      </trkpt>
      <trkpt lat="43.75602" lon="7.12458">
        <ele>372.20001220703</ele>
        <time>2023-08-02T11:37:45.000Z</time>
      </trkpt>
      <trkpt lat="43.75599" lon="7.12459">
        <ele>371.39999389648</ele>
        <time>2023-08-02T11:37:46.000Z</time>
      </trkpt>
      <trkpt lat="43.75595" lon="7.12459">
        <ele>370.79998779297</ele>
        <time>2023-08-02T11:37:47.000Z</time>
      </trkpt>
      <trkpt lat="43.75591" lon="7.12459">
        <ele>370.60000610352</ele>
        <time>2023-08-02T11:37:48.000Z</time>
      </trkpt>
      <trkpt lat="43.75587" lon="7.12458">
        <ele>369.20001220703</ele>
        <time>2023-08-02T11:37:49.000Z</time>
      </trkpt>
      <trkpt lat="43.75584" lon="7.12457">
        <ele>368</ele>
        <time>2023-08-02T11:37:50.000Z</time>
      </trkpt>
      <trkpt lat="43.75582" lon="7.12457">
        <ele>367.20001220703</ele>
        <time>2023-08-02T11:37:51.000Z</time>
      </trkpt>
      <trkpt lat="43.75581" lon="7.12458">
        <ele>366.39999389648</ele>
        <time>2023-08-02T11:37:52.000Z</time>
      </trkpt>
      <trkpt lat="43.75581" lon="7.12459">
        <ele>365.39999389648</ele>
        <time>2023-08-02T11:37:53.000Z</time>
      </trkpt>
      <trkpt lat="43.75581" lon="7.1246">
        <ele>364.79998779297</ele>
        <time>2023-08-02T11:37:54.000Z</time>
      </trkpt>
      <trkpt lat="43.75581" lon="7.1246">
        <ele>364</ele>
        <time>2023-08-02T11:37:55.000Z</time>
      </trkpt>
      <trkpt lat="43.75581" lon="7.1246">
        <ele>363.60000610352</ele>
        <time>2023-08-02T11:37:56.000Z</time>
      </trkpt>
      <trkpt lat="43.75581" lon="7.1246">
        <ele>363.39999389648</ele>
        <time>2023-08-02T11:37:57.000Z</time>
      </trkpt>
      <trkpt lat="43.75581" lon="7.1246">
        <ele>363.20001220703</ele>
        <time>2023-08-02T11:37:58.000Z</time>
      </trkpt>
      <trkpt lat="43.75581" lon="7.1246">
        <ele>363.20001220703</ele>
        <time>2023-08-02T11:37:59.000Z</time>
      </trkpt>
      <trkpt lat="43.75581" lon="7.1246">
        <ele>363.20001220703</ele>
        <time>2023-08-02T11:38:00.000Z</time>
      </trkpt>
      <trkpt lat="43.75581" lon="7.1246">
        <ele>363.20001220703</ele>
        <time>2023-08-02T11:38:01.000Z</time>
      </trkpt>
      <trkpt lat="43.75581" lon="7.1246">
        <ele>363.20001220703</ele>
        <time>2023-08-02T11:38:02.000Z</time>
      </trkpt>
      <trkpt lat="43.75581" lon="7.1246">
        <ele>363.20001220703</ele>
        <time>2023-08-02T11:38:03.000Z</time>
      </trkpt>
      <trkpt lat="43.75581" lon="7.1246">
        <ele>363.20001220703</ele>
        <time>2023-08-02T11:38:04.000Z</time>
      </trkpt>
      <trkpt lat="43.7558" lon="7.1246">
        <ele>363.20001220703</ele>
        <time>2023-08-02T11:38:05.000Z</time>
      </trkpt>
      <trkpt lat="43.75579" lon="7.12462">
        <ele>363.20001220703</ele>
        <time>2023-08-02T11:38:06.000Z</time>
      </trkpt>
      <trkpt lat="43.75578" lon="7.12464">
        <ele>363.20001220703</ele>
        <time>2023-08-02T11:38:07.000Z</time>
      </trkpt>
      <trkpt lat="43.75576" lon="7.12466">
        <ele>363.20001220703</ele>
        <time>2023-08-02T11:38:08.000Z</time>
      </trkpt>
      <trkpt lat="43.75574" lon="7.12469">
        <ele>363</ele>
        <time>2023-08-02T11:38:09.000Z</time>
      </trkpt>
      <trkpt lat="43.75572" lon="7.12471">
        <ele>363</ele>
        <time>2023-08-02T11:38:10.000Z</time>
      </trkpt>
      <trkpt lat="43.75569" lon="7.12474">
        <ele>363</ele>
        <time>2023-08-02T11:38:11.000Z</time>
      </trkpt>
      <trkpt lat="43.75567" lon="7.12476">
        <ele>362.60000610352</ele>
        <time>2023-08-02T11:38:12.000Z</time>
      </trkpt>
      <trkpt lat="43.75565" lon="7.12478">
        <ele>362.60000610352</ele>
        <time>2023-08-02T11:38:13.000Z</time>
      </trkpt>
      <trkpt lat="43.75563" lon="7.12479">
        <ele>362.60000610352</ele>
        <time>2023-08-02T11:38:14.000Z</time>
      </trkpt>
      <trkpt lat="43.7556" lon="7.12481">
        <ele>362.60000610352</ele>
        <time>2023-08-02T11:38:15.000Z</time>
      </trkpt>
      <trkpt lat="43.75558" lon="7.12482">
        <ele>362.60000610352</ele>
        <time>2023-08-02T11:38:16.000Z</time>
      </trkpt>
      <trkpt lat="43.75555" lon="7.12484">
        <ele>362.60000610352</ele>
        <time>2023-08-02T11:38:17.000Z</time>
      </trkpt>
      <trkpt lat="43.75553" lon="7.12487">
        <ele>362.60000610352</ele>
        <time>2023-08-02T11:38:18.000Z</time>
      </trkpt>
      <trkpt lat="43.7555" lon="7.12489">
        <ele>362.60000610352</ele>
        <time>2023-08-02T11:38:19.000Z</time>
      </trkpt>
      <trkpt lat="43.75548" lon="7.12492">
        <ele>362.60000610352</ele>
        <time>2023-08-02T11:38:20.000Z</time>
      </trkpt>
      <trkpt lat="43.75546" lon="7.12495">
        <ele>362.39999389648</ele>
        <time>2023-08-02T11:38:21.000Z</time>
      </trkpt>
      <trkpt lat="43.75544" lon="7.12499">
        <ele>362.39999389648</ele>
        <time>2023-08-02T11:38:22.000Z</time>
      </trkpt>
      <trkpt lat="43.75542" lon="7.12502">
        <ele>362.39999389648</ele>
        <time>2023-08-02T11:38:23.000Z</time>
      </trkpt>
      <trkpt lat="43.75539" lon="7.12505">
        <ele>362.39999389648</ele>
        <time>2023-08-02T11:38:24.000Z</time>
      </trkpt>
      <trkpt lat="43.75537" lon="7.12508">
        <ele>362.39999389648</ele>
        <time>2023-08-02T11:38:25.000Z</time>
      </trkpt>
      <trkpt lat="43.75536" lon="7.1251">
        <ele>362.39999389648</ele>
        <time>2023-08-02T11:38:26.000Z</time>
      </trkpt>
      <trkpt lat="43.75534" lon="7.12511">
        <ele>362.39999389648</ele>
        <time>2023-08-02T11:38:27.000Z</time>
      </trkpt>
      <trkpt lat="43.75532" lon="7.12512">
        <ele>362.39999389648</ele>
        <time>2023-08-02T11:38:28.000Z</time>
      </trkpt>
      <trkpt lat="43.7553" lon="7.12514">
        <ele>362.60000610352</ele>
        <time>2023-08-02T11:38:29.000Z</time>
      </trkpt>
      <trkpt lat="43.75528" lon="7.12515">
        <ele>362.60000610352</ele>
        <time>2023-08-02T11:38:30.000Z</time>
      </trkpt>
      <trkpt lat="43.75525" lon="7.12516">
        <ele>362.79998779297</ele>
        <time>2023-08-02T11:38:31.000Z</time>
      </trkpt>
      <trkpt lat="43.75523" lon="7.12517">
        <ele>362.79998779297</ele>
        <time>2023-08-02T11:38:32.000Z</time>
      </trkpt>
      <trkpt lat="43.7552" lon="7.12519">
        <ele>362.79998779297</ele>
        <time>2023-08-02T11:38:33.000Z</time>
      </trkpt>
      <trkpt lat="43.75518" lon="7.1252">
        <ele>362.79998779297</ele>
        <time>2023-08-02T11:38:34.000Z</time>
      </trkpt>
      <trkpt lat="43.75515" lon="7.12521">
        <ele>362.79998779297</ele>
        <time>2023-08-02T11:38:35.000Z</time>
      </trkpt>
      <trkpt lat="43.75512" lon="7.12521">
        <ele>362.79998779297</ele>
        <time>2023-08-02T11:38:36.000Z</time>
      </trkpt>
      <trkpt lat="43.75509" lon="7.12521">
        <ele>362.79998779297</ele>
        <time>2023-08-02T11:38:37.000Z</time>
      </trkpt>
      <trkpt lat="43.75507" lon="7.12521">
        <ele>362.79998779297</ele>
        <time>2023-08-02T11:38:38.000Z</time>
      </trkpt>
      <trkpt lat="43.75505" lon="7.12522">
        <ele>363</ele>
        <time>2023-08-02T11:38:39.000Z</time>
      </trkpt>
      <trkpt lat="43.75502" lon="7.12522">
        <ele>363</ele>
        <time>2023-08-02T11:38:40.000Z</time>
      </trkpt>
      <trkpt lat="43.75499" lon="7.12519">
        <ele>363</ele>
        <time>2023-08-02T11:38:41.000Z</time>
      </trkpt>
      <trkpt lat="43.75496" lon="7.12518">
        <ele>363</ele>
        <time>2023-08-02T11:38:42.000Z</time>
      </trkpt>
      <trkpt lat="43.75493" lon="7.12518">
        <ele>362.79998779297</ele>
        <time>2023-08-02T11:38:43.000Z</time>
      </trkpt>
      <trkpt lat="43.7549" lon="7.12519">
        <ele>362.79998779297</ele>
        <time>2023-08-02T11:38:44.000Z</time>
      </trkpt>
      <trkpt lat="43.75487" lon="7.1252">
        <ele>362.60000610352</ele>
        <time>2023-08-02T11:38:45.000Z</time>
      </trkpt>
      <trkpt lat="43.75484" lon="7.12523">
        <ele>362.60000610352</ele>
        <time>2023-08-02T11:38:46.000Z</time>
      </trkpt>
      <trkpt lat="43.75481" lon="7.12526">
        <ele>362.39999389648</ele>
        <time>2023-08-02T11:38:47.000Z</time>
      </trkpt>
      <trkpt lat="43.7548" lon="7.12529">
        <ele>362.39999389648</ele>
        <time>2023-08-02T11:38:48.000Z</time>
      </trkpt>
      <trkpt lat="43.75478" lon="7.12533">
        <ele>362.39999389648</ele>
        <time>2023-08-02T11:38:49.000Z</time>
      </trkpt>
      <trkpt lat="43.75477" lon="7.12537">
        <ele>362.20001220703</ele>
        <time>2023-08-02T11:38:50.000Z</time>
      </trkpt>
      <trkpt lat="43.75476" lon="7.1254">
        <ele>362.20001220703</ele>
        <time>2023-08-02T11:38:51.000Z</time>
      </trkpt>
      <trkpt lat="43.75474" lon="7.12545">
        <ele>362.20001220703</ele>
        <time>2023-08-02T11:38:52.000Z</time>
      </trkpt>
      <trkpt lat="43.75473" lon="7.12549">
        <ele>362.20001220703</ele>
        <time>2023-08-02T11:38:53.000Z</time>
      </trkpt>
      <trkpt lat="43.75472" lon="7.12553">
        <ele>362.20001220703</ele>
        <time>2023-08-02T11:38:54.000Z</time>
      </trkpt>
      <trkpt lat="43.75471" lon="7.12557">
        <ele>362.20001220703</ele>
        <time>2023-08-02T11:38:55.000Z</time>
      </trkpt>
      <trkpt lat="43.75471" lon="7.12562">
        <ele>362.39999389648</ele>
        <time>2023-08-02T11:38:56.000Z</time>
      </trkpt>
      <trkpt lat="43.7547" lon="7.12567">
        <ele>362.39999389648</ele>
        <time>2023-08-02T11:38:57.000Z</time>
      </trkpt>
      <trkpt lat="43.7547" lon="7.12571">
        <ele>362.39999389648</ele>
        <time>2023-08-02T11:38:58.000Z</time>
      </trkpt>
      <trkpt lat="43.7547" lon="7.12575">
        <ele>362.39999389648</ele>
        <time>2023-08-02T11:38:59.000Z</time>
      </trkpt>
      <trkpt lat="43.75469" lon="7.12579">
        <ele>362.39999389648</ele>
        <time>2023-08-02T11:39:00.000Z</time>
      </trkpt>
      <trkpt lat="43.75467" lon="7.12582">
        <ele>362.39999389648</ele>
        <time>2023-08-02T11:39:01.000Z</time>
      </trkpt>
      <trkpt lat="43.75465" lon="7.12586">
        <ele>362.39999389648</ele>
        <time>2023-08-02T11:39:02.000Z</time>
      </trkpt>
      <trkpt lat="43.75463" lon="7.12589">
        <ele>362.60000610352</ele>
        <time>2023-08-02T11:39:03.000Z</time>
      </trkpt>
      <trkpt lat="43.75461" lon="7.12592">
        <ele>362.60000610352</ele>
        <time>2023-08-02T11:39:04.000Z</time>
      </trkpt>
      <trkpt lat="43.75458" lon="7.12595">
        <ele>362.60000610352</ele>
        <time>2023-08-02T11:39:05.000Z</time>
      </trkpt>
      <trkpt lat="43.75456" lon="7.12598">
        <ele>362.39999389648</ele>
        <time>2023-08-02T11:39:06.000Z</time>
      </trkpt>
      <trkpt lat="43.75454" lon="7.12601">
        <ele>362.39999389648</ele>
        <time>2023-08-02T11:39:07.000Z</time>
      </trkpt>
      <trkpt lat="43.75452" lon="7.12605">
        <ele>362.60000610352</ele>
        <time>2023-08-02T11:39:08.000Z</time>
      </trkpt>
      <trkpt lat="43.75449" lon="7.12609">
        <ele>362.20001220703</ele>
        <time>2023-08-02T11:39:09.000Z</time>
      </trkpt>
      <trkpt lat="43.75446" lon="7.12612">
        <ele>362.20001220703</ele>
        <time>2023-08-02T11:39:10.000Z</time>
      </trkpt>
      <trkpt lat="43.75444" lon="7.12616">
        <ele>362.20001220703</ele>
        <time>2023-08-02T11:39:11.000Z</time>
      </trkpt>
      <trkpt lat="43.75441" lon="7.12619">
        <ele>362.60000610352</ele>
        <time>2023-08-02T11:39:12.000Z</time>
      </trkpt>
      <trkpt lat="43.75439" lon="7.12622">
        <ele>362.60000610352</ele>
        <time>2023-08-02T11:39:13.000Z</time>
      </trkpt>
      <trkpt lat="43.75437" lon="7.12625">
        <ele>362.60000610352</ele>
        <time>2023-08-02T11:39:14.000Z</time>
      </trkpt>
      <trkpt lat="43.75435" lon="7.12628">
        <ele>362.60000610352</ele>
        <time>2023-08-02T11:39:15.000Z</time>
      </trkpt>
      <trkpt lat="43.75434" lon="7.12632">
        <ele>362.60000610352</ele>
        <time>2023-08-02T11:39:16.000Z</time>
      </trkpt>
      <trkpt lat="43.75432" lon="7.12635">
        <ele>362.79998779297</ele>
        <time>2023-08-02T11:39:17.000Z</time>
      </trkpt>
      <trkpt lat="43.75431" lon="7.12639">
        <ele>362.79998779297</ele>
        <time>2023-08-02T11:39:18.000Z</time>
      </trkpt>
      <trkpt lat="43.7543" lon="7.12643">
        <ele>362.79998779297</ele>
        <time>2023-08-02T11:39:19.000Z</time>
      </trkpt>
      <trkpt lat="43.75429" lon="7.12646">
        <ele>362.79998779297</ele>
        <time>2023-08-02T11:39:20.000Z</time>
      </trkpt>
      <trkpt lat="43.75428" lon="7.1265">
        <ele>362.79998779297</ele>
        <time>2023-08-02T11:39:21.000Z</time>
      </trkpt>
      <trkpt lat="43.75427" lon="7.12653">
        <ele>362.79998779297</ele>
        <time>2023-08-02T11:39:22.000Z</time>
      </trkpt>
      <trkpt lat="43.75427" lon="7.12658">
        <ele>362.79998779297</ele>
        <time>2023-08-02T11:39:23.000Z</time>
      </trkpt>
      <trkpt lat="43.75426" lon="7.12662">
        <ele>362.79998779297</ele>
        <time>2023-08-02T11:39:24.000Z</time>
      </trkpt>
      <trkpt lat="43.75425" lon="7.12666">
        <ele>362.79998779297</ele>
        <time>2023-08-02T11:39:25.000Z</time>
      </trkpt>
      <trkpt lat="43.75424" lon="7.1267">
        <ele>362.79998779297</ele>
        <time>2023-08-02T11:39:26.000Z</time>
      </trkpt>
      <trkpt lat="43.75423" lon="7.12674">
        <ele>362.79998779297</ele>
        <time>2023-08-02T11:39:27.000Z</time>
      </trkpt>
      <trkpt lat="43.75422" lon="7.12679">
        <ele>362.79998779297</ele>
        <time>2023-08-02T11:39:28.000Z</time>
      </trkpt>
      <trkpt lat="43.75421" lon="7.12682">
        <ele>362.79998779297</ele>
        <time>2023-08-02T11:39:29.000Z</time>
      </trkpt>
      <trkpt lat="43.7542" lon="7.12686">
        <ele>362.79998779297</ele>
        <time>2023-08-02T11:39:30.000Z</time>
      </trkpt>
      <trkpt lat="43.75419" lon="7.1269">
        <ele>362.60000610352</ele>
        <time>2023-08-02T11:39:31.000Z</time>
      </trkpt>
      <trkpt lat="43.75418" lon="7.12694">
        <ele>362.60000610352</ele>
        <time>2023-08-02T11:39:32.000Z</time>
      </trkpt>
      <trkpt lat="43.75418" lon="7.12698">
        <ele>362.60000610352</ele>
        <time>2023-08-02T11:39:33.000Z</time>
      </trkpt>
      <trkpt lat="43.75417" lon="7.12701">
        <ele>362.60000610352</ele>
        <time>2023-08-02T11:39:34.000Z</time>
      </trkpt>
      <trkpt lat="43.75415" lon="7.12705">
        <ele>362.39999389648</ele>
        <time>2023-08-02T11:39:35.000Z</time>
      </trkpt>
      <trkpt lat="43.75414" lon="7.12709">
        <ele>362.39999389648</ele>
        <time>2023-08-02T11:39:36.000Z</time>
      </trkpt>
      <trkpt lat="43.75413" lon="7.12714">
        <ele>362.39999389648</ele>
        <time>2023-08-02T11:39:37.000Z</time>
      </trkpt>
      <trkpt lat="43.75413" lon="7.12718">
        <ele>362.39999389648</ele>
        <time>2023-08-02T11:39:38.000Z</time>
      </trkpt>
      <trkpt lat="43.75412" lon="7.12722">
        <ele>362.39999389648</ele>
        <time>2023-08-02T11:39:39.000Z</time>
      </trkpt>
      <trkpt lat="43.75411" lon="7.12726">
        <ele>362.39999389648</ele>
        <time>2023-08-02T11:39:40.000Z</time>
      </trkpt>
      <trkpt lat="43.7541" lon="7.12731">
        <ele>362.39999389648</ele>
        <time>2023-08-02T11:39:41.000Z</time>
      </trkpt>
      <trkpt lat="43.7541" lon="7.12736">
        <ele>362</ele>
        <time>2023-08-02T11:39:42.000Z</time>
      </trkpt>
      <trkpt lat="43.7541" lon="7.12741">
        <ele>361.79998779297</ele>
        <time>2023-08-02T11:39:43.000Z</time>
      </trkpt>
      <trkpt lat="43.75408" lon="7.12746">
        <ele>361.60000610352</ele>
        <time>2023-08-02T11:39:44.000Z</time>
      </trkpt>
      <trkpt lat="43.75405" lon="7.1275">
        <ele>361</ele>
        <time>2023-08-02T11:39:45.000Z</time>
      </trkpt>
      <trkpt lat="43.75402" lon="7.12753">
        <ele>360.79998779297</ele>
        <time>2023-08-02T11:39:46.000Z</time>
      </trkpt>
      <trkpt lat="43.75398" lon="7.12755">
        <ele>360.79998779297</ele>
        <time>2023-08-02T11:39:47.000Z</time>
      </trkpt>
      <trkpt lat="43.75396" lon="7.1276">
        <ele>360.60000610352</ele>
        <time>2023-08-02T11:39:48.000Z</time>
      </trkpt>
      <trkpt lat="43.75395" lon="7.12764">
        <ele>360.60000610352</ele>
        <time>2023-08-02T11:39:49.000Z</time>
      </trkpt>
      <trkpt lat="43.75393" lon="7.12769">
        <ele>360.60000610352</ele>
        <time>2023-08-02T11:39:50.000Z</time>
      </trkpt>
      <trkpt lat="43.75391" lon="7.12775">
        <ele>360.60000610352</ele>
        <time>2023-08-02T11:39:51.000Z</time>
      </trkpt>
      <trkpt lat="43.75389" lon="7.12779">
        <ele>360.39999389648</ele>
        <time>2023-08-02T11:39:52.000Z</time>
      </trkpt>
      <trkpt lat="43.75387" lon="7.12784">
        <ele>360.39999389648</ele>
        <time>2023-08-02T11:39:53.000Z</time>
      </trkpt>
      <trkpt lat="43.75385" lon="7.12789">
        <ele>360.20001220703</ele>
        <time>2023-08-02T11:39:54.000Z</time>
      </trkpt>
      <trkpt lat="43.75383" lon="7.12794">
        <ele>360</ele>
        <time>2023-08-02T11:39:55.000Z</time>
      </trkpt>
      <trkpt lat="43.75381" lon="7.12798">
        <ele>360</ele>
        <time>2023-08-02T11:39:56.000Z</time>
      </trkpt>
      <trkpt lat="43.75379" lon="7.12803">
        <ele>359.60000610352</ele>
        <time>2023-08-02T11:39:57.000Z</time>
      </trkpt>
      <trkpt lat="43.75377" lon="7.12809">
        <ele>359.60000610352</ele>
        <time>2023-08-02T11:39:58.000Z</time>
      </trkpt>
      <trkpt lat="43.75375" lon="7.12814">
        <ele>359.39999389648</ele>
        <time>2023-08-02T11:39:59.000Z</time>
      </trkpt>
      <trkpt lat="43.75372" lon="7.12819">
        <ele>359.20001220703</ele>
        <time>2023-08-02T11:40:00.000Z</time>
      </trkpt>
      <trkpt lat="43.7537" lon="7.12824">
        <ele>359.20001220703</ele>
        <time>2023-08-02T11:40:01.000Z</time>
      </trkpt>
      <trkpt lat="43.75368" lon="7.12828">
        <ele>359</ele>
        <time>2023-08-02T11:40:02.000Z</time>
      </trkpt>
      <trkpt lat="43.75365" lon="7.12831">
        <ele>359</ele>
        <time>2023-08-02T11:40:03.000Z</time>
      </trkpt>
      <trkpt lat="43.75362" lon="7.12835">
        <ele>359</ele>
        <time>2023-08-02T11:40:04.000Z</time>
      </trkpt>
      <trkpt lat="43.75359" lon="7.12839">
        <ele>359</ele>
        <time>2023-08-02T11:40:05.000Z</time>
      </trkpt>
      <trkpt lat="43.75356" lon="7.12842">
        <ele>359</ele>
        <time>2023-08-02T11:40:06.000Z</time>
      </trkpt>
      <trkpt lat="43.75353" lon="7.12845">
        <ele>359</ele>
        <time>2023-08-02T11:40:07.000Z</time>
      </trkpt>
      <trkpt lat="43.7535" lon="7.12848">
        <ele>358.79998779297</ele>
        <time>2023-08-02T11:40:08.000Z</time>
      </trkpt>
      <trkpt lat="43.75347" lon="7.12851">
        <ele>358.79998779297</ele>
        <time>2023-08-02T11:40:09.000Z</time>
      </trkpt>
      <trkpt lat="43.75344" lon="7.12855">
        <ele>358.79998779297</ele>
        <time>2023-08-02T11:40:10.000Z</time>
      </trkpt>
      <trkpt lat="43.75343" lon="7.12859">
        <ele>358.79998779297</ele>
        <time>2023-08-02T11:40:11.000Z</time>
      </trkpt>
      <trkpt lat="43.75341" lon="7.12863">
        <ele>358.79998779297</ele>
        <time>2023-08-02T11:40:12.000Z</time>
      </trkpt>
      <trkpt lat="43.7534" lon="7.12867">
        <ele>358.79998779297</ele>
        <time>2023-08-02T11:40:13.000Z</time>
      </trkpt>
      <trkpt lat="43.75339" lon="7.12871">
        <ele>358.79998779297</ele>
        <time>2023-08-02T11:40:14.000Z</time>
      </trkpt>
      <trkpt lat="43.75338" lon="7.12875">
        <ele>358.79998779297</ele>
        <time>2023-08-02T11:40:15.000Z</time>
      </trkpt>
      <trkpt lat="43.75337" lon="7.1288">
        <ele>358.79998779297</ele>
        <time>2023-08-02T11:40:16.000Z</time>
      </trkpt>
      <trkpt lat="43.75336" lon="7.12884">
        <ele>358.79998779297</ele>
        <time>2023-08-02T11:40:17.000Z</time>
      </trkpt>
      <trkpt lat="43.75336" lon="7.12889">
        <ele>358.79998779297</ele>
        <time>2023-08-02T11:40:18.000Z</time>
      </trkpt>
      <trkpt lat="43.75335" lon="7.12894">
        <ele>358.79998779297</ele>
        <time>2023-08-02T11:40:19.000Z</time>
      </trkpt>
      <trkpt lat="43.75334" lon="7.12898">
        <ele>358.79998779297</ele>
        <time>2023-08-02T11:40:20.000Z</time>
      </trkpt>
      <trkpt lat="43.75334" lon="7.12902">
        <ele>358.79998779297</ele>
        <time>2023-08-02T11:40:21.000Z</time>
      </trkpt>
      <trkpt lat="43.75333" lon="7.12907">
        <ele>358.79998779297</ele>
        <time>2023-08-02T11:40:22.000Z</time>
      </trkpt>
      <trkpt lat="43.75332" lon="7.12911">
        <ele>358.60000610352</ele>
        <time>2023-08-02T11:40:23.000Z</time>
      </trkpt>
      <trkpt lat="43.75331" lon="7.12915">
        <ele>358.60000610352</ele>
        <time>2023-08-02T11:40:24.000Z</time>
      </trkpt>
      <trkpt lat="43.7533" lon="7.12919">
        <ele>358.39999389648</ele>
        <time>2023-08-02T11:40:25.000Z</time>
      </trkpt>
      <trkpt lat="43.75327" lon="7.12924">
        <ele>358.39999389648</ele>
        <time>2023-08-02T11:40:26.000Z</time>
      </trkpt>
      <trkpt lat="43.75324" lon="7.12928">
        <ele>358.39999389648</ele>
        <time>2023-08-02T11:40:27.000Z</time>
      </trkpt>
      <trkpt lat="43.75321" lon="7.1293">
        <ele>358.20001220703</ele>
        <time>2023-08-02T11:40:28.000Z</time>
      </trkpt>
      <trkpt lat="43.75317" lon="7.12931">
        <ele>358.20001220703</ele>
        <time>2023-08-02T11:40:29.000Z</time>
      </trkpt>
      <trkpt lat="43.75314" lon="7.12934">
        <ele>358</ele>
        <time>2023-08-02T11:40:30.000Z</time>
      </trkpt>
      <trkpt lat="43.75312" lon="7.12937">
        <ele>358</ele>
        <time>2023-08-02T11:40:31.000Z</time>
      </trkpt>
      <trkpt lat="43.7531" lon="7.12941">
        <ele>357.79998779297</ele>
        <time>2023-08-02T11:40:32.000Z</time>
      </trkpt>
      <trkpt lat="43.75309" lon="7.12946">
        <ele>357.79998779297</ele>
        <time>2023-08-02T11:40:33.000Z</time>
      </trkpt>
      <trkpt lat="43.75307" lon="7.12951">
        <ele>357.79998779297</ele>
        <time>2023-08-02T11:40:34.000Z</time>
      </trkpt>
      <trkpt lat="43.75305" lon="7.12955">
        <ele>357.20001220703</ele>
        <time>2023-08-02T11:40:35.000Z</time>
      </trkpt>
      <trkpt lat="43.75303" lon="7.12959">
        <ele>357.20001220703</ele>
        <time>2023-08-02T11:40:36.000Z</time>
      </trkpt>
      <trkpt lat="43.75299" lon="7.12962">
        <ele>357</ele>
        <time>2023-08-02T11:40:37.000Z</time>
      </trkpt>
      <trkpt lat="43.75294" lon="7.12962">
        <ele>357</ele>
        <time>2023-08-02T11:40:38.000Z</time>
      </trkpt>
      <trkpt lat="43.75289" lon="7.12962">
        <ele>356.79998779297</ele>
        <time>2023-08-02T11:40:39.000Z</time>
      </trkpt>
      <trkpt lat="43.75284" lon="7.12961">
        <ele>356.79998779297</ele>
        <time>2023-08-02T11:40:40.000Z</time>
      </trkpt>
      <trkpt lat="43.75278" lon="7.12958">
        <ele>356.79998779297</ele>
        <time>2023-08-02T11:40:41.000Z</time>
      </trkpt>
      <trkpt lat="43.75272" lon="7.12956">
        <ele>356.39999389648</ele>
        <time>2023-08-02T11:40:42.000Z</time>
      </trkpt>
      <trkpt lat="43.75267" lon="7.12954">
        <ele>356</ele>
        <time>2023-08-02T11:40:43.000Z</time>
      </trkpt>
      <trkpt lat="43.7526" lon="7.12952">
        <ele>355.79998779297</ele>
        <time>2023-08-02T11:40:44.000Z</time>
      </trkpt>
      <trkpt lat="43.75253" lon="7.12951">
        <ele>355</ele>
        <time>2023-08-02T11:40:45.000Z</time>
      </trkpt>
      <trkpt lat="43.75247" lon="7.12949">
        <ele>354.60000610352</ele>
        <time>2023-08-02T11:40:46.000Z</time>
      </trkpt>
      <trkpt lat="43.75242" lon="7.12944">
        <ele>353.79998779297</ele>
        <time>2023-08-02T11:40:47.000Z</time>
      </trkpt>
      <trkpt lat="43.75236" lon="7.12938">
        <ele>353</ele>
        <time>2023-08-02T11:40:48.000Z</time>
      </trkpt>
      <trkpt lat="43.75231" lon="7.12933">
        <ele>352.60000610352</ele>
        <time>2023-08-02T11:40:49.000Z</time>
      </trkpt>
      <trkpt lat="43.75224" lon="7.1293">
        <ele>352.20001220703</ele>
        <time>2023-08-02T11:40:50.000Z</time>
      </trkpt>
      <trkpt lat="43.75217" lon="7.12929">
        <ele>351.20001220703</ele>
        <time>2023-08-02T11:40:51.000Z</time>
      </trkpt>
      <trkpt lat="43.7521" lon="7.12929">
        <ele>350.79998779297</ele>
        <time>2023-08-02T11:40:52.000Z</time>
      </trkpt>
      <trkpt lat="43.75203" lon="7.1293">
        <ele>350.39999389648</ele>
        <time>2023-08-02T11:40:53.000Z</time>
      </trkpt>
      <trkpt lat="43.75197" lon="7.12933">
        <ele>349.39999389648</ele>
        <time>2023-08-02T11:40:54.000Z</time>
      </trkpt>
      <trkpt lat="43.75191" lon="7.12938">
        <ele>348.79998779297</ele>
        <time>2023-08-02T11:40:55.000Z</time>
      </trkpt>
      <trkpt lat="43.75186" lon="7.12944">
        <ele>348.39999389648</ele>
        <time>2023-08-02T11:40:56.000Z</time>
      </trkpt>
      <trkpt lat="43.75181" lon="7.12951">
        <ele>348</ele>
        <time>2023-08-02T11:40:57.000Z</time>
      </trkpt>
      <trkpt lat="43.75178" lon="7.12958">
        <ele>347.39999389648</ele>
        <time>2023-08-02T11:40:58.000Z</time>
      </trkpt>
      <trkpt lat="43.75174" lon="7.12967">
        <ele>346</ele>
        <time>2023-08-02T11:40:59.000Z</time>
      </trkpt>
      <trkpt lat="43.75169" lon="7.12975">
        <ele>345.60000610352</ele>
        <time>2023-08-02T11:41:00.000Z</time>
      </trkpt>
      <trkpt lat="43.75164" lon="7.12983">
        <ele>345.39999389648</ele>
        <time>2023-08-02T11:41:01.000Z</time>
      </trkpt>
      <trkpt lat="43.7516" lon="7.12989">
        <ele>344.39999389648</ele>
        <time>2023-08-02T11:41:02.000Z</time>
      </trkpt>
      <trkpt lat="43.75155" lon="7.12994">
        <ele>344</ele>
        <time>2023-08-02T11:41:03.000Z</time>
      </trkpt>
      <trkpt lat="43.7515" lon="7.12995">
        <ele>343.20001220703</ele>
        <time>2023-08-02T11:41:04.000Z</time>
      </trkpt>
      <trkpt lat="43.75145" lon="7.12994">
        <ele>343</ele>
        <time>2023-08-02T11:41:05.000Z</time>
      </trkpt>
      <trkpt lat="43.7514" lon="7.12991">
        <ele>342.20001220703</ele>
        <time>2023-08-02T11:41:06.000Z</time>
      </trkpt>
      <trkpt lat="43.75135" lon="7.12988">
        <ele>342.20001220703</ele>
        <time>2023-08-02T11:41:07.000Z</time>
      </trkpt>
      <trkpt lat="43.75129" lon="7.12983">
        <ele>342</ele>
        <time>2023-08-02T11:41:08.000Z</time>
      </trkpt>
      <trkpt lat="43.75123" lon="7.12979">
        <ele>341.39999389648</ele>
        <time>2023-08-02T11:41:09.000Z</time>
      </trkpt>
      <trkpt lat="43.75116" lon="7.12977">
        <ele>340.79998779297</ele>
        <time>2023-08-02T11:41:10.000Z</time>
      </trkpt>
      <trkpt lat="43.7511" lon="7.12979">
        <ele>340.20001220703</ele>
        <time>2023-08-02T11:41:11.000Z</time>
      </trkpt>
      <trkpt lat="43.75104" lon="7.12982">
        <ele>339.60000610352</ele>
        <time>2023-08-02T11:41:12.000Z</time>
      </trkpt>
      <trkpt lat="43.75098" lon="7.12986">
        <ele>339.20001220703</ele>
        <time>2023-08-02T11:41:13.000Z</time>
      </trkpt>
      <trkpt lat="43.75091" lon="7.12991">
        <ele>338.39999389648</ele>
        <time>2023-08-02T11:41:14.000Z</time>
      </trkpt>
      <trkpt lat="43.75085" lon="7.12996">
        <ele>338.39999389648</ele>
        <time>2023-08-02T11:41:15.000Z</time>
      </trkpt>
      <trkpt lat="43.75079" lon="7.13001">
        <ele>338.20001220703</ele>
        <time>2023-08-02T11:41:16.000Z</time>
      </trkpt>
      <trkpt lat="43.75073" lon="7.13006">
        <ele>337.39999389648</ele>
        <time>2023-08-02T11:41:17.000Z</time>
      </trkpt>
      <trkpt lat="43.75068" lon="7.13009">
        <ele>337.20001220703</ele>
        <time>2023-08-02T11:41:18.000Z</time>
      </trkpt>
      <trkpt lat="43.75064" lon="7.13012">
        <ele>336.79998779297</ele>
        <time>2023-08-02T11:41:19.000Z</time>
      </trkpt>
      <trkpt lat="43.75058" lon="7.13013">
        <ele>336.60000610352</ele>
        <time>2023-08-02T11:41:20.000Z</time>
      </trkpt>
      <trkpt lat="43.75053" lon="7.13014">
        <ele>336</ele>
        <time>2023-08-02T11:41:21.000Z</time>
      </trkpt>
      <trkpt lat="43.75047" lon="7.13013">
        <ele>335.20001220703</ele>
        <time>2023-08-02T11:41:22.000Z</time>
      </trkpt>
      <trkpt lat="43.75041" lon="7.13012">
        <ele>335.20001220703</ele>
        <time>2023-08-02T11:41:23.000Z</time>
      </trkpt>
      <trkpt lat="43.75034" lon="7.13009">
        <ele>335.20001220703</ele>
        <time>2023-08-02T11:41:24.000Z</time>
      </trkpt>
      <trkpt lat="43.75029" lon="7.13008">
        <ele>335</ele>
        <time>2023-08-02T11:41:25.000Z</time>
      </trkpt>
      <trkpt lat="43.75023" lon="7.13009">
        <ele>334</ele>
        <time>2023-08-02T11:41:26.000Z</time>
      </trkpt>
      <trkpt lat="43.75017" lon="7.13012">
        <ele>333.60000610352</ele>
        <time>2023-08-02T11:41:27.000Z</time>
      </trkpt>
      <trkpt lat="43.7501" lon="7.13016">
        <ele>332.60000610352</ele>
        <time>2023-08-02T11:41:28.000Z</time>
      </trkpt>
      <trkpt lat="43.75003" lon="7.13022">
        <ele>332.60000610352</ele>
        <time>2023-08-02T11:41:29.000Z</time>
      </trkpt>
      <trkpt lat="43.74996" lon="7.13027">
        <ele>331.60000610352</ele>
        <time>2023-08-02T11:41:30.000Z</time>
      </trkpt>
      <trkpt lat="43.74989" lon="7.13033">
        <ele>331.60000610352</ele>
        <time>2023-08-02T11:41:31.000Z</time>
      </trkpt>
      <trkpt lat="43.74982" lon="7.13038">
        <ele>331.60000610352</ele>
        <time>2023-08-02T11:41:32.000Z</time>
      </trkpt>
      <trkpt lat="43.74975" lon="7.13042">
        <ele>330.39999389648</ele>
        <time>2023-08-02T11:41:33.000Z</time>
      </trkpt>
      <trkpt lat="43.74969" lon="7.13045">
        <ele>329.60000610352</ele>
        <time>2023-08-02T11:41:34.000Z</time>
      </trkpt>
      <trkpt lat="43.74962" lon="7.13048">
        <ele>328.79998779297</ele>
        <time>2023-08-02T11:41:35.000Z</time>
      </trkpt>
      <trkpt lat="43.74957" lon="7.13051">
        <ele>327.79998779297</ele>
        <time>2023-08-02T11:41:36.000Z</time>
      </trkpt>
      <trkpt lat="43.74953" lon="7.13055">
        <ele>326.39999389648</ele>
        <time>2023-08-02T11:41:37.000Z</time>
      </trkpt>
      <trkpt lat="43.74949" lon="7.13058">
        <ele>326.20001220703</ele>
        <time>2023-08-02T11:41:38.000Z</time>
      </trkpt>
      <trkpt lat="43.74946" lon="7.13061">
        <ele>325.39999389648</ele>
        <time>2023-08-02T11:41:39.000Z</time>
      </trkpt>
      <trkpt lat="43.74943" lon="7.13063">
        <ele>324.60000610352</ele>
        <time>2023-08-02T11:41:40.000Z</time>
      </trkpt>
      <trkpt lat="43.74941" lon="7.13064">
        <ele>324.20001220703</ele>
        <time>2023-08-02T11:41:41.000Z</time>
      </trkpt>
      <trkpt lat="43.7494" lon="7.13065">
        <ele>324.20001220703</ele>
        <time>2023-08-02T11:41:42.000Z</time>
      </trkpt>
      <trkpt lat="43.7494" lon="7.13064">
        <ele>324.20001220703</ele>
        <time>2023-08-02T11:41:43.000Z</time>
      </trkpt>
      <trkpt lat="43.7494" lon="7.13065">
        <ele>324</ele>
        <time>2023-08-02T11:41:44.000Z</time>
      </trkpt>
      <trkpt lat="43.7494" lon="7.13065">
        <ele>324</ele>
        <time>2023-08-02T11:41:45.000Z</time>
      </trkpt>
      <trkpt lat="43.7494" lon="7.13065">
        <ele>324</ele>
        <time>2023-08-02T11:41:46.000Z</time>
      </trkpt>
      <trkpt lat="43.74941" lon="7.13065">
        <ele>324</ele>
        <time>2023-08-02T11:41:47.000Z</time>
      </trkpt>
      <trkpt lat="43.74941" lon="7.13065">
        <ele>324</ele>
        <time>2023-08-02T11:41:48.000Z</time>
      </trkpt>
      <trkpt lat="43.74941" lon="7.13065">
        <ele>324</ele>
        <time>2023-08-02T11:41:49.000Z</time>
      </trkpt>
      <trkpt lat="43.74941" lon="7.13065">
        <ele>324</ele>
        <time>2023-08-02T11:41:50.000Z</time>
      </trkpt>
      <trkpt lat="43.74941" lon="7.13065">
        <ele>323.79998779297</ele>
        <time>2023-08-02T11:41:51.000Z</time>
      </trkpt>
      <trkpt lat="43.74941" lon="7.13065">
        <ele>323.39999389648</ele>
        <time>2023-08-02T11:41:52.000Z</time>
      </trkpt>
      <trkpt lat="43.74941" lon="7.13065">
        <ele>323.39999389648</ele>
        <time>2023-08-02T11:41:53.000Z</time>
      </trkpt>
      <trkpt lat="43.74941" lon="7.13065">
        <ele>323.39999389648</ele>
        <time>2023-08-02T11:41:54.000Z</time>
      </trkpt>
      <trkpt lat="43.74941" lon="7.13065">
        <ele>323.20001220703</ele>
        <time>2023-08-02T11:41:55.000Z</time>
      </trkpt>
      <trkpt lat="43.74941" lon="7.13065">
        <ele>323.39999389648</ele>
        <time>2023-08-02T11:41:56.000Z</time>
      </trkpt>
      <trkpt lat="43.74941" lon="7.13065">
        <ele>323.39999389648</ele>
        <time>2023-08-02T11:41:57.000Z</time>
      </trkpt>
      <trkpt lat="43.74941" lon="7.13065">
        <ele>323.39999389648</ele>
        <time>2023-08-02T11:41:58.000Z</time>
      </trkpt>
      <trkpt lat="43.74941" lon="7.13065">
        <ele>323.20001220703</ele>
        <time>2023-08-02T11:41:59.000Z</time>
      </trkpt>
      <trkpt lat="43.74941" lon="7.13065">
        <ele>323.20001220703</ele>
        <time>2023-08-02T11:42:00.000Z</time>
      </trkpt>
      <trkpt lat="43.74941" lon="7.13065">
        <ele>323.20001220703</ele>
        <time>2023-08-02T11:42:01.000Z</time>
      </trkpt>
      <trkpt lat="43.74941" lon="7.13065">
        <ele>323.20001220703</ele>
        <time>2023-08-02T11:42:02.000Z</time>
      </trkpt>
      <trkpt lat="43.74941" lon="7.13065">
        <ele>323</ele>
        <time>2023-08-02T11:42:03.000Z</time>
      </trkpt>
      <trkpt lat="43.74941" lon="7.13065">
        <ele>323</ele>
        <time>2023-08-02T11:42:04.000Z</time>
      </trkpt>
      <trkpt lat="43.74941" lon="7.13065">
        <ele>323</ele>
        <time>2023-08-02T11:42:05.000Z</time>
      </trkpt>
      <trkpt lat="43.74941" lon="7.13065">
        <ele>322.79998779297</ele>
        <time>2023-08-02T11:42:06.000Z</time>
      </trkpt>
      <trkpt lat="43.74941" lon="7.13065">
        <ele>322.79998779297</ele>
        <time>2023-08-02T11:42:07.000Z</time>
      </trkpt>
      <trkpt lat="43.74941" lon="7.13065">
        <ele>322.79998779297</ele>
        <time>2023-08-02T11:42:08.000Z</time>
      </trkpt>
      <trkpt lat="43.74941" lon="7.13065">
        <ele>322.79998779297</ele>
        <time>2023-08-02T11:42:09.000Z</time>
      </trkpt>
      <trkpt lat="43.74941" lon="7.13065">
        <ele>322.79998779297</ele>
        <time>2023-08-02T11:42:10.000Z</time>
      </trkpt>
      <trkpt lat="43.74941" lon="7.13065">
        <ele>322.79998779297</ele>
        <time>2023-08-02T11:42:11.000Z</time>
      </trkpt>
      <trkpt lat="43.74941" lon="7.13065">
        <ele>322.79998779297</ele>
        <time>2023-08-02T11:42:12.000Z</time>
      </trkpt>
      <trkpt lat="43.74941" lon="7.13065">
        <ele>322.60000610352</ele>
        <time>2023-08-02T11:42:13.000Z</time>
      </trkpt>
      <trkpt lat="43.74941" lon="7.13065">
        <ele>322.60000610352</ele>
        <time>2023-08-02T11:42:14.000Z</time>
      </trkpt>
      <trkpt lat="43.74941" lon="7.13065">
        <ele>322.60000610352</ele>
        <time>2023-08-02T11:42:15.000Z</time>
      </trkpt>
      <trkpt lat="43.74941" lon="7.13065">
        <ele>322.39999389648</ele>
        <time>2023-08-02T11:42:16.000Z</time>
      </trkpt>
      <trkpt lat="43.74941" lon="7.13065">
        <ele>322.60000610352</ele>
        <time>2023-08-02T11:42:17.000Z</time>
      </trkpt>
      <trkpt lat="43.74941" lon="7.13065">
        <ele>322.60000610352</ele>
        <time>2023-08-02T11:42:18.000Z</time>
      </trkpt>
      <trkpt lat="43.74941" lon="7.13065">
        <ele>322.60000610352</ele>
        <time>2023-08-02T11:42:19.000Z</time>
      </trkpt>
      <trkpt lat="43.74941" lon="7.13065">
        <ele>322.60000610352</ele>
        <time>2023-08-02T11:42:20.000Z</time>
      </trkpt>
      <trkpt lat="43.74941" lon="7.13065">
        <ele>322.60000610352</ele>
        <time>2023-08-02T11:42:21.000Z</time>
      </trkpt>
      <trkpt lat="43.74941" lon="7.13065">
        <ele>322.60000610352</ele>
        <time>2023-08-02T11:42:22.000Z</time>
      </trkpt>
      <trkpt lat="43.74941" lon="7.13065">
        <ele>322.60000610352</ele>
        <time>2023-08-02T11:42:23.000Z</time>
      </trkpt>
      <trkpt lat="43.74941" lon="7.13065">
        <ele>322.39999389648</ele>
        <time>2023-08-02T11:42:24.000Z</time>
      </trkpt>
      <trkpt lat="43.74941" lon="7.13065">
        <ele>322.39999389648</ele>
        <time>2023-08-02T11:42:25.000Z</time>
      </trkpt>
      <trkpt lat="43.74941" lon="7.13065">
        <ele>322.39999389648</ele>
        <time>2023-08-02T11:42:26.000Z</time>
      </trkpt>
      <trkpt lat="43.7494" lon="7.13065">
        <ele>322.39999389648</ele>
        <time>2023-08-02T11:42:27.000Z</time>
      </trkpt>
      <trkpt lat="43.74938" lon="7.13066">
        <ele>322.39999389648</ele>
        <time>2023-08-02T11:42:28.000Z</time>
      </trkpt>
      <trkpt lat="43.74938" lon="7.13064">
        <ele>322.39999389648</ele>
        <time>2023-08-02T11:42:29.000Z</time>
      </trkpt>
      <trkpt lat="43.74937" lon="7.13063">
        <ele>322.39999389648</ele>
        <time>2023-08-02T11:42:30.000Z</time>
      </trkpt>
      <trkpt lat="43.74936" lon="7.13062">
        <ele>322.20001220703</ele>
        <time>2023-08-02T11:42:31.000Z</time>
      </trkpt>
      <trkpt lat="43.74936" lon="7.13059">
        <ele>322.20001220703</ele>
        <time>2023-08-02T11:42:32.000Z</time>
      </trkpt>
      <trkpt lat="43.74935" lon="7.13057">
        <ele>322.20001220703</ele>
        <time>2023-08-02T11:42:33.000Z</time>
      </trkpt>
      <trkpt lat="43.74934" lon="7.13054">
        <ele>322.20001220703</ele>
        <time>2023-08-02T11:42:34.000Z</time>
      </trkpt>
      <trkpt lat="43.74933" lon="7.13051">
        <ele>322.20001220703</ele>
        <time>2023-08-02T11:42:35.000Z</time>
      </trkpt>
      <trkpt lat="43.74932" lon="7.13048">
        <ele>322</ele>
        <time>2023-08-02T11:42:36.000Z</time>
      </trkpt>
      <trkpt lat="43.74931" lon="7.13044">
        <ele>322</ele>
        <time>2023-08-02T11:42:37.000Z</time>
      </trkpt>
      <trkpt lat="43.7493" lon="7.1304">
        <ele>322</ele>
        <time>2023-08-02T11:42:38.000Z</time>
      </trkpt>
      <trkpt lat="43.74929" lon="7.13036">
        <ele>322</ele>
        <time>2023-08-02T11:42:39.000Z</time>
      </trkpt>
      <trkpt lat="43.74928" lon="7.13031">
        <ele>322</ele>
        <time>2023-08-02T11:42:40.000Z</time>
      </trkpt>
      <trkpt lat="43.74926" lon="7.13027">
        <ele>322</ele>
        <time>2023-08-02T11:42:41.000Z</time>
      </trkpt>
      <trkpt lat="43.74925" lon="7.13022">
        <ele>322</ele>
        <time>2023-08-02T11:42:42.000Z</time>
      </trkpt>
      <trkpt lat="43.74923" lon="7.13017">
        <ele>322</ele>
        <time>2023-08-02T11:42:43.000Z</time>
      </trkpt>
      <trkpt lat="43.74922" lon="7.13013">
        <ele>322.20001220703</ele>
        <time>2023-08-02T11:42:44.000Z</time>
      </trkpt>
      <trkpt lat="43.74921" lon="7.13009">
        <ele>322.20001220703</ele>
        <time>2023-08-02T11:42:45.000Z</time>
      </trkpt>
      <trkpt lat="43.74919" lon="7.13004">
        <ele>322.20001220703</ele>
        <time>2023-08-02T11:42:46.000Z</time>
      </trkpt>
      <trkpt lat="43.74918" lon="7.13">
        <ele>322.20001220703</ele>
        <time>2023-08-02T11:42:47.000Z</time>
      </trkpt>
      <trkpt lat="43.74917" lon="7.12995">
        <ele>322.20001220703</ele>
        <time>2023-08-02T11:42:48.000Z</time>
      </trkpt>
      <trkpt lat="43.74915" lon="7.12991">
        <ele>322.20001220703</ele>
        <time>2023-08-02T11:42:49.000Z</time>
      </trkpt>
      <trkpt lat="43.74914" lon="7.12986">
        <ele>322.20001220703</ele>
        <time>2023-08-02T11:42:50.000Z</time>
      </trkpt>
      <trkpt lat="43.74912" lon="7.12983">
        <ele>322.20001220703</ele>
        <time>2023-08-02T11:42:51.000Z</time>
      </trkpt>
      <trkpt lat="43.74909" lon="7.1298">
        <ele>322.20001220703</ele>
        <time>2023-08-02T11:42:52.000Z</time>
      </trkpt>
      <trkpt lat="43.74907" lon="7.12977">
        <ele>322.20001220703</ele>
        <time>2023-08-02T11:42:53.000Z</time>
      </trkpt>
      <trkpt lat="43.74904" lon="7.12975">
        <ele>322.20001220703</ele>
        <time>2023-08-02T11:42:54.000Z</time>
      </trkpt>
      <trkpt lat="43.74901" lon="7.12973">
        <ele>322.39999389648</ele>
        <time>2023-08-02T11:42:55.000Z</time>
      </trkpt>
      <trkpt lat="43.74899" lon="7.12972">
        <ele>322.39999389648</ele>
        <time>2023-08-02T11:42:56.000Z</time>
      </trkpt>
      <trkpt lat="43.74896" lon="7.12971">
        <ele>322.39999389648</ele>
        <time>2023-08-02T11:42:57.000Z</time>
      </trkpt>
      <trkpt lat="43.74893" lon="7.12971">
        <ele>322.39999389648</ele>
        <time>2023-08-02T11:42:58.000Z</time>
      </trkpt>
      <trkpt lat="43.74889" lon="7.12971">
        <ele>322.39999389648</ele>
        <time>2023-08-02T11:42:59.000Z</time>
      </trkpt>
      <trkpt lat="43.74886" lon="7.12972">
        <ele>322.60000610352</ele>
        <time>2023-08-02T11:43:00.000Z</time>
      </trkpt>
      <trkpt lat="43.74883" lon="7.12974">
        <ele>322.79998779297</ele>
        <time>2023-08-02T11:43:01.000Z</time>
      </trkpt>
      <trkpt lat="43.7488" lon="7.12975">
        <ele>323</ele>
        <time>2023-08-02T11:43:02.000Z</time>
      </trkpt>
      <trkpt lat="43.74876" lon="7.12977">
        <ele>322.79998779297</ele>
        <time>2023-08-02T11:43:03.000Z</time>
      </trkpt>
      <trkpt lat="43.74873" lon="7.12978">
        <ele>323</ele>
        <time>2023-08-02T11:43:04.000Z</time>
      </trkpt>
      <trkpt lat="43.74869" lon="7.1298">
        <ele>323</ele>
        <time>2023-08-02T11:43:05.000Z</time>
      </trkpt>
      <trkpt lat="43.74865" lon="7.12982">
        <ele>323</ele>
        <time>2023-08-02T11:43:06.000Z</time>
      </trkpt>
      <trkpt lat="43.74862" lon="7.12984">
        <ele>323</ele>
        <time>2023-08-02T11:43:07.000Z</time>
      </trkpt>
      <trkpt lat="43.74858" lon="7.12986">
        <ele>323.20001220703</ele>
        <time>2023-08-02T11:43:08.000Z</time>
      </trkpt>
      <trkpt lat="43.74855" lon="7.12988">
        <ele>323.20001220703</ele>
        <time>2023-08-02T11:43:09.000Z</time>
      </trkpt>
      <trkpt lat="43.74851" lon="7.12991">
        <ele>323.39999389648</ele>
        <time>2023-08-02T11:43:10.000Z</time>
      </trkpt>
      <trkpt lat="43.74847" lon="7.12993">
        <ele>323.39999389648</ele>
        <time>2023-08-02T11:43:11.000Z</time>
      </trkpt>
      <trkpt lat="43.74844" lon="7.12996">
        <ele>323.60000610352</ele>
        <time>2023-08-02T11:43:12.000Z</time>
      </trkpt>
      <trkpt lat="43.7484" lon="7.12998">
        <ele>323.60000610352</ele>
        <time>2023-08-02T11:43:13.000Z</time>
      </trkpt>
      <trkpt lat="43.74837" lon="7.12999">
        <ele>323.60000610352</ele>
        <time>2023-08-02T11:43:14.000Z</time>
      </trkpt>
      <trkpt lat="43.74834" lon="7.13001">
        <ele>323.60000610352</ele>
        <time>2023-08-02T11:43:15.000Z</time>
      </trkpt>
      <trkpt lat="43.7483" lon="7.13003">
        <ele>323.60000610352</ele>
        <time>2023-08-02T11:43:16.000Z</time>
      </trkpt>
      <trkpt lat="43.74827" lon="7.13005">
        <ele>323.79998779297</ele>
        <time>2023-08-02T11:43:17.000Z</time>
      </trkpt>
      <trkpt lat="43.74823" lon="7.13007">
        <ele>324</ele>
        <time>2023-08-02T11:43:18.000Z</time>
      </trkpt>
      <trkpt lat="43.7482" lon="7.13008">
        <ele>324</ele>
        <time>2023-08-02T11:43:19.000Z</time>
      </trkpt>
      <trkpt lat="43.74815" lon="7.1301">
        <ele>324</ele>
        <time>2023-08-02T11:43:20.000Z</time>
      </trkpt>
      <trkpt lat="43.74811" lon="7.13011">
        <ele>324.20001220703</ele>
        <time>2023-08-02T11:43:21.000Z</time>
      </trkpt>
      <trkpt lat="43.74807" lon="7.13012">
        <ele>324.20001220703</ele>
        <time>2023-08-02T11:43:22.000Z</time>
      </trkpt>
      <trkpt lat="43.74802" lon="7.13013">
        <ele>324.39999389648</ele>
        <time>2023-08-02T11:43:23.000Z</time>
      </trkpt>
      <trkpt lat="43.74798" lon="7.13014">
        <ele>324.39999389648</ele>
        <time>2023-08-02T11:43:24.000Z</time>
      </trkpt>
      <trkpt lat="43.74794" lon="7.13015">
        <ele>324.39999389648</ele>
        <time>2023-08-02T11:43:25.000Z</time>
      </trkpt>
      <trkpt lat="43.7479" lon="7.13016">
        <ele>324.39999389648</ele>
        <time>2023-08-02T11:43:26.000Z</time>
      </trkpt>
      <trkpt lat="43.74786" lon="7.13017">
        <ele>324.39999389648</ele>
        <time>2023-08-02T11:43:27.000Z</time>
      </trkpt>
      <trkpt lat="43.74782" lon="7.13018">
        <ele>324.60000610352</ele>
        <time>2023-08-02T11:43:28.000Z</time>
      </trkpt>
      <trkpt lat="43.74778" lon="7.13018">
        <ele>324.60000610352</ele>
        <time>2023-08-02T11:43:29.000Z</time>
      </trkpt>
      <trkpt lat="43.74773" lon="7.13019">
        <ele>324.60000610352</ele>
        <time>2023-08-02T11:43:30.000Z</time>
      </trkpt>
      <trkpt lat="43.74769" lon="7.13021">
        <ele>324.79998779297</ele>
        <time>2023-08-02T11:43:31.000Z</time>
      </trkpt>
      <trkpt lat="43.74765" lon="7.13021">
        <ele>324.79998779297</ele>
        <time>2023-08-02T11:43:32.000Z</time>
      </trkpt>
      <trkpt lat="43.74762" lon="7.13022">
        <ele>324.79998779297</ele>
        <time>2023-08-02T11:43:33.000Z</time>
      </trkpt>
      <trkpt lat="43.74757" lon="7.13022">
        <ele>325</ele>
        <time>2023-08-02T11:43:34.000Z</time>
      </trkpt>
      <trkpt lat="43.74753" lon="7.13023">
        <ele>325.20001220703</ele>
        <time>2023-08-02T11:43:35.000Z</time>
      </trkpt>
      <trkpt lat="43.74749" lon="7.13024">
        <ele>325.20001220703</ele>
        <time>2023-08-02T11:43:36.000Z</time>
      </trkpt>
      <trkpt lat="43.74744" lon="7.13025">
        <ele>325.20001220703</ele>
        <time>2023-08-02T11:43:37.000Z</time>
      </trkpt>
      <trkpt lat="43.7474" lon="7.13026">
        <ele>325.39999389648</ele>
        <time>2023-08-02T11:43:38.000Z</time>
      </trkpt>
      <trkpt lat="43.74736" lon="7.13027">
        <ele>325.39999389648</ele>
        <time>2023-08-02T11:43:39.000Z</time>
      </trkpt>
      <trkpt lat="43.74732" lon="7.13027">
        <ele>325.39999389648</ele>
        <time>2023-08-02T11:43:40.000Z</time>
      </trkpt>
      <trkpt lat="43.74728" lon="7.13028">
        <ele>325.39999389648</ele>
        <time>2023-08-02T11:43:41.000Z</time>
      </trkpt>
      <trkpt lat="43.74724" lon="7.13029">
        <ele>325.39999389648</ele>
        <time>2023-08-02T11:43:42.000Z</time>
      </trkpt>
      <trkpt lat="43.7472" lon="7.13031">
        <ele>325.39999389648</ele>
        <time>2023-08-02T11:43:43.000Z</time>
      </trkpt>
      <trkpt lat="43.74717" lon="7.13032">
        <ele>325.60000610352</ele>
        <time>2023-08-02T11:43:44.000Z</time>
      </trkpt>
      <trkpt lat="43.74714" lon="7.13034">
        <ele>325.60000610352</ele>
        <time>2023-08-02T11:43:45.000Z</time>
      </trkpt>
      <trkpt lat="43.7471" lon="7.13036">
        <ele>325.60000610352</ele>
        <time>2023-08-02T11:43:46.000Z</time>
      </trkpt>
      <trkpt lat="43.74706" lon="7.13039">
        <ele>325.60000610352</ele>
        <time>2023-08-02T11:43:47.000Z</time>
      </trkpt>
      <trkpt lat="43.74703" lon="7.13042">
        <ele>325.79998779297</ele>
        <time>2023-08-02T11:43:48.000Z</time>
      </trkpt>
      <trkpt lat="43.747" lon="7.13045">
        <ele>326</ele>
        <time>2023-08-02T11:43:49.000Z</time>
      </trkpt>
      <trkpt lat="43.74696" lon="7.13048">
        <ele>326</ele>
        <time>2023-08-02T11:43:50.000Z</time>
      </trkpt>
      <trkpt lat="43.74693" lon="7.13052">
        <ele>326</ele>
        <time>2023-08-02T11:43:51.000Z</time>
      </trkpt>
      <trkpt lat="43.7469" lon="7.13055">
        <ele>326</ele>
        <time>2023-08-02T11:43:52.000Z</time>
      </trkpt>
      <trkpt lat="43.74686" lon="7.13059">
        <ele>326.20001220703</ele>
        <time>2023-08-02T11:43:53.000Z</time>
      </trkpt>
      <trkpt lat="43.74683" lon="7.13062">
        <ele>326.20001220703</ele>
        <time>2023-08-02T11:43:54.000Z</time>
      </trkpt>
      <trkpt lat="43.7468" lon="7.13066">
        <ele>326.20001220703</ele>
        <time>2023-08-02T11:43:55.000Z</time>
      </trkpt>
      <trkpt lat="43.74676" lon="7.1307">
        <ele>326.20001220703</ele>
        <time>2023-08-02T11:43:56.000Z</time>
      </trkpt>
      <trkpt lat="43.74673" lon="7.13074">
        <ele>326.20001220703</ele>
        <time>2023-08-02T11:43:57.000Z</time>
      </trkpt>
      <trkpt lat="43.7467" lon="7.13079">
        <ele>326.20001220703</ele>
        <time>2023-08-02T11:43:58.000Z</time>
      </trkpt>
      <trkpt lat="43.74667" lon="7.13082">
        <ele>326.20001220703</ele>
        <time>2023-08-02T11:43:59.000Z</time>
      </trkpt>
      <trkpt lat="43.74663" lon="7.13086">
        <ele>326.20001220703</ele>
        <time>2023-08-02T11:44:00.000Z</time>
      </trkpt>
      <trkpt lat="43.7466" lon="7.13089">
        <ele>326.20001220703</ele>
        <time>2023-08-02T11:44:01.000Z</time>
      </trkpt>
      <trkpt lat="43.74656" lon="7.13092">
        <ele>326.20001220703</ele>
        <time>2023-08-02T11:44:02.000Z</time>
      </trkpt>
      <trkpt lat="43.74651" lon="7.13094">
        <ele>326.20001220703</ele>
        <time>2023-08-02T11:44:03.000Z</time>
      </trkpt>
      <trkpt lat="43.74646" lon="7.13096">
        <ele>326.20001220703</ele>
        <time>2023-08-02T11:44:04.000Z</time>
      </trkpt>
      <trkpt lat="43.74641" lon="7.13097">
        <ele>326.20001220703</ele>
        <time>2023-08-02T11:44:05.000Z</time>
      </trkpt>
      <trkpt lat="43.74637" lon="7.13098">
        <ele>326.20001220703</ele>
        <time>2023-08-02T11:44:06.000Z</time>
      </trkpt>
      <trkpt lat="43.74632" lon="7.13099">
        <ele>326.20001220703</ele>
        <time>2023-08-02T11:44:07.000Z</time>
      </trkpt>
      <trkpt lat="43.74627" lon="7.13099">
        <ele>326.20001220703</ele>
        <time>2023-08-02T11:44:08.000Z</time>
      </trkpt>
      <trkpt lat="43.74623" lon="7.13099">
        <ele>326.20001220703</ele>
        <time>2023-08-02T11:44:09.000Z</time>
      </trkpt>
      <trkpt lat="43.74618" lon="7.13098">
        <ele>326.20001220703</ele>
        <time>2023-08-02T11:44:10.000Z</time>
      </trkpt>
      <trkpt lat="43.74614" lon="7.13097">
        <ele>326.20001220703</ele>
        <time>2023-08-02T11:44:11.000Z</time>
      </trkpt>
      <trkpt lat="43.74609" lon="7.13095">
        <ele>326.20001220703</ele>
        <time>2023-08-02T11:44:12.000Z</time>
      </trkpt>
      <trkpt lat="43.74605" lon="7.13093">
        <ele>326.20001220703</ele>
        <time>2023-08-02T11:44:13.000Z</time>
      </trkpt>
      <trkpt lat="43.746" lon="7.13091">
        <ele>326.39999389648</ele>
        <time>2023-08-02T11:44:14.000Z</time>
      </trkpt>
      <trkpt lat="43.74596" lon="7.13089">
        <ele>326.39999389648</ele>
        <time>2023-08-02T11:44:15.000Z</time>
      </trkpt>
      <trkpt lat="43.74592" lon="7.13086">
        <ele>326.60000610352</ele>
        <time>2023-08-02T11:44:16.000Z</time>
      </trkpt>
      <trkpt lat="43.74589" lon="7.13084">
        <ele>326.60000610352</ele>
        <time>2023-08-02T11:44:17.000Z</time>
      </trkpt>
      <trkpt lat="43.74585" lon="7.13081">
        <ele>326.60000610352</ele>
        <time>2023-08-02T11:44:18.000Z</time>
      </trkpt>
      <trkpt lat="43.74582" lon="7.13078">
        <ele>326.79998779297</ele>
        <time>2023-08-02T11:44:19.000Z</time>
      </trkpt>
      <trkpt lat="43.74578" lon="7.13076">
        <ele>326.79998779297</ele>
        <time>2023-08-02T11:44:20.000Z</time>
      </trkpt>
      <trkpt lat="43.74575" lon="7.13074">
        <ele>326.79998779297</ele>
        <time>2023-08-02T11:44:21.000Z</time>
      </trkpt>
      <trkpt lat="43.74571" lon="7.13072">
        <ele>326.79998779297</ele>
        <time>2023-08-02T11:44:22.000Z</time>
      </trkpt>
      <trkpt lat="43.74568" lon="7.1307">
        <ele>327</ele>
        <time>2023-08-02T11:44:23.000Z</time>
      </trkpt>
      <trkpt lat="43.74565" lon="7.13069">
        <ele>327</ele>
        <time>2023-08-02T11:44:24.000Z</time>
      </trkpt>
      <trkpt lat="43.74561" lon="7.13067">
        <ele>327</ele>
        <time>2023-08-02T11:44:25.000Z</time>
      </trkpt>
      <trkpt lat="43.74558" lon="7.13066">
        <ele>327.60000610352</ele>
        <time>2023-08-02T11:44:26.000Z</time>
      </trkpt>
      <trkpt lat="43.74554" lon="7.13066">
        <ele>327.79998779297</ele>
        <time>2023-08-02T11:44:27.000Z</time>
      </trkpt>
      <trkpt lat="43.7455" lon="7.13065">
        <ele>327.79998779297</ele>
        <time>2023-08-02T11:44:28.000Z</time>
      </trkpt>
      <trkpt lat="43.74546" lon="7.13065">
        <ele>327.79998779297</ele>
        <time>2023-08-02T11:44:29.000Z</time>
      </trkpt>
      <trkpt lat="43.74542" lon="7.13065">
        <ele>327.79998779297</ele>
        <time>2023-08-02T11:44:30.000Z</time>
      </trkpt>
      <trkpt lat="43.74539" lon="7.13066">
        <ele>327.79998779297</ele>
        <time>2023-08-02T11:44:31.000Z</time>
      </trkpt>
      <trkpt lat="43.74535" lon="7.13067">
        <ele>327.79998779297</ele>
        <time>2023-08-02T11:44:32.000Z</time>
      </trkpt>
      <trkpt lat="43.74531" lon="7.13068">
        <ele>327.79998779297</ele>
        <time>2023-08-02T11:44:33.000Z</time>
      </trkpt>
      <trkpt lat="43.74527" lon="7.13069">
        <ele>327.79998779297</ele>
        <time>2023-08-02T11:44:34.000Z</time>
      </trkpt>
      <trkpt lat="43.74523" lon="7.1307">
        <ele>327.79998779297</ele>
        <time>2023-08-02T11:44:35.000Z</time>
      </trkpt>
      <trkpt lat="43.74518" lon="7.1307">
        <ele>327.79998779297</ele>
        <time>2023-08-02T11:44:36.000Z</time>
      </trkpt>
      <trkpt lat="43.74514" lon="7.13071">
        <ele>327.79998779297</ele>
        <time>2023-08-02T11:44:37.000Z</time>
      </trkpt>
      <trkpt lat="43.7451" lon="7.13072">
        <ele>327.79998779297</ele>
        <time>2023-08-02T11:44:38.000Z</time>
      </trkpt>
      <trkpt lat="43.74505" lon="7.13072">
        <ele>327.79998779297</ele>
        <time>2023-08-02T11:44:39.000Z</time>
      </trkpt>
      <trkpt lat="43.74501" lon="7.13073">
        <ele>328</ele>
        <time>2023-08-02T11:44:40.000Z</time>
      </trkpt>
      <trkpt lat="43.74496" lon="7.13074">
        <ele>327.79998779297</ele>
        <time>2023-08-02T11:44:41.000Z</time>
      </trkpt>
      <trkpt lat="43.74492" lon="7.13075">
        <ele>327.79998779297</ele>
        <time>2023-08-02T11:44:42.000Z</time>
      </trkpt>
      <trkpt lat="43.74488" lon="7.13075">
        <ele>328</ele>
        <time>2023-08-02T11:44:43.000Z</time>
      </trkpt>
      <trkpt lat="43.74483" lon="7.13076">
        <ele>328</ele>
        <time>2023-08-02T11:44:44.000Z</time>
      </trkpt>
      <trkpt lat="43.74479" lon="7.13076">
        <ele>328</ele>
        <time>2023-08-02T11:44:45.000Z</time>
      </trkpt>
      <trkpt lat="43.74475" lon="7.13077">
        <ele>328</ele>
        <time>2023-08-02T11:44:46.000Z</time>
      </trkpt>
      <trkpt lat="43.74471" lon="7.13078">
        <ele>328.20001220703</ele>
        <time>2023-08-02T11:44:47.000Z</time>
      </trkpt>
      <trkpt lat="43.74467" lon="7.13079">
        <ele>328.39999389648</ele>
        <time>2023-08-02T11:44:48.000Z</time>
      </trkpt>
      <trkpt lat="43.74463" lon="7.1308">
        <ele>328.39999389648</ele>
        <time>2023-08-02T11:44:49.000Z</time>
      </trkpt>
      <trkpt lat="43.74459" lon="7.13081">
        <ele>328.60000610352</ele>
        <time>2023-08-02T11:44:50.000Z</time>
      </trkpt>
      <trkpt lat="43.74456" lon="7.13083">
        <ele>328.60000610352</ele>
        <time>2023-08-02T11:44:51.000Z</time>
      </trkpt>
      <trkpt lat="43.74452" lon="7.13084">
        <ele>328.79998779297</ele>
        <time>2023-08-02T11:44:52.000Z</time>
      </trkpt>
      <trkpt lat="43.74448" lon="7.13086">
        <ele>328.79998779297</ele>
        <time>2023-08-02T11:44:53.000Z</time>
      </trkpt>
      <trkpt lat="43.74444" lon="7.13088">
        <ele>329</ele>
        <time>2023-08-02T11:44:54.000Z</time>
      </trkpt>
      <trkpt lat="43.7444" lon="7.13091">
        <ele>329</ele>
        <time>2023-08-02T11:44:55.000Z</time>
      </trkpt>
      <trkpt lat="43.74435" lon="7.13093">
        <ele>329</ele>
        <time>2023-08-02T11:44:56.000Z</time>
      </trkpt>
      <trkpt lat="43.7443" lon="7.13096">
        <ele>329</ele>
        <time>2023-08-02T11:44:57.000Z</time>
      </trkpt>
      <trkpt lat="43.74426" lon="7.13098">
        <ele>329</ele>
        <time>2023-08-02T11:44:58.000Z</time>
      </trkpt>
      <trkpt lat="43.7442" lon="7.131">
        <ele>329</ele>
        <time>2023-08-02T11:44:59.000Z</time>
      </trkpt>
      <trkpt lat="43.74416" lon="7.13102">
        <ele>329</ele>
        <time>2023-08-02T11:45:00.000Z</time>
      </trkpt>
      <trkpt lat="43.74411" lon="7.13103">
        <ele>329</ele>
        <time>2023-08-02T11:45:01.000Z</time>
      </trkpt>
      <trkpt lat="43.74406" lon="7.13103">
        <ele>329</ele>
        <time>2023-08-02T11:45:02.000Z</time>
      </trkpt>
      <trkpt lat="43.74402" lon="7.13103">
        <ele>329</ele>
        <time>2023-08-02T11:45:03.000Z</time>
      </trkpt>
      <trkpt lat="43.74397" lon="7.13103">
        <ele>329</ele>
        <time>2023-08-02T11:45:04.000Z</time>
      </trkpt>
      <trkpt lat="43.74393" lon="7.13103">
        <ele>329.20001220703</ele>
        <time>2023-08-02T11:45:05.000Z</time>
      </trkpt>
      <trkpt lat="43.7439" lon="7.13103">
        <ele>329.20001220703</ele>
        <time>2023-08-02T11:45:06.000Z</time>
      </trkpt>
      <trkpt lat="43.74386" lon="7.13104">
        <ele>329.20001220703</ele>
        <time>2023-08-02T11:45:07.000Z</time>
      </trkpt>
      <trkpt lat="43.74382" lon="7.13105">
        <ele>329.39999389648</ele>
        <time>2023-08-02T11:45:08.000Z</time>
      </trkpt>
      <trkpt lat="43.74378" lon="7.13106">
        <ele>329.60000610352</ele>
        <time>2023-08-02T11:45:09.000Z</time>
      </trkpt>
      <trkpt lat="43.74373" lon="7.13108">
        <ele>329.60000610352</ele>
        <time>2023-08-02T11:45:10.000Z</time>
      </trkpt>
      <trkpt lat="43.74369" lon="7.13109">
        <ele>329.60000610352</ele>
        <time>2023-08-02T11:45:11.000Z</time>
      </trkpt>
      <trkpt lat="43.74366" lon="7.13111">
        <ele>329.79998779297</ele>
        <time>2023-08-02T11:45:12.000Z</time>
      </trkpt>
      <trkpt lat="43.74362" lon="7.13114">
        <ele>329.79998779297</ele>
        <time>2023-08-02T11:45:13.000Z</time>
      </trkpt>
      <trkpt lat="43.74359" lon="7.13116">
        <ele>329.79998779297</ele>
        <time>2023-08-02T11:45:14.000Z</time>
      </trkpt>
      <trkpt lat="43.74355" lon="7.13119">
        <ele>329.79998779297</ele>
        <time>2023-08-02T11:45:15.000Z</time>
      </trkpt>
      <trkpt lat="43.74352" lon="7.13122">
        <ele>329.79998779297</ele>
        <time>2023-08-02T11:45:16.000Z</time>
      </trkpt>
      <trkpt lat="43.74349" lon="7.13126">
        <ele>329.79998779297</ele>
        <time>2023-08-02T11:45:17.000Z</time>
      </trkpt>
      <trkpt lat="43.74346" lon="7.1313">
        <ele>330.20001220703</ele>
        <time>2023-08-02T11:45:18.000Z</time>
      </trkpt>
      <trkpt lat="43.74343" lon="7.13134">
        <ele>330.20001220703</ele>
        <time>2023-08-02T11:45:19.000Z</time>
      </trkpt>
      <trkpt lat="43.7434" lon="7.13139">
        <ele>330.20001220703</ele>
        <time>2023-08-02T11:45:20.000Z</time>
      </trkpt>
      <trkpt lat="43.74338" lon="7.13144">
        <ele>330.39999389648</ele>
        <time>2023-08-02T11:45:21.000Z</time>
      </trkpt>
      <trkpt lat="43.74335" lon="7.1315">
        <ele>330.39999389648</ele>
        <time>2023-08-02T11:45:22.000Z</time>
      </trkpt>
      <trkpt lat="43.74334" lon="7.13155">
        <ele>330.39999389648</ele>
        <time>2023-08-02T11:45:23.000Z</time>
      </trkpt>
      <trkpt lat="43.74332" lon="7.1316">
        <ele>330.39999389648</ele>
        <time>2023-08-02T11:45:24.000Z</time>
      </trkpt>
      <trkpt lat="43.74331" lon="7.13165">
        <ele>330.39999389648</ele>
        <time>2023-08-02T11:45:25.000Z</time>
      </trkpt>
      <trkpt lat="43.7433" lon="7.1317">
        <ele>330.39999389648</ele>
        <time>2023-08-02T11:45:26.000Z</time>
      </trkpt>
      <trkpt lat="43.74329" lon="7.13176">
        <ele>330.60000610352</ele>
        <time>2023-08-02T11:45:27.000Z</time>
      </trkpt>
      <trkpt lat="43.74328" lon="7.13181">
        <ele>330.60000610352</ele>
        <time>2023-08-02T11:45:28.000Z</time>
      </trkpt>
      <trkpt lat="43.74327" lon="7.13187">
        <ele>330.60000610352</ele>
        <time>2023-08-02T11:45:29.000Z</time>
      </trkpt>
      <trkpt lat="43.74326" lon="7.13193">
        <ele>330.60000610352</ele>
        <time>2023-08-02T11:45:30.000Z</time>
      </trkpt>
      <trkpt lat="43.74324" lon="7.13199">
        <ele>330.60000610352</ele>
        <time>2023-08-02T11:45:31.000Z</time>
      </trkpt>
      <trkpt lat="43.74323" lon="7.13205">
        <ele>330.79998779297</ele>
        <time>2023-08-02T11:45:32.000Z</time>
      </trkpt>
      <trkpt lat="43.74321" lon="7.1321">
        <ele>330.79998779297</ele>
        <time>2023-08-02T11:45:33.000Z</time>
      </trkpt>
      <trkpt lat="43.74319" lon="7.13216">
        <ele>330.79998779297</ele>
        <time>2023-08-02T11:45:34.000Z</time>
      </trkpt>
      <trkpt lat="43.74317" lon="7.13221">
        <ele>330.79998779297</ele>
        <time>2023-08-02T11:45:35.000Z</time>
      </trkpt>
      <trkpt lat="43.74315" lon="7.13227">
        <ele>330.79998779297</ele>
        <time>2023-08-02T11:45:36.000Z</time>
      </trkpt>
      <trkpt lat="43.74312" lon="7.13231">
        <ele>330.79998779297</ele>
        <time>2023-08-02T11:45:37.000Z</time>
      </trkpt>
      <trkpt lat="43.7431" lon="7.13236">
        <ele>330.79998779297</ele>
        <time>2023-08-02T11:45:38.000Z</time>
      </trkpt>
      <trkpt lat="43.74306" lon="7.1324">
        <ele>330.79998779297</ele>
        <time>2023-08-02T11:45:39.000Z</time>
      </trkpt>
      <trkpt lat="43.74303" lon="7.13243">
        <ele>330.79998779297</ele>
        <time>2023-08-02T11:45:40.000Z</time>
      </trkpt>
      <trkpt lat="43.74298" lon="7.13245">
        <ele>330.79998779297</ele>
        <time>2023-08-02T11:45:41.000Z</time>
      </trkpt>
      <trkpt lat="43.74294" lon="7.13247">
        <ele>330.79998779297</ele>
        <time>2023-08-02T11:45:42.000Z</time>
      </trkpt>
      <trkpt lat="43.74289" lon="7.13248">
        <ele>330.79998779297</ele>
        <time>2023-08-02T11:45:43.000Z</time>
      </trkpt>
      <trkpt lat="43.74285" lon="7.13249">
        <ele>330.79998779297</ele>
        <time>2023-08-02T11:45:44.000Z</time>
      </trkpt>
      <trkpt lat="43.7428" lon="7.1325">
        <ele>331</ele>
        <time>2023-08-02T11:45:45.000Z</time>
      </trkpt>
      <trkpt lat="43.74276" lon="7.1325">
        <ele>331.20001220703</ele>
        <time>2023-08-02T11:45:46.000Z</time>
      </trkpt>
      <trkpt lat="43.74271" lon="7.1325">
        <ele>331.20001220703</ele>
        <time>2023-08-02T11:45:47.000Z</time>
      </trkpt>
      <trkpt lat="43.74267" lon="7.13249">
        <ele>331.20001220703</ele>
        <time>2023-08-02T11:45:48.000Z</time>
      </trkpt>
      <trkpt lat="43.74262" lon="7.13248">
        <ele>331.20001220703</ele>
        <time>2023-08-02T11:45:49.000Z</time>
      </trkpt>
      <trkpt lat="43.74258" lon="7.13247">
        <ele>331.39999389648</ele>
        <time>2023-08-02T11:45:50.000Z</time>
      </trkpt>
      <trkpt lat="43.74255" lon="7.13246">
        <ele>331.39999389648</ele>
        <time>2023-08-02T11:45:51.000Z</time>
      </trkpt>
      <trkpt lat="43.74251" lon="7.13244">
        <ele>331.39999389648</ele>
        <time>2023-08-02T11:45:52.000Z</time>
      </trkpt>
      <trkpt lat="43.74247" lon="7.13242">
        <ele>331.39999389648</ele>
        <time>2023-08-02T11:45:53.000Z</time>
      </trkpt>
      <trkpt lat="43.74243" lon="7.13241">
        <ele>331.60000610352</ele>
        <time>2023-08-02T11:45:54.000Z</time>
      </trkpt>
      <trkpt lat="43.74239" lon="7.13239">
        <ele>331.60000610352</ele>
        <time>2023-08-02T11:45:55.000Z</time>
      </trkpt>
      <trkpt lat="43.74235" lon="7.13238">
        <ele>331.60000610352</ele>
        <time>2023-08-02T11:45:56.000Z</time>
      </trkpt>
      <trkpt lat="43.7423" lon="7.13237">
        <ele>331.60000610352</ele>
        <time>2023-08-02T11:45:57.000Z</time>
      </trkpt>
      <trkpt lat="43.74226" lon="7.13235">
        <ele>331.79998779297</ele>
        <time>2023-08-02T11:45:58.000Z</time>
      </trkpt>
      <trkpt lat="43.74222" lon="7.13234">
        <ele>331.79998779297</ele>
        <time>2023-08-02T11:45:59.000Z</time>
      </trkpt>
      <trkpt lat="43.74218" lon="7.13232">
        <ele>331.79998779297</ele>
        <time>2023-08-02T11:46:00.000Z</time>
      </trkpt>
      <trkpt lat="43.74214" lon="7.13231">
        <ele>331.79998779297</ele>
        <time>2023-08-02T11:46:01.000Z</time>
      </trkpt>
      <trkpt lat="43.7421" lon="7.1323">
        <ele>331.79998779297</ele>
        <time>2023-08-02T11:46:02.000Z</time>
      </trkpt>
      <trkpt lat="43.74206" lon="7.13228">
        <ele>331.79998779297</ele>
        <time>2023-08-02T11:46:03.000Z</time>
      </trkpt>
      <trkpt lat="43.74202" lon="7.13227">
        <ele>331.79998779297</ele>
        <time>2023-08-02T11:46:04.000Z</time>
      </trkpt>
      <trkpt lat="43.74198" lon="7.13226">
        <ele>331.79998779297</ele>
        <time>2023-08-02T11:46:05.000Z</time>
      </trkpt>
      <trkpt lat="43.74194" lon="7.13225">
        <ele>331.79998779297</ele>
        <time>2023-08-02T11:46:06.000Z</time>
      </trkpt>
      <trkpt lat="43.7419" lon="7.13224">
        <ele>331.79998779297</ele>
        <time>2023-08-02T11:46:07.000Z</time>
      </trkpt>
      <trkpt lat="43.74186" lon="7.13223">
        <ele>331.79998779297</ele>
        <time>2023-08-02T11:46:08.000Z</time>
      </trkpt>
      <trkpt lat="43.74182" lon="7.13222">
        <ele>332</ele>
        <time>2023-08-02T11:46:09.000Z</time>
      </trkpt>
      <trkpt lat="43.74178" lon="7.13222">
        <ele>332</ele>
        <time>2023-08-02T11:46:10.000Z</time>
      </trkpt>
      <trkpt lat="43.74174" lon="7.1322">
        <ele>332</ele>
        <time>2023-08-02T11:46:11.000Z</time>
      </trkpt>
      <trkpt lat="43.7417" lon="7.13219">
        <ele>332</ele>
        <time>2023-08-02T11:46:12.000Z</time>
      </trkpt>
      <trkpt lat="43.74166" lon="7.13219">
        <ele>332</ele>
        <time>2023-08-02T11:46:13.000Z</time>
      </trkpt>
      <trkpt lat="43.74162" lon="7.13218">
        <ele>332</ele>
        <time>2023-08-02T11:46:14.000Z</time>
      </trkpt>
      <trkpt lat="43.74158" lon="7.13218">
        <ele>332</ele>
        <time>2023-08-02T11:46:15.000Z</time>
      </trkpt>
      <trkpt lat="43.74154" lon="7.13216">
        <ele>332</ele>
        <time>2023-08-02T11:46:16.000Z</time>
      </trkpt>
      <trkpt lat="43.7415" lon="7.13215">
        <ele>332</ele>
        <time>2023-08-02T11:46:17.000Z</time>
      </trkpt>
      <trkpt lat="43.74146" lon="7.13214">
        <ele>332.20001220703</ele>
        <time>2023-08-02T11:46:18.000Z</time>
      </trkpt>
      <trkpt lat="43.74141" lon="7.13214">
        <ele>332.20001220703</ele>
        <time>2023-08-02T11:46:19.000Z</time>
      </trkpt>
      <trkpt lat="43.74138" lon="7.13214">
        <ele>332.20001220703</ele>
        <time>2023-08-02T11:46:20.000Z</time>
      </trkpt>
      <trkpt lat="43.74135" lon="7.13213">
        <ele>332.20001220703</ele>
        <time>2023-08-02T11:46:21.000Z</time>
      </trkpt>
      <trkpt lat="43.74131" lon="7.13212">
        <ele>332.39999389648</ele>
        <time>2023-08-02T11:46:22.000Z</time>
      </trkpt>
      <trkpt lat="43.74127" lon="7.13211">
        <ele>332.20001220703</ele>
        <time>2023-08-02T11:46:23.000Z</time>
      </trkpt>
      <trkpt lat="43.74123" lon="7.1321">
        <ele>332.20001220703</ele>
        <time>2023-08-02T11:46:24.000Z</time>
      </trkpt>
      <trkpt lat="43.74119" lon="7.1321">
        <ele>332.20001220703</ele>
        <time>2023-08-02T11:46:25.000Z</time>
      </trkpt>
      <trkpt lat="43.74115" lon="7.1321">
        <ele>332.20001220703</ele>
        <time>2023-08-02T11:46:26.000Z</time>
      </trkpt>
      <trkpt lat="43.74111" lon="7.1321">
        <ele>332.39999389648</ele>
        <time>2023-08-02T11:46:27.000Z</time>
      </trkpt>
      <trkpt lat="43.74106" lon="7.13209">
        <ele>332.39999389648</ele>
        <time>2023-08-02T11:46:28.000Z</time>
      </trkpt>
      <trkpt lat="43.74102" lon="7.13209">
        <ele>332.60000610352</ele>
        <time>2023-08-02T11:46:29.000Z</time>
      </trkpt>
      <trkpt lat="43.74098" lon="7.13207">
        <ele>332.60000610352</ele>
        <time>2023-08-02T11:46:30.000Z</time>
      </trkpt>
      <trkpt lat="43.74095" lon="7.13206">
        <ele>332.60000610352</ele>
        <time>2023-08-02T11:46:31.000Z</time>
      </trkpt>
      <trkpt lat="43.74091" lon="7.13204">
        <ele>332.60000610352</ele>
        <time>2023-08-02T11:46:32.000Z</time>
      </trkpt>
      <trkpt lat="43.74087" lon="7.13203">
        <ele>332.60000610352</ele>
        <time>2023-08-02T11:46:33.000Z</time>
      </trkpt>
      <trkpt lat="43.74083" lon="7.13202">
        <ele>332.60000610352</ele>
        <time>2023-08-02T11:46:34.000Z</time>
      </trkpt>
      <trkpt lat="43.74079" lon="7.132">
        <ele>332.60000610352</ele>
        <time>2023-08-02T11:46:35.000Z</time>
      </trkpt>
      <trkpt lat="43.74075" lon="7.13199">
        <ele>332.79998779297</ele>
        <time>2023-08-02T11:46:36.000Z</time>
      </trkpt>
      <trkpt lat="43.74071" lon="7.13198">
        <ele>332.79998779297</ele>
        <time>2023-08-02T11:46:37.000Z</time>
      </trkpt>
      <trkpt lat="43.74067" lon="7.13196">
        <ele>332.79998779297</ele>
        <time>2023-08-02T11:46:38.000Z</time>
      </trkpt>
      <trkpt lat="43.74063" lon="7.13194">
        <ele>332.79998779297</ele>
        <time>2023-08-02T11:46:39.000Z</time>
      </trkpt>
      <trkpt lat="43.74059" lon="7.13192">
        <ele>332.79998779297</ele>
        <time>2023-08-02T11:46:40.000Z</time>
      </trkpt>
      <trkpt lat="43.74055" lon="7.13191">
        <ele>332.79998779297</ele>
        <time>2023-08-02T11:46:41.000Z</time>
      </trkpt>
      <trkpt lat="43.74051" lon="7.13189">
        <ele>332.79998779297</ele>
        <time>2023-08-02T11:46:42.000Z</time>
      </trkpt>
      <trkpt lat="43.74047" lon="7.13187">
        <ele>333</ele>
        <time>2023-08-02T11:46:43.000Z</time>
      </trkpt>
      <trkpt lat="43.74044" lon="7.13186">
        <ele>333</ele>
        <time>2023-08-02T11:46:44.000Z</time>
      </trkpt>
      <trkpt lat="43.7404" lon="7.13185">
        <ele>333</ele>
        <time>2023-08-02T11:46:45.000Z</time>
      </trkpt>
      <trkpt lat="43.74036" lon="7.13184">
        <ele>333</ele>
        <time>2023-08-02T11:46:46.000Z</time>
      </trkpt>
      <trkpt lat="43.74032" lon="7.13183">
        <ele>333</ele>
        <time>2023-08-02T11:46:47.000Z</time>
      </trkpt>
      <trkpt lat="43.74028" lon="7.13183">
        <ele>333</ele>
        <time>2023-08-02T11:46:48.000Z</time>
      </trkpt>
      <trkpt lat="43.74024" lon="7.13183">
        <ele>333</ele>
        <time>2023-08-02T11:46:49.000Z</time>
      </trkpt>
      <trkpt lat="43.7402" lon="7.13183">
        <ele>333.20001220703</ele>
        <time>2023-08-02T11:46:50.000Z</time>
      </trkpt>
      <trkpt lat="43.74016" lon="7.13184">
        <ele>333.20001220703</ele>
        <time>2023-08-02T11:46:51.000Z</time>
      </trkpt>
      <trkpt lat="43.74013" lon="7.13185">
        <ele>333.39999389648</ele>
        <time>2023-08-02T11:46:52.000Z</time>
      </trkpt>
      <trkpt lat="43.74009" lon="7.13186">
        <ele>333.39999389648</ele>
        <time>2023-08-02T11:46:53.000Z</time>
      </trkpt>
      <trkpt lat="43.74005" lon="7.13187">
        <ele>333.39999389648</ele>
        <time>2023-08-02T11:46:54.000Z</time>
      </trkpt>
      <trkpt lat="43.74001" lon="7.13188">
        <ele>333.39999389648</ele>
        <time>2023-08-02T11:46:55.000Z</time>
      </trkpt>
      <trkpt lat="43.73997" lon="7.13189">
        <ele>333.60000610352</ele>
        <time>2023-08-02T11:46:56.000Z</time>
      </trkpt>
      <trkpt lat="43.73993" lon="7.13191">
        <ele>333.60000610352</ele>
        <time>2023-08-02T11:46:57.000Z</time>
      </trkpt>
      <trkpt lat="43.73989" lon="7.13192">
        <ele>333.60000610352</ele>
        <time>2023-08-02T11:46:58.000Z</time>
      </trkpt>
      <trkpt lat="43.73985" lon="7.13193">
        <ele>333.60000610352</ele>
        <time>2023-08-02T11:46:59.000Z</time>
      </trkpt>
      <trkpt lat="43.73981" lon="7.13193">
        <ele>333.60000610352</ele>
        <time>2023-08-02T11:47:00.000Z</time>
      </trkpt>
      <trkpt lat="43.73977" lon="7.13193">
        <ele>333.60000610352</ele>
        <time>2023-08-02T11:47:01.000Z</time>
      </trkpt>
      <trkpt lat="43.73972" lon="7.13192">
        <ele>333.60000610352</ele>
        <time>2023-08-02T11:47:02.000Z</time>
      </trkpt>
      <trkpt lat="43.73968" lon="7.13191">
        <ele>333.60000610352</ele>
        <time>2023-08-02T11:47:03.000Z</time>
      </trkpt>
      <trkpt lat="43.73964" lon="7.1319">
        <ele>333.60000610352</ele>
        <time>2023-08-02T11:47:04.000Z</time>
      </trkpt>
      <trkpt lat="43.7396" lon="7.13189">
        <ele>333.60000610352</ele>
        <time>2023-08-02T11:47:05.000Z</time>
      </trkpt>
      <trkpt lat="43.73956" lon="7.13187">
        <ele>333.79998779297</ele>
        <time>2023-08-02T11:47:06.000Z</time>
      </trkpt>
      <trkpt lat="43.73952" lon="7.13185">
        <ele>333.79998779297</ele>
        <time>2023-08-02T11:47:07.000Z</time>
      </trkpt>
      <trkpt lat="43.73948" lon="7.13183">
        <ele>333.79998779297</ele>
        <time>2023-08-02T11:47:08.000Z</time>
      </trkpt>
      <trkpt lat="43.73943" lon="7.13181">
        <ele>333.79998779297</ele>
        <time>2023-08-02T11:47:09.000Z</time>
      </trkpt>
      <trkpt lat="43.7394" lon="7.13179">
        <ele>333.79998779297</ele>
        <time>2023-08-02T11:47:10.000Z</time>
      </trkpt>
      <trkpt lat="43.73936" lon="7.13177">
        <ele>333.79998779297</ele>
        <time>2023-08-02T11:47:11.000Z</time>
      </trkpt>
      <trkpt lat="43.73932" lon="7.13175">
        <ele>333.79998779297</ele>
        <time>2023-08-02T11:47:12.000Z</time>
      </trkpt>
      <trkpt lat="43.73928" lon="7.13172">
        <ele>334</ele>
        <time>2023-08-02T11:47:13.000Z</time>
      </trkpt>
      <trkpt lat="43.73925" lon="7.13169">
        <ele>334</ele>
        <time>2023-08-02T11:47:14.000Z</time>
      </trkpt>
      <trkpt lat="43.73921" lon="7.13167">
        <ele>334</ele>
        <time>2023-08-02T11:47:15.000Z</time>
      </trkpt>
      <trkpt lat="43.73918" lon="7.13163">
        <ele>334</ele>
        <time>2023-08-02T11:47:16.000Z</time>
      </trkpt>
      <trkpt lat="43.73914" lon="7.1316">
        <ele>334</ele>
        <time>2023-08-02T11:47:17.000Z</time>
      </trkpt>
      <trkpt lat="43.73911" lon="7.13156">
        <ele>334</ele>
        <time>2023-08-02T11:47:18.000Z</time>
      </trkpt>
      <trkpt lat="43.73909" lon="7.13152">
        <ele>334</ele>
        <time>2023-08-02T11:47:19.000Z</time>
      </trkpt>
      <trkpt lat="43.73907" lon="7.13147">
        <ele>334</ele>
        <time>2023-08-02T11:47:20.000Z</time>
      </trkpt>
      <trkpt lat="43.73905" lon="7.13142">
        <ele>334</ele>
        <time>2023-08-02T11:47:21.000Z</time>
      </trkpt>
      <trkpt lat="43.73904" lon="7.13137">
        <ele>334</ele>
        <time>2023-08-02T11:47:22.000Z</time>
      </trkpt>
      <trkpt lat="43.73902" lon="7.13131">
        <ele>334</ele>
        <time>2023-08-02T11:47:23.000Z</time>
      </trkpt>
      <trkpt lat="43.73901" lon="7.13126">
        <ele>334</ele>
        <time>2023-08-02T11:47:24.000Z</time>
      </trkpt>
      <trkpt lat="43.739" lon="7.13121">
        <ele>334</ele>
        <time>2023-08-02T11:47:25.000Z</time>
      </trkpt>
      <trkpt lat="43.73898" lon="7.13116">
        <ele>334</ele>
        <time>2023-08-02T11:47:26.000Z</time>
      </trkpt>
      <trkpt lat="43.73897" lon="7.1311">
        <ele>334</ele>
        <time>2023-08-02T11:47:27.000Z</time>
      </trkpt>
      <trkpt lat="43.73894" lon="7.13105">
        <ele>334</ele>
        <time>2023-08-02T11:47:28.000Z</time>
      </trkpt>
      <trkpt lat="43.73892" lon="7.131">
        <ele>334</ele>
        <time>2023-08-02T11:47:29.000Z</time>
      </trkpt>
      <trkpt lat="43.73889" lon="7.13096">
        <ele>334</ele>
        <time>2023-08-02T11:47:30.000Z</time>
      </trkpt>
      <trkpt lat="43.73885" lon="7.13092">
        <ele>334</ele>
        <time>2023-08-02T11:47:31.000Z</time>
      </trkpt>
      <trkpt lat="43.73882" lon="7.13088">
        <ele>334.20001220703</ele>
        <time>2023-08-02T11:47:32.000Z</time>
      </trkpt>
      <trkpt lat="43.73879" lon="7.13085">
        <ele>334.20001220703</ele>
        <time>2023-08-02T11:47:33.000Z</time>
      </trkpt>
      <trkpt lat="43.73875" lon="7.13083">
        <ele>334.20001220703</ele>
        <time>2023-08-02T11:47:34.000Z</time>
      </trkpt>
      <trkpt lat="43.73872" lon="7.1308">
        <ele>334.20001220703</ele>
        <time>2023-08-02T11:47:35.000Z</time>
      </trkpt>
      <trkpt lat="43.73868" lon="7.13078">
        <ele>334.39999389648</ele>
        <time>2023-08-02T11:47:36.000Z</time>
      </trkpt>
      <trkpt lat="43.73864" lon="7.13076">
        <ele>334.39999389648</ele>
        <time>2023-08-02T11:47:37.000Z</time>
      </trkpt>
      <trkpt lat="43.7386" lon="7.13074">
        <ele>334.39999389648</ele>
        <time>2023-08-02T11:47:38.000Z</time>
      </trkpt>
      <trkpt lat="43.73857" lon="7.13073">
        <ele>334.39999389648</ele>
        <time>2023-08-02T11:47:39.000Z</time>
      </trkpt>
      <trkpt lat="43.73852" lon="7.13071">
        <ele>334.39999389648</ele>
        <time>2023-08-02T11:47:40.000Z</time>
      </trkpt>
      <trkpt lat="43.73848" lon="7.1307">
        <ele>334.39999389648</ele>
        <time>2023-08-02T11:47:41.000Z</time>
      </trkpt>
      <trkpt lat="43.73844" lon="7.13069">
        <ele>334.39999389648</ele>
        <time>2023-08-02T11:47:42.000Z</time>
      </trkpt>
      <trkpt lat="43.7384" lon="7.13069">
        <ele>334.39999389648</ele>
        <time>2023-08-02T11:47:43.000Z</time>
      </trkpt>
      <trkpt lat="43.73836" lon="7.13068">
        <ele>334.39999389648</ele>
        <time>2023-08-02T11:47:44.000Z</time>
      </trkpt>
      <trkpt lat="43.73832" lon="7.13068">
        <ele>334.39999389648</ele>
        <time>2023-08-02T11:47:45.000Z</time>
      </trkpt>
      <trkpt lat="43.73828" lon="7.13067">
        <ele>334.39999389648</ele>
        <time>2023-08-02T11:47:46.000Z</time>
      </trkpt>
      <trkpt lat="43.73823" lon="7.13067">
        <ele>334.60000610352</ele>
        <time>2023-08-02T11:47:47.000Z</time>
      </trkpt>
      <trkpt lat="43.73819" lon="7.13065">
        <ele>334.60000610352</ele>
        <time>2023-08-02T11:47:48.000Z</time>
      </trkpt>
      <trkpt lat="43.73815" lon="7.13064">
        <ele>334.60000610352</ele>
        <time>2023-08-02T11:47:49.000Z</time>
      </trkpt>
      <trkpt lat="43.73811" lon="7.13061">
        <ele>334.60000610352</ele>
        <time>2023-08-02T11:47:50.000Z</time>
      </trkpt>
      <trkpt lat="43.73807" lon="7.13058">
        <ele>334.60000610352</ele>
        <time>2023-08-02T11:47:51.000Z</time>
      </trkpt>
      <trkpt lat="43.73804" lon="7.13055">
        <ele>334.60000610352</ele>
        <time>2023-08-02T11:47:52.000Z</time>
      </trkpt>
      <trkpt lat="43.73801" lon="7.13051">
        <ele>334.79998779297</ele>
        <time>2023-08-02T11:47:53.000Z</time>
      </trkpt>
      <trkpt lat="43.73798" lon="7.13046">
        <ele>334.79998779297</ele>
        <time>2023-08-02T11:47:54.000Z</time>
      </trkpt>
      <trkpt lat="43.73795" lon="7.13042">
        <ele>334.79998779297</ele>
        <time>2023-08-02T11:47:55.000Z</time>
      </trkpt>
      <trkpt lat="43.73792" lon="7.13037">
        <ele>334.79998779297</ele>
        <time>2023-08-02T11:47:56.000Z</time>
      </trkpt>
      <trkpt lat="43.7379" lon="7.13033">
        <ele>334.79998779297</ele>
        <time>2023-08-02T11:47:57.000Z</time>
      </trkpt>
      <trkpt lat="43.73787" lon="7.13028">
        <ele>334.79998779297</ele>
        <time>2023-08-02T11:47:58.000Z</time>
      </trkpt>
      <trkpt lat="43.73785" lon="7.13023">
        <ele>334.79998779297</ele>
        <time>2023-08-02T11:47:59.000Z</time>
      </trkpt>
      <trkpt lat="43.73783" lon="7.13018">
        <ele>334.79998779297</ele>
        <time>2023-08-02T11:48:00.000Z</time>
      </trkpt>
      <trkpt lat="43.73781" lon="7.13013">
        <ele>334.79998779297</ele>
        <time>2023-08-02T11:48:01.000Z</time>
      </trkpt>
      <trkpt lat="43.73779" lon="7.13008">
        <ele>335</ele>
        <time>2023-08-02T11:48:02.000Z</time>
      </trkpt>
      <trkpt lat="43.73777" lon="7.13003">
        <ele>335</ele>
        <time>2023-08-02T11:48:03.000Z</time>
      </trkpt>
      <trkpt lat="43.73775" lon="7.12998">
        <ele>335</ele>
        <time>2023-08-02T11:48:04.000Z</time>
      </trkpt>
      <trkpt lat="43.73773" lon="7.12993">
        <ele>335.20001220703</ele>
        <time>2023-08-02T11:48:05.000Z</time>
      </trkpt>
      <trkpt lat="43.73772" lon="7.12987">
        <ele>335.20001220703</ele>
        <time>2023-08-02T11:48:06.000Z</time>
      </trkpt>
      <trkpt lat="43.7377" lon="7.12981">
        <ele>335.20001220703</ele>
        <time>2023-08-02T11:48:07.000Z</time>
      </trkpt>
      <trkpt lat="43.73769" lon="7.12975">
        <ele>335.20001220703</ele>
        <time>2023-08-02T11:48:08.000Z</time>
      </trkpt>
      <trkpt lat="43.73768" lon="7.12969">
        <ele>335.39999389648</ele>
        <time>2023-08-02T11:48:09.000Z</time>
      </trkpt>
      <trkpt lat="43.73767" lon="7.12964">
        <ele>335.39999389648</ele>
        <time>2023-08-02T11:48:10.000Z</time>
      </trkpt>
      <trkpt lat="43.73767" lon="7.12958">
        <ele>335.39999389648</ele>
        <time>2023-08-02T11:48:11.000Z</time>
      </trkpt>
      <trkpt lat="43.73766" lon="7.12953">
        <ele>335.39999389648</ele>
        <time>2023-08-02T11:48:12.000Z</time>
      </trkpt>
      <trkpt lat="43.73766" lon="7.12947">
        <ele>335.39999389648</ele>
        <time>2023-08-02T11:48:13.000Z</time>
      </trkpt>
      <trkpt lat="43.73766" lon="7.12941">
        <ele>335.39999389648</ele>
        <time>2023-08-02T11:48:14.000Z</time>
      </trkpt>
      <trkpt lat="43.73764" lon="7.12935">
        <ele>335.60000610352</ele>
        <time>2023-08-02T11:48:15.000Z</time>
      </trkpt>
      <trkpt lat="43.73764" lon="7.12929">
        <ele>335.79998779297</ele>
        <time>2023-08-02T11:48:16.000Z</time>
      </trkpt>
      <trkpt lat="43.73763" lon="7.12923">
        <ele>335.79998779297</ele>
        <time>2023-08-02T11:48:17.000Z</time>
      </trkpt>
      <trkpt lat="43.73763" lon="7.12918">
        <ele>335.79998779297</ele>
        <time>2023-08-02T11:48:18.000Z</time>
      </trkpt>
      <trkpt lat="43.73762" lon="7.12912">
        <ele>335.79998779297</ele>
        <time>2023-08-02T11:48:19.000Z</time>
      </trkpt>
      <trkpt lat="43.73761" lon="7.12906">
        <ele>335.79998779297</ele>
        <time>2023-08-02T11:48:20.000Z</time>
      </trkpt>
      <trkpt lat="43.7376" lon="7.129">
        <ele>335.79998779297</ele>
        <time>2023-08-02T11:48:21.000Z</time>
      </trkpt>
      <trkpt lat="43.7376" lon="7.12894">
        <ele>335.79998779297</ele>
        <time>2023-08-02T11:48:22.000Z</time>
      </trkpt>
      <trkpt lat="43.73759" lon="7.12888">
        <ele>335.79998779297</ele>
        <time>2023-08-02T11:48:23.000Z</time>
      </trkpt>
      <trkpt lat="43.73758" lon="7.12882">
        <ele>335.79998779297</ele>
        <time>2023-08-02T11:48:24.000Z</time>
      </trkpt>
      <trkpt lat="43.73757" lon="7.12876">
        <ele>335.79998779297</ele>
        <time>2023-08-02T11:48:25.000Z</time>
      </trkpt>
      <trkpt lat="43.73756" lon="7.12871">
        <ele>335.79998779297</ele>
        <time>2023-08-02T11:48:26.000Z</time>
      </trkpt>
      <trkpt lat="43.73755" lon="7.12865">
        <ele>335.79998779297</ele>
        <time>2023-08-02T11:48:27.000Z</time>
      </trkpt>
      <trkpt lat="43.73754" lon="7.12859">
        <ele>335.79998779297</ele>
        <time>2023-08-02T11:48:28.000Z</time>
      </trkpt>
      <trkpt lat="43.73753" lon="7.12853">
        <ele>336</ele>
        <time>2023-08-02T11:48:29.000Z</time>
      </trkpt>
      <trkpt lat="43.73752" lon="7.12847">
        <ele>336</ele>
        <time>2023-08-02T11:48:30.000Z</time>
      </trkpt>
      <trkpt lat="43.7375" lon="7.1284">
        <ele>336</ele>
        <time>2023-08-02T11:48:31.000Z</time>
      </trkpt>
      <trkpt lat="43.73749" lon="7.12835">
        <ele>336</ele>
        <time>2023-08-02T11:48:32.000Z</time>
      </trkpt>
      <trkpt lat="43.73747" lon="7.1283">
        <ele>336.20001220703</ele>
        <time>2023-08-02T11:48:33.000Z</time>
      </trkpt>
      <trkpt lat="43.73744" lon="7.12825">
        <ele>336.20001220703</ele>
        <time>2023-08-02T11:48:34.000Z</time>
      </trkpt>
      <trkpt lat="43.73742" lon="7.1282">
        <ele>336.20001220703</ele>
        <time>2023-08-02T11:48:35.000Z</time>
      </trkpt>
      <trkpt lat="43.7374" lon="7.12814">
        <ele>336.20001220703</ele>
        <time>2023-08-02T11:48:36.000Z</time>
      </trkpt>
      <trkpt lat="43.73738" lon="7.12809">
        <ele>336.20001220703</ele>
        <time>2023-08-02T11:48:37.000Z</time>
      </trkpt>
      <trkpt lat="43.73736" lon="7.12804">
        <ele>336.20001220703</ele>
        <time>2023-08-02T11:48:38.000Z</time>
      </trkpt>
      <trkpt lat="43.73733" lon="7.12799">
        <ele>336.20001220703</ele>
        <time>2023-08-02T11:48:39.000Z</time>
      </trkpt>
      <trkpt lat="43.73731" lon="7.12794">
        <ele>336.39999389648</ele>
        <time>2023-08-02T11:48:40.000Z</time>
      </trkpt>
      <trkpt lat="43.73728" lon="7.12788">
        <ele>336.39999389648</ele>
        <time>2023-08-02T11:48:41.000Z</time>
      </trkpt>
      <trkpt lat="43.73726" lon="7.12783">
        <ele>336.39999389648</ele>
        <time>2023-08-02T11:48:42.000Z</time>
      </trkpt>
      <trkpt lat="43.73724" lon="7.12778">
        <ele>336.39999389648</ele>
        <time>2023-08-02T11:48:43.000Z</time>
      </trkpt>
      <trkpt lat="43.73721" lon="7.12773">
        <ele>336.39999389648</ele>
        <time>2023-08-02T11:48:44.000Z</time>
      </trkpt>
      <trkpt lat="43.73718" lon="7.12768">
        <ele>336.39999389648</ele>
        <time>2023-08-02T11:48:45.000Z</time>
      </trkpt>
      <trkpt lat="43.73716" lon="7.12764">
        <ele>336.60000610352</ele>
        <time>2023-08-02T11:48:46.000Z</time>
      </trkpt>
      <trkpt lat="43.73713" lon="7.12759">
        <ele>336.60000610352</ele>
        <time>2023-08-02T11:48:47.000Z</time>
      </trkpt>
      <trkpt lat="43.7371" lon="7.12754">
        <ele>336.79998779297</ele>
        <time>2023-08-02T11:48:48.000Z</time>
      </trkpt>
      <trkpt lat="43.73707" lon="7.12749">
        <ele>336.79998779297</ele>
        <time>2023-08-02T11:48:49.000Z</time>
      </trkpt>
      <trkpt lat="43.73704" lon="7.12745">
        <ele>336.79998779297</ele>
        <time>2023-08-02T11:48:50.000Z</time>
      </trkpt>
      <trkpt lat="43.73701" lon="7.12741">
        <ele>336.79998779297</ele>
        <time>2023-08-02T11:48:51.000Z</time>
      </trkpt>
      <trkpt lat="43.73698" lon="7.12736">
        <ele>336.79998779297</ele>
        <time>2023-08-02T11:48:52.000Z</time>
      </trkpt>
      <trkpt lat="43.73695" lon="7.12732">
        <ele>336.79998779297</ele>
        <time>2023-08-02T11:48:53.000Z</time>
      </trkpt>
      <trkpt lat="43.73692" lon="7.12727">
        <ele>336.79998779297</ele>
        <time>2023-08-02T11:48:54.000Z</time>
      </trkpt>
      <trkpt lat="43.73689" lon="7.12722">
        <ele>336.79998779297</ele>
        <time>2023-08-02T11:48:55.000Z</time>
      </trkpt>
      <trkpt lat="43.73686" lon="7.12718">
        <ele>336.79998779297</ele>
        <time>2023-08-02T11:48:56.000Z</time>
      </trkpt>
      <trkpt lat="43.73683" lon="7.12713">
        <ele>336.79998779297</ele>
        <time>2023-08-02T11:48:57.000Z</time>
      </trkpt>
      <trkpt lat="43.7368" lon="7.12707">
        <ele>336.79998779297</ele>
        <time>2023-08-02T11:48:58.000Z</time>
      </trkpt>
      <trkpt lat="43.73677" lon="7.12702">
        <ele>336.79998779297</ele>
        <time>2023-08-02T11:48:59.000Z</time>
      </trkpt>
      <trkpt lat="43.73675" lon="7.12697">
        <ele>336.60000610352</ele>
        <time>2023-08-02T11:49:00.000Z</time>
      </trkpt>
      <trkpt lat="43.73672" lon="7.12692">
        <ele>336.60000610352</ele>
        <time>2023-08-02T11:49:01.000Z</time>
      </trkpt>
      <trkpt lat="43.73669" lon="7.12686">
        <ele>336.60000610352</ele>
        <time>2023-08-02T11:49:02.000Z</time>
      </trkpt>
      <trkpt lat="43.73667" lon="7.1268">
        <ele>336.60000610352</ele>
        <time>2023-08-02T11:49:03.000Z</time>
      </trkpt>
      <trkpt lat="43.73665" lon="7.12674">
        <ele>336.60000610352</ele>
        <time>2023-08-02T11:49:04.000Z</time>
      </trkpt>
      <trkpt lat="43.73663" lon="7.12669">
        <ele>336.60000610352</ele>
        <time>2023-08-02T11:49:05.000Z</time>
      </trkpt>
      <trkpt lat="43.73661" lon="7.12663">
        <ele>336.60000610352</ele>
        <time>2023-08-02T11:49:06.000Z</time>
      </trkpt>
      <trkpt lat="43.73659" lon="7.12658">
        <ele>336.79998779297</ele>
        <time>2023-08-02T11:49:07.000Z</time>
      </trkpt>
      <trkpt lat="43.73658" lon="7.12653">
        <ele>336.79998779297</ele>
        <time>2023-08-02T11:49:08.000Z</time>
      </trkpt>
      <trkpt lat="43.73656" lon="7.12648">
        <ele>336.79998779297</ele>
        <time>2023-08-02T11:49:09.000Z</time>
      </trkpt>
      <trkpt lat="43.73655" lon="7.12642">
        <ele>336.79998779297</ele>
        <time>2023-08-02T11:49:10.000Z</time>
      </trkpt>
      <trkpt lat="43.73654" lon="7.12636">
        <ele>336.79998779297</ele>
        <time>2023-08-02T11:49:11.000Z</time>
      </trkpt>
      <trkpt lat="43.73653" lon="7.12631">
        <ele>336.79998779297</ele>
        <time>2023-08-02T11:49:12.000Z</time>
      </trkpt>
      <trkpt lat="43.73652" lon="7.12625">
        <ele>336.79998779297</ele>
        <time>2023-08-02T11:49:13.000Z</time>
      </trkpt>
      <trkpt lat="43.7365" lon="7.12619">
        <ele>336.79998779297</ele>
        <time>2023-08-02T11:49:14.000Z</time>
      </trkpt>
      <trkpt lat="43.73649" lon="7.12614">
        <ele>337</ele>
        <time>2023-08-02T11:49:15.000Z</time>
      </trkpt>
      <trkpt lat="43.73648" lon="7.12609">
        <ele>337</ele>
        <time>2023-08-02T11:49:16.000Z</time>
      </trkpt>
      <trkpt lat="43.73647" lon="7.12603">
        <ele>337</ele>
        <time>2023-08-02T11:49:17.000Z</time>
      </trkpt>
      <trkpt lat="43.73645" lon="7.12597">
        <ele>337</ele>
        <time>2023-08-02T11:49:18.000Z</time>
      </trkpt>
      <trkpt lat="43.73644" lon="7.12592">
        <ele>337</ele>
        <time>2023-08-02T11:49:19.000Z</time>
      </trkpt>
      <trkpt lat="43.73643" lon="7.12587">
        <ele>337</ele>
        <time>2023-08-02T11:49:20.000Z</time>
      </trkpt>
      <trkpt lat="43.73642" lon="7.12581">
        <ele>337</ele>
        <time>2023-08-02T11:49:21.000Z</time>
      </trkpt>
      <trkpt lat="43.73642" lon="7.12575">
        <ele>337.39999389648</ele>
        <time>2023-08-02T11:49:22.000Z</time>
      </trkpt>
      <trkpt lat="43.73641" lon="7.12569">
        <ele>337.39999389648</ele>
        <time>2023-08-02T11:49:23.000Z</time>
      </trkpt>
      <trkpt lat="43.73642" lon="7.12562">
        <ele>337.39999389648</ele>
        <time>2023-08-02T11:49:24.000Z</time>
      </trkpt>
      <trkpt lat="43.73642" lon="7.12557">
        <ele>337.39999389648</ele>
        <time>2023-08-02T11:49:25.000Z</time>
      </trkpt>
      <trkpt lat="43.73643" lon="7.12552">
        <ele>337.39999389648</ele>
        <time>2023-08-02T11:49:26.000Z</time>
      </trkpt>
      <trkpt lat="43.73644" lon="7.12546">
        <ele>337.39999389648</ele>
        <time>2023-08-02T11:49:27.000Z</time>
      </trkpt>
      <trkpt lat="43.73645" lon="7.12541">
        <ele>337.39999389648</ele>
        <time>2023-08-02T11:49:28.000Z</time>
      </trkpt>
      <trkpt lat="43.73646" lon="7.12536">
        <ele>337.39999389648</ele>
        <time>2023-08-02T11:49:29.000Z</time>
      </trkpt>
      <trkpt lat="43.73647" lon="7.12531">
        <ele>337.39999389648</ele>
        <time>2023-08-02T11:49:30.000Z</time>
      </trkpt>
      <trkpt lat="43.73649" lon="7.12525">
        <ele>337.39999389648</ele>
        <time>2023-08-02T11:49:31.000Z</time>
      </trkpt>
      <trkpt lat="43.7365" lon="7.12521">
        <ele>337.60000610352</ele>
        <time>2023-08-02T11:49:32.000Z</time>
      </trkpt>
      <trkpt lat="43.73651" lon="7.12515">
        <ele>337.60000610352</ele>
        <time>2023-08-02T11:49:33.000Z</time>
      </trkpt>
      <trkpt lat="43.73652" lon="7.1251">
        <ele>337.79998779297</ele>
        <time>2023-08-02T11:49:34.000Z</time>
      </trkpt>
      <trkpt lat="43.73653" lon="7.12506">
        <ele>337.79998779297</ele>
        <time>2023-08-02T11:49:35.000Z</time>
      </trkpt>
      <trkpt lat="43.73654" lon="7.125">
        <ele>338</ele>
        <time>2023-08-02T11:49:36.000Z</time>
      </trkpt>
      <trkpt lat="43.73655" lon="7.12495">
        <ele>338</ele>
        <time>2023-08-02T11:49:37.000Z</time>
      </trkpt>
      <trkpt lat="43.73656" lon="7.1249">
        <ele>338</ele>
        <time>2023-08-02T11:49:38.000Z</time>
      </trkpt>
      <trkpt lat="43.73656" lon="7.12484">
        <ele>338</ele>
        <time>2023-08-02T11:49:39.000Z</time>
      </trkpt>
      <trkpt lat="43.73657" lon="7.12479">
        <ele>338</ele>
        <time>2023-08-02T11:49:40.000Z</time>
      </trkpt>
      <trkpt lat="43.73658" lon="7.12474">
        <ele>338</ele>
        <time>2023-08-02T11:49:41.000Z</time>
      </trkpt>
      <trkpt lat="43.73658" lon="7.12469">
        <ele>338</ele>
        <time>2023-08-02T11:49:42.000Z</time>
      </trkpt>
      <trkpt lat="43.73658" lon="7.12464">
        <ele>338.20001220703</ele>
        <time>2023-08-02T11:49:43.000Z</time>
      </trkpt>
      <trkpt lat="43.73659" lon="7.12459">
        <ele>338.20001220703</ele>
        <time>2023-08-02T11:49:44.000Z</time>
      </trkpt>
      <trkpt lat="43.73659" lon="7.12454">
        <ele>338.20001220703</ele>
        <time>2023-08-02T11:49:45.000Z</time>
      </trkpt>
      <trkpt lat="43.73658" lon="7.12449">
        <ele>338.20001220703</ele>
        <time>2023-08-02T11:49:46.000Z</time>
      </trkpt>
      <trkpt lat="43.73658" lon="7.12443">
        <ele>338.20001220703</ele>
        <time>2023-08-02T11:49:47.000Z</time>
      </trkpt>
      <trkpt lat="43.73657" lon="7.12438">
        <ele>338.20001220703</ele>
        <time>2023-08-02T11:49:48.000Z</time>
      </trkpt>
      <trkpt lat="43.73656" lon="7.12432">
        <ele>338.20001220703</ele>
        <time>2023-08-02T11:49:49.000Z</time>
      </trkpt>
      <trkpt lat="43.73654" lon="7.12426">
        <ele>338.20001220703</ele>
        <time>2023-08-02T11:49:50.000Z</time>
      </trkpt>
      <trkpt lat="43.73652" lon="7.12421">
        <ele>338.20001220703</ele>
        <time>2023-08-02T11:49:51.000Z</time>
      </trkpt>
      <trkpt lat="43.7365" lon="7.12416">
        <ele>338.20001220703</ele>
        <time>2023-08-02T11:49:52.000Z</time>
      </trkpt>
      <trkpt lat="43.73648" lon="7.1241">
        <ele>338.20001220703</ele>
        <time>2023-08-02T11:49:53.000Z</time>
      </trkpt>
      <trkpt lat="43.73646" lon="7.12406">
        <ele>338.20001220703</ele>
        <time>2023-08-02T11:49:54.000Z</time>
      </trkpt>
      <trkpt lat="43.73643" lon="7.12403">
        <ele>338.20001220703</ele>
        <time>2023-08-02T11:49:55.000Z</time>
      </trkpt>
      <trkpt lat="43.7364" lon="7.124">
        <ele>338.20001220703</ele>
        <time>2023-08-02T11:49:56.000Z</time>
      </trkpt>
      <trkpt lat="43.73637" lon="7.12397">
        <ele>338.39999389648</ele>
        <time>2023-08-02T11:49:57.000Z</time>
      </trkpt>
      <trkpt lat="43.73635" lon="7.12395">
        <ele>338.39999389648</ele>
        <time>2023-08-02T11:49:58.000Z</time>
      </trkpt>
      <trkpt lat="43.73631" lon="7.12393">
        <ele>338.39999389648</ele>
        <time>2023-08-02T11:49:59.000Z</time>
      </trkpt>
      <trkpt lat="43.73628" lon="7.1239">
        <ele>338.60000610352</ele>
        <time>2023-08-02T11:50:00.000Z</time>
      </trkpt>
      <trkpt lat="43.73624" lon="7.12388">
        <ele>338.79998779297</ele>
        <time>2023-08-02T11:50:01.000Z</time>
      </trkpt>
      <trkpt lat="43.7362" lon="7.12387">
        <ele>339</ele>
        <time>2023-08-02T11:50:02.000Z</time>
      </trkpt>
      <trkpt lat="43.73617" lon="7.12385">
        <ele>339</ele>
        <time>2023-08-02T11:50:03.000Z</time>
      </trkpt>
      <trkpt lat="43.73613" lon="7.12382">
        <ele>339</ele>
        <time>2023-08-02T11:50:04.000Z</time>
      </trkpt>
      <trkpt lat="43.7361" lon="7.12379">
        <ele>339.20001220703</ele>
        <time>2023-08-02T11:50:05.000Z</time>
      </trkpt>
      <trkpt lat="43.73606" lon="7.12376">
        <ele>339.20001220703</ele>
        <time>2023-08-02T11:50:06.000Z</time>
      </trkpt>
      <trkpt lat="43.73603" lon="7.12373">
        <ele>339.20001220703</ele>
        <time>2023-08-02T11:50:07.000Z</time>
      </trkpt>
      <trkpt lat="43.736" lon="7.12369">
        <ele>339.20001220703</ele>
        <time>2023-08-02T11:50:08.000Z</time>
      </trkpt>
      <trkpt lat="43.73598" lon="7.12365">
        <ele>339.20001220703</ele>
        <time>2023-08-02T11:50:09.000Z</time>
      </trkpt>
      <trkpt lat="43.73595" lon="7.12361">
        <ele>339.20001220703</ele>
        <time>2023-08-02T11:50:10.000Z</time>
      </trkpt>
      <trkpt lat="43.73593" lon="7.12357">
        <ele>339.39999389648</ele>
        <time>2023-08-02T11:50:11.000Z</time>
      </trkpt>
      <trkpt lat="43.7359" lon="7.12353">
        <ele>339.60000610352</ele>
        <time>2023-08-02T11:50:12.000Z</time>
      </trkpt>
      <trkpt lat="43.73588" lon="7.12349">
        <ele>339.60000610352</ele>
        <time>2023-08-02T11:50:13.000Z</time>
      </trkpt>
      <trkpt lat="43.73586" lon="7.12345">
        <ele>339.60000610352</ele>
        <time>2023-08-02T11:50:14.000Z</time>
      </trkpt>
      <trkpt lat="43.73583" lon="7.12341">
        <ele>339.60000610352</ele>
        <time>2023-08-02T11:50:15.000Z</time>
      </trkpt>
      <trkpt lat="43.73581" lon="7.12337">
        <ele>339.79998779297</ele>
        <time>2023-08-02T11:50:16.000Z</time>
      </trkpt>
      <trkpt lat="43.73579" lon="7.12333">
        <ele>339.79998779297</ele>
        <time>2023-08-02T11:50:17.000Z</time>
      </trkpt>
      <trkpt lat="43.73577" lon="7.12328">
        <ele>339.79998779297</ele>
        <time>2023-08-02T11:50:18.000Z</time>
      </trkpt>
      <trkpt lat="43.73575" lon="7.12324">
        <ele>339.79998779297</ele>
        <time>2023-08-02T11:50:19.000Z</time>
      </trkpt>
      <trkpt lat="43.73573" lon="7.1232">
        <ele>339.79998779297</ele>
        <time>2023-08-02T11:50:20.000Z</time>
      </trkpt>
      <trkpt lat="43.7357" lon="7.12316">
        <ele>339.79998779297</ele>
        <time>2023-08-02T11:50:21.000Z</time>
      </trkpt>
      <trkpt lat="43.73568" lon="7.12313">
        <ele>339.79998779297</ele>
        <time>2023-08-02T11:50:22.000Z</time>
      </trkpt>
      <trkpt lat="43.73565" lon="7.1231">
        <ele>339.79998779297</ele>
        <time>2023-08-02T11:50:23.000Z</time>
      </trkpt>
      <trkpt lat="43.73561" lon="7.12307">
        <ele>339.79998779297</ele>
        <time>2023-08-02T11:50:24.000Z</time>
      </trkpt>
      <trkpt lat="43.73557" lon="7.12304">
        <ele>340</ele>
        <time>2023-08-02T11:50:25.000Z</time>
      </trkpt>
      <trkpt lat="43.73553" lon="7.12303">
        <ele>340</ele>
        <time>2023-08-02T11:50:26.000Z</time>
      </trkpt>
      <trkpt lat="43.73549" lon="7.12301">
        <ele>340</ele>
        <time>2023-08-02T11:50:27.000Z</time>
      </trkpt>
      <trkpt lat="43.73545" lon="7.12301">
        <ele>340.20001220703</ele>
        <time>2023-08-02T11:50:28.000Z</time>
      </trkpt>
      <trkpt lat="43.73541" lon="7.123">
        <ele>340.20001220703</ele>
        <time>2023-08-02T11:50:29.000Z</time>
      </trkpt>
      <trkpt lat="43.73537" lon="7.123">
        <ele>340.39999389648</ele>
        <time>2023-08-02T11:50:30.000Z</time>
      </trkpt>
      <trkpt lat="43.73533" lon="7.123">
        <ele>340.39999389648</ele>
        <time>2023-08-02T11:50:31.000Z</time>
      </trkpt>
      <trkpt lat="43.73528" lon="7.123">
        <ele>340.60000610352</ele>
        <time>2023-08-02T11:50:32.000Z</time>
      </trkpt>
      <trkpt lat="43.73524" lon="7.123">
        <ele>340.60000610352</ele>
        <time>2023-08-02T11:50:33.000Z</time>
      </trkpt>
      <trkpt lat="43.7352" lon="7.12299">
        <ele>340.60000610352</ele>
        <time>2023-08-02T11:50:34.000Z</time>
      </trkpt>
      <trkpt lat="43.73516" lon="7.12299">
        <ele>340.60000610352</ele>
        <time>2023-08-02T11:50:35.000Z</time>
      </trkpt>
      <trkpt lat="43.73511" lon="7.123">
        <ele>340.60000610352</ele>
        <time>2023-08-02T11:50:36.000Z</time>
      </trkpt>
      <trkpt lat="43.73507" lon="7.123">
        <ele>340.60000610352</ele>
        <time>2023-08-02T11:50:37.000Z</time>
      </trkpt>
      <trkpt lat="43.73503" lon="7.12301">
        <ele>340.60000610352</ele>
        <time>2023-08-02T11:50:38.000Z</time>
      </trkpt>
      <trkpt lat="43.73499" lon="7.12301">
        <ele>340.60000610352</ele>
        <time>2023-08-02T11:50:39.000Z</time>
      </trkpt>
      <trkpt lat="43.73495" lon="7.123">
        <ele>340.60000610352</ele>
        <time>2023-08-02T11:50:40.000Z</time>
      </trkpt>
      <trkpt lat="43.73491" lon="7.12298">
        <ele>340.60000610352</ele>
        <time>2023-08-02T11:50:41.000Z</time>
      </trkpt>
      <trkpt lat="43.73487" lon="7.12296">
        <ele>340.60000610352</ele>
        <time>2023-08-02T11:50:42.000Z</time>
      </trkpt>
      <trkpt lat="43.73484" lon="7.12293">
        <ele>340.60000610352</ele>
        <time>2023-08-02T11:50:43.000Z</time>
      </trkpt>
      <trkpt lat="43.7348" lon="7.1229">
        <ele>340.60000610352</ele>
        <time>2023-08-02T11:50:44.000Z</time>
      </trkpt>
      <trkpt lat="43.73477" lon="7.12287">
        <ele>340.60000610352</ele>
        <time>2023-08-02T11:50:45.000Z</time>
      </trkpt>
      <trkpt lat="43.73474" lon="7.12283">
        <ele>340.60000610352</ele>
        <time>2023-08-02T11:50:46.000Z</time>
      </trkpt>
      <trkpt lat="43.73471" lon="7.1228">
        <ele>340.60000610352</ele>
        <time>2023-08-02T11:50:47.000Z</time>
      </trkpt>
      <trkpt lat="43.73467" lon="7.12277">
        <ele>340.60000610352</ele>
        <time>2023-08-02T11:50:48.000Z</time>
      </trkpt>
      <trkpt lat="43.73464" lon="7.12274">
        <ele>340.60000610352</ele>
        <time>2023-08-02T11:50:49.000Z</time>
      </trkpt>
      <trkpt lat="43.73461" lon="7.1227">
        <ele>340.60000610352</ele>
        <time>2023-08-02T11:50:50.000Z</time>
      </trkpt>
      <trkpt lat="43.73457" lon="7.12267">
        <ele>340.60000610352</ele>
        <time>2023-08-02T11:50:51.000Z</time>
      </trkpt>
      <trkpt lat="43.73454" lon="7.12264">
        <ele>341</ele>
        <time>2023-08-02T11:50:52.000Z</time>
      </trkpt>
      <trkpt lat="43.73451" lon="7.1226">
        <ele>341.20001220703</ele>
        <time>2023-08-02T11:50:53.000Z</time>
      </trkpt>
      <trkpt lat="43.73448" lon="7.12257">
        <ele>341.20001220703</ele>
        <time>2023-08-02T11:50:54.000Z</time>
      </trkpt>
      <trkpt lat="43.73445" lon="7.12254">
        <ele>341.20001220703</ele>
        <time>2023-08-02T11:50:55.000Z</time>
      </trkpt>
      <trkpt lat="43.73441" lon="7.1225">
        <ele>341.39999389648</ele>
        <time>2023-08-02T11:50:56.000Z</time>
      </trkpt>
      <trkpt lat="43.73438" lon="7.12246">
        <ele>341.39999389648</ele>
        <time>2023-08-02T11:50:57.000Z</time>
      </trkpt>
      <trkpt lat="43.73436" lon="7.12242">
        <ele>341.60000610352</ele>
        <time>2023-08-02T11:50:58.000Z</time>
      </trkpt>
      <trkpt lat="43.73433" lon="7.12238">
        <ele>341.60000610352</ele>
        <time>2023-08-02T11:50:59.000Z</time>
      </trkpt>
      <trkpt lat="43.73431" lon="7.12233">
        <ele>341.60000610352</ele>
        <time>2023-08-02T11:51:00.000Z</time>
      </trkpt>
      <trkpt lat="43.73429" lon="7.12228">
        <ele>341.60000610352</ele>
        <time>2023-08-02T11:51:01.000Z</time>
      </trkpt>
      <trkpt lat="43.73427" lon="7.12223">
        <ele>341.60000610352</ele>
        <time>2023-08-02T11:51:02.000Z</time>
      </trkpt>
      <trkpt lat="43.73425" lon="7.12219">
        <ele>341.60000610352</ele>
        <time>2023-08-02T11:51:03.000Z</time>
      </trkpt>
      <trkpt lat="43.73424" lon="7.12214">
        <ele>341.60000610352</ele>
        <time>2023-08-02T11:51:04.000Z</time>
      </trkpt>
      <trkpt lat="43.73422" lon="7.12209">
        <ele>341.60000610352</ele>
        <time>2023-08-02T11:51:05.000Z</time>
      </trkpt>
      <trkpt lat="43.7342" lon="7.12204">
        <ele>341.60000610352</ele>
        <time>2023-08-02T11:51:06.000Z</time>
      </trkpt>
      <trkpt lat="43.73418" lon="7.12199">
        <ele>341.79998779297</ele>
        <time>2023-08-02T11:51:07.000Z</time>
      </trkpt>
      <trkpt lat="43.73416" lon="7.12194">
        <ele>341.79998779297</ele>
        <time>2023-08-02T11:51:08.000Z</time>
      </trkpt>
      <trkpt lat="43.73414" lon="7.1219">
        <ele>341.79998779297</ele>
        <time>2023-08-02T11:51:09.000Z</time>
      </trkpt>
      <trkpt lat="43.73411" lon="7.12186">
        <ele>341.79998779297</ele>
        <time>2023-08-02T11:51:10.000Z</time>
      </trkpt>
      <trkpt lat="43.73408" lon="7.12181">
        <ele>342</ele>
        <time>2023-08-02T11:51:11.000Z</time>
      </trkpt>
      <trkpt lat="43.73405" lon="7.12177">
        <ele>342</ele>
        <time>2023-08-02T11:51:12.000Z</time>
      </trkpt>
      <trkpt lat="43.73402" lon="7.12173">
        <ele>342.39999389648</ele>
        <time>2023-08-02T11:51:13.000Z</time>
      </trkpt>
      <trkpt lat="43.73398" lon="7.12169">
        <ele>342.39999389648</ele>
        <time>2023-08-02T11:51:14.000Z</time>
      </trkpt>
      <trkpt lat="43.73395" lon="7.12166">
        <ele>342.39999389648</ele>
        <time>2023-08-02T11:51:15.000Z</time>
      </trkpt>
      <trkpt lat="43.73391" lon="7.12163">
        <ele>342.60000610352</ele>
        <time>2023-08-02T11:51:16.000Z</time>
      </trkpt>
      <trkpt lat="43.73387" lon="7.1216">
        <ele>342.60000610352</ele>
        <time>2023-08-02T11:51:17.000Z</time>
      </trkpt>
      <trkpt lat="43.73383" lon="7.12158">
        <ele>342.60000610352</ele>
        <time>2023-08-02T11:51:18.000Z</time>
      </trkpt>
      <trkpt lat="43.7338" lon="7.12155">
        <ele>342.60000610352</ele>
        <time>2023-08-02T11:51:19.000Z</time>
      </trkpt>
      <trkpt lat="43.73376" lon="7.12152">
        <ele>342.79998779297</ele>
        <time>2023-08-02T11:51:20.000Z</time>
      </trkpt>
      <trkpt lat="43.73373" lon="7.12149">
        <ele>342.79998779297</ele>
        <time>2023-08-02T11:51:21.000Z</time>
      </trkpt>
      <trkpt lat="43.73369" lon="7.12147">
        <ele>342.79998779297</ele>
        <time>2023-08-02T11:51:22.000Z</time>
      </trkpt>
      <trkpt lat="43.73366" lon="7.12144">
        <ele>342.79998779297</ele>
        <time>2023-08-02T11:51:23.000Z</time>
      </trkpt>
      <trkpt lat="43.73362" lon="7.12141">
        <ele>342.79998779297</ele>
        <time>2023-08-02T11:51:24.000Z</time>
      </trkpt>
      <trkpt lat="43.73359" lon="7.12138">
        <ele>343</ele>
        <time>2023-08-02T11:51:25.000Z</time>
      </trkpt>
      <trkpt lat="43.73356" lon="7.12134">
        <ele>343</ele>
        <time>2023-08-02T11:51:26.000Z</time>
      </trkpt>
      <trkpt lat="43.73353" lon="7.12131">
        <ele>343</ele>
        <time>2023-08-02T11:51:27.000Z</time>
      </trkpt>
      <trkpt lat="43.7335" lon="7.12128">
        <ele>343</ele>
        <time>2023-08-02T11:51:28.000Z</time>
      </trkpt>
      <trkpt lat="43.73346" lon="7.12125">
        <ele>343</ele>
        <time>2023-08-02T11:51:29.000Z</time>
      </trkpt>
      <trkpt lat="43.73343" lon="7.12121">
        <ele>343.20001220703</ele>
        <time>2023-08-02T11:51:30.000Z</time>
      </trkpt>
      <trkpt lat="43.7334" lon="7.12118">
        <ele>343.20001220703</ele>
        <time>2023-08-02T11:51:31.000Z</time>
      </trkpt>
      <trkpt lat="43.73338" lon="7.12114">
        <ele>343.20001220703</ele>
        <time>2023-08-02T11:51:32.000Z</time>
      </trkpt>
      <trkpt lat="43.73334" lon="7.12111">
        <ele>343.20001220703</ele>
        <time>2023-08-02T11:51:33.000Z</time>
      </trkpt>
      <trkpt lat="43.73331" lon="7.12107">
        <ele>343.39999389648</ele>
        <time>2023-08-02T11:51:34.000Z</time>
      </trkpt>
      <trkpt lat="43.73328" lon="7.12103">
        <ele>343.60000610352</ele>
        <time>2023-08-02T11:51:35.000Z</time>
      </trkpt>
      <trkpt lat="43.73326" lon="7.12099">
        <ele>343.60000610352</ele>
        <time>2023-08-02T11:51:36.000Z</time>
      </trkpt>
      <trkpt lat="43.73322" lon="7.12096">
        <ele>343.60000610352</ele>
        <time>2023-08-02T11:51:37.000Z</time>
      </trkpt>
      <trkpt lat="43.73319" lon="7.12092">
        <ele>343.60000610352</ele>
        <time>2023-08-02T11:51:38.000Z</time>
      </trkpt>
      <trkpt lat="43.73316" lon="7.12089">
        <ele>343.60000610352</ele>
        <time>2023-08-02T11:51:39.000Z</time>
      </trkpt>
      <trkpt lat="43.73313" lon="7.12086">
        <ele>343.60000610352</ele>
        <time>2023-08-02T11:51:40.000Z</time>
      </trkpt>
      <trkpt lat="43.7331" lon="7.12082">
        <ele>343.60000610352</ele>
        <time>2023-08-02T11:51:41.000Z</time>
      </trkpt>
      <trkpt lat="43.73307" lon="7.12078">
        <ele>343.60000610352</ele>
        <time>2023-08-02T11:51:42.000Z</time>
      </trkpt>
      <trkpt lat="43.73303" lon="7.12074">
        <ele>343.60000610352</ele>
        <time>2023-08-02T11:51:43.000Z</time>
      </trkpt>
      <trkpt lat="43.733" lon="7.12071">
        <ele>343.60000610352</ele>
        <time>2023-08-02T11:51:44.000Z</time>
      </trkpt>
      <trkpt lat="43.73297" lon="7.12066">
        <ele>343.60000610352</ele>
        <time>2023-08-02T11:51:45.000Z</time>
      </trkpt>
      <trkpt lat="43.73295" lon="7.12062">
        <ele>343.60000610352</ele>
        <time>2023-08-02T11:51:46.000Z</time>
      </trkpt>
      <trkpt lat="43.73293" lon="7.12057">
        <ele>343.79998779297</ele>
        <time>2023-08-02T11:51:47.000Z</time>
      </trkpt>
      <trkpt lat="43.73291" lon="7.12052">
        <ele>343.79998779297</ele>
        <time>2023-08-02T11:51:48.000Z</time>
      </trkpt>
      <trkpt lat="43.73288" lon="7.12047">
        <ele>343.79998779297</ele>
        <time>2023-08-02T11:51:49.000Z</time>
      </trkpt>
      <trkpt lat="43.73286" lon="7.12042">
        <ele>343.79998779297</ele>
        <time>2023-08-02T11:51:50.000Z</time>
      </trkpt>
      <trkpt lat="43.73285" lon="7.12037">
        <ele>343.79998779297</ele>
        <time>2023-08-02T11:51:51.000Z</time>
      </trkpt>
      <trkpt lat="43.73283" lon="7.12032">
        <ele>344</ele>
        <time>2023-08-02T11:51:52.000Z</time>
      </trkpt>
      <trkpt lat="43.73282" lon="7.12026">
        <ele>344</ele>
        <time>2023-08-02T11:51:53.000Z</time>
      </trkpt>
      <trkpt lat="43.73281" lon="7.1202">
        <ele>344</ele>
        <time>2023-08-02T11:51:54.000Z</time>
      </trkpt>
      <trkpt lat="43.73279" lon="7.12015">
        <ele>344</ele>
        <time>2023-08-02T11:51:55.000Z</time>
      </trkpt>
      <trkpt lat="43.73278" lon="7.1201">
        <ele>344</ele>
        <time>2023-08-02T11:51:56.000Z</time>
      </trkpt>
      <trkpt lat="43.73277" lon="7.12004">
        <ele>344</ele>
        <time>2023-08-02T11:51:57.000Z</time>
      </trkpt>
      <trkpt lat="43.73275" lon="7.11999">
        <ele>344.20001220703</ele>
        <time>2023-08-02T11:51:58.000Z</time>
      </trkpt>
      <trkpt lat="43.73273" lon="7.11994">
        <ele>344.20001220703</ele>
        <time>2023-08-02T11:51:59.000Z</time>
      </trkpt>
      <trkpt lat="43.73271" lon="7.11989">
        <ele>344.20001220703</ele>
        <time>2023-08-02T11:52:00.000Z</time>
      </trkpt>
      <trkpt lat="43.73268" lon="7.11984">
        <ele>344.20001220703</ele>
        <time>2023-08-02T11:52:01.000Z</time>
      </trkpt>
      <trkpt lat="43.73264" lon="7.11981">
        <ele>344.20001220703</ele>
        <time>2023-08-02T11:52:02.000Z</time>
      </trkpt>
      <trkpt lat="43.73261" lon="7.11977">
        <ele>344.20001220703</ele>
        <time>2023-08-02T11:52:03.000Z</time>
      </trkpt>
      <trkpt lat="43.73257" lon="7.11973">
        <ele>344.39999389648</ele>
        <time>2023-08-02T11:52:04.000Z</time>
      </trkpt>
      <trkpt lat="43.73254" lon="7.1197">
        <ele>344.60000610352</ele>
        <time>2023-08-02T11:52:05.000Z</time>
      </trkpt>
      <trkpt lat="43.7325" lon="7.11966">
        <ele>344.60000610352</ele>
        <time>2023-08-02T11:52:06.000Z</time>
      </trkpt>
      <trkpt lat="43.73246" lon="7.11962">
        <ele>344.60000610352</ele>
        <time>2023-08-02T11:52:07.000Z</time>
      </trkpt>
      <trkpt lat="43.73243" lon="7.11959">
        <ele>344.60000610352</ele>
        <time>2023-08-02T11:52:08.000Z</time>
      </trkpt>
      <trkpt lat="43.7324" lon="7.11956">
        <ele>344.60000610352</ele>
        <time>2023-08-02T11:52:09.000Z</time>
      </trkpt>
      <trkpt lat="43.73236" lon="7.11952">
        <ele>344.60000610352</ele>
        <time>2023-08-02T11:52:10.000Z</time>
      </trkpt>
      <trkpt lat="43.73233" lon="7.11948">
        <ele>344.60000610352</ele>
        <time>2023-08-02T11:52:11.000Z</time>
      </trkpt>
      <trkpt lat="43.73229" lon="7.11944">
        <ele>344.60000610352</ele>
        <time>2023-08-02T11:52:12.000Z</time>
      </trkpt>
      <trkpt lat="43.73226" lon="7.1194">
        <ele>344.79998779297</ele>
        <time>2023-08-02T11:52:13.000Z</time>
      </trkpt>
      <trkpt lat="43.73223" lon="7.11937">
        <ele>344.79998779297</ele>
        <time>2023-08-02T11:52:14.000Z</time>
      </trkpt>
      <trkpt lat="43.7322" lon="7.11933">
        <ele>344.79998779297</ele>
        <time>2023-08-02T11:52:15.000Z</time>
      </trkpt>
      <trkpt lat="43.73217" lon="7.11928">
        <ele>344.79998779297</ele>
        <time>2023-08-02T11:52:16.000Z</time>
      </trkpt>
      <trkpt lat="43.73213" lon="7.11924">
        <ele>344.79998779297</ele>
        <time>2023-08-02T11:52:17.000Z</time>
      </trkpt>
      <trkpt lat="43.7321" lon="7.11919">
        <ele>344.79998779297</ele>
        <time>2023-08-02T11:52:18.000Z</time>
      </trkpt>
      <trkpt lat="43.73207" lon="7.11915">
        <ele>344.79998779297</ele>
        <time>2023-08-02T11:52:19.000Z</time>
      </trkpt>
      <trkpt lat="43.73205" lon="7.11911">
        <ele>345</ele>
        <time>2023-08-02T11:52:20.000Z</time>
      </trkpt>
      <trkpt lat="43.73202" lon="7.11907">
        <ele>345</ele>
        <time>2023-08-02T11:52:21.000Z</time>
      </trkpt>
      <trkpt lat="43.73199" lon="7.11904">
        <ele>345.20001220703</ele>
        <time>2023-08-02T11:52:22.000Z</time>
      </trkpt>
      <trkpt lat="43.73196" lon="7.11899">
        <ele>345.20001220703</ele>
        <time>2023-08-02T11:52:23.000Z</time>
      </trkpt>
      <trkpt lat="43.73194" lon="7.11894">
        <ele>345.20001220703</ele>
        <time>2023-08-02T11:52:24.000Z</time>
      </trkpt>
      <trkpt lat="43.73192" lon="7.11889">
        <ele>345.20001220703</ele>
        <time>2023-08-02T11:52:25.000Z</time>
      </trkpt>
      <trkpt lat="43.73189" lon="7.11885">
        <ele>345.39999389648</ele>
        <time>2023-08-02T11:52:26.000Z</time>
      </trkpt>
      <trkpt lat="43.73186" lon="7.11881">
        <ele>345.39999389648</ele>
        <time>2023-08-02T11:52:27.000Z</time>
      </trkpt>
      <trkpt lat="43.73183" lon="7.11878">
        <ele>345.39999389648</ele>
        <time>2023-08-02T11:52:28.000Z</time>
      </trkpt>
      <trkpt lat="43.7318" lon="7.11874">
        <ele>345.60000610352</ele>
        <time>2023-08-02T11:52:29.000Z</time>
      </trkpt>
      <trkpt lat="43.73178" lon="7.1187">
        <ele>345.60000610352</ele>
        <time>2023-08-02T11:52:30.000Z</time>
      </trkpt>
      <trkpt lat="43.73175" lon="7.11865">
        <ele>345.60000610352</ele>
        <time>2023-08-02T11:52:31.000Z</time>
      </trkpt>
      <trkpt lat="43.73173" lon="7.1186">
        <ele>345.79998779297</ele>
        <time>2023-08-02T11:52:32.000Z</time>
      </trkpt>
      <trkpt lat="43.73171" lon="7.11855">
        <ele>345.79998779297</ele>
        <time>2023-08-02T11:52:33.000Z</time>
      </trkpt>
      <trkpt lat="43.73169" lon="7.1185">
        <ele>345.79998779297</ele>
        <time>2023-08-02T11:52:34.000Z</time>
      </trkpt>
      <trkpt lat="43.73168" lon="7.11845">
        <ele>345.79998779297</ele>
        <time>2023-08-02T11:52:35.000Z</time>
      </trkpt>
      <trkpt lat="43.73166" lon="7.1184">
        <ele>345.79998779297</ele>
        <time>2023-08-02T11:52:36.000Z</time>
      </trkpt>
      <trkpt lat="43.73165" lon="7.11834">
        <ele>345.79998779297</ele>
        <time>2023-08-02T11:52:37.000Z</time>
      </trkpt>
      <trkpt lat="43.73162" lon="7.1183">
        <ele>345.79998779297</ele>
        <time>2023-08-02T11:52:38.000Z</time>
      </trkpt>
      <trkpt lat="43.73159" lon="7.11827">
        <ele>345.79998779297</ele>
        <time>2023-08-02T11:52:39.000Z</time>
      </trkpt>
      <trkpt lat="43.73155" lon="7.11825">
        <ele>345.79998779297</ele>
        <time>2023-08-02T11:52:40.000Z</time>
      </trkpt>
      <trkpt lat="43.73151" lon="7.11824">
        <ele>345.79998779297</ele>
        <time>2023-08-02T11:52:41.000Z</time>
      </trkpt>
      <trkpt lat="43.73147" lon="7.11824">
        <ele>346</ele>
        <time>2023-08-02T11:52:42.000Z</time>
      </trkpt>
      <trkpt lat="43.73143" lon="7.11825">
        <ele>346</ele>
        <time>2023-08-02T11:52:43.000Z</time>
      </trkpt>
      <trkpt lat="43.73139" lon="7.11826">
        <ele>346.20001220703</ele>
        <time>2023-08-02T11:52:44.000Z</time>
      </trkpt>
      <trkpt lat="43.73135" lon="7.11827">
        <ele>346.39999389648</ele>
        <time>2023-08-02T11:52:45.000Z</time>
      </trkpt>
      <trkpt lat="43.73131" lon="7.11828">
        <ele>346.39999389648</ele>
        <time>2023-08-02T11:52:46.000Z</time>
      </trkpt>
      <trkpt lat="43.73127" lon="7.1183">
        <ele>346.39999389648</ele>
        <time>2023-08-02T11:52:47.000Z</time>
      </trkpt>
      <trkpt lat="43.73124" lon="7.11832">
        <ele>346.39999389648</ele>
        <time>2023-08-02T11:52:48.000Z</time>
      </trkpt>
      <trkpt lat="43.7312" lon="7.11834">
        <ele>346.60000610352</ele>
        <time>2023-08-02T11:52:49.000Z</time>
      </trkpt>
      <trkpt lat="43.73116" lon="7.11837">
        <ele>346.79998779297</ele>
        <time>2023-08-02T11:52:50.000Z</time>
      </trkpt>
      <trkpt lat="43.73113" lon="7.11838">
        <ele>347</ele>
        <time>2023-08-02T11:52:51.000Z</time>
      </trkpt>
      <trkpt lat="43.73109" lon="7.1184">
        <ele>347</ele>
        <time>2023-08-02T11:52:52.000Z</time>
      </trkpt>
      <trkpt lat="43.73105" lon="7.11842">
        <ele>347</ele>
        <time>2023-08-02T11:52:53.000Z</time>
      </trkpt>
      <trkpt lat="43.73101" lon="7.11844">
        <ele>347</ele>
        <time>2023-08-02T11:52:54.000Z</time>
      </trkpt>
      <trkpt lat="43.73098" lon="7.11846">
        <ele>347.20001220703</ele>
        <time>2023-08-02T11:52:55.000Z</time>
      </trkpt>
      <trkpt lat="43.73094" lon="7.11846">
        <ele>347.20001220703</ele>
        <time>2023-08-02T11:52:56.000Z</time>
      </trkpt>
      <trkpt lat="43.73089" lon="7.11847">
        <ele>347.20001220703</ele>
        <time>2023-08-02T11:52:57.000Z</time>
      </trkpt>
      <trkpt lat="43.73085" lon="7.11848">
        <ele>347.20001220703</ele>
        <time>2023-08-02T11:52:58.000Z</time>
      </trkpt>
      <trkpt lat="43.73081" lon="7.11848">
        <ele>347.20001220703</ele>
        <time>2023-08-02T11:52:59.000Z</time>
      </trkpt>
      <trkpt lat="43.73076" lon="7.11849">
        <ele>347.20001220703</ele>
        <time>2023-08-02T11:53:00.000Z</time>
      </trkpt>
      <trkpt lat="43.73072" lon="7.1185">
        <ele>347.20001220703</ele>
        <time>2023-08-02T11:53:01.000Z</time>
      </trkpt>
      <trkpt lat="43.73068" lon="7.11851">
        <ele>347.39999389648</ele>
        <time>2023-08-02T11:53:02.000Z</time>
      </trkpt>
      <trkpt lat="43.73063" lon="7.11851">
        <ele>347.39999389648</ele>
        <time>2023-08-02T11:53:03.000Z</time>
      </trkpt>
      <trkpt lat="43.73059" lon="7.11851">
        <ele>347.60000610352</ele>
        <time>2023-08-02T11:53:04.000Z</time>
      </trkpt>
      <trkpt lat="43.73054" lon="7.11851">
        <ele>347.60000610352</ele>
        <time>2023-08-02T11:53:05.000Z</time>
      </trkpt>
      <trkpt lat="43.7305" lon="7.11851">
        <ele>347.60000610352</ele>
        <time>2023-08-02T11:53:06.000Z</time>
      </trkpt>
      <trkpt lat="43.73046" lon="7.11851">
        <ele>347.79998779297</ele>
        <time>2023-08-02T11:53:07.000Z</time>
      </trkpt>
      <trkpt lat="43.73042" lon="7.11852">
        <ele>348</ele>
        <time>2023-08-02T11:53:08.000Z</time>
      </trkpt>
      <trkpt lat="43.73037" lon="7.11852">
        <ele>348</ele>
        <time>2023-08-02T11:53:09.000Z</time>
      </trkpt>
      <trkpt lat="43.73033" lon="7.11852">
        <ele>348.20001220703</ele>
        <time>2023-08-02T11:53:10.000Z</time>
      </trkpt>
      <trkpt lat="43.73029" lon="7.11853">
        <ele>348.20001220703</ele>
        <time>2023-08-02T11:53:11.000Z</time>
      </trkpt>
      <trkpt lat="43.73025" lon="7.11853">
        <ele>348.20001220703</ele>
        <time>2023-08-02T11:53:12.000Z</time>
      </trkpt>
      <trkpt lat="43.73021" lon="7.11853">
        <ele>348.20001220703</ele>
        <time>2023-08-02T11:53:13.000Z</time>
      </trkpt>
      <trkpt lat="43.73016" lon="7.11853">
        <ele>348.39999389648</ele>
        <time>2023-08-02T11:53:14.000Z</time>
      </trkpt>
      <trkpt lat="43.73012" lon="7.11852">
        <ele>348.39999389648</ele>
        <time>2023-08-02T11:53:15.000Z</time>
      </trkpt>
      <trkpt lat="43.73008" lon="7.11852">
        <ele>348.39999389648</ele>
        <time>2023-08-02T11:53:16.000Z</time>
      </trkpt>
      <trkpt lat="43.73003" lon="7.11851">
        <ele>348.39999389648</ele>
        <time>2023-08-02T11:53:17.000Z</time>
      </trkpt>
      <trkpt lat="43.72999" lon="7.11849">
        <ele>348.20001220703</ele>
        <time>2023-08-02T11:53:18.000Z</time>
      </trkpt>
      <trkpt lat="43.72995" lon="7.11848">
        <ele>348.20001220703</ele>
        <time>2023-08-02T11:53:19.000Z</time>
      </trkpt>
      <trkpt lat="43.72991" lon="7.11846">
        <ele>348.20001220703</ele>
        <time>2023-08-02T11:53:20.000Z</time>
      </trkpt>
      <trkpt lat="43.72987" lon="7.11844">
        <ele>348.20001220703</ele>
        <time>2023-08-02T11:53:21.000Z</time>
      </trkpt>
      <trkpt lat="43.72983" lon="7.11843">
        <ele>348.20001220703</ele>
        <time>2023-08-02T11:53:22.000Z</time>
      </trkpt>
      <trkpt lat="43.72979" lon="7.11841">
        <ele>348.20001220703</ele>
        <time>2023-08-02T11:53:23.000Z</time>
      </trkpt>
      <trkpt lat="43.72976" lon="7.11839">
        <ele>348.20001220703</ele>
        <time>2023-08-02T11:53:24.000Z</time>
      </trkpt>
      <trkpt lat="43.72972" lon="7.11837">
        <ele>348.39999389648</ele>
        <time>2023-08-02T11:53:25.000Z</time>
      </trkpt>
      <trkpt lat="43.72968" lon="7.11835">
        <ele>348.39999389648</ele>
        <time>2023-08-02T11:53:26.000Z</time>
      </trkpt>
      <trkpt lat="43.72964" lon="7.11833">
        <ele>348.39999389648</ele>
        <time>2023-08-02T11:53:27.000Z</time>
      </trkpt>
      <trkpt lat="43.7296" lon="7.11831">
        <ele>348.60000610352</ele>
        <time>2023-08-02T11:53:28.000Z</time>
      </trkpt>
      <trkpt lat="43.72956" lon="7.11829">
        <ele>348.60000610352</ele>
        <time>2023-08-02T11:53:29.000Z</time>
      </trkpt>
      <trkpt lat="43.72952" lon="7.11827">
        <ele>348.79998779297</ele>
        <time>2023-08-02T11:53:30.000Z</time>
      </trkpt>
      <trkpt lat="43.72949" lon="7.11825">
        <ele>348.79998779297</ele>
        <time>2023-08-02T11:53:31.000Z</time>
      </trkpt>
      <trkpt lat="43.72945" lon="7.11822">
        <ele>349</ele>
        <time>2023-08-02T11:53:32.000Z</time>
      </trkpt>
      <trkpt lat="43.72941" lon="7.1182">
        <ele>349</ele>
        <time>2023-08-02T11:53:33.000Z</time>
      </trkpt>
      <trkpt lat="43.72936" lon="7.11818">
        <ele>349</ele>
        <time>2023-08-02T11:53:34.000Z</time>
      </trkpt>
      <trkpt lat="43.72933" lon="7.11816">
        <ele>349.20001220703</ele>
        <time>2023-08-02T11:53:35.000Z</time>
      </trkpt>
      <trkpt lat="43.72928" lon="7.11814">
        <ele>349.39999389648</ele>
        <time>2023-08-02T11:53:36.000Z</time>
      </trkpt>
      <trkpt lat="43.72924" lon="7.11811">
        <ele>349.39999389648</ele>
        <time>2023-08-02T11:53:37.000Z</time>
      </trkpt>
      <trkpt lat="43.7292" lon="7.11809">
        <ele>349.60000610352</ele>
        <time>2023-08-02T11:53:38.000Z</time>
      </trkpt>
      <trkpt lat="43.72917" lon="7.11807">
        <ele>349.60000610352</ele>
        <time>2023-08-02T11:53:39.000Z</time>
      </trkpt>
      <trkpt lat="43.72913" lon="7.11805">
        <ele>349.39999389648</ele>
        <time>2023-08-02T11:53:40.000Z</time>
      </trkpt>
      <trkpt lat="43.72908" lon="7.11802">
        <ele>349.39999389648</ele>
        <time>2023-08-02T11:53:41.000Z</time>
      </trkpt>
      <trkpt lat="43.72905" lon="7.118">
        <ele>349.39999389648</ele>
        <time>2023-08-02T11:53:42.000Z</time>
      </trkpt>
      <trkpt lat="43.72901" lon="7.11798">
        <ele>349.39999389648</ele>
        <time>2023-08-02T11:53:43.000Z</time>
      </trkpt>
      <trkpt lat="43.72897" lon="7.11795">
        <ele>349.39999389648</ele>
        <time>2023-08-02T11:53:44.000Z</time>
      </trkpt>
      <trkpt lat="43.72894" lon="7.11792">
        <ele>349.39999389648</ele>
        <time>2023-08-02T11:53:45.000Z</time>
      </trkpt>
      <trkpt lat="43.7289" lon="7.11789">
        <ele>349.60000610352</ele>
        <time>2023-08-02T11:53:46.000Z</time>
      </trkpt>
      <trkpt lat="43.72886" lon="7.11787">
        <ele>349.60000610352</ele>
        <time>2023-08-02T11:53:47.000Z</time>
      </trkpt>
      <trkpt lat="43.72882" lon="7.11784">
        <ele>349.60000610352</ele>
        <time>2023-08-02T11:53:48.000Z</time>
      </trkpt>
      <trkpt lat="43.72877" lon="7.11781">
        <ele>349.60000610352</ele>
        <time>2023-08-02T11:53:49.000Z</time>
      </trkpt>
      <trkpt lat="43.72873" lon="7.11779">
        <ele>349.60000610352</ele>
        <time>2023-08-02T11:53:50.000Z</time>
      </trkpt>
      <trkpt lat="43.72869" lon="7.11777">
        <ele>349.60000610352</ele>
        <time>2023-08-02T11:53:51.000Z</time>
      </trkpt>
      <trkpt lat="43.72864" lon="7.11775">
        <ele>349.39999389648</ele>
        <time>2023-08-02T11:53:52.000Z</time>
      </trkpt>
      <trkpt lat="43.7286" lon="7.11773">
        <ele>349.39999389648</ele>
        <time>2023-08-02T11:53:53.000Z</time>
      </trkpt>
      <trkpt lat="43.72855" lon="7.1177">
        <ele>349.39999389648</ele>
        <time>2023-08-02T11:53:54.000Z</time>
      </trkpt>
      <trkpt lat="43.72851" lon="7.11768">
        <ele>349.39999389648</ele>
        <time>2023-08-02T11:53:55.000Z</time>
      </trkpt>
      <trkpt lat="43.72846" lon="7.11766">
        <ele>349.39999389648</ele>
        <time>2023-08-02T11:53:56.000Z</time>
      </trkpt>
      <trkpt lat="43.72842" lon="7.11764">
        <ele>349.39999389648</ele>
        <time>2023-08-02T11:53:57.000Z</time>
      </trkpt>
      <trkpt lat="43.72837" lon="7.11761">
        <ele>349.39999389648</ele>
        <time>2023-08-02T11:53:58.000Z</time>
      </trkpt>
      <trkpt lat="43.72833" lon="7.11758">
        <ele>349.20001220703</ele>
        <time>2023-08-02T11:53:59.000Z</time>
      </trkpt>
      <trkpt lat="43.72829" lon="7.11754">
        <ele>349.20001220703</ele>
        <time>2023-08-02T11:54:00.000Z</time>
      </trkpt>
      <trkpt lat="43.72825" lon="7.11749">
        <ele>349</ele>
        <time>2023-08-02T11:54:01.000Z</time>
      </trkpt>
      <trkpt lat="43.72822" lon="7.11745">
        <ele>348.79998779297</ele>
        <time>2023-08-02T11:54:02.000Z</time>
      </trkpt>
      <trkpt lat="43.72819" lon="7.1174">
        <ele>348.79998779297</ele>
        <time>2023-08-02T11:54:03.000Z</time>
      </trkpt>
      <trkpt lat="43.72816" lon="7.11733">
        <ele>348.79998779297</ele>
        <time>2023-08-02T11:54:04.000Z</time>
      </trkpt>
      <trkpt lat="43.72814" lon="7.11727">
        <ele>348.60000610352</ele>
        <time>2023-08-02T11:54:05.000Z</time>
      </trkpt>
      <trkpt lat="43.72813" lon="7.11721">
        <ele>348.60000610352</ele>
        <time>2023-08-02T11:54:06.000Z</time>
      </trkpt>
      <trkpt lat="43.72812" lon="7.11714">
        <ele>348.60000610352</ele>
        <time>2023-08-02T11:54:07.000Z</time>
      </trkpt>
      <trkpt lat="43.72812" lon="7.11707">
        <ele>348.60000610352</ele>
        <time>2023-08-02T11:54:08.000Z</time>
      </trkpt>
      <trkpt lat="43.72812" lon="7.11702">
        <ele>348.39999389648</ele>
        <time>2023-08-02T11:54:09.000Z</time>
      </trkpt>
      <trkpt lat="43.72813" lon="7.11695">
        <ele>348.20001220703</ele>
        <time>2023-08-02T11:54:10.000Z</time>
      </trkpt>
      <trkpt lat="43.72814" lon="7.11688">
        <ele>348</ele>
        <time>2023-08-02T11:54:11.000Z</time>
      </trkpt>
      <trkpt lat="43.72816" lon="7.1168">
        <ele>348</ele>
        <time>2023-08-02T11:54:12.000Z</time>
      </trkpt>
      <trkpt lat="43.72819" lon="7.11673">
        <ele>348</ele>
        <time>2023-08-02T11:54:13.000Z</time>
      </trkpt>
      <trkpt lat="43.72822" lon="7.11665">
        <ele>348</ele>
        <time>2023-08-02T11:54:14.000Z</time>
      </trkpt>
      <trkpt lat="43.72825" lon="7.11658">
        <ele>347.79998779297</ele>
        <time>2023-08-02T11:54:15.000Z</time>
      </trkpt>
      <trkpt lat="43.72828" lon="7.11651">
        <ele>347.79998779297</ele>
        <time>2023-08-02T11:54:16.000Z</time>
      </trkpt>
      <trkpt lat="43.72831" lon="7.11644">
        <ele>347.60000610352</ele>
        <time>2023-08-02T11:54:17.000Z</time>
      </trkpt>
      <trkpt lat="43.72833" lon="7.11638">
        <ele>347.60000610352</ele>
        <time>2023-08-02T11:54:18.000Z</time>
      </trkpt>
      <trkpt lat="43.72835" lon="7.11632">
        <ele>347.39999389648</ele>
        <time>2023-08-02T11:54:19.000Z</time>
      </trkpt>
      <trkpt lat="43.72837" lon="7.11625">
        <ele>347.39999389648</ele>
        <time>2023-08-02T11:54:20.000Z</time>
      </trkpt>
      <trkpt lat="43.72839" lon="7.11617">
        <ele>347.39999389648</ele>
        <time>2023-08-02T11:54:21.000Z</time>
      </trkpt>
      <trkpt lat="43.72841" lon="7.11611">
        <ele>347.20001220703</ele>
        <time>2023-08-02T11:54:22.000Z</time>
      </trkpt>
      <trkpt lat="43.72843" lon="7.11604">
        <ele>347.20001220703</ele>
        <time>2023-08-02T11:54:23.000Z</time>
      </trkpt>
      <trkpt lat="43.72845" lon="7.11598">
        <ele>347.20001220703</ele>
        <time>2023-08-02T11:54:24.000Z</time>
      </trkpt>
      <trkpt lat="43.72847" lon="7.11591">
        <ele>347</ele>
        <time>2023-08-02T11:54:25.000Z</time>
      </trkpt>
      <trkpt lat="43.7285" lon="7.11586">
        <ele>346.79998779297</ele>
        <time>2023-08-02T11:54:26.000Z</time>
      </trkpt>
      <trkpt lat="43.72853" lon="7.11581">
        <ele>346.79998779297</ele>
        <time>2023-08-02T11:54:27.000Z</time>
      </trkpt>
      <trkpt lat="43.72857" lon="7.11576">
        <ele>346.79998779297</ele>
        <time>2023-08-02T11:54:28.000Z</time>
      </trkpt>
      <trkpt lat="43.72861" lon="7.11572">
        <ele>346.60000610352</ele>
        <time>2023-08-02T11:54:29.000Z</time>
      </trkpt>
      <trkpt lat="43.72864" lon="7.11567">
        <ele>346.60000610352</ele>
        <time>2023-08-02T11:54:30.000Z</time>
      </trkpt>
      <trkpt lat="43.72868" lon="7.11562">
        <ele>346.60000610352</ele>
        <time>2023-08-02T11:54:31.000Z</time>
      </trkpt>
      <trkpt lat="43.72872" lon="7.11557">
        <ele>346.39999389648</ele>
        <time>2023-08-02T11:54:32.000Z</time>
      </trkpt>
      <trkpt lat="43.72876" lon="7.11552">
        <ele>346.20001220703</ele>
        <time>2023-08-02T11:54:33.000Z</time>
      </trkpt>
      <trkpt lat="43.7288" lon="7.11546">
        <ele>346.20001220703</ele>
        <time>2023-08-02T11:54:34.000Z</time>
      </trkpt>
      <trkpt lat="43.72883" lon="7.11541">
        <ele>346</ele>
        <time>2023-08-02T11:54:35.000Z</time>
      </trkpt>
      <trkpt lat="43.72886" lon="7.11534">
        <ele>345.79998779297</ele>
        <time>2023-08-02T11:54:36.000Z</time>
      </trkpt>
      <trkpt lat="43.72889" lon="7.11528">
        <ele>345.79998779297</ele>
        <time>2023-08-02T11:54:37.000Z</time>
      </trkpt>
      <trkpt lat="43.72891" lon="7.11521">
        <ele>345.79998779297</ele>
        <time>2023-08-02T11:54:38.000Z</time>
      </trkpt>
      <trkpt lat="43.72893" lon="7.11515">
        <ele>345.39999389648</ele>
        <time>2023-08-02T11:54:39.000Z</time>
      </trkpt>
      <trkpt lat="43.72895" lon="7.11508">
        <ele>345.39999389648</ele>
        <time>2023-08-02T11:54:40.000Z</time>
      </trkpt>
      <trkpt lat="43.72897" lon="7.11501">
        <ele>345.39999389648</ele>
        <time>2023-08-02T11:54:41.000Z</time>
      </trkpt>
      <trkpt lat="43.72898" lon="7.11494">
        <ele>345.39999389648</ele>
        <time>2023-08-02T11:54:42.000Z</time>
      </trkpt>
      <trkpt lat="43.72899" lon="7.11487">
        <ele>345.20001220703</ele>
        <time>2023-08-02T11:54:43.000Z</time>
      </trkpt>
      <trkpt lat="43.72901" lon="7.1148">
        <ele>345</ele>
        <time>2023-08-02T11:54:44.000Z</time>
      </trkpt>
      <trkpt lat="43.72902" lon="7.11472">
        <ele>344.79998779297</ele>
        <time>2023-08-02T11:54:45.000Z</time>
      </trkpt>
      <trkpt lat="43.72904" lon="7.11465">
        <ele>344.79998779297</ele>
        <time>2023-08-02T11:54:46.000Z</time>
      </trkpt>
      <trkpt lat="43.72905" lon="7.11458">
        <ele>344.60000610352</ele>
        <time>2023-08-02T11:54:47.000Z</time>
      </trkpt>
      <trkpt lat="43.72907" lon="7.1145">
        <ele>344.60000610352</ele>
        <time>2023-08-02T11:54:48.000Z</time>
      </trkpt>
      <trkpt lat="43.72907" lon="7.11442">
        <ele>344.39999389648</ele>
        <time>2023-08-02T11:54:49.000Z</time>
      </trkpt>
      <trkpt lat="43.72906" lon="7.11434">
        <ele>344.39999389648</ele>
        <time>2023-08-02T11:54:50.000Z</time>
      </trkpt>
      <trkpt lat="43.72905" lon="7.11426">
        <ele>344.39999389648</ele>
        <time>2023-08-02T11:54:51.000Z</time>
      </trkpt>
      <trkpt lat="43.72903" lon="7.11419">
        <ele>344.39999389648</ele>
        <time>2023-08-02T11:54:52.000Z</time>
      </trkpt>
      <trkpt lat="43.72901" lon="7.11412">
        <ele>344.20001220703</ele>
        <time>2023-08-02T11:54:53.000Z</time>
      </trkpt>
      <trkpt lat="43.72898" lon="7.11405">
        <ele>344.20001220703</ele>
        <time>2023-08-02T11:54:54.000Z</time>
      </trkpt>
      <trkpt lat="43.72894" lon="7.11399">
        <ele>343.79998779297</ele>
        <time>2023-08-02T11:54:55.000Z</time>
      </trkpt>
      <trkpt lat="43.7289" lon="7.11393">
        <ele>343.79998779297</ele>
        <time>2023-08-02T11:54:56.000Z</time>
      </trkpt>
      <trkpt lat="43.72886" lon="7.11388">
        <ele>343.79998779297</ele>
        <time>2023-08-02T11:54:57.000Z</time>
      </trkpt>
      <trkpt lat="43.72881" lon="7.11384">
        <ele>343.60000610352</ele>
        <time>2023-08-02T11:54:58.000Z</time>
      </trkpt>
      <trkpt lat="43.72876" lon="7.11381">
        <ele>343.60000610352</ele>
        <time>2023-08-02T11:54:59.000Z</time>
      </trkpt>
      <trkpt lat="43.7287" lon="7.11379">
        <ele>343.60000610352</ele>
        <time>2023-08-02T11:55:00.000Z</time>
      </trkpt>
      <trkpt lat="43.72864" lon="7.11377">
        <ele>343.60000610352</ele>
        <time>2023-08-02T11:55:01.000Z</time>
      </trkpt>
      <trkpt lat="43.72859" lon="7.11375">
        <ele>343.60000610352</ele>
        <time>2023-08-02T11:55:02.000Z</time>
      </trkpt>
      <trkpt lat="43.72853" lon="7.11372">
        <ele>343.39999389648</ele>
        <time>2023-08-02T11:55:03.000Z</time>
      </trkpt>
      <trkpt lat="43.72847" lon="7.1137">
        <ele>343.20001220703</ele>
        <time>2023-08-02T11:55:04.000Z</time>
      </trkpt>
      <trkpt lat="43.72842" lon="7.11367">
        <ele>343</ele>
        <time>2023-08-02T11:55:05.000Z</time>
      </trkpt>
      <trkpt lat="43.72836" lon="7.11365">
        <ele>343</ele>
        <time>2023-08-02T11:55:06.000Z</time>
      </trkpt>
      <trkpt lat="43.7283" lon="7.11363">
        <ele>342.79998779297</ele>
        <time>2023-08-02T11:55:07.000Z</time>
      </trkpt>
      <trkpt lat="43.72825" lon="7.11361">
        <ele>342.79998779297</ele>
        <time>2023-08-02T11:55:08.000Z</time>
      </trkpt>
      <trkpt lat="43.72819" lon="7.11358">
        <ele>342.60000610352</ele>
        <time>2023-08-02T11:55:09.000Z</time>
      </trkpt>
      <trkpt lat="43.72814" lon="7.11357">
        <ele>342.60000610352</ele>
        <time>2023-08-02T11:55:10.000Z</time>
      </trkpt>
      <trkpt lat="43.72808" lon="7.11355">
        <ele>342.60000610352</ele>
        <time>2023-08-02T11:55:11.000Z</time>
      </trkpt>
      <trkpt lat="43.72802" lon="7.11352">
        <ele>342.39999389648</ele>
        <time>2023-08-02T11:55:12.000Z</time>
      </trkpt>
      <trkpt lat="43.72797" lon="7.11349">
        <ele>342.39999389648</ele>
        <time>2023-08-02T11:55:13.000Z</time>
      </trkpt>
      <trkpt lat="43.72792" lon="7.11344">
        <ele>342.20001220703</ele>
        <time>2023-08-02T11:55:14.000Z</time>
      </trkpt>
      <trkpt lat="43.72787" lon="7.11339">
        <ele>341.79998779297</ele>
        <time>2023-08-02T11:55:15.000Z</time>
      </trkpt>
      <trkpt lat="43.72783" lon="7.11333">
        <ele>341.79998779297</ele>
        <time>2023-08-02T11:55:16.000Z</time>
      </trkpt>
      <trkpt lat="43.7278" lon="7.11326">
        <ele>341.60000610352</ele>
        <time>2023-08-02T11:55:17.000Z</time>
      </trkpt>
      <trkpt lat="43.72778" lon="7.11319">
        <ele>341.60000610352</ele>
        <time>2023-08-02T11:55:18.000Z</time>
      </trkpt>
      <trkpt lat="43.72775" lon="7.11311">
        <ele>341.39999389648</ele>
        <time>2023-08-02T11:55:19.000Z</time>
      </trkpt>
      <trkpt lat="43.72773" lon="7.11303">
        <ele>341.20001220703</ele>
        <time>2023-08-02T11:55:20.000Z</time>
      </trkpt>
      <trkpt lat="43.72771" lon="7.11295">
        <ele>341</ele>
        <time>2023-08-02T11:55:21.000Z</time>
      </trkpt>
      <trkpt lat="43.72769" lon="7.11287">
        <ele>340.79998779297</ele>
        <time>2023-08-02T11:55:22.000Z</time>
      </trkpt>
      <trkpt lat="43.72767" lon="7.11278">
        <ele>340.60000610352</ele>
        <time>2023-08-02T11:55:23.000Z</time>
      </trkpt>
      <trkpt lat="43.72765" lon="7.1127">
        <ele>340.39999389648</ele>
        <time>2023-08-02T11:55:24.000Z</time>
      </trkpt>
      <trkpt lat="43.72763" lon="7.11263">
        <ele>340.20001220703</ele>
        <time>2023-08-02T11:55:25.000Z</time>
      </trkpt>
      <trkpt lat="43.7276" lon="7.11256">
        <ele>340.20001220703</ele>
        <time>2023-08-02T11:55:26.000Z</time>
      </trkpt>
      <trkpt lat="43.72758" lon="7.11248">
        <ele>340.20001220703</ele>
        <time>2023-08-02T11:55:27.000Z</time>
      </trkpt>
      <trkpt lat="43.72756" lon="7.1124">
        <ele>339.79998779297</ele>
        <time>2023-08-02T11:55:28.000Z</time>
      </trkpt>
      <trkpt lat="43.72754" lon="7.11233">
        <ele>339.60000610352</ele>
        <time>2023-08-02T11:55:29.000Z</time>
      </trkpt>
      <trkpt lat="43.72751" lon="7.11225">
        <ele>339.60000610352</ele>
        <time>2023-08-02T11:55:30.000Z</time>
      </trkpt>
      <trkpt lat="43.72749" lon="7.11218">
        <ele>339.60000610352</ele>
        <time>2023-08-02T11:55:31.000Z</time>
      </trkpt>
      <trkpt lat="43.72746" lon="7.11211">
        <ele>339.39999389648</ele>
        <time>2023-08-02T11:55:32.000Z</time>
      </trkpt>
      <trkpt lat="43.72744" lon="7.11204">
        <ele>339.20001220703</ele>
        <time>2023-08-02T11:55:33.000Z</time>
      </trkpt>
      <trkpt lat="43.72742" lon="7.11196">
        <ele>339</ele>
        <time>2023-08-02T11:55:34.000Z</time>
      </trkpt>
      <trkpt lat="43.7274" lon="7.11189">
        <ele>339</ele>
        <time>2023-08-02T11:55:35.000Z</time>
      </trkpt>
      <trkpt lat="43.72738" lon="7.11181">
        <ele>338.79998779297</ele>
        <time>2023-08-02T11:55:36.000Z</time>
      </trkpt>
      <trkpt lat="43.72736" lon="7.11173">
        <ele>338.79998779297</ele>
        <time>2023-08-02T11:55:37.000Z</time>
      </trkpt>
      <trkpt lat="43.72734" lon="7.11164">
        <ele>338.39999389648</ele>
        <time>2023-08-02T11:55:38.000Z</time>
      </trkpt>
      <trkpt lat="43.72732" lon="7.11157">
        <ele>338.39999389648</ele>
        <time>2023-08-02T11:55:39.000Z</time>
      </trkpt>
      <trkpt lat="43.72729" lon="7.11149">
        <ele>338.20001220703</ele>
        <time>2023-08-02T11:55:40.000Z</time>
      </trkpt>
      <trkpt lat="43.72725" lon="7.11142">
        <ele>338.20001220703</ele>
        <time>2023-08-02T11:55:41.000Z</time>
      </trkpt>
      <trkpt lat="43.72721" lon="7.11136">
        <ele>338.20001220703</ele>
        <time>2023-08-02T11:55:42.000Z</time>
      </trkpt>
      <trkpt lat="43.72718" lon="7.1113">
        <ele>338.20001220703</ele>
        <time>2023-08-02T11:55:43.000Z</time>
      </trkpt>
      <trkpt lat="43.72713" lon="7.11125">
        <ele>338</ele>
        <time>2023-08-02T11:55:44.000Z</time>
      </trkpt>
      <trkpt lat="43.72708" lon="7.11121">
        <ele>338</ele>
        <time>2023-08-02T11:55:45.000Z</time>
      </trkpt>
      <trkpt lat="43.72704" lon="7.11116">
        <ele>337.79998779297</ele>
        <time>2023-08-02T11:55:46.000Z</time>
      </trkpt>
      <trkpt lat="43.72698" lon="7.11112">
        <ele>337.60000610352</ele>
        <time>2023-08-02T11:55:47.000Z</time>
      </trkpt>
      <trkpt lat="43.72693" lon="7.11107">
        <ele>337.39999389648</ele>
        <time>2023-08-02T11:55:48.000Z</time>
      </trkpt>
      <trkpt lat="43.72688" lon="7.11102">
        <ele>337.20001220703</ele>
        <time>2023-08-02T11:55:49.000Z</time>
      </trkpt>
      <trkpt lat="43.72682" lon="7.11097">
        <ele>337.20001220703</ele>
        <time>2023-08-02T11:55:50.000Z</time>
      </trkpt>
      <trkpt lat="43.72677" lon="7.11092">
        <ele>336.79998779297</ele>
        <time>2023-08-02T11:55:51.000Z</time>
      </trkpt>
      <trkpt lat="43.72673" lon="7.11085">
        <ele>336.79998779297</ele>
        <time>2023-08-02T11:55:52.000Z</time>
      </trkpt>
      <trkpt lat="43.7267" lon="7.11077">
        <ele>336.39999389648</ele>
        <time>2023-08-02T11:55:53.000Z</time>
      </trkpt>
      <trkpt lat="43.72668" lon="7.11068">
        <ele>336.20001220703</ele>
        <time>2023-08-02T11:55:54.000Z</time>
      </trkpt>
      <trkpt lat="43.72667" lon="7.11059">
        <ele>336</ele>
        <time>2023-08-02T11:55:55.000Z</time>
      </trkpt>
      <trkpt lat="43.72668" lon="7.11049">
        <ele>335.79998779297</ele>
        <time>2023-08-02T11:55:56.000Z</time>
      </trkpt>
      <trkpt lat="43.72669" lon="7.1104">
        <ele>335.60000610352</ele>
        <time>2023-08-02T11:55:57.000Z</time>
      </trkpt>
      <trkpt lat="43.72671" lon="7.11032">
        <ele>335.60000610352</ele>
        <time>2023-08-02T11:55:58.000Z</time>
      </trkpt>
      <trkpt lat="43.72673" lon="7.11023">
        <ele>335.39999389648</ele>
        <time>2023-08-02T11:55:59.000Z</time>
      </trkpt>
      <trkpt lat="43.72676" lon="7.11015">
        <ele>335.39999389648</ele>
        <time>2023-08-02T11:56:00.000Z</time>
      </trkpt>
      <trkpt lat="43.72677" lon="7.11007">
        <ele>335.20001220703</ele>
        <time>2023-08-02T11:56:01.000Z</time>
      </trkpt>
      <trkpt lat="43.72677" lon="7.10999">
        <ele>335</ele>
        <time>2023-08-02T11:56:02.000Z</time>
      </trkpt>
      <trkpt lat="43.72676" lon="7.10991">
        <ele>335</ele>
        <time>2023-08-02T11:56:03.000Z</time>
      </trkpt>
      <trkpt lat="43.72674" lon="7.10983">
        <ele>335</ele>
        <time>2023-08-02T11:56:04.000Z</time>
      </trkpt>
      <trkpt lat="43.72671" lon="7.10975">
        <ele>334.79998779297</ele>
        <time>2023-08-02T11:56:05.000Z</time>
      </trkpt>
      <trkpt lat="43.72667" lon="7.10969">
        <ele>334.79998779297</ele>
        <time>2023-08-02T11:56:06.000Z</time>
      </trkpt>
      <trkpt lat="43.72662" lon="7.10962">
        <ele>334.60000610352</ele>
        <time>2023-08-02T11:56:07.000Z</time>
      </trkpt>
      <trkpt lat="43.72658" lon="7.10957">
        <ele>334.39999389648</ele>
        <time>2023-08-02T11:56:08.000Z</time>
      </trkpt>
      <trkpt lat="43.72652" lon="7.10953">
        <ele>334.39999389648</ele>
        <time>2023-08-02T11:56:09.000Z</time>
      </trkpt>
      <trkpt lat="43.72646" lon="7.1095">
        <ele>334.39999389648</ele>
        <time>2023-08-02T11:56:10.000Z</time>
      </trkpt>
      <trkpt lat="43.7264" lon="7.10947">
        <ele>334</ele>
        <time>2023-08-02T11:56:11.000Z</time>
      </trkpt>
      <trkpt lat="43.72634" lon="7.10944">
        <ele>334</ele>
        <time>2023-08-02T11:56:12.000Z</time>
      </trkpt>
      <trkpt lat="43.72629" lon="7.10941">
        <ele>334</ele>
        <time>2023-08-02T11:56:13.000Z</time>
      </trkpt>
      <trkpt lat="43.72623" lon="7.10938">
        <ele>333.79998779297</ele>
        <time>2023-08-02T11:56:14.000Z</time>
      </trkpt>
      <trkpt lat="43.72617" lon="7.10935">
        <ele>333.79998779297</ele>
        <time>2023-08-02T11:56:15.000Z</time>
      </trkpt>
      <trkpt lat="43.72612" lon="7.10932">
        <ele>333.60000610352</ele>
        <time>2023-08-02T11:56:16.000Z</time>
      </trkpt>
      <trkpt lat="43.72607" lon="7.10927">
        <ele>333.60000610352</ele>
        <time>2023-08-02T11:56:17.000Z</time>
      </trkpt>
      <trkpt lat="43.72603" lon="7.10921">
        <ele>333.60000610352</ele>
        <time>2023-08-02T11:56:18.000Z</time>
      </trkpt>
      <trkpt lat="43.72598" lon="7.10916">
        <ele>333.39999389648</ele>
        <time>2023-08-02T11:56:19.000Z</time>
      </trkpt>
      <trkpt lat="43.72593" lon="7.10911">
        <ele>333.20001220703</ele>
        <time>2023-08-02T11:56:20.000Z</time>
      </trkpt>
      <trkpt lat="43.72588" lon="7.10905">
        <ele>333.20001220703</ele>
        <time>2023-08-02T11:56:21.000Z</time>
      </trkpt>
      <trkpt lat="43.72584" lon="7.10899">
        <ele>333.20001220703</ele>
        <time>2023-08-02T11:56:22.000Z</time>
      </trkpt>
      <trkpt lat="43.7258" lon="7.10893">
        <ele>333.20001220703</ele>
        <time>2023-08-02T11:56:23.000Z</time>
      </trkpt>
      <trkpt lat="43.72577" lon="7.10887">
        <ele>333.20001220703</ele>
        <time>2023-08-02T11:56:24.000Z</time>
      </trkpt>
      <trkpt lat="43.72574" lon="7.1088">
        <ele>333</ele>
        <time>2023-08-02T11:56:25.000Z</time>
      </trkpt>
      <trkpt lat="43.72572" lon="7.10873">
        <ele>332.79998779297</ele>
        <time>2023-08-02T11:56:26.000Z</time>
      </trkpt>
      <trkpt lat="43.7257" lon="7.10865">
        <ele>332.79998779297</ele>
        <time>2023-08-02T11:56:27.000Z</time>
      </trkpt>
      <trkpt lat="43.72569" lon="7.10857">
        <ele>332.60000610352</ele>
        <time>2023-08-02T11:56:28.000Z</time>
      </trkpt>
      <trkpt lat="43.7257" lon="7.10848">
        <ele>332.39999389648</ele>
        <time>2023-08-02T11:56:29.000Z</time>
      </trkpt>
      <trkpt lat="43.72571" lon="7.10839">
        <ele>332</ele>
        <time>2023-08-02T11:56:30.000Z</time>
      </trkpt>
      <trkpt lat="43.72573" lon="7.1083">
        <ele>332</ele>
        <time>2023-08-02T11:56:31.000Z</time>
      </trkpt>
      <trkpt lat="43.72575" lon="7.10822">
        <ele>332</ele>
        <time>2023-08-02T11:56:32.000Z</time>
      </trkpt>
      <trkpt lat="43.72577" lon="7.10815">
        <ele>331.79998779297</ele>
        <time>2023-08-02T11:56:33.000Z</time>
      </trkpt>
      <trkpt lat="43.7258" lon="7.10808">
        <ele>331.79998779297</ele>
        <time>2023-08-02T11:56:34.000Z</time>
      </trkpt>
      <trkpt lat="43.72582" lon="7.10801">
        <ele>331.79998779297</ele>
        <time>2023-08-02T11:56:35.000Z</time>
      </trkpt>
      <trkpt lat="43.72585" lon="7.10794">
        <ele>331.60000610352</ele>
        <time>2023-08-02T11:56:36.000Z</time>
      </trkpt>
      <trkpt lat="43.72587" lon="7.10787">
        <ele>331.60000610352</ele>
        <time>2023-08-02T11:56:37.000Z</time>
      </trkpt>
      <trkpt lat="43.7259" lon="7.1078">
        <ele>331.60000610352</ele>
        <time>2023-08-02T11:56:38.000Z</time>
      </trkpt>
      <trkpt lat="43.72593" lon="7.10773">
        <ele>331.20001220703</ele>
        <time>2023-08-02T11:56:39.000Z</time>
      </trkpt>
      <trkpt lat="43.72596" lon="7.10766">
        <ele>331</ele>
        <time>2023-08-02T11:56:40.000Z</time>
      </trkpt>
      <trkpt lat="43.72599" lon="7.10759">
        <ele>331</ele>
        <time>2023-08-02T11:56:41.000Z</time>
      </trkpt>
      <trkpt lat="43.72601" lon="7.10752">
        <ele>331</ele>
        <time>2023-08-02T11:56:42.000Z</time>
      </trkpt>
      <trkpt lat="43.72604" lon="7.10745">
        <ele>331</ele>
        <time>2023-08-02T11:56:43.000Z</time>
      </trkpt>
      <trkpt lat="43.72607" lon="7.10738">
        <ele>330.79998779297</ele>
        <time>2023-08-02T11:56:44.000Z</time>
      </trkpt>
      <trkpt lat="43.7261" lon="7.10732">
        <ele>330.60000610352</ele>
        <time>2023-08-02T11:56:45.000Z</time>
      </trkpt>
      <trkpt lat="43.72613" lon="7.10725">
        <ele>330.39999389648</ele>
        <time>2023-08-02T11:56:46.000Z</time>
      </trkpt>
      <trkpt lat="43.72616" lon="7.10717">
        <ele>330.39999389648</ele>
        <time>2023-08-02T11:56:47.000Z</time>
      </trkpt>
      <trkpt lat="43.72619" lon="7.10711">
        <ele>330.20001220703</ele>
        <time>2023-08-02T11:56:48.000Z</time>
      </trkpt>
      <trkpt lat="43.72623" lon="7.10704">
        <ele>330</ele>
        <time>2023-08-02T11:56:49.000Z</time>
      </trkpt>
      <trkpt lat="43.72627" lon="7.10698">
        <ele>330</ele>
        <time>2023-08-02T11:56:50.000Z</time>
      </trkpt>
      <trkpt lat="43.72631" lon="7.10692">
        <ele>330</ele>
        <time>2023-08-02T11:56:51.000Z</time>
      </trkpt>
      <trkpt lat="43.72635" lon="7.10687">
        <ele>329.79998779297</ele>
        <time>2023-08-02T11:56:52.000Z</time>
      </trkpt>
      <trkpt lat="43.72638" lon="7.10681">
        <ele>329.79998779297</ele>
        <time>2023-08-02T11:56:53.000Z</time>
      </trkpt>
      <trkpt lat="43.72642" lon="7.10675">
        <ele>329.60000610352</ele>
        <time>2023-08-02T11:56:54.000Z</time>
      </trkpt>
      <trkpt lat="43.72646" lon="7.1067">
        <ele>329.39999389648</ele>
        <time>2023-08-02T11:56:55.000Z</time>
      </trkpt>
      <trkpt lat="43.7265" lon="7.10664">
        <ele>329.20001220703</ele>
        <time>2023-08-02T11:56:56.000Z</time>
      </trkpt>
      <trkpt lat="43.72655" lon="7.10659">
        <ele>329</ele>
        <time>2023-08-02T11:56:57.000Z</time>
      </trkpt>
      <trkpt lat="43.72659" lon="7.10653">
        <ele>329</ele>
        <time>2023-08-02T11:56:58.000Z</time>
      </trkpt>
      <trkpt lat="43.72663" lon="7.10647">
        <ele>329</ele>
        <time>2023-08-02T11:56:59.000Z</time>
      </trkpt>
      <trkpt lat="43.72666" lon="7.10641">
        <ele>328.79998779297</ele>
        <time>2023-08-02T11:57:00.000Z</time>
      </trkpt>
      <trkpt lat="43.7267" lon="7.10634">
        <ele>328.79998779297</ele>
        <time>2023-08-02T11:57:01.000Z</time>
      </trkpt>
      <trkpt lat="43.72673" lon="7.10628">
        <ele>328.60000610352</ele>
        <time>2023-08-02T11:57:02.000Z</time>
      </trkpt>
      <trkpt lat="43.72675" lon="7.10621">
        <ele>328.60000610352</ele>
        <time>2023-08-02T11:57:03.000Z</time>
      </trkpt>
      <trkpt lat="43.72676" lon="7.10613">
        <ele>328.60000610352</ele>
        <time>2023-08-02T11:57:04.000Z</time>
      </trkpt>
      <trkpt lat="43.72676" lon="7.10606">
        <ele>328.60000610352</ele>
        <time>2023-08-02T11:57:05.000Z</time>
      </trkpt>
      <trkpt lat="43.72676" lon="7.10599">
        <ele>328.39999389648</ele>
        <time>2023-08-02T11:57:06.000Z</time>
      </trkpt>
      <trkpt lat="43.72675" lon="7.10591">
        <ele>328.20001220703</ele>
        <time>2023-08-02T11:57:07.000Z</time>
      </trkpt>
      <trkpt lat="43.72673" lon="7.10583">
        <ele>328</ele>
        <time>2023-08-02T11:57:08.000Z</time>
      </trkpt>
      <trkpt lat="43.72671" lon="7.10576">
        <ele>328</ele>
        <time>2023-08-02T11:57:09.000Z</time>
      </trkpt>
      <trkpt lat="43.72667" lon="7.10569">
        <ele>328</ele>
        <time>2023-08-02T11:57:10.000Z</time>
      </trkpt>
      <trkpt lat="43.72663" lon="7.10564">
        <ele>328.20001220703</ele>
        <time>2023-08-02T11:57:11.000Z</time>
      </trkpt>
      <trkpt lat="43.72659" lon="7.10559">
        <ele>328.20001220703</ele>
        <time>2023-08-02T11:57:12.000Z</time>
      </trkpt>
      <trkpt lat="43.72654" lon="7.10555">
        <ele>328.20001220703</ele>
        <time>2023-08-02T11:57:13.000Z</time>
      </trkpt>
      <trkpt lat="43.72649" lon="7.10553">
        <ele>328.20001220703</ele>
        <time>2023-08-02T11:57:14.000Z</time>
      </trkpt>
      <trkpt lat="43.72644" lon="7.10551">
        <ele>328.39999389648</ele>
        <time>2023-08-02T11:57:15.000Z</time>
      </trkpt>
      <trkpt lat="43.72639" lon="7.10551">
        <ele>328.60000610352</ele>
        <time>2023-08-02T11:57:16.000Z</time>
      </trkpt>
      <trkpt lat="43.72634" lon="7.10551">
        <ele>328.79998779297</ele>
        <time>2023-08-02T11:57:17.000Z</time>
      </trkpt>
      <trkpt lat="43.72629" lon="7.10551">
        <ele>328.79998779297</ele>
        <time>2023-08-02T11:57:18.000Z</time>
      </trkpt>
      <trkpt lat="43.72624" lon="7.10553">
        <ele>329</ele>
        <time>2023-08-02T11:57:19.000Z</time>
      </trkpt>
      <trkpt lat="43.72619" lon="7.10555">
        <ele>329</ele>
        <time>2023-08-02T11:57:20.000Z</time>
      </trkpt>
      <trkpt lat="43.72614" lon="7.10558">
        <ele>329</ele>
        <time>2023-08-02T11:57:21.000Z</time>
      </trkpt>
      <trkpt lat="43.7261" lon="7.10561">
        <ele>329</ele>
        <time>2023-08-02T11:57:22.000Z</time>
      </trkpt>
      <trkpt lat="43.72605" lon="7.10565">
        <ele>329.20001220703</ele>
        <time>2023-08-02T11:57:23.000Z</time>
      </trkpt>
      <trkpt lat="43.72601" lon="7.10568">
        <ele>329.20001220703</ele>
        <time>2023-08-02T11:57:24.000Z</time>
      </trkpt>
      <trkpt lat="43.72597" lon="7.10572">
        <ele>329.20001220703</ele>
        <time>2023-08-02T11:57:25.000Z</time>
      </trkpt>
      <trkpt lat="43.72592" lon="7.10575">
        <ele>329.20001220703</ele>
        <time>2023-08-02T11:57:26.000Z</time>
      </trkpt>
      <trkpt lat="43.72588" lon="7.10579">
        <ele>329.20001220703</ele>
        <time>2023-08-02T11:57:27.000Z</time>
      </trkpt>
      <trkpt lat="43.72584" lon="7.10583">
        <ele>329.39999389648</ele>
        <time>2023-08-02T11:57:28.000Z</time>
      </trkpt>
      <trkpt lat="43.72579" lon="7.10587">
        <ele>329.39999389648</ele>
        <time>2023-08-02T11:57:29.000Z</time>
      </trkpt>
      <trkpt lat="43.72575" lon="7.1059">
        <ele>329.39999389648</ele>
        <time>2023-08-02T11:57:30.000Z</time>
      </trkpt>
      <trkpt lat="43.72571" lon="7.10594">
        <ele>329.60000610352</ele>
        <time>2023-08-02T11:57:31.000Z</time>
      </trkpt>
      <trkpt lat="43.72567" lon="7.10597">
        <ele>329.60000610352</ele>
        <time>2023-08-02T11:57:32.000Z</time>
      </trkpt>
      <trkpt lat="43.72563" lon="7.10601">
        <ele>329.60000610352</ele>
        <time>2023-08-02T11:57:33.000Z</time>
      </trkpt>
      <trkpt lat="43.72559" lon="7.10604">
        <ele>330</ele>
        <time>2023-08-02T11:57:34.000Z</time>
      </trkpt>
      <trkpt lat="43.72554" lon="7.10608">
        <ele>330</ele>
        <time>2023-08-02T11:57:35.000Z</time>
      </trkpt>
      <trkpt lat="43.7255" lon="7.10611">
        <ele>330</ele>
        <time>2023-08-02T11:57:36.000Z</time>
      </trkpt>
      <trkpt lat="43.72546" lon="7.10614">
        <ele>330.20001220703</ele>
        <time>2023-08-02T11:57:37.000Z</time>
      </trkpt>
      <trkpt lat="43.72542" lon="7.10618">
        <ele>330.20001220703</ele>
        <time>2023-08-02T11:57:38.000Z</time>
      </trkpt>
      <trkpt lat="43.72538" lon="7.10621">
        <ele>330.20001220703</ele>
        <time>2023-08-02T11:57:39.000Z</time>
      </trkpt>
      <trkpt lat="43.72534" lon="7.10625">
        <ele>330.20001220703</ele>
        <time>2023-08-02T11:57:40.000Z</time>
      </trkpt>
      <trkpt lat="43.72531" lon="7.10629">
        <ele>330.39999389648</ele>
        <time>2023-08-02T11:57:41.000Z</time>
      </trkpt>
      <trkpt lat="43.72527" lon="7.10634">
        <ele>330.60000610352</ele>
        <time>2023-08-02T11:57:42.000Z</time>
      </trkpt>
      <trkpt lat="43.72524" lon="7.1064">
        <ele>330.60000610352</ele>
        <time>2023-08-02T11:57:43.000Z</time>
      </trkpt>
      <trkpt lat="43.72521" lon="7.10645">
        <ele>330.60000610352</ele>
        <time>2023-08-02T11:57:44.000Z</time>
      </trkpt>
      <trkpt lat="43.72518" lon="7.10651">
        <ele>330.60000610352</ele>
        <time>2023-08-02T11:57:45.000Z</time>
      </trkpt>
      <trkpt lat="43.72515" lon="7.10657">
        <ele>330.60000610352</ele>
        <time>2023-08-02T11:57:46.000Z</time>
      </trkpt>
      <trkpt lat="43.72512" lon="7.10663">
        <ele>331</ele>
        <time>2023-08-02T11:57:47.000Z</time>
      </trkpt>
      <trkpt lat="43.7251" lon="7.1067">
        <ele>331</ele>
        <time>2023-08-02T11:57:48.000Z</time>
      </trkpt>
      <trkpt lat="43.72506" lon="7.10675">
        <ele>331</ele>
        <time>2023-08-02T11:57:49.000Z</time>
      </trkpt>
      <trkpt lat="43.72503" lon="7.1068">
        <ele>331.20001220703</ele>
        <time>2023-08-02T11:57:50.000Z</time>
      </trkpt>
      <trkpt lat="43.72499" lon="7.10685">
        <ele>331.20001220703</ele>
        <time>2023-08-02T11:57:51.000Z</time>
      </trkpt>
      <trkpt lat="43.72495" lon="7.10689">
        <ele>331.20001220703</ele>
        <time>2023-08-02T11:57:52.000Z</time>
      </trkpt>
      <trkpt lat="43.7249" lon="7.10693">
        <ele>331.20001220703</ele>
        <time>2023-08-02T11:57:53.000Z</time>
      </trkpt>
      <trkpt lat="43.72485" lon="7.10696">
        <ele>331.20001220703</ele>
        <time>2023-08-02T11:57:54.000Z</time>
      </trkpt>
      <trkpt lat="43.7248" lon="7.107">
        <ele>331.20001220703</ele>
        <time>2023-08-02T11:57:55.000Z</time>
      </trkpt>
      <trkpt lat="43.72475" lon="7.10703">
        <ele>331.39999389648</ele>
        <time>2023-08-02T11:57:56.000Z</time>
      </trkpt>
      <trkpt lat="43.7247" lon="7.10705">
        <ele>331.39999389648</ele>
        <time>2023-08-02T11:57:57.000Z</time>
      </trkpt>
      <trkpt lat="43.72466" lon="7.10706">
        <ele>331.39999389648</ele>
        <time>2023-08-02T11:57:58.000Z</time>
      </trkpt>
      <trkpt lat="43.72462" lon="7.10706">
        <ele>331.39999389648</ele>
        <time>2023-08-02T11:57:59.000Z</time>
      </trkpt>
      <trkpt lat="43.72457" lon="7.10706">
        <ele>331.39999389648</ele>
        <time>2023-08-02T11:58:00.000Z</time>
      </trkpt>
      <trkpt lat="43.72453" lon="7.10703">
        <ele>331.60000610352</ele>
        <time>2023-08-02T11:58:01.000Z</time>
      </trkpt>
      <trkpt lat="43.7245" lon="7.107">
        <ele>331.79998779297</ele>
        <time>2023-08-02T11:58:02.000Z</time>
      </trkpt>
      <trkpt lat="43.72447" lon="7.10695">
        <ele>331.79998779297</ele>
        <time>2023-08-02T11:58:03.000Z</time>
      </trkpt>
      <trkpt lat="43.72444" lon="7.1069">
        <ele>331.79998779297</ele>
        <time>2023-08-02T11:58:04.000Z</time>
      </trkpt>
      <trkpt lat="43.72442" lon="7.10684">
        <ele>331.79998779297</ele>
        <time>2023-08-02T11:58:05.000Z</time>
      </trkpt>
      <trkpt lat="43.72439" lon="7.10679">
        <ele>331.79998779297</ele>
        <time>2023-08-02T11:58:06.000Z</time>
      </trkpt>
      <trkpt lat="43.72437" lon="7.10673">
        <ele>331.79998779297</ele>
        <time>2023-08-02T11:58:07.000Z</time>
      </trkpt>
      <trkpt lat="43.72435" lon="7.10668">
        <ele>331.79998779297</ele>
        <time>2023-08-02T11:58:08.000Z</time>
      </trkpt>
      <trkpt lat="43.72432" lon="7.10663">
        <ele>331.79998779297</ele>
        <time>2023-08-02T11:58:09.000Z</time>
      </trkpt>
      <trkpt lat="43.7243" lon="7.10658">
        <ele>331.79998779297</ele>
        <time>2023-08-02T11:58:10.000Z</time>
      </trkpt>
      <trkpt lat="43.72427" lon="7.10653">
        <ele>331.60000610352</ele>
        <time>2023-08-02T11:58:11.000Z</time>
      </trkpt>
      <trkpt lat="43.72426" lon="7.10648">
        <ele>331.60000610352</ele>
        <time>2023-08-02T11:58:12.000Z</time>
      </trkpt>
      <trkpt lat="43.72425" lon="7.10644">
        <ele>331.60000610352</ele>
        <time>2023-08-02T11:58:13.000Z</time>
      </trkpt>
      <trkpt lat="43.72423" lon="7.1064">
        <ele>331.60000610352</ele>
        <time>2023-08-02T11:58:14.000Z</time>
      </trkpt>
      <trkpt lat="43.72422" lon="7.10636">
        <ele>331.60000610352</ele>
        <time>2023-08-02T11:58:15.000Z</time>
      </trkpt>
      <trkpt lat="43.72421" lon="7.10633">
        <ele>331.60000610352</ele>
        <time>2023-08-02T11:58:16.000Z</time>
      </trkpt>
      <trkpt lat="43.72419" lon="7.10628">
        <ele>331.60000610352</ele>
        <time>2023-08-02T11:58:17.000Z</time>
      </trkpt>
      <trkpt lat="43.72418" lon="7.10624">
        <ele>331.60000610352</ele>
        <time>2023-08-02T11:58:18.000Z</time>
      </trkpt>
      <trkpt lat="43.72417" lon="7.10619">
        <ele>331.60000610352</ele>
        <time>2023-08-02T11:58:19.000Z</time>
      </trkpt>
      <trkpt lat="43.72416" lon="7.10614">
        <ele>331.39999389648</ele>
        <time>2023-08-02T11:58:20.000Z</time>
      </trkpt>
      <trkpt lat="43.72414" lon="7.10609">
        <ele>331.60000610352</ele>
        <time>2023-08-02T11:58:21.000Z</time>
      </trkpt>
      <trkpt lat="43.72412" lon="7.10604">
        <ele>331.60000610352</ele>
        <time>2023-08-02T11:58:22.000Z</time>
      </trkpt>
      <trkpt lat="43.72411" lon="7.10596">
        <ele>331.60000610352</ele>
        <time>2023-08-02T11:58:23.000Z</time>
      </trkpt>
      <trkpt lat="43.7241" lon="7.10587">
        <ele>331.60000610352</ele>
        <time>2023-08-02T11:58:24.000Z</time>
      </trkpt>
      <trkpt lat="43.72408" lon="7.10579">
        <ele>331.60000610352</ele>
        <time>2023-08-02T11:58:25.000Z</time>
      </trkpt>
      <trkpt lat="43.72406" lon="7.1057">
        <ele>331.60000610352</ele>
        <time>2023-08-02T11:58:26.000Z</time>
      </trkpt>
      <trkpt lat="43.72405" lon="7.10562">
        <ele>331.60000610352</ele>
        <time>2023-08-02T11:58:27.000Z</time>
      </trkpt>
      <trkpt lat="43.72404" lon="7.10554">
        <ele>331.60000610352</ele>
        <time>2023-08-02T11:58:28.000Z</time>
      </trkpt>
      <trkpt lat="43.72404" lon="7.10545">
        <ele>331.60000610352</ele>
        <time>2023-08-02T11:58:29.000Z</time>
      </trkpt>
      <trkpt lat="43.72404" lon="7.10538">
        <ele>331.60000610352</ele>
        <time>2023-08-02T11:58:30.000Z</time>
      </trkpt>
      <trkpt lat="43.72403" lon="7.10529">
        <ele>331.79998779297</ele>
        <time>2023-08-02T11:58:31.000Z</time>
      </trkpt>
      <trkpt lat="43.72403" lon="7.10521">
        <ele>331.79998779297</ele>
        <time>2023-08-02T11:58:32.000Z</time>
      </trkpt>
      <trkpt lat="43.72402" lon="7.10513">
        <ele>331.79998779297</ele>
        <time>2023-08-02T11:58:33.000Z</time>
      </trkpt>
      <trkpt lat="43.72402" lon="7.10505">
        <ele>331.79998779297</ele>
        <time>2023-08-02T11:58:34.000Z</time>
      </trkpt>
      <trkpt lat="43.72401" lon="7.10497">
        <ele>331.79998779297</ele>
        <time>2023-08-02T11:58:35.000Z</time>
      </trkpt>
      <trkpt lat="43.72401" lon="7.10489">
        <ele>331.79998779297</ele>
        <time>2023-08-02T11:58:36.000Z</time>
      </trkpt>
      <trkpt lat="43.724" lon="7.1048">
        <ele>331.79998779297</ele>
        <time>2023-08-02T11:58:37.000Z</time>
      </trkpt>
      <trkpt lat="43.724" lon="7.10472">
        <ele>331.79998779297</ele>
        <time>2023-08-02T11:58:38.000Z</time>
      </trkpt>
      <trkpt lat="43.72401" lon="7.10464">
        <ele>331.79998779297</ele>
        <time>2023-08-02T11:58:39.000Z</time>
      </trkpt>
      <trkpt lat="43.72401" lon="7.10455">
        <ele>331.79998779297</ele>
        <time>2023-08-02T11:58:40.000Z</time>
      </trkpt>
      <trkpt lat="43.72402" lon="7.10448">
        <ele>332</ele>
        <time>2023-08-02T11:58:41.000Z</time>
      </trkpt>
      <trkpt lat="43.72403" lon="7.10439">
        <ele>332</ele>
        <time>2023-08-02T11:58:42.000Z</time>
      </trkpt>
      <trkpt lat="43.72404" lon="7.10431">
        <ele>332</ele>
        <time>2023-08-02T11:58:43.000Z</time>
      </trkpt>
      <trkpt lat="43.72404" lon="7.10423">
        <ele>332</ele>
        <time>2023-08-02T11:58:44.000Z</time>
      </trkpt>
      <trkpt lat="43.72405" lon="7.10415">
        <ele>332</ele>
        <time>2023-08-02T11:58:45.000Z</time>
      </trkpt>
      <trkpt lat="43.72405" lon="7.10407">
        <ele>332</ele>
        <time>2023-08-02T11:58:46.000Z</time>
      </trkpt>
      <trkpt lat="43.72406" lon="7.10398">
        <ele>332</ele>
        <time>2023-08-02T11:58:47.000Z</time>
      </trkpt>
      <trkpt lat="43.72407" lon="7.10391">
        <ele>332</ele>
        <time>2023-08-02T11:58:48.000Z</time>
      </trkpt>
      <trkpt lat="43.72408" lon="7.10383">
        <ele>332</ele>
        <time>2023-08-02T11:58:49.000Z</time>
      </trkpt>
      <trkpt lat="43.72409" lon="7.10375">
        <ele>332</ele>
        <time>2023-08-02T11:58:50.000Z</time>
      </trkpt>
      <trkpt lat="43.7241" lon="7.10367">
        <ele>332</ele>
        <time>2023-08-02T11:58:51.000Z</time>
      </trkpt>
      <trkpt lat="43.72412" lon="7.10358">
        <ele>332</ele>
        <time>2023-08-02T11:58:52.000Z</time>
      </trkpt>
      <trkpt lat="43.72413" lon="7.1035">
        <ele>332</ele>
        <time>2023-08-02T11:58:53.000Z</time>
      </trkpt>
      <trkpt lat="43.72414" lon="7.10341">
        <ele>332</ele>
        <time>2023-08-02T11:58:54.000Z</time>
      </trkpt>
      <trkpt lat="43.72416" lon="7.10333">
        <ele>332</ele>
        <time>2023-08-02T11:58:55.000Z</time>
      </trkpt>
      <trkpt lat="43.72417" lon="7.10324">
        <ele>331.79998779297</ele>
        <time>2023-08-02T11:58:56.000Z</time>
      </trkpt>
      <trkpt lat="43.72418" lon="7.10316">
        <ele>331.79998779297</ele>
        <time>2023-08-02T11:58:57.000Z</time>
      </trkpt>
      <trkpt lat="43.7242" lon="7.10307">
        <ele>331.79998779297</ele>
        <time>2023-08-02T11:58:58.000Z</time>
      </trkpt>
      <trkpt lat="43.72421" lon="7.10299">
        <ele>331.60000610352</ele>
        <time>2023-08-02T11:58:59.000Z</time>
      </trkpt>
      <trkpt lat="43.72422" lon="7.1029">
        <ele>331.60000610352</ele>
        <time>2023-08-02T11:59:00.000Z</time>
      </trkpt>
      <trkpt lat="43.72423" lon="7.10282">
        <ele>331.60000610352</ele>
        <time>2023-08-02T11:59:01.000Z</time>
      </trkpt>
      <trkpt lat="43.72424" lon="7.10275">
        <ele>331.39999389648</ele>
        <time>2023-08-02T11:59:02.000Z</time>
      </trkpt>
      <trkpt lat="43.72426" lon="7.10267">
        <ele>331.39999389648</ele>
        <time>2023-08-02T11:59:03.000Z</time>
      </trkpt>
      <trkpt lat="43.72427" lon="7.10259">
        <ele>331.39999389648</ele>
        <time>2023-08-02T11:59:04.000Z</time>
      </trkpt>
      <trkpt lat="43.72428" lon="7.10251">
        <ele>331.20001220703</ele>
        <time>2023-08-02T11:59:05.000Z</time>
      </trkpt>
      <trkpt lat="43.7243" lon="7.10243">
        <ele>331.20001220703</ele>
        <time>2023-08-02T11:59:06.000Z</time>
      </trkpt>
      <trkpt lat="43.72431" lon="7.10234">
        <ele>331</ele>
        <time>2023-08-02T11:59:07.000Z</time>
      </trkpt>
      <trkpt lat="43.72432" lon="7.10226">
        <ele>331</ele>
        <time>2023-08-02T11:59:08.000Z</time>
      </trkpt>
      <trkpt lat="43.72433" lon="7.10218">
        <ele>331</ele>
        <time>2023-08-02T11:59:09.000Z</time>
      </trkpt>
      <trkpt lat="43.72434" lon="7.1021">
        <ele>331</ele>
        <time>2023-08-02T11:59:10.000Z</time>
      </trkpt>
      <trkpt lat="43.72436" lon="7.10202">
        <ele>331</ele>
        <time>2023-08-02T11:59:11.000Z</time>
      </trkpt>
      <trkpt lat="43.72437" lon="7.10193">
        <ele>330.79998779297</ele>
        <time>2023-08-02T11:59:12.000Z</time>
      </trkpt>
      <trkpt lat="43.72438" lon="7.10185">
        <ele>330.79998779297</ele>
        <time>2023-08-02T11:59:13.000Z</time>
      </trkpt>
      <trkpt lat="43.72439" lon="7.10177">
        <ele>330.79998779297</ele>
        <time>2023-08-02T11:59:14.000Z</time>
      </trkpt>
      <trkpt lat="43.7244" lon="7.10169">
        <ele>330.60000610352</ele>
        <time>2023-08-02T11:59:15.000Z</time>
      </trkpt>
      <trkpt lat="43.72442" lon="7.10161">
        <ele>330.39999389648</ele>
        <time>2023-08-02T11:59:16.000Z</time>
      </trkpt>
      <trkpt lat="43.72443" lon="7.10153">
        <ele>330.20001220703</ele>
        <time>2023-08-02T11:59:17.000Z</time>
      </trkpt>
      <trkpt lat="43.72444" lon="7.10145">
        <ele>330.20001220703</ele>
        <time>2023-08-02T11:59:18.000Z</time>
      </trkpt>
      <trkpt lat="43.72445" lon="7.10138">
        <ele>330.20001220703</ele>
        <time>2023-08-02T11:59:19.000Z</time>
      </trkpt>
      <trkpt lat="43.72446" lon="7.1013">
        <ele>330.20001220703</ele>
        <time>2023-08-02T11:59:20.000Z</time>
      </trkpt>
      <trkpt lat="43.72448" lon="7.10123">
        <ele>330.20001220703</ele>
        <time>2023-08-02T11:59:21.000Z</time>
      </trkpt>
      <trkpt lat="43.72449" lon="7.10115">
        <ele>330.20001220703</ele>
        <time>2023-08-02T11:59:22.000Z</time>
      </trkpt>
      <trkpt lat="43.7245" lon="7.10107">
        <ele>330.20001220703</ele>
        <time>2023-08-02T11:59:23.000Z</time>
      </trkpt>
      <trkpt lat="43.72451" lon="7.101">
        <ele>330.20001220703</ele>
        <time>2023-08-02T11:59:24.000Z</time>
      </trkpt>
      <trkpt lat="43.72453" lon="7.10092">
        <ele>330.20001220703</ele>
        <time>2023-08-02T11:59:25.000Z</time>
      </trkpt>
      <trkpt lat="43.72454" lon="7.10085">
        <ele>330.20001220703</ele>
        <time>2023-08-02T11:59:26.000Z</time>
      </trkpt>
      <trkpt lat="43.72455" lon="7.10077">
        <ele>330.20001220703</ele>
        <time>2023-08-02T11:59:27.000Z</time>
      </trkpt>
      <trkpt lat="43.72456" lon="7.10069">
        <ele>330.20001220703</ele>
        <time>2023-08-02T11:59:28.000Z</time>
      </trkpt>
      <trkpt lat="43.72456" lon="7.10061">
        <ele>330.20001220703</ele>
        <time>2023-08-02T11:59:29.000Z</time>
      </trkpt>
      <trkpt lat="43.72458" lon="7.10054">
        <ele>330.20001220703</ele>
        <time>2023-08-02T11:59:30.000Z</time>
      </trkpt>
      <trkpt lat="43.72459" lon="7.10046">
        <ele>330.20001220703</ele>
        <time>2023-08-02T11:59:31.000Z</time>
      </trkpt>
      <trkpt lat="43.72459" lon="7.10038">
        <ele>330.20001220703</ele>
        <time>2023-08-02T11:59:32.000Z</time>
      </trkpt>
      <trkpt lat="43.7246" lon="7.10031">
        <ele>330.20001220703</ele>
        <time>2023-08-02T11:59:33.000Z</time>
      </trkpt>
      <trkpt lat="43.72462" lon="7.10023">
        <ele>330.20001220703</ele>
        <time>2023-08-02T11:59:34.000Z</time>
      </trkpt>
      <trkpt lat="43.72462" lon="7.10015">
        <ele>330.20001220703</ele>
        <time>2023-08-02T11:59:35.000Z</time>
      </trkpt>
      <trkpt lat="43.72463" lon="7.10008">
        <ele>330</ele>
        <time>2023-08-02T11:59:36.000Z</time>
      </trkpt>
      <trkpt lat="43.72464" lon="7.10001">
        <ele>330</ele>
        <time>2023-08-02T11:59:37.000Z</time>
      </trkpt>
      <trkpt lat="43.72465" lon="7.09993">
        <ele>330</ele>
        <time>2023-08-02T11:59:38.000Z</time>
      </trkpt>
      <trkpt lat="43.72466" lon="7.09985">
        <ele>330</ele>
        <time>2023-08-02T11:59:39.000Z</time>
      </trkpt>
      <trkpt lat="43.72468" lon="7.09977">
        <ele>330</ele>
        <time>2023-08-02T11:59:40.000Z</time>
      </trkpt>
      <trkpt lat="43.72469" lon="7.09969">
        <ele>330</ele>
        <time>2023-08-02T11:59:41.000Z</time>
      </trkpt>
      <trkpt lat="43.72471" lon="7.09961">
        <ele>330.20001220703</ele>
        <time>2023-08-02T11:59:42.000Z</time>
      </trkpt>
      <trkpt lat="43.72472" lon="7.09953">
        <ele>330.20001220703</ele>
        <time>2023-08-02T11:59:43.000Z</time>
      </trkpt>
      <trkpt lat="43.72474" lon="7.09945">
        <ele>330.20001220703</ele>
        <time>2023-08-02T11:59:44.000Z</time>
      </trkpt>
      <trkpt lat="43.72475" lon="7.09937">
        <ele>330.39999389648</ele>
        <time>2023-08-02T11:59:45.000Z</time>
      </trkpt>
      <trkpt lat="43.72476" lon="7.0993">
        <ele>330.39999389648</ele>
        <time>2023-08-02T11:59:46.000Z</time>
      </trkpt>
      <trkpt lat="43.72477" lon="7.09923">
        <ele>330.39999389648</ele>
        <time>2023-08-02T11:59:47.000Z</time>
      </trkpt>
      <trkpt lat="43.72478" lon="7.09916">
        <ele>330.60000610352</ele>
        <time>2023-08-02T11:59:48.000Z</time>
      </trkpt>
      <trkpt lat="43.7248" lon="7.09909">
        <ele>330.60000610352</ele>
        <time>2023-08-02T11:59:49.000Z</time>
      </trkpt>
      <trkpt lat="43.72481" lon="7.09902">
        <ele>330.60000610352</ele>
        <time>2023-08-02T11:59:50.000Z</time>
      </trkpt>
      <trkpt lat="43.72482" lon="7.09895">
        <ele>330.60000610352</ele>
        <time>2023-08-02T11:59:51.000Z</time>
      </trkpt>
      <trkpt lat="43.72484" lon="7.09888">
        <ele>330.79998779297</ele>
        <time>2023-08-02T11:59:52.000Z</time>
      </trkpt>
      <trkpt lat="43.72485" lon="7.0988">
        <ele>330.79998779297</ele>
        <time>2023-08-02T11:59:53.000Z</time>
      </trkpt>
      <trkpt lat="43.72486" lon="7.09873">
        <ele>331</ele>
        <time>2023-08-02T11:59:54.000Z</time>
      </trkpt>
      <trkpt lat="43.72487" lon="7.09866">
        <ele>331</ele>
        <time>2023-08-02T11:59:55.000Z</time>
      </trkpt>
      <trkpt lat="43.72488" lon="7.09859">
        <ele>331</ele>
        <time>2023-08-02T11:59:56.000Z</time>
      </trkpt>
      <trkpt lat="43.72489" lon="7.09852">
        <ele>331</ele>
        <time>2023-08-02T11:59:57.000Z</time>
      </trkpt>
      <trkpt lat="43.7249" lon="7.09844">
        <ele>331</ele>
        <time>2023-08-02T11:59:58.000Z</time>
      </trkpt>
      <trkpt lat="43.72491" lon="7.09837">
        <ele>331</ele>
        <time>2023-08-02T11:59:59.000Z</time>
      </trkpt>
      <trkpt lat="43.72493" lon="7.0983">
        <ele>331</ele>
        <time>2023-08-02T12:00:00.000Z</time>
      </trkpt>
      <trkpt lat="43.72494" lon="7.09822">
        <ele>331</ele>
        <time>2023-08-02T12:00:01.000Z</time>
      </trkpt>
      <trkpt lat="43.72495" lon="7.09815">
        <ele>331</ele>
        <time>2023-08-02T12:00:02.000Z</time>
      </trkpt>
      <trkpt lat="43.72496" lon="7.09808">
        <ele>331</ele>
        <time>2023-08-02T12:00:03.000Z</time>
      </trkpt>
      <trkpt lat="43.72498" lon="7.09801">
        <ele>331</ele>
        <time>2023-08-02T12:00:04.000Z</time>
      </trkpt>
      <trkpt lat="43.72499" lon="7.09794">
        <ele>331</ele>
        <time>2023-08-02T12:00:05.000Z</time>
      </trkpt>
      <trkpt lat="43.725" lon="7.09787">
        <ele>331</ele>
        <time>2023-08-02T12:00:06.000Z</time>
      </trkpt>
      <trkpt lat="43.72501" lon="7.0978">
        <ele>331</ele>
        <time>2023-08-02T12:00:07.000Z</time>
      </trkpt>
      <trkpt lat="43.72502" lon="7.09772">
        <ele>331</ele>
        <time>2023-08-02T12:00:08.000Z</time>
      </trkpt>
      <trkpt lat="43.72503" lon="7.09765">
        <ele>331</ele>
        <time>2023-08-02T12:00:09.000Z</time>
      </trkpt>
      <trkpt lat="43.72504" lon="7.09758">
        <ele>331</ele>
        <time>2023-08-02T12:00:10.000Z</time>
      </trkpt>
      <trkpt lat="43.72505" lon="7.09751">
        <ele>331.20001220703</ele>
        <time>2023-08-02T12:00:11.000Z</time>
      </trkpt>
      <trkpt lat="43.72506" lon="7.09744">
        <ele>331.20001220703</ele>
        <time>2023-08-02T12:00:12.000Z</time>
      </trkpt>
      <trkpt lat="43.72508" lon="7.09737">
        <ele>331.20001220703</ele>
        <time>2023-08-02T12:00:13.000Z</time>
      </trkpt>
      <trkpt lat="43.72508" lon="7.0973">
        <ele>331.20001220703</ele>
        <time>2023-08-02T12:00:14.000Z</time>
      </trkpt>
      <trkpt lat="43.72509" lon="7.09723">
        <ele>331.20001220703</ele>
        <time>2023-08-02T12:00:15.000Z</time>
      </trkpt>
      <trkpt lat="43.7251" lon="7.09716">
        <ele>331.20001220703</ele>
        <time>2023-08-02T12:00:16.000Z</time>
      </trkpt>
      <trkpt lat="43.72511" lon="7.0971">
        <ele>331.20001220703</ele>
        <time>2023-08-02T12:00:17.000Z</time>
      </trkpt>
      <trkpt lat="43.72512" lon="7.09703">
        <ele>331.20001220703</ele>
        <time>2023-08-02T12:00:18.000Z</time>
      </trkpt>
      <trkpt lat="43.72512" lon="7.09696">
        <ele>331.39999389648</ele>
        <time>2023-08-02T12:00:19.000Z</time>
      </trkpt>
      <trkpt lat="43.72513" lon="7.09689">
        <ele>331.39999389648</ele>
        <time>2023-08-02T12:00:20.000Z</time>
      </trkpt>
      <trkpt lat="43.72514" lon="7.09681">
        <ele>331.39999389648</ele>
        <time>2023-08-02T12:00:21.000Z</time>
      </trkpt>
      <trkpt lat="43.72515" lon="7.09673">
        <ele>331.39999389648</ele>
        <time>2023-08-02T12:00:22.000Z</time>
      </trkpt>
      <trkpt lat="43.72516" lon="7.09665">
        <ele>331.60000610352</ele>
        <time>2023-08-02T12:00:23.000Z</time>
      </trkpt>
      <trkpt lat="43.72518" lon="7.09657">
        <ele>331.79998779297</ele>
        <time>2023-08-02T12:00:24.000Z</time>
      </trkpt>
      <trkpt lat="43.72519" lon="7.0965">
        <ele>331.79998779297</ele>
        <time>2023-08-02T12:00:25.000Z</time>
      </trkpt>
      <trkpt lat="43.7252" lon="7.09642">
        <ele>331.79998779297</ele>
        <time>2023-08-02T12:00:26.000Z</time>
      </trkpt>
      <trkpt lat="43.72521" lon="7.09635">
        <ele>331.79998779297</ele>
        <time>2023-08-02T12:00:27.000Z</time>
      </trkpt>
      <trkpt lat="43.72522" lon="7.09627">
        <ele>331.79998779297</ele>
        <time>2023-08-02T12:00:28.000Z</time>
      </trkpt>
      <trkpt lat="43.72523" lon="7.0962">
        <ele>331.79998779297</ele>
        <time>2023-08-02T12:00:29.000Z</time>
      </trkpt>
      <trkpt lat="43.72524" lon="7.09612">
        <ele>332</ele>
        <time>2023-08-02T12:00:30.000Z</time>
      </trkpt>
      <trkpt lat="43.72525" lon="7.09604">
        <ele>332</ele>
        <time>2023-08-02T12:00:31.000Z</time>
      </trkpt>
      <trkpt lat="43.72526" lon="7.09597">
        <ele>332</ele>
        <time>2023-08-02T12:00:32.000Z</time>
      </trkpt>
      <trkpt lat="43.72527" lon="7.09589">
        <ele>332</ele>
        <time>2023-08-02T12:00:33.000Z</time>
      </trkpt>
      <trkpt lat="43.72528" lon="7.0958">
        <ele>332.20001220703</ele>
        <time>2023-08-02T12:00:34.000Z</time>
      </trkpt>
      <trkpt lat="43.72529" lon="7.09572">
        <ele>332.20001220703</ele>
        <time>2023-08-02T12:00:35.000Z</time>
      </trkpt>
      <trkpt lat="43.7253" lon="7.09563">
        <ele>332</ele>
        <time>2023-08-02T12:00:36.000Z</time>
      </trkpt>
      <trkpt lat="43.72531" lon="7.09555">
        <ele>332.20001220703</ele>
        <time>2023-08-02T12:00:37.000Z</time>
      </trkpt>
      <trkpt lat="43.72532" lon="7.09547">
        <ele>332.20001220703</ele>
        <time>2023-08-02T12:00:38.000Z</time>
      </trkpt>
      <trkpt lat="43.72532" lon="7.09539">
        <ele>332.20001220703</ele>
        <time>2023-08-02T12:00:39.000Z</time>
      </trkpt>
      <trkpt lat="43.72533" lon="7.09531">
        <ele>332.20001220703</ele>
        <time>2023-08-02T12:00:40.000Z</time>
      </trkpt>
      <trkpt lat="43.72534" lon="7.09524">
        <ele>332.20001220703</ele>
        <time>2023-08-02T12:00:41.000Z</time>
      </trkpt>
      <trkpt lat="43.72535" lon="7.09517">
        <ele>332.20001220703</ele>
        <time>2023-08-02T12:00:42.000Z</time>
      </trkpt>
      <trkpt lat="43.72536" lon="7.09509">
        <ele>332.20001220703</ele>
        <time>2023-08-02T12:00:43.000Z</time>
      </trkpt>
      <trkpt lat="43.72538" lon="7.09502">
        <ele>332.20001220703</ele>
        <time>2023-08-02T12:00:44.000Z</time>
      </trkpt>
      <trkpt lat="43.72541" lon="7.09495">
        <ele>332.20001220703</ele>
        <time>2023-08-02T12:00:45.000Z</time>
      </trkpt>
      <trkpt lat="43.72544" lon="7.09488">
        <ele>332.20001220703</ele>
        <time>2023-08-02T12:00:46.000Z</time>
      </trkpt>
      <trkpt lat="43.72544" lon="7.0948">
        <ele>332.20001220703</ele>
        <time>2023-08-02T12:00:47.000Z</time>
      </trkpt>
      <trkpt lat="43.72542" lon="7.09473">
        <ele>332.20001220703</ele>
        <time>2023-08-02T12:00:48.000Z</time>
      </trkpt>
      <trkpt lat="43.7254" lon="7.09467">
        <ele>332.20001220703</ele>
        <time>2023-08-02T12:00:49.000Z</time>
      </trkpt>
      <trkpt lat="43.72539" lon="7.0946">
        <ele>332.20001220703</ele>
        <time>2023-08-02T12:00:50.000Z</time>
      </trkpt>
      <trkpt lat="43.72539" lon="7.09452">
        <ele>332.39999389648</ele>
        <time>2023-08-02T12:00:51.000Z</time>
      </trkpt>
      <trkpt lat="43.72539" lon="7.09444">
        <ele>332.39999389648</ele>
        <time>2023-08-02T12:00:52.000Z</time>
      </trkpt>
      <trkpt lat="43.72539" lon="7.09437">
        <ele>332.39999389648</ele>
        <time>2023-08-02T12:00:53.000Z</time>
      </trkpt>
      <trkpt lat="43.72539" lon="7.0943">
        <ele>332.60000610352</ele>
        <time>2023-08-02T12:00:54.000Z</time>
      </trkpt>
      <trkpt lat="43.72538" lon="7.09423">
        <ele>332.60000610352</ele>
        <time>2023-08-02T12:00:55.000Z</time>
      </trkpt>
      <trkpt lat="43.72538" lon="7.09416">
        <ele>332.60000610352</ele>
        <time>2023-08-02T12:00:56.000Z</time>
      </trkpt>
      <trkpt lat="43.72537" lon="7.09409">
        <ele>332.60000610352</ele>
        <time>2023-08-02T12:00:57.000Z</time>
      </trkpt>
      <trkpt lat="43.72536" lon="7.09402">
        <ele>332.79998779297</ele>
        <time>2023-08-02T12:00:58.000Z</time>
      </trkpt>
      <trkpt lat="43.72535" lon="7.09395">
        <ele>332.79998779297</ele>
        <time>2023-08-02T12:00:59.000Z</time>
      </trkpt>
      <trkpt lat="43.72534" lon="7.09387">
        <ele>332.79998779297</ele>
        <time>2023-08-02T12:01:00.000Z</time>
      </trkpt>
      <trkpt lat="43.72533" lon="7.09379">
        <ele>332.79998779297</ele>
        <time>2023-08-02T12:01:01.000Z</time>
      </trkpt>
      <trkpt lat="43.72532" lon="7.09371">
        <ele>332.79998779297</ele>
        <time>2023-08-02T12:01:02.000Z</time>
      </trkpt>
      <trkpt lat="43.72531" lon="7.09363">
        <ele>332.79998779297</ele>
        <time>2023-08-02T12:01:03.000Z</time>
      </trkpt>
      <trkpt lat="43.7253" lon="7.09355">
        <ele>332.79998779297</ele>
        <time>2023-08-02T12:01:04.000Z</time>
      </trkpt>
      <trkpt lat="43.72528" lon="7.09347">
        <ele>332.79998779297</ele>
        <time>2023-08-02T12:01:05.000Z</time>
      </trkpt>
      <trkpt lat="43.72527" lon="7.09339">
        <ele>333</ele>
        <time>2023-08-02T12:01:06.000Z</time>
      </trkpt>
      <trkpt lat="43.72526" lon="7.09331">
        <ele>333</ele>
        <time>2023-08-02T12:01:07.000Z</time>
      </trkpt>
      <trkpt lat="43.72525" lon="7.09324">
        <ele>333</ele>
        <time>2023-08-02T12:01:08.000Z</time>
      </trkpt>
      <trkpt lat="43.72523" lon="7.09316">
        <ele>333</ele>
        <time>2023-08-02T12:01:09.000Z</time>
      </trkpt>
      <trkpt lat="43.72522" lon="7.09309">
        <ele>333</ele>
        <time>2023-08-02T12:01:10.000Z</time>
      </trkpt>
      <trkpt lat="43.7252" lon="7.09301">
        <ele>333</ele>
        <time>2023-08-02T12:01:11.000Z</time>
      </trkpt>
      <trkpt lat="43.72518" lon="7.09293">
        <ele>333</ele>
        <time>2023-08-02T12:01:12.000Z</time>
      </trkpt>
      <trkpt lat="43.72517" lon="7.09286">
        <ele>333</ele>
        <time>2023-08-02T12:01:13.000Z</time>
      </trkpt>
      <trkpt lat="43.72515" lon="7.09279">
        <ele>333</ele>
        <time>2023-08-02T12:01:14.000Z</time>
      </trkpt>
      <trkpt lat="43.72513" lon="7.09271">
        <ele>333</ele>
        <time>2023-08-02T12:01:15.000Z</time>
      </trkpt>
      <trkpt lat="43.72512" lon="7.09264">
        <ele>333</ele>
        <time>2023-08-02T12:01:16.000Z</time>
      </trkpt>
      <trkpt lat="43.7251" lon="7.09257">
        <ele>333</ele>
        <time>2023-08-02T12:01:17.000Z</time>
      </trkpt>
      <trkpt lat="43.72508" lon="7.09249">
        <ele>333</ele>
        <time>2023-08-02T12:01:18.000Z</time>
      </trkpt>
      <trkpt lat="43.72506" lon="7.09241">
        <ele>333</ele>
        <time>2023-08-02T12:01:19.000Z</time>
      </trkpt>
      <trkpt lat="43.72503" lon="7.09233">
        <ele>333.20001220703</ele>
        <time>2023-08-02T12:01:20.000Z</time>
      </trkpt>
      <trkpt lat="43.72501" lon="7.09225">
        <ele>333.20001220703</ele>
        <time>2023-08-02T12:01:21.000Z</time>
      </trkpt>
      <trkpt lat="43.72498" lon="7.09218">
        <ele>333.20001220703</ele>
        <time>2023-08-02T12:01:22.000Z</time>
      </trkpt>
      <trkpt lat="43.72496" lon="7.09211">
        <ele>333.20001220703</ele>
        <time>2023-08-02T12:01:23.000Z</time>
      </trkpt>
      <trkpt lat="43.72494" lon="7.09204">
        <ele>333.39999389648</ele>
        <time>2023-08-02T12:01:24.000Z</time>
      </trkpt>
      <trkpt lat="43.72492" lon="7.09196">
        <ele>333.39999389648</ele>
        <time>2023-08-02T12:01:25.000Z</time>
      </trkpt>
      <trkpt lat="43.72489" lon="7.09189">
        <ele>333.39999389648</ele>
        <time>2023-08-02T12:01:26.000Z</time>
      </trkpt>
      <trkpt lat="43.72486" lon="7.09181">
        <ele>333.39999389648</ele>
        <time>2023-08-02T12:01:27.000Z</time>
      </trkpt>
      <trkpt lat="43.72483" lon="7.09174">
        <ele>333.39999389648</ele>
        <time>2023-08-02T12:01:28.000Z</time>
      </trkpt>
      <trkpt lat="43.72479" lon="7.09167">
        <ele>333.20001220703</ele>
        <time>2023-08-02T12:01:29.000Z</time>
      </trkpt>
      <trkpt lat="43.72476" lon="7.09159">
        <ele>333.20001220703</ele>
        <time>2023-08-02T12:01:30.000Z</time>
      </trkpt>
      <trkpt lat="43.72472" lon="7.09152">
        <ele>333.20001220703</ele>
        <time>2023-08-02T12:01:31.000Z</time>
      </trkpt>
      <trkpt lat="43.72469" lon="7.09144">
        <ele>333.20001220703</ele>
        <time>2023-08-02T12:01:32.000Z</time>
      </trkpt>
      <trkpt lat="43.72466" lon="7.09138">
        <ele>333.20001220703</ele>
        <time>2023-08-02T12:01:33.000Z</time>
      </trkpt>
      <trkpt lat="43.72462" lon="7.0913">
        <ele>333.20001220703</ele>
        <time>2023-08-02T12:01:34.000Z</time>
      </trkpt>
      <trkpt lat="43.72459" lon="7.09122">
        <ele>333.20001220703</ele>
        <time>2023-08-02T12:01:35.000Z</time>
      </trkpt>
      <trkpt lat="43.72455" lon="7.09115">
        <ele>333.20001220703</ele>
        <time>2023-08-02T12:01:36.000Z</time>
      </trkpt>
      <trkpt lat="43.72452" lon="7.09107">
        <ele>333.20001220703</ele>
        <time>2023-08-02T12:01:37.000Z</time>
      </trkpt>
      <trkpt lat="43.72449" lon="7.09099">
        <ele>333</ele>
        <time>2023-08-02T12:01:38.000Z</time>
      </trkpt>
      <trkpt lat="43.72446" lon="7.09091">
        <ele>333</ele>
        <time>2023-08-02T12:01:39.000Z</time>
      </trkpt>
      <trkpt lat="43.72443" lon="7.09083">
        <ele>333</ele>
        <time>2023-08-02T12:01:40.000Z</time>
      </trkpt>
      <trkpt lat="43.72439" lon="7.09075">
        <ele>333</ele>
        <time>2023-08-02T12:01:41.000Z</time>
      </trkpt>
      <trkpt lat="43.72436" lon="7.09068">
        <ele>333</ele>
        <time>2023-08-02T12:01:42.000Z</time>
      </trkpt>
      <trkpt lat="43.72433" lon="7.0906">
        <ele>333</ele>
        <time>2023-08-02T12:01:43.000Z</time>
      </trkpt>
      <trkpt lat="43.7243" lon="7.09052">
        <ele>332.79998779297</ele>
        <time>2023-08-02T12:01:44.000Z</time>
      </trkpt>
      <trkpt lat="43.72426" lon="7.09045">
        <ele>332.79998779297</ele>
        <time>2023-08-02T12:01:45.000Z</time>
      </trkpt>
      <trkpt lat="43.72423" lon="7.09038">
        <ele>332.79998779297</ele>
        <time>2023-08-02T12:01:46.000Z</time>
      </trkpt>
      <trkpt lat="43.7242" lon="7.0903">
        <ele>332.79998779297</ele>
        <time>2023-08-02T12:01:47.000Z</time>
      </trkpt>
      <trkpt lat="43.72417" lon="7.09023">
        <ele>332.79998779297</ele>
        <time>2023-08-02T12:01:48.000Z</time>
      </trkpt>
      <trkpt lat="43.72414" lon="7.09015">
        <ele>332.79998779297</ele>
        <time>2023-08-02T12:01:49.000Z</time>
      </trkpt>
      <trkpt lat="43.72411" lon="7.09008">
        <ele>332.79998779297</ele>
        <time>2023-08-02T12:01:50.000Z</time>
      </trkpt>
      <trkpt lat="43.72408" lon="7.09001">
        <ele>332.60000610352</ele>
        <time>2023-08-02T12:01:51.000Z</time>
      </trkpt>
      <trkpt lat="43.72405" lon="7.08993">
        <ele>332.60000610352</ele>
        <time>2023-08-02T12:01:52.000Z</time>
      </trkpt>
      <trkpt lat="43.72402" lon="7.08986">
        <ele>332.60000610352</ele>
        <time>2023-08-02T12:01:53.000Z</time>
      </trkpt>
      <trkpt lat="43.72398" lon="7.08979">
        <ele>332.60000610352</ele>
        <time>2023-08-02T12:01:54.000Z</time>
      </trkpt>
      <trkpt lat="43.72395" lon="7.08972">
        <ele>332.60000610352</ele>
        <time>2023-08-02T12:01:55.000Z</time>
      </trkpt>
      <trkpt lat="43.72392" lon="7.08965">
        <ele>332.39999389648</ele>
        <time>2023-08-02T12:01:56.000Z</time>
      </trkpt>
      <trkpt lat="43.72388" lon="7.08959">
        <ele>332.39999389648</ele>
        <time>2023-08-02T12:01:57.000Z</time>
      </trkpt>
      <trkpt lat="43.72385" lon="7.08952">
        <ele>332.39999389648</ele>
        <time>2023-08-02T12:01:58.000Z</time>
      </trkpt>
      <trkpt lat="43.72382" lon="7.08946">
        <ele>332.39999389648</ele>
        <time>2023-08-02T12:01:59.000Z</time>
      </trkpt>
      <trkpt lat="43.7238" lon="7.08939">
        <ele>332.39999389648</ele>
        <time>2023-08-02T12:02:00.000Z</time>
      </trkpt>
      <trkpt lat="43.72377" lon="7.08931">
        <ele>332.39999389648</ele>
        <time>2023-08-02T12:02:01.000Z</time>
      </trkpt>
      <trkpt lat="43.72376" lon="7.08924">
        <ele>332.60000610352</ele>
        <time>2023-08-02T12:02:02.000Z</time>
      </trkpt>
      <trkpt lat="43.72375" lon="7.08916">
        <ele>332.60000610352</ele>
        <time>2023-08-02T12:02:03.000Z</time>
      </trkpt>
      <trkpt lat="43.72374" lon="7.08908">
        <ele>332.39999389648</ele>
        <time>2023-08-02T12:02:04.000Z</time>
      </trkpt>
      <trkpt lat="43.72374" lon="7.089">
        <ele>332.39999389648</ele>
        <time>2023-08-02T12:02:05.000Z</time>
      </trkpt>
      <trkpt lat="43.72374" lon="7.08892">
        <ele>332.39999389648</ele>
        <time>2023-08-02T12:02:06.000Z</time>
      </trkpt>
      <trkpt lat="43.72375" lon="7.08885">
        <ele>332.60000610352</ele>
        <time>2023-08-02T12:02:07.000Z</time>
      </trkpt>
      <trkpt lat="43.72374" lon="7.08878">
        <ele>332.60000610352</ele>
        <time>2023-08-02T12:02:08.000Z</time>
      </trkpt>
      <trkpt lat="43.72372" lon="7.08871">
        <ele>332.60000610352</ele>
        <time>2023-08-02T12:02:09.000Z</time>
      </trkpt>
      <trkpt lat="43.72369" lon="7.08867">
        <ele>332.60000610352</ele>
        <time>2023-08-02T12:02:10.000Z</time>
      </trkpt>
      <trkpt lat="43.72365" lon="7.08863">
        <ele>332.60000610352</ele>
        <time>2023-08-02T12:02:11.000Z</time>
      </trkpt>
      <trkpt lat="43.72361" lon="7.08861">
        <ele>332.60000610352</ele>
        <time>2023-08-02T12:02:12.000Z</time>
      </trkpt>
      <trkpt lat="43.72356" lon="7.08858">
        <ele>332.60000610352</ele>
        <time>2023-08-02T12:02:13.000Z</time>
      </trkpt>
      <trkpt lat="43.72351" lon="7.08855">
        <ele>332.60000610352</ele>
        <time>2023-08-02T12:02:14.000Z</time>
      </trkpt>
      <trkpt lat="43.72348" lon="7.0885">
        <ele>332.60000610352</ele>
        <time>2023-08-02T12:02:15.000Z</time>
      </trkpt>
      <trkpt lat="43.72345" lon="7.08844">
        <ele>332.39999389648</ele>
        <time>2023-08-02T12:02:16.000Z</time>
      </trkpt>
      <trkpt lat="43.72343" lon="7.08838">
        <ele>332.39999389648</ele>
        <time>2023-08-02T12:02:17.000Z</time>
      </trkpt>
      <trkpt lat="43.72339" lon="7.08833">
        <ele>332.39999389648</ele>
        <time>2023-08-02T12:02:18.000Z</time>
      </trkpt>
      <trkpt lat="43.72335" lon="7.08829">
        <ele>332.39999389648</ele>
        <time>2023-08-02T12:02:19.000Z</time>
      </trkpt>
      <trkpt lat="43.72331" lon="7.08824">
        <ele>332.39999389648</ele>
        <time>2023-08-02T12:02:20.000Z</time>
      </trkpt>
      <trkpt lat="43.72327" lon="7.0882">
        <ele>332.39999389648</ele>
        <time>2023-08-02T12:02:21.000Z</time>
      </trkpt>
      <trkpt lat="43.72324" lon="7.08814">
        <ele>332.39999389648</ele>
        <time>2023-08-02T12:02:22.000Z</time>
      </trkpt>
      <trkpt lat="43.72322" lon="7.08808">
        <ele>332.39999389648</ele>
        <time>2023-08-02T12:02:23.000Z</time>
      </trkpt>
      <trkpt lat="43.7232" lon="7.08802">
        <ele>332.39999389648</ele>
        <time>2023-08-02T12:02:24.000Z</time>
      </trkpt>
      <trkpt lat="43.72318" lon="7.08795">
        <ele>332.39999389648</ele>
        <time>2023-08-02T12:02:25.000Z</time>
      </trkpt>
      <trkpt lat="43.72315" lon="7.08789">
        <ele>332.39999389648</ele>
        <time>2023-08-02T12:02:26.000Z</time>
      </trkpt>
      <trkpt lat="43.72313" lon="7.08782">
        <ele>332.60000610352</ele>
        <time>2023-08-02T12:02:27.000Z</time>
      </trkpt>
      <trkpt lat="43.7231" lon="7.08776">
        <ele>332.60000610352</ele>
        <time>2023-08-02T12:02:28.000Z</time>
      </trkpt>
      <trkpt lat="43.72308" lon="7.0877">
        <ele>332.79998779297</ele>
        <time>2023-08-02T12:02:29.000Z</time>
      </trkpt>
      <trkpt lat="43.72305" lon="7.08764">
        <ele>332.79998779297</ele>
        <time>2023-08-02T12:02:30.000Z</time>
      </trkpt>
      <trkpt lat="43.72303" lon="7.08758">
        <ele>332.79998779297</ele>
        <time>2023-08-02T12:02:31.000Z</time>
      </trkpt>
      <trkpt lat="43.723" lon="7.08751">
        <ele>333</ele>
        <time>2023-08-02T12:02:32.000Z</time>
      </trkpt>
      <trkpt lat="43.72298" lon="7.08745">
        <ele>333</ele>
        <time>2023-08-02T12:02:33.000Z</time>
      </trkpt>
      <trkpt lat="43.72295" lon="7.0874">
        <ele>333.20001220703</ele>
        <time>2023-08-02T12:02:34.000Z</time>
      </trkpt>
      <trkpt lat="43.72293" lon="7.08733">
        <ele>333.20001220703</ele>
        <time>2023-08-02T12:02:35.000Z</time>
      </trkpt>
      <trkpt lat="43.7229" lon="7.08727">
        <ele>333.20001220703</ele>
        <time>2023-08-02T12:02:36.000Z</time>
      </trkpt>
      <trkpt lat="43.72288" lon="7.08722">
        <ele>333.39999389648</ele>
        <time>2023-08-02T12:02:37.000Z</time>
      </trkpt>
      <trkpt lat="43.72284" lon="7.08716">
        <ele>333.39999389648</ele>
        <time>2023-08-02T12:02:38.000Z</time>
      </trkpt>
      <trkpt lat="43.72282" lon="7.0871">
        <ele>333.60000610352</ele>
        <time>2023-08-02T12:02:39.000Z</time>
      </trkpt>
      <trkpt lat="43.72279" lon="7.08705">
        <ele>333.79998779297</ele>
        <time>2023-08-02T12:02:40.000Z</time>
      </trkpt>
      <trkpt lat="43.72276" lon="7.08699">
        <ele>333.79998779297</ele>
        <time>2023-08-02T12:02:41.000Z</time>
      </trkpt>
      <trkpt lat="43.72273" lon="7.08694">
        <ele>333.79998779297</ele>
        <time>2023-08-02T12:02:42.000Z</time>
      </trkpt>
      <trkpt lat="43.7227" lon="7.08689">
        <ele>334</ele>
        <time>2023-08-02T12:02:43.000Z</time>
      </trkpt>
      <trkpt lat="43.72267" lon="7.08683">
        <ele>334</ele>
        <time>2023-08-02T12:02:44.000Z</time>
      </trkpt>
      <trkpt lat="43.72263" lon="7.08678">
        <ele>334.20001220703</ele>
        <time>2023-08-02T12:02:45.000Z</time>
      </trkpt>
      <trkpt lat="43.7226" lon="7.08673">
        <ele>334.20001220703</ele>
        <time>2023-08-02T12:02:46.000Z</time>
      </trkpt>
      <trkpt lat="43.72256" lon="7.08668">
        <ele>334.39999389648</ele>
        <time>2023-08-02T12:02:47.000Z</time>
      </trkpt>
      <trkpt lat="43.72253" lon="7.08662">
        <ele>334.60000610352</ele>
        <time>2023-08-02T12:02:48.000Z</time>
      </trkpt>
      <trkpt lat="43.72249" lon="7.08657">
        <ele>334.79998779297</ele>
        <time>2023-08-02T12:02:49.000Z</time>
      </trkpt>
      <trkpt lat="43.72246" lon="7.08652">
        <ele>334.79998779297</ele>
        <time>2023-08-02T12:02:50.000Z</time>
      </trkpt>
      <trkpt lat="43.72242" lon="7.08646">
        <ele>334.79998779297</ele>
        <time>2023-08-02T12:02:51.000Z</time>
      </trkpt>
      <trkpt lat="43.72239" lon="7.08641">
        <ele>335</ele>
        <time>2023-08-02T12:02:52.000Z</time>
      </trkpt>
      <trkpt lat="43.72235" lon="7.08636">
        <ele>335.20001220703</ele>
        <time>2023-08-02T12:02:53.000Z</time>
      </trkpt>
      <trkpt lat="43.72231" lon="7.08631">
        <ele>335.20001220703</ele>
        <time>2023-08-02T12:02:54.000Z</time>
      </trkpt>
      <trkpt lat="43.72228" lon="7.08626">
        <ele>335.39999389648</ele>
        <time>2023-08-02T12:02:55.000Z</time>
      </trkpt>
      <trkpt lat="43.72224" lon="7.08621">
        <ele>335.39999389648</ele>
        <time>2023-08-02T12:02:56.000Z</time>
      </trkpt>
      <trkpt lat="43.72221" lon="7.08617">
        <ele>335.39999389648</ele>
        <time>2023-08-02T12:02:57.000Z</time>
      </trkpt>
      <trkpt lat="43.72217" lon="7.08612">
        <ele>335.39999389648</ele>
        <time>2023-08-02T12:02:58.000Z</time>
      </trkpt>
      <trkpt lat="43.72213" lon="7.08607">
        <ele>335.39999389648</ele>
        <time>2023-08-02T12:02:59.000Z</time>
      </trkpt>
      <trkpt lat="43.72209" lon="7.08602">
        <ele>335.39999389648</ele>
        <time>2023-08-02T12:03:00.000Z</time>
      </trkpt>
      <trkpt lat="43.72205" lon="7.08598">
        <ele>335.39999389648</ele>
        <time>2023-08-02T12:03:01.000Z</time>
      </trkpt>
      <trkpt lat="43.72202" lon="7.08593">
        <ele>335.79998779297</ele>
        <time>2023-08-02T12:03:02.000Z</time>
      </trkpt>
      <trkpt lat="43.72198" lon="7.08588">
        <ele>335.79998779297</ele>
        <time>2023-08-02T12:03:03.000Z</time>
      </trkpt>
      <trkpt lat="43.72194" lon="7.08583">
        <ele>335.79998779297</ele>
        <time>2023-08-02T12:03:04.000Z</time>
      </trkpt>
      <trkpt lat="43.72191" lon="7.08578">
        <ele>335.79998779297</ele>
        <time>2023-08-02T12:03:05.000Z</time>
      </trkpt>
      <trkpt lat="43.72187" lon="7.08574">
        <ele>336</ele>
        <time>2023-08-02T12:03:06.000Z</time>
      </trkpt>
      <trkpt lat="43.72184" lon="7.08569">
        <ele>336</ele>
        <time>2023-08-02T12:03:07.000Z</time>
      </trkpt>
      <trkpt lat="43.7218" lon="7.08564">
        <ele>336</ele>
        <time>2023-08-02T12:03:08.000Z</time>
      </trkpt>
      <trkpt lat="43.72176" lon="7.0856">
        <ele>336.20001220703</ele>
        <time>2023-08-02T12:03:09.000Z</time>
      </trkpt>
      <trkpt lat="43.72172" lon="7.08556">
        <ele>336.20001220703</ele>
        <time>2023-08-02T12:03:10.000Z</time>
      </trkpt>
      <trkpt lat="43.72168" lon="7.0855">
        <ele>336.39999389648</ele>
        <time>2023-08-02T12:03:11.000Z</time>
      </trkpt>
      <trkpt lat="43.72164" lon="7.08545">
        <ele>336.60000610352</ele>
        <time>2023-08-02T12:03:12.000Z</time>
      </trkpt>
      <trkpt lat="43.7216" lon="7.0854">
        <ele>336.60000610352</ele>
        <time>2023-08-02T12:03:13.000Z</time>
      </trkpt>
      <trkpt lat="43.72156" lon="7.08536">
        <ele>336.79998779297</ele>
        <time>2023-08-02T12:03:14.000Z</time>
      </trkpt>
      <trkpt lat="43.72152" lon="7.08531">
        <ele>336.79998779297</ele>
        <time>2023-08-02T12:03:15.000Z</time>
      </trkpt>
      <trkpt lat="43.72149" lon="7.08526">
        <ele>337</ele>
        <time>2023-08-02T12:03:16.000Z</time>
      </trkpt>
      <trkpt lat="43.72145" lon="7.08521">
        <ele>337</ele>
        <time>2023-08-02T12:03:17.000Z</time>
      </trkpt>
      <trkpt lat="43.72141" lon="7.08516">
        <ele>337</ele>
        <time>2023-08-02T12:03:18.000Z</time>
      </trkpt>
      <trkpt lat="43.72137" lon="7.08511">
        <ele>337.20001220703</ele>
        <time>2023-08-02T12:03:19.000Z</time>
      </trkpt>
      <trkpt lat="43.72133" lon="7.08507">
        <ele>337.20001220703</ele>
        <time>2023-08-02T12:03:20.000Z</time>
      </trkpt>
      <trkpt lat="43.72129" lon="7.08502">
        <ele>337.20001220703</ele>
        <time>2023-08-02T12:03:21.000Z</time>
      </trkpt>
      <trkpt lat="43.72126" lon="7.08497">
        <ele>337.20001220703</ele>
        <time>2023-08-02T12:03:22.000Z</time>
      </trkpt>
      <trkpt lat="43.72122" lon="7.08493">
        <ele>337.39999389648</ele>
        <time>2023-08-02T12:03:23.000Z</time>
      </trkpt>
      <trkpt lat="43.72118" lon="7.08488">
        <ele>337.39999389648</ele>
        <time>2023-08-02T12:03:24.000Z</time>
      </trkpt>
      <trkpt lat="43.72114" lon="7.08482">
        <ele>337.39999389648</ele>
        <time>2023-08-02T12:03:25.000Z</time>
      </trkpt>
      <trkpt lat="43.72111" lon="7.08477">
        <ele>337.60000610352</ele>
        <time>2023-08-02T12:03:26.000Z</time>
      </trkpt>
      <trkpt lat="43.72107" lon="7.08472">
        <ele>337.60000610352</ele>
        <time>2023-08-02T12:03:27.000Z</time>
      </trkpt>
      <trkpt lat="43.72103" lon="7.08467">
        <ele>337.79998779297</ele>
        <time>2023-08-02T12:03:28.000Z</time>
      </trkpt>
      <trkpt lat="43.721" lon="7.08461">
        <ele>337.79998779297</ele>
        <time>2023-08-02T12:03:29.000Z</time>
      </trkpt>
      <trkpt lat="43.72096" lon="7.08456">
        <ele>337.79998779297</ele>
        <time>2023-08-02T12:03:30.000Z</time>
      </trkpt>
      <trkpt lat="43.72093" lon="7.0845">
        <ele>338</ele>
        <time>2023-08-02T12:03:31.000Z</time>
      </trkpt>
      <trkpt lat="43.72089" lon="7.08445">
        <ele>338</ele>
        <time>2023-08-02T12:03:32.000Z</time>
      </trkpt>
      <trkpt lat="43.72085" lon="7.0844">
        <ele>338.20001220703</ele>
        <time>2023-08-02T12:03:33.000Z</time>
      </trkpt>
      <trkpt lat="43.72082" lon="7.08435">
        <ele>338.39999389648</ele>
        <time>2023-08-02T12:03:34.000Z</time>
      </trkpt>
      <trkpt lat="43.7208" lon="7.0843">
        <ele>338.39999389648</ele>
        <time>2023-08-02T12:03:35.000Z</time>
      </trkpt>
      <trkpt lat="43.72079" lon="7.08424">
        <ele>338.39999389648</ele>
        <time>2023-08-02T12:03:36.000Z</time>
      </trkpt>
      <trkpt lat="43.72078" lon="7.08419">
        <ele>338.60000610352</ele>
        <time>2023-08-02T12:03:37.000Z</time>
      </trkpt>
      <trkpt lat="43.72075" lon="7.08415">
        <ele>338.60000610352</ele>
        <time>2023-08-02T12:03:38.000Z</time>
      </trkpt>
      <trkpt lat="43.72073" lon="7.08411">
        <ele>338.79998779297</ele>
        <time>2023-08-02T12:03:39.000Z</time>
      </trkpt>
      <trkpt lat="43.7207" lon="7.08409">
        <ele>338.79998779297</ele>
        <time>2023-08-02T12:03:40.000Z</time>
      </trkpt>
      <trkpt lat="43.72066" lon="7.08409">
        <ele>338.79998779297</ele>
        <time>2023-08-02T12:03:41.000Z</time>
      </trkpt>
      <trkpt lat="43.72063" lon="7.0841">
        <ele>338.79998779297</ele>
        <time>2023-08-02T12:03:42.000Z</time>
      </trkpt>
      <trkpt lat="43.7206" lon="7.08411">
        <ele>338.79998779297</ele>
        <time>2023-08-02T12:03:43.000Z</time>
      </trkpt>
      <trkpt lat="43.72057" lon="7.08413">
        <ele>338.60000610352</ele>
        <time>2023-08-02T12:03:44.000Z</time>
      </trkpt>
      <trkpt lat="43.72055" lon="7.08414">
        <ele>338.39999389648</ele>
        <time>2023-08-02T12:03:45.000Z</time>
      </trkpt>
      <trkpt lat="43.72052" lon="7.08415">
        <ele>338</ele>
        <time>2023-08-02T12:03:46.000Z</time>
      </trkpt>
      <trkpt lat="43.72049" lon="7.08417">
        <ele>338</ele>
        <time>2023-08-02T12:03:47.000Z</time>
      </trkpt>
      <trkpt lat="43.72045" lon="7.08418">
        <ele>337.60000610352</ele>
        <time>2023-08-02T12:03:48.000Z</time>
      </trkpt>
      <trkpt lat="43.7204" lon="7.08419">
        <ele>337.60000610352</ele>
        <time>2023-08-02T12:03:49.000Z</time>
      </trkpt>
      <trkpt lat="43.72034" lon="7.08421">
        <ele>337.20001220703</ele>
        <time>2023-08-02T12:03:50.000Z</time>
      </trkpt>
      <trkpt lat="43.72029" lon="7.08426">
        <ele>337</ele>
        <time>2023-08-02T12:03:51.000Z</time>
      </trkpt>
      <trkpt lat="43.72023" lon="7.0843">
        <ele>336.79998779297</ele>
        <time>2023-08-02T12:03:52.000Z</time>
      </trkpt>
      <trkpt lat="43.72018" lon="7.08436">
        <ele>336.39999389648</ele>
        <time>2023-08-02T12:03:53.000Z</time>
      </trkpt>
      <trkpt lat="43.72012" lon="7.08442">
        <ele>336.20001220703</ele>
        <time>2023-08-02T12:03:54.000Z</time>
      </trkpt>
      <trkpt lat="43.72008" lon="7.08451">
        <ele>336</ele>
        <time>2023-08-02T12:03:55.000Z</time>
      </trkpt>
      <trkpt lat="43.72003" lon="7.0846">
        <ele>335.60000610352</ele>
        <time>2023-08-02T12:03:56.000Z</time>
      </trkpt>
      <trkpt lat="43.71996" lon="7.08469">
        <ele>335</ele>
        <time>2023-08-02T12:03:57.000Z</time>
      </trkpt>
      <trkpt lat="43.71989" lon="7.08475">
        <ele>334.20001220703</ele>
        <time>2023-08-02T12:03:58.000Z</time>
      </trkpt>
      <trkpt lat="43.7198" lon="7.08479">
        <ele>333.60000610352</ele>
        <time>2023-08-02T12:03:59.000Z</time>
      </trkpt>
      <trkpt lat="43.71971" lon="7.08478">
        <ele>332.79998779297</ele>
        <time>2023-08-02T12:04:00.000Z</time>
      </trkpt>
      <trkpt lat="43.71963" lon="7.08474">
        <ele>332.39999389648</ele>
        <time>2023-08-02T12:04:01.000Z</time>
      </trkpt>
      <trkpt lat="43.71956" lon="7.0847">
        <ele>332</ele>
        <time>2023-08-02T12:04:02.000Z</time>
      </trkpt>
      <trkpt lat="43.71948" lon="7.08467">
        <ele>331.79998779297</ele>
        <time>2023-08-02T12:04:03.000Z</time>
      </trkpt>
      <trkpt lat="43.71941" lon="7.08462">
        <ele>331.60000610352</ele>
        <time>2023-08-02T12:04:04.000Z</time>
      </trkpt>
      <trkpt lat="43.71934" lon="7.08458">
        <ele>331</ele>
        <time>2023-08-02T12:04:05.000Z</time>
      </trkpt>
      <trkpt lat="43.71926" lon="7.08455">
        <ele>331</ele>
        <time>2023-08-02T12:04:06.000Z</time>
      </trkpt>
      <trkpt lat="43.71918" lon="7.08451">
        <ele>330.60000610352</ele>
        <time>2023-08-02T12:04:07.000Z</time>
      </trkpt>
      <trkpt lat="43.7191" lon="7.08447">
        <ele>330.39999389648</ele>
        <time>2023-08-02T12:04:08.000Z</time>
      </trkpt>
      <trkpt lat="43.71903" lon="7.08442">
        <ele>330.20001220703</ele>
        <time>2023-08-02T12:04:09.000Z</time>
      </trkpt>
      <trkpt lat="43.71895" lon="7.08438">
        <ele>330</ele>
        <time>2023-08-02T12:04:10.000Z</time>
      </trkpt>
      <trkpt lat="43.71887" lon="7.08434">
        <ele>329.79998779297</ele>
        <time>2023-08-02T12:04:11.000Z</time>
      </trkpt>
      <trkpt lat="43.71878" lon="7.0843">
        <ele>329</ele>
        <time>2023-08-02T12:04:12.000Z</time>
      </trkpt>
      <trkpt lat="43.71869" lon="7.08427">
        <ele>329</ele>
        <time>2023-08-02T12:04:13.000Z</time>
      </trkpt>
      <trkpt lat="43.7186" lon="7.08425">
        <ele>328.39999389648</ele>
        <time>2023-08-02T12:04:14.000Z</time>
      </trkpt>
      <trkpt lat="43.7185" lon="7.08424">
        <ele>328</ele>
        <time>2023-08-02T12:04:15.000Z</time>
      </trkpt>
      <trkpt lat="43.71841" lon="7.08423">
        <ele>327.39999389648</ele>
        <time>2023-08-02T12:04:16.000Z</time>
      </trkpt>
      <trkpt lat="43.71831" lon="7.08426">
        <ele>326.79998779297</ele>
        <time>2023-08-02T12:04:17.000Z</time>
      </trkpt>
      <trkpt lat="43.71823" lon="7.0843">
        <ele>326.60000610352</ele>
        <time>2023-08-02T12:04:18.000Z</time>
      </trkpt>
      <trkpt lat="43.71815" lon="7.08434">
        <ele>326.20001220703</ele>
        <time>2023-08-02T12:04:19.000Z</time>
      </trkpt>
      <trkpt lat="43.71807" lon="7.08437">
        <ele>326</ele>
        <time>2023-08-02T12:04:20.000Z</time>
      </trkpt>
      <trkpt lat="43.718" lon="7.08442">
        <ele>325.79998779297</ele>
        <time>2023-08-02T12:04:21.000Z</time>
      </trkpt>
      <trkpt lat="43.71793" lon="7.08445">
        <ele>325.79998779297</ele>
        <time>2023-08-02T12:04:22.000Z</time>
      </trkpt>
      <trkpt lat="43.71786" lon="7.08449">
        <ele>325.79998779297</ele>
        <time>2023-08-02T12:04:23.000Z</time>
      </trkpt>
      <trkpt lat="43.7178" lon="7.08452">
        <ele>325.39999389648</ele>
        <time>2023-08-02T12:04:24.000Z</time>
      </trkpt>
      <trkpt lat="43.71773" lon="7.08455">
        <ele>325.20001220703</ele>
        <time>2023-08-02T12:04:25.000Z</time>
      </trkpt>
      <trkpt lat="43.71767" lon="7.08457">
        <ele>325.20001220703</ele>
        <time>2023-08-02T12:04:26.000Z</time>
      </trkpt>
      <trkpt lat="43.71761" lon="7.0846">
        <ele>325</ele>
        <time>2023-08-02T12:04:27.000Z</time>
      </trkpt>
      <trkpt lat="43.71755" lon="7.08463">
        <ele>325</ele>
        <time>2023-08-02T12:04:28.000Z</time>
      </trkpt>
      <trkpt lat="43.71749" lon="7.08465">
        <ele>324.79998779297</ele>
        <time>2023-08-02T12:04:29.000Z</time>
      </trkpt>
      <trkpt lat="43.71743" lon="7.08467">
        <ele>324.79998779297</ele>
        <time>2023-08-02T12:04:30.000Z</time>
      </trkpt>
      <trkpt lat="43.71738" lon="7.08469">
        <ele>324.79998779297</ele>
        <time>2023-08-02T12:04:31.000Z</time>
      </trkpt>
      <trkpt lat="43.71733" lon="7.08471">
        <ele>324.79998779297</ele>
        <time>2023-08-02T12:04:32.000Z</time>
      </trkpt>
      <trkpt lat="43.71728" lon="7.08472">
        <ele>324.79998779297</ele>
        <time>2023-08-02T12:04:33.000Z</time>
      </trkpt>
      <trkpt lat="43.71723" lon="7.08474">
        <ele>324.79998779297</ele>
        <time>2023-08-02T12:04:34.000Z</time>
      </trkpt>
      <trkpt lat="43.71719" lon="7.08475">
        <ele>325</ele>
        <time>2023-08-02T12:04:35.000Z</time>
      </trkpt>
      <trkpt lat="43.71714" lon="7.08477">
        <ele>325</ele>
        <time>2023-08-02T12:04:36.000Z</time>
      </trkpt>
      <trkpt lat="43.71709" lon="7.08478">
        <ele>325</ele>
        <time>2023-08-02T12:04:37.000Z</time>
      </trkpt>
      <trkpt lat="43.71704" lon="7.0848">
        <ele>325</ele>
        <time>2023-08-02T12:04:38.000Z</time>
      </trkpt>
      <trkpt lat="43.71699" lon="7.08482">
        <ele>325</ele>
        <time>2023-08-02T12:04:39.000Z</time>
      </trkpt>
      <trkpt lat="43.71694" lon="7.08483">
        <ele>325</ele>
        <time>2023-08-02T12:04:40.000Z</time>
      </trkpt>
      <trkpt lat="43.71688" lon="7.08485">
        <ele>325</ele>
        <time>2023-08-02T12:04:41.000Z</time>
      </trkpt>
      <trkpt lat="43.71683" lon="7.08486">
        <ele>325</ele>
        <time>2023-08-02T12:04:42.000Z</time>
      </trkpt>
      <trkpt lat="43.71678" lon="7.08488">
        <ele>325</ele>
        <time>2023-08-02T12:04:43.000Z</time>
      </trkpt>
      <trkpt lat="43.71673" lon="7.08491">
        <ele>325</ele>
        <time>2023-08-02T12:04:44.000Z</time>
      </trkpt>
      <trkpt lat="43.71668" lon="7.08494">
        <ele>325</ele>
        <time>2023-08-02T12:04:45.000Z</time>
      </trkpt>
      <trkpt lat="43.71664" lon="7.08496">
        <ele>325</ele>
        <time>2023-08-02T12:04:46.000Z</time>
      </trkpt>
      <trkpt lat="43.71659" lon="7.08499">
        <ele>324.79998779297</ele>
        <time>2023-08-02T12:04:47.000Z</time>
      </trkpt>
      <trkpt lat="43.71655" lon="7.08503">
        <ele>324.79998779297</ele>
        <time>2023-08-02T12:04:48.000Z</time>
      </trkpt>
      <trkpt lat="43.7165" lon="7.08507">
        <ele>324.60000610352</ele>
        <time>2023-08-02T12:04:49.000Z</time>
      </trkpt>
      <trkpt lat="43.71646" lon="7.08512">
        <ele>324.60000610352</ele>
        <time>2023-08-02T12:04:50.000Z</time>
      </trkpt>
      <trkpt lat="43.71642" lon="7.08516">
        <ele>324.60000610352</ele>
        <time>2023-08-02T12:04:51.000Z</time>
      </trkpt>
      <trkpt lat="43.71637" lon="7.0852">
        <ele>324.60000610352</ele>
        <time>2023-08-02T12:04:52.000Z</time>
      </trkpt>
      <trkpt lat="43.71633" lon="7.08524">
        <ele>324.60000610352</ele>
        <time>2023-08-02T12:04:53.000Z</time>
      </trkpt>
      <trkpt lat="43.71628" lon="7.08528">
        <ele>324.60000610352</ele>
        <time>2023-08-02T12:04:54.000Z</time>
      </trkpt>
      <trkpt lat="43.71624" lon="7.08531">
        <ele>324.60000610352</ele>
        <time>2023-08-02T12:04:55.000Z</time>
      </trkpt>
      <trkpt lat="43.71619" lon="7.08535">
        <ele>324.60000610352</ele>
        <time>2023-08-02T12:04:56.000Z</time>
      </trkpt>
      <trkpt lat="43.71615" lon="7.08539">
        <ele>324.60000610352</ele>
        <time>2023-08-02T12:04:57.000Z</time>
      </trkpt>
      <trkpt lat="43.71611" lon="7.08543">
        <ele>324.60000610352</ele>
        <time>2023-08-02T12:04:58.000Z</time>
      </trkpt>
      <trkpt lat="43.71607" lon="7.08548">
        <ele>324.39999389648</ele>
        <time>2023-08-02T12:04:59.000Z</time>
      </trkpt>
      <trkpt lat="43.71603" lon="7.08552">
        <ele>324.39999389648</ele>
        <time>2023-08-02T12:05:00.000Z</time>
      </trkpt>
      <trkpt lat="43.71598" lon="7.08555">
        <ele>324.39999389648</ele>
        <time>2023-08-02T12:05:01.000Z</time>
      </trkpt>
      <trkpt lat="43.71594" lon="7.0856">
        <ele>324.39999389648</ele>
        <time>2023-08-02T12:05:02.000Z</time>
      </trkpt>
      <trkpt lat="43.71589" lon="7.08564">
        <ele>324.60000610352</ele>
        <time>2023-08-02T12:05:03.000Z</time>
      </trkpt>
      <trkpt lat="43.71584" lon="7.08568">
        <ele>324.60000610352</ele>
        <time>2023-08-02T12:05:04.000Z</time>
      </trkpt>
      <trkpt lat="43.7158" lon="7.08573">
        <ele>324.60000610352</ele>
        <time>2023-08-02T12:05:05.000Z</time>
      </trkpt>
      <trkpt lat="43.71575" lon="7.08577">
        <ele>324.60000610352</ele>
        <time>2023-08-02T12:05:06.000Z</time>
      </trkpt>
      <trkpt lat="43.71571" lon="7.08581">
        <ele>324.39999389648</ele>
        <time>2023-08-02T12:05:07.000Z</time>
      </trkpt>
      <trkpt lat="43.71566" lon="7.08586">
        <ele>324.39999389648</ele>
        <time>2023-08-02T12:05:08.000Z</time>
      </trkpt>
      <trkpt lat="43.71561" lon="7.08591">
        <ele>324.39999389648</ele>
        <time>2023-08-02T12:05:09.000Z</time>
      </trkpt>
      <trkpt lat="43.71557" lon="7.08595">
        <ele>324.20001220703</ele>
        <time>2023-08-02T12:05:10.000Z</time>
      </trkpt>
      <trkpt lat="43.71551" lon="7.08599">
        <ele>324.20001220703</ele>
        <time>2023-08-02T12:05:11.000Z</time>
      </trkpt>
      <trkpt lat="43.71547" lon="7.08602">
        <ele>324.20001220703</ele>
        <time>2023-08-02T12:05:12.000Z</time>
      </trkpt>
      <trkpt lat="43.71541" lon="7.08606">
        <ele>324.20001220703</ele>
        <time>2023-08-02T12:05:13.000Z</time>
      </trkpt>
      <trkpt lat="43.71537" lon="7.08609">
        <ele>324.20001220703</ele>
        <time>2023-08-02T12:05:14.000Z</time>
      </trkpt>
      <trkpt lat="43.71532" lon="7.08612">
        <ele>324</ele>
        <time>2023-08-02T12:05:15.000Z</time>
      </trkpt>
      <trkpt lat="43.71527" lon="7.08615">
        <ele>324</ele>
        <time>2023-08-02T12:05:16.000Z</time>
      </trkpt>
      <trkpt lat="43.71522" lon="7.08617">
        <ele>324</ele>
        <time>2023-08-02T12:05:17.000Z</time>
      </trkpt>
      <trkpt lat="43.71519" lon="7.0862">
        <ele>323.79998779297</ele>
        <time>2023-08-02T12:05:18.000Z</time>
      </trkpt>
      <trkpt lat="43.71516" lon="7.08623">
        <ele>323.79998779297</ele>
        <time>2023-08-02T12:05:19.000Z</time>
      </trkpt>
      <trkpt lat="43.71514" lon="7.08624">
        <ele>323.79998779297</ele>
        <time>2023-08-02T12:05:20.000Z</time>
      </trkpt>
      <trkpt lat="43.71512" lon="7.08625">
        <ele>323.79998779297</ele>
        <time>2023-08-02T12:05:21.000Z</time>
      </trkpt>
      <trkpt lat="43.7151" lon="7.08627">
        <ele>323.79998779297</ele>
        <time>2023-08-02T12:05:22.000Z</time>
      </trkpt>
      <trkpt lat="43.71507" lon="7.08629">
        <ele>323.79998779297</ele>
        <time>2023-08-02T12:05:23.000Z</time>
      </trkpt>
      <trkpt lat="43.71504" lon="7.08632">
        <ele>324</ele>
        <time>2023-08-02T12:05:24.000Z</time>
      </trkpt>
      <trkpt lat="43.71501" lon="7.08635">
        <ele>324</ele>
        <time>2023-08-02T12:05:25.000Z</time>
      </trkpt>
      <trkpt lat="43.71497" lon="7.08639">
        <ele>324</ele>
        <time>2023-08-02T12:05:26.000Z</time>
      </trkpt>
      <trkpt lat="43.71494" lon="7.08643">
        <ele>324.20001220703</ele>
        <time>2023-08-02T12:05:27.000Z</time>
      </trkpt>
      <trkpt lat="43.71491" lon="7.08647">
        <ele>324.39999389648</ele>
        <time>2023-08-02T12:05:28.000Z</time>
      </trkpt>
      <trkpt lat="43.71487" lon="7.08652">
        <ele>324.39999389648</ele>
        <time>2023-08-02T12:05:29.000Z</time>
      </trkpt>
      <trkpt lat="43.71484" lon="7.08655">
        <ele>324.60000610352</ele>
        <time>2023-08-02T12:05:30.000Z</time>
      </trkpt>
      <trkpt lat="43.71481" lon="7.08659">
        <ele>324.60000610352</ele>
        <time>2023-08-02T12:05:31.000Z</time>
      </trkpt>
      <trkpt lat="43.71478" lon="7.08663">
        <ele>324.60000610352</ele>
        <time>2023-08-02T12:05:32.000Z</time>
      </trkpt>
      <trkpt lat="43.71475" lon="7.08667">
        <ele>324.79998779297</ele>
        <time>2023-08-02T12:05:33.000Z</time>
      </trkpt>
      <trkpt lat="43.71472" lon="7.0867">
        <ele>325.20001220703</ele>
        <time>2023-08-02T12:05:34.000Z</time>
      </trkpt>
      <trkpt lat="43.71469" lon="7.08675">
        <ele>325.60000610352</ele>
        <time>2023-08-02T12:05:35.000Z</time>
      </trkpt>
      <trkpt lat="43.71465" lon="7.08679">
        <ele>325.60000610352</ele>
        <time>2023-08-02T12:05:36.000Z</time>
      </trkpt>
      <trkpt lat="43.71462" lon="7.08684">
        <ele>325.79998779297</ele>
        <time>2023-08-02T12:05:37.000Z</time>
      </trkpt>
      <trkpt lat="43.71459" lon="7.08689">
        <ele>325.79998779297</ele>
        <time>2023-08-02T12:05:38.000Z</time>
      </trkpt>
      <trkpt lat="43.71456" lon="7.08693">
        <ele>326</ele>
        <time>2023-08-02T12:05:39.000Z</time>
      </trkpt>
      <trkpt lat="43.71453" lon="7.08698">
        <ele>326</ele>
        <time>2023-08-02T12:05:40.000Z</time>
      </trkpt>
      <trkpt lat="43.71449" lon="7.08702">
        <ele>326.39999389648</ele>
        <time>2023-08-02T12:05:41.000Z</time>
      </trkpt>
      <trkpt lat="43.71446" lon="7.08706">
        <ele>326.79998779297</ele>
        <time>2023-08-02T12:05:42.000Z</time>
      </trkpt>
      <trkpt lat="43.71442" lon="7.08711">
        <ele>327</ele>
        <time>2023-08-02T12:05:43.000Z</time>
      </trkpt>
      <trkpt lat="43.71439" lon="7.08715">
        <ele>327</ele>
        <time>2023-08-02T12:05:44.000Z</time>
      </trkpt>
      <trkpt lat="43.71435" lon="7.0872">
        <ele>327.39999389648</ele>
        <time>2023-08-02T12:05:45.000Z</time>
      </trkpt>
      <trkpt lat="43.71432" lon="7.08724">
        <ele>327.60000610352</ele>
        <time>2023-08-02T12:05:46.000Z</time>
      </trkpt>
      <trkpt lat="43.71429" lon="7.08728">
        <ele>327.79998779297</ele>
        <time>2023-08-02T12:05:47.000Z</time>
      </trkpt>
      <trkpt lat="43.71425" lon="7.08733">
        <ele>327.79998779297</ele>
        <time>2023-08-02T12:05:48.000Z</time>
      </trkpt>
      <trkpt lat="43.71422" lon="7.08737">
        <ele>328</ele>
        <time>2023-08-02T12:05:49.000Z</time>
      </trkpt>
      <trkpt lat="43.71418" lon="7.08741">
        <ele>328.20001220703</ele>
        <time>2023-08-02T12:05:50.000Z</time>
      </trkpt>
      <trkpt lat="43.71415" lon="7.08746">
        <ele>328.39999389648</ele>
        <time>2023-08-02T12:05:51.000Z</time>
      </trkpt>
      <trkpt lat="43.71412" lon="7.0875">
        <ele>328.39999389648</ele>
        <time>2023-08-02T12:05:52.000Z</time>
      </trkpt>
      <trkpt lat="43.71409" lon="7.08754">
        <ele>328.60000610352</ele>
        <time>2023-08-02T12:05:53.000Z</time>
      </trkpt>
      <trkpt lat="43.71405" lon="7.08758">
        <ele>329</ele>
        <time>2023-08-02T12:05:54.000Z</time>
      </trkpt>
      <trkpt lat="43.71402" lon="7.08763">
        <ele>329</ele>
        <time>2023-08-02T12:05:55.000Z</time>
      </trkpt>
      <trkpt lat="43.71398" lon="7.08768">
        <ele>329.39999389648</ele>
        <time>2023-08-02T12:05:56.000Z</time>
      </trkpt>
      <trkpt lat="43.71395" lon="7.08773">
        <ele>329.60000610352</ele>
        <time>2023-08-02T12:05:57.000Z</time>
      </trkpt>
      <trkpt lat="43.71393" lon="7.08779">
        <ele>329.60000610352</ele>
        <time>2023-08-02T12:05:58.000Z</time>
      </trkpt>
      <trkpt lat="43.7139" lon="7.08784">
        <ele>329.60000610352</ele>
        <time>2023-08-02T12:05:59.000Z</time>
      </trkpt>
      <trkpt lat="43.71388" lon="7.0879">
        <ele>329.79998779297</ele>
        <time>2023-08-02T12:06:00.000Z</time>
      </trkpt>
      <trkpt lat="43.71386" lon="7.08796">
        <ele>330</ele>
        <time>2023-08-02T12:06:01.000Z</time>
      </trkpt>
      <trkpt lat="43.71384" lon="7.08802">
        <ele>330</ele>
        <time>2023-08-02T12:06:02.000Z</time>
      </trkpt>
      <trkpt lat="43.71381" lon="7.08807">
        <ele>330.39999389648</ele>
        <time>2023-08-02T12:06:03.000Z</time>
      </trkpt>
      <trkpt lat="43.71379" lon="7.08813">
        <ele>330.39999389648</ele>
        <time>2023-08-02T12:06:04.000Z</time>
      </trkpt>
      <trkpt lat="43.71377" lon="7.08818">
        <ele>330.79998779297</ele>
        <time>2023-08-02T12:06:05.000Z</time>
      </trkpt>
      <trkpt lat="43.71375" lon="7.08824">
        <ele>331</ele>
        <time>2023-08-02T12:06:06.000Z</time>
      </trkpt>
      <trkpt lat="43.71373" lon="7.08829">
        <ele>331.39999389648</ele>
        <time>2023-08-02T12:06:07.000Z</time>
      </trkpt>
      <trkpt lat="43.7137" lon="7.08835">
        <ele>331.60000610352</ele>
        <time>2023-08-02T12:06:08.000Z</time>
      </trkpt>
      <trkpt lat="43.71367" lon="7.08841">
        <ele>331.79998779297</ele>
        <time>2023-08-02T12:06:09.000Z</time>
      </trkpt>
      <trkpt lat="43.71365" lon="7.08847">
        <ele>332</ele>
        <time>2023-08-02T12:06:10.000Z</time>
      </trkpt>
      <trkpt lat="43.71363" lon="7.08853">
        <ele>332.39999389648</ele>
        <time>2023-08-02T12:06:11.000Z</time>
      </trkpt>
      <trkpt lat="43.71361" lon="7.08859">
        <ele>332.60000610352</ele>
        <time>2023-08-02T12:06:12.000Z</time>
      </trkpt>
      <trkpt lat="43.71359" lon="7.08864">
        <ele>332.60000610352</ele>
        <time>2023-08-02T12:06:13.000Z</time>
      </trkpt>
      <trkpt lat="43.71357" lon="7.0887">
        <ele>333</ele>
        <time>2023-08-02T12:06:14.000Z</time>
      </trkpt>
      <trkpt lat="43.71356" lon="7.08876">
        <ele>333</ele>
        <time>2023-08-02T12:06:15.000Z</time>
      </trkpt>
      <trkpt lat="43.71354" lon="7.08882">
        <ele>333.20001220703</ele>
        <time>2023-08-02T12:06:16.000Z</time>
      </trkpt>
      <trkpt lat="43.71353" lon="7.08888">
        <ele>333.39999389648</ele>
        <time>2023-08-02T12:06:17.000Z</time>
      </trkpt>
      <trkpt lat="43.71351" lon="7.08893">
        <ele>333.60000610352</ele>
        <time>2023-08-02T12:06:18.000Z</time>
      </trkpt>
      <trkpt lat="43.7135" lon="7.08899">
        <ele>333.79998779297</ele>
        <time>2023-08-02T12:06:19.000Z</time>
      </trkpt>
      <trkpt lat="43.71348" lon="7.08905">
        <ele>334</ele>
        <time>2023-08-02T12:06:20.000Z</time>
      </trkpt>
      <trkpt lat="43.71347" lon="7.0891">
        <ele>334</ele>
        <time>2023-08-02T12:06:21.000Z</time>
      </trkpt>
      <trkpt lat="43.71345" lon="7.08916">
        <ele>334.20001220703</ele>
        <time>2023-08-02T12:06:22.000Z</time>
      </trkpt>
      <trkpt lat="43.71344" lon="7.08922">
        <ele>334.39999389648</ele>
        <time>2023-08-02T12:06:23.000Z</time>
      </trkpt>
      <trkpt lat="43.71342" lon="7.08929">
        <ele>334.60000610352</ele>
        <time>2023-08-02T12:06:24.000Z</time>
      </trkpt>
      <trkpt lat="43.7134" lon="7.08935">
        <ele>334.60000610352</ele>
        <time>2023-08-02T12:06:25.000Z</time>
      </trkpt>
      <trkpt lat="43.71339" lon="7.08941">
        <ele>334.60000610352</ele>
        <time>2023-08-02T12:06:26.000Z</time>
      </trkpt>
      <trkpt lat="43.71338" lon="7.08947">
        <ele>334.60000610352</ele>
        <time>2023-08-02T12:06:27.000Z</time>
      </trkpt>
      <trkpt lat="43.71337" lon="7.08953">
        <ele>334.79998779297</ele>
        <time>2023-08-02T12:06:28.000Z</time>
      </trkpt>
      <trkpt lat="43.71336" lon="7.0896">
        <ele>334.79998779297</ele>
        <time>2023-08-02T12:06:29.000Z</time>
      </trkpt>
      <trkpt lat="43.71335" lon="7.08967">
        <ele>334.79998779297</ele>
        <time>2023-08-02T12:06:30.000Z</time>
      </trkpt>
      <trkpt lat="43.71333" lon="7.08973">
        <ele>335</ele>
        <time>2023-08-02T12:06:31.000Z</time>
      </trkpt>
      <trkpt lat="43.71332" lon="7.0898">
        <ele>335</ele>
        <time>2023-08-02T12:06:32.000Z</time>
      </trkpt>
      <trkpt lat="43.71329" lon="7.08986">
        <ele>335</ele>
        <time>2023-08-02T12:06:33.000Z</time>
      </trkpt>
      <trkpt lat="43.71327" lon="7.08991">
        <ele>335.20001220703</ele>
        <time>2023-08-02T12:06:34.000Z</time>
      </trkpt>
      <trkpt lat="43.71326" lon="7.08998">
        <ele>335.20001220703</ele>
        <time>2023-08-02T12:06:35.000Z</time>
      </trkpt>
      <trkpt lat="43.71325" lon="7.09004">
        <ele>335.39999389648</ele>
        <time>2023-08-02T12:06:36.000Z</time>
      </trkpt>
      <trkpt lat="43.71324" lon="7.0901">
        <ele>335.79998779297</ele>
        <time>2023-08-02T12:06:37.000Z</time>
      </trkpt>
      <trkpt lat="43.71322" lon="7.09017">
        <ele>336</ele>
        <time>2023-08-02T12:06:38.000Z</time>
      </trkpt>
      <trkpt lat="43.71321" lon="7.09024">
        <ele>336</ele>
        <time>2023-08-02T12:06:39.000Z</time>
      </trkpt>
      <trkpt lat="43.71319" lon="7.0903">
        <ele>336</ele>
        <time>2023-08-02T12:06:40.000Z</time>
      </trkpt>
      <trkpt lat="43.71318" lon="7.09037">
        <ele>336</ele>
        <time>2023-08-02T12:06:41.000Z</time>
      </trkpt>
      <trkpt lat="43.71317" lon="7.09044">
        <ele>336</ele>
        <time>2023-08-02T12:06:42.000Z</time>
      </trkpt>
      <trkpt lat="43.71316" lon="7.0905">
        <ele>336</ele>
        <time>2023-08-02T12:06:43.000Z</time>
      </trkpt>
      <trkpt lat="43.71314" lon="7.09056">
        <ele>336</ele>
        <time>2023-08-02T12:06:44.000Z</time>
      </trkpt>
      <trkpt lat="43.71312" lon="7.09063">
        <ele>336</ele>
        <time>2023-08-02T12:06:45.000Z</time>
      </trkpt>
      <trkpt lat="43.71311" lon="7.0907">
        <ele>336</ele>
        <time>2023-08-02T12:06:46.000Z</time>
      </trkpt>
      <trkpt lat="43.71309" lon="7.09076">
        <ele>336</ele>
        <time>2023-08-02T12:06:47.000Z</time>
      </trkpt>
      <trkpt lat="43.71308" lon="7.09083">
        <ele>336</ele>
        <time>2023-08-02T12:06:48.000Z</time>
      </trkpt>
      <trkpt lat="43.71305" lon="7.09089">
        <ele>336</ele>
        <time>2023-08-02T12:06:49.000Z</time>
      </trkpt>
      <trkpt lat="43.71304" lon="7.09096">
        <ele>336.20001220703</ele>
        <time>2023-08-02T12:06:50.000Z</time>
      </trkpt>
      <trkpt lat="43.71302" lon="7.09102">
        <ele>336.20001220703</ele>
        <time>2023-08-02T12:06:51.000Z</time>
      </trkpt>
      <trkpt lat="43.71301" lon="7.09108">
        <ele>336.20001220703</ele>
        <time>2023-08-02T12:06:52.000Z</time>
      </trkpt>
      <trkpt lat="43.71299" lon="7.09114">
        <ele>336.20001220703</ele>
        <time>2023-08-02T12:06:53.000Z</time>
      </trkpt>
      <trkpt lat="43.71297" lon="7.0912">
        <ele>336.39999389648</ele>
        <time>2023-08-02T12:06:54.000Z</time>
      </trkpt>
      <trkpt lat="43.71295" lon="7.09125">
        <ele>336.39999389648</ele>
        <time>2023-08-02T12:06:55.000Z</time>
      </trkpt>
      <trkpt lat="43.71292" lon="7.09131">
        <ele>336.60000610352</ele>
        <time>2023-08-02T12:06:56.000Z</time>
      </trkpt>
      <trkpt lat="43.71289" lon="7.09137">
        <ele>336.60000610352</ele>
        <time>2023-08-02T12:06:57.000Z</time>
      </trkpt>
      <trkpt lat="43.71286" lon="7.09144">
        <ele>336.60000610352</ele>
        <time>2023-08-02T12:06:58.000Z</time>
      </trkpt>
      <trkpt lat="43.71284" lon="7.0915">
        <ele>336.60000610352</ele>
        <time>2023-08-02T12:06:59.000Z</time>
      </trkpt>
      <trkpt lat="43.71282" lon="7.09157">
        <ele>336.60000610352</ele>
        <time>2023-08-02T12:07:00.000Z</time>
      </trkpt>
      <trkpt lat="43.71282" lon="7.09166">
        <ele>336.60000610352</ele>
        <time>2023-08-02T12:07:01.000Z</time>
      </trkpt>
      <trkpt lat="43.71282" lon="7.09174">
        <ele>336.60000610352</ele>
        <time>2023-08-02T12:07:02.000Z</time>
      </trkpt>
      <trkpt lat="43.71282" lon="7.09183">
        <ele>336.79998779297</ele>
        <time>2023-08-02T12:07:03.000Z</time>
      </trkpt>
      <trkpt lat="43.71283" lon="7.09191">
        <ele>336.60000610352</ele>
        <time>2023-08-02T12:07:04.000Z</time>
      </trkpt>
      <trkpt lat="43.71284" lon="7.092">
        <ele>336.60000610352</ele>
        <time>2023-08-02T12:07:05.000Z</time>
      </trkpt>
      <trkpt lat="43.71285" lon="7.09207">
        <ele>336.60000610352</ele>
        <time>2023-08-02T12:07:06.000Z</time>
      </trkpt>
      <trkpt lat="43.71287" lon="7.09215">
        <ele>336.60000610352</ele>
        <time>2023-08-02T12:07:07.000Z</time>
      </trkpt>
      <trkpt lat="43.71289" lon="7.09222">
        <ele>336.60000610352</ele>
        <time>2023-08-02T12:07:08.000Z</time>
      </trkpt>
      <trkpt lat="43.71291" lon="7.0923">
        <ele>336.79998779297</ele>
        <time>2023-08-02T12:07:09.000Z</time>
      </trkpt>
      <trkpt lat="43.71293" lon="7.09236">
        <ele>336.79998779297</ele>
        <time>2023-08-02T12:07:10.000Z</time>
      </trkpt>
      <trkpt lat="43.71296" lon="7.09243">
        <ele>336.79998779297</ele>
        <time>2023-08-02T12:07:11.000Z</time>
      </trkpt>
      <trkpt lat="43.71298" lon="7.09248">
        <ele>337</ele>
        <time>2023-08-02T12:07:12.000Z</time>
      </trkpt>
      <trkpt lat="43.713" lon="7.09254">
        <ele>337</ele>
        <time>2023-08-02T12:07:13.000Z</time>
      </trkpt>
      <trkpt lat="43.71302" lon="7.09259">
        <ele>337</ele>
        <time>2023-08-02T12:07:14.000Z</time>
      </trkpt>
      <trkpt lat="43.71304" lon="7.09264">
        <ele>337.39999389648</ele>
        <time>2023-08-02T12:07:15.000Z</time>
      </trkpt>
      <trkpt lat="43.71305" lon="7.09269">
        <ele>337.60000610352</ele>
        <time>2023-08-02T12:07:16.000Z</time>
      </trkpt>
      <trkpt lat="43.71305" lon="7.09274">
        <ele>337.79998779297</ele>
        <time>2023-08-02T12:07:17.000Z</time>
      </trkpt>
      <trkpt lat="43.71304" lon="7.09281">
        <ele>337.79998779297</ele>
        <time>2023-08-02T12:07:18.000Z</time>
      </trkpt>
      <trkpt lat="43.71304" lon="7.09289">
        <ele>337.79998779297</ele>
        <time>2023-08-02T12:07:19.000Z</time>
      </trkpt>
      <trkpt lat="43.71303" lon="7.09297">
        <ele>337.79998779297</ele>
        <time>2023-08-02T12:07:20.000Z</time>
      </trkpt>
      <trkpt lat="43.71302" lon="7.09306">
        <ele>337.79998779297</ele>
        <time>2023-08-02T12:07:21.000Z</time>
      </trkpt>
      <trkpt lat="43.71301" lon="7.09316">
        <ele>337.79998779297</ele>
        <time>2023-08-02T12:07:22.000Z</time>
      </trkpt>
      <trkpt lat="43.71301" lon="7.09327">
        <ele>337.20001220703</ele>
        <time>2023-08-02T12:07:23.000Z</time>
      </trkpt>
      <trkpt lat="43.71301" lon="7.09338">
        <ele>336.60000610352</ele>
        <time>2023-08-02T12:07:24.000Z</time>
      </trkpt>
      <trkpt lat="43.71302" lon="7.0935">
        <ele>336.20001220703</ele>
        <time>2023-08-02T12:07:25.000Z</time>
      </trkpt>
      <trkpt lat="43.71303" lon="7.09362">
        <ele>335.60000610352</ele>
        <time>2023-08-02T12:07:26.000Z</time>
      </trkpt>
      <trkpt lat="43.71305" lon="7.09374">
        <ele>334.79998779297</ele>
        <time>2023-08-02T12:07:27.000Z</time>
      </trkpt>
      <trkpt lat="43.71305" lon="7.09386">
        <ele>334.39999389648</ele>
        <time>2023-08-02T12:07:28.000Z</time>
      </trkpt>
      <trkpt lat="43.71307" lon="7.09399">
        <ele>333.60000610352</ele>
        <time>2023-08-02T12:07:29.000Z</time>
      </trkpt>
      <trkpt lat="43.71309" lon="7.0941">
        <ele>333</ele>
        <time>2023-08-02T12:07:30.000Z</time>
      </trkpt>
      <trkpt lat="43.7131" lon="7.09422">
        <ele>332.39999389648</ele>
        <time>2023-08-02T12:07:31.000Z</time>
      </trkpt>
      <trkpt lat="43.71313" lon="7.09434">
        <ele>332.20001220703</ele>
        <time>2023-08-02T12:07:32.000Z</time>
      </trkpt>
      <trkpt lat="43.71315" lon="7.09445">
        <ele>331.60000610352</ele>
        <time>2023-08-02T12:07:33.000Z</time>
      </trkpt>
      <trkpt lat="43.71317" lon="7.09456">
        <ele>331.20001220703</ele>
        <time>2023-08-02T12:07:34.000Z</time>
      </trkpt>
      <trkpt lat="43.71319" lon="7.09467">
        <ele>331</ele>
        <time>2023-08-02T12:07:35.000Z</time>
      </trkpt>
      <trkpt lat="43.71321" lon="7.09477">
        <ele>330.60000610352</ele>
        <time>2023-08-02T12:07:36.000Z</time>
      </trkpt>
      <trkpt lat="43.71324" lon="7.09488">
        <ele>330.39999389648</ele>
        <time>2023-08-02T12:07:37.000Z</time>
      </trkpt>
      <trkpt lat="43.71326" lon="7.09498">
        <ele>330</ele>
        <time>2023-08-02T12:07:38.000Z</time>
      </trkpt>
      <trkpt lat="43.71329" lon="7.09509">
        <ele>329.20001220703</ele>
        <time>2023-08-02T12:07:39.000Z</time>
      </trkpt>
      <trkpt lat="43.71331" lon="7.0952">
        <ele>328.79998779297</ele>
        <time>2023-08-02T12:07:40.000Z</time>
      </trkpt>
      <trkpt lat="43.71334" lon="7.09531">
        <ele>328.39999389648</ele>
        <time>2023-08-02T12:07:41.000Z</time>
      </trkpt>
      <trkpt lat="43.71335" lon="7.09542">
        <ele>327.20001220703</ele>
        <time>2023-08-02T12:07:42.000Z</time>
      </trkpt>
      <trkpt lat="43.71336" lon="7.09553">
        <ele>326.20001220703</ele>
        <time>2023-08-02T12:07:43.000Z</time>
      </trkpt>
      <trkpt lat="43.71338" lon="7.09565">
        <ele>325.20001220703</ele>
        <time>2023-08-02T12:07:44.000Z</time>
      </trkpt>
      <trkpt lat="43.7134" lon="7.09577">
        <ele>324.60000610352</ele>
        <time>2023-08-02T12:07:45.000Z</time>
      </trkpt>
      <trkpt lat="43.7134" lon="7.0959">
        <ele>323.79998779297</ele>
        <time>2023-08-02T12:07:46.000Z</time>
      </trkpt>
      <trkpt lat="43.71338" lon="7.09602">
        <ele>323.20001220703</ele>
        <time>2023-08-02T12:07:47.000Z</time>
      </trkpt>
      <trkpt lat="43.71334" lon="7.09612">
        <ele>323.20001220703</ele>
        <time>2023-08-02T12:07:48.000Z</time>
      </trkpt>
      <trkpt lat="43.71331" lon="7.09622">
        <ele>322.79998779297</ele>
        <time>2023-08-02T12:07:49.000Z</time>
      </trkpt>
      <trkpt lat="43.71328" lon="7.09631">
        <ele>322.39999389648</ele>
        <time>2023-08-02T12:07:50.000Z</time>
      </trkpt>
      <trkpt lat="43.71325" lon="7.09639">
        <ele>322.20001220703</ele>
        <time>2023-08-02T12:07:51.000Z</time>
      </trkpt>
      <trkpt lat="43.71323" lon="7.09645">
        <ele>322.20001220703</ele>
        <time>2023-08-02T12:07:52.000Z</time>
      </trkpt>
      <trkpt lat="43.71319" lon="7.09649">
        <ele>321.79998779297</ele>
        <time>2023-08-02T12:07:53.000Z</time>
      </trkpt>
      <trkpt lat="43.71316" lon="7.0965">
        <ele>321.60000610352</ele>
        <time>2023-08-02T12:07:54.000Z</time>
      </trkpt>
      <trkpt lat="43.71313" lon="7.09649">
        <ele>321.20001220703</ele>
        <time>2023-08-02T12:07:55.000Z</time>
      </trkpt>
      <trkpt lat="43.71309" lon="7.09649">
        <ele>321.20001220703</ele>
        <time>2023-08-02T12:07:56.000Z</time>
      </trkpt>
      <trkpt lat="43.71307" lon="7.09648">
        <ele>321</ele>
        <time>2023-08-02T12:07:57.000Z</time>
      </trkpt>
      <trkpt lat="43.71304" lon="7.09648">
        <ele>320.79998779297</ele>
        <time>2023-08-02T12:07:58.000Z</time>
      </trkpt>
      <trkpt lat="43.71302" lon="7.09646">
        <ele>320.79998779297</ele>
        <time>2023-08-02T12:07:59.000Z</time>
      </trkpt>
      <trkpt lat="43.713" lon="7.09644">
        <ele>321</ele>
        <time>2023-08-02T12:08:00.000Z</time>
      </trkpt>
      <trkpt lat="43.71296" lon="7.09642">
        <ele>321</ele>
        <time>2023-08-02T12:08:01.000Z</time>
      </trkpt>
      <trkpt lat="43.71293" lon="7.0964">
        <ele>321</ele>
        <time>2023-08-02T12:08:02.000Z</time>
      </trkpt>
      <trkpt lat="43.7129" lon="7.09639">
        <ele>320.79998779297</ele>
        <time>2023-08-02T12:08:03.000Z</time>
      </trkpt>
      <trkpt lat="43.71287" lon="7.09638">
        <ele>320.79998779297</ele>
        <time>2023-08-02T12:08:04.000Z</time>
      </trkpt>
      <trkpt lat="43.71283" lon="7.09637">
        <ele>320.60000610352</ele>
        <time>2023-08-02T12:08:05.000Z</time>
      </trkpt>
      <trkpt lat="43.7128" lon="7.09637">
        <ele>320.60000610352</ele>
        <time>2023-08-02T12:08:06.000Z</time>
      </trkpt>
      <trkpt lat="43.71277" lon="7.09637">
        <ele>320.39999389648</ele>
        <time>2023-08-02T12:08:07.000Z</time>
      </trkpt>
      <trkpt lat="43.71274" lon="7.09637">
        <ele>320.39999389648</ele>
        <time>2023-08-02T12:08:08.000Z</time>
      </trkpt>
      <trkpt lat="43.71272" lon="7.09639">
        <ele>320.39999389648</ele>
        <time>2023-08-02T12:08:09.000Z</time>
      </trkpt>
      <trkpt lat="43.71271" lon="7.09642">
        <ele>320.39999389648</ele>
        <time>2023-08-02T12:08:10.000Z</time>
      </trkpt>
      <trkpt lat="43.7127" lon="7.09644">
        <ele>320.39999389648</ele>
        <time>2023-08-02T12:08:11.000Z</time>
      </trkpt>
      <trkpt lat="43.7127" lon="7.09646">
        <ele>320.39999389648</ele>
        <time>2023-08-02T12:08:12.000Z</time>
      </trkpt>
      <trkpt lat="43.7127" lon="7.0965">
        <ele>320.20001220703</ele>
        <time>2023-08-02T12:08:13.000Z</time>
      </trkpt>
      <trkpt lat="43.71271" lon="7.09654">
        <ele>320.20001220703</ele>
        <time>2023-08-02T12:08:14.000Z</time>
      </trkpt>
      <trkpt lat="43.71271" lon="7.09659">
        <ele>320.20001220703</ele>
        <time>2023-08-02T12:08:15.000Z</time>
      </trkpt>
      <trkpt lat="43.71271" lon="7.09663">
        <ele>319.79998779297</ele>
        <time>2023-08-02T12:08:16.000Z</time>
      </trkpt>
      <trkpt lat="43.7127" lon="7.09667">
        <ele>319.20001220703</ele>
        <time>2023-08-02T12:08:17.000Z</time>
      </trkpt>
      <trkpt lat="43.7127" lon="7.0967">
        <ele>319.20001220703</ele>
        <time>2023-08-02T12:08:18.000Z</time>
      </trkpt>
      <trkpt lat="43.7127" lon="7.09672">
        <ele>318.60000610352</ele>
        <time>2023-08-02T12:08:19.000Z</time>
      </trkpt>
      <trkpt lat="43.7127" lon="7.09672">
        <ele>318</ele>
        <time>2023-08-02T12:08:20.000Z</time>
      </trkpt>
      <trkpt lat="43.7127" lon="7.09672">
        <ele>317.79998779297</ele>
        <time>2023-08-02T12:08:21.000Z</time>
      </trkpt>
      <trkpt lat="43.7127" lon="7.09672">
        <ele>317.79998779297</ele>
        <time>2023-08-02T12:08:22.000Z</time>
      </trkpt>
      <trkpt lat="43.7127" lon="7.09672">
        <ele>317.79998779297</ele>
        <time>2023-08-02T12:08:23.000Z</time>
      </trkpt>
      <trkpt lat="43.7127" lon="7.09672">
        <ele>317.79998779297</ele>
        <time>2023-08-02T12:08:24.000Z</time>
      </trkpt>
      <trkpt lat="43.7127" lon="7.09672">
        <ele>317.79998779297</ele>
        <time>2023-08-02T12:08:25.000Z</time>
      </trkpt>
      <trkpt lat="43.7127" lon="7.09672">
        <ele>317.79998779297</ele>
        <time>2023-08-02T12:08:26.000Z</time>
      </trkpt>
      <trkpt lat="43.7127" lon="7.09672">
        <ele>317.79998779297</ele>
        <time>2023-08-02T12:08:27.000Z</time>
      </trkpt>
      <trkpt lat="43.7127" lon="7.09672">
        <ele>317.79998779297</ele>
        <time>2023-08-02T12:08:28.000Z</time>
      </trkpt>
      <trkpt lat="43.7127" lon="7.09672">
        <ele>317.79998779297</ele>
        <time>2023-08-02T12:08:29.000Z</time>
      </trkpt>
      <trkpt lat="43.71269" lon="7.0967">
        <ele>317.79998779297</ele>
        <time>2023-08-02T12:08:30.000Z</time>
      </trkpt>
      <trkpt lat="43.71269" lon="7.0967">
        <ele>317.79998779297</ele>
        <time>2023-08-02T12:08:31.000Z</time>
      </trkpt>
      <trkpt lat="43.7127" lon="7.09669">
        <ele>317.79998779297</ele>
        <time>2023-08-02T12:08:32.000Z</time>
      </trkpt>
      <trkpt lat="43.7127" lon="7.09668">
        <ele>317.79998779297</ele>
        <time>2023-08-02T12:08:33.000Z</time>
      </trkpt>
      <trkpt lat="43.7127" lon="7.09667">
        <ele>317.79998779297</ele>
        <time>2023-08-02T12:08:34.000Z</time>
      </trkpt>
      <trkpt lat="43.71271" lon="7.09667">
        <ele>317.79998779297</ele>
        <time>2023-08-02T12:08:35.000Z</time>
      </trkpt>
      <trkpt lat="43.71271" lon="7.09667">
        <ele>317.79998779297</ele>
        <time>2023-08-02T12:08:36.000Z</time>
      </trkpt>
      <trkpt lat="43.71271" lon="7.09666">
        <ele>317.79998779297</ele>
        <time>2023-08-02T12:08:37.000Z</time>
      </trkpt>
      <trkpt lat="43.71271" lon="7.09666">
        <ele>317.79998779297</ele>
        <time>2023-08-02T12:08:38.000Z</time>
      </trkpt>
      <trkpt lat="43.71271" lon="7.09666">
        <ele>317.79998779297</ele>
        <time>2023-08-02T12:08:39.000Z</time>
      </trkpt>
      <trkpt lat="43.71272" lon="7.09667">
        <ele>317.79998779297</ele>
        <time>2023-08-02T12:08:40.000Z</time>
      </trkpt>
      <trkpt lat="43.71272" lon="7.09669">
        <ele>317.79998779297</ele>
        <time>2023-08-02T12:08:41.000Z</time>
      </trkpt>
      <trkpt lat="43.71271" lon="7.0967">
        <ele>317.79998779297</ele>
        <time>2023-08-02T12:08:42.000Z</time>
      </trkpt>
      <trkpt lat="43.71271" lon="7.09672">
        <ele>317.79998779297</ele>
        <time>2023-08-02T12:08:43.000Z</time>
      </trkpt>
      <trkpt lat="43.71271" lon="7.09675">
        <ele>317.79998779297</ele>
        <time>2023-08-02T12:08:44.000Z</time>
      </trkpt>
      <trkpt lat="43.71272" lon="7.09678">
        <ele>317.79998779297</ele>
        <time>2023-08-02T12:08:45.000Z</time>
      </trkpt>
      <trkpt lat="43.71272" lon="7.0968">
        <ele>317.60000610352</ele>
        <time>2023-08-02T12:08:46.000Z</time>
      </trkpt>
      <trkpt lat="43.71272" lon="7.09684">
        <ele>317.39999389648</ele>
        <time>2023-08-02T12:08:47.000Z</time>
      </trkpt>
      <trkpt lat="43.71272" lon="7.09687">
        <ele>317.20001220703</ele>
        <time>2023-08-02T12:08:48.000Z</time>
      </trkpt>
      <trkpt lat="43.71272" lon="7.09689">
        <ele>317.20001220703</ele>
        <time>2023-08-02T12:08:49.000Z</time>
      </trkpt>
      <trkpt lat="43.71272" lon="7.09691">
        <ele>316.79998779297</ele>
        <time>2023-08-02T12:08:50.000Z</time>
      </trkpt>
      <trkpt lat="43.71272" lon="7.09694">
        <ele>316.60000610352</ele>
        <time>2023-08-02T12:08:51.000Z</time>
      </trkpt>
      <trkpt lat="43.71271" lon="7.09695">
        <ele>316.39999389648</ele>
        <time>2023-08-02T12:08:52.000Z</time>
      </trkpt>
      <trkpt lat="43.71271" lon="7.09696">
        <ele>316.20001220703</ele>
        <time>2023-08-02T12:08:53.000Z</time>
      </trkpt>
      <trkpt lat="43.7127" lon="7.09696">
        <ele>315.79998779297</ele>
        <time>2023-08-02T12:08:54.000Z</time>
      </trkpt>
      <trkpt lat="43.7127" lon="7.09696">
        <ele>315.79998779297</ele>
        <time>2023-08-02T12:08:55.000Z</time>
      </trkpt>
      <trkpt lat="43.7127" lon="7.09696">
        <ele>315.60000610352</ele>
        <time>2023-08-02T12:08:56.000Z</time>
      </trkpt>
      <trkpt lat="43.7127" lon="7.09696">
        <ele>315.60000610352</ele>
        <time>2023-08-02T12:08:57.000Z</time>
      </trkpt>
      <trkpt lat="43.7127" lon="7.09696">
        <ele>315.39999389648</ele>
        <time>2023-08-02T12:08:58.000Z</time>
      </trkpt>
      <trkpt lat="43.7127" lon="7.09696">
        <ele>315.39999389648</ele>
        <time>2023-08-02T12:08:59.000Z</time>
      </trkpt>
      <trkpt lat="43.7127" lon="7.09696">
        <ele>315.39999389648</ele>
        <time>2023-08-02T12:09:00.000Z</time>
      </trkpt>
      <trkpt lat="43.7127" lon="7.09696">
        <ele>315.39999389648</ele>
        <time>2023-08-02T12:09:01.000Z</time>
      </trkpt>
      <trkpt lat="43.7127" lon="7.09696">
        <ele>315.39999389648</ele>
        <time>2023-08-02T12:09:02.000Z</time>
      </trkpt>
      <trkpt lat="43.7127" lon="7.09696">
        <ele>315.39999389648</ele>
        <time>2023-08-02T12:09:03.000Z</time>
      </trkpt>
      <trkpt lat="43.7127" lon="7.09696">
        <ele>315.60000610352</ele>
        <time>2023-08-02T12:09:04.000Z</time>
      </trkpt>
      <trkpt lat="43.7127" lon="7.09696">
        <ele>315.60000610352</ele>
        <time>2023-08-02T12:09:05.000Z</time>
      </trkpt>
      <trkpt lat="43.7127" lon="7.09696">
        <ele>315.60000610352</ele>
        <time>2023-08-02T12:09:06.000Z</time>
      </trkpt>
      <trkpt lat="43.7127" lon="7.09696">
        <ele>315.60000610352</ele>
        <time>2023-08-02T12:09:07.000Z</time>
      </trkpt>
      <trkpt lat="43.7127" lon="7.09696">
        <ele>315.60000610352</ele>
        <time>2023-08-02T12:09:08.000Z</time>
      </trkpt>
      <trkpt lat="43.7127" lon="7.09696">
        <ele>315.60000610352</ele>
        <time>2023-08-02T12:09:09.000Z</time>
      </trkpt>
      <trkpt lat="43.7127" lon="7.09696">
        <ele>315.60000610352</ele>
        <time>2023-08-02T12:09:10.000Z</time>
      </trkpt>
      <trkpt lat="43.7127" lon="7.09696">
        <ele>315.60000610352</ele>
        <time>2023-08-02T12:09:11.000Z</time>
      </trkpt>
      <trkpt lat="43.7127" lon="7.09696">
        <ele>315.60000610352</ele>
        <time>2023-08-02T12:09:12.000Z</time>
      </trkpt>
      <trkpt lat="43.7127" lon="7.09696">
        <ele>315.60000610352</ele>
        <time>2023-08-02T12:09:13.000Z</time>
      </trkpt>
      <trkpt lat="43.7127" lon="7.09696">
        <ele>315.60000610352</ele>
        <time>2023-08-02T12:09:14.000Z</time>
      </trkpt>
      <trkpt lat="43.7127" lon="7.09696">
        <ele>315.60000610352</ele>
        <time>2023-08-02T12:09:15.000Z</time>
      </trkpt>
      <trkpt lat="43.7127" lon="7.09696">
        <ele>315.60000610352</ele>
        <time>2023-08-02T12:09:16.000Z</time>
      </trkpt>
      <trkpt lat="43.7127" lon="7.09696">
        <ele>315.60000610352</ele>
        <time>2023-08-02T12:09:17.000Z</time>
      </trkpt>
      <trkpt lat="43.7127" lon="7.09696">
        <ele>315.60000610352</ele>
        <time>2023-08-02T12:09:18.000Z</time>
      </trkpt>
      <trkpt lat="43.7127" lon="7.09696">
        <ele>315.60000610352</ele>
        <time>2023-08-02T12:09:19.000Z</time>
      </trkpt>
      <trkpt lat="43.7127" lon="7.09696">
        <ele>315.60000610352</ele>
        <time>2023-08-02T12:09:20.000Z</time>
      </trkpt>
      <trkpt lat="43.7127" lon="7.09696">
        <ele>315.60000610352</ele>
        <time>2023-08-02T12:09:21.000Z</time>
      </trkpt>
      <trkpt lat="43.7127" lon="7.09696">
        <ele>315.60000610352</ele>
        <time>2023-08-02T12:09:22.000Z</time>
      </trkpt>
      <trkpt lat="43.7127" lon="7.09696">
        <ele>315.60000610352</ele>
        <time>2023-08-02T12:09:23.000Z</time>
      </trkpt>
      <trkpt lat="43.71269" lon="7.09696">
        <ele>315.60000610352</ele>
        <time>2023-08-02T12:09:24.000Z</time>
      </trkpt>
      <trkpt lat="43.71269" lon="7.09696">
        <ele>315.79998779297</ele>
        <time>2023-08-02T12:09:25.000Z</time>
      </trkpt>
      <trkpt lat="43.71269" lon="7.09696">
        <ele>315.79998779297</ele>
        <time>2023-08-02T12:09:26.000Z</time>
      </trkpt>
      <trkpt lat="43.71269" lon="7.09696">
        <ele>315.79998779297</ele>
        <time>2023-08-02T12:09:27.000Z</time>
      </trkpt>
      <trkpt lat="43.71269" lon="7.09696">
        <ele>315.79998779297</ele>
        <time>2023-08-02T12:09:28.000Z</time>
      </trkpt>
      <trkpt lat="43.71269" lon="7.09696">
        <ele>315.79998779297</ele>
        <time>2023-08-02T12:09:29.000Z</time>
      </trkpt>
      <trkpt lat="43.71269" lon="7.09696">
        <ele>315.79998779297</ele>
        <time>2023-08-02T12:09:30.000Z</time>
      </trkpt>
      <trkpt lat="43.71269" lon="7.09696">
        <ele>315.79998779297</ele>
        <time>2023-08-02T12:09:31.000Z</time>
      </trkpt>
      <trkpt lat="43.71269" lon="7.09696">
        <ele>315.79998779297</ele>
        <time>2023-08-02T12:09:32.000Z</time>
      </trkpt>
      <trkpt lat="43.71269" lon="7.09696">
        <ele>315.79998779297</ele>
        <time>2023-08-02T12:09:33.000Z</time>
      </trkpt>
      <trkpt lat="43.71269" lon="7.09697">
        <ele>315.79998779297</ele>
        <time>2023-08-02T12:09:34.000Z</time>
      </trkpt>
      <trkpt lat="43.71269" lon="7.09699">
        <ele>315.79998779297</ele>
        <time>2023-08-02T12:09:35.000Z</time>
      </trkpt>
      <trkpt lat="43.71269" lon="7.09701">
        <ele>315.79998779297</ele>
        <time>2023-08-02T12:09:36.000Z</time>
      </trkpt>
      <trkpt lat="43.71269" lon="7.09704">
        <ele>315.79998779297</ele>
        <time>2023-08-02T12:09:37.000Z</time>
      </trkpt>
      <trkpt lat="43.71268" lon="7.09706">
        <ele>315.79998779297</ele>
        <time>2023-08-02T12:09:38.000Z</time>
      </trkpt>
      <trkpt lat="43.71268" lon="7.09708">
        <ele>315.79998779297</ele>
        <time>2023-08-02T12:09:39.000Z</time>
      </trkpt>
      <trkpt lat="43.71268" lon="7.09708">
        <ele>315.60000610352</ele>
        <time>2023-08-02T12:09:40.000Z</time>
      </trkpt>
      <trkpt lat="43.71268" lon="7.09707">
        <ele>315.39999389648</ele>
        <time>2023-08-02T12:09:41.000Z</time>
      </trkpt>
      <trkpt lat="43.71268" lon="7.09707">
        <ele>315</ele>
        <time>2023-08-02T12:09:42.000Z</time>
      </trkpt>
      <trkpt lat="43.71268" lon="7.09707">
        <ele>314.79998779297</ele>
        <time>2023-08-02T12:09:43.000Z</time>
      </trkpt>
      <trkpt lat="43.71268" lon="7.09707">
        <ele>314.79998779297</ele>
        <time>2023-08-02T12:09:44.000Z</time>
      </trkpt>
      <trkpt lat="43.71268" lon="7.09707">
        <ele>314.60000610352</ele>
        <time>2023-08-02T12:09:45.000Z</time>
      </trkpt>
      <trkpt lat="43.71268" lon="7.09707">
        <ele>314.60000610352</ele>
        <time>2023-08-02T12:09:46.000Z</time>
      </trkpt>
      <trkpt lat="43.71267" lon="7.09707">
        <ele>314.60000610352</ele>
        <time>2023-08-02T12:09:47.000Z</time>
      </trkpt>
      <trkpt lat="43.71267" lon="7.09707">
        <ele>314.60000610352</ele>
        <time>2023-08-02T12:09:48.000Z</time>
      </trkpt>
      <trkpt lat="43.71267" lon="7.09707">
        <ele>314.60000610352</ele>
        <time>2023-08-02T12:09:49.000Z</time>
      </trkpt>
      <trkpt lat="43.71267" lon="7.09707">
        <ele>314.60000610352</ele>
        <time>2023-08-02T12:09:50.000Z</time>
      </trkpt>
      <trkpt lat="43.71267" lon="7.09707">
        <ele>314.60000610352</ele>
        <time>2023-08-02T12:09:51.000Z</time>
      </trkpt>
      <trkpt lat="43.71267" lon="7.09708">
        <ele>314.60000610352</ele>
        <time>2023-08-02T12:09:52.000Z</time>
      </trkpt>
      <trkpt lat="43.71267" lon="7.09708">
        <ele>314.39999389648</ele>
        <time>2023-08-02T12:09:53.000Z</time>
      </trkpt>
      <trkpt lat="43.71267" lon="7.09708">
        <ele>314.39999389648</ele>
        <time>2023-08-02T12:09:54.000Z</time>
      </trkpt>
      <trkpt lat="43.71267" lon="7.09708">
        <ele>314.39999389648</ele>
        <time>2023-08-02T12:09:55.000Z</time>
      </trkpt>
      <trkpt lat="43.71267" lon="7.09708">
        <ele>314.39999389648</ele>
        <time>2023-08-02T12:09:56.000Z</time>
      </trkpt>
      <trkpt lat="43.71266" lon="7.09708">
        <ele>314.39999389648</ele>
        <time>2023-08-02T12:09:57.000Z</time>
      </trkpt>
      <trkpt lat="43.71266" lon="7.09708">
        <ele>314.39999389648</ele>
        <time>2023-08-02T12:09:58.000Z</time>
      </trkpt>
      <trkpt lat="43.71265" lon="7.09708">
        <ele>314.39999389648</ele>
        <time>2023-08-02T12:09:59.000Z</time>
      </trkpt>
      <trkpt lat="43.71266" lon="7.09708">
        <ele>314.39999389648</ele>
        <time>2023-08-02T12:10:00.000Z</time>
      </trkpt>
      <trkpt lat="43.71266" lon="7.09708">
        <ele>314.39999389648</ele>
        <time>2023-08-02T12:10:01.000Z</time>
      </trkpt>
      <trkpt lat="43.71266" lon="7.09708">
        <ele>314.39999389648</ele>
        <time>2023-08-02T12:10:02.000Z</time>
      </trkpt>
      <trkpt lat="43.71266" lon="7.09708">
        <ele>314.39999389648</ele>
        <time>2023-08-02T12:10:03.000Z</time>
      </trkpt>
      <trkpt lat="43.71266" lon="7.09708">
        <ele>314.39999389648</ele>
        <time>2023-08-02T12:10:04.000Z</time>
      </trkpt>
      <trkpt lat="43.71266" lon="7.09708">
        <ele>314.39999389648</ele>
        <time>2023-08-02T12:10:05.000Z</time>
      </trkpt>
      <trkpt lat="43.71265" lon="7.09708">
        <ele>314.20001220703</ele>
        <time>2023-08-02T12:10:06.000Z</time>
      </trkpt>
      <trkpt lat="43.71265" lon="7.09708">
        <ele>314.20001220703</ele>
        <time>2023-08-02T12:10:07.000Z</time>
      </trkpt>
      <trkpt lat="43.71265" lon="7.09708">
        <ele>314.20001220703</ele>
        <time>2023-08-02T12:10:08.000Z</time>
      </trkpt>
      <trkpt lat="43.71265" lon="7.09707">
        <ele>314.20001220703</ele>
        <time>2023-08-02T12:10:09.000Z</time>
      </trkpt>
      <trkpt lat="43.71265" lon="7.09707">
        <ele>314.20001220703</ele>
        <time>2023-08-02T12:10:10.000Z</time>
      </trkpt>
      <trkpt lat="43.71265" lon="7.09707">
        <ele>314.20001220703</ele>
        <time>2023-08-02T12:10:11.000Z</time>
      </trkpt>
      <trkpt lat="43.71265" lon="7.09707">
        <ele>314.20001220703</ele>
        <time>2023-08-02T12:10:12.000Z</time>
      </trkpt>
      <trkpt lat="43.71265" lon="7.09707">
        <ele>314.39999389648</ele>
        <time>2023-08-02T12:10:13.000Z</time>
      </trkpt>
      <trkpt lat="43.71265" lon="7.09707">
        <ele>314.39999389648</ele>
        <time>2023-08-02T12:10:14.000Z</time>
      </trkpt>
      <trkpt lat="43.71265" lon="7.09707">
        <ele>314.39999389648</ele>
        <time>2023-08-02T12:10:15.000Z</time>
      </trkpt>
      <trkpt lat="43.71265" lon="7.09707">
        <ele>314.39999389648</ele>
        <time>2023-08-02T12:10:16.000Z</time>
      </trkpt>
      <trkpt lat="43.71265" lon="7.09707">
        <ele>314.39999389648</ele>
        <time>2023-08-02T12:10:17.000Z</time>
      </trkpt>
      <trkpt lat="43.71265" lon="7.09707">
        <ele>314.39999389648</ele>
        <time>2023-08-02T12:10:18.000Z</time>
      </trkpt>
      <trkpt lat="43.71265" lon="7.09707">
        <ele>314.39999389648</ele>
        <time>2023-08-02T12:10:19.000Z</time>
      </trkpt>
      <trkpt lat="43.71265" lon="7.09707">
        <ele>314.39999389648</ele>
        <time>2023-08-02T12:10:20.000Z</time>
      </trkpt>
      <trkpt lat="43.71265" lon="7.09707">
        <ele>314.39999389648</ele>
        <time>2023-08-02T12:10:21.000Z</time>
      </trkpt>
      <trkpt lat="43.71265" lon="7.09707">
        <ele>314.39999389648</ele>
        <time>2023-08-02T12:10:22.000Z</time>
      </trkpt>
      <trkpt lat="43.71265" lon="7.09708">
        <ele>314.39999389648</ele>
        <time>2023-08-02T12:10:23.000Z</time>
      </trkpt>
      <trkpt lat="43.71265" lon="7.09708">
        <ele>314.39999389648</ele>
        <time>2023-08-02T12:10:24.000Z</time>
      </trkpt>
      <trkpt lat="43.71265" lon="7.09708">
        <ele>314.39999389648</ele>
        <time>2023-08-02T12:10:25.000Z</time>
      </trkpt>
      <trkpt lat="43.71265" lon="7.09708">
        <ele>314.39999389648</ele>
        <time>2023-08-02T12:10:26.000Z</time>
      </trkpt>
      <trkpt lat="43.71266" lon="7.09708">
        <ele>314.39999389648</ele>
        <time>2023-08-02T12:10:27.000Z</time>
      </trkpt>
      <trkpt lat="43.71266" lon="7.09708">
        <ele>314.60000610352</ele>
        <time>2023-08-02T12:10:28.000Z</time>
      </trkpt>
      <trkpt lat="43.71266" lon="7.09708">
        <ele>314.60000610352</ele>
        <time>2023-08-02T12:10:29.000Z</time>
      </trkpt>
      <trkpt lat="43.71266" lon="7.09708">
        <ele>314.60000610352</ele>
        <time>2023-08-02T12:10:30.000Z</time>
      </trkpt>
      <trkpt lat="43.71266" lon="7.09708">
        <ele>314.60000610352</ele>
        <time>2023-08-02T12:10:31.000Z</time>
      </trkpt>
      <trkpt lat="43.71266" lon="7.09708">
        <ele>314.60000610352</ele>
        <time>2023-08-02T12:10:32.000Z</time>
      </trkpt>
      <trkpt lat="43.71266" lon="7.09708">
        <ele>314.60000610352</ele>
        <time>2023-08-02T12:10:33.000Z</time>
      </trkpt>
      <trkpt lat="43.71266" lon="7.09708">
        <ele>314.60000610352</ele>
        <time>2023-08-02T12:10:34.000Z</time>
      </trkpt>
      <trkpt lat="43.71266" lon="7.09708">
        <ele>314.60000610352</ele>
        <time>2023-08-02T12:10:35.000Z</time>
      </trkpt>
      <trkpt lat="43.71266" lon="7.09708">
        <ele>314.60000610352</ele>
        <time>2023-08-02T12:10:36.000Z</time>
      </trkpt>
      <trkpt lat="43.71266" lon="7.09708">
        <ele>314.60000610352</ele>
        <time>2023-08-02T12:10:37.000Z</time>
      </trkpt>
      <trkpt lat="43.71265" lon="7.09708">
        <ele>314.60000610352</ele>
        <time>2023-08-02T12:10:38.000Z</time>
      </trkpt>
      <trkpt lat="43.71265" lon="7.09708">
        <ele>314.60000610352</ele>
        <time>2023-08-02T12:10:39.000Z</time>
      </trkpt>
      <trkpt lat="43.71265" lon="7.09708">
        <ele>314.60000610352</ele>
        <time>2023-08-02T12:10:40.000Z</time>
      </trkpt>
      <trkpt lat="43.71265" lon="7.09708">
        <ele>314.60000610352</ele>
        <time>2023-08-02T12:10:41.000Z</time>
      </trkpt>
      <trkpt lat="43.71265" lon="7.09708">
        <ele>314.60000610352</ele>
        <time>2023-08-02T12:10:42.000Z</time>
      </trkpt>
      <trkpt lat="43.71265" lon="7.09708">
        <ele>314.60000610352</ele>
        <time>2023-08-02T12:10:43.000Z</time>
      </trkpt>
      <trkpt lat="43.71265" lon="7.09708">
        <ele>314.60000610352</ele>
        <time>2023-08-02T12:10:44.000Z</time>
      </trkpt>
      <trkpt lat="43.71265" lon="7.09708">
        <ele>314.60000610352</ele>
        <time>2023-08-02T12:10:45.000Z</time>
      </trkpt>
      <trkpt lat="43.71265" lon="7.09708">
        <ele>314.60000610352</ele>
        <time>2023-08-02T12:10:46.000Z</time>
      </trkpt>
      <trkpt lat="43.71265" lon="7.09708">
        <ele>314.60000610352</ele>
        <time>2023-08-02T12:10:47.000Z</time>
      </trkpt>
      <trkpt lat="43.71265" lon="7.09708">
        <ele>314.60000610352</ele>
        <time>2023-08-02T12:10:48.000Z</time>
      </trkpt>
      <trkpt lat="43.71265" lon="7.09708">
        <ele>314.60000610352</ele>
        <time>2023-08-02T12:10:49.000Z</time>
      </trkpt>
      <trkpt lat="43.71265" lon="7.09708">
        <ele>314.60000610352</ele>
        <time>2023-08-02T12:10:50.000Z</time>
      </trkpt>
      <trkpt lat="43.71265" lon="7.09708">
        <ele>314.60000610352</ele>
        <time>2023-08-02T12:10:51.000Z</time>
      </trkpt>
      <trkpt lat="43.71265" lon="7.09708">
        <ele>314.60000610352</ele>
        <time>2023-08-02T12:10:52.000Z</time>
      </trkpt>
      <trkpt lat="43.71265" lon="7.09708">
        <ele>314.60000610352</ele>
        <time>2023-08-02T12:10:53.000Z</time>
      </trkpt>
      <trkpt lat="43.71265" lon="7.09708">
        <ele>314.60000610352</ele>
        <time>2023-08-02T12:10:54.000Z</time>
      </trkpt>
      <trkpt lat="43.71265" lon="7.09708">
        <ele>314.79998779297</ele>
        <time>2023-08-02T12:10:55.000Z</time>
      </trkpt>
      <trkpt lat="43.71265" lon="7.09708">
        <ele>314.79998779297</ele>
        <time>2023-08-02T12:10:56.000Z</time>
      </trkpt>
      <trkpt lat="43.71265" lon="7.09708">
        <ele>314.79998779297</ele>
        <time>2023-08-02T12:10:57.000Z</time>
      </trkpt>
      <trkpt lat="43.71265" lon="7.09708">
        <ele>314.79998779297</ele>
        <time>2023-08-02T12:10:58.000Z</time>
      </trkpt>
      <trkpt lat="43.71265" lon="7.09708">
        <ele>314.79998779297</ele>
        <time>2023-08-02T12:10:59.000Z</time>
      </trkpt>
      <trkpt lat="43.71265" lon="7.09708">
        <ele>314.79998779297</ele>
        <time>2023-08-02T12:11:00.000Z</time>
      </trkpt>
      <trkpt lat="43.71265" lon="7.09708">
        <ele>314.79998779297</ele>
        <time>2023-08-02T12:11:01.000Z</time>
      </trkpt>
      <trkpt lat="43.71265" lon="7.09708">
        <ele>314.79998779297</ele>
        <time>2023-08-02T12:11:02.000Z</time>
      </trkpt>
      <trkpt lat="43.71265" lon="7.09708">
        <ele>314.79998779297</ele>
        <time>2023-08-02T12:11:03.000Z</time>
      </trkpt>
      <trkpt lat="43.71265" lon="7.09707">
        <ele>314.79998779297</ele>
        <time>2023-08-02T12:11:04.000Z</time>
      </trkpt>
      <trkpt lat="43.71265" lon="7.09707">
        <ele>314.79998779297</ele>
        <time>2023-08-02T12:11:05.000Z</time>
      </trkpt>
      <trkpt lat="43.71265" lon="7.09707">
        <ele>314.79998779297</ele>
        <time>2023-08-02T12:11:06.000Z</time>
      </trkpt>
      <trkpt lat="43.71265" lon="7.09707">
        <ele>314.79998779297</ele>
        <time>2023-08-02T12:11:07.000Z</time>
      </trkpt>
      <trkpt lat="43.71265" lon="7.09707">
        <ele>314.79998779297</ele>
        <time>2023-08-02T12:11:08.000Z</time>
      </trkpt>
      <trkpt lat="43.71265" lon="7.09707">
        <ele>314.79998779297</ele>
        <time>2023-08-02T12:11:09.000Z</time>
      </trkpt>
      <trkpt lat="43.71265" lon="7.09707">
        <ele>314.79998779297</ele>
        <time>2023-08-02T12:11:10.000Z</time>
      </trkpt>
      <trkpt lat="43.71265" lon="7.09707">
        <ele>314.79998779297</ele>
        <time>2023-08-02T12:11:11.000Z</time>
      </trkpt>
      <trkpt lat="43.71265" lon="7.09707">
        <ele>314.79998779297</ele>
        <time>2023-08-02T12:11:12.000Z</time>
      </trkpt>
      <trkpt lat="43.71265" lon="7.09707">
        <ele>314.79998779297</ele>
        <time>2023-08-02T12:11:13.000Z</time>
      </trkpt>
      <trkpt lat="43.71265" lon="7.09707">
        <ele>314.79998779297</ele>
        <time>2023-08-02T12:11:14.000Z</time>
      </trkpt>
      <trkpt lat="43.71265" lon="7.09707">
        <ele>314.79998779297</ele>
        <time>2023-08-02T12:11:15.000Z</time>
      </trkpt>
      <trkpt lat="43.71265" lon="7.09707">
        <ele>314.79998779297</ele>
        <time>2023-08-02T12:11:16.000Z</time>
      </trkpt>
      <trkpt lat="43.71266" lon="7.09707">
        <ele>314.79998779297</ele>
        <time>2023-08-02T12:11:17.000Z</time>
      </trkpt>
      <trkpt lat="43.71267" lon="7.09707">
        <ele>314.79998779297</ele>
        <time>2023-08-02T12:11:18.000Z</time>
      </trkpt>
      <trkpt lat="43.71267" lon="7.09707">
        <ele>314.79998779297</ele>
        <time>2023-08-02T12:11:19.000Z</time>
      </trkpt>
      <trkpt lat="43.71269" lon="7.09709">
        <ele>314.79998779297</ele>
        <time>2023-08-02T12:11:20.000Z</time>
      </trkpt>
      <trkpt lat="43.71271" lon="7.09709">
        <ele>314.60000610352</ele>
        <time>2023-08-02T12:11:21.000Z</time>
      </trkpt>
      <trkpt lat="43.71272" lon="7.09709">
        <ele>314.60000610352</ele>
        <time>2023-08-02T12:11:22.000Z</time>
      </trkpt>
      <trkpt lat="43.71273" lon="7.09709">
        <ele>314.60000610352</ele>
        <time>2023-08-02T12:11:23.000Z</time>
      </trkpt>
      <trkpt lat="43.71274" lon="7.09708">
        <ele>314.79998779297</ele>
        <time>2023-08-02T12:11:24.000Z</time>
      </trkpt>
      <trkpt lat="43.71275" lon="7.09708">
        <ele>314.79998779297</ele>
        <time>2023-08-02T12:11:25.000Z</time>
      </trkpt>
      <trkpt lat="43.71275" lon="7.09707">
        <ele>314.79998779297</ele>
        <time>2023-08-02T12:11:26.000Z</time>
      </trkpt>
      <trkpt lat="43.71276" lon="7.09706">
        <ele>315</ele>
        <time>2023-08-02T12:11:27.000Z</time>
      </trkpt>
      <trkpt lat="43.71276" lon="7.09704">
        <ele>315</ele>
        <time>2023-08-02T12:11:28.000Z</time>
      </trkpt>
      <trkpt lat="43.71275" lon="7.09702">
        <ele>315</ele>
        <time>2023-08-02T12:11:29.000Z</time>
      </trkpt>
      <trkpt lat="43.71274" lon="7.097">
        <ele>315</ele>
        <time>2023-08-02T12:11:30.000Z</time>
      </trkpt>
      <trkpt lat="43.71273" lon="7.09699">
        <ele>315.20001220703</ele>
        <time>2023-08-02T12:11:31.000Z</time>
      </trkpt>
      <trkpt lat="43.71273" lon="7.09697">
        <ele>315.20001220703</ele>
        <time>2023-08-02T12:11:32.000Z</time>
      </trkpt>
      <trkpt lat="43.71272" lon="7.09695">
        <ele>315.39999389648</ele>
        <time>2023-08-02T12:11:33.000Z</time>
      </trkpt>
      <trkpt lat="43.71272" lon="7.09693">
        <ele>315.39999389648</ele>
        <time>2023-08-02T12:11:34.000Z</time>
      </trkpt>
      <trkpt lat="43.71271" lon="7.09692">
        <ele>315.60000610352</ele>
        <time>2023-08-02T12:11:35.000Z</time>
      </trkpt>
      <trkpt lat="43.7127" lon="7.09691">
        <ele>316</ele>
        <time>2023-08-02T12:11:36.000Z</time>
      </trkpt>
      <trkpt lat="43.7127" lon="7.0969">
        <ele>316.20001220703</ele>
        <time>2023-08-02T12:11:37.000Z</time>
      </trkpt>
      <trkpt lat="43.7127" lon="7.0969">
        <ele>316.20001220703</ele>
        <time>2023-08-02T12:11:38.000Z</time>
      </trkpt>
      <trkpt lat="43.71271" lon="7.09691">
        <ele>316.39999389648</ele>
        <time>2023-08-02T12:11:39.000Z</time>
      </trkpt>
      <trkpt lat="43.71271" lon="7.09691">
        <ele>316.60000610352</ele>
        <time>2023-08-02T12:11:40.000Z</time>
      </trkpt>
      <trkpt lat="43.71271" lon="7.09692">
        <ele>316.60000610352</ele>
        <time>2023-08-02T12:11:41.000Z</time>
      </trkpt>
      <trkpt lat="43.71272" lon="7.09694">
        <ele>316.60000610352</ele>
        <time>2023-08-02T12:11:42.000Z</time>
      </trkpt>
      <trkpt lat="43.71273" lon="7.09696">
        <ele>316.60000610352</ele>
        <time>2023-08-02T12:11:43.000Z</time>
      </trkpt>
      <trkpt lat="43.71274" lon="7.097">
        <ele>316.39999389648</ele>
        <time>2023-08-02T12:11:44.000Z</time>
      </trkpt>
      <trkpt lat="43.71275" lon="7.09705">
        <ele>316.39999389648</ele>
        <time>2023-08-02T12:11:45.000Z</time>
      </trkpt>
      <trkpt lat="43.71275" lon="7.09711">
        <ele>316.20001220703</ele>
        <time>2023-08-02T12:11:46.000Z</time>
      </trkpt>
      <trkpt lat="43.71275" lon="7.09717">
        <ele>316</ele>
        <time>2023-08-02T12:11:47.000Z</time>
      </trkpt>
      <trkpt lat="43.71275" lon="7.09723">
        <ele>316</ele>
        <time>2023-08-02T12:11:48.000Z</time>
      </trkpt>
      <trkpt lat="43.71275" lon="7.09727">
        <ele>315.79998779297</ele>
        <time>2023-08-02T12:11:49.000Z</time>
      </trkpt>
      <trkpt lat="43.71274" lon="7.09731">
        <ele>315.60000610352</ele>
        <time>2023-08-02T12:11:50.000Z</time>
      </trkpt>
      <trkpt lat="43.71275" lon="7.09733">
        <ele>314.79998779297</ele>
        <time>2023-08-02T12:11:51.000Z</time>
      </trkpt>
      <trkpt lat="43.71276" lon="7.09734">
        <ele>314.79998779297</ele>
        <time>2023-08-02T12:11:52.000Z</time>
      </trkpt>
      <trkpt lat="43.71276" lon="7.09734">
        <ele>314.60000610352</ele>
        <time>2023-08-02T12:11:53.000Z</time>
      </trkpt>
      <trkpt lat="43.71276" lon="7.09734">
        <ele>314.39999389648</ele>
        <time>2023-08-02T12:11:54.000Z</time>
      </trkpt>
      <trkpt lat="43.71276" lon="7.09734">
        <ele>314</ele>
        <time>2023-08-02T12:11:55.000Z</time>
      </trkpt>
      <trkpt lat="43.71277" lon="7.09734">
        <ele>313.79998779297</ele>
        <time>2023-08-02T12:11:56.000Z</time>
      </trkpt>
      <trkpt lat="43.71277" lon="7.09733">
        <ele>313.79998779297</ele>
        <time>2023-08-02T12:11:57.000Z</time>
      </trkpt>
      <trkpt lat="43.71278" lon="7.09732">
        <ele>313.79998779297</ele>
        <time>2023-08-02T12:11:58.000Z</time>
      </trkpt>
      <trkpt lat="43.7128" lon="7.09733">
        <ele>313.79998779297</ele>
        <time>2023-08-02T12:11:59.000Z</time>
      </trkpt>
      <trkpt lat="43.71282" lon="7.09734">
        <ele>313.79998779297</ele>
        <time>2023-08-02T12:12:00.000Z</time>
      </trkpt>
      <trkpt lat="43.71284" lon="7.09734">
        <ele>313.60000610352</ele>
        <time>2023-08-02T12:12:01.000Z</time>
      </trkpt>
      <trkpt lat="43.71286" lon="7.09733">
        <ele>313.60000610352</ele>
        <time>2023-08-02T12:12:02.000Z</time>
      </trkpt>
      <trkpt lat="43.71286" lon="7.0973">
        <ele>313.60000610352</ele>
        <time>2023-08-02T12:12:03.000Z</time>
      </trkpt>
      <trkpt lat="43.71285" lon="7.09728">
        <ele>313.60000610352</ele>
        <time>2023-08-02T12:12:04.000Z</time>
      </trkpt>
      <trkpt lat="43.71284" lon="7.09725">
        <ele>313.79998779297</ele>
        <time>2023-08-02T12:12:05.000Z</time>
      </trkpt>
      <trkpt lat="43.71282" lon="7.09722">
        <ele>313.79998779297</ele>
        <time>2023-08-02T12:12:06.000Z</time>
      </trkpt>
      <trkpt lat="43.7128" lon="7.09721">
        <ele>314.20001220703</ele>
        <time>2023-08-02T12:12:07.000Z</time>
      </trkpt>
      <trkpt lat="43.71279" lon="7.0972">
        <ele>314.39999389648</ele>
        <time>2023-08-02T12:12:08.000Z</time>
      </trkpt>
      <trkpt lat="43.71277" lon="7.09719">
        <ele>314.39999389648</ele>
        <time>2023-08-02T12:12:09.000Z</time>
      </trkpt>
      <trkpt lat="43.71276" lon="7.09716">
        <ele>314.60000610352</ele>
        <time>2023-08-02T12:12:10.000Z</time>
      </trkpt>
      <trkpt lat="43.71275" lon="7.09714">
        <ele>314.60000610352</ele>
        <time>2023-08-02T12:12:11.000Z</time>
      </trkpt>
      <trkpt lat="43.71275" lon="7.09713">
        <ele>314.60000610352</ele>
        <time>2023-08-02T12:12:12.000Z</time>
      </trkpt>
      <trkpt lat="43.71275" lon="7.09713">
        <ele>314.60000610352</ele>
        <time>2023-08-02T12:12:13.000Z</time>
      </trkpt>
      <trkpt lat="43.71275" lon="7.09713">
        <ele>314.60000610352</ele>
        <time>2023-08-02T12:12:14.000Z</time>
      </trkpt>
      <trkpt lat="43.71275" lon="7.09713">
        <ele>314.60000610352</ele>
        <time>2023-08-02T12:12:15.000Z</time>
      </trkpt>
      <trkpt lat="43.71275" lon="7.09713">
        <ele>314.60000610352</ele>
        <time>2023-08-02T12:12:16.000Z</time>
      </trkpt>
      <trkpt lat="43.71275" lon="7.09713">
        <ele>314.39999389648</ele>
        <time>2023-08-02T12:12:17.000Z</time>
      </trkpt>
      <trkpt lat="43.71275" lon="7.09713">
        <ele>314.39999389648</ele>
        <time>2023-08-02T12:12:18.000Z</time>
      </trkpt>
      <trkpt lat="43.71275" lon="7.09713">
        <ele>314.39999389648</ele>
        <time>2023-08-02T12:12:19.000Z</time>
      </trkpt>
      <trkpt lat="43.71275" lon="7.09713">
        <ele>314.39999389648</ele>
        <time>2023-08-02T12:12:20.000Z</time>
      </trkpt>
      <trkpt lat="43.71275" lon="7.09713">
        <ele>314.39999389648</ele>
        <time>2023-08-02T12:12:21.000Z</time>
      </trkpt>
      <trkpt lat="43.71275" lon="7.09713">
        <ele>314.39999389648</ele>
        <time>2023-08-02T12:12:22.000Z</time>
      </trkpt>
      <trkpt lat="43.71275" lon="7.09713">
        <ele>314.39999389648</ele>
        <time>2023-08-02T12:12:23.000Z</time>
      </trkpt>
      <trkpt lat="43.71275" lon="7.09713">
        <ele>314.39999389648</ele>
        <time>2023-08-02T12:12:24.000Z</time>
      </trkpt>
      <trkpt lat="43.71275" lon="7.09713">
        <ele>314.39999389648</ele>
        <time>2023-08-02T12:12:25.000Z</time>
      </trkpt>
      <trkpt lat="43.71275" lon="7.09713">
        <ele>314.39999389648</ele>
        <time>2023-08-02T12:12:26.000Z</time>
      </trkpt>
      <trkpt lat="43.71275" lon="7.09713">
        <ele>314.39999389648</ele>
        <time>2023-08-02T12:12:27.000Z</time>
      </trkpt>
      <trkpt lat="43.71275" lon="7.09713">
        <ele>314.39999389648</ele>
        <time>2023-08-02T12:12:28.000Z</time>
      </trkpt>
      <trkpt lat="43.71275" lon="7.09713">
        <ele>314.39999389648</ele>
        <time>2023-08-02T12:12:29.000Z</time>
      </trkpt>
      <trkpt lat="43.71275" lon="7.09713">
        <ele>314.39999389648</ele>
        <time>2023-08-02T12:12:30.000Z</time>
      </trkpt>
      <trkpt lat="43.71275" lon="7.09713">
        <ele>314.39999389648</ele>
        <time>2023-08-02T12:12:31.000Z</time>
      </trkpt>
      <trkpt lat="43.71275" lon="7.09713">
        <ele>314.39999389648</ele>
        <time>2023-08-02T12:12:32.000Z</time>
      </trkpt>
      <trkpt lat="43.71275" lon="7.09713">
        <ele>314.39999389648</ele>
        <time>2023-08-02T12:12:33.000Z</time>
      </trkpt>
      <trkpt lat="43.71275" lon="7.09713">
        <ele>314.39999389648</ele>
        <time>2023-08-02T12:12:34.000Z</time>
      </trkpt>
      <trkpt lat="43.71275" lon="7.09713">
        <ele>314.39999389648</ele>
        <time>2023-08-02T12:12:35.000Z</time>
      </trkpt>
      <trkpt lat="43.71275" lon="7.09713">
        <ele>314.39999389648</ele>
        <time>2023-08-02T12:12:36.000Z</time>
      </trkpt>
      <trkpt lat="43.71275" lon="7.09713">
        <ele>314.39999389648</ele>
        <time>2023-08-02T12:12:37.000Z</time>
      </trkpt>
      <trkpt lat="43.71275" lon="7.09713">
        <ele>314.39999389648</ele>
        <time>2023-08-02T12:12:38.000Z</time>
      </trkpt>
      <trkpt lat="43.71275" lon="7.09713">
        <ele>314.39999389648</ele>
        <time>2023-08-02T12:12:39.000Z</time>
      </trkpt>
      <trkpt lat="43.71275" lon="7.09713">
        <ele>314.39999389648</ele>
        <time>2023-08-02T12:12:40.000Z</time>
      </trkpt>
      <trkpt lat="43.71275" lon="7.09713">
        <ele>314.39999389648</ele>
        <time>2023-08-02T12:12:41.000Z</time>
      </trkpt>
      <trkpt lat="43.71275" lon="7.09713">
        <ele>314.39999389648</ele>
        <time>2023-08-02T12:12:42.000Z</time>
      </trkpt>
      <trkpt lat="43.71275" lon="7.09713">
        <ele>314.39999389648</ele>
        <time>2023-08-02T12:12:43.000Z</time>
      </trkpt>
      <trkpt lat="43.71275" lon="7.09713">
        <ele>314.39999389648</ele>
        <time>2023-08-02T12:12:44.000Z</time>
      </trkpt>
      <trkpt lat="43.71275" lon="7.09713">
        <ele>314.39999389648</ele>
        <time>2023-08-02T12:12:45.000Z</time>
      </trkpt>
      <trkpt lat="43.71275" lon="7.09713">
        <ele>314.39999389648</ele>
        <time>2023-08-02T12:12:46.000Z</time>
      </trkpt>
      <trkpt lat="43.71275" lon="7.09713">
        <ele>314.39999389648</ele>
        <time>2023-08-02T12:12:47.000Z</time>
      </trkpt>
      <trkpt lat="43.71275" lon="7.09713">
        <ele>314.39999389648</ele>
        <time>2023-08-02T12:12:48.000Z</time>
      </trkpt>
      <trkpt lat="43.71275" lon="7.09713">
        <ele>314.39999389648</ele>
        <time>2023-08-02T12:12:49.000Z</time>
      </trkpt>
      <trkpt lat="43.71275" lon="7.09713">
        <ele>314.20001220703</ele>
        <time>2023-08-02T12:12:50.000Z</time>
      </trkpt>
      <trkpt lat="43.71275" lon="7.09713">
        <ele>314.20001220703</ele>
        <time>2023-08-02T12:12:51.000Z</time>
      </trkpt>
      <trkpt lat="43.71275" lon="7.09713">
        <ele>314.20001220703</ele>
        <time>2023-08-02T12:12:52.000Z</time>
      </trkpt>
      <trkpt lat="43.71275" lon="7.09713">
        <ele>314.20001220703</ele>
        <time>2023-08-02T12:12:53.000Z</time>
      </trkpt>
      <trkpt lat="43.71275" lon="7.09713">
        <ele>314.20001220703</ele>
        <time>2023-08-02T12:12:54.000Z</time>
      </trkpt>
      <trkpt lat="43.71275" lon="7.09713">
        <ele>314.20001220703</ele>
        <time>2023-08-02T12:12:55.000Z</time>
      </trkpt>
      <trkpt lat="43.71275" lon="7.09713">
        <ele>314.20001220703</ele>
        <time>2023-08-02T12:12:56.000Z</time>
      </trkpt>
      <trkpt lat="43.71275" lon="7.09713">
        <ele>314.20001220703</ele>
        <time>2023-08-02T12:12:57.000Z</time>
      </trkpt>
      <trkpt lat="43.71275" lon="7.09713">
        <ele>314.20001220703</ele>
        <time>2023-08-02T12:12:58.000Z</time>
      </trkpt>
      <trkpt lat="43.71275" lon="7.09713">
        <ele>314</ele>
        <time>2023-08-02T12:12:59.000Z</time>
      </trkpt>
      <trkpt lat="43.71275" lon="7.09713">
        <ele>314</ele>
        <time>2023-08-02T12:13:00.000Z</time>
      </trkpt>
      <trkpt lat="43.71275" lon="7.09713">
        <ele>314</ele>
        <time>2023-08-02T12:13:01.000Z</time>
      </trkpt>
      <trkpt lat="43.71275" lon="7.09713">
        <ele>314</ele>
        <time>2023-08-02T12:13:02.000Z</time>
      </trkpt>
      <trkpt lat="43.71275" lon="7.09713">
        <ele>314</ele>
        <time>2023-08-02T12:13:03.000Z</time>
      </trkpt>
      <trkpt lat="43.71275" lon="7.09713">
        <ele>314</ele>
        <time>2023-08-02T12:13:04.000Z</time>
      </trkpt>
      <trkpt lat="43.71275" lon="7.09713">
        <ele>314</ele>
        <time>2023-08-02T12:13:05.000Z</time>
      </trkpt>
      <trkpt lat="43.71275" lon="7.09713">
        <ele>314</ele>
        <time>2023-08-02T12:13:06.000Z</time>
      </trkpt>
      <trkpt lat="43.71275" lon="7.09713">
        <ele>314</ele>
        <time>2023-08-02T12:13:07.000Z</time>
      </trkpt>
      <trkpt lat="43.71275" lon="7.09713">
        <ele>314</ele>
        <time>2023-08-02T12:13:08.000Z</time>
      </trkpt>
      <trkpt lat="43.71275" lon="7.09713">
        <ele>314</ele>
        <time>2023-08-02T12:13:09.000Z</time>
      </trkpt>
      <trkpt lat="43.71275" lon="7.09713">
        <ele>314</ele>
        <time>2023-08-02T12:13:10.000Z</time>
      </trkpt>
      <trkpt lat="43.71275" lon="7.09713">
        <ele>314</ele>
        <time>2023-08-02T12:13:11.000Z</time>
      </trkpt>
      <trkpt lat="43.71275" lon="7.09713">
        <ele>314</ele>
        <time>2023-08-02T12:13:12.000Z</time>
      </trkpt>
      <trkpt lat="43.71275" lon="7.09713">
        <ele>314</ele>
        <time>2023-08-02T12:13:13.000Z</time>
      </trkpt>
      <trkpt lat="43.71275" lon="7.09713">
        <ele>314</ele>
        <time>2023-08-02T12:13:14.000Z</time>
      </trkpt>
      <trkpt lat="43.71274" lon="7.09713">
        <ele>314</ele>
        <time>2023-08-02T12:13:15.000Z</time>
      </trkpt>
      <trkpt lat="43.71274" lon="7.09712">
        <ele>314</ele>
        <time>2023-08-02T12:13:16.000Z</time>
      </trkpt>
      <trkpt lat="43.71274" lon="7.09712">
        <ele>314.20001220703</ele>
        <time>2023-08-02T12:13:17.000Z</time>
      </trkpt>
      <trkpt lat="43.71274" lon="7.09712">
        <ele>314.20001220703</ele>
        <time>2023-08-02T12:13:18.000Z</time>
      </trkpt>
      <trkpt lat="43.71274" lon="7.09712">
        <ele>314.20001220703</ele>
        <time>2023-08-02T12:13:19.000Z</time>
      </trkpt>
      <trkpt lat="43.71274" lon="7.09712">
        <ele>314.20001220703</ele>
        <time>2023-08-02T12:13:20.000Z</time>
      </trkpt>
      <trkpt lat="43.71274" lon="7.09712">
        <ele>314.20001220703</ele>
        <time>2023-08-02T12:13:21.000Z</time>
      </trkpt>
      <trkpt lat="43.71274" lon="7.09712">
        <ele>314.20001220703</ele>
        <time>2023-08-02T12:13:22.000Z</time>
      </trkpt>
      <trkpt lat="43.71274" lon="7.09712">
        <ele>314.20001220703</ele>
        <time>2023-08-02T12:13:23.000Z</time>
      </trkpt>
      <trkpt lat="43.71274" lon="7.09712">
        <ele>314.20001220703</ele>
        <time>2023-08-02T12:13:24.000Z</time>
      </trkpt>
      <trkpt lat="43.71274" lon="7.09712">
        <ele>314.20001220703</ele>
        <time>2023-08-02T12:13:25.000Z</time>
      </trkpt>
      <trkpt lat="43.71274" lon="7.09712">
        <ele>314.20001220703</ele>
        <time>2023-08-02T12:13:26.000Z</time>
      </trkpt>
      <trkpt lat="43.71274" lon="7.09712">
        <ele>314.20001220703</ele>
        <time>2023-08-02T12:13:27.000Z</time>
      </trkpt>
      <trkpt lat="43.71274" lon="7.09712">
        <ele>314.20001220703</ele>
        <time>2023-08-02T12:13:28.000Z</time>
      </trkpt>
      <trkpt lat="43.71274" lon="7.09712">
        <ele>314.20001220703</ele>
        <time>2023-08-02T12:13:29.000Z</time>
      </trkpt>
      <trkpt lat="43.71274" lon="7.09712">
        <ele>314.20001220703</ele>
        <time>2023-08-02T12:13:30.000Z</time>
      </trkpt>
      <trkpt lat="43.71274" lon="7.09712">
        <ele>314.20001220703</ele>
        <time>2023-08-02T12:13:31.000Z</time>
      </trkpt>
      <trkpt lat="43.71274" lon="7.09712">
        <ele>314.20001220703</ele>
        <time>2023-08-02T12:13:32.000Z</time>
      </trkpt>
      <trkpt lat="43.71274" lon="7.09712">
        <ele>314.20001220703</ele>
        <time>2023-08-02T12:13:33.000Z</time>
      </trkpt>
      <trkpt lat="43.71274" lon="7.09712">
        <ele>314.39999389648</ele>
        <time>2023-08-02T12:13:34.000Z</time>
      </trkpt>
      <trkpt lat="43.71275" lon="7.09712">
        <ele>314.39999389648</ele>
        <time>2023-08-02T12:13:35.000Z</time>
      </trkpt>
      <trkpt lat="43.71275" lon="7.09712">
        <ele>314.39999389648</ele>
        <time>2023-08-02T12:13:36.000Z</time>
      </trkpt>
      <trkpt lat="43.71275" lon="7.09712">
        <ele>314.39999389648</ele>
        <time>2023-08-02T12:13:37.000Z</time>
      </trkpt>
      <trkpt lat="43.71275" lon="7.09712">
        <ele>314.39999389648</ele>
        <time>2023-08-02T12:13:38.000Z</time>
      </trkpt>
      <trkpt lat="43.71275" lon="7.09712">
        <ele>314.39999389648</ele>
        <time>2023-08-02T12:13:39.000Z</time>
      </trkpt>
      <trkpt lat="43.71275" lon="7.09712">
        <ele>314.39999389648</ele>
        <time>2023-08-02T12:13:40.000Z</time>
      </trkpt>
      <trkpt lat="43.71275" lon="7.09712">
        <ele>314.20001220703</ele>
        <time>2023-08-02T12:13:41.000Z</time>
      </trkpt>
      <trkpt lat="43.71275" lon="7.09712">
        <ele>314.20001220703</ele>
        <time>2023-08-02T12:13:42.000Z</time>
      </trkpt>
      <trkpt lat="43.71275" lon="7.09712">
        <ele>314.20001220703</ele>
        <time>2023-08-02T12:13:43.000Z</time>
      </trkpt>
      <trkpt lat="43.71275" lon="7.09712">
        <ele>314.20001220703</ele>
        <time>2023-08-02T12:13:44.000Z</time>
      </trkpt>
      <trkpt lat="43.71274" lon="7.09712">
        <ele>314.20001220703</ele>
        <time>2023-08-02T12:13:45.000Z</time>
      </trkpt>
      <trkpt lat="43.71273" lon="7.09709">
        <ele>314.20001220703</ele>
        <time>2023-08-02T12:13:46.000Z</time>
      </trkpt>
      <trkpt lat="43.71274" lon="7.09707">
        <ele>314.20001220703</ele>
        <time>2023-08-02T12:13:47.000Z</time>
      </trkpt>
      <trkpt lat="43.71274" lon="7.09705">
        <ele>314.20001220703</ele>
        <time>2023-08-02T12:13:48.000Z</time>
      </trkpt>
      <trkpt lat="43.71274" lon="7.09702">
        <ele>314.20001220703</ele>
        <time>2023-08-02T12:13:49.000Z</time>
      </trkpt>
      <trkpt lat="43.71273" lon="7.09699">
        <ele>314.20001220703</ele>
        <time>2023-08-02T12:13:50.000Z</time>
      </trkpt>
      <trkpt lat="43.71272" lon="7.09697">
        <ele>314.20001220703</ele>
        <time>2023-08-02T12:13:51.000Z</time>
      </trkpt>
      <trkpt lat="43.71272" lon="7.09694">
        <ele>314.39999389648</ele>
        <time>2023-08-02T12:13:52.000Z</time>
      </trkpt>
      <trkpt lat="43.71273" lon="7.09692">
        <ele>314.79998779297</ele>
        <time>2023-08-02T12:13:53.000Z</time>
      </trkpt>
      <trkpt lat="43.71272" lon="7.09691">
        <ele>315.20001220703</ele>
        <time>2023-08-02T12:13:54.000Z</time>
      </trkpt>
      <trkpt lat="43.71271" lon="7.0969">
        <ele>315.20001220703</ele>
        <time>2023-08-02T12:13:55.000Z</time>
      </trkpt>
      <trkpt lat="43.71271" lon="7.0969">
        <ele>315.79998779297</ele>
        <time>2023-08-02T12:13:56.000Z</time>
      </trkpt>
      <trkpt lat="43.71271" lon="7.0969">
        <ele>316</ele>
        <time>2023-08-02T12:13:57.000Z</time>
      </trkpt>
      <trkpt lat="43.71271" lon="7.0969">
        <ele>316.20001220703</ele>
        <time>2023-08-02T12:13:58.000Z</time>
      </trkpt>
      <trkpt lat="43.71271" lon="7.09691">
        <ele>316.39999389648</ele>
        <time>2023-08-02T12:13:59.000Z</time>
      </trkpt>
      <trkpt lat="43.71271" lon="7.09692">
        <ele>316.60000610352</ele>
        <time>2023-08-02T12:14:00.000Z</time>
      </trkpt>
      <trkpt lat="43.71272" lon="7.09692">
        <ele>316.60000610352</ele>
        <time>2023-08-02T12:14:01.000Z</time>
      </trkpt>
      <trkpt lat="43.71272" lon="7.09692">
        <ele>316.60000610352</ele>
        <time>2023-08-02T12:14:02.000Z</time>
      </trkpt>
      <trkpt lat="43.71272" lon="7.09691">
        <ele>316.60000610352</ele>
        <time>2023-08-02T12:14:03.000Z</time>
      </trkpt>
      <trkpt lat="43.71272" lon="7.09691">
        <ele>316.60000610352</ele>
        <time>2023-08-02T12:14:04.000Z</time>
      </trkpt>
      <trkpt lat="43.71272" lon="7.09691">
        <ele>316.39999389648</ele>
        <time>2023-08-02T12:14:05.000Z</time>
      </trkpt>
      <trkpt lat="43.71272" lon="7.09692">
        <ele>316.39999389648</ele>
        <time>2023-08-02T12:14:06.000Z</time>
      </trkpt>
      <trkpt lat="43.71273" lon="7.09696">
        <ele>316.39999389648</ele>
        <time>2023-08-02T12:14:07.000Z</time>
      </trkpt>
      <trkpt lat="43.71274" lon="7.09703">
        <ele>316.39999389648</ele>
        <time>2023-08-02T12:14:08.000Z</time>
      </trkpt>
      <trkpt lat="43.71275" lon="7.0971">
        <ele>316.20001220703</ele>
        <time>2023-08-02T12:14:09.000Z</time>
      </trkpt>
      <trkpt lat="43.71275" lon="7.09718">
        <ele>316.20001220703</ele>
        <time>2023-08-02T12:14:10.000Z</time>
      </trkpt>
      <trkpt lat="43.71275" lon="7.09724">
        <ele>316.20001220703</ele>
        <time>2023-08-02T12:14:11.000Z</time>
      </trkpt>
      <trkpt lat="43.71275" lon="7.09728">
        <ele>316</ele>
        <time>2023-08-02T12:14:12.000Z</time>
      </trkpt>
      <trkpt lat="43.71275" lon="7.09731">
        <ele>315.79998779297</ele>
        <time>2023-08-02T12:14:13.000Z</time>
      </trkpt>
      <trkpt lat="43.71276" lon="7.09733">
        <ele>315.60000610352</ele>
        <time>2023-08-02T12:14:14.000Z</time>
      </trkpt>
      <trkpt lat="43.71278" lon="7.09734">
        <ele>315</ele>
        <time>2023-08-02T12:14:15.000Z</time>
      </trkpt>
      <trkpt lat="43.7128" lon="7.09734">
        <ele>314.39999389648</ele>
        <time>2023-08-02T12:14:16.000Z</time>
      </trkpt>
      <trkpt lat="43.71282" lon="7.09734">
        <ele>314.39999389648</ele>
        <time>2023-08-02T12:14:17.000Z</time>
      </trkpt>
      <trkpt lat="43.71284" lon="7.09733">
        <ele>314.20001220703</ele>
        <time>2023-08-02T12:14:18.000Z</time>
      </trkpt>
      <trkpt lat="43.71284" lon="7.09731">
        <ele>314</ele>
        <time>2023-08-02T12:14:19.000Z</time>
      </trkpt>
      <trkpt lat="43.71283" lon="7.09729">
        <ele>314</ele>
        <time>2023-08-02T12:14:20.000Z</time>
      </trkpt>
      <trkpt lat="43.71281" lon="7.09728">
        <ele>314</ele>
        <time>2023-08-02T12:14:21.000Z</time>
      </trkpt>
      <trkpt lat="43.71279" lon="7.09727">
        <ele>314</ele>
        <time>2023-08-02T12:14:22.000Z</time>
      </trkpt>
      <trkpt lat="43.71278" lon="7.09727">
        <ele>314</ele>
        <time>2023-08-02T12:14:23.000Z</time>
      </trkpt>
      <trkpt lat="43.71276" lon="7.09725">
        <ele>314.20001220703</ele>
        <time>2023-08-02T12:14:24.000Z</time>
      </trkpt>
      <trkpt lat="43.71275" lon="7.09723">
        <ele>314.20001220703</ele>
        <time>2023-08-02T12:14:25.000Z</time>
      </trkpt>
      <trkpt lat="43.71274" lon="7.09722">
        <ele>314.39999389648</ele>
        <time>2023-08-02T12:14:26.000Z</time>
      </trkpt>
      <trkpt lat="43.71274" lon="7.09721">
        <ele>314.39999389648</ele>
        <time>2023-08-02T12:14:27.000Z</time>
      </trkpt>
      <trkpt lat="43.71274" lon="7.09721">
        <ele>314.39999389648</ele>
        <time>2023-08-02T12:14:28.000Z</time>
      </trkpt>
      <trkpt lat="43.71274" lon="7.09721">
        <ele>314.39999389648</ele>
        <time>2023-08-02T12:14:29.000Z</time>
      </trkpt>
      <trkpt lat="43.71274" lon="7.09721">
        <ele>314.39999389648</ele>
        <time>2023-08-02T12:14:30.000Z</time>
      </trkpt>
      <trkpt lat="43.71274" lon="7.09721">
        <ele>314.39999389648</ele>
        <time>2023-08-02T12:14:31.000Z</time>
      </trkpt>
      <trkpt lat="43.71274" lon="7.09721">
        <ele>314.39999389648</ele>
        <time>2023-08-02T12:14:32.000Z</time>
      </trkpt>
      <trkpt lat="43.71274" lon="7.09721">
        <ele>314.39999389648</ele>
        <time>2023-08-02T12:14:33.000Z</time>
      </trkpt>
      <trkpt lat="43.71274" lon="7.09721">
        <ele>314.39999389648</ele>
        <time>2023-08-02T12:14:34.000Z</time>
      </trkpt>
      <trkpt lat="43.71274" lon="7.09721">
        <ele>314.39999389648</ele>
        <time>2023-08-02T12:14:35.000Z</time>
      </trkpt>
      <trkpt lat="43.71274" lon="7.09721">
        <ele>314.39999389648</ele>
        <time>2023-08-02T12:14:36.000Z</time>
      </trkpt>
      <trkpt lat="43.71274" lon="7.09721">
        <ele>314.39999389648</ele>
        <time>2023-08-02T12:14:37.000Z</time>
      </trkpt>
      <trkpt lat="43.71274" lon="7.09721">
        <ele>314.39999389648</ele>
        <time>2023-08-02T12:14:38.000Z</time>
      </trkpt>
      <trkpt lat="43.71274" lon="7.09721">
        <ele>314.39999389648</ele>
        <time>2023-08-02T12:14:39.000Z</time>
      </trkpt>
      <trkpt lat="43.71274" lon="7.09721">
        <ele>314.39999389648</ele>
        <time>2023-08-02T12:14:40.000Z</time>
      </trkpt>
      <trkpt lat="43.71274" lon="7.09721">
        <ele>314.60000610352</ele>
        <time>2023-08-02T12:14:41.000Z</time>
      </trkpt>
      <trkpt lat="43.71274" lon="7.09722">
        <ele>314.60000610352</ele>
        <time>2023-08-02T12:14:42.000Z</time>
      </trkpt>
      <trkpt lat="43.71274" lon="7.09722">
        <ele>314.60000610352</ele>
        <time>2023-08-02T12:14:43.000Z</time>
      </trkpt>
      <trkpt lat="43.71274" lon="7.09722">
        <ele>314.60000610352</ele>
        <time>2023-08-02T12:14:44.000Z</time>
      </trkpt>
      <trkpt lat="43.71274" lon="7.09722">
        <ele>314.60000610352</ele>
        <time>2023-08-02T12:14:45.000Z</time>
      </trkpt>
      <trkpt lat="43.71274" lon="7.09722">
        <ele>314.60000610352</ele>
        <time>2023-08-02T12:14:46.000Z</time>
      </trkpt>
      <trkpt lat="43.71274" lon="7.09722">
        <ele>314.60000610352</ele>
        <time>2023-08-02T12:14:47.000Z</time>
      </trkpt>
      <trkpt lat="43.71274" lon="7.09722">
        <ele>314.60000610352</ele>
        <time>2023-08-02T12:14:48.000Z</time>
      </trkpt>
      <trkpt lat="43.71274" lon="7.09722">
        <ele>314.60000610352</ele>
        <time>2023-08-02T12:14:49.000Z</time>
      </trkpt>
      <trkpt lat="43.71274" lon="7.09722">
        <ele>314.60000610352</ele>
        <time>2023-08-02T12:14:50.000Z</time>
      </trkpt>
      <trkpt lat="43.71274" lon="7.09722">
        <ele>314.60000610352</ele>
        <time>2023-08-02T12:14:51.000Z</time>
      </trkpt>
      <trkpt lat="43.71274" lon="7.09722">
        <ele>314.39999389648</ele>
        <time>2023-08-02T12:14:52.000Z</time>
      </trkpt>
      <trkpt lat="43.71274" lon="7.09722">
        <ele>314.39999389648</ele>
        <time>2023-08-02T12:14:53.000Z</time>
      </trkpt>
      <trkpt lat="43.71274" lon="7.09721">
        <ele>314.60000610352</ele>
        <time>2023-08-02T12:14:54.000Z</time>
      </trkpt>
      <trkpt lat="43.71274" lon="7.09721">
        <ele>314.60000610352</ele>
        <time>2023-08-02T12:14:55.000Z</time>
      </trkpt>
      <trkpt lat="43.71274" lon="7.09721">
        <ele>314.60000610352</ele>
        <time>2023-08-02T12:14:56.000Z</time>
      </trkpt>
      <trkpt lat="43.71274" lon="7.09721">
        <ele>314.60000610352</ele>
        <time>2023-08-02T12:14:57.000Z</time>
      </trkpt>
      <trkpt lat="43.71274" lon="7.09721">
        <ele>314.39999389648</ele>
        <time>2023-08-02T12:14:58.000Z</time>
      </trkpt>
      <trkpt lat="43.71274" lon="7.09721">
        <ele>314.39999389648</ele>
        <time>2023-08-02T12:14:59.000Z</time>
      </trkpt>
      <trkpt lat="43.71274" lon="7.09721">
        <ele>314.39999389648</ele>
        <time>2023-08-02T12:15:00.000Z</time>
      </trkpt>
      <trkpt lat="43.71274" lon="7.09721">
        <ele>314.39999389648</ele>
        <time>2023-08-02T12:15:01.000Z</time>
      </trkpt>
      <trkpt lat="43.71274" lon="7.09721">
        <ele>314.39999389648</ele>
        <time>2023-08-02T12:15:02.000Z</time>
      </trkpt>
      <trkpt lat="43.71274" lon="7.09721">
        <ele>314.39999389648</ele>
        <time>2023-08-02T12:15:03.000Z</time>
      </trkpt>
      <trkpt lat="43.71274" lon="7.09721">
        <ele>314.39999389648</ele>
        <time>2023-08-02T12:15:04.000Z</time>
      </trkpt>
      <trkpt lat="43.71274" lon="7.09721">
        <ele>314.39999389648</ele>
        <time>2023-08-02T12:15:05.000Z</time>
      </trkpt>
      <trkpt lat="43.71274" lon="7.09721">
        <ele>314.39999389648</ele>
        <time>2023-08-02T12:15:06.000Z</time>
      </trkpt>
      <trkpt lat="43.71274" lon="7.09721">
        <ele>314.39999389648</ele>
        <time>2023-08-02T12:15:07.000Z</time>
      </trkpt>
      <trkpt lat="43.71274" lon="7.09721">
        <ele>314.39999389648</ele>
        <time>2023-08-02T12:15:08.000Z</time>
      </trkpt>
      <trkpt lat="43.71274" lon="7.09721">
        <ele>314.39999389648</ele>
        <time>2023-08-02T12:15:09.000Z</time>
      </trkpt>
      <trkpt lat="43.71274" lon="7.09721">
        <ele>314.39999389648</ele>
        <time>2023-08-02T12:15:10.000Z</time>
      </trkpt>
      <trkpt lat="43.71274" lon="7.09721">
        <ele>314.39999389648</ele>
        <time>2023-08-02T12:15:11.000Z</time>
      </trkpt>
      <trkpt lat="43.71274" lon="7.09721">
        <ele>314.39999389648</ele>
        <time>2023-08-02T12:15:12.000Z</time>
      </trkpt>
      <trkpt lat="43.71274" lon="7.09721">
        <ele>314.39999389648</ele>
        <time>2023-08-02T12:15:13.000Z</time>
      </trkpt>
      <trkpt lat="43.71274" lon="7.09721">
        <ele>314.39999389648</ele>
        <time>2023-08-02T12:15:14.000Z</time>
      </trkpt>
      <trkpt lat="43.71274" lon="7.09721">
        <ele>314.39999389648</ele>
        <time>2023-08-02T12:15:15.000Z</time>
      </trkpt>
      <trkpt lat="43.71274" lon="7.09721">
        <ele>314.39999389648</ele>
        <time>2023-08-02T12:15:16.000Z</time>
      </trkpt>
      <trkpt lat="43.71274" lon="7.09721">
        <ele>314.39999389648</ele>
        <time>2023-08-02T12:15:17.000Z</time>
      </trkpt>
      <trkpt lat="43.71274" lon="7.09721">
        <ele>314.39999389648</ele>
        <time>2023-08-02T12:15:18.000Z</time>
      </trkpt>
      <trkpt lat="43.71274" lon="7.09721">
        <ele>314.39999389648</ele>
        <time>2023-08-02T12:15:19.000Z</time>
      </trkpt>
      <trkpt lat="43.71274" lon="7.09721">
        <ele>314.39999389648</ele>
        <time>2023-08-02T12:15:20.000Z</time>
      </trkpt>
      <trkpt lat="43.71274" lon="7.09721">
        <ele>314.39999389648</ele>
        <time>2023-08-02T12:15:21.000Z</time>
      </trkpt>
      <trkpt lat="43.71274" lon="7.09721">
        <ele>314.39999389648</ele>
        <time>2023-08-02T12:15:22.000Z</time>
      </trkpt>
      <trkpt lat="43.71274" lon="7.09721">
        <ele>314.39999389648</ele>
        <time>2023-08-02T12:15:23.000Z</time>
      </trkpt>
      <trkpt lat="43.71274" lon="7.09721">
        <ele>314.39999389648</ele>
        <time>2023-08-02T12:15:24.000Z</time>
      </trkpt>
      <trkpt lat="43.71274" lon="7.09721">
        <ele>314.39999389648</ele>
        <time>2023-08-02T12:15:25.000Z</time>
      </trkpt>
      <trkpt lat="43.71274" lon="7.09721">
        <ele>314.39999389648</ele>
        <time>2023-08-02T12:15:26.000Z</time>
      </trkpt>
      <trkpt lat="43.71274" lon="7.09721">
        <ele>314.39999389648</ele>
        <time>2023-08-02T12:15:27.000Z</time>
      </trkpt>
      <trkpt lat="43.71274" lon="7.09721">
        <ele>314.39999389648</ele>
        <time>2023-08-02T12:15:28.000Z</time>
      </trkpt>
      <trkpt lat="43.71274" lon="7.09721">
        <ele>314.39999389648</ele>
        <time>2023-08-02T12:15:29.000Z</time>
      </trkpt>
      <trkpt lat="43.71274" lon="7.09721">
        <ele>314.39999389648</ele>
        <time>2023-08-02T12:15:30.000Z</time>
      </trkpt>
      <trkpt lat="43.71274" lon="7.09721">
        <ele>314.39999389648</ele>
        <time>2023-08-02T12:15:31.000Z</time>
      </trkpt>
      <trkpt lat="43.71274" lon="7.09721">
        <ele>314.39999389648</ele>
        <time>2023-08-02T12:15:32.000Z</time>
      </trkpt>
      <trkpt lat="43.71274" lon="7.09721">
        <ele>314.39999389648</ele>
        <time>2023-08-02T12:15:33.000Z</time>
      </trkpt>
      <trkpt lat="43.71274" lon="7.09721">
        <ele>314.39999389648</ele>
        <time>2023-08-02T12:15:34.000Z</time>
      </trkpt>
      <trkpt lat="43.71274" lon="7.09721">
        <ele>314.39999389648</ele>
        <time>2023-08-02T12:15:35.000Z</time>
      </trkpt>
      <trkpt lat="43.71274" lon="7.09721">
        <ele>314.39999389648</ele>
        <time>2023-08-02T12:15:36.000Z</time>
      </trkpt>
      <trkpt lat="43.71274" lon="7.09721">
        <ele>314.60000610352</ele>
        <time>2023-08-02T12:15:37.000Z</time>
      </trkpt>
      <trkpt lat="43.71274" lon="7.09721">
        <ele>314.60000610352</ele>
        <time>2023-08-02T12:15:38.000Z</time>
      </trkpt>
      <trkpt lat="43.71274" lon="7.09721">
        <ele>314.60000610352</ele>
        <time>2023-08-02T12:15:39.000Z</time>
      </trkpt>
      <trkpt lat="43.71274" lon="7.09721">
        <ele>314.60000610352</ele>
        <time>2023-08-02T12:15:40.000Z</time>
      </trkpt>
      <trkpt lat="43.71274" lon="7.09721">
        <ele>314.39999389648</ele>
        <time>2023-08-02T12:15:41.000Z</time>
      </trkpt>
      <trkpt lat="43.71274" lon="7.09721">
        <ele>314.39999389648</ele>
        <time>2023-08-02T12:15:42.000Z</time>
      </trkpt>
      <trkpt lat="43.71274" lon="7.09721">
        <ele>314.39999389648</ele>
        <time>2023-08-02T12:15:43.000Z</time>
      </trkpt>
      <trkpt lat="43.71274" lon="7.09721">
        <ele>314.39999389648</ele>
        <time>2023-08-02T12:15:44.000Z</time>
      </trkpt>
      <trkpt lat="43.71274" lon="7.09721">
        <ele>314.60000610352</ele>
        <time>2023-08-02T12:15:45.000Z</time>
      </trkpt>
      <trkpt lat="43.71274" lon="7.09722">
        <ele>314.60000610352</ele>
        <time>2023-08-02T12:15:46.000Z</time>
      </trkpt>
      <trkpt lat="43.71274" lon="7.09722">
        <ele>314.60000610352</ele>
        <time>2023-08-02T12:15:47.000Z</time>
      </trkpt>
      <trkpt lat="43.71274" lon="7.09722">
        <ele>314.60000610352</ele>
        <time>2023-08-02T12:15:48.000Z</time>
      </trkpt>
      <trkpt lat="43.71274" lon="7.09722">
        <ele>314.60000610352</ele>
        <time>2023-08-02T12:15:49.000Z</time>
      </trkpt>
      <trkpt lat="43.71274" lon="7.09721">
        <ele>314.60000610352</ele>
        <time>2023-08-02T12:15:50.000Z</time>
      </trkpt>
      <trkpt lat="43.71274" lon="7.09721">
        <ele>314.60000610352</ele>
        <time>2023-08-02T12:15:51.000Z</time>
      </trkpt>
      <trkpt lat="43.71274" lon="7.09721">
        <ele>314.60000610352</ele>
        <time>2023-08-02T12:15:52.000Z</time>
      </trkpt>
      <trkpt lat="43.71274" lon="7.09721">
        <ele>314.60000610352</ele>
        <time>2023-08-02T12:15:53.000Z</time>
      </trkpt>
      <trkpt lat="43.71274" lon="7.09721">
        <ele>314.60000610352</ele>
        <time>2023-08-02T12:15:54.000Z</time>
      </trkpt>
      <trkpt lat="43.71274" lon="7.09721">
        <ele>314.60000610352</ele>
        <time>2023-08-02T12:15:55.000Z</time>
      </trkpt>
      <trkpt lat="43.71273" lon="7.09721">
        <ele>314.60000610352</ele>
        <time>2023-08-02T12:15:56.000Z</time>
      </trkpt>
      <trkpt lat="43.71273" lon="7.09721">
        <ele>314.60000610352</ele>
        <time>2023-08-02T12:15:57.000Z</time>
      </trkpt>
      <trkpt lat="43.71273" lon="7.09721">
        <ele>314.60000610352</ele>
        <time>2023-08-02T12:15:58.000Z</time>
      </trkpt>
      <trkpt lat="43.71273" lon="7.09721">
        <ele>314.60000610352</ele>
        <time>2023-08-02T12:15:59.000Z</time>
      </trkpt>
      <trkpt lat="43.71273" lon="7.09721">
        <ele>314.60000610352</ele>
        <time>2023-08-02T12:16:00.000Z</time>
      </trkpt>
      <trkpt lat="43.71273" lon="7.09721">
        <ele>314.60000610352</ele>
        <time>2023-08-02T12:16:01.000Z</time>
      </trkpt>
      <trkpt lat="43.71273" lon="7.09721">
        <ele>314.60000610352</ele>
        <time>2023-08-02T12:16:02.000Z</time>
      </trkpt>
      <trkpt lat="43.71273" lon="7.09721">
        <ele>314.60000610352</ele>
        <time>2023-08-02T12:16:03.000Z</time>
      </trkpt>
      <trkpt lat="43.71272" lon="7.09721">
        <ele>314.60000610352</ele>
        <time>2023-08-02T12:16:04.000Z</time>
      </trkpt>
      <trkpt lat="43.71272" lon="7.09721">
        <ele>314.60000610352</ele>
        <time>2023-08-02T12:16:05.000Z</time>
      </trkpt>
      <trkpt lat="43.71272" lon="7.09721">
        <ele>314.60000610352</ele>
        <time>2023-08-02T12:16:06.000Z</time>
      </trkpt>
      <trkpt lat="43.71273" lon="7.09721">
        <ele>314.60000610352</ele>
        <time>2023-08-02T12:16:07.000Z</time>
      </trkpt>
      <trkpt lat="43.71273" lon="7.09721">
        <ele>314.60000610352</ele>
        <time>2023-08-02T12:16:08.000Z</time>
      </trkpt>
      <trkpt lat="43.71273" lon="7.09722">
        <ele>314.60000610352</ele>
        <time>2023-08-02T12:16:09.000Z</time>
      </trkpt>
      <trkpt lat="43.71273" lon="7.09722">
        <ele>314.60000610352</ele>
        <time>2023-08-02T12:16:10.000Z</time>
      </trkpt>
      <trkpt lat="43.71273" lon="7.09722">
        <ele>314.60000610352</ele>
        <time>2023-08-02T12:16:11.000Z</time>
      </trkpt>
      <trkpt lat="43.71274" lon="7.0972">
        <ele>314.60000610352</ele>
        <time>2023-08-02T12:16:12.000Z</time>
      </trkpt>
      <trkpt lat="43.71274" lon="7.09718">
        <ele>314.39999389648</ele>
        <time>2023-08-02T12:16:13.000Z</time>
      </trkpt>
      <trkpt lat="43.71274" lon="7.09716">
        <ele>314.39999389648</ele>
        <time>2023-08-02T12:16:14.000Z</time>
      </trkpt>
      <trkpt lat="43.71273" lon="7.09716">
        <ele>314.39999389648</ele>
        <time>2023-08-02T12:16:15.000Z</time>
      </trkpt>
      <trkpt lat="43.71273" lon="7.09715">
        <ele>314.39999389648</ele>
        <time>2023-08-02T12:16:16.000Z</time>
      </trkpt>
      <trkpt lat="43.71273" lon="7.09713">
        <ele>314.60000610352</ele>
        <time>2023-08-02T12:16:17.000Z</time>
      </trkpt>
      <trkpt lat="43.71273" lon="7.09712">
        <ele>314.60000610352</ele>
        <time>2023-08-02T12:16:18.000Z</time>
      </trkpt>
      <trkpt lat="43.71274" lon="7.0971">
        <ele>314.60000610352</ele>
        <time>2023-08-02T12:16:19.000Z</time>
      </trkpt>
      <trkpt lat="43.71274" lon="7.09708">
        <ele>314.79998779297</ele>
        <time>2023-08-02T12:16:20.000Z</time>
      </trkpt>
      <trkpt lat="43.71274" lon="7.09707">
        <ele>314.79998779297</ele>
        <time>2023-08-02T12:16:21.000Z</time>
      </trkpt>
      <trkpt lat="43.71274" lon="7.09705">
        <ele>314.79998779297</ele>
        <time>2023-08-02T12:16:22.000Z</time>
      </trkpt>
      <trkpt lat="43.71274" lon="7.09703">
        <ele>314.79998779297</ele>
        <time>2023-08-02T12:16:23.000Z</time>
      </trkpt>
      <trkpt lat="43.71274" lon="7.09702">
        <ele>315</ele>
        <time>2023-08-02T12:16:24.000Z</time>
      </trkpt>
      <trkpt lat="43.71273" lon="7.097">
        <ele>315.20001220703</ele>
        <time>2023-08-02T12:16:25.000Z</time>
      </trkpt>
      <trkpt lat="43.71273" lon="7.09699">
        <ele>315.39999389648</ele>
        <time>2023-08-02T12:16:26.000Z</time>
      </trkpt>
      <trkpt lat="43.71272" lon="7.09699">
        <ele>315.60000610352</ele>
        <time>2023-08-02T12:16:27.000Z</time>
      </trkpt>
      <trkpt lat="43.71272" lon="7.09699">
        <ele>315.60000610352</ele>
        <time>2023-08-02T12:16:28.000Z</time>
      </trkpt>
      <trkpt lat="43.71272" lon="7.09698">
        <ele>315.79998779297</ele>
        <time>2023-08-02T12:16:29.000Z</time>
      </trkpt>
      <trkpt lat="43.71272" lon="7.09698">
        <ele>315.79998779297</ele>
        <time>2023-08-02T12:16:30.000Z</time>
      </trkpt>
      <trkpt lat="43.71272" lon="7.09698">
        <ele>315.79998779297</ele>
        <time>2023-08-02T12:16:31.000Z</time>
      </trkpt>
      <trkpt lat="43.71272" lon="7.09698">
        <ele>315.79998779297</ele>
        <time>2023-08-02T12:16:32.000Z</time>
      </trkpt>
      <trkpt lat="43.71272" lon="7.09698">
        <ele>315.79998779297</ele>
        <time>2023-08-02T12:16:33.000Z</time>
      </trkpt>
      <trkpt lat="43.71272" lon="7.09698">
        <ele>315.79998779297</ele>
        <time>2023-08-02T12:16:34.000Z</time>
      </trkpt>
      <trkpt lat="43.71272" lon="7.09698">
        <ele>315.60000610352</ele>
        <time>2023-08-02T12:16:35.000Z</time>
      </trkpt>
      <trkpt lat="43.71272" lon="7.09698">
        <ele>315.60000610352</ele>
        <time>2023-08-02T12:16:36.000Z</time>
      </trkpt>
      <trkpt lat="43.71272" lon="7.09698">
        <ele>315.60000610352</ele>
        <time>2023-08-02T12:16:37.000Z</time>
      </trkpt>
      <trkpt lat="43.71272" lon="7.09698">
        <ele>315.60000610352</ele>
        <time>2023-08-02T12:16:38.000Z</time>
      </trkpt>
      <trkpt lat="43.71272" lon="7.09698">
        <ele>315.60000610352</ele>
        <time>2023-08-02T12:16:39.000Z</time>
      </trkpt>
      <trkpt lat="43.71272" lon="7.09698">
        <ele>315.60000610352</ele>
        <time>2023-08-02T12:16:40.000Z</time>
      </trkpt>
      <trkpt lat="43.71272" lon="7.09698">
        <ele>315.60000610352</ele>
        <time>2023-08-02T12:16:41.000Z</time>
      </trkpt>
      <trkpt lat="43.71272" lon="7.09698">
        <ele>315.60000610352</ele>
        <time>2023-08-02T12:16:42.000Z</time>
      </trkpt>
      <trkpt lat="43.71272" lon="7.09698">
        <ele>315.60000610352</ele>
        <time>2023-08-02T12:16:43.000Z</time>
      </trkpt>
      <trkpt lat="43.71272" lon="7.09698">
        <ele>315.60000610352</ele>
        <time>2023-08-02T12:16:44.000Z</time>
      </trkpt>
      <trkpt lat="43.71272" lon="7.09698">
        <ele>315.60000610352</ele>
        <time>2023-08-02T12:16:45.000Z</time>
      </trkpt>
      <trkpt lat="43.71272" lon="7.09698">
        <ele>315.60000610352</ele>
        <time>2023-08-02T12:16:46.000Z</time>
      </trkpt>
      <trkpt lat="43.71272" lon="7.09698">
        <ele>315.79998779297</ele>
        <time>2023-08-02T12:16:47.000Z</time>
      </trkpt>
      <trkpt lat="43.71272" lon="7.09698">
        <ele>315.79998779297</ele>
        <time>2023-08-02T12:16:48.000Z</time>
      </trkpt>
      <trkpt lat="43.71272" lon="7.09699">
        <ele>315.79998779297</ele>
        <time>2023-08-02T12:16:49.000Z</time>
      </trkpt>
      <trkpt lat="43.71272" lon="7.09699">
        <ele>315.79998779297</ele>
        <time>2023-08-02T12:16:50.000Z</time>
      </trkpt>
      <trkpt lat="43.71273" lon="7.09699">
        <ele>315.79998779297</ele>
        <time>2023-08-02T12:16:51.000Z</time>
      </trkpt>
      <trkpt lat="43.71273" lon="7.09699">
        <ele>315.79998779297</ele>
        <time>2023-08-02T12:16:52.000Z</time>
      </trkpt>
      <trkpt lat="43.71273" lon="7.09699">
        <ele>315.79998779297</ele>
        <time>2023-08-02T12:16:53.000Z</time>
      </trkpt>
      <trkpt lat="43.71273" lon="7.09699">
        <ele>315.79998779297</ele>
        <time>2023-08-02T12:16:54.000Z</time>
      </trkpt>
      <trkpt lat="43.71273" lon="7.09699">
        <ele>315.79998779297</ele>
        <time>2023-08-02T12:16:55.000Z</time>
      </trkpt>
      <trkpt lat="43.71273" lon="7.09699">
        <ele>315.79998779297</ele>
        <time>2023-08-02T12:16:56.000Z</time>
      </trkpt>
      <trkpt lat="43.71273" lon="7.09699">
        <ele>315.79998779297</ele>
        <time>2023-08-02T12:16:57.000Z</time>
      </trkpt>
      <trkpt lat="43.71273" lon="7.09699">
        <ele>315.79998779297</ele>
        <time>2023-08-02T12:16:58.000Z</time>
      </trkpt>
      <trkpt lat="43.71273" lon="7.09699">
        <ele>315.79998779297</ele>
        <time>2023-08-02T12:16:59.000Z</time>
      </trkpt>
      <trkpt lat="43.71272" lon="7.09699">
        <ele>315.79998779297</ele>
        <time>2023-08-02T12:17:00.000Z</time>
      </trkpt>
      <trkpt lat="43.71272" lon="7.09699">
        <ele>315.79998779297</ele>
        <time>2023-08-02T12:17:01.000Z</time>
      </trkpt>
      <trkpt lat="43.71272" lon="7.09699">
        <ele>315.79998779297</ele>
        <time>2023-08-02T12:17:02.000Z</time>
      </trkpt>
      <trkpt lat="43.71272" lon="7.09699">
        <ele>315.79998779297</ele>
        <time>2023-08-02T12:17:03.000Z</time>
      </trkpt>
      <trkpt lat="43.71272" lon="7.09699">
        <ele>315.79998779297</ele>
        <time>2023-08-02T12:17:04.000Z</time>
      </trkpt>
      <trkpt lat="43.71272" lon="7.09699">
        <ele>315.79998779297</ele>
        <time>2023-08-02T12:17:05.000Z</time>
      </trkpt>
      <trkpt lat="43.71272" lon="7.09699">
        <ele>315.79998779297</ele>
        <time>2023-08-02T12:17:06.000Z</time>
      </trkpt>
      <trkpt lat="43.71272" lon="7.09699">
        <ele>315.79998779297</ele>
        <time>2023-08-02T12:17:07.000Z</time>
      </trkpt>
      <trkpt lat="43.71272" lon="7.09698">
        <ele>315.79998779297</ele>
        <time>2023-08-02T12:17:08.000Z</time>
      </trkpt>
      <trkpt lat="43.71271" lon="7.09698">
        <ele>315.79998779297</ele>
        <time>2023-08-02T12:17:09.000Z</time>
      </trkpt>
      <trkpt lat="43.71271" lon="7.09696">
        <ele>315.79998779297</ele>
        <time>2023-08-02T12:17:10.000Z</time>
      </trkpt>
      <trkpt lat="43.7127" lon="7.09695">
        <ele>315.79998779297</ele>
        <time>2023-08-02T12:17:11.000Z</time>
      </trkpt>
      <trkpt lat="43.7127" lon="7.09694">
        <ele>315.79998779297</ele>
        <time>2023-08-02T12:17:12.000Z</time>
      </trkpt>
      <trkpt lat="43.71271" lon="7.09693">
        <ele>315.79998779297</ele>
        <time>2023-08-02T12:17:13.000Z</time>
      </trkpt>
      <trkpt lat="43.71271" lon="7.09691">
        <ele>315.79998779297</ele>
        <time>2023-08-02T12:17:14.000Z</time>
      </trkpt>
      <trkpt lat="43.71271" lon="7.09689">
        <ele>316</ele>
        <time>2023-08-02T12:17:15.000Z</time>
      </trkpt>
      <trkpt lat="43.71271" lon="7.09687">
        <ele>316.20001220703</ele>
        <time>2023-08-02T12:17:16.000Z</time>
      </trkpt>
      <trkpt lat="43.71271" lon="7.09684">
        <ele>316.20001220703</ele>
        <time>2023-08-02T12:17:17.000Z</time>
      </trkpt>
      <trkpt lat="43.71271" lon="7.09681">
        <ele>316.39999389648</ele>
        <time>2023-08-02T12:17:18.000Z</time>
      </trkpt>
      <trkpt lat="43.71272" lon="7.0968">
        <ele>316.39999389648</ele>
        <time>2023-08-02T12:17:19.000Z</time>
      </trkpt>
      <trkpt lat="43.71272" lon="7.09679">
        <ele>316.79998779297</ele>
        <time>2023-08-02T12:17:20.000Z</time>
      </trkpt>
      <trkpt lat="43.71272" lon="7.09679">
        <ele>316.79998779297</ele>
        <time>2023-08-02T12:17:21.000Z</time>
      </trkpt>
      <trkpt lat="43.71272" lon="7.09679">
        <ele>317</ele>
        <time>2023-08-02T12:17:22.000Z</time>
      </trkpt>
      <trkpt lat="43.71272" lon="7.09679">
        <ele>317.20001220703</ele>
        <time>2023-08-02T12:17:23.000Z</time>
      </trkpt>
      <trkpt lat="43.71272" lon="7.09679">
        <ele>317.20001220703</ele>
        <time>2023-08-02T12:17:24.000Z</time>
      </trkpt>
      <trkpt lat="43.71271" lon="7.09679">
        <ele>317.20001220703</ele>
        <time>2023-08-02T12:17:25.000Z</time>
      </trkpt>
      <trkpt lat="43.71271" lon="7.09679">
        <ele>317.39999389648</ele>
        <time>2023-08-02T12:17:26.000Z</time>
      </trkpt>
      <trkpt lat="43.71271" lon="7.09679">
        <ele>317.39999389648</ele>
        <time>2023-08-02T12:17:27.000Z</time>
      </trkpt>
      <trkpt lat="43.71271" lon="7.09679">
        <ele>317.39999389648</ele>
        <time>2023-08-02T12:17:28.000Z</time>
      </trkpt>
      <trkpt lat="43.71271" lon="7.09679">
        <ele>317.39999389648</ele>
        <time>2023-08-02T12:17:29.000Z</time>
      </trkpt>
      <trkpt lat="43.71271" lon="7.09679">
        <ele>317.39999389648</ele>
        <time>2023-08-02T12:17:30.000Z</time>
      </trkpt>
      <trkpt lat="43.71271" lon="7.09679">
        <ele>317.39999389648</ele>
        <time>2023-08-02T12:17:31.000Z</time>
      </trkpt>
      <trkpt lat="43.71271" lon="7.09679">
        <ele>317.39999389648</ele>
        <time>2023-08-02T12:17:32.000Z</time>
      </trkpt>
      <trkpt lat="43.71271" lon="7.09679">
        <ele>317.39999389648</ele>
        <time>2023-08-02T12:17:33.000Z</time>
      </trkpt>
      <trkpt lat="43.71271" lon="7.09679">
        <ele>317.39999389648</ele>
        <time>2023-08-02T12:17:34.000Z</time>
      </trkpt>
      <trkpt lat="43.71271" lon="7.09679">
        <ele>317.39999389648</ele>
        <time>2023-08-02T12:17:35.000Z</time>
      </trkpt>
      <trkpt lat="43.71271" lon="7.09679">
        <ele>317.39999389648</ele>
        <time>2023-08-02T12:17:36.000Z</time>
      </trkpt>
      <trkpt lat="43.71271" lon="7.09679">
        <ele>317.39999389648</ele>
        <time>2023-08-02T12:17:37.000Z</time>
      </trkpt>
      <trkpt lat="43.71271" lon="7.09679">
        <ele>317.39999389648</ele>
        <time>2023-08-02T12:17:38.000Z</time>
      </trkpt>
      <trkpt lat="43.71271" lon="7.09678">
        <ele>317.39999389648</ele>
        <time>2023-08-02T12:17:39.000Z</time>
      </trkpt>
      <trkpt lat="43.71271" lon="7.09678">
        <ele>317.39999389648</ele>
        <time>2023-08-02T12:17:40.000Z</time>
      </trkpt>
      <trkpt lat="43.71271" lon="7.09678">
        <ele>317.39999389648</ele>
        <time>2023-08-02T12:17:41.000Z</time>
      </trkpt>
      <trkpt lat="43.71271" lon="7.09678">
        <ele>317.39999389648</ele>
        <time>2023-08-02T12:17:42.000Z</time>
      </trkpt>
      <trkpt lat="43.71271" lon="7.09678">
        <ele>317.39999389648</ele>
        <time>2023-08-02T12:17:43.000Z</time>
      </trkpt>
      <trkpt lat="43.7127" lon="7.09677">
        <ele>317.39999389648</ele>
        <time>2023-08-02T12:17:44.000Z</time>
      </trkpt>
      <trkpt lat="43.7127" lon="7.09675">
        <ele>317.39999389648</ele>
        <time>2023-08-02T12:17:45.000Z</time>
      </trkpt>
      <trkpt lat="43.71269" lon="7.09674">
        <ele>317.39999389648</ele>
        <time>2023-08-02T12:17:46.000Z</time>
      </trkpt>
      <trkpt lat="43.71269" lon="7.09672">
        <ele>317.39999389648</ele>
        <time>2023-08-02T12:17:47.000Z</time>
      </trkpt>
      <trkpt lat="43.71269" lon="7.09669">
        <ele>317.39999389648</ele>
        <time>2023-08-02T12:17:48.000Z</time>
      </trkpt>
      <trkpt lat="43.71269" lon="7.09666">
        <ele>317.60000610352</ele>
        <time>2023-08-02T12:17:49.000Z</time>
      </trkpt>
      <trkpt lat="43.7127" lon="7.09664">
        <ele>317.79998779297</ele>
        <time>2023-08-02T12:17:50.000Z</time>
      </trkpt>
      <trkpt lat="43.7127" lon="7.09661">
        <ele>318.20001220703</ele>
        <time>2023-08-02T12:17:51.000Z</time>
      </trkpt>
      <trkpt lat="43.7127" lon="7.09658">
        <ele>318.20001220703</ele>
        <time>2023-08-02T12:17:52.000Z</time>
      </trkpt>
      <trkpt lat="43.7127" lon="7.09656">
        <ele>318.60000610352</ele>
        <time>2023-08-02T12:17:53.000Z</time>
      </trkpt>
      <trkpt lat="43.71269" lon="7.09654">
        <ele>318.79998779297</ele>
        <time>2023-08-02T12:17:54.000Z</time>
      </trkpt>
      <trkpt lat="43.71269" lon="7.09651">
        <ele>318.79998779297</ele>
        <time>2023-08-02T12:17:55.000Z</time>
      </trkpt>
      <trkpt lat="43.7127" lon="7.09649">
        <ele>319</ele>
        <time>2023-08-02T12:17:56.000Z</time>
      </trkpt>
      <trkpt lat="43.7127" lon="7.09646">
        <ele>319.39999389648</ele>
        <time>2023-08-02T12:17:57.000Z</time>
      </trkpt>
      <trkpt lat="43.71271" lon="7.09643">
        <ele>319.39999389648</ele>
        <time>2023-08-02T12:17:58.000Z</time>
      </trkpt>
      <trkpt lat="43.71271" lon="7.0964">
        <ele>319.79998779297</ele>
        <time>2023-08-02T12:17:59.000Z</time>
      </trkpt>
      <trkpt lat="43.71271" lon="7.09638">
        <ele>320</ele>
        <time>2023-08-02T12:18:00.000Z</time>
      </trkpt>
      <trkpt lat="43.71271" lon="7.09637">
        <ele>320.39999389648</ele>
        <time>2023-08-02T12:18:01.000Z</time>
      </trkpt>
      <trkpt lat="43.7127" lon="7.09636">
        <ele>320.60000610352</ele>
        <time>2023-08-02T12:18:02.000Z</time>
      </trkpt>
      <trkpt lat="43.71269" lon="7.09636">
        <ele>320.79998779297</ele>
        <time>2023-08-02T12:18:03.000Z</time>
      </trkpt>
      <trkpt lat="43.71269" lon="7.09637">
        <ele>321.20001220703</ele>
        <time>2023-08-02T12:18:04.000Z</time>
      </trkpt>
      <trkpt lat="43.71269" lon="7.09637">
        <ele>321.39999389648</ele>
        <time>2023-08-02T12:18:05.000Z</time>
      </trkpt>
      <trkpt lat="43.71269" lon="7.09637">
        <ele>321.60000610352</ele>
        <time>2023-08-02T12:18:06.000Z</time>
      </trkpt>
      <trkpt lat="43.71269" lon="7.09637">
        <ele>321.60000610352</ele>
        <time>2023-08-02T12:18:07.000Z</time>
      </trkpt>
      <trkpt lat="43.71269" lon="7.09637">
        <ele>321.79998779297</ele>
        <time>2023-08-02T12:18:08.000Z</time>
      </trkpt>
      <trkpt lat="43.71269" lon="7.09637">
        <ele>321.79998779297</ele>
        <time>2023-08-02T12:18:09.000Z</time>
      </trkpt>
      <trkpt lat="43.71269" lon="7.09637">
        <ele>321.79998779297</ele>
        <time>2023-08-02T12:18:10.000Z</time>
      </trkpt>
      <trkpt lat="43.71269" lon="7.09637">
        <ele>321.79998779297</ele>
        <time>2023-08-02T12:18:11.000Z</time>
      </trkpt>
      <trkpt lat="43.71269" lon="7.09637">
        <ele>321.79998779297</ele>
        <time>2023-08-02T12:18:12.000Z</time>
      </trkpt>
      <trkpt lat="43.71269" lon="7.09637">
        <ele>321.79998779297</ele>
        <time>2023-08-02T12:18:13.000Z</time>
      </trkpt>
      <trkpt lat="43.71269" lon="7.09637">
        <ele>322</ele>
        <time>2023-08-02T12:18:14.000Z</time>
      </trkpt>
      <trkpt lat="43.7127" lon="7.09637">
        <ele>322</ele>
        <time>2023-08-02T12:18:15.000Z</time>
      </trkpt>
      <trkpt lat="43.7127" lon="7.09637">
        <ele>322</ele>
        <time>2023-08-02T12:18:16.000Z</time>
      </trkpt>
      <trkpt lat="43.7127" lon="7.09637">
        <ele>322</ele>
        <time>2023-08-02T12:18:17.000Z</time>
      </trkpt>
      <trkpt lat="43.7127" lon="7.09637">
        <ele>322</ele>
        <time>2023-08-02T12:18:18.000Z</time>
      </trkpt>
      <trkpt lat="43.7127" lon="7.09637">
        <ele>322</ele>
        <time>2023-08-02T12:18:19.000Z</time>
      </trkpt>
      <trkpt lat="43.71271" lon="7.09638">
        <ele>322</ele>
        <time>2023-08-02T12:18:20.000Z</time>
      </trkpt>
      <trkpt lat="43.71273" lon="7.09638">
        <ele>321.79998779297</ele>
        <time>2023-08-02T12:18:21.000Z</time>
      </trkpt>
      <trkpt lat="43.71273" lon="7.09637">
        <ele>321.79998779297</ele>
        <time>2023-08-02T12:18:22.000Z</time>
      </trkpt>
      <trkpt lat="43.71273" lon="7.09636">
        <ele>321.79998779297</ele>
        <time>2023-08-02T12:18:23.000Z</time>
      </trkpt>
      <trkpt lat="43.71273" lon="7.09636">
        <ele>321.79998779297</ele>
        <time>2023-08-02T12:18:24.000Z</time>
      </trkpt>
      <trkpt lat="43.71273" lon="7.09636">
        <ele>321.60000610352</ele>
        <time>2023-08-02T12:18:25.000Z</time>
      </trkpt>
      <trkpt lat="43.71273" lon="7.09636">
        <ele>321.60000610352</ele>
        <time>2023-08-02T12:18:26.000Z</time>
      </trkpt>
      <trkpt lat="43.71273" lon="7.09636">
        <ele>321.60000610352</ele>
        <time>2023-08-02T12:18:27.000Z</time>
      </trkpt>
      <trkpt lat="43.71273" lon="7.09636">
        <ele>321.60000610352</ele>
        <time>2023-08-02T12:18:28.000Z</time>
      </trkpt>
      <trkpt lat="43.71273" lon="7.09636">
        <ele>321.60000610352</ele>
        <time>2023-08-02T12:18:29.000Z</time>
      </trkpt>
      <trkpt lat="43.71273" lon="7.09635">
        <ele>321.60000610352</ele>
        <time>2023-08-02T12:18:30.000Z</time>
      </trkpt>
      <trkpt lat="43.71273" lon="7.09635">
        <ele>321.60000610352</ele>
        <time>2023-08-02T12:18:31.000Z</time>
      </trkpt>
      <trkpt lat="43.71273" lon="7.09635">
        <ele>321.60000610352</ele>
        <time>2023-08-02T12:18:32.000Z</time>
      </trkpt>
      <trkpt lat="43.71273" lon="7.09635">
        <ele>321.60000610352</ele>
        <time>2023-08-02T12:18:33.000Z</time>
      </trkpt>
      <trkpt lat="43.71273" lon="7.09635">
        <ele>321.60000610352</ele>
        <time>2023-08-02T12:18:34.000Z</time>
      </trkpt>
      <trkpt lat="43.71274" lon="7.09636">
        <ele>321.60000610352</ele>
        <time>2023-08-02T12:18:35.000Z</time>
      </trkpt>
      <trkpt lat="43.71275" lon="7.09635">
        <ele>321.60000610352</ele>
        <time>2023-08-02T12:18:36.000Z</time>
      </trkpt>
      <trkpt lat="43.71275" lon="7.09634">
        <ele>321.60000610352</ele>
        <time>2023-08-02T12:18:37.000Z</time>
      </trkpt>
      <trkpt lat="43.71274" lon="7.09634">
        <ele>321.60000610352</ele>
        <time>2023-08-02T12:18:38.000Z</time>
      </trkpt>
      <trkpt lat="43.71274" lon="7.09633">
        <ele>321.60000610352</ele>
        <time>2023-08-02T12:18:39.000Z</time>
      </trkpt>
      <trkpt lat="43.71275" lon="7.09633">
        <ele>321.60000610352</ele>
        <time>2023-08-02T12:18:40.000Z</time>
      </trkpt>
      <trkpt lat="43.71276" lon="7.09632">
        <ele>321.39999389648</ele>
        <time>2023-08-02T12:18:41.000Z</time>
      </trkpt>
      <trkpt lat="43.71278" lon="7.09633">
        <ele>321.39999389648</ele>
        <time>2023-08-02T12:18:42.000Z</time>
      </trkpt>
      <trkpt lat="43.71279" lon="7.09634">
        <ele>321.39999389648</ele>
        <time>2023-08-02T12:18:43.000Z</time>
      </trkpt>
      <trkpt lat="43.71281" lon="7.09634">
        <ele>321.39999389648</ele>
        <time>2023-08-02T12:18:44.000Z</time>
      </trkpt>
      <trkpt lat="43.71282" lon="7.09635">
        <ele>321.39999389648</ele>
        <time>2023-08-02T12:18:45.000Z</time>
      </trkpt>
      <trkpt lat="43.71284" lon="7.09636">
        <ele>321.39999389648</ele>
        <time>2023-08-02T12:18:46.000Z</time>
      </trkpt>
      <trkpt lat="43.71286" lon="7.09636">
        <ele>321.39999389648</ele>
        <time>2023-08-02T12:18:47.000Z</time>
      </trkpt>
      <trkpt lat="43.71288" lon="7.09637">
        <ele>321.60000610352</ele>
        <time>2023-08-02T12:18:48.000Z</time>
      </trkpt>
      <trkpt lat="43.71289" lon="7.09637">
        <ele>321.60000610352</ele>
        <time>2023-08-02T12:18:49.000Z</time>
      </trkpt>
      <trkpt lat="43.71291" lon="7.09638">
        <ele>321.60000610352</ele>
        <time>2023-08-02T12:18:50.000Z</time>
      </trkpt>
      <trkpt lat="43.71293" lon="7.09639">
        <ele>321.60000610352</ele>
        <time>2023-08-02T12:18:51.000Z</time>
      </trkpt>
      <trkpt lat="43.71295" lon="7.09641">
        <ele>321.79998779297</ele>
        <time>2023-08-02T12:18:52.000Z</time>
      </trkpt>
      <trkpt lat="43.71296" lon="7.09643">
        <ele>321.79998779297</ele>
        <time>2023-08-02T12:18:53.000Z</time>
      </trkpt>
      <trkpt lat="43.71298" lon="7.09644">
        <ele>321.79998779297</ele>
        <time>2023-08-02T12:18:54.000Z</time>
      </trkpt>
      <trkpt lat="43.713" lon="7.09646">
        <ele>321.79998779297</ele>
        <time>2023-08-02T12:18:55.000Z</time>
      </trkpt>
      <trkpt lat="43.71301" lon="7.09646">
        <ele>322</ele>
        <time>2023-08-02T12:18:56.000Z</time>
      </trkpt>
      <trkpt lat="43.71303" lon="7.09646">
        <ele>322</ele>
        <time>2023-08-02T12:18:57.000Z</time>
      </trkpt>
      <trkpt lat="43.71305" lon="7.09646">
        <ele>322</ele>
        <time>2023-08-02T12:18:58.000Z</time>
      </trkpt>
      <trkpt lat="43.71308" lon="7.09646">
        <ele>322.20001220703</ele>
        <time>2023-08-02T12:18:59.000Z</time>
      </trkpt>
      <trkpt lat="43.7131" lon="7.09646">
        <ele>322.20001220703</ele>
        <time>2023-08-02T12:19:00.000Z</time>
      </trkpt>
      <trkpt lat="43.71313" lon="7.09646">
        <ele>322.20001220703</ele>
        <time>2023-08-02T12:19:01.000Z</time>
      </trkpt>
      <trkpt lat="43.71316" lon="7.09645">
        <ele>322.20001220703</ele>
        <time>2023-08-02T12:19:02.000Z</time>
      </trkpt>
      <trkpt lat="43.71319" lon="7.09644">
        <ele>322.20001220703</ele>
        <time>2023-08-02T12:19:03.000Z</time>
      </trkpt>
      <trkpt lat="43.71321" lon="7.09641">
        <ele>322</ele>
        <time>2023-08-02T12:19:04.000Z</time>
      </trkpt>
      <trkpt lat="43.71323" lon="7.09639">
        <ele>322</ele>
        <time>2023-08-02T12:19:05.000Z</time>
      </trkpt>
      <trkpt lat="43.71324" lon="7.09636">
        <ele>322</ele>
        <time>2023-08-02T12:19:06.000Z</time>
      </trkpt>
      <trkpt lat="43.71325" lon="7.09633">
        <ele>322</ele>
        <time>2023-08-02T12:19:07.000Z</time>
      </trkpt>
      <trkpt lat="43.71327" lon="7.0963">
        <ele>322</ele>
        <time>2023-08-02T12:19:08.000Z</time>
      </trkpt>
      <trkpt lat="43.71329" lon="7.09626">
        <ele>322</ele>
        <time>2023-08-02T12:19:09.000Z</time>
      </trkpt>
      <trkpt lat="43.71331" lon="7.09622">
        <ele>322</ele>
        <time>2023-08-02T12:19:10.000Z</time>
      </trkpt>
      <trkpt lat="43.71332" lon="7.09618">
        <ele>322.20001220703</ele>
        <time>2023-08-02T12:19:11.000Z</time>
      </trkpt>
      <trkpt lat="43.71334" lon="7.09614">
        <ele>322.20001220703</ele>
        <time>2023-08-02T12:19:12.000Z</time>
      </trkpt>
      <trkpt lat="43.71336" lon="7.0961">
        <ele>322.39999389648</ele>
        <time>2023-08-02T12:19:13.000Z</time>
      </trkpt>
      <trkpt lat="43.71337" lon="7.09606">
        <ele>322.60000610352</ele>
        <time>2023-08-02T12:19:14.000Z</time>
      </trkpt>
      <trkpt lat="43.71339" lon="7.09601">
        <ele>322.60000610352</ele>
        <time>2023-08-02T12:19:15.000Z</time>
      </trkpt>
      <trkpt lat="43.7134" lon="7.09596">
        <ele>322.60000610352</ele>
        <time>2023-08-02T12:19:16.000Z</time>
      </trkpt>
      <trkpt lat="43.71341" lon="7.0959">
        <ele>322.79998779297</ele>
        <time>2023-08-02T12:19:17.000Z</time>
      </trkpt>
      <trkpt lat="43.71342" lon="7.09585">
        <ele>323</ele>
        <time>2023-08-02T12:19:18.000Z</time>
      </trkpt>
      <trkpt lat="43.71341" lon="7.09578">
        <ele>323.20001220703</ele>
        <time>2023-08-02T12:19:19.000Z</time>
      </trkpt>
      <trkpt lat="43.71341" lon="7.09573">
        <ele>323.20001220703</ele>
        <time>2023-08-02T12:19:20.000Z</time>
      </trkpt>
      <trkpt lat="43.7134" lon="7.09567">
        <ele>323.20001220703</ele>
        <time>2023-08-02T12:19:21.000Z</time>
      </trkpt>
      <trkpt lat="43.7134" lon="7.09561">
        <ele>323.20001220703</ele>
        <time>2023-08-02T12:19:22.000Z</time>
      </trkpt>
      <trkpt lat="43.71339" lon="7.09556">
        <ele>323.39999389648</ele>
        <time>2023-08-02T12:19:23.000Z</time>
      </trkpt>
      <trkpt lat="43.71338" lon="7.0955">
        <ele>323.60000610352</ele>
        <time>2023-08-02T12:19:24.000Z</time>
      </trkpt>
      <trkpt lat="43.71338" lon="7.09544">
        <ele>324</ele>
        <time>2023-08-02T12:19:25.000Z</time>
      </trkpt>
      <trkpt lat="43.71337" lon="7.09539">
        <ele>324.20001220703</ele>
        <time>2023-08-02T12:19:26.000Z</time>
      </trkpt>
      <trkpt lat="43.71336" lon="7.09533">
        <ele>324.60000610352</ele>
        <time>2023-08-02T12:19:27.000Z</time>
      </trkpt>
      <trkpt lat="43.71335" lon="7.09528">
        <ele>324.79998779297</ele>
        <time>2023-08-02T12:19:28.000Z</time>
      </trkpt>
      <trkpt lat="43.71334" lon="7.09522">
        <ele>325</ele>
        <time>2023-08-02T12:19:29.000Z</time>
      </trkpt>
      <trkpt lat="43.71333" lon="7.09516">
        <ele>325.60000610352</ele>
        <time>2023-08-02T12:19:30.000Z</time>
      </trkpt>
      <trkpt lat="43.71332" lon="7.0951">
        <ele>326</ele>
        <time>2023-08-02T12:19:31.000Z</time>
      </trkpt>
      <trkpt lat="43.7133" lon="7.09505">
        <ele>326.20001220703</ele>
        <time>2023-08-02T12:19:32.000Z</time>
      </trkpt>
      <trkpt lat="43.71329" lon="7.09501">
        <ele>326.39999389648</ele>
        <time>2023-08-02T12:19:33.000Z</time>
      </trkpt>
      <trkpt lat="43.71328" lon="7.09496">
        <ele>327</ele>
        <time>2023-08-02T12:19:34.000Z</time>
      </trkpt>
      <trkpt lat="43.71327" lon="7.09492">
        <ele>327.20001220703</ele>
        <time>2023-08-02T12:19:35.000Z</time>
      </trkpt>
      <trkpt lat="43.71326" lon="7.09487">
        <ele>327.39999389648</ele>
        <time>2023-08-02T12:19:36.000Z</time>
      </trkpt>
      <trkpt lat="43.71325" lon="7.09482">
        <ele>327.79998779297</ele>
        <time>2023-08-02T12:19:37.000Z</time>
      </trkpt>
      <trkpt lat="43.71323" lon="7.09477">
        <ele>328.20001220703</ele>
        <time>2023-08-02T12:19:38.000Z</time>
      </trkpt>
      <trkpt lat="43.71323" lon="7.09472">
        <ele>328.60000610352</ele>
        <time>2023-08-02T12:19:39.000Z</time>
      </trkpt>
      <trkpt lat="43.71322" lon="7.09467">
        <ele>329</ele>
        <time>2023-08-02T12:19:40.000Z</time>
      </trkpt>
      <trkpt lat="43.71322" lon="7.09463">
        <ele>329.20001220703</ele>
        <time>2023-08-02T12:19:41.000Z</time>
      </trkpt>
      <trkpt lat="43.7132" lon="7.09459">
        <ele>329.60000610352</ele>
        <time>2023-08-02T12:19:42.000Z</time>
      </trkpt>
      <trkpt lat="43.71319" lon="7.09455">
        <ele>330</ele>
        <time>2023-08-02T12:19:43.000Z</time>
      </trkpt>
      <trkpt lat="43.71318" lon="7.0945">
        <ele>330.39999389648</ele>
        <time>2023-08-02T12:19:44.000Z</time>
      </trkpt>
      <trkpt lat="43.71317" lon="7.09444">
        <ele>330.60000610352</ele>
        <time>2023-08-02T12:19:45.000Z</time>
      </trkpt>
      <trkpt lat="43.71316" lon="7.09438">
        <ele>330.79998779297</ele>
        <time>2023-08-02T12:19:46.000Z</time>
      </trkpt>
      <trkpt lat="43.71315" lon="7.09433">
        <ele>330.79998779297</ele>
        <time>2023-08-02T12:19:47.000Z</time>
      </trkpt>
      <trkpt lat="43.71314" lon="7.09427">
        <ele>330.79998779297</ele>
        <time>2023-08-02T12:19:48.000Z</time>
      </trkpt>
      <trkpt lat="43.71312" lon="7.09422">
        <ele>331.20001220703</ele>
        <time>2023-08-02T12:19:49.000Z</time>
      </trkpt>
      <trkpt lat="43.71311" lon="7.09417">
        <ele>331.20001220703</ele>
        <time>2023-08-02T12:19:50.000Z</time>
      </trkpt>
      <trkpt lat="43.7131" lon="7.09411">
        <ele>331.39999389648</ele>
        <time>2023-08-02T12:19:51.000Z</time>
      </trkpt>
      <trkpt lat="43.71309" lon="7.09405">
        <ele>331.60000610352</ele>
        <time>2023-08-02T12:19:52.000Z</time>
      </trkpt>
      <trkpt lat="43.71309" lon="7.094">
        <ele>331.60000610352</ele>
        <time>2023-08-02T12:19:53.000Z</time>
      </trkpt>
      <trkpt lat="43.71309" lon="7.09394">
        <ele>331.79998779297</ele>
        <time>2023-08-02T12:19:54.000Z</time>
      </trkpt>
      <trkpt lat="43.71308" lon="7.09388">
        <ele>332</ele>
        <time>2023-08-02T12:19:55.000Z</time>
      </trkpt>
      <trkpt lat="43.71308" lon="7.09383">
        <ele>332.20001220703</ele>
        <time>2023-08-02T12:19:56.000Z</time>
      </trkpt>
      <trkpt lat="43.71308" lon="7.09376">
        <ele>332.20001220703</ele>
        <time>2023-08-02T12:19:57.000Z</time>
      </trkpt>
      <trkpt lat="43.71308" lon="7.0937">
        <ele>332.39999389648</ele>
        <time>2023-08-02T12:19:58.000Z</time>
      </trkpt>
      <trkpt lat="43.71307" lon="7.09364">
        <ele>332.39999389648</ele>
        <time>2023-08-02T12:19:59.000Z</time>
      </trkpt>
      <trkpt lat="43.71306" lon="7.09358">
        <ele>332.39999389648</ele>
        <time>2023-08-02T12:20:00.000Z</time>
      </trkpt>
      <trkpt lat="43.71305" lon="7.09353">
        <ele>332.60000610352</ele>
        <time>2023-08-02T12:20:01.000Z</time>
      </trkpt>
      <trkpt lat="43.71305" lon="7.09348">
        <ele>332.79998779297</ele>
        <time>2023-08-02T12:20:02.000Z</time>
      </trkpt>
      <trkpt lat="43.71305" lon="7.09342">
        <ele>333</ele>
        <time>2023-08-02T12:20:03.000Z</time>
      </trkpt>
      <trkpt lat="43.71305" lon="7.09336">
        <ele>333.20001220703</ele>
        <time>2023-08-02T12:20:04.000Z</time>
      </trkpt>
      <trkpt lat="43.71305" lon="7.09331">
        <ele>333.39999389648</ele>
        <time>2023-08-02T12:20:05.000Z</time>
      </trkpt>
      <trkpt lat="43.71305" lon="7.09325">
        <ele>333.60000610352</ele>
        <time>2023-08-02T12:20:06.000Z</time>
      </trkpt>
      <trkpt lat="43.71305" lon="7.09319">
        <ele>333.79998779297</ele>
        <time>2023-08-02T12:20:07.000Z</time>
      </trkpt>
      <trkpt lat="43.71306" lon="7.09314">
        <ele>334.20001220703</ele>
        <time>2023-08-02T12:20:08.000Z</time>
      </trkpt>
      <trkpt lat="43.71306" lon="7.09308">
        <ele>334.60000610352</ele>
        <time>2023-08-02T12:20:09.000Z</time>
      </trkpt>
      <trkpt lat="43.71307" lon="7.09303">
        <ele>335</ele>
        <time>2023-08-02T12:20:10.000Z</time>
      </trkpt>
      <trkpt lat="43.71307" lon="7.09298">
        <ele>335.39999389648</ele>
        <time>2023-08-02T12:20:11.000Z</time>
      </trkpt>
      <trkpt lat="43.71307" lon="7.09293">
        <ele>335.60000610352</ele>
        <time>2023-08-02T12:20:12.000Z</time>
      </trkpt>
      <trkpt lat="43.71308" lon="7.09289">
        <ele>336.20001220703</ele>
        <time>2023-08-02T12:20:13.000Z</time>
      </trkpt>
      <trkpt lat="43.71309" lon="7.09284">
        <ele>336.39999389648</ele>
        <time>2023-08-02T12:20:14.000Z</time>
      </trkpt>
      <trkpt lat="43.71309" lon="7.09279">
        <ele>337</ele>
        <time>2023-08-02T12:20:15.000Z</time>
      </trkpt>
      <trkpt lat="43.71308" lon="7.09275">
        <ele>337</ele>
        <time>2023-08-02T12:20:16.000Z</time>
      </trkpt>
      <trkpt lat="43.71308" lon="7.0927">
        <ele>337.60000610352</ele>
        <time>2023-08-02T12:20:17.000Z</time>
      </trkpt>
      <trkpt lat="43.71307" lon="7.09265">
        <ele>338</ele>
        <time>2023-08-02T12:20:18.000Z</time>
      </trkpt>
      <trkpt lat="43.71305" lon="7.0926">
        <ele>338.20001220703</ele>
        <time>2023-08-02T12:20:19.000Z</time>
      </trkpt>
      <trkpt lat="43.71303" lon="7.09255">
        <ele>338.39999389648</ele>
        <time>2023-08-02T12:20:20.000Z</time>
      </trkpt>
      <trkpt lat="43.71301" lon="7.0925">
        <ele>338.79998779297</ele>
        <time>2023-08-02T12:20:21.000Z</time>
      </trkpt>
      <trkpt lat="43.71299" lon="7.09243">
        <ele>338.79998779297</ele>
        <time>2023-08-02T12:20:22.000Z</time>
      </trkpt>
      <trkpt lat="43.71297" lon="7.09236">
        <ele>338.79998779297</ele>
        <time>2023-08-02T12:20:23.000Z</time>
      </trkpt>
      <trkpt lat="43.71295" lon="7.09229">
        <ele>338.79998779297</ele>
        <time>2023-08-02T12:20:24.000Z</time>
      </trkpt>
      <trkpt lat="43.71292" lon="7.09221">
        <ele>338.79998779297</ele>
        <time>2023-08-02T12:20:25.000Z</time>
      </trkpt>
      <trkpt lat="43.71291" lon="7.09213">
        <ele>338.60000610352</ele>
        <time>2023-08-02T12:20:26.000Z</time>
      </trkpt>
      <trkpt lat="43.7129" lon="7.09204">
        <ele>338.20001220703</ele>
        <time>2023-08-02T12:20:27.000Z</time>
      </trkpt>
      <trkpt lat="43.71289" lon="7.09195">
        <ele>338</ele>
        <time>2023-08-02T12:20:28.000Z</time>
      </trkpt>
      <trkpt lat="43.71289" lon="7.09187">
        <ele>338</ele>
        <time>2023-08-02T12:20:29.000Z</time>
      </trkpt>
      <trkpt lat="43.71288" lon="7.09179">
        <ele>338</ele>
        <time>2023-08-02T12:20:30.000Z</time>
      </trkpt>
      <trkpt lat="43.71289" lon="7.09171">
        <ele>338</ele>
        <time>2023-08-02T12:20:31.000Z</time>
      </trkpt>
      <trkpt lat="43.7129" lon="7.09163">
        <ele>338</ele>
        <time>2023-08-02T12:20:32.000Z</time>
      </trkpt>
      <trkpt lat="43.71291" lon="7.09156">
        <ele>338</ele>
        <time>2023-08-02T12:20:33.000Z</time>
      </trkpt>
      <trkpt lat="43.71293" lon="7.0915">
        <ele>338.20001220703</ele>
        <time>2023-08-02T12:20:34.000Z</time>
      </trkpt>
      <trkpt lat="43.71295" lon="7.09143">
        <ele>338.20001220703</ele>
        <time>2023-08-02T12:20:35.000Z</time>
      </trkpt>
      <trkpt lat="43.71298" lon="7.09137">
        <ele>338.20001220703</ele>
        <time>2023-08-02T12:20:36.000Z</time>
      </trkpt>
      <trkpt lat="43.713" lon="7.09131">
        <ele>338.20001220703</ele>
        <time>2023-08-02T12:20:37.000Z</time>
      </trkpt>
      <trkpt lat="43.71302" lon="7.09125">
        <ele>338.20001220703</ele>
        <time>2023-08-02T12:20:38.000Z</time>
      </trkpt>
      <trkpt lat="43.71304" lon="7.09119">
        <ele>338.20001220703</ele>
        <time>2023-08-02T12:20:39.000Z</time>
      </trkpt>
      <trkpt lat="43.71306" lon="7.09113">
        <ele>338.39999389648</ele>
        <time>2023-08-02T12:20:40.000Z</time>
      </trkpt>
      <trkpt lat="43.71307" lon="7.09107">
        <ele>338.39999389648</ele>
        <time>2023-08-02T12:20:41.000Z</time>
      </trkpt>
      <trkpt lat="43.71309" lon="7.091">
        <ele>338.39999389648</ele>
        <time>2023-08-02T12:20:42.000Z</time>
      </trkpt>
      <trkpt lat="43.7131" lon="7.09094">
        <ele>338.39999389648</ele>
        <time>2023-08-02T12:20:43.000Z</time>
      </trkpt>
      <trkpt lat="43.71312" lon="7.09087">
        <ele>338.39999389648</ele>
        <time>2023-08-02T12:20:44.000Z</time>
      </trkpt>
      <trkpt lat="43.71313" lon="7.09081">
        <ele>338.39999389648</ele>
        <time>2023-08-02T12:20:45.000Z</time>
      </trkpt>
      <trkpt lat="43.71315" lon="7.09074">
        <ele>338.20001220703</ele>
        <time>2023-08-02T12:20:46.000Z</time>
      </trkpt>
      <trkpt lat="43.71317" lon="7.09067">
        <ele>338.20001220703</ele>
        <time>2023-08-02T12:20:47.000Z</time>
      </trkpt>
      <trkpt lat="43.71318" lon="7.0906">
        <ele>338.20001220703</ele>
        <time>2023-08-02T12:20:48.000Z</time>
      </trkpt>
      <trkpt lat="43.71319" lon="7.09054">
        <ele>338</ele>
        <time>2023-08-02T12:20:49.000Z</time>
      </trkpt>
      <trkpt lat="43.71321" lon="7.09048">
        <ele>338</ele>
        <time>2023-08-02T12:20:50.000Z</time>
      </trkpt>
      <trkpt lat="43.71322" lon="7.09042">
        <ele>338</ele>
        <time>2023-08-02T12:20:51.000Z</time>
      </trkpt>
      <trkpt lat="43.71323" lon="7.09036">
        <ele>337.79998779297</ele>
        <time>2023-08-02T12:20:52.000Z</time>
      </trkpt>
      <trkpt lat="43.71324" lon="7.0903">
        <ele>337.60000610352</ele>
        <time>2023-08-02T12:20:53.000Z</time>
      </trkpt>
      <trkpt lat="43.71325" lon="7.09023">
        <ele>337.60000610352</ele>
        <time>2023-08-02T12:20:54.000Z</time>
      </trkpt>
      <trkpt lat="43.71326" lon="7.09018">
        <ele>337.60000610352</ele>
        <time>2023-08-02T12:20:55.000Z</time>
      </trkpt>
      <trkpt lat="43.71328" lon="7.09012">
        <ele>337.60000610352</ele>
        <time>2023-08-02T12:20:56.000Z</time>
      </trkpt>
      <trkpt lat="43.71329" lon="7.09007">
        <ele>337.60000610352</ele>
        <time>2023-08-02T12:20:57.000Z</time>
      </trkpt>
      <trkpt lat="43.7133" lon="7.09001">
        <ele>337.60000610352</ele>
        <time>2023-08-02T12:20:58.000Z</time>
      </trkpt>
      <trkpt lat="43.71331" lon="7.08995">
        <ele>337.60000610352</ele>
        <time>2023-08-02T12:20:59.000Z</time>
      </trkpt>
      <trkpt lat="43.71333" lon="7.08988">
        <ele>337.39999389648</ele>
        <time>2023-08-02T12:21:00.000Z</time>
      </trkpt>
      <trkpt lat="43.71334" lon="7.08983">
        <ele>337.39999389648</ele>
        <time>2023-08-02T12:21:01.000Z</time>
      </trkpt>
      <trkpt lat="43.71336" lon="7.08976">
        <ele>337.39999389648</ele>
        <time>2023-08-02T12:21:02.000Z</time>
      </trkpt>
      <trkpt lat="43.71337" lon="7.0897">
        <ele>337.39999389648</ele>
        <time>2023-08-02T12:21:03.000Z</time>
      </trkpt>
      <trkpt lat="43.71338" lon="7.08963">
        <ele>337.39999389648</ele>
        <time>2023-08-02T12:21:04.000Z</time>
      </trkpt>
      <trkpt lat="43.7134" lon="7.08956">
        <ele>337.39999389648</ele>
        <time>2023-08-02T12:21:05.000Z</time>
      </trkpt>
      <trkpt lat="43.71341" lon="7.0895">
        <ele>337.20001220703</ele>
        <time>2023-08-02T12:21:06.000Z</time>
      </trkpt>
      <trkpt lat="43.71342" lon="7.08944">
        <ele>337</ele>
        <time>2023-08-02T12:21:07.000Z</time>
      </trkpt>
      <trkpt lat="43.71343" lon="7.08937">
        <ele>337</ele>
        <time>2023-08-02T12:21:08.000Z</time>
      </trkpt>
      <trkpt lat="43.71345" lon="7.08931">
        <ele>336.79998779297</ele>
        <time>2023-08-02T12:21:09.000Z</time>
      </trkpt>
      <trkpt lat="43.71346" lon="7.08925">
        <ele>336.79998779297</ele>
        <time>2023-08-02T12:21:10.000Z</time>
      </trkpt>
      <trkpt lat="43.71347" lon="7.0892">
        <ele>336.79998779297</ele>
        <time>2023-08-02T12:21:11.000Z</time>
      </trkpt>
      <trkpt lat="43.71348" lon="7.08915">
        <ele>336.79998779297</ele>
        <time>2023-08-02T12:21:12.000Z</time>
      </trkpt>
      <trkpt lat="43.7135" lon="7.08909">
        <ele>336.79998779297</ele>
        <time>2023-08-02T12:21:13.000Z</time>
      </trkpt>
      <trkpt lat="43.71351" lon="7.08904">
        <ele>336.79998779297</ele>
        <time>2023-08-02T12:21:14.000Z</time>
      </trkpt>
      <trkpt lat="43.71353" lon="7.08898">
        <ele>336.79998779297</ele>
        <time>2023-08-02T12:21:15.000Z</time>
      </trkpt>
      <trkpt lat="43.71354" lon="7.08893">
        <ele>336.60000610352</ele>
        <time>2023-08-02T12:21:16.000Z</time>
      </trkpt>
      <trkpt lat="43.71356" lon="7.08887">
        <ele>336.60000610352</ele>
        <time>2023-08-02T12:21:17.000Z</time>
      </trkpt>
      <trkpt lat="43.71358" lon="7.0888">
        <ele>336.60000610352</ele>
        <time>2023-08-02T12:21:18.000Z</time>
      </trkpt>
      <trkpt lat="43.7136" lon="7.08873">
        <ele>336.39999389648</ele>
        <time>2023-08-02T12:21:19.000Z</time>
      </trkpt>
      <trkpt lat="43.71362" lon="7.08867">
        <ele>336.20001220703</ele>
        <time>2023-08-02T12:21:20.000Z</time>
      </trkpt>
      <trkpt lat="43.71364" lon="7.0886">
        <ele>336</ele>
        <time>2023-08-02T12:21:21.000Z</time>
      </trkpt>
      <trkpt lat="43.71367" lon="7.08853">
        <ele>335.79998779297</ele>
        <time>2023-08-02T12:21:22.000Z</time>
      </trkpt>
      <trkpt lat="43.7137" lon="7.08846">
        <ele>335.39999389648</ele>
        <time>2023-08-02T12:21:23.000Z</time>
      </trkpt>
      <trkpt lat="43.71372" lon="7.08839">
        <ele>335.20001220703</ele>
        <time>2023-08-02T12:21:24.000Z</time>
      </trkpt>
      <trkpt lat="43.71375" lon="7.08832">
        <ele>335</ele>
        <time>2023-08-02T12:21:25.000Z</time>
      </trkpt>
      <trkpt lat="43.71378" lon="7.08824">
        <ele>334.79998779297</ele>
        <time>2023-08-02T12:21:26.000Z</time>
      </trkpt>
      <trkpt lat="43.71381" lon="7.08817">
        <ele>334.60000610352</ele>
        <time>2023-08-02T12:21:27.000Z</time>
      </trkpt>
      <trkpt lat="43.71385" lon="7.0881">
        <ele>334.60000610352</ele>
        <time>2023-08-02T12:21:28.000Z</time>
      </trkpt>
      <trkpt lat="43.71388" lon="7.08803">
        <ele>334.39999389648</ele>
        <time>2023-08-02T12:21:29.000Z</time>
      </trkpt>
      <trkpt lat="43.71391" lon="7.08795">
        <ele>334</ele>
        <time>2023-08-02T12:21:30.000Z</time>
      </trkpt>
      <trkpt lat="43.71394" lon="7.08787">
        <ele>334</ele>
        <time>2023-08-02T12:21:31.000Z</time>
      </trkpt>
      <trkpt lat="43.71398" lon="7.08779">
        <ele>333.39999389648</ele>
        <time>2023-08-02T12:21:32.000Z</time>
      </trkpt>
      <trkpt lat="43.71402" lon="7.08771">
        <ele>333.20001220703</ele>
        <time>2023-08-02T12:21:33.000Z</time>
      </trkpt>
      <trkpt lat="43.71406" lon="7.08764">
        <ele>333</ele>
        <time>2023-08-02T12:21:34.000Z</time>
      </trkpt>
      <trkpt lat="43.71411" lon="7.08757">
        <ele>332.79998779297</ele>
        <time>2023-08-02T12:21:35.000Z</time>
      </trkpt>
      <trkpt lat="43.71416" lon="7.08751">
        <ele>332.39999389648</ele>
        <time>2023-08-02T12:21:36.000Z</time>
      </trkpt>
      <trkpt lat="43.71421" lon="7.08744">
        <ele>332.20001220703</ele>
        <time>2023-08-02T12:21:37.000Z</time>
      </trkpt>
      <trkpt lat="43.71426" lon="7.08737">
        <ele>331.79998779297</ele>
        <time>2023-08-02T12:21:38.000Z</time>
      </trkpt>
      <trkpt lat="43.71432" lon="7.0873">
        <ele>331.60000610352</ele>
        <time>2023-08-02T12:21:39.000Z</time>
      </trkpt>
      <trkpt lat="43.71437" lon="7.08723">
        <ele>331.60000610352</ele>
        <time>2023-08-02T12:21:40.000Z</time>
      </trkpt>
      <trkpt lat="43.71443" lon="7.08716">
        <ele>331.60000610352</ele>
        <time>2023-08-02T12:21:41.000Z</time>
      </trkpt>
      <trkpt lat="43.71448" lon="7.08709">
        <ele>331.20001220703</ele>
        <time>2023-08-02T12:21:42.000Z</time>
      </trkpt>
      <trkpt lat="43.71454" lon="7.08701">
        <ele>331</ele>
        <time>2023-08-02T12:21:43.000Z</time>
      </trkpt>
      <trkpt lat="43.7146" lon="7.08693">
        <ele>330.60000610352</ele>
        <time>2023-08-02T12:21:44.000Z</time>
      </trkpt>
      <trkpt lat="43.71466" lon="7.08685">
        <ele>330.20001220703</ele>
        <time>2023-08-02T12:21:45.000Z</time>
      </trkpt>
      <trkpt lat="43.71472" lon="7.08677">
        <ele>330</ele>
        <time>2023-08-02T12:21:46.000Z</time>
      </trkpt>
      <trkpt lat="43.71478" lon="7.08669">
        <ele>329.60000610352</ele>
        <time>2023-08-02T12:21:47.000Z</time>
      </trkpt>
      <trkpt lat="43.71484" lon="7.08662">
        <ele>329.60000610352</ele>
        <time>2023-08-02T12:21:48.000Z</time>
      </trkpt>
      <trkpt lat="43.71489" lon="7.08655">
        <ele>329.20001220703</ele>
        <time>2023-08-02T12:21:49.000Z</time>
      </trkpt>
      <trkpt lat="43.71494" lon="7.08649">
        <ele>328.39999389648</ele>
        <time>2023-08-02T12:21:50.000Z</time>
      </trkpt>
      <trkpt lat="43.71499" lon="7.08643">
        <ele>328.20001220703</ele>
        <time>2023-08-02T12:21:51.000Z</time>
      </trkpt>
      <trkpt lat="43.71503" lon="7.08638">
        <ele>327.60000610352</ele>
        <time>2023-08-02T12:21:52.000Z</time>
      </trkpt>
      <trkpt lat="43.71506" lon="7.08634">
        <ele>327.39999389648</ele>
        <time>2023-08-02T12:21:53.000Z</time>
      </trkpt>
      <trkpt lat="43.71509" lon="7.08631">
        <ele>326.79998779297</ele>
        <time>2023-08-02T12:21:54.000Z</time>
      </trkpt>
      <trkpt lat="43.71511" lon="7.08629">
        <ele>326.60000610352</ele>
        <time>2023-08-02T12:21:55.000Z</time>
      </trkpt>
      <trkpt lat="43.71513" lon="7.08628">
        <ele>326.20001220703</ele>
        <time>2023-08-02T12:21:56.000Z</time>
      </trkpt>
      <trkpt lat="43.71516" lon="7.08626">
        <ele>326</ele>
        <time>2023-08-02T12:21:57.000Z</time>
      </trkpt>
      <trkpt lat="43.71519" lon="7.08623">
        <ele>326</ele>
        <time>2023-08-02T12:21:58.000Z</time>
      </trkpt>
      <trkpt lat="43.71522" lon="7.08621">
        <ele>325.60000610352</ele>
        <time>2023-08-02T12:21:59.000Z</time>
      </trkpt>
      <trkpt lat="43.71525" lon="7.08619">
        <ele>325.39999389648</ele>
        <time>2023-08-02T12:22:00.000Z</time>
      </trkpt>
      <trkpt lat="43.71529" lon="7.08617">
        <ele>325.39999389648</ele>
        <time>2023-08-02T12:22:01.000Z</time>
      </trkpt>
      <trkpt lat="43.71533" lon="7.08615">
        <ele>325.39999389648</ele>
        <time>2023-08-02T12:22:02.000Z</time>
      </trkpt>
      <trkpt lat="43.71536" lon="7.08612">
        <ele>325.39999389648</ele>
        <time>2023-08-02T12:22:03.000Z</time>
      </trkpt>
      <trkpt lat="43.7154" lon="7.0861">
        <ele>325.39999389648</ele>
        <time>2023-08-02T12:22:04.000Z</time>
      </trkpt>
      <trkpt lat="43.71544" lon="7.08608">
        <ele>325.39999389648</ele>
        <time>2023-08-02T12:22:05.000Z</time>
      </trkpt>
      <trkpt lat="43.71548" lon="7.08605">
        <ele>325.39999389648</ele>
        <time>2023-08-02T12:22:06.000Z</time>
      </trkpt>
      <trkpt lat="43.71552" lon="7.08603">
        <ele>325.39999389648</ele>
        <time>2023-08-02T12:22:07.000Z</time>
      </trkpt>
      <trkpt lat="43.71556" lon="7.086">
        <ele>325.39999389648</ele>
        <time>2023-08-02T12:22:08.000Z</time>
      </trkpt>
      <trkpt lat="43.7156" lon="7.08597">
        <ele>325.39999389648</ele>
        <time>2023-08-02T12:22:09.000Z</time>
      </trkpt>
      <trkpt lat="43.71563" lon="7.08594">
        <ele>325.39999389648</ele>
        <time>2023-08-02T12:22:10.000Z</time>
      </trkpt>
      <trkpt lat="43.71567" lon="7.0859">
        <ele>325.39999389648</ele>
        <time>2023-08-02T12:22:11.000Z</time>
      </trkpt>
      <trkpt lat="43.71571" lon="7.08587">
        <ele>325.39999389648</ele>
        <time>2023-08-02T12:22:12.000Z</time>
      </trkpt>
      <trkpt lat="43.71575" lon="7.08584">
        <ele>325.39999389648</ele>
        <time>2023-08-02T12:22:13.000Z</time>
      </trkpt>
      <trkpt lat="43.71578" lon="7.0858">
        <ele>325.39999389648</ele>
        <time>2023-08-02T12:22:14.000Z</time>
      </trkpt>
      <trkpt lat="43.71582" lon="7.08577">
        <ele>325.39999389648</ele>
        <time>2023-08-02T12:22:15.000Z</time>
      </trkpt>
      <trkpt lat="43.71585" lon="7.08573">
        <ele>325.39999389648</ele>
        <time>2023-08-02T12:22:16.000Z</time>
      </trkpt>
      <trkpt lat="43.71589" lon="7.0857">
        <ele>325.39999389648</ele>
        <time>2023-08-02T12:22:17.000Z</time>
      </trkpt>
      <trkpt lat="43.71593" lon="7.08567">
        <ele>325.39999389648</ele>
        <time>2023-08-02T12:22:18.000Z</time>
      </trkpt>
      <trkpt lat="43.71596" lon="7.08563">
        <ele>325.39999389648</ele>
        <time>2023-08-02T12:22:19.000Z</time>
      </trkpt>
      <trkpt lat="43.716" lon="7.0856">
        <ele>325.39999389648</ele>
        <time>2023-08-02T12:22:20.000Z</time>
      </trkpt>
      <trkpt lat="43.71603" lon="7.08556">
        <ele>325.39999389648</ele>
        <time>2023-08-02T12:22:21.000Z</time>
      </trkpt>
      <trkpt lat="43.71606" lon="7.08553">
        <ele>325.39999389648</ele>
        <time>2023-08-02T12:22:22.000Z</time>
      </trkpt>
      <trkpt lat="43.7161" lon="7.08549">
        <ele>325.60000610352</ele>
        <time>2023-08-02T12:22:23.000Z</time>
      </trkpt>
      <trkpt lat="43.71613" lon="7.08545">
        <ele>325.60000610352</ele>
        <time>2023-08-02T12:22:24.000Z</time>
      </trkpt>
      <trkpt lat="43.71617" lon="7.08542">
        <ele>325.60000610352</ele>
        <time>2023-08-02T12:22:25.000Z</time>
      </trkpt>
      <trkpt lat="43.7162" lon="7.08538">
        <ele>325.60000610352</ele>
        <time>2023-08-02T12:22:26.000Z</time>
      </trkpt>
      <trkpt lat="43.71624" lon="7.08534">
        <ele>325.60000610352</ele>
        <time>2023-08-02T12:22:27.000Z</time>
      </trkpt>
      <trkpt lat="43.71628" lon="7.08531">
        <ele>325.60000610352</ele>
        <time>2023-08-02T12:22:28.000Z</time>
      </trkpt>
      <trkpt lat="43.71632" lon="7.08528">
        <ele>325.60000610352</ele>
        <time>2023-08-02T12:22:29.000Z</time>
      </trkpt>
      <trkpt lat="43.71635" lon="7.08524">
        <ele>325.60000610352</ele>
        <time>2023-08-02T12:22:30.000Z</time>
      </trkpt>
      <trkpt lat="43.71639" lon="7.0852">
        <ele>325.60000610352</ele>
        <time>2023-08-02T12:22:31.000Z</time>
      </trkpt>
      <trkpt lat="43.71643" lon="7.08517">
        <ele>325.60000610352</ele>
        <time>2023-08-02T12:22:32.000Z</time>
      </trkpt>
      <trkpt lat="43.71647" lon="7.08513">
        <ele>325.60000610352</ele>
        <time>2023-08-02T12:22:33.000Z</time>
      </trkpt>
      <trkpt lat="43.7165" lon="7.08509">
        <ele>325.60000610352</ele>
        <time>2023-08-02T12:22:34.000Z</time>
      </trkpt>
      <trkpt lat="43.71654" lon="7.08506">
        <ele>325.60000610352</ele>
        <time>2023-08-02T12:22:35.000Z</time>
      </trkpt>
      <trkpt lat="43.71658" lon="7.08503">
        <ele>325.60000610352</ele>
        <time>2023-08-02T12:22:36.000Z</time>
      </trkpt>
      <trkpt lat="43.71662" lon="7.085">
        <ele>325.60000610352</ele>
        <time>2023-08-02T12:22:37.000Z</time>
      </trkpt>
      <trkpt lat="43.71666" lon="7.08498">
        <ele>325.60000610352</ele>
        <time>2023-08-02T12:22:38.000Z</time>
      </trkpt>
      <trkpt lat="43.71671" lon="7.08495">
        <ele>325.60000610352</ele>
        <time>2023-08-02T12:22:39.000Z</time>
      </trkpt>
      <trkpt lat="43.71675" lon="7.08492">
        <ele>325.60000610352</ele>
        <time>2023-08-02T12:22:40.000Z</time>
      </trkpt>
      <trkpt lat="43.71679" lon="7.0849">
        <ele>325.60000610352</ele>
        <time>2023-08-02T12:22:41.000Z</time>
      </trkpt>
      <trkpt lat="43.71684" lon="7.08488">
        <ele>325.60000610352</ele>
        <time>2023-08-02T12:22:42.000Z</time>
      </trkpt>
      <trkpt lat="43.71688" lon="7.08487">
        <ele>325.60000610352</ele>
        <time>2023-08-02T12:22:43.000Z</time>
      </trkpt>
      <trkpt lat="43.71692" lon="7.08486">
        <ele>325.60000610352</ele>
        <time>2023-08-02T12:22:44.000Z</time>
      </trkpt>
      <trkpt lat="43.71696" lon="7.08485">
        <ele>325.60000610352</ele>
        <time>2023-08-02T12:22:45.000Z</time>
      </trkpt>
      <trkpt lat="43.71699" lon="7.08483">
        <ele>325.60000610352</ele>
        <time>2023-08-02T12:22:46.000Z</time>
      </trkpt>
      <trkpt lat="43.71701" lon="7.0848">
        <ele>325.60000610352</ele>
        <time>2023-08-02T12:22:47.000Z</time>
      </trkpt>
      <trkpt lat="43.71702" lon="7.08475">
        <ele>325.60000610352</ele>
        <time>2023-08-02T12:22:48.000Z</time>
      </trkpt>
      <trkpt lat="43.71701" lon="7.0847">
        <ele>325.60000610352</ele>
        <time>2023-08-02T12:22:49.000Z</time>
      </trkpt>
      <trkpt lat="43.717" lon="7.08466">
        <ele>325.60000610352</ele>
        <time>2023-08-02T12:22:50.000Z</time>
      </trkpt>
      <trkpt lat="43.71699" lon="7.08461">
        <ele>325.60000610352</ele>
        <time>2023-08-02T12:22:51.000Z</time>
      </trkpt>
      <trkpt lat="43.71697" lon="7.08456">
        <ele>325.60000610352</ele>
        <time>2023-08-02T12:22:52.000Z</time>
      </trkpt>
      <trkpt lat="43.71696" lon="7.08451">
        <ele>325.60000610352</ele>
        <time>2023-08-02T12:22:53.000Z</time>
      </trkpt>
      <trkpt lat="43.71695" lon="7.08447">
        <ele>325.20001220703</ele>
        <time>2023-08-02T12:22:54.000Z</time>
      </trkpt>
      <trkpt lat="43.71695" lon="7.08442">
        <ele>325.20001220703</ele>
        <time>2023-08-02T12:22:55.000Z</time>
      </trkpt>
      <trkpt lat="43.71693" lon="7.08437">
        <ele>325.20001220703</ele>
        <time>2023-08-02T12:22:56.000Z</time>
      </trkpt>
      <trkpt lat="43.71693" lon="7.08432">
        <ele>325.20001220703</ele>
        <time>2023-08-02T12:22:57.000Z</time>
      </trkpt>
      <trkpt lat="43.71692" lon="7.08427">
        <ele>325</ele>
        <time>2023-08-02T12:22:58.000Z</time>
      </trkpt>
      <trkpt lat="43.71691" lon="7.08422">
        <ele>325</ele>
        <time>2023-08-02T12:22:59.000Z</time>
      </trkpt>
      <trkpt lat="43.71691" lon="7.08417">
        <ele>325</ele>
        <time>2023-08-02T12:23:00.000Z</time>
      </trkpt>
      <trkpt lat="43.71691" lon="7.08412">
        <ele>325</ele>
        <time>2023-08-02T12:23:01.000Z</time>
      </trkpt>
      <trkpt lat="43.71692" lon="7.08407">
        <ele>325</ele>
        <time>2023-08-02T12:23:02.000Z</time>
      </trkpt>
      <trkpt lat="43.71693" lon="7.08402">
        <ele>325</ele>
        <time>2023-08-02T12:23:03.000Z</time>
      </trkpt>
      <trkpt lat="43.71695" lon="7.08397">
        <ele>325</ele>
        <time>2023-08-02T12:23:04.000Z</time>
      </trkpt>
      <trkpt lat="43.71697" lon="7.08393">
        <ele>325</ele>
        <time>2023-08-02T12:23:05.000Z</time>
      </trkpt>
      <trkpt lat="43.71699" lon="7.0839">
        <ele>325</ele>
        <time>2023-08-02T12:23:06.000Z</time>
      </trkpt>
      <trkpt lat="43.71701" lon="7.08386">
        <ele>324.79998779297</ele>
        <time>2023-08-02T12:23:07.000Z</time>
      </trkpt>
      <trkpt lat="43.71703" lon="7.08383">
        <ele>324.79998779297</ele>
        <time>2023-08-02T12:23:08.000Z</time>
      </trkpt>
      <trkpt lat="43.71705" lon="7.08379">
        <ele>324.79998779297</ele>
        <time>2023-08-02T12:23:09.000Z</time>
      </trkpt>
      <trkpt lat="43.71708" lon="7.08375">
        <ele>324.79998779297</ele>
        <time>2023-08-02T12:23:10.000Z</time>
      </trkpt>
      <trkpt lat="43.7171" lon="7.08372">
        <ele>324.79998779297</ele>
        <time>2023-08-02T12:23:11.000Z</time>
      </trkpt>
      <trkpt lat="43.71712" lon="7.08368">
        <ele>324.79998779297</ele>
        <time>2023-08-02T12:23:12.000Z</time>
      </trkpt>
      <trkpt lat="43.71714" lon="7.08365">
        <ele>325</ele>
        <time>2023-08-02T12:23:13.000Z</time>
      </trkpt>
      <trkpt lat="43.71716" lon="7.08361">
        <ele>325</ele>
        <time>2023-08-02T12:23:14.000Z</time>
      </trkpt>
      <trkpt lat="43.71719" lon="7.08358">
        <ele>325</ele>
        <time>2023-08-02T12:23:15.000Z</time>
      </trkpt>
      <trkpt lat="43.71721" lon="7.08355">
        <ele>325</ele>
        <time>2023-08-02T12:23:16.000Z</time>
      </trkpt>
      <trkpt lat="43.71723" lon="7.08351">
        <ele>325.20001220703</ele>
        <time>2023-08-02T12:23:17.000Z</time>
      </trkpt>
      <trkpt lat="43.71724" lon="7.08348">
        <ele>325.20001220703</ele>
        <time>2023-08-02T12:23:18.000Z</time>
      </trkpt>
      <trkpt lat="43.71726" lon="7.08345">
        <ele>325.20001220703</ele>
        <time>2023-08-02T12:23:19.000Z</time>
      </trkpt>
      <trkpt lat="43.71728" lon="7.08341">
        <ele>325.20001220703</ele>
        <time>2023-08-02T12:23:20.000Z</time>
      </trkpt>
      <trkpt lat="43.7173" lon="7.08338">
        <ele>325.20001220703</ele>
        <time>2023-08-02T12:23:21.000Z</time>
      </trkpt>
      <trkpt lat="43.71731" lon="7.08334">
        <ele>325.20001220703</ele>
        <time>2023-08-02T12:23:22.000Z</time>
      </trkpt>
      <trkpt lat="43.71732" lon="7.08329">
        <ele>325.20001220703</ele>
        <time>2023-08-02T12:23:23.000Z</time>
      </trkpt>
      <trkpt lat="43.71733" lon="7.08324">
        <ele>325.20001220703</ele>
        <time>2023-08-02T12:23:24.000Z</time>
      </trkpt>
      <trkpt lat="43.71735" lon="7.08319">
        <ele>325.20001220703</ele>
        <time>2023-08-02T12:23:25.000Z</time>
      </trkpt>
      <trkpt lat="43.71737" lon="7.08315">
        <ele>325</ele>
        <time>2023-08-02T12:23:26.000Z</time>
      </trkpt>
      <trkpt lat="43.71739" lon="7.08309">
        <ele>325</ele>
        <time>2023-08-02T12:23:27.000Z</time>
      </trkpt>
      <trkpt lat="43.71742" lon="7.08304">
        <ele>324.79998779297</ele>
        <time>2023-08-02T12:23:28.000Z</time>
      </trkpt>
      <trkpt lat="43.71745" lon="7.08298">
        <ele>324.60000610352</ele>
        <time>2023-08-02T12:23:29.000Z</time>
      </trkpt>
      <trkpt lat="43.71748" lon="7.08292">
        <ele>324.60000610352</ele>
        <time>2023-08-02T12:23:30.000Z</time>
      </trkpt>
      <trkpt lat="43.71751" lon="7.08286">
        <ele>324.39999389648</ele>
        <time>2023-08-02T12:23:31.000Z</time>
      </trkpt>
      <trkpt lat="43.71753" lon="7.08279">
        <ele>323.79998779297</ele>
        <time>2023-08-02T12:23:32.000Z</time>
      </trkpt>
      <trkpt lat="43.71753" lon="7.08272">
        <ele>323.79998779297</ele>
        <time>2023-08-02T12:23:33.000Z</time>
      </trkpt>
      <trkpt lat="43.71751" lon="7.08265">
        <ele>323.60000610352</ele>
        <time>2023-08-02T12:23:34.000Z</time>
      </trkpt>
      <trkpt lat="43.71747" lon="7.08259">
        <ele>323.60000610352</ele>
        <time>2023-08-02T12:23:35.000Z</time>
      </trkpt>
      <trkpt lat="43.71744" lon="7.08251">
        <ele>323.39999389648</ele>
        <time>2023-08-02T12:23:36.000Z</time>
      </trkpt>
      <trkpt lat="43.71741" lon="7.08242">
        <ele>323.39999389648</ele>
        <time>2023-08-02T12:23:37.000Z</time>
      </trkpt>
      <trkpt lat="43.71737" lon="7.08234">
        <ele>322.79998779297</ele>
        <time>2023-08-02T12:23:38.000Z</time>
      </trkpt>
      <trkpt lat="43.71733" lon="7.08226">
        <ele>322</ele>
        <time>2023-08-02T12:23:39.000Z</time>
      </trkpt>
      <trkpt lat="43.71729" lon="7.08218">
        <ele>321.20001220703</ele>
        <time>2023-08-02T12:23:40.000Z</time>
      </trkpt>
      <trkpt lat="43.71726" lon="7.0821">
        <ele>320.20001220703</ele>
        <time>2023-08-02T12:23:41.000Z</time>
      </trkpt>
      <trkpt lat="43.71723" lon="7.08204">
        <ele>319.39999389648</ele>
        <time>2023-08-02T12:23:42.000Z</time>
      </trkpt>
      <trkpt lat="43.71719" lon="7.08197">
        <ele>318.39999389648</ele>
        <time>2023-08-02T12:23:43.000Z</time>
      </trkpt>
      <trkpt lat="43.71715" lon="7.08189">
        <ele>317.39999389648</ele>
        <time>2023-08-02T12:23:44.000Z</time>
      </trkpt>
      <trkpt lat="43.71711" lon="7.08181">
        <ele>316.20001220703</ele>
        <time>2023-08-02T12:23:45.000Z</time>
      </trkpt>
      <trkpt lat="43.71707" lon="7.08174">
        <ele>315</ele>
        <time>2023-08-02T12:23:46.000Z</time>
      </trkpt>
      <trkpt lat="43.71701" lon="7.08169">
        <ele>314.20001220703</ele>
        <time>2023-08-02T12:23:47.000Z</time>
      </trkpt>
      <trkpt lat="43.71696" lon="7.08166">
        <ele>312.79998779297</ele>
        <time>2023-08-02T12:23:48.000Z</time>
      </trkpt>
      <trkpt lat="43.71691" lon="7.08161">
        <ele>311.60000610352</ele>
        <time>2023-08-02T12:23:49.000Z</time>
      </trkpt>
      <trkpt lat="43.71687" lon="7.08155">
        <ele>310.20001220703</ele>
        <time>2023-08-02T12:23:50.000Z</time>
      </trkpt>
      <trkpt lat="43.71683" lon="7.08148">
        <ele>309</ele>
        <time>2023-08-02T12:23:51.000Z</time>
      </trkpt>
      <trkpt lat="43.71678" lon="7.08143">
        <ele>307.60000610352</ele>
        <time>2023-08-02T12:23:52.000Z</time>
      </trkpt>
      <trkpt lat="43.71674" lon="7.08138">
        <ele>306.60000610352</ele>
        <time>2023-08-02T12:23:53.000Z</time>
      </trkpt>
      <trkpt lat="43.71671" lon="7.0813">
        <ele>305.20001220703</ele>
        <time>2023-08-02T12:23:54.000Z</time>
      </trkpt>
      <trkpt lat="43.71673" lon="7.08123">
        <ele>304</ele>
        <time>2023-08-02T12:23:55.000Z</time>
      </trkpt>
      <trkpt lat="43.71674" lon="7.08115">
        <ele>303</ele>
        <time>2023-08-02T12:23:56.000Z</time>
      </trkpt>
      <trkpt lat="43.71675" lon="7.08106">
        <ele>301.39999389648</ele>
        <time>2023-08-02T12:23:57.000Z</time>
      </trkpt>
      <trkpt lat="43.71673" lon="7.08098">
        <ele>300.60000610352</ele>
        <time>2023-08-02T12:23:58.000Z</time>
      </trkpt>
      <trkpt lat="43.71669" lon="7.08091">
        <ele>299.60000610352</ele>
        <time>2023-08-02T12:23:59.000Z</time>
      </trkpt>
      <trkpt lat="43.71664" lon="7.08083">
        <ele>299</ele>
        <time>2023-08-02T12:24:00.000Z</time>
      </trkpt>
      <trkpt lat="43.7166" lon="7.08074">
        <ele>299</ele>
        <time>2023-08-02T12:24:01.000Z</time>
      </trkpt>
      <trkpt lat="43.71656" lon="7.08065">
        <ele>298.39999389648</ele>
        <time>2023-08-02T12:24:02.000Z</time>
      </trkpt>
      <trkpt lat="43.71653" lon="7.08054">
        <ele>297.60000610352</ele>
        <time>2023-08-02T12:24:03.000Z</time>
      </trkpt>
      <trkpt lat="43.7165" lon="7.08044">
        <ele>296.60000610352</ele>
        <time>2023-08-02T12:24:04.000Z</time>
      </trkpt>
      <trkpt lat="43.71647" lon="7.08036">
        <ele>295.79998779297</ele>
        <time>2023-08-02T12:24:05.000Z</time>
      </trkpt>
      <trkpt lat="43.71645" lon="7.0803">
        <ele>295.20001220703</ele>
        <time>2023-08-02T12:24:06.000Z</time>
      </trkpt>
      <trkpt lat="43.71641" lon="7.08027">
        <ele>295</ele>
        <time>2023-08-02T12:24:07.000Z</time>
      </trkpt>
      <trkpt lat="43.71639" lon="7.08026">
        <ele>294.39999389648</ele>
        <time>2023-08-02T12:24:08.000Z</time>
      </trkpt>
      <trkpt lat="43.71638" lon="7.08025">
        <ele>294.20001220703</ele>
        <time>2023-08-02T12:24:09.000Z</time>
      </trkpt>
      <trkpt lat="43.71637" lon="7.08023">
        <ele>294</ele>
        <time>2023-08-02T12:24:10.000Z</time>
      </trkpt>
      <trkpt lat="43.71636" lon="7.08021">
        <ele>293.79998779297</ele>
        <time>2023-08-02T12:24:11.000Z</time>
      </trkpt>
      <trkpt lat="43.71635" lon="7.08019">
        <ele>293.60000610352</ele>
        <time>2023-08-02T12:24:12.000Z</time>
      </trkpt>
      <trkpt lat="43.71633" lon="7.08016">
        <ele>293.60000610352</ele>
        <time>2023-08-02T12:24:13.000Z</time>
      </trkpt>
      <trkpt lat="43.71633" lon="7.08013">
        <ele>293.39999389648</ele>
        <time>2023-08-02T12:24:14.000Z</time>
      </trkpt>
      <trkpt lat="43.71634" lon="7.08008">
        <ele>293</ele>
        <time>2023-08-02T12:24:15.000Z</time>
      </trkpt>
      <trkpt lat="43.71635" lon="7.08005">
        <ele>292.79998779297</ele>
        <time>2023-08-02T12:24:16.000Z</time>
      </trkpt>
      <trkpt lat="43.71636" lon="7.08003">
        <ele>292.39999389648</ele>
        <time>2023-08-02T12:24:17.000Z</time>
      </trkpt>
      <trkpt lat="43.71637" lon="7.08003">
        <ele>292.39999389648</ele>
        <time>2023-08-02T12:24:18.000Z</time>
      </trkpt>
      <trkpt lat="43.71637" lon="7.08003">
        <ele>291.79998779297</ele>
        <time>2023-08-02T12:24:19.000Z</time>
      </trkpt>
      <trkpt lat="43.71637" lon="7.08003">
        <ele>291.60000610352</ele>
        <time>2023-08-02T12:24:20.000Z</time>
      </trkpt>
      <trkpt lat="43.71637" lon="7.08003">
        <ele>291.60000610352</ele>
        <time>2023-08-02T12:24:21.000Z</time>
      </trkpt>
      <trkpt lat="43.71637" lon="7.08003">
        <ele>291.60000610352</ele>
        <time>2023-08-02T12:24:22.000Z</time>
      </trkpt>
      <trkpt lat="43.71638" lon="7.08">
        <ele>291.39999389648</ele>
        <time>2023-08-02T12:24:23.000Z</time>
      </trkpt>
      <trkpt lat="43.71639" lon="7.07997">
        <ele>291.39999389648</ele>
        <time>2023-08-02T12:24:24.000Z</time>
      </trkpt>
      <trkpt lat="43.71639" lon="7.07992">
        <ele>291.39999389648</ele>
        <time>2023-08-02T12:24:25.000Z</time>
      </trkpt>
      <trkpt lat="43.71639" lon="7.07988">
        <ele>291.20001220703</ele>
        <time>2023-08-02T12:24:26.000Z</time>
      </trkpt>
      <trkpt lat="43.71637" lon="7.07985">
        <ele>290.79998779297</ele>
        <time>2023-08-02T12:24:27.000Z</time>
      </trkpt>
      <trkpt lat="43.71633" lon="7.07984">
        <ele>290.60000610352</ele>
        <time>2023-08-02T12:24:28.000Z</time>
      </trkpt>
      <trkpt lat="43.71631" lon="7.07984">
        <ele>289.79998779297</ele>
        <time>2023-08-02T12:24:29.000Z</time>
      </trkpt>
      <trkpt lat="43.71629" lon="7.07983">
        <ele>289.79998779297</ele>
        <time>2023-08-02T12:24:30.000Z</time>
      </trkpt>
      <trkpt lat="43.71629" lon="7.07982">
        <ele>289.39999389648</ele>
        <time>2023-08-02T12:24:31.000Z</time>
      </trkpt>
      <trkpt lat="43.7163" lon="7.0798">
        <ele>289.20001220703</ele>
        <time>2023-08-02T12:24:32.000Z</time>
      </trkpt>
      <trkpt lat="43.7163" lon="7.07979">
        <ele>288.79998779297</ele>
        <time>2023-08-02T12:24:33.000Z</time>
      </trkpt>
      <trkpt lat="43.71629" lon="7.07979">
        <ele>288.79998779297</ele>
        <time>2023-08-02T12:24:34.000Z</time>
      </trkpt>
      <trkpt lat="43.71629" lon="7.07979">
        <ele>288.79998779297</ele>
        <time>2023-08-02T12:24:35.000Z</time>
      </trkpt>
      <trkpt lat="43.71629" lon="7.07978">
        <ele>288.79998779297</ele>
        <time>2023-08-02T12:24:36.000Z</time>
      </trkpt>
      <trkpt lat="43.71629" lon="7.07978">
        <ele>288.60000610352</ele>
        <time>2023-08-02T12:24:37.000Z</time>
      </trkpt>
      <trkpt lat="43.71629" lon="7.07978">
        <ele>288.60000610352</ele>
        <time>2023-08-02T12:24:38.000Z</time>
      </trkpt>
      <trkpt lat="43.71629" lon="7.07979">
        <ele>288.60000610352</ele>
        <time>2023-08-02T12:24:39.000Z</time>
      </trkpt>
      <trkpt lat="43.71629" lon="7.07979">
        <ele>288.60000610352</ele>
        <time>2023-08-02T12:24:40.000Z</time>
      </trkpt>
      <trkpt lat="43.7163" lon="7.07977">
        <ele>288.60000610352</ele>
        <time>2023-08-02T12:24:41.000Z</time>
      </trkpt>
      <trkpt lat="43.7163" lon="7.07976">
        <ele>288.60000610352</ele>
        <time>2023-08-02T12:24:42.000Z</time>
      </trkpt>
      <trkpt lat="43.7163" lon="7.07974">
        <ele>288.60000610352</ele>
        <time>2023-08-02T12:24:43.000Z</time>
      </trkpt>
    </trkseg>
  </trk>
</gpx>